<?xml version="1.0" encoding="UTF-8" standalone="no" ?>
<gpx xmlns="http://www.topografix.com/GPX/1/1" xmlns:xsi="http://www.w3.org/2001/XMLSchema-instance" xsi:schemaLocation="http://www.topografix.com/GPX/1/1 http://www.topografix.com/GPX/1/1/gpx.xsd" version="1.1" creator="VisuGPX - https://www.visugpx.com">
  <metadata>
    <name>2016-11-15 Bike ride-Dombes O-Medium</name>
    <desc><![CDATA[2016-11-15 Bike ride-Dombes O-Medium]]></desc>
  </metadata>
  <wpt lat="45.92517" lon="4.73918">
    <ele>171</ele>
    <name><![CDATA[2016-11-15 10:25 (Start)]]></name>
  </wpt>
  <wpt lat="45.92454" lon="4.7371">
    <ele>174</ele>
    <name><![CDATA[2016-11-15 10:25 (End)]]></name>
    <desc><![CDATA[Created by Google My Tracks on Android  Name: 2016-11-15 10:25 Activity type: - Description: - Total distance: 56.37 km (35.0 mi) Total time: 2:55:45 Moving time: 2:50:30 Average speed: 19.24 km/h (12.0 mi/h) Average moving speed: 19.84 km/h (12.3 mi/h) Max speed: 43.05 km/h (26.8 mi/h) Average pace: 3:07 min/km (5:01 min/mi) Average moving pace: 3:01 min/km (4:52 min/mi) Fastest pace: 1:24 min/km (2:15 min/mi) Max elevation: 319 m (1047 ft) Min elevation: 148 m (486 ft) Elevation gain: 858 m (2814 ft) Max grade: 16 % Min grade: -32 % Recorded: 15/11/2016 10:25]]></desc>
  </wpt>
  <trk>
    <name><![CDATA[2016-11-15 10:25]]></name>
    <trkseg>
      <trkpt lat="45.92517" lon="4.73918">
        <ele>171</ele>
        <time>2016-11-15T09:25:02.516Z</time>
      </trkpt>
      <trkpt lat="45.92517" lon="4.73912">
        <ele>171</ele>
        <time>2016-11-15T09:25:29Z</time>
      </trkpt>
      <trkpt lat="45.92515" lon="4.73921">
        <ele>171</ele>
        <time>2016-11-15T09:25:45Z</time>
      </trkpt>
      <trkpt lat="45.92524" lon="4.7393">
        <ele>172</ele>
        <time>2016-11-15T09:25:46Z</time>
      </trkpt>
      <trkpt lat="45.9253" lon="4.73935">
        <ele>172</ele>
        <time>2016-11-15T09:26:26Z</time>
      </trkpt>
      <trkpt lat="45.92538" lon="4.73918">
        <ele>172</ele>
        <time>2016-11-15T09:26:27Z</time>
      </trkpt>
      <trkpt lat="45.92542" lon="4.73909">
        <ele>171</ele>
        <time>2016-11-15T09:26:31Z</time>
      </trkpt>
      <trkpt lat="45.92545" lon="4.73902">
        <ele>171</ele>
        <time>2016-11-15T09:26:32Z</time>
      </trkpt>
      <trkpt lat="45.92551" lon="4.73892">
        <ele>171</ele>
        <time>2016-11-15T09:26:35Z</time>
      </trkpt>
      <trkpt lat="45.92553" lon="4.7389">
        <ele>171</ele>
        <time>2016-11-15T09:26:36Z</time>
      </trkpt>
      <trkpt lat="45.92558" lon="4.7388">
        <ele>171</ele>
        <time>2016-11-15T09:26:39Z</time>
      </trkpt>
      <trkpt lat="45.92558" lon="4.73876">
        <ele>171</ele>
        <time>2016-11-15T09:26:40Z</time>
      </trkpt>
      <trkpt lat="45.92558" lon="4.73864">
        <ele>171</ele>
        <time>2016-11-15T09:26:44Z</time>
      </trkpt>
      <trkpt lat="45.92559" lon="4.73861">
        <ele>171</ele>
        <time>2016-11-15T09:26:45Z</time>
      </trkpt>
      <trkpt lat="45.9256" lon="4.73849">
        <ele>171</ele>
        <time>2016-11-15T09:26:49Z</time>
      </trkpt>
      <trkpt lat="45.9256" lon="4.73845">
        <ele>171</ele>
        <time>2016-11-15T09:26:50Z</time>
      </trkpt>
      <trkpt lat="45.92562" lon="4.73833">
        <ele>171</ele>
        <time>2016-11-15T09:26:53Z</time>
      </trkpt>
      <trkpt lat="45.92563" lon="4.7383">
        <ele>171</ele>
        <time>2016-11-15T09:26:54Z</time>
      </trkpt>
      <trkpt lat="45.92565" lon="4.73819">
        <ele>171</ele>
        <time>2016-11-15T09:26:57Z</time>
      </trkpt>
      <trkpt lat="45.92567" lon="4.73816">
        <ele>171</ele>
        <time>2016-11-15T09:26:58Z</time>
      </trkpt>
      <trkpt lat="45.92574" lon="4.73812">
        <ele>171</ele>
        <time>2016-11-15T09:27:00Z</time>
      </trkpt>
      <trkpt lat="45.92578" lon="4.73811">
        <ele>171</ele>
        <time>2016-11-15T09:27:01Z</time>
      </trkpt>
      <trkpt lat="45.92582" lon="4.73812">
        <ele>171</ele>
        <time>2016-11-15T09:27:02Z</time>
      </trkpt>
      <trkpt lat="45.92587" lon="4.73811">
        <ele>171</ele>
        <time>2016-11-15T09:27:03Z</time>
      </trkpt>
      <trkpt lat="45.92592" lon="4.73809">
        <ele>171</ele>
        <time>2016-11-15T09:27:04Z</time>
      </trkpt>
      <trkpt lat="45.92597" lon="4.73808">
        <ele>171</ele>
        <time>2016-11-15T09:27:05Z</time>
      </trkpt>
      <trkpt lat="45.92604" lon="4.73807">
        <ele>171</ele>
        <time>2016-11-15T09:27:06Z</time>
      </trkpt>
      <trkpt lat="45.92609" lon="4.73805">
        <ele>172</ele>
        <time>2016-11-15T09:27:07Z</time>
      </trkpt>
      <trkpt lat="45.92614" lon="4.73804">
        <ele>172</ele>
        <time>2016-11-15T09:27:08Z</time>
      </trkpt>
      <trkpt lat="45.92619" lon="4.73802">
        <ele>172</ele>
        <time>2016-11-15T09:27:09Z</time>
      </trkpt>
      <trkpt lat="45.92624" lon="4.738">
        <ele>172</ele>
        <time>2016-11-15T09:27:10Z</time>
      </trkpt>
      <trkpt lat="45.92629" lon="4.73799">
        <ele>172</ele>
        <time>2016-11-15T09:27:11Z</time>
      </trkpt>
      <trkpt lat="45.92633" lon="4.73797">
        <ele>172</ele>
        <time>2016-11-15T09:27:12Z</time>
      </trkpt>
      <trkpt lat="45.92638" lon="4.73795">
        <ele>172</ele>
        <time>2016-11-15T09:27:13Z</time>
      </trkpt>
      <trkpt lat="45.92642" lon="4.73792">
        <ele>172</ele>
        <time>2016-11-15T09:27:14Z</time>
      </trkpt>
      <trkpt lat="45.92646" lon="4.7379">
        <ele>172</ele>
        <time>2016-11-15T09:27:15Z</time>
      </trkpt>
      <trkpt lat="45.92651" lon="4.73788">
        <ele>172</ele>
        <time>2016-11-15T09:27:16Z</time>
      </trkpt>
      <trkpt lat="45.92655" lon="4.73787">
        <ele>172</ele>
        <time>2016-11-15T09:27:17Z</time>
      </trkpt>
      <trkpt lat="45.9266" lon="4.73785">
        <ele>172</ele>
        <time>2016-11-15T09:27:18Z</time>
      </trkpt>
      <trkpt lat="45.92665" lon="4.73783">
        <ele>172</ele>
        <time>2016-11-15T09:27:19Z</time>
      </trkpt>
      <trkpt lat="45.9267" lon="4.73779">
        <ele>173</ele>
        <time>2016-11-15T09:27:20Z</time>
      </trkpt>
      <trkpt lat="45.92675" lon="4.73775">
        <ele>173</ele>
        <time>2016-11-15T09:27:21Z</time>
      </trkpt>
      <trkpt lat="45.9268" lon="4.73771">
        <ele>173</ele>
        <time>2016-11-15T09:27:22Z</time>
      </trkpt>
      <trkpt lat="45.92685" lon="4.73769">
        <ele>173</ele>
        <time>2016-11-15T09:27:23Z</time>
      </trkpt>
      <trkpt lat="45.9269" lon="4.73766">
        <ele>173</ele>
        <time>2016-11-15T09:27:24Z</time>
      </trkpt>
      <trkpt lat="45.92696" lon="4.73763">
        <ele>173</ele>
        <time>2016-11-15T09:27:25Z</time>
      </trkpt>
      <trkpt lat="45.92701" lon="4.73761">
        <ele>173</ele>
        <time>2016-11-15T09:27:26Z</time>
      </trkpt>
      <trkpt lat="45.92706" lon="4.73763">
        <ele>173</ele>
        <time>2016-11-15T09:27:27Z</time>
      </trkpt>
      <trkpt lat="45.92711" lon="4.73766">
        <ele>173</ele>
        <time>2016-11-15T09:27:28Z</time>
      </trkpt>
      <trkpt lat="45.92715" lon="4.73771">
        <ele>173</ele>
        <time>2016-11-15T09:27:29Z</time>
      </trkpt>
      <trkpt lat="45.92719" lon="4.73777">
        <ele>173</ele>
        <time>2016-11-15T09:27:30Z</time>
      </trkpt>
      <trkpt lat="45.92722" lon="4.73784">
        <ele>173</ele>
        <time>2016-11-15T09:27:31Z</time>
      </trkpt>
      <trkpt lat="45.92726" lon="4.7379">
        <ele>173</ele>
        <time>2016-11-15T09:27:32Z</time>
      </trkpt>
      <trkpt lat="45.92729" lon="4.73796">
        <ele>172</ele>
        <time>2016-11-15T09:27:33Z</time>
      </trkpt>
      <trkpt lat="45.92732" lon="4.73803">
        <ele>172</ele>
        <time>2016-11-15T09:27:34Z</time>
      </trkpt>
      <trkpt lat="45.92736" lon="4.7381">
        <ele>172</ele>
        <time>2016-11-15T09:27:35Z</time>
      </trkpt>
      <trkpt lat="45.9274" lon="4.73817">
        <ele>172</ele>
        <time>2016-11-15T09:27:36Z</time>
      </trkpt>
      <trkpt lat="45.92744" lon="4.73823">
        <ele>172</ele>
        <time>2016-11-15T09:27:37Z</time>
      </trkpt>
      <trkpt lat="45.9275" lon="4.73827">
        <ele>172</ele>
        <time>2016-11-15T09:27:38Z</time>
      </trkpt>
      <trkpt lat="45.92756" lon="4.7383">
        <ele>172</ele>
        <time>2016-11-15T09:27:39Z</time>
      </trkpt>
      <trkpt lat="45.92761" lon="4.73834">
        <ele>172</ele>
        <time>2016-11-15T09:27:40Z</time>
      </trkpt>
      <trkpt lat="45.92767" lon="4.73836">
        <ele>172</ele>
        <time>2016-11-15T09:27:41Z</time>
      </trkpt>
      <trkpt lat="45.92772" lon="4.73838">
        <ele>173</ele>
        <time>2016-11-15T09:27:42Z</time>
      </trkpt>
      <trkpt lat="45.92778" lon="4.73839">
        <ele>173</ele>
        <time>2016-11-15T09:27:43Z</time>
      </trkpt>
      <trkpt lat="45.92784" lon="4.7384">
        <ele>173</ele>
        <time>2016-11-15T09:27:44Z</time>
      </trkpt>
      <trkpt lat="45.92789" lon="4.73841">
        <ele>173</ele>
        <time>2016-11-15T09:27:45Z</time>
      </trkpt>
      <trkpt lat="45.92794" lon="4.73842">
        <ele>173</ele>
        <time>2016-11-15T09:27:46Z</time>
      </trkpt>
      <trkpt lat="45.928" lon="4.73842">
        <ele>173</ele>
        <time>2016-11-15T09:27:47Z</time>
      </trkpt>
      <trkpt lat="45.92805" lon="4.73843">
        <ele>173</ele>
        <time>2016-11-15T09:27:48Z</time>
      </trkpt>
      <trkpt lat="45.9281" lon="4.73844">
        <ele>173</ele>
        <time>2016-11-15T09:27:49Z</time>
      </trkpt>
      <trkpt lat="45.9281" lon="4.73825">
        <ele>173</ele>
        <time>2016-11-15T09:27:50Z</time>
      </trkpt>
      <trkpt lat="45.92816" lon="4.73816">
        <ele>173</ele>
        <time>2016-11-15T09:27:53Z</time>
      </trkpt>
      <trkpt lat="45.92819" lon="4.73815">
        <ele>173</ele>
        <time>2016-11-15T09:27:54Z</time>
      </trkpt>
      <trkpt lat="45.92827" lon="4.73816">
        <ele>173</ele>
        <time>2016-11-15T09:27:56Z</time>
      </trkpt>
      <trkpt lat="45.92831" lon="4.73816">
        <ele>173</ele>
        <time>2016-11-15T09:27:57Z</time>
      </trkpt>
      <trkpt lat="45.9284" lon="4.73818">
        <ele>173</ele>
        <time>2016-11-15T09:27:59Z</time>
      </trkpt>
      <trkpt lat="45.92843" lon="4.7382">
        <ele>173</ele>
        <time>2016-11-15T09:28:00Z</time>
      </trkpt>
      <trkpt lat="45.92847" lon="4.73825">
        <ele>173</ele>
        <time>2016-11-15T09:28:03Z</time>
      </trkpt>
      <trkpt lat="45.92849" lon="4.73832">
        <ele>173</ele>
        <time>2016-11-15T09:28:04Z</time>
      </trkpt>
      <trkpt lat="45.92851" lon="4.73837">
        <ele>173</ele>
        <time>2016-11-15T09:28:05Z</time>
      </trkpt>
      <trkpt lat="45.92855" lon="4.73842">
        <ele>173</ele>
        <time>2016-11-15T09:28:06Z</time>
      </trkpt>
      <trkpt lat="45.92861" lon="4.73846">
        <ele>173</ele>
        <time>2016-11-15T09:28:07Z</time>
      </trkpt>
      <trkpt lat="45.92868" lon="4.7385">
        <ele>173</ele>
        <time>2016-11-15T09:28:08Z</time>
      </trkpt>
      <trkpt lat="45.92873" lon="4.73853">
        <ele>173</ele>
        <time>2016-11-15T09:28:09Z</time>
      </trkpt>
      <trkpt lat="45.92879" lon="4.73857">
        <ele>173</ele>
        <time>2016-11-15T09:28:10Z</time>
      </trkpt>
      <trkpt lat="45.92885" lon="4.73861">
        <ele>173</ele>
        <time>2016-11-15T09:28:11Z</time>
      </trkpt>
      <trkpt lat="45.92891" lon="4.73866">
        <ele>173</ele>
        <time>2016-11-15T09:28:12Z</time>
      </trkpt>
      <trkpt lat="45.92897" lon="4.7387">
        <ele>173</ele>
        <time>2016-11-15T09:28:13Z</time>
      </trkpt>
      <trkpt lat="45.92903" lon="4.73875">
        <ele>173</ele>
        <time>2016-11-15T09:28:14Z</time>
      </trkpt>
      <trkpt lat="45.92909" lon="4.73879">
        <ele>172</ele>
        <time>2016-11-15T09:28:15Z</time>
      </trkpt>
      <trkpt lat="45.92914" lon="4.73883">
        <ele>172</ele>
        <time>2016-11-15T09:28:16Z</time>
      </trkpt>
      <trkpt lat="45.92919" lon="4.73886">
        <ele>171</ele>
        <time>2016-11-15T09:28:17Z</time>
      </trkpt>
      <trkpt lat="45.92924" lon="4.73891">
        <ele>171</ele>
        <time>2016-11-15T09:28:18Z</time>
      </trkpt>
      <trkpt lat="45.92928" lon="4.73896">
        <ele>171</ele>
        <time>2016-11-15T09:28:19Z</time>
      </trkpt>
      <trkpt lat="45.92931" lon="4.73903">
        <ele>171</ele>
        <time>2016-11-15T09:28:20Z</time>
      </trkpt>
      <trkpt lat="45.92934" lon="4.7391">
        <ele>171</ele>
        <time>2016-11-15T09:28:21Z</time>
      </trkpt>
      <trkpt lat="45.92936" lon="4.73918">
        <ele>171</ele>
        <time>2016-11-15T09:28:22Z</time>
      </trkpt>
      <trkpt lat="45.92938" lon="4.73924">
        <ele>171</ele>
        <time>2016-11-15T09:28:23Z</time>
      </trkpt>
      <trkpt lat="45.9294" lon="4.73931">
        <ele>171</ele>
        <time>2016-11-15T09:28:24Z</time>
      </trkpt>
      <trkpt lat="45.92942" lon="4.73939">
        <ele>171</ele>
        <time>2016-11-15T09:28:25Z</time>
      </trkpt>
      <trkpt lat="45.92944" lon="4.73945">
        <ele>171</ele>
        <time>2016-11-15T09:28:26Z</time>
      </trkpt>
      <trkpt lat="45.92947" lon="4.73952">
        <ele>171</ele>
        <time>2016-11-15T09:28:27Z</time>
      </trkpt>
      <trkpt lat="45.9295" lon="4.73961">
        <ele>171</ele>
        <time>2016-11-15T09:28:28Z</time>
      </trkpt>
      <trkpt lat="45.92956" lon="4.73967">
        <ele>171</ele>
        <time>2016-11-15T09:28:29Z</time>
      </trkpt>
      <trkpt lat="45.92957" lon="4.73975">
        <ele>171</ele>
        <time>2016-11-15T09:28:30Z</time>
      </trkpt>
      <trkpt lat="45.92959" lon="4.73984">
        <ele>171</ele>
        <time>2016-11-15T09:28:31Z</time>
      </trkpt>
      <trkpt lat="45.9296" lon="4.73992">
        <ele>171</ele>
        <time>2016-11-15T09:28:32Z</time>
      </trkpt>
      <trkpt lat="45.92961" lon="4.74">
        <ele>171</ele>
        <time>2016-11-15T09:28:33Z</time>
      </trkpt>
      <trkpt lat="45.92961" lon="4.74008">
        <ele>171</ele>
        <time>2016-11-15T09:28:34Z</time>
      </trkpt>
      <trkpt lat="45.92961" lon="4.74016">
        <ele>171</ele>
        <time>2016-11-15T09:28:35Z</time>
      </trkpt>
      <trkpt lat="45.92961" lon="4.74025">
        <ele>171</ele>
        <time>2016-11-15T09:28:36Z</time>
      </trkpt>
      <trkpt lat="45.92961" lon="4.74034">
        <ele>171</ele>
        <time>2016-11-15T09:28:37Z</time>
      </trkpt>
      <trkpt lat="45.92961" lon="4.74042">
        <ele>171</ele>
        <time>2016-11-15T09:28:38Z</time>
      </trkpt>
      <trkpt lat="45.9296" lon="4.7405">
        <ele>172</ele>
        <time>2016-11-15T09:28:39Z</time>
      </trkpt>
      <trkpt lat="45.92961" lon="4.74058">
        <ele>172</ele>
        <time>2016-11-15T09:28:40Z</time>
      </trkpt>
      <trkpt lat="45.92961" lon="4.74065">
        <ele>172</ele>
        <time>2016-11-15T09:28:41Z</time>
      </trkpt>
      <trkpt lat="45.92961" lon="4.74071">
        <ele>172</ele>
        <time>2016-11-15T09:28:42Z</time>
      </trkpt>
      <trkpt lat="45.9296" lon="4.74078">
        <ele>172</ele>
        <time>2016-11-15T09:28:43Z</time>
      </trkpt>
      <trkpt lat="45.92959" lon="4.74084">
        <ele>172</ele>
        <time>2016-11-15T09:28:44Z</time>
      </trkpt>
      <trkpt lat="45.92958" lon="4.74091">
        <ele>172</ele>
        <time>2016-11-15T09:28:45Z</time>
      </trkpt>
      <trkpt lat="45.92955" lon="4.74098">
        <ele>172</ele>
        <time>2016-11-15T09:28:46Z</time>
      </trkpt>
      <trkpt lat="45.92952" lon="4.74105">
        <ele>172</ele>
        <time>2016-11-15T09:28:47Z</time>
      </trkpt>
      <trkpt lat="45.9295" lon="4.74112">
        <ele>172</ele>
        <time>2016-11-15T09:28:48Z</time>
      </trkpt>
      <trkpt lat="45.92949" lon="4.7412">
        <ele>171</ele>
        <time>2016-11-15T09:28:49Z</time>
      </trkpt>
      <trkpt lat="45.92947" lon="4.74127">
        <ele>171</ele>
        <time>2016-11-15T09:28:50Z</time>
      </trkpt>
      <trkpt lat="45.92945" lon="4.74133">
        <ele>171</ele>
        <time>2016-11-15T09:28:51Z</time>
      </trkpt>
      <trkpt lat="45.92942" lon="4.7414">
        <ele>171</ele>
        <time>2016-11-15T09:28:52Z</time>
      </trkpt>
      <trkpt lat="45.92938" lon="4.74144">
        <ele>171</ele>
        <time>2016-11-15T09:28:53Z</time>
      </trkpt>
      <trkpt lat="45.92934" lon="4.74149">
        <ele>172</ele>
        <time>2016-11-15T09:28:54Z</time>
      </trkpt>
      <trkpt lat="45.92929" lon="4.74153">
        <ele>172</ele>
        <time>2016-11-15T09:28:55Z</time>
      </trkpt>
      <trkpt lat="45.92925" lon="4.74157">
        <ele>172</ele>
        <time>2016-11-15T09:28:56Z</time>
      </trkpt>
      <trkpt lat="45.92915" lon="4.74167">
        <ele>172</ele>
        <time>2016-11-15T09:28:58Z</time>
      </trkpt>
      <trkpt lat="45.9291" lon="4.74171">
        <ele>172</ele>
        <time>2016-11-15T09:28:59Z</time>
      </trkpt>
      <trkpt lat="45.92906" lon="4.74176">
        <ele>172</ele>
        <time>2016-11-15T09:29:00Z</time>
      </trkpt>
      <trkpt lat="45.92901" lon="4.74181">
        <ele>172</ele>
        <time>2016-11-15T09:29:01Z</time>
      </trkpt>
      <trkpt lat="45.92896" lon="4.74185">
        <ele>171</ele>
        <time>2016-11-15T09:29:02Z</time>
      </trkpt>
      <trkpt lat="45.92892" lon="4.7419">
        <ele>171</ele>
        <time>2016-11-15T09:29:03Z</time>
      </trkpt>
      <trkpt lat="45.92887" lon="4.74195">
        <ele>171</ele>
        <time>2016-11-15T09:29:04Z</time>
      </trkpt>
      <trkpt lat="45.92881" lon="4.742">
        <ele>171</ele>
        <time>2016-11-15T09:29:05Z</time>
      </trkpt>
      <trkpt lat="45.92876" lon="4.74205">
        <ele>171</ele>
        <time>2016-11-15T09:29:06Z</time>
      </trkpt>
      <trkpt lat="45.92871" lon="4.74209">
        <ele>171</ele>
        <time>2016-11-15T09:29:07Z</time>
      </trkpt>
      <trkpt lat="45.92865" lon="4.74213">
        <ele>171</ele>
        <time>2016-11-15T09:29:08Z</time>
      </trkpt>
      <trkpt lat="45.9286" lon="4.74217">
        <ele>171</ele>
        <time>2016-11-15T09:29:09Z</time>
      </trkpt>
      <trkpt lat="45.92854" lon="4.7422">
        <ele>171</ele>
        <time>2016-11-15T09:29:10Z</time>
      </trkpt>
      <trkpt lat="45.92849" lon="4.74224">
        <ele>171</ele>
        <time>2016-11-15T09:29:11Z</time>
      </trkpt>
      <trkpt lat="45.92844" lon="4.74228">
        <ele>171</ele>
        <time>2016-11-15T09:29:12Z</time>
      </trkpt>
      <trkpt lat="45.92839" lon="4.74232">
        <ele>172</ele>
        <time>2016-11-15T09:29:13Z</time>
      </trkpt>
      <trkpt lat="45.92834" lon="4.74237">
        <ele>172</ele>
        <time>2016-11-15T09:29:14Z</time>
      </trkpt>
      <trkpt lat="45.92829" lon="4.74241">
        <ele>172</ele>
        <time>2016-11-15T09:29:15Z</time>
      </trkpt>
      <trkpt lat="45.92825" lon="4.74245">
        <ele>172</ele>
        <time>2016-11-15T09:29:16Z</time>
      </trkpt>
      <trkpt lat="45.9282" lon="4.7425">
        <ele>172</ele>
        <time>2016-11-15T09:29:17Z</time>
      </trkpt>
      <trkpt lat="45.92816" lon="4.74254">
        <ele>171</ele>
        <time>2016-11-15T09:29:18Z</time>
      </trkpt>
      <trkpt lat="45.92811" lon="4.74259">
        <ele>171</ele>
        <time>2016-11-15T09:29:19Z</time>
      </trkpt>
      <trkpt lat="45.92807" lon="4.74264">
        <ele>171</ele>
        <time>2016-11-15T09:29:20Z</time>
      </trkpt>
      <trkpt lat="45.92802" lon="4.74267">
        <ele>171</ele>
        <time>2016-11-15T09:29:21Z</time>
      </trkpt>
      <trkpt lat="45.92798" lon="4.74271">
        <ele>171</ele>
        <time>2016-11-15T09:29:22Z</time>
      </trkpt>
      <trkpt lat="45.92793" lon="4.74275">
        <ele>171</ele>
        <time>2016-11-15T09:29:23Z</time>
      </trkpt>
      <trkpt lat="45.92788" lon="4.7428">
        <ele>171</ele>
        <time>2016-11-15T09:29:24Z</time>
      </trkpt>
      <trkpt lat="45.92782" lon="4.74283">
        <ele>171</ele>
        <time>2016-11-15T09:29:25Z</time>
      </trkpt>
      <trkpt lat="45.92772" lon="4.74287">
        <ele>171</ele>
        <time>2016-11-15T09:29:26Z</time>
      </trkpt>
      <trkpt lat="45.92764" lon="4.74291">
        <ele>171</ele>
        <time>2016-11-15T09:29:27Z</time>
      </trkpt>
      <trkpt lat="45.92757" lon="4.74295">
        <ele>171</ele>
        <time>2016-11-15T09:29:28Z</time>
      </trkpt>
      <trkpt lat="45.92751" lon="4.74298">
        <ele>171</ele>
        <time>2016-11-15T09:29:29Z</time>
      </trkpt>
      <trkpt lat="45.92746" lon="4.74302">
        <ele>171</ele>
        <time>2016-11-15T09:29:30Z</time>
      </trkpt>
      <trkpt lat="45.92741" lon="4.74307">
        <ele>171</ele>
        <time>2016-11-15T09:29:31Z</time>
      </trkpt>
      <trkpt lat="45.92735" lon="4.74308">
        <ele>171</ele>
        <time>2016-11-15T09:29:32Z</time>
      </trkpt>
      <trkpt lat="45.92729" lon="4.7431">
        <ele>171</ele>
        <time>2016-11-15T09:29:33Z</time>
      </trkpt>
      <trkpt lat="45.92724" lon="4.74314">
        <ele>171</ele>
        <time>2016-11-15T09:29:34Z</time>
      </trkpt>
      <trkpt lat="45.92709" lon="4.74306">
        <ele>171</ele>
        <time>2016-11-15T09:29:35Z</time>
      </trkpt>
      <trkpt lat="45.92699" lon="4.74302">
        <ele>171</ele>
        <time>2016-11-15T09:29:36Z</time>
      </trkpt>
      <trkpt lat="45.9269" lon="4.743">
        <ele>171</ele>
        <time>2016-11-15T09:29:37Z</time>
      </trkpt>
      <trkpt lat="45.92684" lon="4.74302">
        <ele>171</ele>
        <time>2016-11-15T09:29:38Z</time>
      </trkpt>
      <trkpt lat="45.9268" lon="4.74306">
        <ele>171</ele>
        <time>2016-11-15T09:29:39Z</time>
      </trkpt>
      <trkpt lat="45.92675" lon="4.7431">
        <ele>171</ele>
        <time>2016-11-15T09:29:40Z</time>
      </trkpt>
      <trkpt lat="45.92671" lon="4.74314">
        <ele>171</ele>
        <time>2016-11-15T09:29:41Z</time>
      </trkpt>
      <trkpt lat="45.92667" lon="4.74319">
        <ele>171</ele>
        <time>2016-11-15T09:29:42Z</time>
      </trkpt>
      <trkpt lat="45.92663" lon="4.74323">
        <ele>171</ele>
        <time>2016-11-15T09:29:43Z</time>
      </trkpt>
      <trkpt lat="45.9266" lon="4.74329">
        <ele>171</ele>
        <time>2016-11-15T09:29:44Z</time>
      </trkpt>
      <trkpt lat="45.92656" lon="4.74334">
        <ele>171</ele>
        <time>2016-11-15T09:29:45Z</time>
      </trkpt>
      <trkpt lat="45.92653" lon="4.7434">
        <ele>171</ele>
        <time>2016-11-15T09:29:46Z</time>
      </trkpt>
      <trkpt lat="45.92649" lon="4.74345">
        <ele>171</ele>
        <time>2016-11-15T09:29:47Z</time>
      </trkpt>
      <trkpt lat="45.92646" lon="4.74351">
        <ele>171</ele>
        <time>2016-11-15T09:29:48Z</time>
      </trkpt>
      <trkpt lat="45.92642" lon="4.74357">
        <ele>171</ele>
        <time>2016-11-15T09:29:49Z</time>
      </trkpt>
      <trkpt lat="45.92639" lon="4.74363">
        <ele>171</ele>
        <time>2016-11-15T09:29:50Z</time>
      </trkpt>
      <trkpt lat="45.92635" lon="4.74368">
        <ele>171</ele>
        <time>2016-11-15T09:29:51Z</time>
      </trkpt>
      <trkpt lat="45.92631" lon="4.74374">
        <ele>171</ele>
        <time>2016-11-15T09:29:52Z</time>
      </trkpt>
      <trkpt lat="45.92628" lon="4.74379">
        <ele>170</ele>
        <time>2016-11-15T09:29:53Z</time>
      </trkpt>
      <trkpt lat="45.92624" lon="4.74385">
        <ele>170</ele>
        <time>2016-11-15T09:29:54Z</time>
      </trkpt>
      <trkpt lat="45.92621" lon="4.74391">
        <ele>170</ele>
        <time>2016-11-15T09:29:55Z</time>
      </trkpt>
      <trkpt lat="45.92618" lon="4.74396">
        <ele>170</ele>
        <time>2016-11-15T09:29:56Z</time>
      </trkpt>
      <trkpt lat="45.92614" lon="4.74402">
        <ele>170</ele>
        <time>2016-11-15T09:29:57Z</time>
      </trkpt>
      <trkpt lat="45.92611" lon="4.74408">
        <ele>170</ele>
        <time>2016-11-15T09:29:58Z</time>
      </trkpt>
      <trkpt lat="45.92607" lon="4.74415">
        <ele>170</ele>
        <time>2016-11-15T09:29:59Z</time>
      </trkpt>
      <trkpt lat="45.92604" lon="4.74421">
        <ele>170</ele>
        <time>2016-11-15T09:30:00Z</time>
      </trkpt>
      <trkpt lat="45.92601" lon="4.74427">
        <ele>170</ele>
        <time>2016-11-15T09:30:01Z</time>
      </trkpt>
      <trkpt lat="45.92598" lon="4.74433">
        <ele>170</ele>
        <time>2016-11-15T09:30:02Z</time>
      </trkpt>
      <trkpt lat="45.92594" lon="4.74439">
        <ele>170</ele>
        <time>2016-11-15T09:30:03Z</time>
      </trkpt>
      <trkpt lat="45.92591" lon="4.74445">
        <ele>170</ele>
        <time>2016-11-15T09:30:04Z</time>
      </trkpt>
      <trkpt lat="45.92588" lon="4.74451">
        <ele>170</ele>
        <time>2016-11-15T09:30:05Z</time>
      </trkpt>
      <trkpt lat="45.92584" lon="4.74457">
        <ele>170</ele>
        <time>2016-11-15T09:30:06Z</time>
      </trkpt>
      <trkpt lat="45.92581" lon="4.74463">
        <ele>170</ele>
        <time>2016-11-15T09:30:07Z</time>
      </trkpt>
      <trkpt lat="45.92577" lon="4.74469">
        <ele>170</ele>
        <time>2016-11-15T09:30:08Z</time>
      </trkpt>
      <trkpt lat="45.92574" lon="4.74476">
        <ele>170</ele>
        <time>2016-11-15T09:30:09Z</time>
      </trkpt>
      <trkpt lat="45.9257" lon="4.74482">
        <ele>170</ele>
        <time>2016-11-15T09:30:10Z</time>
      </trkpt>
      <trkpt lat="45.92566" lon="4.74488">
        <ele>170</ele>
        <time>2016-11-15T09:30:11Z</time>
      </trkpt>
      <trkpt lat="45.92562" lon="4.74494">
        <ele>170</ele>
        <time>2016-11-15T09:30:12Z</time>
      </trkpt>
      <trkpt lat="45.92558" lon="4.74501">
        <ele>170</ele>
        <time>2016-11-15T09:30:13Z</time>
      </trkpt>
      <trkpt lat="45.92555" lon="4.74507">
        <ele>170</ele>
        <time>2016-11-15T09:30:14Z</time>
      </trkpt>
      <trkpt lat="45.92551" lon="4.74514">
        <ele>170</ele>
        <time>2016-11-15T09:30:15Z</time>
      </trkpt>
      <trkpt lat="45.92548" lon="4.7452">
        <ele>170</ele>
        <time>2016-11-15T09:30:16Z</time>
      </trkpt>
      <trkpt lat="45.92545" lon="4.74527">
        <ele>170</ele>
        <time>2016-11-15T09:30:17Z</time>
      </trkpt>
      <trkpt lat="45.92541" lon="4.74533">
        <ele>171</ele>
        <time>2016-11-15T09:30:18Z</time>
      </trkpt>
      <trkpt lat="45.92538" lon="4.74539">
        <ele>171</ele>
        <time>2016-11-15T09:30:19Z</time>
      </trkpt>
      <trkpt lat="45.92534" lon="4.74545">
        <ele>171</ele>
        <time>2016-11-15T09:30:20Z</time>
      </trkpt>
      <trkpt lat="45.9253" lon="4.74551">
        <ele>171</ele>
        <time>2016-11-15T09:30:21Z</time>
      </trkpt>
      <trkpt lat="45.92526" lon="4.74557">
        <ele>171</ele>
        <time>2016-11-15T09:30:22Z</time>
      </trkpt>
      <trkpt lat="45.92522" lon="4.74562">
        <ele>171</ele>
        <time>2016-11-15T09:30:23Z</time>
      </trkpt>
      <trkpt lat="45.92518" lon="4.74568">
        <ele>171</ele>
        <time>2016-11-15T09:30:24Z</time>
      </trkpt>
      <trkpt lat="45.92514" lon="4.74573">
        <ele>171</ele>
        <time>2016-11-15T09:30:25Z</time>
      </trkpt>
      <trkpt lat="45.9251" lon="4.74578">
        <ele>171</ele>
        <time>2016-11-15T09:30:26Z</time>
      </trkpt>
      <trkpt lat="45.92506" lon="4.74583">
        <ele>171</ele>
        <time>2016-11-15T09:30:27Z</time>
      </trkpt>
      <trkpt lat="45.92502" lon="4.74588">
        <ele>171</ele>
        <time>2016-11-15T09:30:28Z</time>
      </trkpt>
      <trkpt lat="45.92498" lon="4.74593">
        <ele>171</ele>
        <time>2016-11-15T09:30:29Z</time>
      </trkpt>
      <trkpt lat="45.92495" lon="4.74597">
        <ele>171</ele>
        <time>2016-11-15T09:30:30Z</time>
      </trkpt>
      <trkpt lat="45.92491" lon="4.74602">
        <ele>171</ele>
        <time>2016-11-15T09:30:31Z</time>
      </trkpt>
      <trkpt lat="45.92487" lon="4.74607">
        <ele>171</ele>
        <time>2016-11-15T09:30:32Z</time>
      </trkpt>
      <trkpt lat="45.92483" lon="4.74612">
        <ele>171</ele>
        <time>2016-11-15T09:30:33Z</time>
      </trkpt>
      <trkpt lat="45.92479" lon="4.74618">
        <ele>171</ele>
        <time>2016-11-15T09:30:34Z</time>
      </trkpt>
      <trkpt lat="45.92475" lon="4.74623">
        <ele>171</ele>
        <time>2016-11-15T09:30:35Z</time>
      </trkpt>
      <trkpt lat="45.92471" lon="4.74628">
        <ele>171</ele>
        <time>2016-11-15T09:30:36Z</time>
      </trkpt>
      <trkpt lat="45.92468" lon="4.74633">
        <ele>171</ele>
        <time>2016-11-15T09:30:37Z</time>
      </trkpt>
      <trkpt lat="45.92464" lon="4.74639">
        <ele>171</ele>
        <time>2016-11-15T09:30:38Z</time>
      </trkpt>
      <trkpt lat="45.92461" lon="4.74644">
        <ele>171</ele>
        <time>2016-11-15T09:30:39Z</time>
      </trkpt>
      <trkpt lat="45.92457" lon="4.74649">
        <ele>171</ele>
        <time>2016-11-15T09:30:40Z</time>
      </trkpt>
      <trkpt lat="45.92454" lon="4.74653">
        <ele>171</ele>
        <time>2016-11-15T09:30:41Z</time>
      </trkpt>
      <trkpt lat="45.92449" lon="4.74658">
        <ele>171</ele>
        <time>2016-11-15T09:30:42Z</time>
      </trkpt>
      <trkpt lat="45.92447" lon="4.74665">
        <ele>171</ele>
        <time>2016-11-15T09:30:43Z</time>
      </trkpt>
      <trkpt lat="45.92444" lon="4.74669">
        <ele>171</ele>
        <time>2016-11-15T09:30:44Z</time>
      </trkpt>
      <trkpt lat="45.9244" lon="4.74676">
        <ele>171</ele>
        <time>2016-11-15T09:30:45Z</time>
      </trkpt>
      <trkpt lat="45.92438" lon="4.74683">
        <ele>171</ele>
        <time>2016-11-15T09:30:46Z</time>
      </trkpt>
      <trkpt lat="45.92435" lon="4.7469">
        <ele>171</ele>
        <time>2016-11-15T09:30:47Z</time>
      </trkpt>
      <trkpt lat="45.92432" lon="4.74697">
        <ele>171</ele>
        <time>2016-11-15T09:30:48Z</time>
      </trkpt>
      <trkpt lat="45.92429" lon="4.74704">
        <ele>171</ele>
        <time>2016-11-15T09:30:49Z</time>
      </trkpt>
      <trkpt lat="45.92427" lon="4.74711">
        <ele>171</ele>
        <time>2016-11-15T09:30:50Z</time>
      </trkpt>
      <trkpt lat="45.92424" lon="4.74718">
        <ele>171</ele>
        <time>2016-11-15T09:30:51Z</time>
      </trkpt>
      <trkpt lat="45.92422" lon="4.74726">
        <ele>171</ele>
        <time>2016-11-15T09:30:52Z</time>
      </trkpt>
      <trkpt lat="45.92419" lon="4.74734">
        <ele>171</ele>
        <time>2016-11-15T09:30:53Z</time>
      </trkpt>
      <trkpt lat="45.92417" lon="4.74742">
        <ele>172</ele>
        <time>2016-11-15T09:30:54Z</time>
      </trkpt>
      <trkpt lat="45.92415" lon="4.7475">
        <ele>172</ele>
        <time>2016-11-15T09:30:55Z</time>
      </trkpt>
      <trkpt lat="45.92413" lon="4.74758">
        <ele>172</ele>
        <time>2016-11-15T09:30:56Z</time>
      </trkpt>
      <trkpt lat="45.92411" lon="4.74766">
        <ele>172</ele>
        <time>2016-11-15T09:30:57Z</time>
      </trkpt>
      <trkpt lat="45.9241" lon="4.74774">
        <ele>171</ele>
        <time>2016-11-15T09:30:58Z</time>
      </trkpt>
      <trkpt lat="45.92408" lon="4.74782">
        <ele>171</ele>
        <time>2016-11-15T09:30:59Z</time>
      </trkpt>
      <trkpt lat="45.92407" lon="4.74791">
        <ele>171</ele>
        <time>2016-11-15T09:31:00Z</time>
      </trkpt>
      <trkpt lat="45.92405" lon="4.74799">
        <ele>171</ele>
        <time>2016-11-15T09:31:01Z</time>
      </trkpt>
      <trkpt lat="45.92403" lon="4.74807">
        <ele>171</ele>
        <time>2016-11-15T09:31:02Z</time>
      </trkpt>
      <trkpt lat="45.92401" lon="4.74815">
        <ele>171</ele>
        <time>2016-11-15T09:31:03Z</time>
      </trkpt>
      <trkpt lat="45.92399" lon="4.74823">
        <ele>171</ele>
        <time>2016-11-15T09:31:04Z</time>
      </trkpt>
      <trkpt lat="45.92397" lon="4.74832">
        <ele>171</ele>
        <time>2016-11-15T09:31:05Z</time>
      </trkpt>
      <trkpt lat="45.92395" lon="4.7484">
        <ele>171</ele>
        <time>2016-11-15T09:31:06Z</time>
      </trkpt>
      <trkpt lat="45.92393" lon="4.74848">
        <ele>171</ele>
        <time>2016-11-15T09:31:07Z</time>
      </trkpt>
      <trkpt lat="45.9239" lon="4.74856">
        <ele>171</ele>
        <time>2016-11-15T09:31:08Z</time>
      </trkpt>
      <trkpt lat="45.92388" lon="4.74864">
        <ele>171</ele>
        <time>2016-11-15T09:31:09Z</time>
      </trkpt>
      <trkpt lat="45.92385" lon="4.74871">
        <ele>171</ele>
        <time>2016-11-15T09:31:10Z</time>
      </trkpt>
      <trkpt lat="45.92382" lon="4.74877">
        <ele>171</ele>
        <time>2016-11-15T09:31:11Z</time>
      </trkpt>
      <trkpt lat="45.92379" lon="4.74883">
        <ele>171</ele>
        <time>2016-11-15T09:31:12Z</time>
      </trkpt>
      <trkpt lat="45.92377" lon="4.7489">
        <ele>171</ele>
        <time>2016-11-15T09:31:13Z</time>
      </trkpt>
      <trkpt lat="45.92374" lon="4.74897">
        <ele>171</ele>
        <time>2016-11-15T09:31:14Z</time>
      </trkpt>
      <trkpt lat="45.92371" lon="4.74904">
        <ele>171</ele>
        <time>2016-11-15T09:31:15Z</time>
      </trkpt>
      <trkpt lat="45.92369" lon="4.74911">
        <ele>171</ele>
        <time>2016-11-15T09:31:16Z</time>
      </trkpt>
      <trkpt lat="45.92366" lon="4.74918">
        <ele>170</ele>
        <time>2016-11-15T09:31:17Z</time>
      </trkpt>
      <trkpt lat="45.92364" lon="4.74925">
        <ele>170</ele>
        <time>2016-11-15T09:31:18Z</time>
      </trkpt>
      <trkpt lat="45.92361" lon="4.74932">
        <ele>170</ele>
        <time>2016-11-15T09:31:19Z</time>
      </trkpt>
      <trkpt lat="45.92358" lon="4.74939">
        <ele>170</ele>
        <time>2016-11-15T09:31:20Z</time>
      </trkpt>
      <trkpt lat="45.92356" lon="4.74946">
        <ele>170</ele>
        <time>2016-11-15T09:31:21Z</time>
      </trkpt>
      <trkpt lat="45.92353" lon="4.74952">
        <ele>170</ele>
        <time>2016-11-15T09:31:22Z</time>
      </trkpt>
      <trkpt lat="45.92351" lon="4.74959">
        <ele>170</ele>
        <time>2016-11-15T09:31:23Z</time>
      </trkpt>
      <trkpt lat="45.92348" lon="4.74966">
        <ele>170</ele>
        <time>2016-11-15T09:31:24Z</time>
      </trkpt>
      <trkpt lat="45.92345" lon="4.74973">
        <ele>170</ele>
        <time>2016-11-15T09:31:25Z</time>
      </trkpt>
      <trkpt lat="45.92343" lon="4.7498">
        <ele>170</ele>
        <time>2016-11-15T09:31:26Z</time>
      </trkpt>
      <trkpt lat="45.9234" lon="4.74986">
        <ele>170</ele>
        <time>2016-11-15T09:31:27Z</time>
      </trkpt>
      <trkpt lat="45.92337" lon="4.74993">
        <ele>170</ele>
        <time>2016-11-15T09:31:28Z</time>
      </trkpt>
      <trkpt lat="45.92335" lon="4.75">
        <ele>170</ele>
        <time>2016-11-15T09:31:29Z</time>
      </trkpt>
      <trkpt lat="45.92331" lon="4.75007">
        <ele>170</ele>
        <time>2016-11-15T09:31:30Z</time>
      </trkpt>
      <trkpt lat="45.92328" lon="4.75014">
        <ele>171</ele>
        <time>2016-11-15T09:31:31Z</time>
      </trkpt>
      <trkpt lat="45.92325" lon="4.75021">
        <ele>171</ele>
        <time>2016-11-15T09:31:32Z</time>
      </trkpt>
      <trkpt lat="45.92321" lon="4.75028">
        <ele>171</ele>
        <time>2016-11-15T09:31:33Z</time>
      </trkpt>
      <trkpt lat="45.92318" lon="4.75034">
        <ele>171</ele>
        <time>2016-11-15T09:31:34Z</time>
      </trkpt>
      <trkpt lat="45.92314" lon="4.7504">
        <ele>172</ele>
        <time>2016-11-15T09:31:35Z</time>
      </trkpt>
      <trkpt lat="45.92311" lon="4.75046">
        <ele>172</ele>
        <time>2016-11-15T09:31:36Z</time>
      </trkpt>
      <trkpt lat="45.92307" lon="4.75052">
        <ele>172</ele>
        <time>2016-11-15T09:31:37Z</time>
      </trkpt>
      <trkpt lat="45.92303" lon="4.75058">
        <ele>172</ele>
        <time>2016-11-15T09:31:38Z</time>
      </trkpt>
      <trkpt lat="45.92299" lon="4.75063">
        <ele>172</ele>
        <time>2016-11-15T09:31:39Z</time>
      </trkpt>
      <trkpt lat="45.92295" lon="4.75068">
        <ele>172</ele>
        <time>2016-11-15T09:31:40Z</time>
      </trkpt>
      <trkpt lat="45.92291" lon="4.75073">
        <ele>172</ele>
        <time>2016-11-15T09:31:41Z</time>
      </trkpt>
      <trkpt lat="45.92287" lon="4.75078">
        <ele>172</ele>
        <time>2016-11-15T09:31:42Z</time>
      </trkpt>
      <trkpt lat="45.92283" lon="4.75083">
        <ele>172</ele>
        <time>2016-11-15T09:31:43Z</time>
      </trkpt>
      <trkpt lat="45.92278" lon="4.75087">
        <ele>173</ele>
        <time>2016-11-15T09:31:44Z</time>
      </trkpt>
      <trkpt lat="45.92274" lon="4.75092">
        <ele>173</ele>
        <time>2016-11-15T09:31:45Z</time>
      </trkpt>
      <trkpt lat="45.92269" lon="4.75097">
        <ele>173</ele>
        <time>2016-11-15T09:31:46Z</time>
      </trkpt>
      <trkpt lat="45.92264" lon="4.75102">
        <ele>173</ele>
        <time>2016-11-15T09:31:47Z</time>
      </trkpt>
      <trkpt lat="45.92259" lon="4.75107">
        <ele>174</ele>
        <time>2016-11-15T09:31:48Z</time>
      </trkpt>
      <trkpt lat="45.92255" lon="4.75112">
        <ele>174</ele>
        <time>2016-11-15T09:31:49Z</time>
      </trkpt>
      <trkpt lat="45.9225" lon="4.75117">
        <ele>174</ele>
        <time>2016-11-15T09:31:50Z</time>
      </trkpt>
      <trkpt lat="45.92246" lon="4.75122">
        <ele>174</ele>
        <time>2016-11-15T09:31:51Z</time>
      </trkpt>
      <trkpt lat="45.92242" lon="4.75127">
        <ele>174</ele>
        <time>2016-11-15T09:31:52Z</time>
      </trkpt>
      <trkpt lat="45.92238" lon="4.75133">
        <ele>174</ele>
        <time>2016-11-15T09:31:53Z</time>
      </trkpt>
      <trkpt lat="45.92235" lon="4.75138">
        <ele>174</ele>
        <time>2016-11-15T09:31:54Z</time>
      </trkpt>
      <trkpt lat="45.92231" lon="4.75143">
        <ele>174</ele>
        <time>2016-11-15T09:31:55Z</time>
      </trkpt>
      <trkpt lat="45.92228" lon="4.75149">
        <ele>174</ele>
        <time>2016-11-15T09:31:56Z</time>
      </trkpt>
      <trkpt lat="45.92225" lon="4.75155">
        <ele>174</ele>
        <time>2016-11-15T09:31:57Z</time>
      </trkpt>
      <trkpt lat="45.92222" lon="4.75161">
        <ele>174</ele>
        <time>2016-11-15T09:31:58Z</time>
      </trkpt>
      <trkpt lat="45.9222" lon="4.75168">
        <ele>175</ele>
        <time>2016-11-15T09:31:59Z</time>
      </trkpt>
      <trkpt lat="45.92218" lon="4.75175">
        <ele>175</ele>
        <time>2016-11-15T09:32:00Z</time>
      </trkpt>
      <trkpt lat="45.92216" lon="4.75182">
        <ele>175</ele>
        <time>2016-11-15T09:32:01Z</time>
      </trkpt>
      <trkpt lat="45.92214" lon="4.75189">
        <ele>175</ele>
        <time>2016-11-15T09:32:02Z</time>
      </trkpt>
      <trkpt lat="45.92212" lon="4.75196">
        <ele>175</ele>
        <time>2016-11-15T09:32:03Z</time>
      </trkpt>
      <trkpt lat="45.92211" lon="4.75204">
        <ele>175</ele>
        <time>2016-11-15T09:32:04Z</time>
      </trkpt>
      <trkpt lat="45.92209" lon="4.75211">
        <ele>175</ele>
        <time>2016-11-15T09:32:05Z</time>
      </trkpt>
      <trkpt lat="45.92209" lon="4.75219">
        <ele>175</ele>
        <time>2016-11-15T09:32:06Z</time>
      </trkpt>
      <trkpt lat="45.92208" lon="4.75226">
        <ele>175</ele>
        <time>2016-11-15T09:32:07Z</time>
      </trkpt>
      <trkpt lat="45.92208" lon="4.75234">
        <ele>175</ele>
        <time>2016-11-15T09:32:08Z</time>
      </trkpt>
      <trkpt lat="45.92208" lon="4.75242">
        <ele>175</ele>
        <time>2016-11-15T09:32:09Z</time>
      </trkpt>
      <trkpt lat="45.92208" lon="4.7525">
        <ele>175</ele>
        <time>2016-11-15T09:32:10Z</time>
      </trkpt>
      <trkpt lat="45.92208" lon="4.75257">
        <ele>175</ele>
        <time>2016-11-15T09:32:11Z</time>
      </trkpt>
      <trkpt lat="45.92207" lon="4.75265">
        <ele>176</ele>
        <time>2016-11-15T09:32:12Z</time>
      </trkpt>
      <trkpt lat="45.92206" lon="4.75272">
        <ele>176</ele>
        <time>2016-11-15T09:32:13Z</time>
      </trkpt>
      <trkpt lat="45.92206" lon="4.7528">
        <ele>176</ele>
        <time>2016-11-15T09:32:14Z</time>
      </trkpt>
      <trkpt lat="45.92206" lon="4.75287">
        <ele>176</ele>
        <time>2016-11-15T09:32:15Z</time>
      </trkpt>
      <trkpt lat="45.92206" lon="4.75294">
        <ele>176</ele>
        <time>2016-11-15T09:32:16Z</time>
      </trkpt>
      <trkpt lat="45.92206" lon="4.75302">
        <ele>176</ele>
        <time>2016-11-15T09:32:17Z</time>
      </trkpt>
      <trkpt lat="45.92205" lon="4.75309">
        <ele>176</ele>
        <time>2016-11-15T09:32:18Z</time>
      </trkpt>
      <trkpt lat="45.92205" lon="4.75316">
        <ele>176</ele>
        <time>2016-11-15T09:32:19Z</time>
      </trkpt>
      <trkpt lat="45.92204" lon="4.75323">
        <ele>176</ele>
        <time>2016-11-15T09:32:20Z</time>
      </trkpt>
      <trkpt lat="45.92203" lon="4.7533">
        <ele>176</ele>
        <time>2016-11-15T09:32:21Z</time>
      </trkpt>
      <trkpt lat="45.92202" lon="4.75338">
        <ele>177</ele>
        <time>2016-11-15T09:32:22Z</time>
      </trkpt>
      <trkpt lat="45.922" lon="4.75345">
        <ele>177</ele>
        <time>2016-11-15T09:32:23Z</time>
      </trkpt>
      <trkpt lat="45.92198" lon="4.75352">
        <ele>177</ele>
        <time>2016-11-15T09:32:24Z</time>
      </trkpt>
      <trkpt lat="45.92197" lon="4.75359">
        <ele>177</ele>
        <time>2016-11-15T09:32:25Z</time>
      </trkpt>
      <trkpt lat="45.92194" lon="4.75366">
        <ele>177</ele>
        <time>2016-11-15T09:32:26Z</time>
      </trkpt>
      <trkpt lat="45.92193" lon="4.75374">
        <ele>177</ele>
        <time>2016-11-15T09:32:27Z</time>
      </trkpt>
      <trkpt lat="45.9219" lon="4.7538">
        <ele>177</ele>
        <time>2016-11-15T09:32:28Z</time>
      </trkpt>
      <trkpt lat="45.92187" lon="4.75387">
        <ele>177</ele>
        <time>2016-11-15T09:32:29Z</time>
      </trkpt>
      <trkpt lat="45.92183" lon="4.75394">
        <ele>177</ele>
        <time>2016-11-15T09:32:30Z</time>
      </trkpt>
      <trkpt lat="45.92181" lon="4.75401">
        <ele>177</ele>
        <time>2016-11-15T09:32:31Z</time>
      </trkpt>
      <trkpt lat="45.92179" lon="4.75409">
        <ele>177</ele>
        <time>2016-11-15T09:32:32Z</time>
      </trkpt>
      <trkpt lat="45.92176" lon="4.75416">
        <ele>178</ele>
        <time>2016-11-15T09:32:33Z</time>
      </trkpt>
      <trkpt lat="45.92174" lon="4.75424">
        <ele>177</ele>
        <time>2016-11-15T09:32:34Z</time>
      </trkpt>
      <trkpt lat="45.92171" lon="4.75431">
        <ele>177</ele>
        <time>2016-11-15T09:32:35Z</time>
      </trkpt>
      <trkpt lat="45.92169" lon="4.75439">
        <ele>177</ele>
        <time>2016-11-15T09:32:36Z</time>
      </trkpt>
      <trkpt lat="45.92166" lon="4.75446">
        <ele>177</ele>
        <time>2016-11-15T09:32:37Z</time>
      </trkpt>
      <trkpt lat="45.92162" lon="4.75452">
        <ele>176</ele>
        <time>2016-11-15T09:32:38Z</time>
      </trkpt>
      <trkpt lat="45.92159" lon="4.75459">
        <ele>176</ele>
        <time>2016-11-15T09:32:39Z</time>
      </trkpt>
      <trkpt lat="45.92156" lon="4.75466">
        <ele>176</ele>
        <time>2016-11-15T09:32:40Z</time>
      </trkpt>
      <trkpt lat="45.92153" lon="4.75473">
        <ele>176</ele>
        <time>2016-11-15T09:32:41Z</time>
      </trkpt>
      <trkpt lat="45.9215" lon="4.7548">
        <ele>176</ele>
        <time>2016-11-15T09:32:42Z</time>
      </trkpt>
      <trkpt lat="45.92147" lon="4.75487">
        <ele>176</ele>
        <time>2016-11-15T09:32:43Z</time>
      </trkpt>
      <trkpt lat="45.92144" lon="4.75494">
        <ele>176</ele>
        <time>2016-11-15T09:32:44Z</time>
      </trkpt>
      <trkpt lat="45.92142" lon="4.75501">
        <ele>175</ele>
        <time>2016-11-15T09:32:45Z</time>
      </trkpt>
      <trkpt lat="45.92138" lon="4.75508">
        <ele>174</ele>
        <time>2016-11-15T09:32:46Z</time>
      </trkpt>
      <trkpt lat="45.92135" lon="4.75514">
        <ele>174</ele>
        <time>2016-11-15T09:32:47Z</time>
      </trkpt>
      <trkpt lat="45.92131" lon="4.75521">
        <ele>174</ele>
        <time>2016-11-15T09:32:48Z</time>
      </trkpt>
      <trkpt lat="45.92128" lon="4.75527">
        <ele>174</ele>
        <time>2016-11-15T09:32:49Z</time>
      </trkpt>
      <trkpt lat="45.92124" lon="4.75534">
        <ele>174</ele>
        <time>2016-11-15T09:32:50Z</time>
      </trkpt>
      <trkpt lat="45.92121" lon="4.7554">
        <ele>174</ele>
        <time>2016-11-15T09:32:51Z</time>
      </trkpt>
      <trkpt lat="45.92118" lon="4.75546">
        <ele>174</ele>
        <time>2016-11-15T09:32:52Z</time>
      </trkpt>
      <trkpt lat="45.92115" lon="4.75552">
        <ele>174</ele>
        <time>2016-11-15T09:32:53Z</time>
      </trkpt>
      <trkpt lat="45.92112" lon="4.75558">
        <ele>174</ele>
        <time>2016-11-15T09:32:54Z</time>
      </trkpt>
      <trkpt lat="45.92109" lon="4.75564">
        <ele>174</ele>
        <time>2016-11-15T09:32:55Z</time>
      </trkpt>
      <trkpt lat="45.92108" lon="4.7557">
        <ele>174</ele>
        <time>2016-11-15T09:32:56Z</time>
      </trkpt>
      <trkpt lat="45.92108" lon="4.75577">
        <ele>174</ele>
        <time>2016-11-15T09:32:57Z</time>
      </trkpt>
      <trkpt lat="45.92109" lon="4.75583">
        <ele>174</ele>
        <time>2016-11-15T09:32:58Z</time>
      </trkpt>
      <trkpt lat="45.92113" lon="4.75588">
        <ele>174</ele>
        <time>2016-11-15T09:32:59Z</time>
      </trkpt>
      <trkpt lat="45.92118" lon="4.75593">
        <ele>174</ele>
        <time>2016-11-15T09:33:00Z</time>
      </trkpt>
      <trkpt lat="45.92123" lon="4.75599">
        <ele>174</ele>
        <time>2016-11-15T09:33:01Z</time>
      </trkpt>
      <trkpt lat="45.92128" lon="4.75604">
        <ele>174</ele>
        <time>2016-11-15T09:33:02Z</time>
      </trkpt>
      <trkpt lat="45.92132" lon="4.75609">
        <ele>174</ele>
        <time>2016-11-15T09:33:03Z</time>
      </trkpt>
      <trkpt lat="45.92138" lon="4.75614">
        <ele>174</ele>
        <time>2016-11-15T09:33:04Z</time>
      </trkpt>
      <trkpt lat="45.92143" lon="4.75618">
        <ele>174</ele>
        <time>2016-11-15T09:33:05Z</time>
      </trkpt>
      <trkpt lat="45.92148" lon="4.75623">
        <ele>174</ele>
        <time>2016-11-15T09:33:06Z</time>
      </trkpt>
      <trkpt lat="45.92153" lon="4.75627">
        <ele>174</ele>
        <time>2016-11-15T09:33:07Z</time>
      </trkpt>
      <trkpt lat="45.92157" lon="4.75632">
        <ele>174</ele>
        <time>2016-11-15T09:33:08Z</time>
      </trkpt>
      <trkpt lat="45.92161" lon="4.75636">
        <ele>174</ele>
        <time>2016-11-15T09:33:09Z</time>
      </trkpt>
      <trkpt lat="45.92166" lon="4.7564">
        <ele>174</ele>
        <time>2016-11-15T09:33:10Z</time>
      </trkpt>
      <trkpt lat="45.9217" lon="4.75644">
        <ele>174</ele>
        <time>2016-11-15T09:33:11Z</time>
      </trkpt>
      <trkpt lat="45.92174" lon="4.75648">
        <ele>174</ele>
        <time>2016-11-15T09:33:12Z</time>
      </trkpt>
      <trkpt lat="45.92178" lon="4.75652">
        <ele>174</ele>
        <time>2016-11-15T09:33:13Z</time>
      </trkpt>
      <trkpt lat="45.92184" lon="4.75657">
        <ele>174</ele>
        <time>2016-11-15T09:33:15Z</time>
      </trkpt>
      <trkpt lat="45.92188" lon="4.75659">
        <ele>174</ele>
        <time>2016-11-15T09:33:16Z</time>
      </trkpt>
      <trkpt lat="45.92193" lon="4.75661">
        <ele>174</ele>
        <time>2016-11-15T09:33:17Z</time>
      </trkpt>
      <trkpt lat="45.92198" lon="4.75666">
        <ele>174</ele>
        <time>2016-11-15T09:33:18Z</time>
      </trkpt>
      <trkpt lat="45.92202" lon="4.7567">
        <ele>174</ele>
        <time>2016-11-15T09:33:19Z</time>
      </trkpt>
      <trkpt lat="45.92207" lon="4.75676">
        <ele>174</ele>
        <time>2016-11-15T09:33:20Z</time>
      </trkpt>
      <trkpt lat="45.92211" lon="4.75682">
        <ele>174</ele>
        <time>2016-11-15T09:33:21Z</time>
      </trkpt>
      <trkpt lat="45.92216" lon="4.75687">
        <ele>174</ele>
        <time>2016-11-15T09:33:22Z</time>
      </trkpt>
      <trkpt lat="45.92221" lon="4.75692">
        <ele>174</ele>
        <time>2016-11-15T09:33:23Z</time>
      </trkpt>
      <trkpt lat="45.92226" lon="4.75697">
        <ele>174</ele>
        <time>2016-11-15T09:33:24Z</time>
      </trkpt>
      <trkpt lat="45.9223" lon="4.75702">
        <ele>174</ele>
        <time>2016-11-15T09:33:25Z</time>
      </trkpt>
      <trkpt lat="45.92234" lon="4.75708">
        <ele>174</ele>
        <time>2016-11-15T09:33:26Z</time>
      </trkpt>
      <trkpt lat="45.92238" lon="4.75714">
        <ele>174</ele>
        <time>2016-11-15T09:33:27Z</time>
      </trkpt>
      <trkpt lat="45.9224" lon="4.7572">
        <ele>174</ele>
        <time>2016-11-15T09:33:28Z</time>
      </trkpt>
      <trkpt lat="45.92242" lon="4.75726">
        <ele>174</ele>
        <time>2016-11-15T09:33:29Z</time>
      </trkpt>
      <trkpt lat="45.92243" lon="4.75734">
        <ele>174</ele>
        <time>2016-11-15T09:33:30Z</time>
      </trkpt>
      <trkpt lat="45.92245" lon="4.75741">
        <ele>174</ele>
        <time>2016-11-15T09:33:31Z</time>
      </trkpt>
      <trkpt lat="45.92247" lon="4.75748">
        <ele>174</ele>
        <time>2016-11-15T09:33:32Z</time>
      </trkpt>
      <trkpt lat="45.92248" lon="4.75754">
        <ele>174</ele>
        <time>2016-11-15T09:33:33Z</time>
      </trkpt>
      <trkpt lat="45.9225" lon="4.75762">
        <ele>174</ele>
        <time>2016-11-15T09:33:34Z</time>
      </trkpt>
      <trkpt lat="45.92251" lon="4.75769">
        <ele>174</ele>
        <time>2016-11-15T09:33:35Z</time>
      </trkpt>
      <trkpt lat="45.92252" lon="4.75777">
        <ele>174</ele>
        <time>2016-11-15T09:33:36Z</time>
      </trkpt>
      <trkpt lat="45.92253" lon="4.75784">
        <ele>174</ele>
        <time>2016-11-15T09:33:37Z</time>
      </trkpt>
      <trkpt lat="45.92253" lon="4.75791">
        <ele>174</ele>
        <time>2016-11-15T09:33:38Z</time>
      </trkpt>
      <trkpt lat="45.92255" lon="4.75797">
        <ele>174</ele>
        <time>2016-11-15T09:33:39Z</time>
      </trkpt>
      <trkpt lat="45.92258" lon="4.75804">
        <ele>174</ele>
        <time>2016-11-15T09:33:40Z</time>
      </trkpt>
      <trkpt lat="45.92259" lon="4.75811">
        <ele>174</ele>
        <time>2016-11-15T09:33:41Z</time>
      </trkpt>
      <trkpt lat="45.9226" lon="4.75818">
        <ele>174</ele>
        <time>2016-11-15T09:33:42Z</time>
      </trkpt>
      <trkpt lat="45.92264" lon="4.75824">
        <ele>174</ele>
        <time>2016-11-15T09:33:43Z</time>
      </trkpt>
      <trkpt lat="45.92269" lon="4.75828">
        <ele>174</ele>
        <time>2016-11-15T09:33:44Z</time>
      </trkpt>
      <trkpt lat="45.92274" lon="4.75832">
        <ele>174</ele>
        <time>2016-11-15T09:33:45Z</time>
      </trkpt>
      <trkpt lat="45.92279" lon="4.75836">
        <ele>173</ele>
        <time>2016-11-15T09:33:46Z</time>
      </trkpt>
      <trkpt lat="45.92284" lon="4.75839">
        <ele>173</ele>
        <time>2016-11-15T09:33:47Z</time>
      </trkpt>
      <trkpt lat="45.9229" lon="4.75842">
        <ele>173</ele>
        <time>2016-11-15T09:33:48Z</time>
      </trkpt>
      <trkpt lat="45.92295" lon="4.75845">
        <ele>173</ele>
        <time>2016-11-15T09:33:49Z</time>
      </trkpt>
      <trkpt lat="45.923" lon="4.75848">
        <ele>173</ele>
        <time>2016-11-15T09:33:50Z</time>
      </trkpt>
      <trkpt lat="45.92305" lon="4.75851">
        <ele>173</ele>
        <time>2016-11-15T09:33:51Z</time>
      </trkpt>
      <trkpt lat="45.92311" lon="4.75854">
        <ele>173</ele>
        <time>2016-11-15T09:33:52Z</time>
      </trkpt>
      <trkpt lat="45.92316" lon="4.75857">
        <ele>173</ele>
        <time>2016-11-15T09:33:53Z</time>
      </trkpt>
      <trkpt lat="45.92321" lon="4.75861">
        <ele>173</ele>
        <time>2016-11-15T09:33:54Z</time>
      </trkpt>
      <trkpt lat="45.92328" lon="4.75863">
        <ele>173</ele>
        <time>2016-11-15T09:33:55Z</time>
      </trkpt>
      <trkpt lat="45.92333" lon="4.75867">
        <ele>173</ele>
        <time>2016-11-15T09:33:56Z</time>
      </trkpt>
      <trkpt lat="45.92339" lon="4.7587">
        <ele>173</ele>
        <time>2016-11-15T09:33:57Z</time>
      </trkpt>
      <trkpt lat="45.92344" lon="4.75874">
        <ele>173</ele>
        <time>2016-11-15T09:33:58Z</time>
      </trkpt>
      <trkpt lat="45.9235" lon="4.75877">
        <ele>173</ele>
        <time>2016-11-15T09:33:59Z</time>
      </trkpt>
      <trkpt lat="45.92355" lon="4.7588">
        <ele>173</ele>
        <time>2016-11-15T09:34:00Z</time>
      </trkpt>
      <trkpt lat="45.9236" lon="4.75884">
        <ele>173</ele>
        <time>2016-11-15T09:34:01Z</time>
      </trkpt>
      <trkpt lat="45.92365" lon="4.75888">
        <ele>173</ele>
        <time>2016-11-15T09:34:02Z</time>
      </trkpt>
      <trkpt lat="45.92369" lon="4.75892">
        <ele>173</ele>
        <time>2016-11-15T09:34:03Z</time>
      </trkpt>
      <trkpt lat="45.92374" lon="4.75895">
        <ele>173</ele>
        <time>2016-11-15T09:34:04Z</time>
      </trkpt>
      <trkpt lat="45.92379" lon="4.75899">
        <ele>173</ele>
        <time>2016-11-15T09:34:05Z</time>
      </trkpt>
      <trkpt lat="45.92384" lon="4.75902">
        <ele>173</ele>
        <time>2016-11-15T09:34:06Z</time>
      </trkpt>
      <trkpt lat="45.92389" lon="4.75905">
        <ele>173</ele>
        <time>2016-11-15T09:34:07Z</time>
      </trkpt>
      <trkpt lat="45.92394" lon="4.75908">
        <ele>173</ele>
        <time>2016-11-15T09:34:08Z</time>
      </trkpt>
      <trkpt lat="45.92399" lon="4.75912">
        <ele>173</ele>
        <time>2016-11-15T09:34:09Z</time>
      </trkpt>
      <trkpt lat="45.92403" lon="4.75915">
        <ele>172</ele>
        <time>2016-11-15T09:34:10Z</time>
      </trkpt>
      <trkpt lat="45.92408" lon="4.75918">
        <ele>172</ele>
        <time>2016-11-15T09:34:11Z</time>
      </trkpt>
      <trkpt lat="45.92413" lon="4.75922">
        <ele>172</ele>
        <time>2016-11-15T09:34:12Z</time>
      </trkpt>
      <trkpt lat="45.92418" lon="4.75925">
        <ele>172</ele>
        <time>2016-11-15T09:34:13Z</time>
      </trkpt>
      <trkpt lat="45.92422" lon="4.75929">
        <ele>172</ele>
        <time>2016-11-15T09:34:14Z</time>
      </trkpt>
      <trkpt lat="45.92427" lon="4.75933">
        <ele>172</ele>
        <time>2016-11-15T09:34:15Z</time>
      </trkpt>
      <trkpt lat="45.92431" lon="4.75937">
        <ele>172</ele>
        <time>2016-11-15T09:34:16Z</time>
      </trkpt>
      <trkpt lat="45.92436" lon="4.7594">
        <ele>172</ele>
        <time>2016-11-15T09:34:17Z</time>
      </trkpt>
      <trkpt lat="45.92441" lon="4.75944">
        <ele>172</ele>
        <time>2016-11-15T09:34:18Z</time>
      </trkpt>
      <trkpt lat="45.92445" lon="4.75947">
        <ele>172</ele>
        <time>2016-11-15T09:34:19Z</time>
      </trkpt>
      <trkpt lat="45.92449" lon="4.75951">
        <ele>172</ele>
        <time>2016-11-15T09:34:20Z</time>
      </trkpt>
      <trkpt lat="45.92453" lon="4.75955">
        <ele>172</ele>
        <time>2016-11-15T09:34:21Z</time>
      </trkpt>
      <trkpt lat="45.92458" lon="4.75958">
        <ele>172</ele>
        <time>2016-11-15T09:34:22Z</time>
      </trkpt>
      <trkpt lat="45.92463" lon="4.75962">
        <ele>172</ele>
        <time>2016-11-15T09:34:23Z</time>
      </trkpt>
      <trkpt lat="45.92467" lon="4.75965">
        <ele>172</ele>
        <time>2016-11-15T09:34:24Z</time>
      </trkpt>
      <trkpt lat="45.92471" lon="4.75969">
        <ele>172</ele>
        <time>2016-11-15T09:34:25Z</time>
      </trkpt>
      <trkpt lat="45.92476" lon="4.75973">
        <ele>172</ele>
        <time>2016-11-15T09:34:26Z</time>
      </trkpt>
      <trkpt lat="45.9248" lon="4.75976">
        <ele>172</ele>
        <time>2016-11-15T09:34:27Z</time>
      </trkpt>
      <trkpt lat="45.92485" lon="4.75979">
        <ele>172</ele>
        <time>2016-11-15T09:34:28Z</time>
      </trkpt>
      <trkpt lat="45.9249" lon="4.75982">
        <ele>172</ele>
        <time>2016-11-15T09:34:29Z</time>
      </trkpt>
      <trkpt lat="45.92495" lon="4.75985">
        <ele>172</ele>
        <time>2016-11-15T09:34:30Z</time>
      </trkpt>
      <trkpt lat="45.92499" lon="4.75989">
        <ele>172</ele>
        <time>2016-11-15T09:34:31Z</time>
      </trkpt>
      <trkpt lat="45.92504" lon="4.75992">
        <ele>172</ele>
        <time>2016-11-15T09:34:32Z</time>
      </trkpt>
      <trkpt lat="45.92509" lon="4.75995">
        <ele>172</ele>
        <time>2016-11-15T09:34:33Z</time>
      </trkpt>
      <trkpt lat="45.92513" lon="4.75998">
        <ele>172</ele>
        <time>2016-11-15T09:34:34Z</time>
      </trkpt>
      <trkpt lat="45.92518" lon="4.76001">
        <ele>172</ele>
        <time>2016-11-15T09:34:35Z</time>
      </trkpt>
      <trkpt lat="45.92522" lon="4.76005">
        <ele>172</ele>
        <time>2016-11-15T09:34:36Z</time>
      </trkpt>
      <trkpt lat="45.92526" lon="4.76008">
        <ele>172</ele>
        <time>2016-11-15T09:34:37Z</time>
      </trkpt>
      <trkpt lat="45.9253" lon="4.76011">
        <ele>172</ele>
        <time>2016-11-15T09:34:38Z</time>
      </trkpt>
      <trkpt lat="45.92535" lon="4.76014">
        <ele>172</ele>
        <time>2016-11-15T09:34:39Z</time>
      </trkpt>
      <trkpt lat="45.9254" lon="4.76017">
        <ele>172</ele>
        <time>2016-11-15T09:34:40Z</time>
      </trkpt>
      <trkpt lat="45.92544" lon="4.76021">
        <ele>172</ele>
        <time>2016-11-15T09:34:41Z</time>
      </trkpt>
      <trkpt lat="45.92549" lon="4.76024">
        <ele>172</ele>
        <time>2016-11-15T09:34:42Z</time>
      </trkpt>
      <trkpt lat="45.92553" lon="4.76028">
        <ele>172</ele>
        <time>2016-11-15T09:34:43Z</time>
      </trkpt>
      <trkpt lat="45.92558" lon="4.76031">
        <ele>172</ele>
        <time>2016-11-15T09:34:44Z</time>
      </trkpt>
      <trkpt lat="45.92562" lon="4.76035">
        <ele>172</ele>
        <time>2016-11-15T09:34:45Z</time>
      </trkpt>
      <trkpt lat="45.92567" lon="4.76038">
        <ele>172</ele>
        <time>2016-11-15T09:34:46Z</time>
      </trkpt>
      <trkpt lat="45.92572" lon="4.76042">
        <ele>172</ele>
        <time>2016-11-15T09:34:47Z</time>
      </trkpt>
      <trkpt lat="45.92577" lon="4.76045">
        <ele>171</ele>
        <time>2016-11-15T09:34:48Z</time>
      </trkpt>
      <trkpt lat="45.92582" lon="4.76048">
        <ele>171</ele>
        <time>2016-11-15T09:34:49Z</time>
      </trkpt>
      <trkpt lat="45.92587" lon="4.76052">
        <ele>171</ele>
        <time>2016-11-15T09:34:50Z</time>
      </trkpt>
      <trkpt lat="45.92591" lon="4.76056">
        <ele>171</ele>
        <time>2016-11-15T09:34:51Z</time>
      </trkpt>
      <trkpt lat="45.92596" lon="4.76059">
        <ele>171</ele>
        <time>2016-11-15T09:34:52Z</time>
      </trkpt>
      <trkpt lat="45.92606" lon="4.76066">
        <ele>171</ele>
        <time>2016-11-15T09:34:54Z</time>
      </trkpt>
      <trkpt lat="45.92611" lon="4.7607">
        <ele>171</ele>
        <time>2016-11-15T09:34:55Z</time>
      </trkpt>
      <trkpt lat="45.92616" lon="4.76073">
        <ele>171</ele>
        <time>2016-11-15T09:34:56Z</time>
      </trkpt>
      <trkpt lat="45.92621" lon="4.76076">
        <ele>171</ele>
        <time>2016-11-15T09:34:57Z</time>
      </trkpt>
      <trkpt lat="45.92627" lon="4.7608">
        <ele>170</ele>
        <time>2016-11-15T09:34:58Z</time>
      </trkpt>
      <trkpt lat="45.92633" lon="4.76085">
        <ele>170</ele>
        <time>2016-11-15T09:34:59Z</time>
      </trkpt>
      <trkpt lat="45.92639" lon="4.76089">
        <ele>170</ele>
        <time>2016-11-15T09:35:00Z</time>
      </trkpt>
      <trkpt lat="45.92645" lon="4.76093">
        <ele>170</ele>
        <time>2016-11-15T09:35:01Z</time>
      </trkpt>
      <trkpt lat="45.92651" lon="4.76097">
        <ele>170</ele>
        <time>2016-11-15T09:35:02Z</time>
      </trkpt>
      <trkpt lat="45.92658" lon="4.76101">
        <ele>170</ele>
        <time>2016-11-15T09:35:03Z</time>
      </trkpt>
      <trkpt lat="45.92664" lon="4.76106">
        <ele>170</ele>
        <time>2016-11-15T09:35:04Z</time>
      </trkpt>
      <trkpt lat="45.92671" lon="4.7611">
        <ele>169</ele>
        <time>2016-11-15T09:35:05Z</time>
      </trkpt>
      <trkpt lat="45.92677" lon="4.76115">
        <ele>169</ele>
        <time>2016-11-15T09:35:06Z</time>
      </trkpt>
      <trkpt lat="45.92684" lon="4.76119">
        <ele>169</ele>
        <time>2016-11-15T09:35:07Z</time>
      </trkpt>
      <trkpt lat="45.92691" lon="4.76123">
        <ele>169</ele>
        <time>2016-11-15T09:35:08Z</time>
      </trkpt>
      <trkpt lat="45.92698" lon="4.76127">
        <ele>169</ele>
        <time>2016-11-15T09:35:09Z</time>
      </trkpt>
      <trkpt lat="45.92704" lon="4.76131">
        <ele>169</ele>
        <time>2016-11-15T09:35:10Z</time>
      </trkpt>
      <trkpt lat="45.92711" lon="4.76135">
        <ele>168</ele>
        <time>2016-11-15T09:35:11Z</time>
      </trkpt>
      <trkpt lat="45.92718" lon="4.7614">
        <ele>168</ele>
        <time>2016-11-15T09:35:12Z</time>
      </trkpt>
      <trkpt lat="45.92724" lon="4.76144">
        <ele>168</ele>
        <time>2016-11-15T09:35:13Z</time>
      </trkpt>
      <trkpt lat="45.9273" lon="4.76149">
        <ele>168</ele>
        <time>2016-11-15T09:35:14Z</time>
      </trkpt>
      <trkpt lat="45.92736" lon="4.76153">
        <ele>168</ele>
        <time>2016-11-15T09:35:15Z</time>
      </trkpt>
      <trkpt lat="45.92742" lon="4.76158">
        <ele>168</ele>
        <time>2016-11-15T09:35:16Z</time>
      </trkpt>
      <trkpt lat="45.92748" lon="4.76163">
        <ele>167</ele>
        <time>2016-11-15T09:35:17Z</time>
      </trkpt>
      <trkpt lat="45.92754" lon="4.76167">
        <ele>167</ele>
        <time>2016-11-15T09:35:18Z</time>
      </trkpt>
      <trkpt lat="45.9276" lon="4.76171">
        <ele>167</ele>
        <time>2016-11-15T09:35:19Z</time>
      </trkpt>
      <trkpt lat="45.92765" lon="4.76176">
        <ele>167</ele>
        <time>2016-11-15T09:35:20Z</time>
      </trkpt>
      <trkpt lat="45.9277" lon="4.7618">
        <ele>167</ele>
        <time>2016-11-15T09:35:21Z</time>
      </trkpt>
      <trkpt lat="45.92775" lon="4.76185">
        <ele>167</ele>
        <time>2016-11-15T09:35:22Z</time>
      </trkpt>
      <trkpt lat="45.9278" lon="4.7619">
        <ele>168</ele>
        <time>2016-11-15T09:35:23Z</time>
      </trkpt>
      <trkpt lat="45.92785" lon="4.76194">
        <ele>168</ele>
        <time>2016-11-15T09:35:24Z</time>
      </trkpt>
      <trkpt lat="45.9279" lon="4.76199">
        <ele>168</ele>
        <time>2016-11-15T09:35:25Z</time>
      </trkpt>
      <trkpt lat="45.92795" lon="4.76204">
        <ele>168</ele>
        <time>2016-11-15T09:35:26Z</time>
      </trkpt>
      <trkpt lat="45.928" lon="4.76209">
        <ele>168</ele>
        <time>2016-11-15T09:35:27Z</time>
      </trkpt>
      <trkpt lat="45.92805" lon="4.76213">
        <ele>168</ele>
        <time>2016-11-15T09:35:28Z</time>
      </trkpt>
      <trkpt lat="45.9281" lon="4.76218">
        <ele>168</ele>
        <time>2016-11-15T09:35:29Z</time>
      </trkpt>
      <trkpt lat="45.92815" lon="4.76223">
        <ele>168</ele>
        <time>2016-11-15T09:35:30Z</time>
      </trkpt>
      <trkpt lat="45.9282" lon="4.76228">
        <ele>168</ele>
        <time>2016-11-15T09:35:31Z</time>
      </trkpt>
      <trkpt lat="45.92825" lon="4.76233">
        <ele>168</ele>
        <time>2016-11-15T09:35:32Z</time>
      </trkpt>
      <trkpt lat="45.92829" lon="4.76238">
        <ele>168</ele>
        <time>2016-11-15T09:35:33Z</time>
      </trkpt>
      <trkpt lat="45.92834" lon="4.76243">
        <ele>169</ele>
        <time>2016-11-15T09:35:34Z</time>
      </trkpt>
      <trkpt lat="45.92838" lon="4.76247">
        <ele>169</ele>
        <time>2016-11-15T09:35:35Z</time>
      </trkpt>
      <trkpt lat="45.92842" lon="4.76251">
        <ele>169</ele>
        <time>2016-11-15T09:35:36Z</time>
      </trkpt>
      <trkpt lat="45.92847" lon="4.76256">
        <ele>169</ele>
        <time>2016-11-15T09:35:37Z</time>
      </trkpt>
      <trkpt lat="45.92852" lon="4.76261">
        <ele>169</ele>
        <time>2016-11-15T09:35:38Z</time>
      </trkpt>
      <trkpt lat="45.92857" lon="4.76267">
        <ele>169</ele>
        <time>2016-11-15T09:35:39Z</time>
      </trkpt>
      <trkpt lat="45.92861" lon="4.76272">
        <ele>169</ele>
        <time>2016-11-15T09:35:40Z</time>
      </trkpt>
      <trkpt lat="45.92866" lon="4.76276">
        <ele>169</ele>
        <time>2016-11-15T09:35:41Z</time>
      </trkpt>
      <trkpt lat="45.92871" lon="4.76281">
        <ele>169</ele>
        <time>2016-11-15T09:35:42Z</time>
      </trkpt>
      <trkpt lat="45.92876" lon="4.76287">
        <ele>169</ele>
        <time>2016-11-15T09:35:43Z</time>
      </trkpt>
      <trkpt lat="45.92881" lon="4.76291">
        <ele>169</ele>
        <time>2016-11-15T09:35:44Z</time>
      </trkpt>
      <trkpt lat="45.92885" lon="4.76296">
        <ele>169</ele>
        <time>2016-11-15T09:35:45Z</time>
      </trkpt>
      <trkpt lat="45.9289" lon="4.76301">
        <ele>169</ele>
        <time>2016-11-15T09:35:46Z</time>
      </trkpt>
      <trkpt lat="45.92895" lon="4.76306">
        <ele>169</ele>
        <time>2016-11-15T09:35:47Z</time>
      </trkpt>
      <trkpt lat="45.92899" lon="4.76311">
        <ele>169</ele>
        <time>2016-11-15T09:35:48Z</time>
      </trkpt>
      <trkpt lat="45.92903" lon="4.76315">
        <ele>169</ele>
        <time>2016-11-15T09:35:49Z</time>
      </trkpt>
      <trkpt lat="45.92908" lon="4.7632">
        <ele>169</ele>
        <time>2016-11-15T09:35:50Z</time>
      </trkpt>
      <trkpt lat="45.92912" lon="4.76324">
        <ele>169</ele>
        <time>2016-11-15T09:35:51Z</time>
      </trkpt>
      <trkpt lat="45.92917" lon="4.76329">
        <ele>169</ele>
        <time>2016-11-15T09:35:52Z</time>
      </trkpt>
      <trkpt lat="45.92922" lon="4.76333">
        <ele>169</ele>
        <time>2016-11-15T09:35:53Z</time>
      </trkpt>
      <trkpt lat="45.92926" lon="4.76338">
        <ele>169</ele>
        <time>2016-11-15T09:35:54Z</time>
      </trkpt>
      <trkpt lat="45.92931" lon="4.76342">
        <ele>169</ele>
        <time>2016-11-15T09:35:55Z</time>
      </trkpt>
      <trkpt lat="45.92935" lon="4.76347">
        <ele>169</ele>
        <time>2016-11-15T09:35:56Z</time>
      </trkpt>
      <trkpt lat="45.9294" lon="4.76351">
        <ele>169</ele>
        <time>2016-11-15T09:35:57Z</time>
      </trkpt>
      <trkpt lat="45.92944" lon="4.76356">
        <ele>169</ele>
        <time>2016-11-15T09:35:58Z</time>
      </trkpt>
      <trkpt lat="45.92949" lon="4.7636">
        <ele>169</ele>
        <time>2016-11-15T09:35:59Z</time>
      </trkpt>
      <trkpt lat="45.92953" lon="4.76364">
        <ele>169</ele>
        <time>2016-11-15T09:36:00Z</time>
      </trkpt>
      <trkpt lat="45.92958" lon="4.76369">
        <ele>169</ele>
        <time>2016-11-15T09:36:01Z</time>
      </trkpt>
      <trkpt lat="45.92963" lon="4.76374">
        <ele>169</ele>
        <time>2016-11-15T09:36:02Z</time>
      </trkpt>
      <trkpt lat="45.92968" lon="4.76379">
        <ele>169</ele>
        <time>2016-11-15T09:36:03Z</time>
      </trkpt>
      <trkpt lat="45.92973" lon="4.76383">
        <ele>169</ele>
        <time>2016-11-15T09:36:04Z</time>
      </trkpt>
      <trkpt lat="45.92978" lon="4.76389">
        <ele>169</ele>
        <time>2016-11-15T09:36:05Z</time>
      </trkpt>
      <trkpt lat="45.92983" lon="4.76394">
        <ele>169</ele>
        <time>2016-11-15T09:36:06Z</time>
      </trkpt>
      <trkpt lat="45.92987" lon="4.76399">
        <ele>169</ele>
        <time>2016-11-15T09:36:07Z</time>
      </trkpt>
      <trkpt lat="45.92992" lon="4.76403">
        <ele>169</ele>
        <time>2016-11-15T09:36:08Z</time>
      </trkpt>
      <trkpt lat="45.92997" lon="4.76407">
        <ele>169</ele>
        <time>2016-11-15T09:36:09Z</time>
      </trkpt>
      <trkpt lat="45.93001" lon="4.76411">
        <ele>169</ele>
        <time>2016-11-15T09:36:10Z</time>
      </trkpt>
      <trkpt lat="45.93005" lon="4.76416">
        <ele>169</ele>
        <time>2016-11-15T09:36:11Z</time>
      </trkpt>
      <trkpt lat="45.93008" lon="4.7642">
        <ele>169</ele>
        <time>2016-11-15T09:36:12Z</time>
      </trkpt>
      <trkpt lat="45.93013" lon="4.76424">
        <ele>169</ele>
        <time>2016-11-15T09:36:13Z</time>
      </trkpt>
      <trkpt lat="45.93017" lon="4.76428">
        <ele>169</ele>
        <time>2016-11-15T09:36:14Z</time>
      </trkpt>
      <trkpt lat="45.93022" lon="4.76432">
        <ele>169</ele>
        <time>2016-11-15T09:36:15Z</time>
      </trkpt>
      <trkpt lat="45.93026" lon="4.76436">
        <ele>169</ele>
        <time>2016-11-15T09:36:16Z</time>
      </trkpt>
      <trkpt lat="45.93031" lon="4.76441">
        <ele>169</ele>
        <time>2016-11-15T09:36:17Z</time>
      </trkpt>
      <trkpt lat="45.93035" lon="4.76446">
        <ele>169</ele>
        <time>2016-11-15T09:36:18Z</time>
      </trkpt>
      <trkpt lat="45.9304" lon="4.7645">
        <ele>169</ele>
        <time>2016-11-15T09:36:19Z</time>
      </trkpt>
      <trkpt lat="45.93045" lon="4.76455">
        <ele>169</ele>
        <time>2016-11-15T09:36:20Z</time>
      </trkpt>
      <trkpt lat="45.93049" lon="4.76459">
        <ele>169</ele>
        <time>2016-11-15T09:36:21Z</time>
      </trkpt>
      <trkpt lat="45.93053" lon="4.76464">
        <ele>169</ele>
        <time>2016-11-15T09:36:22Z</time>
      </trkpt>
      <trkpt lat="45.93059" lon="4.76468">
        <ele>169</ele>
        <time>2016-11-15T09:36:23Z</time>
      </trkpt>
      <trkpt lat="45.93064" lon="4.76474">
        <ele>169</ele>
        <time>2016-11-15T09:36:24Z</time>
      </trkpt>
      <trkpt lat="45.93069" lon="4.76479">
        <ele>169</ele>
        <time>2016-11-15T09:36:25Z</time>
      </trkpt>
      <trkpt lat="45.93074" lon="4.76484">
        <ele>169</ele>
        <time>2016-11-15T09:36:26Z</time>
      </trkpt>
      <trkpt lat="45.93079" lon="4.76489">
        <ele>170</ele>
        <time>2016-11-15T09:36:27Z</time>
      </trkpt>
      <trkpt lat="45.93085" lon="4.76494">
        <ele>170</ele>
        <time>2016-11-15T09:36:28Z</time>
      </trkpt>
      <trkpt lat="45.9309" lon="4.76499">
        <ele>170</ele>
        <time>2016-11-15T09:36:29Z</time>
      </trkpt>
      <trkpt lat="45.93096" lon="4.76504">
        <ele>170</ele>
        <time>2016-11-15T09:36:30Z</time>
      </trkpt>
      <trkpt lat="45.931" lon="4.76508">
        <ele>170</ele>
        <time>2016-11-15T09:36:31Z</time>
      </trkpt>
      <trkpt lat="45.93105" lon="4.76512">
        <ele>170</ele>
        <time>2016-11-15T09:36:32Z</time>
      </trkpt>
      <trkpt lat="45.93109" lon="4.76516">
        <ele>170</ele>
        <time>2016-11-15T09:36:33Z</time>
      </trkpt>
      <trkpt lat="45.93114" lon="4.76521">
        <ele>170</ele>
        <time>2016-11-15T09:36:34Z</time>
      </trkpt>
      <trkpt lat="45.93118" lon="4.76526">
        <ele>170</ele>
        <time>2016-11-15T09:36:35Z</time>
      </trkpt>
      <trkpt lat="45.93124" lon="4.76531">
        <ele>170</ele>
        <time>2016-11-15T09:36:36Z</time>
      </trkpt>
      <trkpt lat="45.93128" lon="4.76535">
        <ele>170</ele>
        <time>2016-11-15T09:36:37Z</time>
      </trkpt>
      <trkpt lat="45.93133" lon="4.7654">
        <ele>170</ele>
        <time>2016-11-15T09:36:38Z</time>
      </trkpt>
      <trkpt lat="45.93138" lon="4.76544">
        <ele>170</ele>
        <time>2016-11-15T09:36:39Z</time>
      </trkpt>
      <trkpt lat="45.93143" lon="4.76549">
        <ele>170</ele>
        <time>2016-11-15T09:36:40Z</time>
      </trkpt>
      <trkpt lat="45.93148" lon="4.76555">
        <ele>170</ele>
        <time>2016-11-15T09:36:41Z</time>
      </trkpt>
      <trkpt lat="45.93153" lon="4.76561">
        <ele>170</ele>
        <time>2016-11-15T09:36:42Z</time>
      </trkpt>
      <trkpt lat="45.93158" lon="4.76567">
        <ele>170</ele>
        <time>2016-11-15T09:36:43Z</time>
      </trkpt>
      <trkpt lat="45.93163" lon="4.76572">
        <ele>170</ele>
        <time>2016-11-15T09:36:44Z</time>
      </trkpt>
      <trkpt lat="45.93167" lon="4.76576">
        <ele>170</ele>
        <time>2016-11-15T09:36:45Z</time>
      </trkpt>
      <trkpt lat="45.93172" lon="4.76581">
        <ele>171</ele>
        <time>2016-11-15T09:36:46Z</time>
      </trkpt>
      <trkpt lat="45.93176" lon="4.76585">
        <ele>171</ele>
        <time>2016-11-15T09:36:47Z</time>
      </trkpt>
      <trkpt lat="45.93181" lon="4.7659">
        <ele>171</ele>
        <time>2016-11-15T09:36:48Z</time>
      </trkpt>
      <trkpt lat="45.93185" lon="4.76594">
        <ele>171</ele>
        <time>2016-11-15T09:36:49Z</time>
      </trkpt>
      <trkpt lat="45.9319" lon="4.766">
        <ele>170</ele>
        <time>2016-11-15T09:36:50Z</time>
      </trkpt>
      <trkpt lat="45.93195" lon="4.76604">
        <ele>170</ele>
        <time>2016-11-15T09:36:51Z</time>
      </trkpt>
      <trkpt lat="45.93199" lon="4.76608">
        <ele>170</ele>
        <time>2016-11-15T09:36:52Z</time>
      </trkpt>
      <trkpt lat="45.93204" lon="4.76613">
        <ele>170</ele>
        <time>2016-11-15T09:36:53Z</time>
      </trkpt>
      <trkpt lat="45.93208" lon="4.76618">
        <ele>170</ele>
        <time>2016-11-15T09:36:54Z</time>
      </trkpt>
      <trkpt lat="45.93213" lon="4.76622">
        <ele>170</ele>
        <time>2016-11-15T09:36:55Z</time>
      </trkpt>
      <trkpt lat="45.93218" lon="4.76626">
        <ele>170</ele>
        <time>2016-11-15T09:36:56Z</time>
      </trkpt>
      <trkpt lat="45.93222" lon="4.76631">
        <ele>170</ele>
        <time>2016-11-15T09:36:57Z</time>
      </trkpt>
      <trkpt lat="45.93227" lon="4.76635">
        <ele>171</ele>
        <time>2016-11-15T09:36:58Z</time>
      </trkpt>
      <trkpt lat="45.93232" lon="4.7664">
        <ele>171</ele>
        <time>2016-11-15T09:36:59Z</time>
      </trkpt>
      <trkpt lat="45.93236" lon="4.76645">
        <ele>171</ele>
        <time>2016-11-15T09:37:00Z</time>
      </trkpt>
      <trkpt lat="45.93241" lon="4.7665">
        <ele>171</ele>
        <time>2016-11-15T09:37:01Z</time>
      </trkpt>
      <trkpt lat="45.93246" lon="4.76654">
        <ele>171</ele>
        <time>2016-11-15T09:37:02Z</time>
      </trkpt>
      <trkpt lat="45.93251" lon="4.76659">
        <ele>171</ele>
        <time>2016-11-15T09:37:03Z</time>
      </trkpt>
      <trkpt lat="45.93255" lon="4.76664">
        <ele>171</ele>
        <time>2016-11-15T09:37:04Z</time>
      </trkpt>
      <trkpt lat="45.93259" lon="4.76669">
        <ele>172</ele>
        <time>2016-11-15T09:37:05Z</time>
      </trkpt>
      <trkpt lat="45.93264" lon="4.76673">
        <ele>172</ele>
        <time>2016-11-15T09:37:06Z</time>
      </trkpt>
      <trkpt lat="45.93268" lon="4.76678">
        <ele>172</ele>
        <time>2016-11-15T09:37:07Z</time>
      </trkpt>
      <trkpt lat="45.93273" lon="4.76683">
        <ele>172</ele>
        <time>2016-11-15T09:37:08Z</time>
      </trkpt>
      <trkpt lat="45.93277" lon="4.76688">
        <ele>172</ele>
        <time>2016-11-15T09:37:09Z</time>
      </trkpt>
      <trkpt lat="45.93282" lon="4.76693">
        <ele>172</ele>
        <time>2016-11-15T09:37:10Z</time>
      </trkpt>
      <trkpt lat="45.93287" lon="4.76697">
        <ele>172</ele>
        <time>2016-11-15T09:37:11Z</time>
      </trkpt>
      <trkpt lat="45.93291" lon="4.76702">
        <ele>172</ele>
        <time>2016-11-15T09:37:12Z</time>
      </trkpt>
      <trkpt lat="45.93296" lon="4.76706">
        <ele>172</ele>
        <time>2016-11-15T09:37:13Z</time>
      </trkpt>
      <trkpt lat="45.933" lon="4.76711">
        <ele>172</ele>
        <time>2016-11-15T09:37:14Z</time>
      </trkpt>
      <trkpt lat="45.93305" lon="4.76715">
        <ele>172</ele>
        <time>2016-11-15T09:37:15Z</time>
      </trkpt>
      <trkpt lat="45.93309" lon="4.76719">
        <ele>172</ele>
        <time>2016-11-15T09:37:16Z</time>
      </trkpt>
      <trkpt lat="45.93313" lon="4.76722">
        <ele>172</ele>
        <time>2016-11-15T09:37:17Z</time>
      </trkpt>
      <trkpt lat="45.93318" lon="4.76726">
        <ele>172</ele>
        <time>2016-11-15T09:37:18Z</time>
      </trkpt>
      <trkpt lat="45.93322" lon="4.76731">
        <ele>172</ele>
        <time>2016-11-15T09:37:19Z</time>
      </trkpt>
      <trkpt lat="45.93326" lon="4.76736">
        <ele>172</ele>
        <time>2016-11-15T09:37:20Z</time>
      </trkpt>
      <trkpt lat="45.93331" lon="4.7674">
        <ele>173</ele>
        <time>2016-11-15T09:37:21Z</time>
      </trkpt>
      <trkpt lat="45.93335" lon="4.76745">
        <ele>173</ele>
        <time>2016-11-15T09:37:22Z</time>
      </trkpt>
      <trkpt lat="45.9334" lon="4.7675">
        <ele>173</ele>
        <time>2016-11-15T09:37:23Z</time>
      </trkpt>
      <trkpt lat="45.93344" lon="4.76754">
        <ele>172</ele>
        <time>2016-11-15T09:37:24Z</time>
      </trkpt>
      <trkpt lat="45.93349" lon="4.76758">
        <ele>172</ele>
        <time>2016-11-15T09:37:25Z</time>
      </trkpt>
      <trkpt lat="45.93353" lon="4.76762">
        <ele>172</ele>
        <time>2016-11-15T09:37:26Z</time>
      </trkpt>
      <trkpt lat="45.93357" lon="4.76767">
        <ele>172</ele>
        <time>2016-11-15T09:37:27Z</time>
      </trkpt>
      <trkpt lat="45.9336" lon="4.76771">
        <ele>172</ele>
        <time>2016-11-15T09:37:28Z</time>
      </trkpt>
      <trkpt lat="45.93365" lon="4.76775">
        <ele>172</ele>
        <time>2016-11-15T09:37:29Z</time>
      </trkpt>
      <trkpt lat="45.93369" lon="4.76779">
        <ele>172</ele>
        <time>2016-11-15T09:37:30Z</time>
      </trkpt>
      <trkpt lat="45.93374" lon="4.76784">
        <ele>172</ele>
        <time>2016-11-15T09:37:31Z</time>
      </trkpt>
      <trkpt lat="45.93379" lon="4.76789">
        <ele>172</ele>
        <time>2016-11-15T09:37:32Z</time>
      </trkpt>
      <trkpt lat="45.93383" lon="4.76794">
        <ele>172</ele>
        <time>2016-11-15T09:37:33Z</time>
      </trkpt>
      <trkpt lat="45.93388" lon="4.768">
        <ele>172</ele>
        <time>2016-11-15T09:37:34Z</time>
      </trkpt>
      <trkpt lat="45.93392" lon="4.76805">
        <ele>172</ele>
        <time>2016-11-15T09:37:35Z</time>
      </trkpt>
      <trkpt lat="45.93397" lon="4.76811">
        <ele>172</ele>
        <time>2016-11-15T09:37:36Z</time>
      </trkpt>
      <trkpt lat="45.93401" lon="4.76816">
        <ele>172</ele>
        <time>2016-11-15T09:37:37Z</time>
      </trkpt>
      <trkpt lat="45.93405" lon="4.76822">
        <ele>172</ele>
        <time>2016-11-15T09:37:38Z</time>
      </trkpt>
      <trkpt lat="45.93409" lon="4.76827">
        <ele>172</ele>
        <time>2016-11-15T09:37:39Z</time>
      </trkpt>
      <trkpt lat="45.93412" lon="4.76833">
        <ele>172</ele>
        <time>2016-11-15T09:37:40Z</time>
      </trkpt>
      <trkpt lat="45.93416" lon="4.76838">
        <ele>172</ele>
        <time>2016-11-15T09:37:41Z</time>
      </trkpt>
      <trkpt lat="45.93418" lon="4.76844">
        <ele>171</ele>
        <time>2016-11-15T09:37:42Z</time>
      </trkpt>
      <trkpt lat="45.93421" lon="4.7685">
        <ele>171</ele>
        <time>2016-11-15T09:37:43Z</time>
      </trkpt>
      <trkpt lat="45.93424" lon="4.76857">
        <ele>171</ele>
        <time>2016-11-15T09:37:44Z</time>
      </trkpt>
      <trkpt lat="45.93427" lon="4.76863">
        <ele>171</ele>
        <time>2016-11-15T09:37:45Z</time>
      </trkpt>
      <trkpt lat="45.93429" lon="4.76869">
        <ele>171</ele>
        <time>2016-11-15T09:37:46Z</time>
      </trkpt>
      <trkpt lat="45.93432" lon="4.76875">
        <ele>171</ele>
        <time>2016-11-15T09:37:47Z</time>
      </trkpt>
      <trkpt lat="45.93434" lon="4.76882">
        <ele>171</ele>
        <time>2016-11-15T09:37:48Z</time>
      </trkpt>
      <trkpt lat="45.93437" lon="4.76889">
        <ele>171</ele>
        <time>2016-11-15T09:37:49Z</time>
      </trkpt>
      <trkpt lat="45.93439" lon="4.76896">
        <ele>170</ele>
        <time>2016-11-15T09:37:50Z</time>
      </trkpt>
      <trkpt lat="45.93441" lon="4.76903">
        <ele>170</ele>
        <time>2016-11-15T09:37:51Z</time>
      </trkpt>
      <trkpt lat="45.93443" lon="4.7691">
        <ele>170</ele>
        <time>2016-11-15T09:37:52Z</time>
      </trkpt>
      <trkpt lat="45.93445" lon="4.76918">
        <ele>170</ele>
        <time>2016-11-15T09:37:53Z</time>
      </trkpt>
      <trkpt lat="45.93446" lon="4.76926">
        <ele>170</ele>
        <time>2016-11-15T09:37:54Z</time>
      </trkpt>
      <trkpt lat="45.93447" lon="4.76933">
        <ele>170</ele>
        <time>2016-11-15T09:37:55Z</time>
      </trkpt>
      <trkpt lat="45.93449" lon="4.76941">
        <ele>170</ele>
        <time>2016-11-15T09:37:56Z</time>
      </trkpt>
      <trkpt lat="45.93449" lon="4.7695">
        <ele>170</ele>
        <time>2016-11-15T09:37:57Z</time>
      </trkpt>
      <trkpt lat="45.9345" lon="4.76958">
        <ele>170</ele>
        <time>2016-11-15T09:37:58Z</time>
      </trkpt>
      <trkpt lat="45.93451" lon="4.76966">
        <ele>170</ele>
        <time>2016-11-15T09:37:59Z</time>
      </trkpt>
      <trkpt lat="45.93452" lon="4.76974">
        <ele>170</ele>
        <time>2016-11-15T09:38:00Z</time>
      </trkpt>
      <trkpt lat="45.93453" lon="4.76981">
        <ele>170</ele>
        <time>2016-11-15T09:38:01Z</time>
      </trkpt>
      <trkpt lat="45.93455" lon="4.76988">
        <ele>170</ele>
        <time>2016-11-15T09:38:02Z</time>
      </trkpt>
      <trkpt lat="45.93456" lon="4.76996">
        <ele>170</ele>
        <time>2016-11-15T09:38:03Z</time>
      </trkpt>
      <trkpt lat="45.93458" lon="4.77003">
        <ele>170</ele>
        <time>2016-11-15T09:38:04Z</time>
      </trkpt>
      <trkpt lat="45.93459" lon="4.77011">
        <ele>170</ele>
        <time>2016-11-15T09:38:05Z</time>
      </trkpt>
      <trkpt lat="45.93459" lon="4.7702">
        <ele>170</ele>
        <time>2016-11-15T09:38:06Z</time>
      </trkpt>
      <trkpt lat="45.9346" lon="4.77028">
        <ele>170</ele>
        <time>2016-11-15T09:38:07Z</time>
      </trkpt>
      <trkpt lat="45.93462" lon="4.77036">
        <ele>170</ele>
        <time>2016-11-15T09:38:08Z</time>
      </trkpt>
      <trkpt lat="45.93463" lon="4.77043">
        <ele>170</ele>
        <time>2016-11-15T09:38:09Z</time>
      </trkpt>
      <trkpt lat="45.93464" lon="4.77051">
        <ele>170</ele>
        <time>2016-11-15T09:38:10Z</time>
      </trkpt>
      <trkpt lat="45.93466" lon="4.77059">
        <ele>170</ele>
        <time>2016-11-15T09:38:11Z</time>
      </trkpt>
      <trkpt lat="45.93468" lon="4.77066">
        <ele>170</ele>
        <time>2016-11-15T09:38:12Z</time>
      </trkpt>
      <trkpt lat="45.93469" lon="4.77073">
        <ele>170</ele>
        <time>2016-11-15T09:38:13Z</time>
      </trkpt>
      <trkpt lat="45.9347" lon="4.77081">
        <ele>170</ele>
        <time>2016-11-15T09:38:14Z</time>
      </trkpt>
      <trkpt lat="45.93472" lon="4.77088">
        <ele>169</ele>
        <time>2016-11-15T09:38:15Z</time>
      </trkpt>
      <trkpt lat="45.93474" lon="4.77096">
        <ele>169</ele>
        <time>2016-11-15T09:38:16Z</time>
      </trkpt>
      <trkpt lat="45.93475" lon="4.77103">
        <ele>169</ele>
        <time>2016-11-15T09:38:17Z</time>
      </trkpt>
      <trkpt lat="45.93477" lon="4.7711">
        <ele>169</ele>
        <time>2016-11-15T09:38:18Z</time>
      </trkpt>
      <trkpt lat="45.93478" lon="4.77117">
        <ele>169</ele>
        <time>2016-11-15T09:38:19Z</time>
      </trkpt>
      <trkpt lat="45.93479" lon="4.77125">
        <ele>169</ele>
        <time>2016-11-15T09:38:20Z</time>
      </trkpt>
      <trkpt lat="45.93481" lon="4.77132">
        <ele>169</ele>
        <time>2016-11-15T09:38:21Z</time>
      </trkpt>
      <trkpt lat="45.93482" lon="4.77139">
        <ele>169</ele>
        <time>2016-11-15T09:38:22Z</time>
      </trkpt>
      <trkpt lat="45.93484" lon="4.77147">
        <ele>169</ele>
        <time>2016-11-15T09:38:23Z</time>
      </trkpt>
      <trkpt lat="45.93485" lon="4.77154">
        <ele>169</ele>
        <time>2016-11-15T09:38:24Z</time>
      </trkpt>
      <trkpt lat="45.93487" lon="4.77162">
        <ele>169</ele>
        <time>2016-11-15T09:38:25Z</time>
      </trkpt>
      <trkpt lat="45.93488" lon="4.77169">
        <ele>169</ele>
        <time>2016-11-15T09:38:26Z</time>
      </trkpt>
      <trkpt lat="45.93489" lon="4.77176">
        <ele>169</ele>
        <time>2016-11-15T09:38:27Z</time>
      </trkpt>
      <trkpt lat="45.93491" lon="4.77183">
        <ele>169</ele>
        <time>2016-11-15T09:38:28Z</time>
      </trkpt>
      <trkpt lat="45.93492" lon="4.7719">
        <ele>169</ele>
        <time>2016-11-15T09:38:29Z</time>
      </trkpt>
      <trkpt lat="45.93494" lon="4.77198">
        <ele>169</ele>
        <time>2016-11-15T09:38:30Z</time>
      </trkpt>
      <trkpt lat="45.93495" lon="4.77205">
        <ele>169</ele>
        <time>2016-11-15T09:38:31Z</time>
      </trkpt>
      <trkpt lat="45.93497" lon="4.77212">
        <ele>169</ele>
        <time>2016-11-15T09:38:32Z</time>
      </trkpt>
      <trkpt lat="45.93499" lon="4.77219">
        <ele>169</ele>
        <time>2016-11-15T09:38:33Z</time>
      </trkpt>
      <trkpt lat="45.93501" lon="4.77226">
        <ele>169</ele>
        <time>2016-11-15T09:38:34Z</time>
      </trkpt>
      <trkpt lat="45.93502" lon="4.77234">
        <ele>169</ele>
        <time>2016-11-15T09:38:35Z</time>
      </trkpt>
      <trkpt lat="45.93504" lon="4.77241">
        <ele>170</ele>
        <time>2016-11-15T09:38:36Z</time>
      </trkpt>
      <trkpt lat="45.93506" lon="4.77248">
        <ele>170</ele>
        <time>2016-11-15T09:38:37Z</time>
      </trkpt>
      <trkpt lat="45.93507" lon="4.77255">
        <ele>170</ele>
        <time>2016-11-15T09:38:38Z</time>
      </trkpt>
      <trkpt lat="45.93509" lon="4.77262">
        <ele>170</ele>
        <time>2016-11-15T09:38:39Z</time>
      </trkpt>
      <trkpt lat="45.9351" lon="4.77269">
        <ele>170</ele>
        <time>2016-11-15T09:38:40Z</time>
      </trkpt>
      <trkpt lat="45.93512" lon="4.77276">
        <ele>170</ele>
        <time>2016-11-15T09:38:41Z</time>
      </trkpt>
      <trkpt lat="45.93514" lon="4.77283">
        <ele>170</ele>
        <time>2016-11-15T09:38:42Z</time>
      </trkpt>
      <trkpt lat="45.93515" lon="4.7729">
        <ele>170</ele>
        <time>2016-11-15T09:38:43Z</time>
      </trkpt>
      <trkpt lat="45.93516" lon="4.77298">
        <ele>170</ele>
        <time>2016-11-15T09:38:44Z</time>
      </trkpt>
      <trkpt lat="45.93518" lon="4.77305">
        <ele>170</ele>
        <time>2016-11-15T09:38:45Z</time>
      </trkpt>
      <trkpt lat="45.9352" lon="4.77313">
        <ele>170</ele>
        <time>2016-11-15T09:38:46Z</time>
      </trkpt>
      <trkpt lat="45.93521" lon="4.77321">
        <ele>170</ele>
        <time>2016-11-15T09:38:47Z</time>
      </trkpt>
      <trkpt lat="45.93523" lon="4.77329">
        <ele>170</ele>
        <time>2016-11-15T09:38:48Z</time>
      </trkpt>
      <trkpt lat="45.93525" lon="4.77337">
        <ele>170</ele>
        <time>2016-11-15T09:38:49Z</time>
      </trkpt>
      <trkpt lat="45.93527" lon="4.77344">
        <ele>170</ele>
        <time>2016-11-15T09:38:50Z</time>
      </trkpt>
      <trkpt lat="45.93528" lon="4.77351">
        <ele>170</ele>
        <time>2016-11-15T09:38:51Z</time>
      </trkpt>
      <trkpt lat="45.93529" lon="4.77358">
        <ele>170</ele>
        <time>2016-11-15T09:38:52Z</time>
      </trkpt>
      <trkpt lat="45.93531" lon="4.77364">
        <ele>170</ele>
        <time>2016-11-15T09:38:53Z</time>
      </trkpt>
      <trkpt lat="45.93532" lon="4.77371">
        <ele>170</ele>
        <time>2016-11-15T09:38:54Z</time>
      </trkpt>
      <trkpt lat="45.93534" lon="4.77378">
        <ele>170</ele>
        <time>2016-11-15T09:38:55Z</time>
      </trkpt>
      <trkpt lat="45.93536" lon="4.77385">
        <ele>170</ele>
        <time>2016-11-15T09:38:56Z</time>
      </trkpt>
      <trkpt lat="45.93537" lon="4.77392">
        <ele>170</ele>
        <time>2016-11-15T09:38:57Z</time>
      </trkpt>
      <trkpt lat="45.93539" lon="4.77399">
        <ele>170</ele>
        <time>2016-11-15T09:38:58Z</time>
      </trkpt>
      <trkpt lat="45.93541" lon="4.77406">
        <ele>170</ele>
        <time>2016-11-15T09:38:59Z</time>
      </trkpt>
      <trkpt lat="45.93542" lon="4.77413">
        <ele>170</ele>
        <time>2016-11-15T09:39:00Z</time>
      </trkpt>
      <trkpt lat="45.93544" lon="4.7742">
        <ele>170</ele>
        <time>2016-11-15T09:39:01Z</time>
      </trkpt>
      <trkpt lat="45.93546" lon="4.77427">
        <ele>170</ele>
        <time>2016-11-15T09:39:02Z</time>
      </trkpt>
      <trkpt lat="45.93547" lon="4.77434">
        <ele>169</ele>
        <time>2016-11-15T09:39:03Z</time>
      </trkpt>
      <trkpt lat="45.93548" lon="4.77441">
        <ele>169</ele>
        <time>2016-11-15T09:39:04Z</time>
      </trkpt>
      <trkpt lat="45.9355" lon="4.77448">
        <ele>169</ele>
        <time>2016-11-15T09:39:05Z</time>
      </trkpt>
      <trkpt lat="45.93552" lon="4.77456">
        <ele>169</ele>
        <time>2016-11-15T09:39:06Z</time>
      </trkpt>
      <trkpt lat="45.93553" lon="4.77463">
        <ele>169</ele>
        <time>2016-11-15T09:39:07Z</time>
      </trkpt>
      <trkpt lat="45.93555" lon="4.7747">
        <ele>169</ele>
        <time>2016-11-15T09:39:08Z</time>
      </trkpt>
      <trkpt lat="45.93556" lon="4.77477">
        <ele>169</ele>
        <time>2016-11-15T09:39:09Z</time>
      </trkpt>
      <trkpt lat="45.93558" lon="4.77485">
        <ele>169</ele>
        <time>2016-11-15T09:39:10Z</time>
      </trkpt>
      <trkpt lat="45.9356" lon="4.77492">
        <ele>169</ele>
        <time>2016-11-15T09:39:11Z</time>
      </trkpt>
      <trkpt lat="45.93562" lon="4.775">
        <ele>169</ele>
        <time>2016-11-15T09:39:12Z</time>
      </trkpt>
      <trkpt lat="45.93563" lon="4.77507">
        <ele>169</ele>
        <time>2016-11-15T09:39:13Z</time>
      </trkpt>
      <trkpt lat="45.93564" lon="4.77515">
        <ele>169</ele>
        <time>2016-11-15T09:39:14Z</time>
      </trkpt>
      <trkpt lat="45.93566" lon="4.77522">
        <ele>169</ele>
        <time>2016-11-15T09:39:15Z</time>
      </trkpt>
      <trkpt lat="45.93568" lon="4.7753">
        <ele>169</ele>
        <time>2016-11-15T09:39:16Z</time>
      </trkpt>
      <trkpt lat="45.9357" lon="4.77538">
        <ele>169</ele>
        <time>2016-11-15T09:39:17Z</time>
      </trkpt>
      <trkpt lat="45.93572" lon="4.77545">
        <ele>169</ele>
        <time>2016-11-15T09:39:18Z</time>
      </trkpt>
      <trkpt lat="45.93574" lon="4.77552">
        <ele>169</ele>
        <time>2016-11-15T09:39:19Z</time>
      </trkpt>
      <trkpt lat="45.93575" lon="4.77559">
        <ele>169</ele>
        <time>2016-11-15T09:39:20Z</time>
      </trkpt>
      <trkpt lat="45.93577" lon="4.77566">
        <ele>169</ele>
        <time>2016-11-15T09:39:21Z</time>
      </trkpt>
      <trkpt lat="45.93579" lon="4.77573">
        <ele>170</ele>
        <time>2016-11-15T09:39:22Z</time>
      </trkpt>
      <trkpt lat="45.93581" lon="4.77579">
        <ele>170</ele>
        <time>2016-11-15T09:39:23Z</time>
      </trkpt>
      <trkpt lat="45.93583" lon="4.77586">
        <ele>170</ele>
        <time>2016-11-15T09:39:24Z</time>
      </trkpt>
      <trkpt lat="45.93586" lon="4.77593">
        <ele>170</ele>
        <time>2016-11-15T09:39:25Z</time>
      </trkpt>
      <trkpt lat="45.93588" lon="4.776">
        <ele>170</ele>
        <time>2016-11-15T09:39:26Z</time>
      </trkpt>
      <trkpt lat="45.9359" lon="4.77606">
        <ele>170</ele>
        <time>2016-11-15T09:39:27Z</time>
      </trkpt>
      <trkpt lat="45.93593" lon="4.77613">
        <ele>170</ele>
        <time>2016-11-15T09:39:28Z</time>
      </trkpt>
      <trkpt lat="45.93596" lon="4.7762">
        <ele>170</ele>
        <time>2016-11-15T09:39:29Z</time>
      </trkpt>
      <trkpt lat="45.93598" lon="4.77627">
        <ele>169</ele>
        <time>2016-11-15T09:39:30Z</time>
      </trkpt>
      <trkpt lat="45.93601" lon="4.77634">
        <ele>169</ele>
        <time>2016-11-15T09:39:31Z</time>
      </trkpt>
      <trkpt lat="45.93604" lon="4.77641">
        <ele>169</ele>
        <time>2016-11-15T09:39:32Z</time>
      </trkpt>
      <trkpt lat="45.93606" lon="4.77647">
        <ele>169</ele>
        <time>2016-11-15T09:39:33Z</time>
      </trkpt>
      <trkpt lat="45.93609" lon="4.77654">
        <ele>169</ele>
        <time>2016-11-15T09:39:34Z</time>
      </trkpt>
      <trkpt lat="45.93612" lon="4.77661">
        <ele>169</ele>
        <time>2016-11-15T09:39:35Z</time>
      </trkpt>
      <trkpt lat="45.93615" lon="4.77667">
        <ele>169</ele>
        <time>2016-11-15T09:39:36Z</time>
      </trkpt>
      <trkpt lat="45.93618" lon="4.77673">
        <ele>169</ele>
        <time>2016-11-15T09:39:37Z</time>
      </trkpt>
      <trkpt lat="45.93621" lon="4.77679">
        <ele>169</ele>
        <time>2016-11-15T09:39:38Z</time>
      </trkpt>
      <trkpt lat="45.93624" lon="4.77685">
        <ele>169</ele>
        <time>2016-11-15T09:39:39Z</time>
      </trkpt>
      <trkpt lat="45.93627" lon="4.77691">
        <ele>169</ele>
        <time>2016-11-15T09:39:40Z</time>
      </trkpt>
      <trkpt lat="45.9363" lon="4.77697">
        <ele>169</ele>
        <time>2016-11-15T09:39:41Z</time>
      </trkpt>
      <trkpt lat="45.93633" lon="4.77703">
        <ele>170</ele>
        <time>2016-11-15T09:39:42Z</time>
      </trkpt>
      <trkpt lat="45.93636" lon="4.77708">
        <ele>170</ele>
        <time>2016-11-15T09:39:43Z</time>
      </trkpt>
      <trkpt lat="45.93639" lon="4.77714">
        <ele>170</ele>
        <time>2016-11-15T09:39:44Z</time>
      </trkpt>
      <trkpt lat="45.93642" lon="4.7772">
        <ele>170</ele>
        <time>2016-11-15T09:39:45Z</time>
      </trkpt>
      <trkpt lat="45.93644" lon="4.77725">
        <ele>170</ele>
        <time>2016-11-15T09:39:46Z</time>
      </trkpt>
      <trkpt lat="45.93648" lon="4.7773">
        <ele>170</ele>
        <time>2016-11-15T09:39:47Z</time>
      </trkpt>
      <trkpt lat="45.93651" lon="4.77735">
        <ele>170</ele>
        <time>2016-11-15T09:39:48Z</time>
      </trkpt>
      <trkpt lat="45.93654" lon="4.7774">
        <ele>170</ele>
        <time>2016-11-15T09:39:49Z</time>
      </trkpt>
      <trkpt lat="45.93657" lon="4.77745">
        <ele>170</ele>
        <time>2016-11-15T09:39:50Z</time>
      </trkpt>
      <trkpt lat="45.93663" lon="4.77754">
        <ele>171</ele>
        <time>2016-11-15T09:39:52Z</time>
      </trkpt>
      <trkpt lat="45.93666" lon="4.77759">
        <ele>171</ele>
        <time>2016-11-15T09:39:53Z</time>
      </trkpt>
      <trkpt lat="45.93672" lon="4.77767">
        <ele>170</ele>
        <time>2016-11-15T09:39:55Z</time>
      </trkpt>
      <trkpt lat="45.93674" lon="4.77772">
        <ele>170</ele>
        <time>2016-11-15T09:39:56Z</time>
      </trkpt>
      <trkpt lat="45.93678" lon="4.77776">
        <ele>170</ele>
        <time>2016-11-15T09:39:57Z</time>
      </trkpt>
      <trkpt lat="45.93681" lon="4.7778">
        <ele>170</ele>
        <time>2016-11-15T09:39:58Z</time>
      </trkpt>
      <trkpt lat="45.93688" lon="4.77789">
        <ele>170</ele>
        <time>2016-11-15T09:40:00Z</time>
      </trkpt>
      <trkpt lat="45.93691" lon="4.77794">
        <ele>169</ele>
        <time>2016-11-15T09:40:01Z</time>
      </trkpt>
      <trkpt lat="45.93697" lon="4.77803">
        <ele>169</ele>
        <time>2016-11-15T09:40:03Z</time>
      </trkpt>
      <trkpt lat="45.937" lon="4.77807">
        <ele>169</ele>
        <time>2016-11-15T09:40:04Z</time>
      </trkpt>
      <trkpt lat="45.93706" lon="4.77815">
        <ele>169</ele>
        <time>2016-11-15T09:40:06Z</time>
      </trkpt>
      <trkpt lat="45.93709" lon="4.77819">
        <ele>169</ele>
        <time>2016-11-15T09:40:07Z</time>
      </trkpt>
      <trkpt lat="45.93715" lon="4.77827">
        <ele>169</ele>
        <time>2016-11-15T09:40:09Z</time>
      </trkpt>
      <trkpt lat="45.93718" lon="4.77831">
        <ele>168</ele>
        <time>2016-11-15T09:40:10Z</time>
      </trkpt>
      <trkpt lat="45.93723" lon="4.77839">
        <ele>167</ele>
        <time>2016-11-15T09:40:12Z</time>
      </trkpt>
      <trkpt lat="45.93726" lon="4.77843">
        <ele>167</ele>
        <time>2016-11-15T09:40:13Z</time>
      </trkpt>
      <trkpt lat="45.93732" lon="4.77853">
        <ele>167</ele>
        <time>2016-11-15T09:40:15Z</time>
      </trkpt>
      <trkpt lat="45.93736" lon="4.77857">
        <ele>167</ele>
        <time>2016-11-15T09:40:16Z</time>
      </trkpt>
      <trkpt lat="45.93742" lon="4.77865">
        <ele>167</ele>
        <time>2016-11-15T09:40:18Z</time>
      </trkpt>
      <trkpt lat="45.93746" lon="4.7787">
        <ele>167</ele>
        <time>2016-11-15T09:40:19Z</time>
      </trkpt>
      <trkpt lat="45.93752" lon="4.77879">
        <ele>166</ele>
        <time>2016-11-15T09:40:21Z</time>
      </trkpt>
      <trkpt lat="45.93755" lon="4.77883">
        <ele>166</ele>
        <time>2016-11-15T09:40:22Z</time>
      </trkpt>
      <trkpt lat="45.93762" lon="4.77891">
        <ele>166</ele>
        <time>2016-11-15T09:40:24Z</time>
      </trkpt>
      <trkpt lat="45.93765" lon="4.77895">
        <ele>166</ele>
        <time>2016-11-15T09:40:25Z</time>
      </trkpt>
      <trkpt lat="45.93768" lon="4.77899">
        <ele>166</ele>
        <time>2016-11-15T09:40:26Z</time>
      </trkpt>
      <trkpt lat="45.93772" lon="4.77904">
        <ele>166</ele>
        <time>2016-11-15T09:40:27Z</time>
      </trkpt>
      <trkpt lat="45.93775" lon="4.77908">
        <ele>166</ele>
        <time>2016-11-15T09:40:28Z</time>
      </trkpt>
      <trkpt lat="45.93779" lon="4.77912">
        <ele>166</ele>
        <time>2016-11-15T09:40:29Z</time>
      </trkpt>
      <trkpt lat="45.93783" lon="4.77916">
        <ele>166</ele>
        <time>2016-11-15T09:40:30Z</time>
      </trkpt>
      <trkpt lat="45.93786" lon="4.7792">
        <ele>168</ele>
        <time>2016-11-15T09:40:31Z</time>
      </trkpt>
      <trkpt lat="45.93789" lon="4.77925">
        <ele>168</ele>
        <time>2016-11-15T09:40:32Z</time>
      </trkpt>
      <trkpt lat="45.93793" lon="4.7793">
        <ele>168</ele>
        <time>2016-11-15T09:40:33Z</time>
      </trkpt>
      <trkpt lat="45.93796" lon="4.77935">
        <ele>168</ele>
        <time>2016-11-15T09:40:34Z</time>
      </trkpt>
      <trkpt lat="45.93799" lon="4.77939">
        <ele>169</ele>
        <time>2016-11-15T09:40:35Z</time>
      </trkpt>
      <trkpt lat="45.93802" lon="4.77944">
        <ele>169</ele>
        <time>2016-11-15T09:40:36Z</time>
      </trkpt>
      <trkpt lat="45.93806" lon="4.77949">
        <ele>169</ele>
        <time>2016-11-15T09:40:37Z</time>
      </trkpt>
      <trkpt lat="45.9381" lon="4.77954">
        <ele>170</ele>
        <time>2016-11-15T09:40:38Z</time>
      </trkpt>
      <trkpt lat="45.93814" lon="4.77958">
        <ele>170</ele>
        <time>2016-11-15T09:40:39Z</time>
      </trkpt>
      <trkpt lat="45.93818" lon="4.77963">
        <ele>171</ele>
        <time>2016-11-15T09:40:40Z</time>
      </trkpt>
      <trkpt lat="45.93823" lon="4.77968">
        <ele>171</ele>
        <time>2016-11-15T09:40:41Z</time>
      </trkpt>
      <trkpt lat="45.93827" lon="4.77973">
        <ele>172</ele>
        <time>2016-11-15T09:40:42Z</time>
      </trkpt>
      <trkpt lat="45.93831" lon="4.77978">
        <ele>173</ele>
        <time>2016-11-15T09:40:43Z</time>
      </trkpt>
      <trkpt lat="45.93835" lon="4.77983">
        <ele>178</ele>
        <time>2016-11-15T09:40:44Z</time>
      </trkpt>
      <trkpt lat="45.93839" lon="4.77988">
        <ele>179</ele>
        <time>2016-11-15T09:40:45Z</time>
      </trkpt>
      <trkpt lat="45.93843" lon="4.77999">
        <ele>179</ele>
        <time>2016-11-15T09:40:48Z</time>
      </trkpt>
      <trkpt lat="45.93843" lon="4.78003">
        <ele>181</ele>
        <time>2016-11-15T09:40:49Z</time>
      </trkpt>
      <trkpt lat="45.93843" lon="4.78012">
        <ele>181</ele>
        <time>2016-11-15T09:40:51Z</time>
      </trkpt>
      <trkpt lat="45.93843" lon="4.78016">
        <ele>181</ele>
        <time>2016-11-15T09:40:52Z</time>
      </trkpt>
      <trkpt lat="45.93844" lon="4.78028">
        <ele>182</ele>
        <time>2016-11-15T09:40:55Z</time>
      </trkpt>
      <trkpt lat="45.93844" lon="4.7803">
        <ele>182</ele>
        <time>2016-11-15T09:40:56Z</time>
      </trkpt>
      <trkpt lat="45.93852" lon="4.78038">
        <ele>183</ele>
        <time>2016-11-15T09:41:01Z</time>
      </trkpt>
      <trkpt lat="45.93855" lon="4.78038">
        <ele>183</ele>
        <time>2016-11-15T09:41:02Z</time>
      </trkpt>
      <trkpt lat="45.93861" lon="4.78036">
        <ele>183</ele>
        <time>2016-11-15T09:41:04Z</time>
      </trkpt>
      <trkpt lat="45.93864" lon="4.78034">
        <ele>183</ele>
        <time>2016-11-15T09:41:05Z</time>
      </trkpt>
      <trkpt lat="45.93872" lon="4.7803">
        <ele>183</ele>
        <time>2016-11-15T09:41:07Z</time>
      </trkpt>
      <trkpt lat="45.93875" lon="4.78029">
        <ele>184</ele>
        <time>2016-11-15T09:41:08Z</time>
      </trkpt>
      <trkpt lat="45.93882" lon="4.78024">
        <ele>184</ele>
        <time>2016-11-15T09:41:10Z</time>
      </trkpt>
      <trkpt lat="45.93884" lon="4.78022">
        <ele>184</ele>
        <time>2016-11-15T09:41:11Z</time>
      </trkpt>
      <trkpt lat="45.93891" lon="4.78014">
        <ele>184</ele>
        <time>2016-11-15T09:41:14Z</time>
      </trkpt>
      <trkpt lat="45.93893" lon="4.78012">
        <ele>184</ele>
        <time>2016-11-15T09:41:15Z</time>
      </trkpt>
      <trkpt lat="45.939" lon="4.78005">
        <ele>185</ele>
        <time>2016-11-15T09:41:18Z</time>
      </trkpt>
      <trkpt lat="45.93903" lon="4.78003">
        <ele>185</ele>
        <time>2016-11-15T09:41:19Z</time>
      </trkpt>
      <trkpt lat="45.93909" lon="4.77993">
        <ele>184</ele>
        <time>2016-11-15T09:41:22Z</time>
      </trkpt>
      <trkpt lat="45.93911" lon="4.77991">
        <ele>184</ele>
        <time>2016-11-15T09:41:23Z</time>
      </trkpt>
      <trkpt lat="45.93915" lon="4.77986">
        <ele>183</ele>
        <time>2016-11-15T09:41:25Z</time>
      </trkpt>
      <trkpt lat="45.93918" lon="4.77983">
        <ele>188</ele>
        <time>2016-11-15T09:41:26Z</time>
      </trkpt>
      <trkpt lat="45.93925" lon="4.77976">
        <ele>188</ele>
        <time>2016-11-15T09:41:29Z</time>
      </trkpt>
      <trkpt lat="45.93927" lon="4.77975">
        <ele>188</ele>
        <time>2016-11-15T09:41:30Z</time>
      </trkpt>
      <trkpt lat="45.93934" lon="4.77971">
        <ele>189</ele>
        <time>2016-11-15T09:41:33Z</time>
      </trkpt>
      <trkpt lat="45.93936" lon="4.77969">
        <ele>189</ele>
        <time>2016-11-15T09:41:34Z</time>
      </trkpt>
      <trkpt lat="45.93942" lon="4.77963">
        <ele>189</ele>
        <time>2016-11-15T09:41:37Z</time>
      </trkpt>
      <trkpt lat="45.93944" lon="4.77961">
        <ele>189</ele>
        <time>2016-11-15T09:41:38Z</time>
      </trkpt>
      <trkpt lat="45.93951" lon="4.77957">
        <ele>190</ele>
        <time>2016-11-15T09:41:41Z</time>
      </trkpt>
      <trkpt lat="45.93953" lon="4.77955">
        <ele>190</ele>
        <time>2016-11-15T09:41:42Z</time>
      </trkpt>
      <trkpt lat="45.9396" lon="4.7795">
        <ele>190</ele>
        <time>2016-11-15T09:41:45Z</time>
      </trkpt>
      <trkpt lat="45.93962" lon="4.77949">
        <ele>190</ele>
        <time>2016-11-15T09:41:46Z</time>
      </trkpt>
      <trkpt lat="45.93969" lon="4.77945">
        <ele>190</ele>
        <time>2016-11-15T09:41:49Z</time>
      </trkpt>
      <trkpt lat="45.93971" lon="4.77943">
        <ele>191</ele>
        <time>2016-11-15T09:41:50Z</time>
      </trkpt>
      <trkpt lat="45.93977" lon="4.7794">
        <ele>191</ele>
        <time>2016-11-15T09:41:53Z</time>
      </trkpt>
      <trkpt lat="45.93979" lon="4.7794">
        <ele>191</ele>
        <time>2016-11-15T09:41:54Z</time>
      </trkpt>
      <trkpt lat="45.93987" lon="4.77935">
        <ele>192</ele>
        <time>2016-11-15T09:41:58Z</time>
      </trkpt>
      <trkpt lat="45.93989" lon="4.77934">
        <ele>192</ele>
        <time>2016-11-15T09:41:59Z</time>
      </trkpt>
      <trkpt lat="45.93997" lon="4.77931">
        <ele>192</ele>
        <time>2016-11-15T09:42:02Z</time>
      </trkpt>
      <trkpt lat="45.93999" lon="4.7793">
        <ele>193</ele>
        <time>2016-11-15T09:42:03Z</time>
      </trkpt>
      <trkpt lat="45.94007" lon="4.77932">
        <ele>198</ele>
        <time>2016-11-15T09:42:07Z</time>
      </trkpt>
      <trkpt lat="45.94008" lon="4.77934">
        <ele>198</ele>
        <time>2016-11-15T09:42:08Z</time>
      </trkpt>
      <trkpt lat="45.94011" lon="4.7794">
        <ele>199</ele>
        <time>2016-11-15T09:42:11Z</time>
      </trkpt>
      <trkpt lat="45.94015" lon="4.77942">
        <ele>199</ele>
        <time>2016-11-15T09:42:12Z</time>
      </trkpt>
      <trkpt lat="45.94017" lon="4.77952">
        <ele>200</ele>
        <time>2016-11-15T09:42:15Z</time>
      </trkpt>
      <trkpt lat="45.94017" lon="4.77956">
        <ele>200</ele>
        <time>2016-11-15T09:42:16Z</time>
      </trkpt>
      <trkpt lat="45.94017" lon="4.77966">
        <ele>200</ele>
        <time>2016-11-15T09:42:19Z</time>
      </trkpt>
      <trkpt lat="45.94017" lon="4.7797">
        <ele>200</ele>
        <time>2016-11-15T09:42:20Z</time>
      </trkpt>
      <trkpt lat="45.94015" lon="4.7798">
        <ele>199</ele>
        <time>2016-11-15T09:42:23Z</time>
      </trkpt>
      <trkpt lat="45.94015" lon="4.77984">
        <ele>199</ele>
        <time>2016-11-15T09:42:24Z</time>
      </trkpt>
      <trkpt lat="45.94014" lon="4.77996">
        <ele>199</ele>
        <time>2016-11-15T09:42:27Z</time>
      </trkpt>
      <trkpt lat="45.94014" lon="4.78">
        <ele>198</ele>
        <time>2016-11-15T09:42:28Z</time>
      </trkpt>
      <trkpt lat="45.94011" lon="4.78011">
        <ele>199</ele>
        <time>2016-11-15T09:42:31Z</time>
      </trkpt>
      <trkpt lat="45.9401" lon="4.78015">
        <ele>200</ele>
        <time>2016-11-15T09:42:32Z</time>
      </trkpt>
      <trkpt lat="45.94008" lon="4.78026">
        <ele>200</ele>
        <time>2016-11-15T09:42:35Z</time>
      </trkpt>
      <trkpt lat="45.94007" lon="4.7803">
        <ele>201</ele>
        <time>2016-11-15T09:42:36Z</time>
      </trkpt>
      <trkpt lat="45.94005" lon="4.78039">
        <ele>201</ele>
        <time>2016-11-15T09:42:38Z</time>
      </trkpt>
      <trkpt lat="45.94004" lon="4.78043">
        <ele>201</ele>
        <time>2016-11-15T09:42:39Z</time>
      </trkpt>
      <trkpt lat="45.94002" lon="4.78052">
        <ele>201</ele>
        <time>2016-11-15T09:42:41Z</time>
      </trkpt>
      <trkpt lat="45.94" lon="4.78055">
        <ele>195</ele>
        <time>2016-11-15T09:42:42Z</time>
      </trkpt>
      <trkpt lat="45.93998" lon="4.78064">
        <ele>196</ele>
        <time>2016-11-15T09:42:44Z</time>
      </trkpt>
      <trkpt lat="45.93998" lon="4.78069">
        <ele>196</ele>
        <time>2016-11-15T09:42:45Z</time>
      </trkpt>
      <trkpt lat="45.93997" lon="4.78077">
        <ele>198</ele>
        <time>2016-11-15T09:42:47Z</time>
      </trkpt>
      <trkpt lat="45.93998" lon="4.78082">
        <ele>198</ele>
        <time>2016-11-15T09:42:48Z</time>
      </trkpt>
      <trkpt lat="45.93996" lon="4.78093">
        <ele>198</ele>
        <time>2016-11-15T09:42:50Z</time>
      </trkpt>
      <trkpt lat="45.93995" lon="4.78098">
        <ele>198</ele>
        <time>2016-11-15T09:42:51Z</time>
      </trkpt>
      <trkpt lat="45.93994" lon="4.78109">
        <ele>197</ele>
        <time>2016-11-15T09:42:53Z</time>
      </trkpt>
      <trkpt lat="45.93993" lon="4.78114">
        <ele>197</ele>
        <time>2016-11-15T09:42:54Z</time>
      </trkpt>
      <trkpt lat="45.93991" lon="4.78123">
        <ele>197</ele>
        <time>2016-11-15T09:42:56Z</time>
      </trkpt>
      <trkpt lat="45.9399" lon="4.78127">
        <ele>197</ele>
        <time>2016-11-15T09:42:57Z</time>
      </trkpt>
      <trkpt lat="45.93989" lon="4.78136">
        <ele>197</ele>
        <time>2016-11-15T09:42:59Z</time>
      </trkpt>
      <trkpt lat="45.93989" lon="4.7814">
        <ele>198</ele>
        <time>2016-11-15T09:43:00Z</time>
      </trkpt>
      <trkpt lat="45.93988" lon="4.78151">
        <ele>198</ele>
        <time>2016-11-15T09:43:02Z</time>
      </trkpt>
      <trkpt lat="45.93987" lon="4.78156">
        <ele>198</ele>
        <time>2016-11-15T09:43:03Z</time>
      </trkpt>
      <trkpt lat="45.93985" lon="4.78167">
        <ele>199</ele>
        <time>2016-11-15T09:43:05Z</time>
      </trkpt>
      <trkpt lat="45.93984" lon="4.78172">
        <ele>198</ele>
        <time>2016-11-15T09:43:06Z</time>
      </trkpt>
      <trkpt lat="45.93982" lon="4.78178">
        <ele>198</ele>
        <time>2016-11-15T09:43:07Z</time>
      </trkpt>
      <trkpt lat="45.93982" lon="4.78185">
        <ele>198</ele>
        <time>2016-11-15T09:43:08Z</time>
      </trkpt>
      <trkpt lat="45.93981" lon="4.78192">
        <ele>197</ele>
        <time>2016-11-15T09:43:09Z</time>
      </trkpt>
      <trkpt lat="45.93979" lon="4.78199">
        <ele>197</ele>
        <time>2016-11-15T09:43:10Z</time>
      </trkpt>
      <trkpt lat="45.93977" lon="4.78205">
        <ele>197</ele>
        <time>2016-11-15T09:43:11Z</time>
      </trkpt>
      <trkpt lat="45.93976" lon="4.78213">
        <ele>197</ele>
        <time>2016-11-15T09:43:12Z</time>
      </trkpt>
      <trkpt lat="45.93974" lon="4.78221">
        <ele>196</ele>
        <time>2016-11-15T09:43:13Z</time>
      </trkpt>
      <trkpt lat="45.93973" lon="4.78229">
        <ele>196</ele>
        <time>2016-11-15T09:43:14Z</time>
      </trkpt>
      <trkpt lat="45.93971" lon="4.78237">
        <ele>196</ele>
        <time>2016-11-15T09:43:15Z</time>
      </trkpt>
      <trkpt lat="45.93969" lon="4.78245">
        <ele>196</ele>
        <time>2016-11-15T09:43:16Z</time>
      </trkpt>
      <trkpt lat="45.93967" lon="4.78253">
        <ele>196</ele>
        <time>2016-11-15T09:43:17Z</time>
      </trkpt>
      <trkpt lat="45.93966" lon="4.78262">
        <ele>195</ele>
        <time>2016-11-15T09:43:18Z</time>
      </trkpt>
      <trkpt lat="45.93964" lon="4.7827">
        <ele>195</ele>
        <time>2016-11-15T09:43:19Z</time>
      </trkpt>
      <trkpt lat="45.93962" lon="4.78279">
        <ele>195</ele>
        <time>2016-11-15T09:43:20Z</time>
      </trkpt>
      <trkpt lat="45.93961" lon="4.78288">
        <ele>195</ele>
        <time>2016-11-15T09:43:21Z</time>
      </trkpt>
      <trkpt lat="45.9396" lon="4.78297">
        <ele>195</ele>
        <time>2016-11-15T09:43:22Z</time>
      </trkpt>
      <trkpt lat="45.93959" lon="4.78306">
        <ele>195</ele>
        <time>2016-11-15T09:43:23Z</time>
      </trkpt>
      <trkpt lat="45.93959" lon="4.78315">
        <ele>195</ele>
        <time>2016-11-15T09:43:24Z</time>
      </trkpt>
      <trkpt lat="45.93958" lon="4.78323">
        <ele>195</ele>
        <time>2016-11-15T09:43:25Z</time>
      </trkpt>
      <trkpt lat="45.93956" lon="4.78331">
        <ele>195</ele>
        <time>2016-11-15T09:43:26Z</time>
      </trkpt>
      <trkpt lat="45.93955" lon="4.78339">
        <ele>196</ele>
        <time>2016-11-15T09:43:27Z</time>
      </trkpt>
      <trkpt lat="45.93954" lon="4.78347">
        <ele>196</ele>
        <time>2016-11-15T09:43:28Z</time>
      </trkpt>
      <trkpt lat="45.93953" lon="4.78355">
        <ele>196</ele>
        <time>2016-11-15T09:43:29Z</time>
      </trkpt>
      <trkpt lat="45.93952" lon="4.78362">
        <ele>196</ele>
        <time>2016-11-15T09:43:30Z</time>
      </trkpt>
      <trkpt lat="45.93951" lon="4.7837">
        <ele>196</ele>
        <time>2016-11-15T09:43:31Z</time>
      </trkpt>
      <trkpt lat="45.9395" lon="4.78376">
        <ele>196</ele>
        <time>2016-11-15T09:43:32Z</time>
      </trkpt>
      <trkpt lat="45.93949" lon="4.78382">
        <ele>196</ele>
        <time>2016-11-15T09:43:33Z</time>
      </trkpt>
      <trkpt lat="45.93948" lon="4.78389">
        <ele>196</ele>
        <time>2016-11-15T09:43:34Z</time>
      </trkpt>
      <trkpt lat="45.93946" lon="4.78401">
        <ele>196</ele>
        <time>2016-11-15T09:43:36Z</time>
      </trkpt>
      <trkpt lat="45.93946" lon="4.78408">
        <ele>196</ele>
        <time>2016-11-15T09:43:37Z</time>
      </trkpt>
      <trkpt lat="45.93945" lon="4.78415">
        <ele>196</ele>
        <time>2016-11-15T09:43:38Z</time>
      </trkpt>
      <trkpt lat="45.93944" lon="4.78422">
        <ele>196</ele>
        <time>2016-11-15T09:43:39Z</time>
      </trkpt>
      <trkpt lat="45.93941" lon="4.78429">
        <ele>196</ele>
        <time>2016-11-15T09:43:40Z</time>
      </trkpt>
      <trkpt lat="45.93938" lon="4.78437">
        <ele>196</ele>
        <time>2016-11-15T09:43:41Z</time>
      </trkpt>
      <trkpt lat="45.93936" lon="4.78447">
        <ele>197</ele>
        <time>2016-11-15T09:43:42Z</time>
      </trkpt>
      <trkpt lat="45.93934" lon="4.78456">
        <ele>197</ele>
        <time>2016-11-15T09:43:43Z</time>
      </trkpt>
      <trkpt lat="45.93933" lon="4.78465">
        <ele>197</ele>
        <time>2016-11-15T09:43:44Z</time>
      </trkpt>
      <trkpt lat="45.93929" lon="4.78472">
        <ele>197</ele>
        <time>2016-11-15T09:43:45Z</time>
      </trkpt>
      <trkpt lat="45.93927" lon="4.7848">
        <ele>197</ele>
        <time>2016-11-15T09:43:46Z</time>
      </trkpt>
      <trkpt lat="45.93929" lon="4.78487">
        <ele>196</ele>
        <time>2016-11-15T09:43:47Z</time>
      </trkpt>
      <trkpt lat="45.93929" lon="4.78494">
        <ele>196</ele>
        <time>2016-11-15T09:43:48Z</time>
      </trkpt>
      <trkpt lat="45.9393" lon="4.78503">
        <ele>196</ele>
        <time>2016-11-15T09:43:49Z</time>
      </trkpt>
      <trkpt lat="45.9393" lon="4.78511">
        <ele>197</ele>
        <time>2016-11-15T09:43:50Z</time>
      </trkpt>
      <trkpt lat="45.93929" lon="4.78519">
        <ele>197</ele>
        <time>2016-11-15T09:43:51Z</time>
      </trkpt>
      <trkpt lat="45.93929" lon="4.78527">
        <ele>197</ele>
        <time>2016-11-15T09:43:52Z</time>
      </trkpt>
      <trkpt lat="45.93929" lon="4.78535">
        <ele>197</ele>
        <time>2016-11-15T09:43:53Z</time>
      </trkpt>
      <trkpt lat="45.93929" lon="4.78542">
        <ele>197</ele>
        <time>2016-11-15T09:43:54Z</time>
      </trkpt>
      <trkpt lat="45.9393" lon="4.78548">
        <ele>197</ele>
        <time>2016-11-15T09:43:55Z</time>
      </trkpt>
      <trkpt lat="45.9393" lon="4.78555">
        <ele>197</ele>
        <time>2016-11-15T09:43:56Z</time>
      </trkpt>
      <trkpt lat="45.9393" lon="4.78561">
        <ele>196</ele>
        <time>2016-11-15T09:43:57Z</time>
      </trkpt>
      <trkpt lat="45.93931" lon="4.78568">
        <ele>196</ele>
        <time>2016-11-15T09:43:58Z</time>
      </trkpt>
      <trkpt lat="45.93932" lon="4.78576">
        <ele>196</ele>
        <time>2016-11-15T09:43:59Z</time>
      </trkpt>
      <trkpt lat="45.93933" lon="4.78584">
        <ele>195</ele>
        <time>2016-11-15T09:44:00Z</time>
      </trkpt>
      <trkpt lat="45.93933" lon="4.78592">
        <ele>195</ele>
        <time>2016-11-15T09:44:01Z</time>
      </trkpt>
      <trkpt lat="45.93934" lon="4.786">
        <ele>195</ele>
        <time>2016-11-15T09:44:02Z</time>
      </trkpt>
      <trkpt lat="45.93936" lon="4.78608">
        <ele>196</ele>
        <time>2016-11-15T09:44:03Z</time>
      </trkpt>
      <trkpt lat="45.93937" lon="4.78615">
        <ele>196</ele>
        <time>2016-11-15T09:44:04Z</time>
      </trkpt>
      <trkpt lat="45.93936" lon="4.78622">
        <ele>196</ele>
        <time>2016-11-15T09:44:05Z</time>
      </trkpt>
      <trkpt lat="45.93934" lon="4.78628">
        <ele>195</ele>
        <time>2016-11-15T09:44:06Z</time>
      </trkpt>
      <trkpt lat="45.93934" lon="4.78635">
        <ele>195</ele>
        <time>2016-11-15T09:44:07Z</time>
      </trkpt>
      <trkpt lat="45.93936" lon="4.78641">
        <ele>195</ele>
        <time>2016-11-15T09:44:08Z</time>
      </trkpt>
      <trkpt lat="45.93936" lon="4.78648">
        <ele>195</ele>
        <time>2016-11-15T09:44:09Z</time>
      </trkpt>
      <trkpt lat="45.93937" lon="4.78661">
        <ele>194</ele>
        <time>2016-11-15T09:44:11Z</time>
      </trkpt>
      <trkpt lat="45.93938" lon="4.78667">
        <ele>193</ele>
        <time>2016-11-15T09:44:12Z</time>
      </trkpt>
      <trkpt lat="45.93938" lon="4.78674">
        <ele>193</ele>
        <time>2016-11-15T09:44:13Z</time>
      </trkpt>
      <trkpt lat="45.93938" lon="4.78681">
        <ele>194</ele>
        <time>2016-11-15T09:44:14Z</time>
      </trkpt>
      <trkpt lat="45.93938" lon="4.78688">
        <ele>194</ele>
        <time>2016-11-15T09:44:15Z</time>
      </trkpt>
      <trkpt lat="45.93939" lon="4.78697">
        <ele>194</ele>
        <time>2016-11-15T09:44:16Z</time>
      </trkpt>
      <trkpt lat="45.9394" lon="4.78706">
        <ele>194</ele>
        <time>2016-11-15T09:44:17Z</time>
      </trkpt>
      <trkpt lat="45.9394" lon="4.78714">
        <ele>194</ele>
        <time>2016-11-15T09:44:18Z</time>
      </trkpt>
      <trkpt lat="45.9394" lon="4.78722">
        <ele>194</ele>
        <time>2016-11-15T09:44:19Z</time>
      </trkpt>
      <trkpt lat="45.93941" lon="4.7873">
        <ele>194</ele>
        <time>2016-11-15T09:44:20Z</time>
      </trkpt>
      <trkpt lat="45.93942" lon="4.78737">
        <ele>194</ele>
        <time>2016-11-15T09:44:21Z</time>
      </trkpt>
      <trkpt lat="45.93942" lon="4.78744">
        <ele>194</ele>
        <time>2016-11-15T09:44:22Z</time>
      </trkpt>
      <trkpt lat="45.93942" lon="4.78751">
        <ele>193</ele>
        <time>2016-11-15T09:44:23Z</time>
      </trkpt>
      <trkpt lat="45.93942" lon="4.78758">
        <ele>194</ele>
        <time>2016-11-15T09:44:24Z</time>
      </trkpt>
      <trkpt lat="45.93943" lon="4.78764">
        <ele>194</ele>
        <time>2016-11-15T09:44:25Z</time>
      </trkpt>
      <trkpt lat="45.93942" lon="4.78771">
        <ele>194</ele>
        <time>2016-11-15T09:44:26Z</time>
      </trkpt>
      <trkpt lat="45.93941" lon="4.78779">
        <ele>194</ele>
        <time>2016-11-15T09:44:27Z</time>
      </trkpt>
      <trkpt lat="45.93942" lon="4.78786">
        <ele>194</ele>
        <time>2016-11-15T09:44:28Z</time>
      </trkpt>
      <trkpt lat="45.93942" lon="4.78793">
        <ele>194</ele>
        <time>2016-11-15T09:44:29Z</time>
      </trkpt>
      <trkpt lat="45.93942" lon="4.78799">
        <ele>194</ele>
        <time>2016-11-15T09:44:30Z</time>
      </trkpt>
      <trkpt lat="45.93942" lon="4.78806">
        <ele>194</ele>
        <time>2016-11-15T09:44:31Z</time>
      </trkpt>
      <trkpt lat="45.93942" lon="4.78813">
        <ele>194</ele>
        <time>2016-11-15T09:44:32Z</time>
      </trkpt>
      <trkpt lat="45.93941" lon="4.78821">
        <ele>194</ele>
        <time>2016-11-15T09:44:33Z</time>
      </trkpt>
      <trkpt lat="45.93941" lon="4.78828">
        <ele>194</ele>
        <time>2016-11-15T09:44:34Z</time>
      </trkpt>
      <trkpt lat="45.93941" lon="4.78835">
        <ele>193</ele>
        <time>2016-11-15T09:44:35Z</time>
      </trkpt>
      <trkpt lat="45.93941" lon="4.78843">
        <ele>193</ele>
        <time>2016-11-15T09:44:36Z</time>
      </trkpt>
      <trkpt lat="45.93941" lon="4.78851">
        <ele>194</ele>
        <time>2016-11-15T09:44:37Z</time>
      </trkpt>
      <trkpt lat="45.93942" lon="4.78858">
        <ele>194</ele>
        <time>2016-11-15T09:44:38Z</time>
      </trkpt>
      <trkpt lat="45.93942" lon="4.78865">
        <ele>194</ele>
        <time>2016-11-15T09:44:39Z</time>
      </trkpt>
      <trkpt lat="45.93941" lon="4.78872">
        <ele>194</ele>
        <time>2016-11-15T09:44:40Z</time>
      </trkpt>
      <trkpt lat="45.9394" lon="4.78885">
        <ele>194</ele>
        <time>2016-11-15T09:44:42Z</time>
      </trkpt>
      <trkpt lat="45.93941" lon="4.78892">
        <ele>193</ele>
        <time>2016-11-15T09:44:43Z</time>
      </trkpt>
      <trkpt lat="45.9394" lon="4.78899">
        <ele>193</ele>
        <time>2016-11-15T09:44:44Z</time>
      </trkpt>
      <trkpt lat="45.9394" lon="4.78905">
        <ele>193</ele>
        <time>2016-11-15T09:44:45Z</time>
      </trkpt>
      <trkpt lat="45.9394" lon="4.78911">
        <ele>193</ele>
        <time>2016-11-15T09:44:46Z</time>
      </trkpt>
      <trkpt lat="45.93941" lon="4.78918">
        <ele>193</ele>
        <time>2016-11-15T09:44:47Z</time>
      </trkpt>
      <trkpt lat="45.93941" lon="4.78926">
        <ele>193</ele>
        <time>2016-11-15T09:44:48Z</time>
      </trkpt>
      <trkpt lat="45.93942" lon="4.78933">
        <ele>193</ele>
        <time>2016-11-15T09:44:49Z</time>
      </trkpt>
      <trkpt lat="45.93941" lon="4.78945">
        <ele>194</ele>
        <time>2016-11-15T09:44:51Z</time>
      </trkpt>
      <trkpt lat="45.9394" lon="4.78951">
        <ele>194</ele>
        <time>2016-11-15T09:44:52Z</time>
      </trkpt>
      <trkpt lat="45.9394" lon="4.78962">
        <ele>194</ele>
        <time>2016-11-15T09:44:54Z</time>
      </trkpt>
      <trkpt lat="45.93942" lon="4.78967">
        <ele>194</ele>
        <time>2016-11-15T09:44:55Z</time>
      </trkpt>
      <trkpt lat="45.93944" lon="4.78978">
        <ele>194</ele>
        <time>2016-11-15T09:44:57Z</time>
      </trkpt>
      <trkpt lat="45.93944" lon="4.78984">
        <ele>194</ele>
        <time>2016-11-15T09:44:58Z</time>
      </trkpt>
      <trkpt lat="45.93944" lon="4.78991">
        <ele>194</ele>
        <time>2016-11-15T09:44:59Z</time>
      </trkpt>
      <trkpt lat="45.93944" lon="4.78997">
        <ele>194</ele>
        <time>2016-11-15T09:45:00Z</time>
      </trkpt>
      <trkpt lat="45.93945" lon="4.79009">
        <ele>195</ele>
        <time>2016-11-15T09:45:02Z</time>
      </trkpt>
      <trkpt lat="45.93945" lon="4.79015">
        <ele>195</ele>
        <time>2016-11-15T09:45:03Z</time>
      </trkpt>
      <trkpt lat="45.93946" lon="4.79028">
        <ele>195</ele>
        <time>2016-11-15T09:45:05Z</time>
      </trkpt>
      <trkpt lat="45.93946" lon="4.79035">
        <ele>195</ele>
        <time>2016-11-15T09:45:06Z</time>
      </trkpt>
      <trkpt lat="45.93945" lon="4.79048">
        <ele>195</ele>
        <time>2016-11-15T09:45:08Z</time>
      </trkpt>
      <trkpt lat="45.93945" lon="4.79054">
        <ele>196</ele>
        <time>2016-11-15T09:45:09Z</time>
      </trkpt>
      <trkpt lat="45.93945" lon="4.7906">
        <ele>195</ele>
        <time>2016-11-15T09:45:10Z</time>
      </trkpt>
      <trkpt lat="45.93946" lon="4.79067">
        <ele>195</ele>
        <time>2016-11-15T09:45:11Z</time>
      </trkpt>
      <trkpt lat="45.93946" lon="4.79074">
        <ele>195</ele>
        <time>2016-11-15T09:45:12Z</time>
      </trkpt>
      <trkpt lat="45.93946" lon="4.7908">
        <ele>195</ele>
        <time>2016-11-15T09:45:13Z</time>
      </trkpt>
      <trkpt lat="45.93946" lon="4.79088">
        <ele>196</ele>
        <time>2016-11-15T09:45:14Z</time>
      </trkpt>
      <trkpt lat="45.93948" lon="4.79096">
        <ele>196</ele>
        <time>2016-11-15T09:45:15Z</time>
      </trkpt>
      <trkpt lat="45.93948" lon="4.79103">
        <ele>196</ele>
        <time>2016-11-15T09:45:16Z</time>
      </trkpt>
      <trkpt lat="45.93948" lon="4.79109">
        <ele>196</ele>
        <time>2016-11-15T09:45:17Z</time>
      </trkpt>
      <trkpt lat="45.93948" lon="4.79122">
        <ele>197</ele>
        <time>2016-11-15T09:45:19Z</time>
      </trkpt>
      <trkpt lat="45.93949" lon="4.79128">
        <ele>197</ele>
        <time>2016-11-15T09:45:20Z</time>
      </trkpt>
      <trkpt lat="45.93948" lon="4.79139">
        <ele>197</ele>
        <time>2016-11-15T09:45:22Z</time>
      </trkpt>
      <trkpt lat="45.93948" lon="4.79144">
        <ele>197</ele>
        <time>2016-11-15T09:45:23Z</time>
      </trkpt>
      <trkpt lat="45.93949" lon="4.79156">
        <ele>196</ele>
        <time>2016-11-15T09:45:25Z</time>
      </trkpt>
      <trkpt lat="45.93949" lon="4.79162">
        <ele>196</ele>
        <time>2016-11-15T09:45:26Z</time>
      </trkpt>
      <trkpt lat="45.93948" lon="4.79174">
        <ele>197</ele>
        <time>2016-11-15T09:45:28Z</time>
      </trkpt>
      <trkpt lat="45.93949" lon="4.7918">
        <ele>197</ele>
        <time>2016-11-15T09:45:29Z</time>
      </trkpt>
      <trkpt lat="45.93949" lon="4.79193">
        <ele>197</ele>
        <time>2016-11-15T09:45:31Z</time>
      </trkpt>
      <trkpt lat="45.93949" lon="4.79198">
        <ele>197</ele>
        <time>2016-11-15T09:45:32Z</time>
      </trkpt>
      <trkpt lat="45.93949" lon="4.7921">
        <ele>197</ele>
        <time>2016-11-15T09:45:34Z</time>
      </trkpt>
      <trkpt lat="45.9395" lon="4.79216">
        <ele>197</ele>
        <time>2016-11-15T09:45:35Z</time>
      </trkpt>
      <trkpt lat="45.93949" lon="4.79228">
        <ele>197</ele>
        <time>2016-11-15T09:45:37Z</time>
      </trkpt>
      <trkpt lat="45.93949" lon="4.79234">
        <ele>197</ele>
        <time>2016-11-15T09:45:38Z</time>
      </trkpt>
      <trkpt lat="45.93949" lon="4.79245">
        <ele>197</ele>
        <time>2016-11-15T09:45:40Z</time>
      </trkpt>
      <trkpt lat="45.93949" lon="4.79251">
        <ele>197</ele>
        <time>2016-11-15T09:45:41Z</time>
      </trkpt>
      <trkpt lat="45.93949" lon="4.79263">
        <ele>197</ele>
        <time>2016-11-15T09:45:43Z</time>
      </trkpt>
      <trkpt lat="45.93949" lon="4.79268">
        <ele>198</ele>
        <time>2016-11-15T09:45:44Z</time>
      </trkpt>
      <trkpt lat="45.9395" lon="4.79279">
        <ele>198</ele>
        <time>2016-11-15T09:45:46Z</time>
      </trkpt>
      <trkpt lat="45.93949" lon="4.79285">
        <ele>198</ele>
        <time>2016-11-15T09:45:47Z</time>
      </trkpt>
      <trkpt lat="45.93951" lon="4.79296">
        <ele>198</ele>
        <time>2016-11-15T09:45:49Z</time>
      </trkpt>
      <trkpt lat="45.93952" lon="4.79301">
        <ele>198</ele>
        <time>2016-11-15T09:45:50Z</time>
      </trkpt>
      <trkpt lat="45.93952" lon="4.79313">
        <ele>199</ele>
        <time>2016-11-15T09:45:52Z</time>
      </trkpt>
      <trkpt lat="45.93952" lon="4.79318">
        <ele>198</ele>
        <time>2016-11-15T09:45:53Z</time>
      </trkpt>
      <trkpt lat="45.93952" lon="4.79329">
        <ele>198</ele>
        <time>2016-11-15T09:45:55Z</time>
      </trkpt>
      <trkpt lat="45.93951" lon="4.79334">
        <ele>200</ele>
        <time>2016-11-15T09:45:56Z</time>
      </trkpt>
      <trkpt lat="45.93952" lon="4.79345">
        <ele>200</ele>
        <time>2016-11-15T09:45:58Z</time>
      </trkpt>
      <trkpt lat="45.93952" lon="4.7935">
        <ele>200</ele>
        <time>2016-11-15T09:45:59Z</time>
      </trkpt>
      <trkpt lat="45.93951" lon="4.79362">
        <ele>200</ele>
        <time>2016-11-15T09:46:01Z</time>
      </trkpt>
      <trkpt lat="45.9395" lon="4.79368">
        <ele>201</ele>
        <time>2016-11-15T09:46:02Z</time>
      </trkpt>
      <trkpt lat="45.93951" lon="4.79379">
        <ele>201</ele>
        <time>2016-11-15T09:46:04Z</time>
      </trkpt>
      <trkpt lat="45.93951" lon="4.79385">
        <ele>201</ele>
        <time>2016-11-15T09:46:05Z</time>
      </trkpt>
      <trkpt lat="45.93951" lon="4.79396">
        <ele>201</ele>
        <time>2016-11-15T09:46:07Z</time>
      </trkpt>
      <trkpt lat="45.93951" lon="4.79401">
        <ele>201</ele>
        <time>2016-11-15T09:46:08Z</time>
      </trkpt>
      <trkpt lat="45.93951" lon="4.79412">
        <ele>201</ele>
        <time>2016-11-15T09:46:10Z</time>
      </trkpt>
      <trkpt lat="45.93951" lon="4.79419">
        <ele>202</ele>
        <time>2016-11-15T09:46:11Z</time>
      </trkpt>
      <trkpt lat="45.9395" lon="4.79429">
        <ele>202</ele>
        <time>2016-11-15T09:46:13Z</time>
      </trkpt>
      <trkpt lat="45.93948" lon="4.79435">
        <ele>202</ele>
        <time>2016-11-15T09:46:14Z</time>
      </trkpt>
      <trkpt lat="45.93948" lon="4.79446">
        <ele>202</ele>
        <time>2016-11-15T09:46:16Z</time>
      </trkpt>
      <trkpt lat="45.93947" lon="4.79452">
        <ele>202</ele>
        <time>2016-11-15T09:46:17Z</time>
      </trkpt>
      <trkpt lat="45.93947" lon="4.79463">
        <ele>202</ele>
        <time>2016-11-15T09:46:19Z</time>
      </trkpt>
      <trkpt lat="45.93947" lon="4.79468">
        <ele>202</ele>
        <time>2016-11-15T09:46:20Z</time>
      </trkpt>
      <trkpt lat="45.93948" lon="4.79478">
        <ele>202</ele>
        <time>2016-11-15T09:46:22Z</time>
      </trkpt>
      <trkpt lat="45.93949" lon="4.79484">
        <ele>202</ele>
        <time>2016-11-15T09:46:23Z</time>
      </trkpt>
      <trkpt lat="45.93949" lon="4.79496">
        <ele>202</ele>
        <time>2016-11-15T09:46:25Z</time>
      </trkpt>
      <trkpt lat="45.9395" lon="4.79502">
        <ele>203</ele>
        <time>2016-11-15T09:46:26Z</time>
      </trkpt>
      <trkpt lat="45.93951" lon="4.79513">
        <ele>204</ele>
        <time>2016-11-15T09:46:28Z</time>
      </trkpt>
      <trkpt lat="45.93951" lon="4.79519">
        <ele>204</ele>
        <time>2016-11-15T09:46:29Z</time>
      </trkpt>
      <trkpt lat="45.93952" lon="4.79531">
        <ele>204</ele>
        <time>2016-11-15T09:46:31Z</time>
      </trkpt>
      <trkpt lat="45.93952" lon="4.79537">
        <ele>204</ele>
        <time>2016-11-15T09:46:32Z</time>
      </trkpt>
      <trkpt lat="45.93953" lon="4.79549">
        <ele>205</ele>
        <time>2016-11-15T09:46:34Z</time>
      </trkpt>
      <trkpt lat="45.93953" lon="4.79555">
        <ele>205</ele>
        <time>2016-11-15T09:46:35Z</time>
      </trkpt>
      <trkpt lat="45.93954" lon="4.79566">
        <ele>205</ele>
        <time>2016-11-15T09:46:37Z</time>
      </trkpt>
      <trkpt lat="45.93955" lon="4.79571">
        <ele>205</ele>
        <time>2016-11-15T09:46:38Z</time>
      </trkpt>
      <trkpt lat="45.93956" lon="4.7958">
        <ele>205</ele>
        <time>2016-11-15T09:46:40Z</time>
      </trkpt>
      <trkpt lat="45.93957" lon="4.79585">
        <ele>207</ele>
        <time>2016-11-15T09:46:41Z</time>
      </trkpt>
      <trkpt lat="45.93959" lon="4.79595">
        <ele>207</ele>
        <time>2016-11-15T09:46:43Z</time>
      </trkpt>
      <trkpt lat="45.93959" lon="4.79601">
        <ele>207</ele>
        <time>2016-11-15T09:46:44Z</time>
      </trkpt>
      <trkpt lat="45.9396" lon="4.79612">
        <ele>207</ele>
        <time>2016-11-15T09:46:46Z</time>
      </trkpt>
      <trkpt lat="45.9396" lon="4.79618">
        <ele>207</ele>
        <time>2016-11-15T09:46:47Z</time>
      </trkpt>
      <trkpt lat="45.9396" lon="4.79628">
        <ele>207</ele>
        <time>2016-11-15T09:46:49Z</time>
      </trkpt>
      <trkpt lat="45.9396" lon="4.79633">
        <ele>207</ele>
        <time>2016-11-15T09:46:50Z</time>
      </trkpt>
      <trkpt lat="45.93961" lon="4.79642">
        <ele>207</ele>
        <time>2016-11-15T09:46:52Z</time>
      </trkpt>
      <trkpt lat="45.93961" lon="4.79648">
        <ele>207</ele>
        <time>2016-11-15T09:46:53Z</time>
      </trkpt>
      <trkpt lat="45.93962" lon="4.79659">
        <ele>207</ele>
        <time>2016-11-15T09:46:55Z</time>
      </trkpt>
      <trkpt lat="45.93961" lon="4.79665">
        <ele>207</ele>
        <time>2016-11-15T09:46:56Z</time>
      </trkpt>
      <trkpt lat="45.93963" lon="4.79676">
        <ele>207</ele>
        <time>2016-11-15T09:46:58Z</time>
      </trkpt>
      <trkpt lat="45.93964" lon="4.79681">
        <ele>207</ele>
        <time>2016-11-15T09:46:59Z</time>
      </trkpt>
      <trkpt lat="45.93965" lon="4.79692">
        <ele>207</ele>
        <time>2016-11-15T09:47:01Z</time>
      </trkpt>
      <trkpt lat="45.93965" lon="4.79697">
        <ele>207</ele>
        <time>2016-11-15T09:47:02Z</time>
      </trkpt>
      <trkpt lat="45.93966" lon="4.79709">
        <ele>207</ele>
        <time>2016-11-15T09:47:04Z</time>
      </trkpt>
      <trkpt lat="45.93967" lon="4.79714">
        <ele>207</ele>
        <time>2016-11-15T09:47:05Z</time>
      </trkpt>
      <trkpt lat="45.93967" lon="4.79724">
        <ele>206</ele>
        <time>2016-11-15T09:47:07Z</time>
      </trkpt>
      <trkpt lat="45.93968" lon="4.7973">
        <ele>206</ele>
        <time>2016-11-15T09:47:08Z</time>
      </trkpt>
      <trkpt lat="45.9397" lon="4.7974">
        <ele>207</ele>
        <time>2016-11-15T09:47:10Z</time>
      </trkpt>
      <trkpt lat="45.93971" lon="4.79746">
        <ele>207</ele>
        <time>2016-11-15T09:47:11Z</time>
      </trkpt>
      <trkpt lat="45.93973" lon="4.79757">
        <ele>206</ele>
        <time>2016-11-15T09:47:13Z</time>
      </trkpt>
      <trkpt lat="45.93973" lon="4.79763">
        <ele>206</ele>
        <time>2016-11-15T09:47:14Z</time>
      </trkpt>
      <trkpt lat="45.93973" lon="4.7977">
        <ele>206</ele>
        <time>2016-11-15T09:47:15Z</time>
      </trkpt>
      <trkpt lat="45.93973" lon="4.79777">
        <ele>206</ele>
        <time>2016-11-15T09:47:16Z</time>
      </trkpt>
      <trkpt lat="45.93973" lon="4.79784">
        <ele>206</ele>
        <time>2016-11-15T09:47:17Z</time>
      </trkpt>
      <trkpt lat="45.93973" lon="4.7979">
        <ele>206</ele>
        <time>2016-11-15T09:47:18Z</time>
      </trkpt>
      <trkpt lat="45.93972" lon="4.79802">
        <ele>206</ele>
        <time>2016-11-15T09:47:20Z</time>
      </trkpt>
      <trkpt lat="45.93971" lon="4.79808">
        <ele>207</ele>
        <time>2016-11-15T09:47:21Z</time>
      </trkpt>
      <trkpt lat="45.93968" lon="4.7982">
        <ele>207</ele>
        <time>2016-11-15T09:47:23Z</time>
      </trkpt>
      <trkpt lat="45.93967" lon="4.79826">
        <ele>207</ele>
        <time>2016-11-15T09:47:24Z</time>
      </trkpt>
      <trkpt lat="45.93965" lon="4.79839">
        <ele>206</ele>
        <time>2016-11-15T09:47:26Z</time>
      </trkpt>
      <trkpt lat="45.93964" lon="4.79845">
        <ele>206</ele>
        <time>2016-11-15T09:47:27Z</time>
      </trkpt>
      <trkpt lat="45.93963" lon="4.79852">
        <ele>206</ele>
        <time>2016-11-15T09:47:28Z</time>
      </trkpt>
      <trkpt lat="45.93961" lon="4.79858">
        <ele>206</ele>
        <time>2016-11-15T09:47:29Z</time>
      </trkpt>
      <trkpt lat="45.9396" lon="4.79864">
        <ele>206</ele>
        <time>2016-11-15T09:47:30Z</time>
      </trkpt>
      <trkpt lat="45.93959" lon="4.79871">
        <ele>206</ele>
        <time>2016-11-15T09:47:31Z</time>
      </trkpt>
      <trkpt lat="45.93957" lon="4.79877">
        <ele>206</ele>
        <time>2016-11-15T09:47:32Z</time>
      </trkpt>
      <trkpt lat="45.93956" lon="4.79884">
        <ele>206</ele>
        <time>2016-11-15T09:47:33Z</time>
      </trkpt>
      <trkpt lat="45.93955" lon="4.79891">
        <ele>205</ele>
        <time>2016-11-15T09:47:34Z</time>
      </trkpt>
      <trkpt lat="45.93954" lon="4.79897">
        <ele>205</ele>
        <time>2016-11-15T09:47:35Z</time>
      </trkpt>
      <trkpt lat="45.93951" lon="4.79909">
        <ele>205</ele>
        <time>2016-11-15T09:47:37Z</time>
      </trkpt>
      <trkpt lat="45.9395" lon="4.79915">
        <ele>205</ele>
        <time>2016-11-15T09:47:38Z</time>
      </trkpt>
      <trkpt lat="45.93949" lon="4.79922">
        <ele>205</ele>
        <time>2016-11-15T09:47:39Z</time>
      </trkpt>
      <trkpt lat="45.93948" lon="4.79928">
        <ele>205</ele>
        <time>2016-11-15T09:47:40Z</time>
      </trkpt>
      <trkpt lat="45.93947" lon="4.79935">
        <ele>205</ele>
        <time>2016-11-15T09:47:41Z</time>
      </trkpt>
      <trkpt lat="45.93946" lon="4.79941">
        <ele>205</ele>
        <time>2016-11-15T09:47:42Z</time>
      </trkpt>
      <trkpt lat="45.93946" lon="4.79948">
        <ele>205</ele>
        <time>2016-11-15T09:47:43Z</time>
      </trkpt>
      <trkpt lat="45.93945" lon="4.79956">
        <ele>205</ele>
        <time>2016-11-15T09:47:44Z</time>
      </trkpt>
      <trkpt lat="45.93943" lon="4.79962">
        <ele>205</ele>
        <time>2016-11-15T09:47:45Z</time>
      </trkpt>
      <trkpt lat="45.93942" lon="4.79969">
        <ele>205</ele>
        <time>2016-11-15T09:47:46Z</time>
      </trkpt>
      <trkpt lat="45.93941" lon="4.79976">
        <ele>205</ele>
        <time>2016-11-15T09:47:47Z</time>
      </trkpt>
      <trkpt lat="45.93941" lon="4.79982">
        <ele>204</ele>
        <time>2016-11-15T09:47:48Z</time>
      </trkpt>
      <trkpt lat="45.93939" lon="4.79994">
        <ele>204</ele>
        <time>2016-11-15T09:47:50Z</time>
      </trkpt>
      <trkpt lat="45.93938" lon="4.79999">
        <ele>204</ele>
        <time>2016-11-15T09:47:51Z</time>
      </trkpt>
      <trkpt lat="45.93936" lon="4.80011">
        <ele>205</ele>
        <time>2016-11-15T09:47:53Z</time>
      </trkpt>
      <trkpt lat="45.93936" lon="4.80017">
        <ele>206</ele>
        <time>2016-11-15T09:47:54Z</time>
      </trkpt>
      <trkpt lat="45.93935" lon="4.80024">
        <ele>206</ele>
        <time>2016-11-15T09:47:55Z</time>
      </trkpt>
      <trkpt lat="45.93935" lon="4.8003">
        <ele>206</ele>
        <time>2016-11-15T09:47:56Z</time>
      </trkpt>
      <trkpt lat="45.93934" lon="4.80037">
        <ele>207</ele>
        <time>2016-11-15T09:47:57Z</time>
      </trkpt>
      <trkpt lat="45.93933" lon="4.80044">
        <ele>207</ele>
        <time>2016-11-15T09:47:58Z</time>
      </trkpt>
      <trkpt lat="45.93933" lon="4.80051">
        <ele>207</ele>
        <time>2016-11-15T09:47:59Z</time>
      </trkpt>
      <trkpt lat="45.93933" lon="4.80059">
        <ele>207</ele>
        <time>2016-11-15T09:48:00Z</time>
      </trkpt>
      <trkpt lat="45.93934" lon="4.80071">
        <ele>207</ele>
        <time>2016-11-15T09:48:02Z</time>
      </trkpt>
      <trkpt lat="45.93935" lon="4.80078">
        <ele>207</ele>
        <time>2016-11-15T09:48:03Z</time>
      </trkpt>
      <trkpt lat="45.93935" lon="4.80084">
        <ele>208</ele>
        <time>2016-11-15T09:48:04Z</time>
      </trkpt>
      <trkpt lat="45.93937" lon="4.80091">
        <ele>208</ele>
        <time>2016-11-15T09:48:05Z</time>
      </trkpt>
      <trkpt lat="45.93938" lon="4.80098">
        <ele>208</ele>
        <time>2016-11-15T09:48:06Z</time>
      </trkpt>
      <trkpt lat="45.93938" lon="4.80104">
        <ele>208</ele>
        <time>2016-11-15T09:48:07Z</time>
      </trkpt>
      <trkpt lat="45.93939" lon="4.80111">
        <ele>208</ele>
        <time>2016-11-15T09:48:08Z</time>
      </trkpt>
      <trkpt lat="45.93941" lon="4.80118">
        <ele>209</ele>
        <time>2016-11-15T09:48:09Z</time>
      </trkpt>
      <trkpt lat="45.93942" lon="4.80125">
        <ele>209</ele>
        <time>2016-11-15T09:48:10Z</time>
      </trkpt>
      <trkpt lat="45.93942" lon="4.80131">
        <ele>208</ele>
        <time>2016-11-15T09:48:11Z</time>
      </trkpt>
      <trkpt lat="45.93943" lon="4.80138">
        <ele>208</ele>
        <time>2016-11-15T09:48:12Z</time>
      </trkpt>
      <trkpt lat="45.93944" lon="4.80145">
        <ele>208</ele>
        <time>2016-11-15T09:48:13Z</time>
      </trkpt>
      <trkpt lat="45.93944" lon="4.80152">
        <ele>208</ele>
        <time>2016-11-15T09:48:14Z</time>
      </trkpt>
      <trkpt lat="45.93945" lon="4.80159">
        <ele>208</ele>
        <time>2016-11-15T09:48:15Z</time>
      </trkpt>
      <trkpt lat="45.93946" lon="4.80167">
        <ele>208</ele>
        <time>2016-11-15T09:48:16Z</time>
      </trkpt>
      <trkpt lat="45.93947" lon="4.80174">
        <ele>206</ele>
        <time>2016-11-15T09:48:17Z</time>
      </trkpt>
      <trkpt lat="45.93948" lon="4.80181">
        <ele>206</ele>
        <time>2016-11-15T09:48:18Z</time>
      </trkpt>
      <trkpt lat="45.93949" lon="4.80188">
        <ele>205</ele>
        <time>2016-11-15T09:48:19Z</time>
      </trkpt>
      <trkpt lat="45.93951" lon="4.80194">
        <ele>205</ele>
        <time>2016-11-15T09:48:20Z</time>
      </trkpt>
      <trkpt lat="45.93951" lon="4.80201">
        <ele>205</ele>
        <time>2016-11-15T09:48:21Z</time>
      </trkpt>
      <trkpt lat="45.93952" lon="4.80207">
        <ele>205</ele>
        <time>2016-11-15T09:48:22Z</time>
      </trkpt>
      <trkpt lat="45.93954" lon="4.80214">
        <ele>205</ele>
        <time>2016-11-15T09:48:23Z</time>
      </trkpt>
      <trkpt lat="45.93956" lon="4.8022">
        <ele>205</ele>
        <time>2016-11-15T09:48:24Z</time>
      </trkpt>
      <trkpt lat="45.93958" lon="4.80226">
        <ele>205</ele>
        <time>2016-11-15T09:48:25Z</time>
      </trkpt>
      <trkpt lat="45.93961" lon="4.80237">
        <ele>204</ele>
        <time>2016-11-15T09:48:27Z</time>
      </trkpt>
      <trkpt lat="45.93962" lon="4.80243">
        <ele>204</ele>
        <time>2016-11-15T09:48:28Z</time>
      </trkpt>
      <trkpt lat="45.93965" lon="4.80254">
        <ele>202</ele>
        <time>2016-11-15T09:48:30Z</time>
      </trkpt>
      <trkpt lat="45.93967" lon="4.8026">
        <ele>202</ele>
        <time>2016-11-15T09:48:31Z</time>
      </trkpt>
      <trkpt lat="45.93968" lon="4.80266">
        <ele>202</ele>
        <time>2016-11-15T09:48:32Z</time>
      </trkpt>
      <trkpt lat="45.9397" lon="4.80272">
        <ele>202</ele>
        <time>2016-11-15T09:48:33Z</time>
      </trkpt>
      <trkpt lat="45.93972" lon="4.80279">
        <ele>202</ele>
        <time>2016-11-15T09:48:34Z</time>
      </trkpt>
      <trkpt lat="45.93975" lon="4.80285">
        <ele>203</ele>
        <time>2016-11-15T09:48:35Z</time>
      </trkpt>
      <trkpt lat="45.93978" lon="4.80297">
        <ele>203</ele>
        <time>2016-11-15T09:48:37Z</time>
      </trkpt>
      <trkpt lat="45.93978" lon="4.80302">
        <ele>203</ele>
        <time>2016-11-15T09:48:38Z</time>
      </trkpt>
      <trkpt lat="45.9398" lon="4.80311">
        <ele>203</ele>
        <time>2016-11-15T09:48:40Z</time>
      </trkpt>
      <trkpt lat="45.93982" lon="4.80316">
        <ele>203</ele>
        <time>2016-11-15T09:48:41Z</time>
      </trkpt>
      <trkpt lat="45.93985" lon="4.80325">
        <ele>204</ele>
        <time>2016-11-15T09:48:43Z</time>
      </trkpt>
      <trkpt lat="45.93987" lon="4.8033">
        <ele>204</ele>
        <time>2016-11-15T09:48:44Z</time>
      </trkpt>
      <trkpt lat="45.9399" lon="4.80339">
        <ele>206</ele>
        <time>2016-11-15T09:48:46Z</time>
      </trkpt>
      <trkpt lat="45.93992" lon="4.80344">
        <ele>206</ele>
        <time>2016-11-15T09:48:47Z</time>
      </trkpt>
      <trkpt lat="45.93996" lon="4.80354">
        <ele>206</ele>
        <time>2016-11-15T09:48:49Z</time>
      </trkpt>
      <trkpt lat="45.93996" lon="4.80357">
        <ele>207</ele>
        <time>2016-11-15T09:48:50Z</time>
      </trkpt>
      <trkpt lat="45.93999" lon="4.80368">
        <ele>207</ele>
        <time>2016-11-15T09:48:52Z</time>
      </trkpt>
      <trkpt lat="45.94" lon="4.80372">
        <ele>208</ele>
        <time>2016-11-15T09:48:53Z</time>
      </trkpt>
      <trkpt lat="45.94003" lon="4.80381">
        <ele>216</ele>
        <time>2016-11-15T09:48:55Z</time>
      </trkpt>
      <trkpt lat="45.94005" lon="4.80385">
        <ele>217</ele>
        <time>2016-11-15T09:48:56Z</time>
      </trkpt>
      <trkpt lat="45.94008" lon="4.80393">
        <ele>217</ele>
        <time>2016-11-15T09:48:58Z</time>
      </trkpt>
      <trkpt lat="45.94009" lon="4.80398">
        <ele>217</ele>
        <time>2016-11-15T09:48:59Z</time>
      </trkpt>
      <trkpt lat="45.94011" lon="4.8041">
        <ele>217</ele>
        <time>2016-11-15T09:49:02Z</time>
      </trkpt>
      <trkpt lat="45.94012" lon="4.80414">
        <ele>217</ele>
        <time>2016-11-15T09:49:03Z</time>
      </trkpt>
      <trkpt lat="45.94014" lon="4.80422">
        <ele>220</ele>
        <time>2016-11-15T09:49:05Z</time>
      </trkpt>
      <trkpt lat="45.94015" lon="4.80427">
        <ele>221</ele>
        <time>2016-11-15T09:49:06Z</time>
      </trkpt>
      <trkpt lat="45.94016" lon="4.80435">
        <ele>222</ele>
        <time>2016-11-15T09:49:08Z</time>
      </trkpt>
      <trkpt lat="45.94017" lon="4.8044">
        <ele>222</ele>
        <time>2016-11-15T09:49:09Z</time>
      </trkpt>
      <trkpt lat="45.94018" lon="4.80449">
        <ele>223</ele>
        <time>2016-11-15T09:49:11Z</time>
      </trkpt>
      <trkpt lat="45.94018" lon="4.80454">
        <ele>223</ele>
        <time>2016-11-15T09:49:12Z</time>
      </trkpt>
      <trkpt lat="45.94018" lon="4.80463">
        <ele>223</ele>
        <time>2016-11-15T09:49:14Z</time>
      </trkpt>
      <trkpt lat="45.94018" lon="4.80468">
        <ele>223</ele>
        <time>2016-11-15T09:49:15Z</time>
      </trkpt>
      <trkpt lat="45.94018" lon="4.80477">
        <ele>223</ele>
        <time>2016-11-15T09:49:17Z</time>
      </trkpt>
      <trkpt lat="45.94018" lon="4.80482">
        <ele>223</ele>
        <time>2016-11-15T09:49:18Z</time>
      </trkpt>
      <trkpt lat="45.94018" lon="4.80494">
        <ele>222</ele>
        <time>2016-11-15T09:49:21Z</time>
      </trkpt>
      <trkpt lat="45.94018" lon="4.80498">
        <ele>222</ele>
        <time>2016-11-15T09:49:22Z</time>
      </trkpt>
      <trkpt lat="45.94017" lon="4.80508">
        <ele>223</ele>
        <time>2016-11-15T09:49:25Z</time>
      </trkpt>
      <trkpt lat="45.94018" lon="4.80511">
        <ele>223</ele>
        <time>2016-11-15T09:49:26Z</time>
      </trkpt>
      <trkpt lat="45.94018" lon="4.80522">
        <ele>224</ele>
        <time>2016-11-15T09:49:29Z</time>
      </trkpt>
      <trkpt lat="45.94018" lon="4.80527">
        <ele>224</ele>
        <time>2016-11-15T09:49:30Z</time>
      </trkpt>
      <trkpt lat="45.94018" lon="4.80537">
        <ele>224</ele>
        <time>2016-11-15T09:49:32Z</time>
      </trkpt>
      <trkpt lat="45.94018" lon="4.80541">
        <ele>225</ele>
        <time>2016-11-15T09:49:33Z</time>
      </trkpt>
      <trkpt lat="45.94019" lon="4.80551">
        <ele>224</ele>
        <time>2016-11-15T09:49:35Z</time>
      </trkpt>
      <trkpt lat="45.94019" lon="4.80555">
        <ele>224</ele>
        <time>2016-11-15T09:49:36Z</time>
      </trkpt>
      <trkpt lat="45.9402" lon="4.80568">
        <ele>224</ele>
        <time>2016-11-15T09:49:39Z</time>
      </trkpt>
      <trkpt lat="45.9402" lon="4.80571">
        <ele>223</ele>
        <time>2016-11-15T09:49:40Z</time>
      </trkpt>
      <trkpt lat="45.9402" lon="4.80583">
        <ele>223</ele>
        <time>2016-11-15T09:49:43Z</time>
      </trkpt>
      <trkpt lat="45.9402" lon="4.80587">
        <ele>223</ele>
        <time>2016-11-15T09:49:44Z</time>
      </trkpt>
      <trkpt lat="45.94019" lon="4.80599">
        <ele>223</ele>
        <time>2016-11-15T09:49:47Z</time>
      </trkpt>
      <trkpt lat="45.9402" lon="4.80603">
        <ele>224</ele>
        <time>2016-11-15T09:49:48Z</time>
      </trkpt>
      <trkpt lat="45.94022" lon="4.80614">
        <ele>224</ele>
        <time>2016-11-15T09:49:51Z</time>
      </trkpt>
      <trkpt lat="45.94022" lon="4.80618">
        <ele>224</ele>
        <time>2016-11-15T09:49:52Z</time>
      </trkpt>
      <trkpt lat="45.94022" lon="4.8063">
        <ele>224</ele>
        <time>2016-11-15T09:49:55Z</time>
      </trkpt>
      <trkpt lat="45.94023" lon="4.80632">
        <ele>224</ele>
        <time>2016-11-15T09:49:56Z</time>
      </trkpt>
      <trkpt lat="45.94025" lon="4.80642">
        <ele>224</ele>
        <time>2016-11-15T09:49:59Z</time>
      </trkpt>
      <trkpt lat="45.94025" lon="4.80645">
        <ele>224</ele>
        <time>2016-11-15T09:50:00Z</time>
      </trkpt>
      <trkpt lat="45.94024" lon="4.80656">
        <ele>223</ele>
        <time>2016-11-15T09:50:03Z</time>
      </trkpt>
      <trkpt lat="45.94025" lon="4.8066">
        <ele>223</ele>
        <time>2016-11-15T09:50:04Z</time>
      </trkpt>
      <trkpt lat="45.94025" lon="4.80671">
        <ele>223</ele>
        <time>2016-11-15T09:50:06Z</time>
      </trkpt>
      <trkpt lat="45.94031" lon="4.80672">
        <ele>225</ele>
        <time>2016-11-15T09:50:07Z</time>
      </trkpt>
      <trkpt lat="45.94035" lon="4.8068">
        <ele>225</ele>
        <time>2016-11-15T09:50:09Z</time>
      </trkpt>
      <trkpt lat="45.94037" lon="4.80684">
        <ele>226</ele>
        <time>2016-11-15T09:50:10Z</time>
      </trkpt>
      <trkpt lat="45.94037" lon="4.80694">
        <ele>226</ele>
        <time>2016-11-15T09:50:12Z</time>
      </trkpt>
      <trkpt lat="45.94038" lon="4.80697">
        <ele>226</ele>
        <time>2016-11-15T09:50:13Z</time>
      </trkpt>
      <trkpt lat="45.94039" lon="4.80708">
        <ele>226</ele>
        <time>2016-11-15T09:50:16Z</time>
      </trkpt>
      <trkpt lat="45.9404" lon="4.80712">
        <ele>227</ele>
        <time>2016-11-15T09:50:17Z</time>
      </trkpt>
      <trkpt lat="45.94041" lon="4.80724">
        <ele>227</ele>
        <time>2016-11-15T09:50:20Z</time>
      </trkpt>
      <trkpt lat="45.94041" lon="4.8073">
        <ele>227</ele>
        <time>2016-11-15T09:50:21Z</time>
      </trkpt>
      <trkpt lat="45.94041" lon="4.80741">
        <ele>227</ele>
        <time>2016-11-15T09:50:24Z</time>
      </trkpt>
      <trkpt lat="45.94041" lon="4.80745">
        <ele>227</ele>
        <time>2016-11-15T09:50:25Z</time>
      </trkpt>
      <trkpt lat="45.94041" lon="4.80757">
        <ele>228</ele>
        <time>2016-11-15T09:50:29Z</time>
      </trkpt>
      <trkpt lat="45.94041" lon="4.80761">
        <ele>228</ele>
        <time>2016-11-15T09:50:30Z</time>
      </trkpt>
      <trkpt lat="45.94044" lon="4.80773">
        <ele>228</ele>
        <time>2016-11-15T09:50:33Z</time>
      </trkpt>
      <trkpt lat="45.94044" lon="4.80777">
        <ele>228</ele>
        <time>2016-11-15T09:50:34Z</time>
      </trkpt>
      <trkpt lat="45.94045" lon="4.80789">
        <ele>228</ele>
        <time>2016-11-15T09:50:37Z</time>
      </trkpt>
      <trkpt lat="45.94046" lon="4.80793">
        <ele>228</ele>
        <time>2016-11-15T09:50:38Z</time>
      </trkpt>
      <trkpt lat="45.94047" lon="4.80804">
        <ele>229</ele>
        <time>2016-11-15T09:50:41Z</time>
      </trkpt>
      <trkpt lat="45.94048" lon="4.80808">
        <ele>229</ele>
        <time>2016-11-15T09:50:42Z</time>
      </trkpt>
      <trkpt lat="45.94049" lon="4.80819">
        <ele>229</ele>
        <time>2016-11-15T09:50:45Z</time>
      </trkpt>
      <trkpt lat="45.94049" lon="4.80823">
        <ele>230</ele>
        <time>2016-11-15T09:50:46Z</time>
      </trkpt>
      <trkpt lat="45.94051" lon="4.80835">
        <ele>230</ele>
        <time>2016-11-15T09:50:49Z</time>
      </trkpt>
      <trkpt lat="45.94052" lon="4.80839">
        <ele>231</ele>
        <time>2016-11-15T09:50:50Z</time>
      </trkpt>
      <trkpt lat="45.94054" lon="4.80848">
        <ele>231</ele>
        <time>2016-11-15T09:50:53Z</time>
      </trkpt>
      <trkpt lat="45.94055" lon="4.80852">
        <ele>231</ele>
        <time>2016-11-15T09:50:54Z</time>
      </trkpt>
      <trkpt lat="45.94057" lon="4.80863">
        <ele>231</ele>
        <time>2016-11-15T09:50:57Z</time>
      </trkpt>
      <trkpt lat="45.94058" lon="4.80867">
        <ele>231</ele>
        <time>2016-11-15T09:50:58Z</time>
      </trkpt>
      <trkpt lat="45.9406" lon="4.80876">
        <ele>231</ele>
        <time>2016-11-15T09:51:01Z</time>
      </trkpt>
      <trkpt lat="45.9406" lon="4.8088">
        <ele>231</ele>
        <time>2016-11-15T09:51:02Z</time>
      </trkpt>
      <trkpt lat="45.94059" lon="4.80892">
        <ele>231</ele>
        <time>2016-11-15T09:51:05Z</time>
      </trkpt>
      <trkpt lat="45.94059" lon="4.80896">
        <ele>231</ele>
        <time>2016-11-15T09:51:06Z</time>
      </trkpt>
      <trkpt lat="45.94061" lon="4.80908">
        <ele>232</ele>
        <time>2016-11-15T09:51:09Z</time>
      </trkpt>
      <trkpt lat="45.94062" lon="4.80911">
        <ele>232</ele>
        <time>2016-11-15T09:51:10Z</time>
      </trkpt>
      <trkpt lat="45.94063" lon="4.80924">
        <ele>233</ele>
        <time>2016-11-15T09:51:13Z</time>
      </trkpt>
      <trkpt lat="45.94063" lon="4.80928">
        <ele>233</ele>
        <time>2016-11-15T09:51:14Z</time>
      </trkpt>
      <trkpt lat="45.94065" lon="4.8094">
        <ele>233</ele>
        <time>2016-11-15T09:51:17Z</time>
      </trkpt>
      <trkpt lat="45.94066" lon="4.80944">
        <ele>232</ele>
        <time>2016-11-15T09:51:18Z</time>
      </trkpt>
      <trkpt lat="45.94068" lon="4.80955">
        <ele>232</ele>
        <time>2016-11-15T09:51:21Z</time>
      </trkpt>
      <trkpt lat="45.94068" lon="4.80959">
        <ele>232</ele>
        <time>2016-11-15T09:51:22Z</time>
      </trkpt>
      <trkpt lat="45.9407" lon="4.80971">
        <ele>233</ele>
        <time>2016-11-15T09:51:25Z</time>
      </trkpt>
      <trkpt lat="45.94072" lon="4.80974">
        <ele>233</ele>
        <time>2016-11-15T09:51:26Z</time>
      </trkpt>
      <trkpt lat="45.94074" lon="4.80984">
        <ele>235</ele>
        <time>2016-11-15T09:51:29Z</time>
      </trkpt>
      <trkpt lat="45.94075" lon="4.80988">
        <ele>235</ele>
        <time>2016-11-15T09:51:30Z</time>
      </trkpt>
      <trkpt lat="45.94075" lon="4.80999">
        <ele>237</ele>
        <time>2016-11-15T09:51:33Z</time>
      </trkpt>
      <trkpt lat="45.94075" lon="4.81003">
        <ele>237</ele>
        <time>2016-11-15T09:51:34Z</time>
      </trkpt>
      <trkpt lat="45.94077" lon="4.81014">
        <ele>236</ele>
        <time>2016-11-15T09:51:37Z</time>
      </trkpt>
      <trkpt lat="45.94078" lon="4.81018">
        <ele>235</ele>
        <time>2016-11-15T09:51:38Z</time>
      </trkpt>
      <trkpt lat="45.9408" lon="4.81029">
        <ele>234</ele>
        <time>2016-11-15T09:51:41Z</time>
      </trkpt>
      <trkpt lat="45.9408" lon="4.81033">
        <ele>234</ele>
        <time>2016-11-15T09:51:42Z</time>
      </trkpt>
      <trkpt lat="45.94083" lon="4.81044">
        <ele>234</ele>
        <time>2016-11-15T09:51:45Z</time>
      </trkpt>
      <trkpt lat="45.94084" lon="4.81048">
        <ele>243</ele>
        <time>2016-11-15T09:51:46Z</time>
      </trkpt>
      <trkpt lat="45.94088" lon="4.81058">
        <ele>243</ele>
        <time>2016-11-15T09:51:49Z</time>
      </trkpt>
      <trkpt lat="45.94089" lon="4.81062">
        <ele>242</ele>
        <time>2016-11-15T09:51:50Z</time>
      </trkpt>
      <trkpt lat="45.94093" lon="4.81072">
        <ele>241</ele>
        <time>2016-11-15T09:51:53Z</time>
      </trkpt>
      <trkpt lat="45.94094" lon="4.81076">
        <ele>241</ele>
        <time>2016-11-15T09:51:54Z</time>
      </trkpt>
      <trkpt lat="45.94098" lon="4.81087">
        <ele>240</ele>
        <time>2016-11-15T09:51:57Z</time>
      </trkpt>
      <trkpt lat="45.941" lon="4.8109">
        <ele>240</ele>
        <time>2016-11-15T09:51:58Z</time>
      </trkpt>
      <trkpt lat="45.94105" lon="4.81099">
        <ele>241</ele>
        <time>2016-11-15T09:52:01Z</time>
      </trkpt>
      <trkpt lat="45.94106" lon="4.81102">
        <ele>242</ele>
        <time>2016-11-15T09:52:02Z</time>
      </trkpt>
      <trkpt lat="45.94112" lon="4.81111">
        <ele>242</ele>
        <time>2016-11-15T09:52:05Z</time>
      </trkpt>
      <trkpt lat="45.94112" lon="4.81115">
        <ele>242</ele>
        <time>2016-11-15T09:52:06Z</time>
      </trkpt>
      <trkpt lat="45.94118" lon="4.81125">
        <ele>243</ele>
        <time>2016-11-15T09:52:09Z</time>
      </trkpt>
      <trkpt lat="45.9412" lon="4.81127">
        <ele>243</ele>
        <time>2016-11-15T09:52:10Z</time>
      </trkpt>
      <trkpt lat="45.94126" lon="4.81137">
        <ele>243</ele>
        <time>2016-11-15T09:52:14Z</time>
      </trkpt>
      <trkpt lat="45.94127" lon="4.8114">
        <ele>243</ele>
        <time>2016-11-15T09:52:15Z</time>
      </trkpt>
      <trkpt lat="45.94131" lon="4.8115">
        <ele>243</ele>
        <time>2016-11-15T09:52:18Z</time>
      </trkpt>
      <trkpt lat="45.94132" lon="4.81153">
        <ele>243</ele>
        <time>2016-11-15T09:52:19Z</time>
      </trkpt>
      <trkpt lat="45.94136" lon="4.81163">
        <ele>244</ele>
        <time>2016-11-15T09:52:22Z</time>
      </trkpt>
      <trkpt lat="45.94138" lon="4.81166">
        <ele>244</ele>
        <time>2016-11-15T09:52:23Z</time>
      </trkpt>
      <trkpt lat="45.94141" lon="4.81175">
        <ele>244</ele>
        <time>2016-11-15T09:52:26Z</time>
      </trkpt>
      <trkpt lat="45.94142" lon="4.81178">
        <ele>244</ele>
        <time>2016-11-15T09:52:27Z</time>
      </trkpt>
      <trkpt lat="45.94145" lon="4.81188">
        <ele>244</ele>
        <time>2016-11-15T09:52:30Z</time>
      </trkpt>
      <trkpt lat="45.94146" lon="4.81192">
        <ele>244</ele>
        <time>2016-11-15T09:52:31Z</time>
      </trkpt>
      <trkpt lat="45.9415" lon="4.81202">
        <ele>244</ele>
        <time>2016-11-15T09:52:34Z</time>
      </trkpt>
      <trkpt lat="45.94151" lon="4.81207">
        <ele>244</ele>
        <time>2016-11-15T09:52:35Z</time>
      </trkpt>
      <trkpt lat="45.94154" lon="4.81216">
        <ele>245</ele>
        <time>2016-11-15T09:52:37Z</time>
      </trkpt>
      <trkpt lat="45.94155" lon="4.8122">
        <ele>245</ele>
        <time>2016-11-15T09:52:38Z</time>
      </trkpt>
      <trkpt lat="45.94158" lon="4.81231">
        <ele>246</ele>
        <time>2016-11-15T09:52:41Z</time>
      </trkpt>
      <trkpt lat="45.94159" lon="4.81235">
        <ele>246</ele>
        <time>2016-11-15T09:52:42Z</time>
      </trkpt>
      <trkpt lat="45.94161" lon="4.81245">
        <ele>248</ele>
        <time>2016-11-15T09:52:45Z</time>
      </trkpt>
      <trkpt lat="45.94161" lon="4.81249">
        <ele>248</ele>
        <time>2016-11-15T09:52:46Z</time>
      </trkpt>
      <trkpt lat="45.94163" lon="4.81259">
        <ele>248</ele>
        <time>2016-11-15T09:52:49Z</time>
      </trkpt>
      <trkpt lat="45.94163" lon="4.81262">
        <ele>248</ele>
        <time>2016-11-15T09:52:50Z</time>
      </trkpt>
      <trkpt lat="45.94165" lon="4.81274">
        <ele>247</ele>
        <time>2016-11-15T09:52:53Z</time>
      </trkpt>
      <trkpt lat="45.94166" lon="4.81278">
        <ele>247</ele>
        <time>2016-11-15T09:52:54Z</time>
      </trkpt>
      <trkpt lat="45.94167" lon="4.81289">
        <ele>247</ele>
        <time>2016-11-15T09:52:57Z</time>
      </trkpt>
      <trkpt lat="45.94167" lon="4.81294">
        <ele>255</ele>
        <time>2016-11-15T09:52:58Z</time>
      </trkpt>
      <trkpt lat="45.94166" lon="4.81304">
        <ele>248</ele>
        <time>2016-11-15T09:53:02Z</time>
      </trkpt>
      <trkpt lat="45.94166" lon="4.81308">
        <ele>248</ele>
        <time>2016-11-15T09:53:03Z</time>
      </trkpt>
      <trkpt lat="45.94165" lon="4.81321">
        <ele>249</ele>
        <time>2016-11-15T09:53:06Z</time>
      </trkpt>
      <trkpt lat="45.94165" lon="4.81325">
        <ele>250</ele>
        <time>2016-11-15T09:53:07Z</time>
      </trkpt>
      <trkpt lat="45.94165" lon="4.81334">
        <ele>252</ele>
        <time>2016-11-15T09:53:09Z</time>
      </trkpt>
      <trkpt lat="45.94165" lon="4.81338">
        <ele>251</ele>
        <time>2016-11-15T09:53:10Z</time>
      </trkpt>
      <trkpt lat="45.94164" lon="4.8135">
        <ele>251</ele>
        <time>2016-11-15T09:53:13Z</time>
      </trkpt>
      <trkpt lat="45.94164" lon="4.81353">
        <ele>251</ele>
        <time>2016-11-15T09:53:14Z</time>
      </trkpt>
      <trkpt lat="45.94164" lon="4.81363">
        <ele>251</ele>
        <time>2016-11-15T09:53:17Z</time>
      </trkpt>
      <trkpt lat="45.94163" lon="4.81367">
        <ele>251</ele>
        <time>2016-11-15T09:53:18Z</time>
      </trkpt>
      <trkpt lat="45.9416" lon="4.81378">
        <ele>251</ele>
        <time>2016-11-15T09:53:21Z</time>
      </trkpt>
      <trkpt lat="45.9416" lon="4.81381">
        <ele>251</ele>
        <time>2016-11-15T09:53:22Z</time>
      </trkpt>
      <trkpt lat="45.94159" lon="4.81392">
        <ele>252</ele>
        <time>2016-11-15T09:53:25Z</time>
      </trkpt>
      <trkpt lat="45.94159" lon="4.81396">
        <ele>252</ele>
        <time>2016-11-15T09:53:26Z</time>
      </trkpt>
      <trkpt lat="45.94158" lon="4.81407">
        <ele>253</ele>
        <time>2016-11-15T09:53:29Z</time>
      </trkpt>
      <trkpt lat="45.94159" lon="4.81411">
        <ele>254</ele>
        <time>2016-11-15T09:53:30Z</time>
      </trkpt>
      <trkpt lat="45.94158" lon="4.81421">
        <ele>256</ele>
        <time>2016-11-15T09:53:33Z</time>
      </trkpt>
      <trkpt lat="45.94158" lon="4.81425">
        <ele>256</ele>
        <time>2016-11-15T09:53:34Z</time>
      </trkpt>
      <trkpt lat="45.94157" lon="4.81436">
        <ele>256</ele>
        <time>2016-11-15T09:53:37Z</time>
      </trkpt>
      <trkpt lat="45.94156" lon="4.81439">
        <ele>256</ele>
        <time>2016-11-15T09:53:38Z</time>
      </trkpt>
      <trkpt lat="45.94154" lon="4.8145">
        <ele>257</ele>
        <time>2016-11-15T09:53:42Z</time>
      </trkpt>
      <trkpt lat="45.94153" lon="4.81453">
        <ele>257</ele>
        <time>2016-11-15T09:53:43Z</time>
      </trkpt>
      <trkpt lat="45.94153" lon="4.81463">
        <ele>257</ele>
        <time>2016-11-15T09:53:46Z</time>
      </trkpt>
      <trkpt lat="45.94152" lon="4.81467">
        <ele>258</ele>
        <time>2016-11-15T09:53:47Z</time>
      </trkpt>
      <trkpt lat="45.94151" lon="4.81479">
        <ele>258</ele>
        <time>2016-11-15T09:53:50Z</time>
      </trkpt>
      <trkpt lat="45.94151" lon="4.81482">
        <ele>259</ele>
        <time>2016-11-15T09:53:51Z</time>
      </trkpt>
      <trkpt lat="45.94151" lon="4.81494">
        <ele>260</ele>
        <time>2016-11-15T09:53:54Z</time>
      </trkpt>
      <trkpt lat="45.94151" lon="4.81498">
        <ele>260</ele>
        <time>2016-11-15T09:53:55Z</time>
      </trkpt>
      <trkpt lat="45.94149" lon="4.81511">
        <ele>263</ele>
        <time>2016-11-15T09:53:58Z</time>
      </trkpt>
      <trkpt lat="45.94148" lon="4.81515">
        <ele>263</ele>
        <time>2016-11-15T09:53:59Z</time>
      </trkpt>
      <trkpt lat="45.94148" lon="4.81524">
        <ele>263</ele>
        <time>2016-11-15T09:54:01Z</time>
      </trkpt>
      <trkpt lat="45.94148" lon="4.81528">
        <ele>263</ele>
        <time>2016-11-15T09:54:02Z</time>
      </trkpt>
      <trkpt lat="45.94149" lon="4.81538">
        <ele>264</ele>
        <time>2016-11-15T09:54:04Z</time>
      </trkpt>
      <trkpt lat="45.94149" lon="4.81543">
        <ele>264</ele>
        <time>2016-11-15T09:54:05Z</time>
      </trkpt>
      <trkpt lat="45.9415" lon="4.81553">
        <ele>264</ele>
        <time>2016-11-15T09:54:07Z</time>
      </trkpt>
      <trkpt lat="45.9415" lon="4.81557">
        <ele>265</ele>
        <time>2016-11-15T09:54:08Z</time>
      </trkpt>
      <trkpt lat="45.94151" lon="4.81566">
        <ele>265</ele>
        <time>2016-11-15T09:54:10Z</time>
      </trkpt>
      <trkpt lat="45.94152" lon="4.8157">
        <ele>265</ele>
        <time>2016-11-15T09:54:11Z</time>
      </trkpt>
      <trkpt lat="45.94154" lon="4.81579">
        <ele>266</ele>
        <time>2016-11-15T09:54:13Z</time>
      </trkpt>
      <trkpt lat="45.94155" lon="4.81582">
        <ele>266</ele>
        <time>2016-11-15T09:54:14Z</time>
      </trkpt>
      <trkpt lat="45.94157" lon="4.81595">
        <ele>267</ele>
        <time>2016-11-15T09:54:17Z</time>
      </trkpt>
      <trkpt lat="45.94158" lon="4.81598">
        <ele>267</ele>
        <time>2016-11-15T09:54:18Z</time>
      </trkpt>
      <trkpt lat="45.94161" lon="4.8161">
        <ele>267</ele>
        <time>2016-11-15T09:54:21Z</time>
      </trkpt>
      <trkpt lat="45.94162" lon="4.81614">
        <ele>267</ele>
        <time>2016-11-15T09:54:22Z</time>
      </trkpt>
      <trkpt lat="45.94164" lon="4.81626">
        <ele>268</ele>
        <time>2016-11-15T09:54:25Z</time>
      </trkpt>
      <trkpt lat="45.94165" lon="4.8163">
        <ele>268</ele>
        <time>2016-11-15T09:54:26Z</time>
      </trkpt>
      <trkpt lat="45.94167" lon="4.81641">
        <ele>268</ele>
        <time>2016-11-15T09:54:29Z</time>
      </trkpt>
      <trkpt lat="45.94168" lon="4.81645">
        <ele>268</ele>
        <time>2016-11-15T09:54:30Z</time>
      </trkpt>
      <trkpt lat="45.94169" lon="4.81658">
        <ele>268</ele>
        <time>2016-11-15T09:54:33Z</time>
      </trkpt>
      <trkpt lat="45.9417" lon="4.81662">
        <ele>269</ele>
        <time>2016-11-15T09:54:34Z</time>
      </trkpt>
      <trkpt lat="45.9417" lon="4.81672">
        <ele>268</ele>
        <time>2016-11-15T09:54:36Z</time>
      </trkpt>
      <trkpt lat="45.94171" lon="4.81677">
        <ele>268</ele>
        <time>2016-11-15T09:54:37Z</time>
      </trkpt>
      <trkpt lat="45.94174" lon="4.81685">
        <ele>268</ele>
        <time>2016-11-15T09:54:39Z</time>
      </trkpt>
      <trkpt lat="45.94175" lon="4.81689">
        <ele>267</ele>
        <time>2016-11-15T09:54:40Z</time>
      </trkpt>
      <trkpt lat="45.94178" lon="4.81697">
        <ele>267</ele>
        <time>2016-11-15T09:54:42Z</time>
      </trkpt>
      <trkpt lat="45.9418" lon="4.81701">
        <ele>267</ele>
        <time>2016-11-15T09:54:43Z</time>
      </trkpt>
      <trkpt lat="45.94181" lon="4.81713">
        <ele>267</ele>
        <time>2016-11-15T09:54:46Z</time>
      </trkpt>
      <trkpt lat="45.94182" lon="4.81717">
        <ele>267</ele>
        <time>2016-11-15T09:54:47Z</time>
      </trkpt>
      <trkpt lat="45.94183" lon="4.81726">
        <ele>267</ele>
        <time>2016-11-15T09:54:49Z</time>
      </trkpt>
      <trkpt lat="45.94184" lon="4.8173">
        <ele>267</ele>
        <time>2016-11-15T09:54:50Z</time>
      </trkpt>
      <trkpt lat="45.94186" lon="4.8174">
        <ele>267</ele>
        <time>2016-11-15T09:54:52Z</time>
      </trkpt>
      <trkpt lat="45.94187" lon="4.81745">
        <ele>267</ele>
        <time>2016-11-15T09:54:53Z</time>
      </trkpt>
      <trkpt lat="45.9419" lon="4.81754">
        <ele>266</ele>
        <time>2016-11-15T09:54:55Z</time>
      </trkpt>
      <trkpt lat="45.94192" lon="4.81758">
        <ele>266</ele>
        <time>2016-11-15T09:54:56Z</time>
      </trkpt>
      <trkpt lat="45.94195" lon="4.81769">
        <ele>266</ele>
        <time>2016-11-15T09:54:58Z</time>
      </trkpt>
      <trkpt lat="45.94195" lon="4.81774">
        <ele>266</ele>
        <time>2016-11-15T09:54:59Z</time>
      </trkpt>
      <trkpt lat="45.94196" lon="4.81784">
        <ele>266</ele>
        <time>2016-11-15T09:55:01Z</time>
      </trkpt>
      <trkpt lat="45.94196" lon="4.81789">
        <ele>266</ele>
        <time>2016-11-15T09:55:02Z</time>
      </trkpt>
      <trkpt lat="45.94197" lon="4.81799">
        <ele>266</ele>
        <time>2016-11-15T09:55:04Z</time>
      </trkpt>
      <trkpt lat="45.94197" lon="4.81804">
        <ele>266</ele>
        <time>2016-11-15T09:55:05Z</time>
      </trkpt>
      <trkpt lat="45.94198" lon="4.81815">
        <ele>266</ele>
        <time>2016-11-15T09:55:07Z</time>
      </trkpt>
      <trkpt lat="45.94199" lon="4.8182">
        <ele>266</ele>
        <time>2016-11-15T09:55:08Z</time>
      </trkpt>
      <trkpt lat="45.942" lon="4.8183">
        <ele>266</ele>
        <time>2016-11-15T09:55:10Z</time>
      </trkpt>
      <trkpt lat="45.94201" lon="4.81835">
        <ele>266</ele>
        <time>2016-11-15T09:55:11Z</time>
      </trkpt>
      <trkpt lat="45.94204" lon="4.81845">
        <ele>266</ele>
        <time>2016-11-15T09:55:13Z</time>
      </trkpt>
      <trkpt lat="45.94205" lon="4.8185">
        <ele>266</ele>
        <time>2016-11-15T09:55:14Z</time>
      </trkpt>
      <trkpt lat="45.94207" lon="4.81861">
        <ele>265</ele>
        <time>2016-11-15T09:55:16Z</time>
      </trkpt>
      <trkpt lat="45.94208" lon="4.81868">
        <ele>265</ele>
        <time>2016-11-15T09:55:17Z</time>
      </trkpt>
      <trkpt lat="45.94211" lon="4.81879">
        <ele>265</ele>
        <time>2016-11-15T09:55:19Z</time>
      </trkpt>
      <trkpt lat="45.94212" lon="4.81885">
        <ele>265</ele>
        <time>2016-11-15T09:55:20Z</time>
      </trkpt>
      <trkpt lat="45.94214" lon="4.81896">
        <ele>265</ele>
        <time>2016-11-15T09:55:22Z</time>
      </trkpt>
      <trkpt lat="45.94215" lon="4.81901">
        <ele>265</ele>
        <time>2016-11-15T09:55:23Z</time>
      </trkpt>
      <trkpt lat="45.94217" lon="4.81912">
        <ele>265</ele>
        <time>2016-11-15T09:55:25Z</time>
      </trkpt>
      <trkpt lat="45.94217" lon="4.81918">
        <ele>264</ele>
        <time>2016-11-15T09:55:26Z</time>
      </trkpt>
      <trkpt lat="45.94219" lon="4.8193">
        <ele>264</ele>
        <time>2016-11-15T09:55:28Z</time>
      </trkpt>
      <trkpt lat="45.9422" lon="4.81936">
        <ele>264</ele>
        <time>2016-11-15T09:55:29Z</time>
      </trkpt>
      <trkpt lat="45.94221" lon="4.81942">
        <ele>264</ele>
        <time>2016-11-15T09:55:30Z</time>
      </trkpt>
      <trkpt lat="45.94223" lon="4.81948">
        <ele>264</ele>
        <time>2016-11-15T09:55:31Z</time>
      </trkpt>
      <trkpt lat="45.94224" lon="4.81955">
        <ele>264</ele>
        <time>2016-11-15T09:55:32Z</time>
      </trkpt>
      <trkpt lat="45.94225" lon="4.81962">
        <ele>264</ele>
        <time>2016-11-15T09:55:33Z</time>
      </trkpt>
      <trkpt lat="45.94226" lon="4.81969">
        <ele>264</ele>
        <time>2016-11-15T09:55:34Z</time>
      </trkpt>
      <trkpt lat="45.94227" lon="4.81975">
        <ele>264</ele>
        <time>2016-11-15T09:55:35Z</time>
      </trkpt>
      <trkpt lat="45.94231" lon="4.81986">
        <ele>263</ele>
        <time>2016-11-15T09:55:37Z</time>
      </trkpt>
      <trkpt lat="45.94232" lon="4.81992">
        <ele>263</ele>
        <time>2016-11-15T09:55:38Z</time>
      </trkpt>
      <trkpt lat="45.94235" lon="4.82004">
        <ele>263</ele>
        <time>2016-11-15T09:55:40Z</time>
      </trkpt>
      <trkpt lat="45.94237" lon="4.8201">
        <ele>263</ele>
        <time>2016-11-15T09:55:41Z</time>
      </trkpt>
      <trkpt lat="45.9424" lon="4.82022">
        <ele>263</ele>
        <time>2016-11-15T09:55:43Z</time>
      </trkpt>
      <trkpt lat="45.94241" lon="4.82028">
        <ele>263</ele>
        <time>2016-11-15T09:55:44Z</time>
      </trkpt>
      <trkpt lat="45.94243" lon="4.8204">
        <ele>263</ele>
        <time>2016-11-15T09:55:46Z</time>
      </trkpt>
      <trkpt lat="45.94244" lon="4.82046">
        <ele>263</ele>
        <time>2016-11-15T09:55:47Z</time>
      </trkpt>
      <trkpt lat="45.94245" lon="4.82053">
        <ele>263</ele>
        <time>2016-11-15T09:55:48Z</time>
      </trkpt>
      <trkpt lat="45.94246" lon="4.8206">
        <ele>263</ele>
        <time>2016-11-15T09:55:49Z</time>
      </trkpt>
      <trkpt lat="45.94248" lon="4.82071">
        <ele>263</ele>
        <time>2016-11-15T09:55:51Z</time>
      </trkpt>
      <trkpt lat="45.94249" lon="4.82076">
        <ele>262</ele>
        <time>2016-11-15T09:55:52Z</time>
      </trkpt>
      <trkpt lat="45.94251" lon="4.82088">
        <ele>262</ele>
        <time>2016-11-15T09:55:54Z</time>
      </trkpt>
      <trkpt lat="45.94251" lon="4.82093">
        <ele>262</ele>
        <time>2016-11-15T09:55:55Z</time>
      </trkpt>
      <trkpt lat="45.94253" lon="4.82105">
        <ele>262</ele>
        <time>2016-11-15T09:55:57Z</time>
      </trkpt>
      <trkpt lat="45.94254" lon="4.82111">
        <ele>263</ele>
        <time>2016-11-15T09:55:58Z</time>
      </trkpt>
      <trkpt lat="45.94256" lon="4.82117">
        <ele>263</ele>
        <time>2016-11-15T09:55:59Z</time>
      </trkpt>
      <trkpt lat="45.94257" lon="4.82123">
        <ele>263</ele>
        <time>2016-11-15T09:56:00Z</time>
      </trkpt>
      <trkpt lat="45.9426" lon="4.82135">
        <ele>263</ele>
        <time>2016-11-15T09:56:02Z</time>
      </trkpt>
      <trkpt lat="45.94262" lon="4.82141">
        <ele>263</ele>
        <time>2016-11-15T09:56:03Z</time>
      </trkpt>
      <trkpt lat="45.94265" lon="4.82153">
        <ele>263</ele>
        <time>2016-11-15T09:56:05Z</time>
      </trkpt>
      <trkpt lat="45.94267" lon="4.82159">
        <ele>263</ele>
        <time>2016-11-15T09:56:06Z</time>
      </trkpt>
      <trkpt lat="45.94268" lon="4.82165">
        <ele>263</ele>
        <time>2016-11-15T09:56:07Z</time>
      </trkpt>
      <trkpt lat="45.94268" lon="4.82172">
        <ele>263</ele>
        <time>2016-11-15T09:56:08Z</time>
      </trkpt>
      <trkpt lat="45.94271" lon="4.82184">
        <ele>264</ele>
        <time>2016-11-15T09:56:10Z</time>
      </trkpt>
      <trkpt lat="45.94272" lon="4.8219">
        <ele>264</ele>
        <time>2016-11-15T09:56:11Z</time>
      </trkpt>
      <trkpt lat="45.94273" lon="4.82201">
        <ele>264</ele>
        <time>2016-11-15T09:56:13Z</time>
      </trkpt>
      <trkpt lat="45.94274" lon="4.82207">
        <ele>264</ele>
        <time>2016-11-15T09:56:14Z</time>
      </trkpt>
      <trkpt lat="45.94276" lon="4.82218">
        <ele>264</ele>
        <time>2016-11-15T09:56:16Z</time>
      </trkpt>
      <trkpt lat="45.94277" lon="4.82223">
        <ele>264</ele>
        <time>2016-11-15T09:56:17Z</time>
      </trkpt>
      <trkpt lat="45.94278" lon="4.8223">
        <ele>264</ele>
        <time>2016-11-15T09:56:18Z</time>
      </trkpt>
      <trkpt lat="45.94278" lon="4.82236">
        <ele>264</ele>
        <time>2016-11-15T09:56:19Z</time>
      </trkpt>
      <trkpt lat="45.94278" lon="4.82243">
        <ele>264</ele>
        <time>2016-11-15T09:56:20Z</time>
      </trkpt>
      <trkpt lat="45.94279" lon="4.8225">
        <ele>265</ele>
        <time>2016-11-15T09:56:21Z</time>
      </trkpt>
      <trkpt lat="45.94279" lon="4.82257">
        <ele>265</ele>
        <time>2016-11-15T09:56:22Z</time>
      </trkpt>
      <trkpt lat="45.94279" lon="4.82264">
        <ele>265</ele>
        <time>2016-11-15T09:56:23Z</time>
      </trkpt>
      <trkpt lat="45.9428" lon="4.82277">
        <ele>265</ele>
        <time>2016-11-15T09:56:25Z</time>
      </trkpt>
      <trkpt lat="45.94281" lon="4.82282">
        <ele>265</ele>
        <time>2016-11-15T09:56:26Z</time>
      </trkpt>
      <trkpt lat="45.94281" lon="4.82293">
        <ele>265</ele>
        <time>2016-11-15T09:56:28Z</time>
      </trkpt>
      <trkpt lat="45.94282" lon="4.82299">
        <ele>265</ele>
        <time>2016-11-15T09:56:29Z</time>
      </trkpt>
      <trkpt lat="45.94282" lon="4.8231">
        <ele>265</ele>
        <time>2016-11-15T09:56:31Z</time>
      </trkpt>
      <trkpt lat="45.94282" lon="4.82315">
        <ele>265</ele>
        <time>2016-11-15T09:56:32Z</time>
      </trkpt>
      <trkpt lat="45.94282" lon="4.82326">
        <ele>265</ele>
        <time>2016-11-15T09:56:34Z</time>
      </trkpt>
      <trkpt lat="45.94282" lon="4.82331">
        <ele>265</ele>
        <time>2016-11-15T09:56:35Z</time>
      </trkpt>
      <trkpt lat="45.94283" lon="4.82343">
        <ele>264</ele>
        <time>2016-11-15T09:56:37Z</time>
      </trkpt>
      <trkpt lat="45.94284" lon="4.82348">
        <ele>264</ele>
        <time>2016-11-15T09:56:38Z</time>
      </trkpt>
      <trkpt lat="45.94285" lon="4.8236">
        <ele>264</ele>
        <time>2016-11-15T09:56:40Z</time>
      </trkpt>
      <trkpt lat="45.94285" lon="4.82365">
        <ele>264</ele>
        <time>2016-11-15T09:56:41Z</time>
      </trkpt>
      <trkpt lat="45.94286" lon="4.82376">
        <ele>264</ele>
        <time>2016-11-15T09:56:43Z</time>
      </trkpt>
      <trkpt lat="45.94285" lon="4.82382">
        <ele>264</ele>
        <time>2016-11-15T09:56:44Z</time>
      </trkpt>
      <trkpt lat="45.94286" lon="4.82393">
        <ele>264</ele>
        <time>2016-11-15T09:56:46Z</time>
      </trkpt>
      <trkpt lat="45.94287" lon="4.82399">
        <ele>264</ele>
        <time>2016-11-15T09:56:47Z</time>
      </trkpt>
      <trkpt lat="45.94287" lon="4.82409">
        <ele>264</ele>
        <time>2016-11-15T09:56:49Z</time>
      </trkpt>
      <trkpt lat="45.94288" lon="4.82415">
        <ele>264</ele>
        <time>2016-11-15T09:56:50Z</time>
      </trkpt>
      <trkpt lat="45.94288" lon="4.82426">
        <ele>264</ele>
        <time>2016-11-15T09:56:52Z</time>
      </trkpt>
      <trkpt lat="45.94289" lon="4.82432">
        <ele>264</ele>
        <time>2016-11-15T09:56:53Z</time>
      </trkpt>
      <trkpt lat="45.9429" lon="4.82444">
        <ele>264</ele>
        <time>2016-11-15T09:56:55Z</time>
      </trkpt>
      <trkpt lat="45.9429" lon="4.8245">
        <ele>264</ele>
        <time>2016-11-15T09:56:56Z</time>
      </trkpt>
      <trkpt lat="45.94291" lon="4.82462">
        <ele>264</ele>
        <time>2016-11-15T09:56:58Z</time>
      </trkpt>
      <trkpt lat="45.94291" lon="4.82468">
        <ele>264</ele>
        <time>2016-11-15T09:56:59Z</time>
      </trkpt>
      <trkpt lat="45.94291" lon="4.8248">
        <ele>264</ele>
        <time>2016-11-15T09:57:01Z</time>
      </trkpt>
      <trkpt lat="45.94292" lon="4.82486">
        <ele>264</ele>
        <time>2016-11-15T09:57:02Z</time>
      </trkpt>
      <trkpt lat="45.94292" lon="4.82499">
        <ele>264</ele>
        <time>2016-11-15T09:57:04Z</time>
      </trkpt>
      <trkpt lat="45.94292" lon="4.82505">
        <ele>264</ele>
        <time>2016-11-15T09:57:05Z</time>
      </trkpt>
      <trkpt lat="45.94293" lon="4.82518">
        <ele>264</ele>
        <time>2016-11-15T09:57:07Z</time>
      </trkpt>
      <trkpt lat="45.94293" lon="4.82524">
        <ele>264</ele>
        <time>2016-11-15T09:57:08Z</time>
      </trkpt>
      <trkpt lat="45.94293" lon="4.82537">
        <ele>264</ele>
        <time>2016-11-15T09:57:10Z</time>
      </trkpt>
      <trkpt lat="45.94293" lon="4.82543">
        <ele>264</ele>
        <time>2016-11-15T09:57:11Z</time>
      </trkpt>
      <trkpt lat="45.94293" lon="4.82549">
        <ele>264</ele>
        <time>2016-11-15T09:57:12Z</time>
      </trkpt>
      <trkpt lat="45.94293" lon="4.82556">
        <ele>264</ele>
        <time>2016-11-15T09:57:13Z</time>
      </trkpt>
      <trkpt lat="45.94293" lon="4.82563">
        <ele>264</ele>
        <time>2016-11-15T09:57:14Z</time>
      </trkpt>
      <trkpt lat="45.94293" lon="4.8257">
        <ele>264</ele>
        <time>2016-11-15T09:57:15Z</time>
      </trkpt>
      <trkpt lat="45.94293" lon="4.82577">
        <ele>264</ele>
        <time>2016-11-15T09:57:16Z</time>
      </trkpt>
      <trkpt lat="45.94293" lon="4.82585">
        <ele>265</ele>
        <time>2016-11-15T09:57:17Z</time>
      </trkpt>
      <trkpt lat="45.94292" lon="4.82592">
        <ele>265</ele>
        <time>2016-11-15T09:57:18Z</time>
      </trkpt>
      <trkpt lat="45.94292" lon="4.82598">
        <ele>265</ele>
        <time>2016-11-15T09:57:19Z</time>
      </trkpt>
      <trkpt lat="45.94292" lon="4.82611">
        <ele>265</ele>
        <time>2016-11-15T09:57:21Z</time>
      </trkpt>
      <trkpt lat="45.94291" lon="4.82617">
        <ele>265</ele>
        <time>2016-11-15T09:57:22Z</time>
      </trkpt>
      <trkpt lat="45.94291" lon="4.8263">
        <ele>265</ele>
        <time>2016-11-15T09:57:24Z</time>
      </trkpt>
      <trkpt lat="45.94291" lon="4.82636">
        <ele>265</ele>
        <time>2016-11-15T09:57:25Z</time>
      </trkpt>
      <trkpt lat="45.9429" lon="4.82649">
        <ele>265</ele>
        <time>2016-11-15T09:57:27Z</time>
      </trkpt>
      <trkpt lat="45.9429" lon="4.82655">
        <ele>265</ele>
        <time>2016-11-15T09:57:28Z</time>
      </trkpt>
      <trkpt lat="45.9429" lon="4.82668">
        <ele>265</ele>
        <time>2016-11-15T09:57:30Z</time>
      </trkpt>
      <trkpt lat="45.9429" lon="4.82675">
        <ele>265</ele>
        <time>2016-11-15T09:57:31Z</time>
      </trkpt>
      <trkpt lat="45.9429" lon="4.82682">
        <ele>265</ele>
        <time>2016-11-15T09:57:32Z</time>
      </trkpt>
      <trkpt lat="45.94289" lon="4.82689">
        <ele>265</ele>
        <time>2016-11-15T09:57:33Z</time>
      </trkpt>
      <trkpt lat="45.94289" lon="4.82696">
        <ele>265</ele>
        <time>2016-11-15T09:57:34Z</time>
      </trkpt>
      <trkpt lat="45.94289" lon="4.82703">
        <ele>265</ele>
        <time>2016-11-15T09:57:35Z</time>
      </trkpt>
      <trkpt lat="45.94289" lon="4.82709">
        <ele>265</ele>
        <time>2016-11-15T09:57:36Z</time>
      </trkpt>
      <trkpt lat="45.94289" lon="4.82716">
        <ele>265</ele>
        <time>2016-11-15T09:57:37Z</time>
      </trkpt>
      <trkpt lat="45.94289" lon="4.82729">
        <ele>265</ele>
        <time>2016-11-15T09:57:39Z</time>
      </trkpt>
      <trkpt lat="45.94289" lon="4.82735">
        <ele>265</ele>
        <time>2016-11-15T09:57:40Z</time>
      </trkpt>
      <trkpt lat="45.94289" lon="4.82741">
        <ele>265</ele>
        <time>2016-11-15T09:57:41Z</time>
      </trkpt>
      <trkpt lat="45.94288" lon="4.82748">
        <ele>265</ele>
        <time>2016-11-15T09:57:42Z</time>
      </trkpt>
      <trkpt lat="45.94288" lon="4.82755">
        <ele>265</ele>
        <time>2016-11-15T09:57:43Z</time>
      </trkpt>
      <trkpt lat="45.94288" lon="4.82762">
        <ele>265</ele>
        <time>2016-11-15T09:57:44Z</time>
      </trkpt>
      <trkpt lat="45.94288" lon="4.82769">
        <ele>265</ele>
        <time>2016-11-15T09:57:45Z</time>
      </trkpt>
      <trkpt lat="45.94288" lon="4.82776">
        <ele>265</ele>
        <time>2016-11-15T09:57:46Z</time>
      </trkpt>
      <trkpt lat="45.94289" lon="4.82783">
        <ele>265</ele>
        <time>2016-11-15T09:57:47Z</time>
      </trkpt>
      <trkpt lat="45.94289" lon="4.8279">
        <ele>265</ele>
        <time>2016-11-15T09:57:48Z</time>
      </trkpt>
      <trkpt lat="45.94289" lon="4.82797">
        <ele>265</ele>
        <time>2016-11-15T09:57:49Z</time>
      </trkpt>
      <trkpt lat="45.94289" lon="4.82803">
        <ele>265</ele>
        <time>2016-11-15T09:57:50Z</time>
      </trkpt>
      <trkpt lat="45.94288" lon="4.82816">
        <ele>265</ele>
        <time>2016-11-15T09:57:52Z</time>
      </trkpt>
      <trkpt lat="45.94288" lon="4.82822">
        <ele>265</ele>
        <time>2016-11-15T09:57:53Z</time>
      </trkpt>
      <trkpt lat="45.94288" lon="4.82828">
        <ele>265</ele>
        <time>2016-11-15T09:57:54Z</time>
      </trkpt>
      <trkpt lat="45.94288" lon="4.82835">
        <ele>265</ele>
        <time>2016-11-15T09:57:55Z</time>
      </trkpt>
      <trkpt lat="45.94288" lon="4.82843">
        <ele>265</ele>
        <time>2016-11-15T09:57:56Z</time>
      </trkpt>
      <trkpt lat="45.94288" lon="4.8285">
        <ele>265</ele>
        <time>2016-11-15T09:57:57Z</time>
      </trkpt>
      <trkpt lat="45.94287" lon="4.82857">
        <ele>265</ele>
        <time>2016-11-15T09:57:58Z</time>
      </trkpt>
      <trkpt lat="45.94288" lon="4.82865">
        <ele>265</ele>
        <time>2016-11-15T09:57:59Z</time>
      </trkpt>
      <trkpt lat="45.94288" lon="4.82872">
        <ele>265</ele>
        <time>2016-11-15T09:58:00Z</time>
      </trkpt>
      <trkpt lat="45.94288" lon="4.82879">
        <ele>265</ele>
        <time>2016-11-15T09:58:01Z</time>
      </trkpt>
      <trkpt lat="45.94289" lon="4.82886">
        <ele>265</ele>
        <time>2016-11-15T09:58:02Z</time>
      </trkpt>
      <trkpt lat="45.94288" lon="4.82893">
        <ele>265</ele>
        <time>2016-11-15T09:58:03Z</time>
      </trkpt>
      <trkpt lat="45.94288" lon="4.829">
        <ele>265</ele>
        <time>2016-11-15T09:58:04Z</time>
      </trkpt>
      <trkpt lat="45.94287" lon="4.82907">
        <ele>265</ele>
        <time>2016-11-15T09:58:05Z</time>
      </trkpt>
      <trkpt lat="45.94286" lon="4.82914">
        <ele>265</ele>
        <time>2016-11-15T09:58:06Z</time>
      </trkpt>
      <trkpt lat="45.94285" lon="4.8292">
        <ele>265</ele>
        <time>2016-11-15T09:58:07Z</time>
      </trkpt>
      <trkpt lat="45.94284" lon="4.82927">
        <ele>265</ele>
        <time>2016-11-15T09:58:08Z</time>
      </trkpt>
      <trkpt lat="45.94283" lon="4.82934">
        <ele>265</ele>
        <time>2016-11-15T09:58:09Z</time>
      </trkpt>
      <trkpt lat="45.94282" lon="4.82942">
        <ele>265</ele>
        <time>2016-11-15T09:58:10Z</time>
      </trkpt>
      <trkpt lat="45.94282" lon="4.82949">
        <ele>265</ele>
        <time>2016-11-15T09:58:11Z</time>
      </trkpt>
      <trkpt lat="45.94283" lon="4.82957">
        <ele>265</ele>
        <time>2016-11-15T09:58:12Z</time>
      </trkpt>
      <trkpt lat="45.94284" lon="4.82964">
        <ele>265</ele>
        <time>2016-11-15T09:58:13Z</time>
      </trkpt>
      <trkpt lat="45.94286" lon="4.8297">
        <ele>265</ele>
        <time>2016-11-15T09:58:14Z</time>
      </trkpt>
      <trkpt lat="45.94287" lon="4.82977">
        <ele>265</ele>
        <time>2016-11-15T09:58:15Z</time>
      </trkpt>
      <trkpt lat="45.94289" lon="4.82984">
        <ele>265</ele>
        <time>2016-11-15T09:58:16Z</time>
      </trkpt>
      <trkpt lat="45.9429" lon="4.82991">
        <ele>265</ele>
        <time>2016-11-15T09:58:17Z</time>
      </trkpt>
      <trkpt lat="45.94291" lon="4.82998">
        <ele>265</ele>
        <time>2016-11-15T09:58:18Z</time>
      </trkpt>
      <trkpt lat="45.94292" lon="4.83004">
        <ele>266</ele>
        <time>2016-11-15T09:58:19Z</time>
      </trkpt>
      <trkpt lat="45.94293" lon="4.83011">
        <ele>266</ele>
        <time>2016-11-15T09:58:20Z</time>
      </trkpt>
      <trkpt lat="45.94295" lon="4.83018">
        <ele>266</ele>
        <time>2016-11-15T09:58:21Z</time>
      </trkpt>
      <trkpt lat="45.94296" lon="4.83024">
        <ele>266</ele>
        <time>2016-11-15T09:58:22Z</time>
      </trkpt>
      <trkpt lat="45.94298" lon="4.8303">
        <ele>266</ele>
        <time>2016-11-15T09:58:23Z</time>
      </trkpt>
      <trkpt lat="45.94299" lon="4.83037">
        <ele>266</ele>
        <time>2016-11-15T09:58:24Z</time>
      </trkpt>
      <trkpt lat="45.94301" lon="4.83043">
        <ele>266</ele>
        <time>2016-11-15T09:58:25Z</time>
      </trkpt>
      <trkpt lat="45.94303" lon="4.8305">
        <ele>266</ele>
        <time>2016-11-15T09:58:26Z</time>
      </trkpt>
      <trkpt lat="45.94305" lon="4.83056">
        <ele>266</ele>
        <time>2016-11-15T09:58:27Z</time>
      </trkpt>
      <trkpt lat="45.94306" lon="4.83063">
        <ele>266</ele>
        <time>2016-11-15T09:58:28Z</time>
      </trkpt>
      <trkpt lat="45.94308" lon="4.8307">
        <ele>266</ele>
        <time>2016-11-15T09:58:29Z</time>
      </trkpt>
      <trkpt lat="45.94309" lon="4.83077">
        <ele>266</ele>
        <time>2016-11-15T09:58:30Z</time>
      </trkpt>
      <trkpt lat="45.94311" lon="4.83084">
        <ele>266</ele>
        <time>2016-11-15T09:58:31Z</time>
      </trkpt>
      <trkpt lat="45.94313" lon="4.83091">
        <ele>266</ele>
        <time>2016-11-15T09:58:32Z</time>
      </trkpt>
      <trkpt lat="45.94315" lon="4.83098">
        <ele>266</ele>
        <time>2016-11-15T09:58:33Z</time>
      </trkpt>
      <trkpt lat="45.94317" lon="4.83105">
        <ele>266</ele>
        <time>2016-11-15T09:58:34Z</time>
      </trkpt>
      <trkpt lat="45.94319" lon="4.83112">
        <ele>266</ele>
        <time>2016-11-15T09:58:35Z</time>
      </trkpt>
      <trkpt lat="45.94321" lon="4.83118">
        <ele>266</ele>
        <time>2016-11-15T09:58:36Z</time>
      </trkpt>
      <trkpt lat="45.94323" lon="4.83125">
        <ele>266</ele>
        <time>2016-11-15T09:58:37Z</time>
      </trkpt>
      <trkpt lat="45.94325" lon="4.83131">
        <ele>266</ele>
        <time>2016-11-15T09:58:38Z</time>
      </trkpt>
      <trkpt lat="45.94327" lon="4.83137">
        <ele>266</ele>
        <time>2016-11-15T09:58:39Z</time>
      </trkpt>
      <trkpt lat="45.9433" lon="4.83143">
        <ele>266</ele>
        <time>2016-11-15T09:58:40Z</time>
      </trkpt>
      <trkpt lat="45.94332" lon="4.8315">
        <ele>266</ele>
        <time>2016-11-15T09:58:41Z</time>
      </trkpt>
      <trkpt lat="45.94334" lon="4.83157">
        <ele>266</ele>
        <time>2016-11-15T09:58:42Z</time>
      </trkpt>
      <trkpt lat="45.94337" lon="4.83164">
        <ele>266</ele>
        <time>2016-11-15T09:58:43Z</time>
      </trkpt>
      <trkpt lat="45.94339" lon="4.83171">
        <ele>266</ele>
        <time>2016-11-15T09:58:44Z</time>
      </trkpt>
      <trkpt lat="45.94342" lon="4.83179">
        <ele>266</ele>
        <time>2016-11-15T09:58:45Z</time>
      </trkpt>
      <trkpt lat="45.94344" lon="4.83188">
        <ele>266</ele>
        <time>2016-11-15T09:58:46Z</time>
      </trkpt>
      <trkpt lat="45.94348" lon="4.83196">
        <ele>266</ele>
        <time>2016-11-15T09:58:47Z</time>
      </trkpt>
      <trkpt lat="45.94351" lon="4.83204">
        <ele>266</ele>
        <time>2016-11-15T09:58:48Z</time>
      </trkpt>
      <trkpt lat="45.94354" lon="4.83211">
        <ele>266</ele>
        <time>2016-11-15T09:58:49Z</time>
      </trkpt>
      <trkpt lat="45.94357" lon="4.83219">
        <ele>266</ele>
        <time>2016-11-15T09:58:50Z</time>
      </trkpt>
      <trkpt lat="45.94359" lon="4.83227">
        <ele>266</ele>
        <time>2016-11-15T09:58:51Z</time>
      </trkpt>
      <trkpt lat="45.94362" lon="4.83234">
        <ele>266</ele>
        <time>2016-11-15T09:58:52Z</time>
      </trkpt>
      <trkpt lat="45.94365" lon="4.83242">
        <ele>265</ele>
        <time>2016-11-15T09:58:53Z</time>
      </trkpt>
      <trkpt lat="45.94368" lon="4.83249">
        <ele>265</ele>
        <time>2016-11-15T09:58:54Z</time>
      </trkpt>
      <trkpt lat="45.9437" lon="4.83257">
        <ele>265</ele>
        <time>2016-11-15T09:58:55Z</time>
      </trkpt>
      <trkpt lat="45.94373" lon="4.83264">
        <ele>264</ele>
        <time>2016-11-15T09:58:56Z</time>
      </trkpt>
      <trkpt lat="45.94376" lon="4.83271">
        <ele>264</ele>
        <time>2016-11-15T09:58:57Z</time>
      </trkpt>
      <trkpt lat="45.94379" lon="4.83278">
        <ele>264</ele>
        <time>2016-11-15T09:58:58Z</time>
      </trkpt>
      <trkpt lat="45.94381" lon="4.83285">
        <ele>264</ele>
        <time>2016-11-15T09:58:59Z</time>
      </trkpt>
      <trkpt lat="45.94384" lon="4.83291">
        <ele>264</ele>
        <time>2016-11-15T09:59:00Z</time>
      </trkpt>
      <trkpt lat="45.94385" lon="4.83298">
        <ele>264</ele>
        <time>2016-11-15T09:59:01Z</time>
      </trkpt>
      <trkpt lat="45.94388" lon="4.83305">
        <ele>264</ele>
        <time>2016-11-15T09:59:02Z</time>
      </trkpt>
      <trkpt lat="45.9439" lon="4.83312">
        <ele>264</ele>
        <time>2016-11-15T09:59:03Z</time>
      </trkpt>
      <trkpt lat="45.94393" lon="4.83319">
        <ele>264</ele>
        <time>2016-11-15T09:59:04Z</time>
      </trkpt>
      <trkpt lat="45.94395" lon="4.83326">
        <ele>264</ele>
        <time>2016-11-15T09:59:05Z</time>
      </trkpt>
      <trkpt lat="45.94398" lon="4.83333">
        <ele>264</ele>
        <time>2016-11-15T09:59:06Z</time>
      </trkpt>
      <trkpt lat="45.944" lon="4.8334">
        <ele>263</ele>
        <time>2016-11-15T09:59:07Z</time>
      </trkpt>
      <trkpt lat="45.94402" lon="4.83347">
        <ele>263</ele>
        <time>2016-11-15T09:59:08Z</time>
      </trkpt>
      <trkpt lat="45.94405" lon="4.83354">
        <ele>263</ele>
        <time>2016-11-15T09:59:09Z</time>
      </trkpt>
      <trkpt lat="45.94408" lon="4.83361">
        <ele>264</ele>
        <time>2016-11-15T09:59:10Z</time>
      </trkpt>
      <trkpt lat="45.94411" lon="4.83368">
        <ele>264</ele>
        <time>2016-11-15T09:59:11Z</time>
      </trkpt>
      <trkpt lat="45.94414" lon="4.83375">
        <ele>264</ele>
        <time>2016-11-15T09:59:12Z</time>
      </trkpt>
      <trkpt lat="45.94417" lon="4.83382">
        <ele>264</ele>
        <time>2016-11-15T09:59:13Z</time>
      </trkpt>
      <trkpt lat="45.9442" lon="4.83389">
        <ele>264</ele>
        <time>2016-11-15T09:59:14Z</time>
      </trkpt>
      <trkpt lat="45.94423" lon="4.83396">
        <ele>264</ele>
        <time>2016-11-15T09:59:15Z</time>
      </trkpt>
      <trkpt lat="45.94426" lon="4.83402">
        <ele>264</ele>
        <time>2016-11-15T09:59:16Z</time>
      </trkpt>
      <trkpt lat="45.94429" lon="4.83409">
        <ele>264</ele>
        <time>2016-11-15T09:59:17Z</time>
      </trkpt>
      <trkpt lat="45.94433" lon="4.83415">
        <ele>264</ele>
        <time>2016-11-15T09:59:18Z</time>
      </trkpt>
      <trkpt lat="45.94436" lon="4.83421">
        <ele>264</ele>
        <time>2016-11-15T09:59:19Z</time>
      </trkpt>
      <trkpt lat="45.94439" lon="4.83427">
        <ele>264</ele>
        <time>2016-11-15T09:59:20Z</time>
      </trkpt>
      <trkpt lat="45.94442" lon="4.83433">
        <ele>263</ele>
        <time>2016-11-15T09:59:21Z</time>
      </trkpt>
      <trkpt lat="45.94445" lon="4.83439">
        <ele>263</ele>
        <time>2016-11-15T09:59:22Z</time>
      </trkpt>
      <trkpt lat="45.94449" lon="4.83445">
        <ele>263</ele>
        <time>2016-11-15T09:59:23Z</time>
      </trkpt>
      <trkpt lat="45.94452" lon="4.83452">
        <ele>263</ele>
        <time>2016-11-15T09:59:24Z</time>
      </trkpt>
      <trkpt lat="45.94456" lon="4.83459">
        <ele>263</ele>
        <time>2016-11-15T09:59:25Z</time>
      </trkpt>
      <trkpt lat="45.9446" lon="4.83466">
        <ele>263</ele>
        <time>2016-11-15T09:59:26Z</time>
      </trkpt>
      <trkpt lat="45.94464" lon="4.83473">
        <ele>263</ele>
        <time>2016-11-15T09:59:27Z</time>
      </trkpt>
      <trkpt lat="45.94468" lon="4.83481">
        <ele>263</ele>
        <time>2016-11-15T09:59:28Z</time>
      </trkpt>
      <trkpt lat="45.94472" lon="4.83488">
        <ele>263</ele>
        <time>2016-11-15T09:59:29Z</time>
      </trkpt>
      <trkpt lat="45.94476" lon="4.83495">
        <ele>263</ele>
        <time>2016-11-15T09:59:30Z</time>
      </trkpt>
      <trkpt lat="45.94479" lon="4.83502">
        <ele>262</ele>
        <time>2016-11-15T09:59:31Z</time>
      </trkpt>
      <trkpt lat="45.94483" lon="4.83508">
        <ele>262</ele>
        <time>2016-11-15T09:59:32Z</time>
      </trkpt>
      <trkpt lat="45.94488" lon="4.83514">
        <ele>262</ele>
        <time>2016-11-15T09:59:33Z</time>
      </trkpt>
      <trkpt lat="45.94492" lon="4.8352">
        <ele>262</ele>
        <time>2016-11-15T09:59:34Z</time>
      </trkpt>
      <trkpt lat="45.94495" lon="4.83526">
        <ele>262</ele>
        <time>2016-11-15T09:59:35Z</time>
      </trkpt>
      <trkpt lat="45.94499" lon="4.83533">
        <ele>262</ele>
        <time>2016-11-15T09:59:36Z</time>
      </trkpt>
      <trkpt lat="45.94503" lon="4.8354">
        <ele>262</ele>
        <time>2016-11-15T09:59:37Z</time>
      </trkpt>
      <trkpt lat="45.94506" lon="4.83546">
        <ele>261</ele>
        <time>2016-11-15T09:59:38Z</time>
      </trkpt>
      <trkpt lat="45.9451" lon="4.83553">
        <ele>261</ele>
        <time>2016-11-15T09:59:39Z</time>
      </trkpt>
      <trkpt lat="45.94513" lon="4.83559">
        <ele>261</ele>
        <time>2016-11-15T09:59:40Z</time>
      </trkpt>
      <trkpt lat="45.94516" lon="4.83566">
        <ele>261</ele>
        <time>2016-11-15T09:59:41Z</time>
      </trkpt>
      <trkpt lat="45.94519" lon="4.83573">
        <ele>261</ele>
        <time>2016-11-15T09:59:42Z</time>
      </trkpt>
      <trkpt lat="45.94522" lon="4.83581">
        <ele>261</ele>
        <time>2016-11-15T09:59:43Z</time>
      </trkpt>
      <trkpt lat="45.94525" lon="4.83588">
        <ele>261</ele>
        <time>2016-11-15T09:59:44Z</time>
      </trkpt>
      <trkpt lat="45.94527" lon="4.83595">
        <ele>261</ele>
        <time>2016-11-15T09:59:45Z</time>
      </trkpt>
      <trkpt lat="45.94529" lon="4.83602">
        <ele>261</ele>
        <time>2016-11-15T09:59:46Z</time>
      </trkpt>
      <trkpt lat="45.9453" lon="4.8361">
        <ele>261</ele>
        <time>2016-11-15T09:59:47Z</time>
      </trkpt>
      <trkpt lat="45.94532" lon="4.83618">
        <ele>261</ele>
        <time>2016-11-15T09:59:48Z</time>
      </trkpt>
      <trkpt lat="45.94533" lon="4.83625">
        <ele>261</ele>
        <time>2016-11-15T09:59:49Z</time>
      </trkpt>
      <trkpt lat="45.94534" lon="4.83632">
        <ele>261</ele>
        <time>2016-11-15T09:59:50Z</time>
      </trkpt>
      <trkpt lat="45.94535" lon="4.8364">
        <ele>261</ele>
        <time>2016-11-15T09:59:51Z</time>
      </trkpt>
      <trkpt lat="45.94537" lon="4.83648">
        <ele>261</ele>
        <time>2016-11-15T09:59:52Z</time>
      </trkpt>
      <trkpt lat="45.94538" lon="4.83656">
        <ele>261</ele>
        <time>2016-11-15T09:59:53Z</time>
      </trkpt>
      <trkpt lat="45.94539" lon="4.83665">
        <ele>261</ele>
        <time>2016-11-15T09:59:54Z</time>
      </trkpt>
      <trkpt lat="45.9454" lon="4.83673">
        <ele>262</ele>
        <time>2016-11-15T09:59:55Z</time>
      </trkpt>
      <trkpt lat="45.94542" lon="4.83682">
        <ele>262</ele>
        <time>2016-11-15T09:59:56Z</time>
      </trkpt>
      <trkpt lat="45.94543" lon="4.8369">
        <ele>262</ele>
        <time>2016-11-15T09:59:57Z</time>
      </trkpt>
      <trkpt lat="45.94544" lon="4.83698">
        <ele>262</ele>
        <time>2016-11-15T09:59:58Z</time>
      </trkpt>
      <trkpt lat="45.94546" lon="4.83706">
        <ele>262</ele>
        <time>2016-11-15T09:59:59Z</time>
      </trkpt>
      <trkpt lat="45.94547" lon="4.83713">
        <ele>262</ele>
        <time>2016-11-15T10:00:00Z</time>
      </trkpt>
      <trkpt lat="45.94548" lon="4.83721">
        <ele>262</ele>
        <time>2016-11-15T10:00:01Z</time>
      </trkpt>
      <trkpt lat="45.94549" lon="4.83728">
        <ele>262</ele>
        <time>2016-11-15T10:00:02Z</time>
      </trkpt>
      <trkpt lat="45.9455" lon="4.83734">
        <ele>262</ele>
        <time>2016-11-15T10:00:03Z</time>
      </trkpt>
      <trkpt lat="45.94551" lon="4.83741">
        <ele>262</ele>
        <time>2016-11-15T10:00:04Z</time>
      </trkpt>
      <trkpt lat="45.94552" lon="4.83748">
        <ele>262</ele>
        <time>2016-11-15T10:00:05Z</time>
      </trkpt>
      <trkpt lat="45.94553" lon="4.83754">
        <ele>263</ele>
        <time>2016-11-15T10:00:06Z</time>
      </trkpt>
      <trkpt lat="45.94555" lon="4.83761">
        <ele>263</ele>
        <time>2016-11-15T10:00:07Z</time>
      </trkpt>
      <trkpt lat="45.94556" lon="4.83769">
        <ele>263</ele>
        <time>2016-11-15T10:00:08Z</time>
      </trkpt>
      <trkpt lat="45.94557" lon="4.83776">
        <ele>264</ele>
        <time>2016-11-15T10:00:09Z</time>
      </trkpt>
      <trkpt lat="45.94558" lon="4.83784">
        <ele>264</ele>
        <time>2016-11-15T10:00:10Z</time>
      </trkpt>
      <trkpt lat="45.94559" lon="4.83791">
        <ele>264</ele>
        <time>2016-11-15T10:00:11Z</time>
      </trkpt>
      <trkpt lat="45.9456" lon="4.83799">
        <ele>264</ele>
        <time>2016-11-15T10:00:12Z</time>
      </trkpt>
      <trkpt lat="45.94561" lon="4.83807">
        <ele>264</ele>
        <time>2016-11-15T10:00:13Z</time>
      </trkpt>
      <trkpt lat="45.94562" lon="4.83815">
        <ele>264</ele>
        <time>2016-11-15T10:00:14Z</time>
      </trkpt>
      <trkpt lat="45.94563" lon="4.83822">
        <ele>264</ele>
        <time>2016-11-15T10:00:15Z</time>
      </trkpt>
      <trkpt lat="45.94564" lon="4.8383">
        <ele>265</ele>
        <time>2016-11-15T10:00:16Z</time>
      </trkpt>
      <trkpt lat="45.94564" lon="4.83837">
        <ele>266</ele>
        <time>2016-11-15T10:00:17Z</time>
      </trkpt>
      <trkpt lat="45.94566" lon="4.83845">
        <ele>266</ele>
        <time>2016-11-15T10:00:18Z</time>
      </trkpt>
      <trkpt lat="45.94567" lon="4.83852">
        <ele>266</ele>
        <time>2016-11-15T10:00:19Z</time>
      </trkpt>
      <trkpt lat="45.94569" lon="4.83859">
        <ele>267</ele>
        <time>2016-11-15T10:00:20Z</time>
      </trkpt>
      <trkpt lat="45.9457" lon="4.83866">
        <ele>267</ele>
        <time>2016-11-15T10:00:21Z</time>
      </trkpt>
      <trkpt lat="45.94571" lon="4.83874">
        <ele>267</ele>
        <time>2016-11-15T10:00:22Z</time>
      </trkpt>
      <trkpt lat="45.94572" lon="4.83881">
        <ele>267</ele>
        <time>2016-11-15T10:00:23Z</time>
      </trkpt>
      <trkpt lat="45.94573" lon="4.83887">
        <ele>267</ele>
        <time>2016-11-15T10:00:24Z</time>
      </trkpt>
      <trkpt lat="45.94574" lon="4.83894">
        <ele>267</ele>
        <time>2016-11-15T10:00:25Z</time>
      </trkpt>
      <trkpt lat="45.94575" lon="4.83901">
        <ele>268</ele>
        <time>2016-11-15T10:00:26Z</time>
      </trkpt>
      <trkpt lat="45.94576" lon="4.83907">
        <ele>268</ele>
        <time>2016-11-15T10:00:27Z</time>
      </trkpt>
      <trkpt lat="45.94577" lon="4.83914">
        <ele>268</ele>
        <time>2016-11-15T10:00:28Z</time>
      </trkpt>
      <trkpt lat="45.94578" lon="4.8392">
        <ele>268</ele>
        <time>2016-11-15T10:00:29Z</time>
      </trkpt>
      <trkpt lat="45.94581" lon="4.83932">
        <ele>268</ele>
        <time>2016-11-15T10:00:31Z</time>
      </trkpt>
      <trkpt lat="45.94582" lon="4.83938">
        <ele>269</ele>
        <time>2016-11-15T10:00:32Z</time>
      </trkpt>
      <trkpt lat="45.94584" lon="4.8395">
        <ele>268</ele>
        <time>2016-11-15T10:00:34Z</time>
      </trkpt>
      <trkpt lat="45.94585" lon="4.83956">
        <ele>268</ele>
        <time>2016-11-15T10:00:35Z</time>
      </trkpt>
      <trkpt lat="45.94586" lon="4.83968">
        <ele>268</ele>
        <time>2016-11-15T10:00:37Z</time>
      </trkpt>
      <trkpt lat="45.94587" lon="4.83974">
        <ele>268</ele>
        <time>2016-11-15T10:00:38Z</time>
      </trkpt>
      <trkpt lat="45.94589" lon="4.83986">
        <ele>269</ele>
        <time>2016-11-15T10:00:40Z</time>
      </trkpt>
      <trkpt lat="45.9459" lon="4.83992">
        <ele>269</ele>
        <time>2016-11-15T10:00:41Z</time>
      </trkpt>
      <trkpt lat="45.94592" lon="4.84004">
        <ele>269</ele>
        <time>2016-11-15T10:00:43Z</time>
      </trkpt>
      <trkpt lat="45.94593" lon="4.8401">
        <ele>269</ele>
        <time>2016-11-15T10:00:44Z</time>
      </trkpt>
      <trkpt lat="45.94595" lon="4.8402">
        <ele>269</ele>
        <time>2016-11-15T10:00:46Z</time>
      </trkpt>
      <trkpt lat="45.94595" lon="4.84026">
        <ele>269</ele>
        <time>2016-11-15T10:00:47Z</time>
      </trkpt>
      <trkpt lat="45.94597" lon="4.84037">
        <ele>269</ele>
        <time>2016-11-15T10:00:49Z</time>
      </trkpt>
      <trkpt lat="45.94598" lon="4.84043">
        <ele>269</ele>
        <time>2016-11-15T10:00:50Z</time>
      </trkpt>
      <trkpt lat="45.946" lon="4.84056">
        <ele>269</ele>
        <time>2016-11-15T10:00:52Z</time>
      </trkpt>
      <trkpt lat="45.94601" lon="4.84061">
        <ele>269</ele>
        <time>2016-11-15T10:00:53Z</time>
      </trkpt>
      <trkpt lat="45.94602" lon="4.84068">
        <ele>269</ele>
        <time>2016-11-15T10:00:54Z</time>
      </trkpt>
      <trkpt lat="45.94603" lon="4.84074">
        <ele>269</ele>
        <time>2016-11-15T10:00:55Z</time>
      </trkpt>
      <trkpt lat="45.94604" lon="4.8408">
        <ele>269</ele>
        <time>2016-11-15T10:00:56Z</time>
      </trkpt>
      <trkpt lat="45.94605" lon="4.84087">
        <ele>269</ele>
        <time>2016-11-15T10:00:57Z</time>
      </trkpt>
      <trkpt lat="45.94606" lon="4.84093">
        <ele>269</ele>
        <time>2016-11-15T10:00:58Z</time>
      </trkpt>
      <trkpt lat="45.94606" lon="4.841">
        <ele>269</ele>
        <time>2016-11-15T10:00:59Z</time>
      </trkpt>
      <trkpt lat="45.94607" lon="4.84106">
        <ele>269</ele>
        <time>2016-11-15T10:01:00Z</time>
      </trkpt>
      <trkpt lat="45.94608" lon="4.84113">
        <ele>269</ele>
        <time>2016-11-15T10:01:01Z</time>
      </trkpt>
      <trkpt lat="45.94609" lon="4.8412">
        <ele>269</ele>
        <time>2016-11-15T10:01:02Z</time>
      </trkpt>
      <trkpt lat="45.9461" lon="4.84127">
        <ele>269</ele>
        <time>2016-11-15T10:01:03Z</time>
      </trkpt>
      <trkpt lat="45.94611" lon="4.84133">
        <ele>269</ele>
        <time>2016-11-15T10:01:04Z</time>
      </trkpt>
      <trkpt lat="45.94612" lon="4.8414">
        <ele>269</ele>
        <time>2016-11-15T10:01:05Z</time>
      </trkpt>
      <trkpt lat="45.94613" lon="4.84147">
        <ele>269</ele>
        <time>2016-11-15T10:01:06Z</time>
      </trkpt>
      <trkpt lat="45.94614" lon="4.84154">
        <ele>269</ele>
        <time>2016-11-15T10:01:07Z</time>
      </trkpt>
      <trkpt lat="45.94615" lon="4.84161">
        <ele>269</ele>
        <time>2016-11-15T10:01:08Z</time>
      </trkpt>
      <trkpt lat="45.94616" lon="4.84168">
        <ele>269</ele>
        <time>2016-11-15T10:01:09Z</time>
      </trkpt>
      <trkpt lat="45.94617" lon="4.84175">
        <ele>269</ele>
        <time>2016-11-15T10:01:10Z</time>
      </trkpt>
      <trkpt lat="45.94618" lon="4.84181">
        <ele>269</ele>
        <time>2016-11-15T10:01:11Z</time>
      </trkpt>
      <trkpt lat="45.9462" lon="4.84188">
        <ele>269</ele>
        <time>2016-11-15T10:01:12Z</time>
      </trkpt>
      <trkpt lat="45.94621" lon="4.84195">
        <ele>269</ele>
        <time>2016-11-15T10:01:13Z</time>
      </trkpt>
      <trkpt lat="45.94622" lon="4.84202">
        <ele>269</ele>
        <time>2016-11-15T10:01:14Z</time>
      </trkpt>
      <trkpt lat="45.94623" lon="4.84208">
        <ele>269</ele>
        <time>2016-11-15T10:01:15Z</time>
      </trkpt>
      <trkpt lat="45.94624" lon="4.84215">
        <ele>269</ele>
        <time>2016-11-15T10:01:16Z</time>
      </trkpt>
      <trkpt lat="45.94625" lon="4.84222">
        <ele>269</ele>
        <time>2016-11-15T10:01:17Z</time>
      </trkpt>
      <trkpt lat="45.94625" lon="4.84229">
        <ele>269</ele>
        <time>2016-11-15T10:01:18Z</time>
      </trkpt>
      <trkpt lat="45.94626" lon="4.84236">
        <ele>269</ele>
        <time>2016-11-15T10:01:19Z</time>
      </trkpt>
      <trkpt lat="45.94627" lon="4.84244">
        <ele>269</ele>
        <time>2016-11-15T10:01:20Z</time>
      </trkpt>
      <trkpt lat="45.94628" lon="4.84251">
        <ele>269</ele>
        <time>2016-11-15T10:01:21Z</time>
      </trkpt>
      <trkpt lat="45.94629" lon="4.84258">
        <ele>269</ele>
        <time>2016-11-15T10:01:22Z</time>
      </trkpt>
      <trkpt lat="45.9463" lon="4.84265">
        <ele>269</ele>
        <time>2016-11-15T10:01:23Z</time>
      </trkpt>
      <trkpt lat="45.94631" lon="4.84272">
        <ele>269</ele>
        <time>2016-11-15T10:01:24Z</time>
      </trkpt>
      <trkpt lat="45.94632" lon="4.8428">
        <ele>269</ele>
        <time>2016-11-15T10:01:25Z</time>
      </trkpt>
      <trkpt lat="45.94633" lon="4.84287">
        <ele>269</ele>
        <time>2016-11-15T10:01:26Z</time>
      </trkpt>
      <trkpt lat="45.94634" lon="4.84293">
        <ele>269</ele>
        <time>2016-11-15T10:01:27Z</time>
      </trkpt>
      <trkpt lat="45.94635" lon="4.843">
        <ele>269</ele>
        <time>2016-11-15T10:01:28Z</time>
      </trkpt>
      <trkpt lat="45.94636" lon="4.84306">
        <ele>269</ele>
        <time>2016-11-15T10:01:29Z</time>
      </trkpt>
      <trkpt lat="45.94637" lon="4.84313">
        <ele>269</ele>
        <time>2016-11-15T10:01:30Z</time>
      </trkpt>
      <trkpt lat="45.94637" lon="4.8432">
        <ele>269</ele>
        <time>2016-11-15T10:01:31Z</time>
      </trkpt>
      <trkpt lat="45.94639" lon="4.84327">
        <ele>269</ele>
        <time>2016-11-15T10:01:32Z</time>
      </trkpt>
      <trkpt lat="45.94639" lon="4.84335">
        <ele>268</ele>
        <time>2016-11-15T10:01:33Z</time>
      </trkpt>
      <trkpt lat="45.9464" lon="4.84343">
        <ele>268</ele>
        <time>2016-11-15T10:01:34Z</time>
      </trkpt>
      <trkpt lat="45.94641" lon="4.84351">
        <ele>268</ele>
        <time>2016-11-15T10:01:35Z</time>
      </trkpt>
      <trkpt lat="45.94642" lon="4.84359">
        <ele>268</ele>
        <time>2016-11-15T10:01:36Z</time>
      </trkpt>
      <trkpt lat="45.94643" lon="4.84367">
        <ele>268</ele>
        <time>2016-11-15T10:01:37Z</time>
      </trkpt>
      <trkpt lat="45.94644" lon="4.84375">
        <ele>268</ele>
        <time>2016-11-15T10:01:38Z</time>
      </trkpt>
      <trkpt lat="45.94645" lon="4.84383">
        <ele>268</ele>
        <time>2016-11-15T10:01:39Z</time>
      </trkpt>
      <trkpt lat="45.94646" lon="4.84391">
        <ele>268</ele>
        <time>2016-11-15T10:01:40Z</time>
      </trkpt>
      <trkpt lat="45.94647" lon="4.84398">
        <ele>268</ele>
        <time>2016-11-15T10:01:41Z</time>
      </trkpt>
      <trkpt lat="45.94648" lon="4.84405">
        <ele>268</ele>
        <time>2016-11-15T10:01:42Z</time>
      </trkpt>
      <trkpt lat="45.94648" lon="4.84412">
        <ele>268</ele>
        <time>2016-11-15T10:01:43Z</time>
      </trkpt>
      <trkpt lat="45.94649" lon="4.84419">
        <ele>268</ele>
        <time>2016-11-15T10:01:44Z</time>
      </trkpt>
      <trkpt lat="45.9465" lon="4.84427">
        <ele>268</ele>
        <time>2016-11-15T10:01:45Z</time>
      </trkpt>
      <trkpt lat="45.94651" lon="4.84434">
        <ele>268</ele>
        <time>2016-11-15T10:01:46Z</time>
      </trkpt>
      <trkpt lat="45.94652" lon="4.8444">
        <ele>268</ele>
        <time>2016-11-15T10:01:47Z</time>
      </trkpt>
      <trkpt lat="45.94652" lon="4.84447">
        <ele>268</ele>
        <time>2016-11-15T10:01:48Z</time>
      </trkpt>
      <trkpt lat="45.94653" lon="4.84454">
        <ele>268</ele>
        <time>2016-11-15T10:01:49Z</time>
      </trkpt>
      <trkpt lat="45.94654" lon="4.84461">
        <ele>268</ele>
        <time>2016-11-15T10:01:50Z</time>
      </trkpt>
      <trkpt lat="45.94655" lon="4.84468">
        <ele>268</ele>
        <time>2016-11-15T10:01:51Z</time>
      </trkpt>
      <trkpt lat="45.94656" lon="4.84476">
        <ele>268</ele>
        <time>2016-11-15T10:01:52Z</time>
      </trkpt>
      <trkpt lat="45.94656" lon="4.84483">
        <ele>268</ele>
        <time>2016-11-15T10:01:53Z</time>
      </trkpt>
      <trkpt lat="45.94657" lon="4.84491">
        <ele>268</ele>
        <time>2016-11-15T10:01:54Z</time>
      </trkpt>
      <trkpt lat="45.94657" lon="4.84498">
        <ele>268</ele>
        <time>2016-11-15T10:01:55Z</time>
      </trkpt>
      <trkpt lat="45.94658" lon="4.84506">
        <ele>268</ele>
        <time>2016-11-15T10:01:56Z</time>
      </trkpt>
      <trkpt lat="45.94659" lon="4.84513">
        <ele>268</ele>
        <time>2016-11-15T10:01:57Z</time>
      </trkpt>
      <trkpt lat="45.9466" lon="4.84521">
        <ele>268</ele>
        <time>2016-11-15T10:01:58Z</time>
      </trkpt>
      <trkpt lat="45.94661" lon="4.84529">
        <ele>268</ele>
        <time>2016-11-15T10:01:59Z</time>
      </trkpt>
      <trkpt lat="45.94661" lon="4.84537">
        <ele>268</ele>
        <time>2016-11-15T10:02:00Z</time>
      </trkpt>
      <trkpt lat="45.94662" lon="4.84545">
        <ele>268</ele>
        <time>2016-11-15T10:02:01Z</time>
      </trkpt>
      <trkpt lat="45.94663" lon="4.84553">
        <ele>268</ele>
        <time>2016-11-15T10:02:02Z</time>
      </trkpt>
      <trkpt lat="45.94663" lon="4.8456">
        <ele>268</ele>
        <time>2016-11-15T10:02:03Z</time>
      </trkpt>
      <trkpt lat="45.94664" lon="4.84568">
        <ele>268</ele>
        <time>2016-11-15T10:02:04Z</time>
      </trkpt>
      <trkpt lat="45.94665" lon="4.84575">
        <ele>268</ele>
        <time>2016-11-15T10:02:05Z</time>
      </trkpt>
      <trkpt lat="45.94665" lon="4.84583">
        <ele>268</ele>
        <time>2016-11-15T10:02:06Z</time>
      </trkpt>
      <trkpt lat="45.94666" lon="4.8459">
        <ele>268</ele>
        <time>2016-11-15T10:02:07Z</time>
      </trkpt>
      <trkpt lat="45.94666" lon="4.84597">
        <ele>268</ele>
        <time>2016-11-15T10:02:08Z</time>
      </trkpt>
      <trkpt lat="45.94667" lon="4.84605">
        <ele>268</ele>
        <time>2016-11-15T10:02:09Z</time>
      </trkpt>
      <trkpt lat="45.94667" lon="4.84612">
        <ele>268</ele>
        <time>2016-11-15T10:02:10Z</time>
      </trkpt>
      <trkpt lat="45.94667" lon="4.8462">
        <ele>268</ele>
        <time>2016-11-15T10:02:11Z</time>
      </trkpt>
      <trkpt lat="45.94667" lon="4.84627">
        <ele>268</ele>
        <time>2016-11-15T10:02:12Z</time>
      </trkpt>
      <trkpt lat="45.94668" lon="4.84635">
        <ele>268</ele>
        <time>2016-11-15T10:02:13Z</time>
      </trkpt>
      <trkpt lat="45.94668" lon="4.84642">
        <ele>268</ele>
        <time>2016-11-15T10:02:14Z</time>
      </trkpt>
      <trkpt lat="45.94668" lon="4.8465">
        <ele>268</ele>
        <time>2016-11-15T10:02:15Z</time>
      </trkpt>
      <trkpt lat="45.94669" lon="4.84657">
        <ele>269</ele>
        <time>2016-11-15T10:02:16Z</time>
      </trkpt>
      <trkpt lat="45.94669" lon="4.84665">
        <ele>269</ele>
        <time>2016-11-15T10:02:17Z</time>
      </trkpt>
      <trkpt lat="45.9467" lon="4.84672">
        <ele>269</ele>
        <time>2016-11-15T10:02:18Z</time>
      </trkpt>
      <trkpt lat="45.9467" lon="4.84678">
        <ele>269</ele>
        <time>2016-11-15T10:02:19Z</time>
      </trkpt>
      <trkpt lat="45.94671" lon="4.84687">
        <ele>269</ele>
        <time>2016-11-15T10:02:20Z</time>
      </trkpt>
      <trkpt lat="45.94671" lon="4.84695">
        <ele>269</ele>
        <time>2016-11-15T10:02:21Z</time>
      </trkpt>
      <trkpt lat="45.94671" lon="4.84703">
        <ele>269</ele>
        <time>2016-11-15T10:02:22Z</time>
      </trkpt>
      <trkpt lat="45.94672" lon="4.8471">
        <ele>269</ele>
        <time>2016-11-15T10:02:23Z</time>
      </trkpt>
      <trkpt lat="45.94672" lon="4.84718">
        <ele>269</ele>
        <time>2016-11-15T10:02:24Z</time>
      </trkpt>
      <trkpt lat="45.94672" lon="4.84725">
        <ele>269</ele>
        <time>2016-11-15T10:02:25Z</time>
      </trkpt>
      <trkpt lat="45.94672" lon="4.84731">
        <ele>269</ele>
        <time>2016-11-15T10:02:26Z</time>
      </trkpt>
      <trkpt lat="45.94672" lon="4.84738">
        <ele>269</ele>
        <time>2016-11-15T10:02:27Z</time>
      </trkpt>
      <trkpt lat="45.94672" lon="4.84746">
        <ele>269</ele>
        <time>2016-11-15T10:02:28Z</time>
      </trkpt>
      <trkpt lat="45.94673" lon="4.84754">
        <ele>269</ele>
        <time>2016-11-15T10:02:29Z</time>
      </trkpt>
      <trkpt lat="45.94673" lon="4.84762">
        <ele>269</ele>
        <time>2016-11-15T10:02:30Z</time>
      </trkpt>
      <trkpt lat="45.94674" lon="4.8477">
        <ele>269</ele>
        <time>2016-11-15T10:02:31Z</time>
      </trkpt>
      <trkpt lat="45.94674" lon="4.84778">
        <ele>269</ele>
        <time>2016-11-15T10:02:32Z</time>
      </trkpt>
      <trkpt lat="45.94674" lon="4.84787">
        <ele>269</ele>
        <time>2016-11-15T10:02:33Z</time>
      </trkpt>
      <trkpt lat="45.94674" lon="4.84795">
        <ele>268</ele>
        <time>2016-11-15T10:02:34Z</time>
      </trkpt>
      <trkpt lat="45.94675" lon="4.84803">
        <ele>268</ele>
        <time>2016-11-15T10:02:35Z</time>
      </trkpt>
      <trkpt lat="45.94676" lon="4.8481">
        <ele>268</ele>
        <time>2016-11-15T10:02:36Z</time>
      </trkpt>
      <trkpt lat="45.94676" lon="4.84818">
        <ele>268</ele>
        <time>2016-11-15T10:02:37Z</time>
      </trkpt>
      <trkpt lat="45.94677" lon="4.84825">
        <ele>268</ele>
        <time>2016-11-15T10:02:38Z</time>
      </trkpt>
      <trkpt lat="45.94678" lon="4.84832">
        <ele>268</ele>
        <time>2016-11-15T10:02:39Z</time>
      </trkpt>
      <trkpt lat="45.94678" lon="4.8484">
        <ele>268</ele>
        <time>2016-11-15T10:02:40Z</time>
      </trkpt>
      <trkpt lat="45.94679" lon="4.84847">
        <ele>268</ele>
        <time>2016-11-15T10:02:41Z</time>
      </trkpt>
      <trkpt lat="45.9468" lon="4.84854">
        <ele>268</ele>
        <time>2016-11-15T10:02:42Z</time>
      </trkpt>
      <trkpt lat="45.94681" lon="4.84861">
        <ele>268</ele>
        <time>2016-11-15T10:02:43Z</time>
      </trkpt>
      <trkpt lat="45.94681" lon="4.84868">
        <ele>268</ele>
        <time>2016-11-15T10:02:44Z</time>
      </trkpt>
      <trkpt lat="45.94682" lon="4.84876">
        <ele>268</ele>
        <time>2016-11-15T10:02:45Z</time>
      </trkpt>
      <trkpt lat="45.94683" lon="4.84883">
        <ele>268</ele>
        <time>2016-11-15T10:02:46Z</time>
      </trkpt>
      <trkpt lat="45.94684" lon="4.8489">
        <ele>268</ele>
        <time>2016-11-15T10:02:47Z</time>
      </trkpt>
      <trkpt lat="45.94685" lon="4.84898">
        <ele>268</ele>
        <time>2016-11-15T10:02:48Z</time>
      </trkpt>
      <trkpt lat="45.94686" lon="4.84905">
        <ele>269</ele>
        <time>2016-11-15T10:02:49Z</time>
      </trkpt>
      <trkpt lat="45.94686" lon="4.84912">
        <ele>269</ele>
        <time>2016-11-15T10:02:50Z</time>
      </trkpt>
      <trkpt lat="45.94687" lon="4.84919">
        <ele>269</ele>
        <time>2016-11-15T10:02:51Z</time>
      </trkpt>
      <trkpt lat="45.94688" lon="4.84926">
        <ele>269</ele>
        <time>2016-11-15T10:02:52Z</time>
      </trkpt>
      <trkpt lat="45.94688" lon="4.84933">
        <ele>269</ele>
        <time>2016-11-15T10:02:53Z</time>
      </trkpt>
      <trkpt lat="45.94689" lon="4.84941">
        <ele>269</ele>
        <time>2016-11-15T10:02:54Z</time>
      </trkpt>
      <trkpt lat="45.9469" lon="4.84949">
        <ele>269</ele>
        <time>2016-11-15T10:02:55Z</time>
      </trkpt>
      <trkpt lat="45.94691" lon="4.84957">
        <ele>269</ele>
        <time>2016-11-15T10:02:56Z</time>
      </trkpt>
      <trkpt lat="45.94692" lon="4.84965">
        <ele>269</ele>
        <time>2016-11-15T10:02:57Z</time>
      </trkpt>
      <trkpt lat="45.94693" lon="4.84974">
        <ele>269</ele>
        <time>2016-11-15T10:02:58Z</time>
      </trkpt>
      <trkpt lat="45.94694" lon="4.84982">
        <ele>269</ele>
        <time>2016-11-15T10:02:59Z</time>
      </trkpt>
      <trkpt lat="45.94695" lon="4.84991">
        <ele>269</ele>
        <time>2016-11-15T10:03:00Z</time>
      </trkpt>
      <trkpt lat="45.94696" lon="4.84999">
        <ele>269</ele>
        <time>2016-11-15T10:03:01Z</time>
      </trkpt>
      <trkpt lat="45.94696" lon="4.85007">
        <ele>269</ele>
        <time>2016-11-15T10:03:02Z</time>
      </trkpt>
      <trkpt lat="45.94698" lon="4.85015">
        <ele>269</ele>
        <time>2016-11-15T10:03:03Z</time>
      </trkpt>
      <trkpt lat="45.94698" lon="4.85023">
        <ele>269</ele>
        <time>2016-11-15T10:03:04Z</time>
      </trkpt>
      <trkpt lat="45.94699" lon="4.8503">
        <ele>269</ele>
        <time>2016-11-15T10:03:05Z</time>
      </trkpt>
      <trkpt lat="45.947" lon="4.85038">
        <ele>269</ele>
        <time>2016-11-15T10:03:06Z</time>
      </trkpt>
      <trkpt lat="45.94701" lon="4.85045">
        <ele>269</ele>
        <time>2016-11-15T10:03:07Z</time>
      </trkpt>
      <trkpt lat="45.94702" lon="4.85052">
        <ele>269</ele>
        <time>2016-11-15T10:03:08Z</time>
      </trkpt>
      <trkpt lat="45.94703" lon="4.8506">
        <ele>269</ele>
        <time>2016-11-15T10:03:09Z</time>
      </trkpt>
      <trkpt lat="45.94703" lon="4.85067">
        <ele>269</ele>
        <time>2016-11-15T10:03:10Z</time>
      </trkpt>
      <trkpt lat="45.94704" lon="4.85075">
        <ele>269</ele>
        <time>2016-11-15T10:03:11Z</time>
      </trkpt>
      <trkpt lat="45.94705" lon="4.85084">
        <ele>269</ele>
        <time>2016-11-15T10:03:12Z</time>
      </trkpt>
      <trkpt lat="45.94706" lon="4.85092">
        <ele>269</ele>
        <time>2016-11-15T10:03:13Z</time>
      </trkpt>
      <trkpt lat="45.94707" lon="4.851">
        <ele>269</ele>
        <time>2016-11-15T10:03:14Z</time>
      </trkpt>
      <trkpt lat="45.94708" lon="4.85108">
        <ele>269</ele>
        <time>2016-11-15T10:03:15Z</time>
      </trkpt>
      <trkpt lat="45.94709" lon="4.85116">
        <ele>269</ele>
        <time>2016-11-15T10:03:16Z</time>
      </trkpt>
      <trkpt lat="45.94709" lon="4.85124">
        <ele>269</ele>
        <time>2016-11-15T10:03:17Z</time>
      </trkpt>
      <trkpt lat="45.94711" lon="4.85132">
        <ele>269</ele>
        <time>2016-11-15T10:03:18Z</time>
      </trkpt>
      <trkpt lat="45.94711" lon="4.85139">
        <ele>269</ele>
        <time>2016-11-15T10:03:19Z</time>
      </trkpt>
      <trkpt lat="45.94712" lon="4.85146">
        <ele>269</ele>
        <time>2016-11-15T10:03:20Z</time>
      </trkpt>
      <trkpt lat="45.94713" lon="4.85153">
        <ele>269</ele>
        <time>2016-11-15T10:03:21Z</time>
      </trkpt>
      <trkpt lat="45.94713" lon="4.8516">
        <ele>269</ele>
        <time>2016-11-15T10:03:22Z</time>
      </trkpt>
      <trkpt lat="45.94714" lon="4.85167">
        <ele>269</ele>
        <time>2016-11-15T10:03:23Z</time>
      </trkpt>
      <trkpt lat="45.94714" lon="4.85174">
        <ele>269</ele>
        <time>2016-11-15T10:03:24Z</time>
      </trkpt>
      <trkpt lat="45.94715" lon="4.85181">
        <ele>269</ele>
        <time>2016-11-15T10:03:25Z</time>
      </trkpt>
      <trkpt lat="45.94715" lon="4.85189">
        <ele>269</ele>
        <time>2016-11-15T10:03:26Z</time>
      </trkpt>
      <trkpt lat="45.94716" lon="4.85196">
        <ele>269</ele>
        <time>2016-11-15T10:03:27Z</time>
      </trkpt>
      <trkpt lat="45.94717" lon="4.85204">
        <ele>269</ele>
        <time>2016-11-15T10:03:28Z</time>
      </trkpt>
      <trkpt lat="45.94718" lon="4.85212">
        <ele>269</ele>
        <time>2016-11-15T10:03:29Z</time>
      </trkpt>
      <trkpt lat="45.94719" lon="4.85221">
        <ele>269</ele>
        <time>2016-11-15T10:03:30Z</time>
      </trkpt>
      <trkpt lat="45.9472" lon="4.85229">
        <ele>269</ele>
        <time>2016-11-15T10:03:31Z</time>
      </trkpt>
      <trkpt lat="45.94721" lon="4.85237">
        <ele>269</ele>
        <time>2016-11-15T10:03:32Z</time>
      </trkpt>
      <trkpt lat="45.94722" lon="4.85246">
        <ele>269</ele>
        <time>2016-11-15T10:03:33Z</time>
      </trkpt>
      <trkpt lat="45.94723" lon="4.85253">
        <ele>269</ele>
        <time>2016-11-15T10:03:34Z</time>
      </trkpt>
      <trkpt lat="45.94723" lon="4.8526">
        <ele>269</ele>
        <time>2016-11-15T10:03:35Z</time>
      </trkpt>
      <trkpt lat="45.94724" lon="4.85267">
        <ele>269</ele>
        <time>2016-11-15T10:03:36Z</time>
      </trkpt>
      <trkpt lat="45.94725" lon="4.85275">
        <ele>269</ele>
        <time>2016-11-15T10:03:37Z</time>
      </trkpt>
      <trkpt lat="45.94726" lon="4.85282">
        <ele>269</ele>
        <time>2016-11-15T10:03:38Z</time>
      </trkpt>
      <trkpt lat="45.94727" lon="4.85289">
        <ele>269</ele>
        <time>2016-11-15T10:03:39Z</time>
      </trkpt>
      <trkpt lat="45.94727" lon="4.85297">
        <ele>270</ele>
        <time>2016-11-15T10:03:40Z</time>
      </trkpt>
      <trkpt lat="45.94728" lon="4.85304">
        <ele>270</ele>
        <time>2016-11-15T10:03:41Z</time>
      </trkpt>
      <trkpt lat="45.94729" lon="4.85311">
        <ele>270</ele>
        <time>2016-11-15T10:03:42Z</time>
      </trkpt>
      <trkpt lat="45.9473" lon="4.85318">
        <ele>270</ele>
        <time>2016-11-15T10:03:43Z</time>
      </trkpt>
      <trkpt lat="45.9473" lon="4.85325">
        <ele>270</ele>
        <time>2016-11-15T10:03:44Z</time>
      </trkpt>
      <trkpt lat="45.94731" lon="4.85333">
        <ele>270</ele>
        <time>2016-11-15T10:03:45Z</time>
      </trkpt>
      <trkpt lat="45.94732" lon="4.85341">
        <ele>271</ele>
        <time>2016-11-15T10:03:46Z</time>
      </trkpt>
      <trkpt lat="45.94733" lon="4.85349">
        <ele>271</ele>
        <time>2016-11-15T10:03:47Z</time>
      </trkpt>
      <trkpt lat="45.94734" lon="4.85357">
        <ele>271</ele>
        <time>2016-11-15T10:03:48Z</time>
      </trkpt>
      <trkpt lat="45.94735" lon="4.85365">
        <ele>271</ele>
        <time>2016-11-15T10:03:49Z</time>
      </trkpt>
      <trkpt lat="45.94735" lon="4.85373">
        <ele>271</ele>
        <time>2016-11-15T10:03:50Z</time>
      </trkpt>
      <trkpt lat="45.94736" lon="4.85381">
        <ele>271</ele>
        <time>2016-11-15T10:03:51Z</time>
      </trkpt>
      <trkpt lat="45.94737" lon="4.85388">
        <ele>272</ele>
        <time>2016-11-15T10:03:52Z</time>
      </trkpt>
      <trkpt lat="45.94738" lon="4.85396">
        <ele>272</ele>
        <time>2016-11-15T10:03:53Z</time>
      </trkpt>
      <trkpt lat="45.94738" lon="4.85403">
        <ele>272</ele>
        <time>2016-11-15T10:03:54Z</time>
      </trkpt>
      <trkpt lat="45.94739" lon="4.8541">
        <ele>272</ele>
        <time>2016-11-15T10:03:55Z</time>
      </trkpt>
      <trkpt lat="45.9474" lon="4.85417">
        <ele>273</ele>
        <time>2016-11-15T10:03:56Z</time>
      </trkpt>
      <trkpt lat="45.94741" lon="4.85425">
        <ele>273</ele>
        <time>2016-11-15T10:03:57Z</time>
      </trkpt>
      <trkpt lat="45.94742" lon="4.85432">
        <ele>273</ele>
        <time>2016-11-15T10:03:58Z</time>
      </trkpt>
      <trkpt lat="45.94743" lon="4.85439">
        <ele>274</ele>
        <time>2016-11-15T10:03:59Z</time>
      </trkpt>
      <trkpt lat="45.94744" lon="4.85446">
        <ele>274</ele>
        <time>2016-11-15T10:04:00Z</time>
      </trkpt>
      <trkpt lat="45.94745" lon="4.85453">
        <ele>274</ele>
        <time>2016-11-15T10:04:01Z</time>
      </trkpt>
      <trkpt lat="45.94746" lon="4.85461">
        <ele>274</ele>
        <time>2016-11-15T10:04:02Z</time>
      </trkpt>
      <trkpt lat="45.94747" lon="4.85468">
        <ele>274</ele>
        <time>2016-11-15T10:04:03Z</time>
      </trkpt>
      <trkpt lat="45.94748" lon="4.85474">
        <ele>275</ele>
        <time>2016-11-15T10:04:04Z</time>
      </trkpt>
      <trkpt lat="45.94749" lon="4.85482">
        <ele>275</ele>
        <time>2016-11-15T10:04:05Z</time>
      </trkpt>
      <trkpt lat="45.9475" lon="4.85489">
        <ele>275</ele>
        <time>2016-11-15T10:04:06Z</time>
      </trkpt>
      <trkpt lat="45.94751" lon="4.85495">
        <ele>276</ele>
        <time>2016-11-15T10:04:07Z</time>
      </trkpt>
      <trkpt lat="45.94752" lon="4.85502">
        <ele>276</ele>
        <time>2016-11-15T10:04:08Z</time>
      </trkpt>
      <trkpt lat="45.94753" lon="4.85508">
        <ele>277</ele>
        <time>2016-11-15T10:04:09Z</time>
      </trkpt>
      <trkpt lat="45.94754" lon="4.85515">
        <ele>277</ele>
        <time>2016-11-15T10:04:10Z</time>
      </trkpt>
      <trkpt lat="45.94754" lon="4.85522">
        <ele>277</ele>
        <time>2016-11-15T10:04:11Z</time>
      </trkpt>
      <trkpt lat="45.94755" lon="4.85528">
        <ele>278</ele>
        <time>2016-11-15T10:04:12Z</time>
      </trkpt>
      <trkpt lat="45.94757" lon="4.85534">
        <ele>278</ele>
        <time>2016-11-15T10:04:13Z</time>
      </trkpt>
      <trkpt lat="45.94758" lon="4.85541">
        <ele>278</ele>
        <time>2016-11-15T10:04:14Z</time>
      </trkpt>
      <trkpt lat="45.94759" lon="4.85547">
        <ele>278</ele>
        <time>2016-11-15T10:04:15Z</time>
      </trkpt>
      <trkpt lat="45.94761" lon="4.85559">
        <ele>278</ele>
        <time>2016-11-15T10:04:17Z</time>
      </trkpt>
      <trkpt lat="45.94762" lon="4.85565">
        <ele>279</ele>
        <time>2016-11-15T10:04:18Z</time>
      </trkpt>
      <trkpt lat="45.94763" lon="4.85577">
        <ele>279</ele>
        <time>2016-11-15T10:04:20Z</time>
      </trkpt>
      <trkpt lat="45.94764" lon="4.85583">
        <ele>279</ele>
        <time>2016-11-15T10:04:21Z</time>
      </trkpt>
      <trkpt lat="45.94767" lon="4.85595">
        <ele>280</ele>
        <time>2016-11-15T10:04:23Z</time>
      </trkpt>
      <trkpt lat="45.94768" lon="4.85601">
        <ele>280</ele>
        <time>2016-11-15T10:04:24Z</time>
      </trkpt>
      <trkpt lat="45.94771" lon="4.85612">
        <ele>280</ele>
        <time>2016-11-15T10:04:26Z</time>
      </trkpt>
      <trkpt lat="45.94773" lon="4.85619">
        <ele>280</ele>
        <time>2016-11-15T10:04:27Z</time>
      </trkpt>
      <trkpt lat="45.94774" lon="4.85625">
        <ele>280</ele>
        <time>2016-11-15T10:04:28Z</time>
      </trkpt>
      <trkpt lat="45.94775" lon="4.85631">
        <ele>280</ele>
        <time>2016-11-15T10:04:29Z</time>
      </trkpt>
      <trkpt lat="45.94777" lon="4.85638">
        <ele>281</ele>
        <time>2016-11-15T10:04:30Z</time>
      </trkpt>
      <trkpt lat="45.94779" lon="4.85644">
        <ele>281</ele>
        <time>2016-11-15T10:04:31Z</time>
      </trkpt>
      <trkpt lat="45.94781" lon="4.8565">
        <ele>281</ele>
        <time>2016-11-15T10:04:32Z</time>
      </trkpt>
      <trkpt lat="45.94782" lon="4.85656">
        <ele>281</ele>
        <time>2016-11-15T10:04:33Z</time>
      </trkpt>
      <trkpt lat="45.94784" lon="4.85662">
        <ele>281</ele>
        <time>2016-11-15T10:04:34Z</time>
      </trkpt>
      <trkpt lat="45.94785" lon="4.85668">
        <ele>280</ele>
        <time>2016-11-15T10:04:35Z</time>
      </trkpt>
      <trkpt lat="45.94787" lon="4.85675">
        <ele>280</ele>
        <time>2016-11-15T10:04:36Z</time>
      </trkpt>
      <trkpt lat="45.94789" lon="4.85681">
        <ele>280</ele>
        <time>2016-11-15T10:04:37Z</time>
      </trkpt>
      <trkpt lat="45.94791" lon="4.85687">
        <ele>280</ele>
        <time>2016-11-15T10:04:38Z</time>
      </trkpt>
      <trkpt lat="45.94793" lon="4.85694">
        <ele>280</ele>
        <time>2016-11-15T10:04:39Z</time>
      </trkpt>
      <trkpt lat="45.94794" lon="4.857">
        <ele>280</ele>
        <time>2016-11-15T10:04:40Z</time>
      </trkpt>
      <trkpt lat="45.94796" lon="4.85707">
        <ele>280</ele>
        <time>2016-11-15T10:04:41Z</time>
      </trkpt>
      <trkpt lat="45.94797" lon="4.85714">
        <ele>280</ele>
        <time>2016-11-15T10:04:42Z</time>
      </trkpt>
      <trkpt lat="45.94799" lon="4.85721">
        <ele>280</ele>
        <time>2016-11-15T10:04:43Z</time>
      </trkpt>
      <trkpt lat="45.948" lon="4.85728">
        <ele>280</ele>
        <time>2016-11-15T10:04:44Z</time>
      </trkpt>
      <trkpt lat="45.94802" lon="4.85735">
        <ele>280</ele>
        <time>2016-11-15T10:04:45Z</time>
      </trkpt>
      <trkpt lat="45.94804" lon="4.85742">
        <ele>279</ele>
        <time>2016-11-15T10:04:46Z</time>
      </trkpt>
      <trkpt lat="45.94806" lon="4.8575">
        <ele>279</ele>
        <time>2016-11-15T10:04:47Z</time>
      </trkpt>
      <trkpt lat="45.94808" lon="4.85758">
        <ele>278</ele>
        <time>2016-11-15T10:04:48Z</time>
      </trkpt>
      <trkpt lat="45.9481" lon="4.85765">
        <ele>278</ele>
        <time>2016-11-15T10:04:49Z</time>
      </trkpt>
      <trkpt lat="45.94812" lon="4.85774">
        <ele>278</ele>
        <time>2016-11-15T10:04:50Z</time>
      </trkpt>
      <trkpt lat="45.94813" lon="4.85783">
        <ele>278</ele>
        <time>2016-11-15T10:04:51Z</time>
      </trkpt>
      <trkpt lat="45.94815" lon="4.8579">
        <ele>278</ele>
        <time>2016-11-15T10:04:52Z</time>
      </trkpt>
      <trkpt lat="45.94818" lon="4.85798">
        <ele>278</ele>
        <time>2016-11-15T10:04:53Z</time>
      </trkpt>
      <trkpt lat="45.9482" lon="4.85806">
        <ele>278</ele>
        <time>2016-11-15T10:04:54Z</time>
      </trkpt>
      <trkpt lat="45.94822" lon="4.85814">
        <ele>278</ele>
        <time>2016-11-15T10:04:55Z</time>
      </trkpt>
      <trkpt lat="45.94824" lon="4.85822">
        <ele>278</ele>
        <time>2016-11-15T10:04:56Z</time>
      </trkpt>
      <trkpt lat="45.94826" lon="4.8583">
        <ele>277</ele>
        <time>2016-11-15T10:04:57Z</time>
      </trkpt>
      <trkpt lat="45.94828" lon="4.85837">
        <ele>277</ele>
        <time>2016-11-15T10:04:58Z</time>
      </trkpt>
      <trkpt lat="45.9483" lon="4.85845">
        <ele>277</ele>
        <time>2016-11-15T10:04:59Z</time>
      </trkpt>
      <trkpt lat="45.94832" lon="4.85853">
        <ele>277</ele>
        <time>2016-11-15T10:05:00Z</time>
      </trkpt>
      <trkpt lat="45.94835" lon="4.85861">
        <ele>276</ele>
        <time>2016-11-15T10:05:01Z</time>
      </trkpt>
      <trkpt lat="45.94837" lon="4.85869">
        <ele>276</ele>
        <time>2016-11-15T10:05:02Z</time>
      </trkpt>
      <trkpt lat="45.94839" lon="4.85877">
        <ele>276</ele>
        <time>2016-11-15T10:05:03Z</time>
      </trkpt>
      <trkpt lat="45.94841" lon="4.85886">
        <ele>276</ele>
        <time>2016-11-15T10:05:04Z</time>
      </trkpt>
      <trkpt lat="45.94843" lon="4.85894">
        <ele>276</ele>
        <time>2016-11-15T10:05:05Z</time>
      </trkpt>
      <trkpt lat="45.94846" lon="4.85902">
        <ele>276</ele>
        <time>2016-11-15T10:05:06Z</time>
      </trkpt>
      <trkpt lat="45.94848" lon="4.85911">
        <ele>275</ele>
        <time>2016-11-15T10:05:07Z</time>
      </trkpt>
      <trkpt lat="45.94851" lon="4.85919">
        <ele>275</ele>
        <time>2016-11-15T10:05:08Z</time>
      </trkpt>
      <trkpt lat="45.94853" lon="4.85927">
        <ele>275</ele>
        <time>2016-11-15T10:05:09Z</time>
      </trkpt>
      <trkpt lat="45.94855" lon="4.85935">
        <ele>275</ele>
        <time>2016-11-15T10:05:10Z</time>
      </trkpt>
      <trkpt lat="45.94857" lon="4.85943">
        <ele>275</ele>
        <time>2016-11-15T10:05:11Z</time>
      </trkpt>
      <trkpt lat="45.9486" lon="4.85951">
        <ele>275</ele>
        <time>2016-11-15T10:05:12Z</time>
      </trkpt>
      <trkpt lat="45.94862" lon="4.85959">
        <ele>275</ele>
        <time>2016-11-15T10:05:13Z</time>
      </trkpt>
      <trkpt lat="45.94864" lon="4.85967">
        <ele>275</ele>
        <time>2016-11-15T10:05:14Z</time>
      </trkpt>
      <trkpt lat="45.94866" lon="4.85975">
        <ele>275</ele>
        <time>2016-11-15T10:05:15Z</time>
      </trkpt>
      <trkpt lat="45.94868" lon="4.85983">
        <ele>275</ele>
        <time>2016-11-15T10:05:16Z</time>
      </trkpt>
      <trkpt lat="45.9487" lon="4.8599">
        <ele>275</ele>
        <time>2016-11-15T10:05:17Z</time>
      </trkpt>
      <trkpt lat="45.94871" lon="4.85998">
        <ele>275</ele>
        <time>2016-11-15T10:05:18Z</time>
      </trkpt>
      <trkpt lat="45.94873" lon="4.86006">
        <ele>274</ele>
        <time>2016-11-15T10:05:19Z</time>
      </trkpt>
      <trkpt lat="45.94876" lon="4.86013">
        <ele>274</ele>
        <time>2016-11-15T10:05:20Z</time>
      </trkpt>
      <trkpt lat="45.94877" lon="4.86021">
        <ele>274</ele>
        <time>2016-11-15T10:05:21Z</time>
      </trkpt>
      <trkpt lat="45.94879" lon="4.86028">
        <ele>274</ele>
        <time>2016-11-15T10:05:22Z</time>
      </trkpt>
      <trkpt lat="45.94882" lon="4.86036">
        <ele>274</ele>
        <time>2016-11-15T10:05:23Z</time>
      </trkpt>
      <trkpt lat="45.94884" lon="4.86043">
        <ele>274</ele>
        <time>2016-11-15T10:05:24Z</time>
      </trkpt>
      <trkpt lat="45.94886" lon="4.86051">
        <ele>274</ele>
        <time>2016-11-15T10:05:25Z</time>
      </trkpt>
      <trkpt lat="45.94889" lon="4.86058">
        <ele>274</ele>
        <time>2016-11-15T10:05:26Z</time>
      </trkpt>
      <trkpt lat="45.94891" lon="4.86066">
        <ele>274</ele>
        <time>2016-11-15T10:05:27Z</time>
      </trkpt>
      <trkpt lat="45.94893" lon="4.86074">
        <ele>274</ele>
        <time>2016-11-15T10:05:28Z</time>
      </trkpt>
      <trkpt lat="45.94895" lon="4.86083">
        <ele>274</ele>
        <time>2016-11-15T10:05:29Z</time>
      </trkpt>
      <trkpt lat="45.94898" lon="4.86091">
        <ele>274</ele>
        <time>2016-11-15T10:05:30Z</time>
      </trkpt>
      <trkpt lat="45.94901" lon="4.86099">
        <ele>274</ele>
        <time>2016-11-15T10:05:31Z</time>
      </trkpt>
      <trkpt lat="45.94904" lon="4.86107">
        <ele>274</ele>
        <time>2016-11-15T10:05:32Z</time>
      </trkpt>
      <trkpt lat="45.94907" lon="4.86114">
        <ele>274</ele>
        <time>2016-11-15T10:05:33Z</time>
      </trkpt>
      <trkpt lat="45.9491" lon="4.86122">
        <ele>274</ele>
        <time>2016-11-15T10:05:34Z</time>
      </trkpt>
      <trkpt lat="45.94914" lon="4.86129">
        <ele>274</ele>
        <time>2016-11-15T10:05:35Z</time>
      </trkpt>
      <trkpt lat="45.94918" lon="4.86136">
        <ele>273</ele>
        <time>2016-11-15T10:05:36Z</time>
      </trkpt>
      <trkpt lat="45.94922" lon="4.86143">
        <ele>273</ele>
        <time>2016-11-15T10:05:37Z</time>
      </trkpt>
      <trkpt lat="45.94926" lon="4.86149">
        <ele>273</ele>
        <time>2016-11-15T10:05:38Z</time>
      </trkpt>
      <trkpt lat="45.9493" lon="4.86156">
        <ele>273</ele>
        <time>2016-11-15T10:05:39Z</time>
      </trkpt>
      <trkpt lat="45.94935" lon="4.86162">
        <ele>273</ele>
        <time>2016-11-15T10:05:40Z</time>
      </trkpt>
      <trkpt lat="45.9494" lon="4.86168">
        <ele>273</ele>
        <time>2016-11-15T10:05:41Z</time>
      </trkpt>
      <trkpt lat="45.94944" lon="4.86174">
        <ele>273</ele>
        <time>2016-11-15T10:05:42Z</time>
      </trkpt>
      <trkpt lat="45.94949" lon="4.8618">
        <ele>273</ele>
        <time>2016-11-15T10:05:43Z</time>
      </trkpt>
      <trkpt lat="45.94953" lon="4.86186">
        <ele>273</ele>
        <time>2016-11-15T10:05:44Z</time>
      </trkpt>
      <trkpt lat="45.94958" lon="4.86192">
        <ele>273</ele>
        <time>2016-11-15T10:05:45Z</time>
      </trkpt>
      <trkpt lat="45.94962" lon="4.86198">
        <ele>272</ele>
        <time>2016-11-15T10:05:46Z</time>
      </trkpt>
      <trkpt lat="45.94967" lon="4.86204">
        <ele>272</ele>
        <time>2016-11-15T10:05:47Z</time>
      </trkpt>
      <trkpt lat="45.94972" lon="4.8621">
        <ele>272</ele>
        <time>2016-11-15T10:05:48Z</time>
      </trkpt>
      <trkpt lat="45.94977" lon="4.86215">
        <ele>272</ele>
        <time>2016-11-15T10:05:49Z</time>
      </trkpt>
      <trkpt lat="45.94981" lon="4.86221">
        <ele>272</ele>
        <time>2016-11-15T10:05:50Z</time>
      </trkpt>
      <trkpt lat="45.94986" lon="4.86227">
        <ele>272</ele>
        <time>2016-11-15T10:05:51Z</time>
      </trkpt>
      <trkpt lat="45.94991" lon="4.86234">
        <ele>272</ele>
        <time>2016-11-15T10:05:52Z</time>
      </trkpt>
      <trkpt lat="45.94995" lon="4.86239">
        <ele>272</ele>
        <time>2016-11-15T10:05:53Z</time>
      </trkpt>
      <trkpt lat="45.95" lon="4.86245">
        <ele>272</ele>
        <time>2016-11-15T10:05:54Z</time>
      </trkpt>
      <trkpt lat="45.95006" lon="4.86252">
        <ele>272</ele>
        <time>2016-11-15T10:05:55Z</time>
      </trkpt>
      <trkpt lat="45.95011" lon="4.86258">
        <ele>272</ele>
        <time>2016-11-15T10:05:56Z</time>
      </trkpt>
      <trkpt lat="45.95016" lon="4.86264">
        <ele>271</ele>
        <time>2016-11-15T10:05:57Z</time>
      </trkpt>
      <trkpt lat="45.95021" lon="4.86271">
        <ele>271</ele>
        <time>2016-11-15T10:05:58Z</time>
      </trkpt>
      <trkpt lat="45.95026" lon="4.86277">
        <ele>271</ele>
        <time>2016-11-15T10:05:59Z</time>
      </trkpt>
      <trkpt lat="45.95032" lon="4.86284">
        <ele>271</ele>
        <time>2016-11-15T10:06:00Z</time>
      </trkpt>
      <trkpt lat="45.95037" lon="4.8629">
        <ele>271</ele>
        <time>2016-11-15T10:06:01Z</time>
      </trkpt>
      <trkpt lat="45.95042" lon="4.86296">
        <ele>271</ele>
        <time>2016-11-15T10:06:02Z</time>
      </trkpt>
      <trkpt lat="45.95047" lon="4.86303">
        <ele>271</ele>
        <time>2016-11-15T10:06:03Z</time>
      </trkpt>
      <trkpt lat="45.95052" lon="4.86309">
        <ele>271</ele>
        <time>2016-11-15T10:06:04Z</time>
      </trkpt>
      <trkpt lat="45.95057" lon="4.86315">
        <ele>271</ele>
        <time>2016-11-15T10:06:05Z</time>
      </trkpt>
      <trkpt lat="45.95062" lon="4.86321">
        <ele>270</ele>
        <time>2016-11-15T10:06:06Z</time>
      </trkpt>
      <trkpt lat="45.95067" lon="4.86327">
        <ele>270</ele>
        <time>2016-11-15T10:06:07Z</time>
      </trkpt>
      <trkpt lat="45.95071" lon="4.86333">
        <ele>270</ele>
        <time>2016-11-15T10:06:08Z</time>
      </trkpt>
      <trkpt lat="45.95076" lon="4.86339">
        <ele>270</ele>
        <time>2016-11-15T10:06:09Z</time>
      </trkpt>
      <trkpt lat="45.95081" lon="4.86345">
        <ele>270</ele>
        <time>2016-11-15T10:06:10Z</time>
      </trkpt>
      <trkpt lat="45.95086" lon="4.86351">
        <ele>269</ele>
        <time>2016-11-15T10:06:11Z</time>
      </trkpt>
      <trkpt lat="45.95091" lon="4.86357">
        <ele>269</ele>
        <time>2016-11-15T10:06:12Z</time>
      </trkpt>
      <trkpt lat="45.95096" lon="4.86363">
        <ele>269</ele>
        <time>2016-11-15T10:06:13Z</time>
      </trkpt>
      <trkpt lat="45.95101" lon="4.86369">
        <ele>269</ele>
        <time>2016-11-15T10:06:14Z</time>
      </trkpt>
      <trkpt lat="45.95106" lon="4.86375">
        <ele>269</ele>
        <time>2016-11-15T10:06:15Z</time>
      </trkpt>
      <trkpt lat="45.95111" lon="4.86381">
        <ele>269</ele>
        <time>2016-11-15T10:06:16Z</time>
      </trkpt>
      <trkpt lat="45.95115" lon="4.86387">
        <ele>269</ele>
        <time>2016-11-15T10:06:17Z</time>
      </trkpt>
      <trkpt lat="45.9512" lon="4.86393">
        <ele>269</ele>
        <time>2016-11-15T10:06:18Z</time>
      </trkpt>
      <trkpt lat="45.95125" lon="4.86399">
        <ele>268</ele>
        <time>2016-11-15T10:06:19Z</time>
      </trkpt>
      <trkpt lat="45.9513" lon="4.86405">
        <ele>268</ele>
        <time>2016-11-15T10:06:20Z</time>
      </trkpt>
      <trkpt lat="45.95135" lon="4.8641">
        <ele>268</ele>
        <time>2016-11-15T10:06:21Z</time>
      </trkpt>
      <trkpt lat="45.95141" lon="4.86415">
        <ele>268</ele>
        <time>2016-11-15T10:06:22Z</time>
      </trkpt>
      <trkpt lat="45.95146" lon="4.86421">
        <ele>268</ele>
        <time>2016-11-15T10:06:23Z</time>
      </trkpt>
      <trkpt lat="45.95151" lon="4.86427">
        <ele>268</ele>
        <time>2016-11-15T10:06:24Z</time>
      </trkpt>
      <trkpt lat="45.95155" lon="4.86434">
        <ele>268</ele>
        <time>2016-11-15T10:06:25Z</time>
      </trkpt>
      <trkpt lat="45.9516" lon="4.8644">
        <ele>268</ele>
        <time>2016-11-15T10:06:26Z</time>
      </trkpt>
      <trkpt lat="45.95165" lon="4.86447">
        <ele>269</ele>
        <time>2016-11-15T10:06:27Z</time>
      </trkpt>
      <trkpt lat="45.9517" lon="4.86453">
        <ele>268</ele>
        <time>2016-11-15T10:06:28Z</time>
      </trkpt>
      <trkpt lat="45.95175" lon="4.8646">
        <ele>268</ele>
        <time>2016-11-15T10:06:29Z</time>
      </trkpt>
      <trkpt lat="45.9518" lon="4.86466">
        <ele>268</ele>
        <time>2016-11-15T10:06:30Z</time>
      </trkpt>
      <trkpt lat="45.95185" lon="4.86473">
        <ele>268</ele>
        <time>2016-11-15T10:06:31Z</time>
      </trkpt>
      <trkpt lat="45.95191" lon="4.86479">
        <ele>268</ele>
        <time>2016-11-15T10:06:32Z</time>
      </trkpt>
      <trkpt lat="45.95196" lon="4.86486">
        <ele>268</ele>
        <time>2016-11-15T10:06:33Z</time>
      </trkpt>
      <trkpt lat="45.95202" lon="4.86492">
        <ele>268</ele>
        <time>2016-11-15T10:06:34Z</time>
      </trkpt>
      <trkpt lat="45.95208" lon="4.86499">
        <ele>268</ele>
        <time>2016-11-15T10:06:35Z</time>
      </trkpt>
      <trkpt lat="45.95213" lon="4.86506">
        <ele>268</ele>
        <time>2016-11-15T10:06:36Z</time>
      </trkpt>
      <trkpt lat="45.95219" lon="4.86513">
        <ele>268</ele>
        <time>2016-11-15T10:06:37Z</time>
      </trkpt>
      <trkpt lat="45.95225" lon="4.8652">
        <ele>268</ele>
        <time>2016-11-15T10:06:38Z</time>
      </trkpt>
      <trkpt lat="45.95231" lon="4.86526">
        <ele>268</ele>
        <time>2016-11-15T10:06:39Z</time>
      </trkpt>
      <trkpt lat="45.95236" lon="4.86532">
        <ele>268</ele>
        <time>2016-11-15T10:06:40Z</time>
      </trkpt>
      <trkpt lat="45.95242" lon="4.86538">
        <ele>268</ele>
        <time>2016-11-15T10:06:41Z</time>
      </trkpt>
      <trkpt lat="45.95247" lon="4.86545">
        <ele>268</ele>
        <time>2016-11-15T10:06:42Z</time>
      </trkpt>
      <trkpt lat="45.95252" lon="4.86551">
        <ele>267</ele>
        <time>2016-11-15T10:06:43Z</time>
      </trkpt>
      <trkpt lat="45.95257" lon="4.86558">
        <ele>267</ele>
        <time>2016-11-15T10:06:44Z</time>
      </trkpt>
      <trkpt lat="45.95261" lon="4.86564">
        <ele>267</ele>
        <time>2016-11-15T10:06:45Z</time>
      </trkpt>
      <trkpt lat="45.95265" lon="4.8657">
        <ele>267</ele>
        <time>2016-11-15T10:06:46Z</time>
      </trkpt>
      <trkpt lat="45.95269" lon="4.86577">
        <ele>267</ele>
        <time>2016-11-15T10:06:47Z</time>
      </trkpt>
      <trkpt lat="45.95273" lon="4.86583">
        <ele>267</ele>
        <time>2016-11-15T10:06:48Z</time>
      </trkpt>
      <trkpt lat="45.95277" lon="4.86589">
        <ele>268</ele>
        <time>2016-11-15T10:06:49Z</time>
      </trkpt>
      <trkpt lat="45.95281" lon="4.86596">
        <ele>268</ele>
        <time>2016-11-15T10:06:50Z</time>
      </trkpt>
      <trkpt lat="45.95285" lon="4.86603">
        <ele>268</ele>
        <time>2016-11-15T10:06:51Z</time>
      </trkpt>
      <trkpt lat="45.95288" lon="4.8661">
        <ele>268</ele>
        <time>2016-11-15T10:06:52Z</time>
      </trkpt>
      <trkpt lat="45.95292" lon="4.86618">
        <ele>268</ele>
        <time>2016-11-15T10:06:53Z</time>
      </trkpt>
      <trkpt lat="45.95295" lon="4.86624">
        <ele>268</ele>
        <time>2016-11-15T10:06:54Z</time>
      </trkpt>
      <trkpt lat="45.95298" lon="4.86629">
        <ele>268</ele>
        <time>2016-11-15T10:06:55Z</time>
      </trkpt>
      <trkpt lat="45.95302" lon="4.86636">
        <ele>268</ele>
        <time>2016-11-15T10:06:56Z</time>
      </trkpt>
      <trkpt lat="45.95305" lon="4.86642">
        <ele>268</ele>
        <time>2016-11-15T10:06:57Z</time>
      </trkpt>
      <trkpt lat="45.95308" lon="4.86647">
        <ele>268</ele>
        <time>2016-11-15T10:06:58Z</time>
      </trkpt>
      <trkpt lat="45.9531" lon="4.86653">
        <ele>268</ele>
        <time>2016-11-15T10:06:59Z</time>
      </trkpt>
      <trkpt lat="45.95313" lon="4.86658">
        <ele>268</ele>
        <time>2016-11-15T10:07:00Z</time>
      </trkpt>
      <trkpt lat="45.95316" lon="4.86664">
        <ele>268</ele>
        <time>2016-11-15T10:07:01Z</time>
      </trkpt>
      <trkpt lat="45.9532" lon="4.86669">
        <ele>269</ele>
        <time>2016-11-15T10:07:02Z</time>
      </trkpt>
      <trkpt lat="45.95322" lon="4.86675">
        <ele>269</ele>
        <time>2016-11-15T10:07:03Z</time>
      </trkpt>
      <trkpt lat="45.95327" lon="4.86685">
        <ele>269</ele>
        <time>2016-11-15T10:07:05Z</time>
      </trkpt>
      <trkpt lat="45.9533" lon="4.86691">
        <ele>269</ele>
        <time>2016-11-15T10:07:06Z</time>
      </trkpt>
      <trkpt lat="45.95333" lon="4.86696">
        <ele>269</ele>
        <time>2016-11-15T10:07:07Z</time>
      </trkpt>
      <trkpt lat="45.95335" lon="4.86701">
        <ele>268</ele>
        <time>2016-11-15T10:07:08Z</time>
      </trkpt>
      <trkpt lat="45.95338" lon="4.86707">
        <ele>268</ele>
        <time>2016-11-15T10:07:09Z</time>
      </trkpt>
      <trkpt lat="45.95341" lon="4.86712">
        <ele>268</ele>
        <time>2016-11-15T10:07:10Z</time>
      </trkpt>
      <trkpt lat="45.95344" lon="4.86718">
        <ele>268</ele>
        <time>2016-11-15T10:07:11Z</time>
      </trkpt>
      <trkpt lat="45.95346" lon="4.86724">
        <ele>268</ele>
        <time>2016-11-15T10:07:12Z</time>
      </trkpt>
      <trkpt lat="45.95349" lon="4.8673">
        <ele>268</ele>
        <time>2016-11-15T10:07:13Z</time>
      </trkpt>
      <trkpt lat="45.95352" lon="4.86736">
        <ele>268</ele>
        <time>2016-11-15T10:07:14Z</time>
      </trkpt>
      <trkpt lat="45.95355" lon="4.86742">
        <ele>268</ele>
        <time>2016-11-15T10:07:15Z</time>
      </trkpt>
      <trkpt lat="45.95358" lon="4.86748">
        <ele>268</ele>
        <time>2016-11-15T10:07:16Z</time>
      </trkpt>
      <trkpt lat="45.9536" lon="4.86754">
        <ele>268</ele>
        <time>2016-11-15T10:07:17Z</time>
      </trkpt>
      <trkpt lat="45.95363" lon="4.86761">
        <ele>268</ele>
        <time>2016-11-15T10:07:18Z</time>
      </trkpt>
      <trkpt lat="45.95366" lon="4.86767">
        <ele>268</ele>
        <time>2016-11-15T10:07:19Z</time>
      </trkpt>
      <trkpt lat="45.95369" lon="4.86773">
        <ele>268</ele>
        <time>2016-11-15T10:07:20Z</time>
      </trkpt>
      <trkpt lat="45.95372" lon="4.86779">
        <ele>268</ele>
        <time>2016-11-15T10:07:21Z</time>
      </trkpt>
      <trkpt lat="45.95375" lon="4.86785">
        <ele>268</ele>
        <time>2016-11-15T10:07:22Z</time>
      </trkpt>
      <trkpt lat="45.95377" lon="4.86791">
        <ele>268</ele>
        <time>2016-11-15T10:07:23Z</time>
      </trkpt>
      <trkpt lat="45.95381" lon="4.86797">
        <ele>268</ele>
        <time>2016-11-15T10:07:24Z</time>
      </trkpt>
      <trkpt lat="45.95384" lon="4.86804">
        <ele>268</ele>
        <time>2016-11-15T10:07:25Z</time>
      </trkpt>
      <trkpt lat="45.95387" lon="4.8681">
        <ele>268</ele>
        <time>2016-11-15T10:07:26Z</time>
      </trkpt>
      <trkpt lat="45.95391" lon="4.86817">
        <ele>268</ele>
        <time>2016-11-15T10:07:27Z</time>
      </trkpt>
      <trkpt lat="45.95394" lon="4.86823">
        <ele>268</ele>
        <time>2016-11-15T10:07:28Z</time>
      </trkpt>
      <trkpt lat="45.95398" lon="4.86831">
        <ele>268</ele>
        <time>2016-11-15T10:07:29Z</time>
      </trkpt>
      <trkpt lat="45.95401" lon="4.86838">
        <ele>268</ele>
        <time>2016-11-15T10:07:30Z</time>
      </trkpt>
      <trkpt lat="45.95405" lon="4.86846">
        <ele>268</ele>
        <time>2016-11-15T10:07:31Z</time>
      </trkpt>
      <trkpt lat="45.95409" lon="4.86853">
        <ele>269</ele>
        <time>2016-11-15T10:07:32Z</time>
      </trkpt>
      <trkpt lat="45.95412" lon="4.8686">
        <ele>269</ele>
        <time>2016-11-15T10:07:33Z</time>
      </trkpt>
      <trkpt lat="45.95416" lon="4.86867">
        <ele>269</ele>
        <time>2016-11-15T10:07:34Z</time>
      </trkpt>
      <trkpt lat="45.95419" lon="4.86874">
        <ele>268</ele>
        <time>2016-11-15T10:07:35Z</time>
      </trkpt>
      <trkpt lat="45.95423" lon="4.86881">
        <ele>268</ele>
        <time>2016-11-15T10:07:36Z</time>
      </trkpt>
      <trkpt lat="45.95426" lon="4.86887">
        <ele>268</ele>
        <time>2016-11-15T10:07:37Z</time>
      </trkpt>
      <trkpt lat="45.95429" lon="4.86894">
        <ele>268</ele>
        <time>2016-11-15T10:07:38Z</time>
      </trkpt>
      <trkpt lat="45.95432" lon="4.869">
        <ele>268</ele>
        <time>2016-11-15T10:07:39Z</time>
      </trkpt>
      <trkpt lat="45.95436" lon="4.86906">
        <ele>268</ele>
        <time>2016-11-15T10:07:40Z</time>
      </trkpt>
      <trkpt lat="45.95439" lon="4.86912">
        <ele>268</ele>
        <time>2016-11-15T10:07:41Z</time>
      </trkpt>
      <trkpt lat="45.95442" lon="4.86919">
        <ele>269</ele>
        <time>2016-11-15T10:07:42Z</time>
      </trkpt>
      <trkpt lat="45.95445" lon="4.86925">
        <ele>269</ele>
        <time>2016-11-15T10:07:43Z</time>
      </trkpt>
      <trkpt lat="45.95449" lon="4.86931">
        <ele>269</ele>
        <time>2016-11-15T10:07:44Z</time>
      </trkpt>
      <trkpt lat="45.95452" lon="4.86937">
        <ele>268</ele>
        <time>2016-11-15T10:07:45Z</time>
      </trkpt>
      <trkpt lat="45.95455" lon="4.86944">
        <ele>268</ele>
        <time>2016-11-15T10:07:46Z</time>
      </trkpt>
      <trkpt lat="45.95458" lon="4.86951">
        <ele>268</ele>
        <time>2016-11-15T10:07:47Z</time>
      </trkpt>
      <trkpt lat="45.95461" lon="4.86957">
        <ele>268</ele>
        <time>2016-11-15T10:07:48Z</time>
      </trkpt>
      <trkpt lat="45.95464" lon="4.86964">
        <ele>268</ele>
        <time>2016-11-15T10:07:49Z</time>
      </trkpt>
      <trkpt lat="45.95467" lon="4.86971">
        <ele>268</ele>
        <time>2016-11-15T10:07:50Z</time>
      </trkpt>
      <trkpt lat="45.95471" lon="4.86977">
        <ele>268</ele>
        <time>2016-11-15T10:07:51Z</time>
      </trkpt>
      <trkpt lat="45.95473" lon="4.86984">
        <ele>268</ele>
        <time>2016-11-15T10:07:52Z</time>
      </trkpt>
      <trkpt lat="45.95476" lon="4.8699">
        <ele>268</ele>
        <time>2016-11-15T10:07:53Z</time>
      </trkpt>
      <trkpt lat="45.95479" lon="4.86996">
        <ele>268</ele>
        <time>2016-11-15T10:07:54Z</time>
      </trkpt>
      <trkpt lat="45.95483" lon="4.87002">
        <ele>269</ele>
        <time>2016-11-15T10:07:55Z</time>
      </trkpt>
      <trkpt lat="45.95486" lon="4.87008">
        <ele>268</ele>
        <time>2016-11-15T10:07:56Z</time>
      </trkpt>
      <trkpt lat="45.95489" lon="4.87014">
        <ele>269</ele>
        <time>2016-11-15T10:07:57Z</time>
      </trkpt>
      <trkpt lat="45.95491" lon="4.8702">
        <ele>269</ele>
        <time>2016-11-15T10:07:58Z</time>
      </trkpt>
      <trkpt lat="45.95494" lon="4.87027">
        <ele>269</ele>
        <time>2016-11-15T10:07:59Z</time>
      </trkpt>
      <trkpt lat="45.95497" lon="4.87033">
        <ele>269</ele>
        <time>2016-11-15T10:08:00Z</time>
      </trkpt>
      <trkpt lat="45.955" lon="4.87038">
        <ele>268</ele>
        <time>2016-11-15T10:08:01Z</time>
      </trkpt>
      <trkpt lat="45.95503" lon="4.87045">
        <ele>268</ele>
        <time>2016-11-15T10:08:02Z</time>
      </trkpt>
      <trkpt lat="45.95506" lon="4.87051">
        <ele>268</ele>
        <time>2016-11-15T10:08:03Z</time>
      </trkpt>
      <trkpt lat="45.95509" lon="4.87057">
        <ele>268</ele>
        <time>2016-11-15T10:08:04Z</time>
      </trkpt>
      <trkpt lat="45.95513" lon="4.87062">
        <ele>268</ele>
        <time>2016-11-15T10:08:05Z</time>
      </trkpt>
      <trkpt lat="45.95516" lon="4.87069">
        <ele>268</ele>
        <time>2016-11-15T10:08:06Z</time>
      </trkpt>
      <trkpt lat="45.95519" lon="4.87075">
        <ele>268</ele>
        <time>2016-11-15T10:08:07Z</time>
      </trkpt>
      <trkpt lat="45.95522" lon="4.87081">
        <ele>268</ele>
        <time>2016-11-15T10:08:08Z</time>
      </trkpt>
      <trkpt lat="45.95524" lon="4.87088">
        <ele>269</ele>
        <time>2016-11-15T10:08:09Z</time>
      </trkpt>
      <trkpt lat="45.95526" lon="4.87095">
        <ele>269</ele>
        <time>2016-11-15T10:08:10Z</time>
      </trkpt>
      <trkpt lat="45.95529" lon="4.87102">
        <ele>269</ele>
        <time>2016-11-15T10:08:11Z</time>
      </trkpt>
      <trkpt lat="45.95533" lon="4.87108">
        <ele>269</ele>
        <time>2016-11-15T10:08:12Z</time>
      </trkpt>
      <trkpt lat="45.95536" lon="4.87115">
        <ele>269</ele>
        <time>2016-11-15T10:08:13Z</time>
      </trkpt>
      <trkpt lat="45.95539" lon="4.87121">
        <ele>269</ele>
        <time>2016-11-15T10:08:14Z</time>
      </trkpt>
      <trkpt lat="45.95541" lon="4.87128">
        <ele>270</ele>
        <time>2016-11-15T10:08:15Z</time>
      </trkpt>
      <trkpt lat="45.95544" lon="4.87133">
        <ele>270</ele>
        <time>2016-11-15T10:08:16Z</time>
      </trkpt>
      <trkpt lat="45.95547" lon="4.87139">
        <ele>270</ele>
        <time>2016-11-15T10:08:17Z</time>
      </trkpt>
      <trkpt lat="45.9555" lon="4.87144">
        <ele>270</ele>
        <time>2016-11-15T10:08:18Z</time>
      </trkpt>
      <trkpt lat="45.95553" lon="4.87149">
        <ele>270</ele>
        <time>2016-11-15T10:08:19Z</time>
      </trkpt>
      <trkpt lat="45.95556" lon="4.87155">
        <ele>270</ele>
        <time>2016-11-15T10:08:20Z</time>
      </trkpt>
      <trkpt lat="45.95559" lon="4.87161">
        <ele>270</ele>
        <time>2016-11-15T10:08:21Z</time>
      </trkpt>
      <trkpt lat="45.95562" lon="4.87168">
        <ele>270</ele>
        <time>2016-11-15T10:08:22Z</time>
      </trkpt>
      <trkpt lat="45.95565" lon="4.87174">
        <ele>270</ele>
        <time>2016-11-15T10:08:23Z</time>
      </trkpt>
      <trkpt lat="45.95568" lon="4.87182">
        <ele>270</ele>
        <time>2016-11-15T10:08:24Z</time>
      </trkpt>
      <trkpt lat="45.95571" lon="4.87189">
        <ele>270</ele>
        <time>2016-11-15T10:08:25Z</time>
      </trkpt>
      <trkpt lat="45.95574" lon="4.87195">
        <ele>270</ele>
        <time>2016-11-15T10:08:26Z</time>
      </trkpt>
      <trkpt lat="45.95578" lon="4.87202">
        <ele>270</ele>
        <time>2016-11-15T10:08:27Z</time>
      </trkpt>
      <trkpt lat="45.95583" lon="4.87208">
        <ele>270</ele>
        <time>2016-11-15T10:08:28Z</time>
      </trkpt>
      <trkpt lat="45.95587" lon="4.87214">
        <ele>272</ele>
        <time>2016-11-15T10:08:29Z</time>
      </trkpt>
      <trkpt lat="45.95589" lon="4.87221">
        <ele>272</ele>
        <time>2016-11-15T10:08:30Z</time>
      </trkpt>
      <trkpt lat="45.95592" lon="4.87227">
        <ele>272</ele>
        <time>2016-11-15T10:08:31Z</time>
      </trkpt>
      <trkpt lat="45.95595" lon="4.87233">
        <ele>272</ele>
        <time>2016-11-15T10:08:32Z</time>
      </trkpt>
      <trkpt lat="45.95597" lon="4.87239">
        <ele>272</ele>
        <time>2016-11-15T10:08:33Z</time>
      </trkpt>
      <trkpt lat="45.956" lon="4.87246">
        <ele>272</ele>
        <time>2016-11-15T10:08:34Z</time>
      </trkpt>
      <trkpt lat="45.95602" lon="4.87252">
        <ele>271</ele>
        <time>2016-11-15T10:08:35Z</time>
      </trkpt>
      <trkpt lat="45.95604" lon="4.87258">
        <ele>271</ele>
        <time>2016-11-15T10:08:36Z</time>
      </trkpt>
      <trkpt lat="45.95609" lon="4.87268">
        <ele>272</ele>
        <time>2016-11-15T10:08:38Z</time>
      </trkpt>
      <trkpt lat="45.95611" lon="4.87272">
        <ele>272</ele>
        <time>2016-11-15T10:08:39Z</time>
      </trkpt>
      <trkpt lat="45.95616" lon="4.8728">
        <ele>272</ele>
        <time>2016-11-15T10:08:41Z</time>
      </trkpt>
      <trkpt lat="45.95619" lon="4.87284">
        <ele>272</ele>
        <time>2016-11-15T10:08:42Z</time>
      </trkpt>
      <trkpt lat="45.95624" lon="4.87292">
        <ele>272</ele>
        <time>2016-11-15T10:08:44Z</time>
      </trkpt>
      <trkpt lat="45.95626" lon="4.87296">
        <ele>272</ele>
        <time>2016-11-15T10:08:45Z</time>
      </trkpt>
      <trkpt lat="45.95629" lon="4.87305">
        <ele>272</ele>
        <time>2016-11-15T10:08:47Z</time>
      </trkpt>
      <trkpt lat="45.95629" lon="4.87312">
        <ele>272</ele>
        <time>2016-11-15T10:08:48Z</time>
      </trkpt>
      <trkpt lat="45.95636" lon="4.87318">
        <ele>272</ele>
        <time>2016-11-15T10:08:50Z</time>
      </trkpt>
      <trkpt lat="45.95638" lon="4.87322">
        <ele>272</ele>
        <time>2016-11-15T10:08:51Z</time>
      </trkpt>
      <trkpt lat="45.95642" lon="4.87332">
        <ele>272</ele>
        <time>2016-11-15T10:08:53Z</time>
      </trkpt>
      <trkpt lat="45.95644" lon="4.87337">
        <ele>272</ele>
        <time>2016-11-15T10:08:54Z</time>
      </trkpt>
      <trkpt lat="45.95649" lon="4.87347">
        <ele>272</ele>
        <time>2016-11-15T10:08:56Z</time>
      </trkpt>
      <trkpt lat="45.95651" lon="4.87351">
        <ele>272</ele>
        <time>2016-11-15T10:08:57Z</time>
      </trkpt>
      <trkpt lat="45.95656" lon="4.87361">
        <ele>272</ele>
        <time>2016-11-15T10:08:59Z</time>
      </trkpt>
      <trkpt lat="45.95659" lon="4.87365">
        <ele>272</ele>
        <time>2016-11-15T10:09:00Z</time>
      </trkpt>
      <trkpt lat="45.95663" lon="4.87375">
        <ele>272</ele>
        <time>2016-11-15T10:09:02Z</time>
      </trkpt>
      <trkpt lat="45.95665" lon="4.87379">
        <ele>272</ele>
        <time>2016-11-15T10:09:03Z</time>
      </trkpt>
      <trkpt lat="45.95669" lon="4.87389">
        <ele>274</ele>
        <time>2016-11-15T10:09:05Z</time>
      </trkpt>
      <trkpt lat="45.95672" lon="4.87393">
        <ele>274</ele>
        <time>2016-11-15T10:09:06Z</time>
      </trkpt>
      <trkpt lat="45.95676" lon="4.87402">
        <ele>274</ele>
        <time>2016-11-15T10:09:08Z</time>
      </trkpt>
      <trkpt lat="45.95678" lon="4.87407">
        <ele>274</ele>
        <time>2016-11-15T10:09:09Z</time>
      </trkpt>
      <trkpt lat="45.95683" lon="4.87416">
        <ele>274</ele>
        <time>2016-11-15T10:09:11Z</time>
      </trkpt>
      <trkpt lat="45.95685" lon="4.87421">
        <ele>274</ele>
        <time>2016-11-15T10:09:12Z</time>
      </trkpt>
      <trkpt lat="45.9569" lon="4.87428">
        <ele>275</ele>
        <time>2016-11-15T10:09:14Z</time>
      </trkpt>
      <trkpt lat="45.95692" lon="4.87433">
        <ele>275</ele>
        <time>2016-11-15T10:09:15Z</time>
      </trkpt>
      <trkpt lat="45.95697" lon="4.87442">
        <ele>275</ele>
        <time>2016-11-15T10:09:17Z</time>
      </trkpt>
      <trkpt lat="45.95699" lon="4.87447">
        <ele>275</ele>
        <time>2016-11-15T10:09:18Z</time>
      </trkpt>
      <trkpt lat="45.95704" lon="4.87456">
        <ele>275</ele>
        <time>2016-11-15T10:09:20Z</time>
      </trkpt>
      <trkpt lat="45.95706" lon="4.8746">
        <ele>275</ele>
        <time>2016-11-15T10:09:21Z</time>
      </trkpt>
      <trkpt lat="45.95711" lon="4.8747">
        <ele>276</ele>
        <time>2016-11-15T10:09:23Z</time>
      </trkpt>
      <trkpt lat="45.95713" lon="4.87475">
        <ele>276</ele>
        <time>2016-11-15T10:09:24Z</time>
      </trkpt>
      <trkpt lat="45.95717" lon="4.87484">
        <ele>276</ele>
        <time>2016-11-15T10:09:26Z</time>
      </trkpt>
      <trkpt lat="45.9572" lon="4.87489">
        <ele>276</ele>
        <time>2016-11-15T10:09:27Z</time>
      </trkpt>
      <trkpt lat="45.95725" lon="4.87499">
        <ele>277</ele>
        <time>2016-11-15T10:09:29Z</time>
      </trkpt>
      <trkpt lat="45.95727" lon="4.87503">
        <ele>277</ele>
        <time>2016-11-15T10:09:30Z</time>
      </trkpt>
      <trkpt lat="45.95732" lon="4.87513">
        <ele>277</ele>
        <time>2016-11-15T10:09:32Z</time>
      </trkpt>
      <trkpt lat="45.95735" lon="4.87518">
        <ele>277</ele>
        <time>2016-11-15T10:09:33Z</time>
      </trkpt>
      <trkpt lat="45.9574" lon="4.87527">
        <ele>277</ele>
        <time>2016-11-15T10:09:35Z</time>
      </trkpt>
      <trkpt lat="45.95742" lon="4.87532">
        <ele>277</ele>
        <time>2016-11-15T10:09:36Z</time>
      </trkpt>
      <trkpt lat="45.95747" lon="4.87541">
        <ele>277</ele>
        <time>2016-11-15T10:09:38Z</time>
      </trkpt>
      <trkpt lat="45.9575" lon="4.87545">
        <ele>277</ele>
        <time>2016-11-15T10:09:39Z</time>
      </trkpt>
      <trkpt lat="45.95754" lon="4.87553">
        <ele>281</ele>
        <time>2016-11-15T10:09:41Z</time>
      </trkpt>
      <trkpt lat="45.95756" lon="4.87557">
        <ele>281</ele>
        <time>2016-11-15T10:09:42Z</time>
      </trkpt>
      <trkpt lat="45.95759" lon="4.87564">
        <ele>281</ele>
        <time>2016-11-15T10:09:44Z</time>
      </trkpt>
      <trkpt lat="45.95761" lon="4.87569">
        <ele>280</ele>
        <time>2016-11-15T10:09:45Z</time>
      </trkpt>
      <trkpt lat="45.95765" lon="4.87578">
        <ele>280</ele>
        <time>2016-11-15T10:09:47Z</time>
      </trkpt>
      <trkpt lat="45.95767" lon="4.87582">
        <ele>280</ele>
        <time>2016-11-15T10:09:48Z</time>
      </trkpt>
      <trkpt lat="45.95771" lon="4.87591">
        <ele>281</ele>
        <time>2016-11-15T10:09:50Z</time>
      </trkpt>
      <trkpt lat="45.95773" lon="4.87596">
        <ele>281</ele>
        <time>2016-11-15T10:09:51Z</time>
      </trkpt>
      <trkpt lat="45.95778" lon="4.87606">
        <ele>282</ele>
        <time>2016-11-15T10:09:53Z</time>
      </trkpt>
      <trkpt lat="45.95781" lon="4.8761">
        <ele>282</ele>
        <time>2016-11-15T10:09:54Z</time>
      </trkpt>
      <trkpt lat="45.95785" lon="4.8762">
        <ele>282</ele>
        <time>2016-11-15T10:09:56Z</time>
      </trkpt>
      <trkpt lat="45.95787" lon="4.87624">
        <ele>282</ele>
        <time>2016-11-15T10:09:57Z</time>
      </trkpt>
      <trkpt lat="45.95792" lon="4.87633">
        <ele>282</ele>
        <time>2016-11-15T10:09:59Z</time>
      </trkpt>
      <trkpt lat="45.95794" lon="4.87638">
        <ele>282</ele>
        <time>2016-11-15T10:10:00Z</time>
      </trkpt>
      <trkpt lat="45.95798" lon="4.87648">
        <ele>283</ele>
        <time>2016-11-15T10:10:02Z</time>
      </trkpt>
      <trkpt lat="45.958" lon="4.87653">
        <ele>283</ele>
        <time>2016-11-15T10:10:03Z</time>
      </trkpt>
      <trkpt lat="45.95803" lon="4.87662">
        <ele>283</ele>
        <time>2016-11-15T10:10:05Z</time>
      </trkpt>
      <trkpt lat="45.95805" lon="4.87667">
        <ele>283</ele>
        <time>2016-11-15T10:10:06Z</time>
      </trkpt>
      <trkpt lat="45.95808" lon="4.87675">
        <ele>283</ele>
        <time>2016-11-15T10:10:08Z</time>
      </trkpt>
      <trkpt lat="45.95809" lon="4.8768">
        <ele>283</ele>
        <time>2016-11-15T10:10:09Z</time>
      </trkpt>
      <trkpt lat="45.95812" lon="4.87688">
        <ele>283</ele>
        <time>2016-11-15T10:10:11Z</time>
      </trkpt>
      <trkpt lat="45.95813" lon="4.87693">
        <ele>283</ele>
        <time>2016-11-15T10:10:12Z</time>
      </trkpt>
      <trkpt lat="45.95815" lon="4.87703">
        <ele>283</ele>
        <time>2016-11-15T10:10:14Z</time>
      </trkpt>
      <trkpt lat="45.95816" lon="4.87707">
        <ele>283</ele>
        <time>2016-11-15T10:10:15Z</time>
      </trkpt>
      <trkpt lat="45.95818" lon="4.87716">
        <ele>283</ele>
        <time>2016-11-15T10:10:17Z</time>
      </trkpt>
      <trkpt lat="45.95819" lon="4.87721">
        <ele>283</ele>
        <time>2016-11-15T10:10:18Z</time>
      </trkpt>
      <trkpt lat="45.9582" lon="4.8773">
        <ele>284</ele>
        <time>2016-11-15T10:10:20Z</time>
      </trkpt>
      <trkpt lat="45.95821" lon="4.87735">
        <ele>284</ele>
        <time>2016-11-15T10:10:21Z</time>
      </trkpt>
      <trkpt lat="45.95823" lon="4.87745">
        <ele>284</ele>
        <time>2016-11-15T10:10:23Z</time>
      </trkpt>
      <trkpt lat="45.95824" lon="4.8775">
        <ele>284</ele>
        <time>2016-11-15T10:10:24Z</time>
      </trkpt>
      <trkpt lat="45.95825" lon="4.8776">
        <ele>285</ele>
        <time>2016-11-15T10:10:26Z</time>
      </trkpt>
      <trkpt lat="45.95826" lon="4.87765">
        <ele>285</ele>
        <time>2016-11-15T10:10:27Z</time>
      </trkpt>
      <trkpt lat="45.95827" lon="4.87775">
        <ele>285</ele>
        <time>2016-11-15T10:10:29Z</time>
      </trkpt>
      <trkpt lat="45.95828" lon="4.8778">
        <ele>285</ele>
        <time>2016-11-15T10:10:30Z</time>
      </trkpt>
      <trkpt lat="45.95829" lon="4.87792">
        <ele>285</ele>
        <time>2016-11-15T10:10:32Z</time>
      </trkpt>
      <trkpt lat="45.9583" lon="4.87797">
        <ele>285</ele>
        <time>2016-11-15T10:10:33Z</time>
      </trkpt>
      <trkpt lat="45.95831" lon="4.87809">
        <ele>286</ele>
        <time>2016-11-15T10:10:35Z</time>
      </trkpt>
      <trkpt lat="45.95831" lon="4.87815">
        <ele>286</ele>
        <time>2016-11-15T10:10:36Z</time>
      </trkpt>
      <trkpt lat="45.95831" lon="4.87826">
        <ele>287</ele>
        <time>2016-11-15T10:10:38Z</time>
      </trkpt>
      <trkpt lat="45.95832" lon="4.87832">
        <ele>288</ele>
        <time>2016-11-15T10:10:39Z</time>
      </trkpt>
      <trkpt lat="45.95833" lon="4.87842">
        <ele>288</ele>
        <time>2016-11-15T10:10:41Z</time>
      </trkpt>
      <trkpt lat="45.95834" lon="4.87847">
        <ele>288</ele>
        <time>2016-11-15T10:10:42Z</time>
      </trkpt>
      <trkpt lat="45.95834" lon="4.87856">
        <ele>289</ele>
        <time>2016-11-15T10:10:44Z</time>
      </trkpt>
      <trkpt lat="45.95835" lon="4.87861">
        <ele>289</ele>
        <time>2016-11-15T10:10:45Z</time>
      </trkpt>
      <trkpt lat="45.95835" lon="4.87872">
        <ele>289</ele>
        <time>2016-11-15T10:10:47Z</time>
      </trkpt>
      <trkpt lat="45.95836" lon="4.87877">
        <ele>289</ele>
        <time>2016-11-15T10:10:48Z</time>
      </trkpt>
      <trkpt lat="45.95836" lon="4.87887">
        <ele>289</ele>
        <time>2016-11-15T10:10:50Z</time>
      </trkpt>
      <trkpt lat="45.95837" lon="4.87892">
        <ele>289</ele>
        <time>2016-11-15T10:10:51Z</time>
      </trkpt>
      <trkpt lat="45.95838" lon="4.87901">
        <ele>289</ele>
        <time>2016-11-15T10:10:53Z</time>
      </trkpt>
      <trkpt lat="45.95839" lon="4.87906">
        <ele>289</ele>
        <time>2016-11-15T10:10:54Z</time>
      </trkpt>
      <trkpt lat="45.9584" lon="4.87916">
        <ele>289</ele>
        <time>2016-11-15T10:10:56Z</time>
      </trkpt>
      <trkpt lat="45.95841" lon="4.87921">
        <ele>289</ele>
        <time>2016-11-15T10:10:57Z</time>
      </trkpt>
      <trkpt lat="45.95842" lon="4.87932">
        <ele>289</ele>
        <time>2016-11-15T10:10:59Z</time>
      </trkpt>
      <trkpt lat="45.95842" lon="4.87937">
        <ele>289</ele>
        <time>2016-11-15T10:11:00Z</time>
      </trkpt>
      <trkpt lat="45.95842" lon="4.87949">
        <ele>289</ele>
        <time>2016-11-15T10:11:02Z</time>
      </trkpt>
      <trkpt lat="45.95842" lon="4.87955">
        <ele>289</ele>
        <time>2016-11-15T10:11:03Z</time>
      </trkpt>
      <trkpt lat="45.95844" lon="4.87966">
        <ele>289</ele>
        <time>2016-11-15T10:11:05Z</time>
      </trkpt>
      <trkpt lat="45.95844" lon="4.87972">
        <ele>289</ele>
        <time>2016-11-15T10:11:06Z</time>
      </trkpt>
      <trkpt lat="45.95845" lon="4.87983">
        <ele>289</ele>
        <time>2016-11-15T10:11:08Z</time>
      </trkpt>
      <trkpt lat="45.95845" lon="4.87989">
        <ele>289</ele>
        <time>2016-11-15T10:11:09Z</time>
      </trkpt>
      <trkpt lat="45.95846" lon="4.88001">
        <ele>288</ele>
        <time>2016-11-15T10:11:11Z</time>
      </trkpt>
      <trkpt lat="45.95846" lon="4.88007">
        <ele>288</ele>
        <time>2016-11-15T10:11:12Z</time>
      </trkpt>
      <trkpt lat="45.95846" lon="4.88019">
        <ele>289</ele>
        <time>2016-11-15T10:11:14Z</time>
      </trkpt>
      <trkpt lat="45.95846" lon="4.88025">
        <ele>289</ele>
        <time>2016-11-15T10:11:15Z</time>
      </trkpt>
      <trkpt lat="45.95847" lon="4.88038">
        <ele>289</ele>
        <time>2016-11-15T10:11:17Z</time>
      </trkpt>
      <trkpt lat="45.95847" lon="4.88044">
        <ele>289</ele>
        <time>2016-11-15T10:11:18Z</time>
      </trkpt>
      <trkpt lat="45.95847" lon="4.88057">
        <ele>289</ele>
        <time>2016-11-15T10:11:20Z</time>
      </trkpt>
      <trkpt lat="45.95847" lon="4.88063">
        <ele>289</ele>
        <time>2016-11-15T10:11:21Z</time>
      </trkpt>
      <trkpt lat="45.95848" lon="4.88075">
        <ele>289</ele>
        <time>2016-11-15T10:11:23Z</time>
      </trkpt>
      <trkpt lat="45.95848" lon="4.88081">
        <ele>288</ele>
        <time>2016-11-15T10:11:24Z</time>
      </trkpt>
      <trkpt lat="45.95849" lon="4.88087">
        <ele>288</ele>
        <time>2016-11-15T10:11:25Z</time>
      </trkpt>
      <trkpt lat="45.95849" lon="4.88094">
        <ele>288</ele>
        <time>2016-11-15T10:11:26Z</time>
      </trkpt>
      <trkpt lat="45.95849" lon="4.88101">
        <ele>288</ele>
        <time>2016-11-15T10:11:27Z</time>
      </trkpt>
      <trkpt lat="45.95849" lon="4.88107">
        <ele>289</ele>
        <time>2016-11-15T10:11:28Z</time>
      </trkpt>
      <trkpt lat="45.95849" lon="4.88114">
        <ele>289</ele>
        <time>2016-11-15T10:11:29Z</time>
      </trkpt>
      <trkpt lat="45.95849" lon="4.88121">
        <ele>289</ele>
        <time>2016-11-15T10:11:30Z</time>
      </trkpt>
      <trkpt lat="45.95849" lon="4.88128">
        <ele>289</ele>
        <time>2016-11-15T10:11:31Z</time>
      </trkpt>
      <trkpt lat="45.95849" lon="4.88135">
        <ele>289</ele>
        <time>2016-11-15T10:11:32Z</time>
      </trkpt>
      <trkpt lat="45.95849" lon="4.88142">
        <ele>288</ele>
        <time>2016-11-15T10:11:33Z</time>
      </trkpt>
      <trkpt lat="45.9585" lon="4.88149">
        <ele>288</ele>
        <time>2016-11-15T10:11:34Z</time>
      </trkpt>
      <trkpt lat="45.95851" lon="4.88157">
        <ele>288</ele>
        <time>2016-11-15T10:11:35Z</time>
      </trkpt>
      <trkpt lat="45.95851" lon="4.88164">
        <ele>288</ele>
        <time>2016-11-15T10:11:36Z</time>
      </trkpt>
      <trkpt lat="45.95851" lon="4.88171">
        <ele>288</ele>
        <time>2016-11-15T10:11:37Z</time>
      </trkpt>
      <trkpt lat="45.95852" lon="4.88179">
        <ele>288</ele>
        <time>2016-11-15T10:11:38Z</time>
      </trkpt>
      <trkpt lat="45.95853" lon="4.88186">
        <ele>288</ele>
        <time>2016-11-15T10:11:39Z</time>
      </trkpt>
      <trkpt lat="45.95853" lon="4.88194">
        <ele>288</ele>
        <time>2016-11-15T10:11:40Z</time>
      </trkpt>
      <trkpt lat="45.95854" lon="4.88201">
        <ele>288</ele>
        <time>2016-11-15T10:11:41Z</time>
      </trkpt>
      <trkpt lat="45.95854" lon="4.88209">
        <ele>288</ele>
        <time>2016-11-15T10:11:42Z</time>
      </trkpt>
      <trkpt lat="45.95854" lon="4.88216">
        <ele>288</ele>
        <time>2016-11-15T10:11:43Z</time>
      </trkpt>
      <trkpt lat="45.95855" lon="4.88223">
        <ele>288</ele>
        <time>2016-11-15T10:11:44Z</time>
      </trkpt>
      <trkpt lat="45.95855" lon="4.8823">
        <ele>288</ele>
        <time>2016-11-15T10:11:45Z</time>
      </trkpt>
      <trkpt lat="45.95855" lon="4.88238">
        <ele>288</ele>
        <time>2016-11-15T10:11:46Z</time>
      </trkpt>
      <trkpt lat="45.95855" lon="4.88245">
        <ele>288</ele>
        <time>2016-11-15T10:11:47Z</time>
      </trkpt>
      <trkpt lat="45.95855" lon="4.88252">
        <ele>287</ele>
        <time>2016-11-15T10:11:48Z</time>
      </trkpt>
      <trkpt lat="45.95856" lon="4.8826">
        <ele>287</ele>
        <time>2016-11-15T10:11:49Z</time>
      </trkpt>
      <trkpt lat="45.95856" lon="4.88267">
        <ele>287</ele>
        <time>2016-11-15T10:11:50Z</time>
      </trkpt>
      <trkpt lat="45.95856" lon="4.88275">
        <ele>288</ele>
        <time>2016-11-15T10:11:51Z</time>
      </trkpt>
      <trkpt lat="45.95857" lon="4.88282">
        <ele>288</ele>
        <time>2016-11-15T10:11:52Z</time>
      </trkpt>
      <trkpt lat="45.95857" lon="4.8829">
        <ele>288</ele>
        <time>2016-11-15T10:11:53Z</time>
      </trkpt>
      <trkpt lat="45.95857" lon="4.88298">
        <ele>288</ele>
        <time>2016-11-15T10:11:54Z</time>
      </trkpt>
      <trkpt lat="45.95858" lon="4.88305">
        <ele>288</ele>
        <time>2016-11-15T10:11:55Z</time>
      </trkpt>
      <trkpt lat="45.95858" lon="4.88313">
        <ele>288</ele>
        <time>2016-11-15T10:11:56Z</time>
      </trkpt>
      <trkpt lat="45.95858" lon="4.8832">
        <ele>288</ele>
        <time>2016-11-15T10:11:57Z</time>
      </trkpt>
      <trkpt lat="45.95859" lon="4.88327">
        <ele>288</ele>
        <time>2016-11-15T10:11:58Z</time>
      </trkpt>
      <trkpt lat="45.95859" lon="4.88335">
        <ele>287</ele>
        <time>2016-11-15T10:11:59Z</time>
      </trkpt>
      <trkpt lat="45.95859" lon="4.88342">
        <ele>287</ele>
        <time>2016-11-15T10:12:00Z</time>
      </trkpt>
      <trkpt lat="45.95859" lon="4.8835">
        <ele>287</ele>
        <time>2016-11-15T10:12:01Z</time>
      </trkpt>
      <trkpt lat="45.95859" lon="4.88358">
        <ele>287</ele>
        <time>2016-11-15T10:12:02Z</time>
      </trkpt>
      <trkpt lat="45.9586" lon="4.88365">
        <ele>287</ele>
        <time>2016-11-15T10:12:03Z</time>
      </trkpt>
      <trkpt lat="45.9586" lon="4.88373">
        <ele>287</ele>
        <time>2016-11-15T10:12:04Z</time>
      </trkpt>
      <trkpt lat="45.95861" lon="4.88382">
        <ele>287</ele>
        <time>2016-11-15T10:12:05Z</time>
      </trkpt>
      <trkpt lat="45.95861" lon="4.8839">
        <ele>287</ele>
        <time>2016-11-15T10:12:06Z</time>
      </trkpt>
      <trkpt lat="45.95861" lon="4.88397">
        <ele>287</ele>
        <time>2016-11-15T10:12:07Z</time>
      </trkpt>
      <trkpt lat="45.95861" lon="4.88406">
        <ele>287</ele>
        <time>2016-11-15T10:12:08Z</time>
      </trkpt>
      <trkpt lat="45.95862" lon="4.88415">
        <ele>287</ele>
        <time>2016-11-15T10:12:09Z</time>
      </trkpt>
      <trkpt lat="45.95862" lon="4.88424">
        <ele>287</ele>
        <time>2016-11-15T10:12:10Z</time>
      </trkpt>
      <trkpt lat="45.95863" lon="4.88433">
        <ele>287</ele>
        <time>2016-11-15T10:12:11Z</time>
      </trkpt>
      <trkpt lat="45.95863" lon="4.88442">
        <ele>287</ele>
        <time>2016-11-15T10:12:12Z</time>
      </trkpt>
      <trkpt lat="45.95864" lon="4.8845">
        <ele>287</ele>
        <time>2016-11-15T10:12:13Z</time>
      </trkpt>
      <trkpt lat="45.95864" lon="4.88458">
        <ele>287</ele>
        <time>2016-11-15T10:12:14Z</time>
      </trkpt>
      <trkpt lat="45.95865" lon="4.88466">
        <ele>287</ele>
        <time>2016-11-15T10:12:15Z</time>
      </trkpt>
      <trkpt lat="45.95865" lon="4.88474">
        <ele>287</ele>
        <time>2016-11-15T10:12:16Z</time>
      </trkpt>
      <trkpt lat="45.95865" lon="4.88482">
        <ele>287</ele>
        <time>2016-11-15T10:12:17Z</time>
      </trkpt>
      <trkpt lat="45.95866" lon="4.88489">
        <ele>288</ele>
        <time>2016-11-15T10:12:18Z</time>
      </trkpt>
      <trkpt lat="45.95866" lon="4.88496">
        <ele>288</ele>
        <time>2016-11-15T10:12:19Z</time>
      </trkpt>
      <trkpt lat="45.95866" lon="4.88503">
        <ele>288</ele>
        <time>2016-11-15T10:12:20Z</time>
      </trkpt>
      <trkpt lat="45.95866" lon="4.8851">
        <ele>288</ele>
        <time>2016-11-15T10:12:21Z</time>
      </trkpt>
      <trkpt lat="45.95866" lon="4.88518">
        <ele>288</ele>
        <time>2016-11-15T10:12:22Z</time>
      </trkpt>
      <trkpt lat="45.95866" lon="4.88526">
        <ele>288</ele>
        <time>2016-11-15T10:12:23Z</time>
      </trkpt>
      <trkpt lat="45.95867" lon="4.88534">
        <ele>288</ele>
        <time>2016-11-15T10:12:24Z</time>
      </trkpt>
      <trkpt lat="45.95868" lon="4.88543">
        <ele>288</ele>
        <time>2016-11-15T10:12:25Z</time>
      </trkpt>
      <trkpt lat="45.95868" lon="4.88551">
        <ele>288</ele>
        <time>2016-11-15T10:12:26Z</time>
      </trkpt>
      <trkpt lat="45.95869" lon="4.8856">
        <ele>288</ele>
        <time>2016-11-15T10:12:27Z</time>
      </trkpt>
      <trkpt lat="45.95869" lon="4.88568">
        <ele>288</ele>
        <time>2016-11-15T10:12:28Z</time>
      </trkpt>
      <trkpt lat="45.9587" lon="4.88576">
        <ele>288</ele>
        <time>2016-11-15T10:12:29Z</time>
      </trkpt>
      <trkpt lat="45.9587" lon="4.88584">
        <ele>288</ele>
        <time>2016-11-15T10:12:30Z</time>
      </trkpt>
      <trkpt lat="45.9587" lon="4.88592">
        <ele>288</ele>
        <time>2016-11-15T10:12:31Z</time>
      </trkpt>
      <trkpt lat="45.95871" lon="4.88599">
        <ele>288</ele>
        <time>2016-11-15T10:12:32Z</time>
      </trkpt>
      <trkpt lat="45.95871" lon="4.88606">
        <ele>288</ele>
        <time>2016-11-15T10:12:33Z</time>
      </trkpt>
      <trkpt lat="45.95871" lon="4.88613">
        <ele>288</ele>
        <time>2016-11-15T10:12:34Z</time>
      </trkpt>
      <trkpt lat="45.95871" lon="4.88619">
        <ele>288</ele>
        <time>2016-11-15T10:12:35Z</time>
      </trkpt>
      <trkpt lat="45.95871" lon="4.88626">
        <ele>288</ele>
        <time>2016-11-15T10:12:36Z</time>
      </trkpt>
      <trkpt lat="45.95871" lon="4.88632">
        <ele>288</ele>
        <time>2016-11-15T10:12:37Z</time>
      </trkpt>
      <trkpt lat="45.95872" lon="4.88639">
        <ele>288</ele>
        <time>2016-11-15T10:12:38Z</time>
      </trkpt>
      <trkpt lat="45.95872" lon="4.88646">
        <ele>288</ele>
        <time>2016-11-15T10:12:39Z</time>
      </trkpt>
      <trkpt lat="45.95872" lon="4.88654">
        <ele>288</ele>
        <time>2016-11-15T10:12:40Z</time>
      </trkpt>
      <trkpt lat="45.95872" lon="4.88662">
        <ele>288</ele>
        <time>2016-11-15T10:12:41Z</time>
      </trkpt>
      <trkpt lat="45.95872" lon="4.8867">
        <ele>288</ele>
        <time>2016-11-15T10:12:42Z</time>
      </trkpt>
      <trkpt lat="45.95872" lon="4.88679">
        <ele>288</ele>
        <time>2016-11-15T10:12:43Z</time>
      </trkpt>
      <trkpt lat="45.95873" lon="4.88687">
        <ele>288</ele>
        <time>2016-11-15T10:12:44Z</time>
      </trkpt>
      <trkpt lat="45.95873" lon="4.88696">
        <ele>288</ele>
        <time>2016-11-15T10:12:45Z</time>
      </trkpt>
      <trkpt lat="45.95873" lon="4.88704">
        <ele>288</ele>
        <time>2016-11-15T10:12:46Z</time>
      </trkpt>
      <trkpt lat="45.95874" lon="4.88713">
        <ele>288</ele>
        <time>2016-11-15T10:12:47Z</time>
      </trkpt>
      <trkpt lat="45.95874" lon="4.88721">
        <ele>288</ele>
        <time>2016-11-15T10:12:48Z</time>
      </trkpt>
      <trkpt lat="45.95874" lon="4.88728">
        <ele>288</ele>
        <time>2016-11-15T10:12:49Z</time>
      </trkpt>
      <trkpt lat="45.95875" lon="4.88736">
        <ele>288</ele>
        <time>2016-11-15T10:12:50Z</time>
      </trkpt>
      <trkpt lat="45.95875" lon="4.88743">
        <ele>288</ele>
        <time>2016-11-15T10:12:51Z</time>
      </trkpt>
      <trkpt lat="45.95876" lon="4.8875">
        <ele>288</ele>
        <time>2016-11-15T10:12:52Z</time>
      </trkpt>
      <trkpt lat="45.95876" lon="4.88757">
        <ele>288</ele>
        <time>2016-11-15T10:12:53Z</time>
      </trkpt>
      <trkpt lat="45.95876" lon="4.88764">
        <ele>288</ele>
        <time>2016-11-15T10:12:54Z</time>
      </trkpt>
      <trkpt lat="45.95877" lon="4.88771">
        <ele>288</ele>
        <time>2016-11-15T10:12:55Z</time>
      </trkpt>
      <trkpt lat="45.95877" lon="4.88778">
        <ele>288</ele>
        <time>2016-11-15T10:12:56Z</time>
      </trkpt>
      <trkpt lat="45.95877" lon="4.88785">
        <ele>288</ele>
        <time>2016-11-15T10:12:57Z</time>
      </trkpt>
      <trkpt lat="45.95878" lon="4.88792">
        <ele>288</ele>
        <time>2016-11-15T10:12:58Z</time>
      </trkpt>
      <trkpt lat="45.95878" lon="4.888">
        <ele>288</ele>
        <time>2016-11-15T10:12:59Z</time>
      </trkpt>
      <trkpt lat="45.95878" lon="4.88807">
        <ele>288</ele>
        <time>2016-11-15T10:13:00Z</time>
      </trkpt>
      <trkpt lat="45.95878" lon="4.88816">
        <ele>288</ele>
        <time>2016-11-15T10:13:01Z</time>
      </trkpt>
      <trkpt lat="45.95878" lon="4.88824">
        <ele>288</ele>
        <time>2016-11-15T10:13:02Z</time>
      </trkpt>
      <trkpt lat="45.95878" lon="4.88832">
        <ele>288</ele>
        <time>2016-11-15T10:13:03Z</time>
      </trkpt>
      <trkpt lat="45.95879" lon="4.8884">
        <ele>289</ele>
        <time>2016-11-15T10:13:04Z</time>
      </trkpt>
      <trkpt lat="45.95879" lon="4.88848">
        <ele>289</ele>
        <time>2016-11-15T10:13:05Z</time>
      </trkpt>
      <trkpt lat="45.95879" lon="4.88856">
        <ele>289</ele>
        <time>2016-11-15T10:13:06Z</time>
      </trkpt>
      <trkpt lat="45.95879" lon="4.88864">
        <ele>289</ele>
        <time>2016-11-15T10:13:07Z</time>
      </trkpt>
      <trkpt lat="45.95879" lon="4.88872">
        <ele>289</ele>
        <time>2016-11-15T10:13:08Z</time>
      </trkpt>
      <trkpt lat="45.95879" lon="4.88879">
        <ele>289</ele>
        <time>2016-11-15T10:13:09Z</time>
      </trkpt>
      <trkpt lat="45.95879" lon="4.88887">
        <ele>289</ele>
        <time>2016-11-15T10:13:10Z</time>
      </trkpt>
      <trkpt lat="45.95879" lon="4.88894">
        <ele>289</ele>
        <time>2016-11-15T10:13:11Z</time>
      </trkpt>
      <trkpt lat="45.95879" lon="4.88901">
        <ele>289</ele>
        <time>2016-11-15T10:13:12Z</time>
      </trkpt>
      <trkpt lat="45.95879" lon="4.88909">
        <ele>289</ele>
        <time>2016-11-15T10:13:13Z</time>
      </trkpt>
      <trkpt lat="45.9588" lon="4.88917">
        <ele>289</ele>
        <time>2016-11-15T10:13:14Z</time>
      </trkpt>
      <trkpt lat="45.9588" lon="4.88924">
        <ele>289</ele>
        <time>2016-11-15T10:13:15Z</time>
      </trkpt>
      <trkpt lat="45.9588" lon="4.88932">
        <ele>289</ele>
        <time>2016-11-15T10:13:16Z</time>
      </trkpt>
      <trkpt lat="45.9588" lon="4.8894">
        <ele>289</ele>
        <time>2016-11-15T10:13:17Z</time>
      </trkpt>
      <trkpt lat="45.9588" lon="4.88947">
        <ele>289</ele>
        <time>2016-11-15T10:13:18Z</time>
      </trkpt>
      <trkpt lat="45.9588" lon="4.88954">
        <ele>289</ele>
        <time>2016-11-15T10:13:19Z</time>
      </trkpt>
      <trkpt lat="45.95881" lon="4.88962">
        <ele>289</ele>
        <time>2016-11-15T10:13:20Z</time>
      </trkpt>
      <trkpt lat="45.95881" lon="4.88969">
        <ele>289</ele>
        <time>2016-11-15T10:13:21Z</time>
      </trkpt>
      <trkpt lat="45.95882" lon="4.88976">
        <ele>289</ele>
        <time>2016-11-15T10:13:22Z</time>
      </trkpt>
      <trkpt lat="45.95883" lon="4.88983">
        <ele>289</ele>
        <time>2016-11-15T10:13:23Z</time>
      </trkpt>
      <trkpt lat="45.95884" lon="4.8899">
        <ele>289</ele>
        <time>2016-11-15T10:13:24Z</time>
      </trkpt>
      <trkpt lat="45.95886" lon="4.88997">
        <ele>289</ele>
        <time>2016-11-15T10:13:25Z</time>
      </trkpt>
      <trkpt lat="45.95888" lon="4.89004">
        <ele>289</ele>
        <time>2016-11-15T10:13:26Z</time>
      </trkpt>
      <trkpt lat="45.9589" lon="4.89011">
        <ele>289</ele>
        <time>2016-11-15T10:13:27Z</time>
      </trkpt>
      <trkpt lat="45.95891" lon="4.89017">
        <ele>289</ele>
        <time>2016-11-15T10:13:28Z</time>
      </trkpt>
      <trkpt lat="45.95893" lon="4.89024">
        <ele>289</ele>
        <time>2016-11-15T10:13:29Z</time>
      </trkpt>
      <trkpt lat="45.95894" lon="4.8903">
        <ele>289</ele>
        <time>2016-11-15T10:13:30Z</time>
      </trkpt>
      <trkpt lat="45.95896" lon="4.89037">
        <ele>289</ele>
        <time>2016-11-15T10:13:31Z</time>
      </trkpt>
      <trkpt lat="45.95897" lon="4.89043">
        <ele>289</ele>
        <time>2016-11-15T10:13:32Z</time>
      </trkpt>
      <trkpt lat="45.95897" lon="4.8905">
        <ele>289</ele>
        <time>2016-11-15T10:13:33Z</time>
      </trkpt>
      <trkpt lat="45.95897" lon="4.89056">
        <ele>289</ele>
        <time>2016-11-15T10:13:34Z</time>
      </trkpt>
      <trkpt lat="45.95895" lon="4.89068">
        <ele>289</ele>
        <time>2016-11-15T10:13:36Z</time>
      </trkpt>
      <trkpt lat="45.95894" lon="4.89073">
        <ele>289</ele>
        <time>2016-11-15T10:13:37Z</time>
      </trkpt>
      <trkpt lat="45.9589" lon="4.89082">
        <ele>289</ele>
        <time>2016-11-15T10:13:39Z</time>
      </trkpt>
      <trkpt lat="45.95888" lon="4.89086">
        <ele>288</ele>
        <time>2016-11-15T10:13:40Z</time>
      </trkpt>
      <trkpt lat="45.95883" lon="4.89093">
        <ele>288</ele>
        <time>2016-11-15T10:13:42Z</time>
      </trkpt>
      <trkpt lat="45.9588" lon="4.89097">
        <ele>288</ele>
        <time>2016-11-15T10:13:43Z</time>
      </trkpt>
      <trkpt lat="45.95878" lon="4.89103">
        <ele>288</ele>
        <time>2016-11-15T10:13:44Z</time>
      </trkpt>
      <trkpt lat="45.95876" lon="4.8911">
        <ele>288</ele>
        <time>2016-11-15T10:13:45Z</time>
      </trkpt>
      <trkpt lat="45.95875" lon="4.89117">
        <ele>288</ele>
        <time>2016-11-15T10:13:46Z</time>
      </trkpt>
      <trkpt lat="45.95874" lon="4.89126">
        <ele>288</ele>
        <time>2016-11-15T10:13:47Z</time>
      </trkpt>
      <trkpt lat="45.95874" lon="4.89134">
        <ele>288</ele>
        <time>2016-11-15T10:13:48Z</time>
      </trkpt>
      <trkpt lat="45.95875" lon="4.89142">
        <ele>288</ele>
        <time>2016-11-15T10:13:49Z</time>
      </trkpt>
      <trkpt lat="45.95876" lon="4.8915">
        <ele>288</ele>
        <time>2016-11-15T10:13:50Z</time>
      </trkpt>
      <trkpt lat="45.95877" lon="4.89157">
        <ele>288</ele>
        <time>2016-11-15T10:13:51Z</time>
      </trkpt>
      <trkpt lat="45.95878" lon="4.89164">
        <ele>288</ele>
        <time>2016-11-15T10:13:52Z</time>
      </trkpt>
      <trkpt lat="45.95878" lon="4.89171">
        <ele>288</ele>
        <time>2016-11-15T10:13:53Z</time>
      </trkpt>
      <trkpt lat="45.9588" lon="4.89177">
        <ele>288</ele>
        <time>2016-11-15T10:13:54Z</time>
      </trkpt>
      <trkpt lat="45.9588" lon="4.89183">
        <ele>288</ele>
        <time>2016-11-15T10:13:55Z</time>
      </trkpt>
      <trkpt lat="45.95882" lon="4.89196">
        <ele>288</ele>
        <time>2016-11-15T10:13:57Z</time>
      </trkpt>
      <trkpt lat="45.95882" lon="4.89203">
        <ele>288</ele>
        <time>2016-11-15T10:13:58Z</time>
      </trkpt>
      <trkpt lat="45.95882" lon="4.89209">
        <ele>288</ele>
        <time>2016-11-15T10:13:59Z</time>
      </trkpt>
      <trkpt lat="45.95882" lon="4.89216">
        <ele>288</ele>
        <time>2016-11-15T10:14:00Z</time>
      </trkpt>
      <trkpt lat="45.95882" lon="4.89223">
        <ele>288</ele>
        <time>2016-11-15T10:14:01Z</time>
      </trkpt>
      <trkpt lat="45.95882" lon="4.89231">
        <ele>288</ele>
        <time>2016-11-15T10:14:02Z</time>
      </trkpt>
      <trkpt lat="45.95882" lon="4.89238">
        <ele>288</ele>
        <time>2016-11-15T10:14:03Z</time>
      </trkpt>
      <trkpt lat="45.95882" lon="4.89246">
        <ele>288</ele>
        <time>2016-11-15T10:14:04Z</time>
      </trkpt>
      <trkpt lat="45.95882" lon="4.89253">
        <ele>289</ele>
        <time>2016-11-15T10:14:05Z</time>
      </trkpt>
      <trkpt lat="45.95882" lon="4.89261">
        <ele>289</ele>
        <time>2016-11-15T10:14:06Z</time>
      </trkpt>
      <trkpt lat="45.95883" lon="4.89268">
        <ele>289</ele>
        <time>2016-11-15T10:14:07Z</time>
      </trkpt>
      <trkpt lat="45.95882" lon="4.89274">
        <ele>289</ele>
        <time>2016-11-15T10:14:08Z</time>
      </trkpt>
      <trkpt lat="45.95882" lon="4.89287">
        <ele>289</ele>
        <time>2016-11-15T10:14:10Z</time>
      </trkpt>
      <trkpt lat="45.95882" lon="4.89293">
        <ele>289</ele>
        <time>2016-11-15T10:14:11Z</time>
      </trkpt>
      <trkpt lat="45.95882" lon="4.89299">
        <ele>289</ele>
        <time>2016-11-15T10:14:12Z</time>
      </trkpt>
      <trkpt lat="45.95882" lon="4.89306">
        <ele>289</ele>
        <time>2016-11-15T10:14:13Z</time>
      </trkpt>
      <trkpt lat="45.95882" lon="4.89314">
        <ele>289</ele>
        <time>2016-11-15T10:14:14Z</time>
      </trkpt>
      <trkpt lat="45.95882" lon="4.89322">
        <ele>289</ele>
        <time>2016-11-15T10:14:15Z</time>
      </trkpt>
      <trkpt lat="45.95882" lon="4.89331">
        <ele>289</ele>
        <time>2016-11-15T10:14:16Z</time>
      </trkpt>
      <trkpt lat="45.95882" lon="4.89339">
        <ele>289</ele>
        <time>2016-11-15T10:14:17Z</time>
      </trkpt>
      <trkpt lat="45.95883" lon="4.89347">
        <ele>289</ele>
        <time>2016-11-15T10:14:18Z</time>
      </trkpt>
      <trkpt lat="45.95883" lon="4.89355">
        <ele>289</ele>
        <time>2016-11-15T10:14:19Z</time>
      </trkpt>
      <trkpt lat="45.95883" lon="4.89362">
        <ele>289</ele>
        <time>2016-11-15T10:14:20Z</time>
      </trkpt>
      <trkpt lat="45.95883" lon="4.89369">
        <ele>289</ele>
        <time>2016-11-15T10:14:21Z</time>
      </trkpt>
      <trkpt lat="45.95883" lon="4.89376">
        <ele>289</ele>
        <time>2016-11-15T10:14:22Z</time>
      </trkpt>
      <trkpt lat="45.95883" lon="4.89382">
        <ele>289</ele>
        <time>2016-11-15T10:14:23Z</time>
      </trkpt>
      <trkpt lat="45.95883" lon="4.89389">
        <ele>289</ele>
        <time>2016-11-15T10:14:24Z</time>
      </trkpt>
      <trkpt lat="45.95883" lon="4.89396">
        <ele>289</ele>
        <time>2016-11-15T10:14:25Z</time>
      </trkpt>
      <trkpt lat="45.95884" lon="4.89408">
        <ele>289</ele>
        <time>2016-11-15T10:14:27Z</time>
      </trkpt>
      <trkpt lat="45.95884" lon="4.89414">
        <ele>289</ele>
        <time>2016-11-15T10:14:28Z</time>
      </trkpt>
      <trkpt lat="45.95885" lon="4.89426">
        <ele>289</ele>
        <time>2016-11-15T10:14:30Z</time>
      </trkpt>
      <trkpt lat="45.95884" lon="4.89433">
        <ele>289</ele>
        <time>2016-11-15T10:14:31Z</time>
      </trkpt>
      <trkpt lat="45.95884" lon="4.8944">
        <ele>289</ele>
        <time>2016-11-15T10:14:32Z</time>
      </trkpt>
      <trkpt lat="45.95884" lon="4.89448">
        <ele>289</ele>
        <time>2016-11-15T10:14:33Z</time>
      </trkpt>
      <trkpt lat="45.95885" lon="4.89455">
        <ele>289</ele>
        <time>2016-11-15T10:14:34Z</time>
      </trkpt>
      <trkpt lat="45.95885" lon="4.89462">
        <ele>289</ele>
        <time>2016-11-15T10:14:35Z</time>
      </trkpt>
      <trkpt lat="45.95885" lon="4.89469">
        <ele>289</ele>
        <time>2016-11-15T10:14:36Z</time>
      </trkpt>
      <trkpt lat="45.95886" lon="4.89476">
        <ele>289</ele>
        <time>2016-11-15T10:14:37Z</time>
      </trkpt>
      <trkpt lat="45.95885" lon="4.89483">
        <ele>289</ele>
        <time>2016-11-15T10:14:38Z</time>
      </trkpt>
      <trkpt lat="45.95885" lon="4.89489">
        <ele>289</ele>
        <time>2016-11-15T10:14:39Z</time>
      </trkpt>
      <trkpt lat="45.95885" lon="4.89496">
        <ele>289</ele>
        <time>2016-11-15T10:14:40Z</time>
      </trkpt>
      <trkpt lat="45.95886" lon="4.89503">
        <ele>288</ele>
        <time>2016-11-15T10:14:41Z</time>
      </trkpt>
      <trkpt lat="45.95886" lon="4.89509">
        <ele>288</ele>
        <time>2016-11-15T10:14:42Z</time>
      </trkpt>
      <trkpt lat="45.95886" lon="4.89516">
        <ele>288</ele>
        <time>2016-11-15T10:14:43Z</time>
      </trkpt>
      <trkpt lat="45.95886" lon="4.89523">
        <ele>288</ele>
        <time>2016-11-15T10:14:44Z</time>
      </trkpt>
      <trkpt lat="45.95886" lon="4.8953">
        <ele>288</ele>
        <time>2016-11-15T10:14:45Z</time>
      </trkpt>
      <trkpt lat="45.95886" lon="4.89537">
        <ele>288</ele>
        <time>2016-11-15T10:14:46Z</time>
      </trkpt>
      <trkpt lat="45.95886" lon="4.89544">
        <ele>288</ele>
        <time>2016-11-15T10:14:47Z</time>
      </trkpt>
      <trkpt lat="45.95887" lon="4.8955">
        <ele>288</ele>
        <time>2016-11-15T10:14:48Z</time>
      </trkpt>
      <trkpt lat="45.95887" lon="4.89557">
        <ele>288</ele>
        <time>2016-11-15T10:14:49Z</time>
      </trkpt>
      <trkpt lat="45.95887" lon="4.89564">
        <ele>288</ele>
        <time>2016-11-15T10:14:50Z</time>
      </trkpt>
      <trkpt lat="45.95887" lon="4.89571">
        <ele>288</ele>
        <time>2016-11-15T10:14:51Z</time>
      </trkpt>
      <trkpt lat="45.95887" lon="4.89578">
        <ele>288</ele>
        <time>2016-11-15T10:14:52Z</time>
      </trkpt>
      <trkpt lat="45.95886" lon="4.89585">
        <ele>289</ele>
        <time>2016-11-15T10:14:53Z</time>
      </trkpt>
      <trkpt lat="45.95887" lon="4.89592">
        <ele>289</ele>
        <time>2016-11-15T10:14:54Z</time>
      </trkpt>
      <trkpt lat="45.95887" lon="4.89599">
        <ele>289</ele>
        <time>2016-11-15T10:14:55Z</time>
      </trkpt>
      <trkpt lat="45.95887" lon="4.89606">
        <ele>289</ele>
        <time>2016-11-15T10:14:56Z</time>
      </trkpt>
      <trkpt lat="45.95887" lon="4.89613">
        <ele>289</ele>
        <time>2016-11-15T10:14:57Z</time>
      </trkpt>
      <trkpt lat="45.95887" lon="4.8962">
        <ele>289</ele>
        <time>2016-11-15T10:14:58Z</time>
      </trkpt>
      <trkpt lat="45.95887" lon="4.89627">
        <ele>289</ele>
        <time>2016-11-15T10:14:59Z</time>
      </trkpt>
      <trkpt lat="45.95887" lon="4.89635">
        <ele>289</ele>
        <time>2016-11-15T10:15:00Z</time>
      </trkpt>
      <trkpt lat="45.95888" lon="4.89642">
        <ele>289</ele>
        <time>2016-11-15T10:15:01Z</time>
      </trkpt>
      <trkpt lat="45.95888" lon="4.89649">
        <ele>289</ele>
        <time>2016-11-15T10:15:02Z</time>
      </trkpt>
      <trkpt lat="45.95888" lon="4.89656">
        <ele>289</ele>
        <time>2016-11-15T10:15:03Z</time>
      </trkpt>
      <trkpt lat="45.95888" lon="4.89663">
        <ele>289</ele>
        <time>2016-11-15T10:15:04Z</time>
      </trkpt>
      <trkpt lat="45.95888" lon="4.8967">
        <ele>289</ele>
        <time>2016-11-15T10:15:05Z</time>
      </trkpt>
      <trkpt lat="45.95888" lon="4.89677">
        <ele>289</ele>
        <time>2016-11-15T10:15:06Z</time>
      </trkpt>
      <trkpt lat="45.95888" lon="4.89685">
        <ele>289</ele>
        <time>2016-11-15T10:15:07Z</time>
      </trkpt>
      <trkpt lat="45.95888" lon="4.89692">
        <ele>289</ele>
        <time>2016-11-15T10:15:08Z</time>
      </trkpt>
      <trkpt lat="45.95888" lon="4.89699">
        <ele>289</ele>
        <time>2016-11-15T10:15:09Z</time>
      </trkpt>
      <trkpt lat="45.95888" lon="4.89707">
        <ele>289</ele>
        <time>2016-11-15T10:15:10Z</time>
      </trkpt>
      <trkpt lat="45.95889" lon="4.89714">
        <ele>289</ele>
        <time>2016-11-15T10:15:11Z</time>
      </trkpt>
      <trkpt lat="45.95889" lon="4.89721">
        <ele>289</ele>
        <time>2016-11-15T10:15:12Z</time>
      </trkpt>
      <trkpt lat="45.95889" lon="4.89728">
        <ele>289</ele>
        <time>2016-11-15T10:15:13Z</time>
      </trkpt>
      <trkpt lat="45.95889" lon="4.89735">
        <ele>289</ele>
        <time>2016-11-15T10:15:14Z</time>
      </trkpt>
      <trkpt lat="45.95889" lon="4.89742">
        <ele>289</ele>
        <time>2016-11-15T10:15:15Z</time>
      </trkpt>
      <trkpt lat="45.95889" lon="4.89749">
        <ele>289</ele>
        <time>2016-11-15T10:15:16Z</time>
      </trkpt>
      <trkpt lat="45.95889" lon="4.89756">
        <ele>289</ele>
        <time>2016-11-15T10:15:17Z</time>
      </trkpt>
      <trkpt lat="45.95889" lon="4.89763">
        <ele>289</ele>
        <time>2016-11-15T10:15:18Z</time>
      </trkpt>
      <trkpt lat="45.95889" lon="4.89769">
        <ele>289</ele>
        <time>2016-11-15T10:15:19Z</time>
      </trkpt>
      <trkpt lat="45.95889" lon="4.89777">
        <ele>289</ele>
        <time>2016-11-15T10:15:20Z</time>
      </trkpt>
      <trkpt lat="45.95889" lon="4.89784">
        <ele>289</ele>
        <time>2016-11-15T10:15:21Z</time>
      </trkpt>
      <trkpt lat="45.95889" lon="4.89791">
        <ele>289</ele>
        <time>2016-11-15T10:15:22Z</time>
      </trkpt>
      <trkpt lat="45.95889" lon="4.89798">
        <ele>289</ele>
        <time>2016-11-15T10:15:23Z</time>
      </trkpt>
      <trkpt lat="45.95889" lon="4.89805">
        <ele>289</ele>
        <time>2016-11-15T10:15:24Z</time>
      </trkpt>
      <trkpt lat="45.95889" lon="4.89813">
        <ele>289</ele>
        <time>2016-11-15T10:15:25Z</time>
      </trkpt>
      <trkpt lat="45.95889" lon="4.89821">
        <ele>289</ele>
        <time>2016-11-15T10:15:26Z</time>
      </trkpt>
      <trkpt lat="45.9589" lon="4.89828">
        <ele>289</ele>
        <time>2016-11-15T10:15:27Z</time>
      </trkpt>
      <trkpt lat="45.9589" lon="4.89836">
        <ele>290</ele>
        <time>2016-11-15T10:15:28Z</time>
      </trkpt>
      <trkpt lat="45.9589" lon="4.89844">
        <ele>290</ele>
        <time>2016-11-15T10:15:29Z</time>
      </trkpt>
      <trkpt lat="45.9589" lon="4.89852">
        <ele>290</ele>
        <time>2016-11-15T10:15:30Z</time>
      </trkpt>
      <trkpt lat="45.9589" lon="4.89859">
        <ele>290</ele>
        <time>2016-11-15T10:15:31Z</time>
      </trkpt>
      <trkpt lat="45.9589" lon="4.89867">
        <ele>290</ele>
        <time>2016-11-15T10:15:32Z</time>
      </trkpt>
      <trkpt lat="45.9589" lon="4.89874">
        <ele>290</ele>
        <time>2016-11-15T10:15:33Z</time>
      </trkpt>
      <trkpt lat="45.9589" lon="4.8988">
        <ele>290</ele>
        <time>2016-11-15T10:15:34Z</time>
      </trkpt>
      <trkpt lat="45.9589" lon="4.89887">
        <ele>290</ele>
        <time>2016-11-15T10:15:35Z</time>
      </trkpt>
      <trkpt lat="45.9589" lon="4.89894">
        <ele>290</ele>
        <time>2016-11-15T10:15:36Z</time>
      </trkpt>
      <trkpt lat="45.9589" lon="4.89902">
        <ele>290</ele>
        <time>2016-11-15T10:15:37Z</time>
      </trkpt>
      <trkpt lat="45.9589" lon="4.8991">
        <ele>290</ele>
        <time>2016-11-15T10:15:38Z</time>
      </trkpt>
      <trkpt lat="45.9589" lon="4.89917">
        <ele>290</ele>
        <time>2016-11-15T10:15:39Z</time>
      </trkpt>
      <trkpt lat="45.9589" lon="4.89926">
        <ele>290</ele>
        <time>2016-11-15T10:15:40Z</time>
      </trkpt>
      <trkpt lat="45.95889" lon="4.89934">
        <ele>290</ele>
        <time>2016-11-15T10:15:41Z</time>
      </trkpt>
      <trkpt lat="45.9589" lon="4.89944">
        <ele>290</ele>
        <time>2016-11-15T10:15:42Z</time>
      </trkpt>
      <trkpt lat="45.9589" lon="4.89952">
        <ele>290</ele>
        <time>2016-11-15T10:15:43Z</time>
      </trkpt>
      <trkpt lat="45.95891" lon="4.89961">
        <ele>290</ele>
        <time>2016-11-15T10:15:44Z</time>
      </trkpt>
      <trkpt lat="45.95891" lon="4.89971">
        <ele>290</ele>
        <time>2016-11-15T10:15:45Z</time>
      </trkpt>
      <trkpt lat="45.95891" lon="4.89979">
        <ele>290</ele>
        <time>2016-11-15T10:15:46Z</time>
      </trkpt>
      <trkpt lat="45.95892" lon="4.89988">
        <ele>290</ele>
        <time>2016-11-15T10:15:47Z</time>
      </trkpt>
      <trkpt lat="45.95892" lon="4.89997">
        <ele>290</ele>
        <time>2016-11-15T10:15:48Z</time>
      </trkpt>
      <trkpt lat="45.95892" lon="4.90005">
        <ele>290</ele>
        <time>2016-11-15T10:15:49Z</time>
      </trkpt>
      <trkpt lat="45.95893" lon="4.90016">
        <ele>290</ele>
        <time>2016-11-15T10:15:50Z</time>
      </trkpt>
      <trkpt lat="45.95893" lon="4.90025">
        <ele>290</ele>
        <time>2016-11-15T10:15:51Z</time>
      </trkpt>
      <trkpt lat="45.95892" lon="4.90033">
        <ele>290</ele>
        <time>2016-11-15T10:15:52Z</time>
      </trkpt>
      <trkpt lat="45.95893" lon="4.90042">
        <ele>290</ele>
        <time>2016-11-15T10:15:53Z</time>
      </trkpt>
      <trkpt lat="45.95893" lon="4.9005">
        <ele>290</ele>
        <time>2016-11-15T10:15:54Z</time>
      </trkpt>
      <trkpt lat="45.95893" lon="4.90059">
        <ele>290</ele>
        <time>2016-11-15T10:15:55Z</time>
      </trkpt>
      <trkpt lat="45.95893" lon="4.90067">
        <ele>290</ele>
        <time>2016-11-15T10:15:56Z</time>
      </trkpt>
      <trkpt lat="45.95893" lon="4.90075">
        <ele>290</ele>
        <time>2016-11-15T10:15:57Z</time>
      </trkpt>
      <trkpt lat="45.95894" lon="4.90084">
        <ele>290</ele>
        <time>2016-11-15T10:15:58Z</time>
      </trkpt>
      <trkpt lat="45.95894" lon="4.90091">
        <ele>290</ele>
        <time>2016-11-15T10:15:59Z</time>
      </trkpt>
      <trkpt lat="45.95894" lon="4.90099">
        <ele>290</ele>
        <time>2016-11-15T10:16:00Z</time>
      </trkpt>
      <trkpt lat="45.95893" lon="4.90106">
        <ele>290</ele>
        <time>2016-11-15T10:16:01Z</time>
      </trkpt>
      <trkpt lat="45.95893" lon="4.90113">
        <ele>290</ele>
        <time>2016-11-15T10:16:02Z</time>
      </trkpt>
      <trkpt lat="45.95894" lon="4.9012">
        <ele>290</ele>
        <time>2016-11-15T10:16:03Z</time>
      </trkpt>
      <trkpt lat="45.95894" lon="4.90127">
        <ele>290</ele>
        <time>2016-11-15T10:16:04Z</time>
      </trkpt>
      <trkpt lat="45.95894" lon="4.90134">
        <ele>290</ele>
        <time>2016-11-15T10:16:05Z</time>
      </trkpt>
      <trkpt lat="45.95894" lon="4.90142">
        <ele>290</ele>
        <time>2016-11-15T10:16:06Z</time>
      </trkpt>
      <trkpt lat="45.95895" lon="4.90149">
        <ele>290</ele>
        <time>2016-11-15T10:16:07Z</time>
      </trkpt>
      <trkpt lat="45.95895" lon="4.90156">
        <ele>290</ele>
        <time>2016-11-15T10:16:08Z</time>
      </trkpt>
      <trkpt lat="45.95895" lon="4.90163">
        <ele>290</ele>
        <time>2016-11-15T10:16:09Z</time>
      </trkpt>
      <trkpt lat="45.95895" lon="4.9017">
        <ele>290</ele>
        <time>2016-11-15T10:16:10Z</time>
      </trkpt>
      <trkpt lat="45.95894" lon="4.90178">
        <ele>291</ele>
        <time>2016-11-15T10:16:11Z</time>
      </trkpt>
      <trkpt lat="45.95894" lon="4.90185">
        <ele>291</ele>
        <time>2016-11-15T10:16:12Z</time>
      </trkpt>
      <trkpt lat="45.95894" lon="4.90193">
        <ele>291</ele>
        <time>2016-11-15T10:16:13Z</time>
      </trkpt>
      <trkpt lat="45.95894" lon="4.90201">
        <ele>291</ele>
        <time>2016-11-15T10:16:14Z</time>
      </trkpt>
      <trkpt lat="45.95893" lon="4.90208">
        <ele>291</ele>
        <time>2016-11-15T10:16:15Z</time>
      </trkpt>
      <trkpt lat="45.95893" lon="4.90215">
        <ele>291</ele>
        <time>2016-11-15T10:16:16Z</time>
      </trkpt>
      <trkpt lat="45.95892" lon="4.90222">
        <ele>292</ele>
        <time>2016-11-15T10:16:17Z</time>
      </trkpt>
      <trkpt lat="45.95891" lon="4.90229">
        <ele>292</ele>
        <time>2016-11-15T10:16:18Z</time>
      </trkpt>
      <trkpt lat="45.95891" lon="4.90235">
        <ele>292</ele>
        <time>2016-11-15T10:16:19Z</time>
      </trkpt>
      <trkpt lat="45.9589" lon="4.90247">
        <ele>292</ele>
        <time>2016-11-15T10:16:21Z</time>
      </trkpt>
      <trkpt lat="45.9589" lon="4.90254">
        <ele>292</ele>
        <time>2016-11-15T10:16:22Z</time>
      </trkpt>
      <trkpt lat="45.9589" lon="4.90262">
        <ele>292</ele>
        <time>2016-11-15T10:16:23Z</time>
      </trkpt>
      <trkpt lat="45.9589" lon="4.90269">
        <ele>292</ele>
        <time>2016-11-15T10:16:24Z</time>
      </trkpt>
      <trkpt lat="45.95889" lon="4.90277">
        <ele>292</ele>
        <time>2016-11-15T10:16:25Z</time>
      </trkpt>
      <trkpt lat="45.95889" lon="4.90285">
        <ele>292</ele>
        <time>2016-11-15T10:16:26Z</time>
      </trkpt>
      <trkpt lat="45.95888" lon="4.90292">
        <ele>292</ele>
        <time>2016-11-15T10:16:27Z</time>
      </trkpt>
      <trkpt lat="45.95888" lon="4.90299">
        <ele>292</ele>
        <time>2016-11-15T10:16:28Z</time>
      </trkpt>
      <trkpt lat="45.95887" lon="4.90306">
        <ele>292</ele>
        <time>2016-11-15T10:16:29Z</time>
      </trkpt>
      <trkpt lat="45.95887" lon="4.90313">
        <ele>292</ele>
        <time>2016-11-15T10:16:30Z</time>
      </trkpt>
      <trkpt lat="45.95887" lon="4.90325">
        <ele>292</ele>
        <time>2016-11-15T10:16:32Z</time>
      </trkpt>
      <trkpt lat="45.95888" lon="4.90332">
        <ele>292</ele>
        <time>2016-11-15T10:16:33Z</time>
      </trkpt>
      <trkpt lat="45.95887" lon="4.90339">
        <ele>292</ele>
        <time>2016-11-15T10:16:34Z</time>
      </trkpt>
      <trkpt lat="45.95885" lon="4.90347">
        <ele>292</ele>
        <time>2016-11-15T10:16:35Z</time>
      </trkpt>
      <trkpt lat="45.95883" lon="4.90355">
        <ele>292</ele>
        <time>2016-11-15T10:16:36Z</time>
      </trkpt>
      <trkpt lat="45.95881" lon="4.90364">
        <ele>292</ele>
        <time>2016-11-15T10:16:37Z</time>
      </trkpt>
      <trkpt lat="45.95881" lon="4.90371">
        <ele>292</ele>
        <time>2016-11-15T10:16:38Z</time>
      </trkpt>
      <trkpt lat="45.95882" lon="4.90378">
        <ele>292</ele>
        <time>2016-11-15T10:16:39Z</time>
      </trkpt>
      <trkpt lat="45.95882" lon="4.90385">
        <ele>292</ele>
        <time>2016-11-15T10:16:40Z</time>
      </trkpt>
      <trkpt lat="45.95883" lon="4.90392">
        <ele>292</ele>
        <time>2016-11-15T10:16:41Z</time>
      </trkpt>
      <trkpt lat="45.95883" lon="4.90405">
        <ele>292</ele>
        <time>2016-11-15T10:16:43Z</time>
      </trkpt>
      <trkpt lat="45.95883" lon="4.90411">
        <ele>292</ele>
        <time>2016-11-15T10:16:44Z</time>
      </trkpt>
      <trkpt lat="45.95883" lon="4.90418">
        <ele>292</ele>
        <time>2016-11-15T10:16:45Z</time>
      </trkpt>
      <trkpt lat="45.95883" lon="4.90424">
        <ele>292</ele>
        <time>2016-11-15T10:16:46Z</time>
      </trkpt>
      <trkpt lat="45.95883" lon="4.90431">
        <ele>292</ele>
        <time>2016-11-15T10:16:47Z</time>
      </trkpt>
      <trkpt lat="45.95883" lon="4.90438">
        <ele>292</ele>
        <time>2016-11-15T10:16:48Z</time>
      </trkpt>
      <trkpt lat="45.95883" lon="4.90444">
        <ele>292</ele>
        <time>2016-11-15T10:16:49Z</time>
      </trkpt>
      <trkpt lat="45.95883" lon="4.90451">
        <ele>292</ele>
        <time>2016-11-15T10:16:50Z</time>
      </trkpt>
      <trkpt lat="45.95883" lon="4.90457">
        <ele>292</ele>
        <time>2016-11-15T10:16:51Z</time>
      </trkpt>
      <trkpt lat="45.95882" lon="4.90464">
        <ele>292</ele>
        <time>2016-11-15T10:16:52Z</time>
      </trkpt>
      <trkpt lat="45.95882" lon="4.90471">
        <ele>292</ele>
        <time>2016-11-15T10:16:53Z</time>
      </trkpt>
      <trkpt lat="45.95882" lon="4.90478">
        <ele>292</ele>
        <time>2016-11-15T10:16:54Z</time>
      </trkpt>
      <trkpt lat="45.95881" lon="4.90484">
        <ele>292</ele>
        <time>2016-11-15T10:16:55Z</time>
      </trkpt>
      <trkpt lat="45.95881" lon="4.90491">
        <ele>292</ele>
        <time>2016-11-15T10:16:56Z</time>
      </trkpt>
      <trkpt lat="45.95881" lon="4.90498">
        <ele>292</ele>
        <time>2016-11-15T10:16:57Z</time>
      </trkpt>
      <trkpt lat="45.95881" lon="4.90504">
        <ele>292</ele>
        <time>2016-11-15T10:16:58Z</time>
      </trkpt>
      <trkpt lat="45.95881" lon="4.90511">
        <ele>292</ele>
        <time>2016-11-15T10:16:59Z</time>
      </trkpt>
      <trkpt lat="45.95881" lon="4.90518">
        <ele>292</ele>
        <time>2016-11-15T10:17:00Z</time>
      </trkpt>
      <trkpt lat="45.95881" lon="4.90524">
        <ele>292</ele>
        <time>2016-11-15T10:17:01Z</time>
      </trkpt>
      <trkpt lat="45.95881" lon="4.90531">
        <ele>292</ele>
        <time>2016-11-15T10:17:02Z</time>
      </trkpt>
      <trkpt lat="45.9588" lon="4.90537">
        <ele>292</ele>
        <time>2016-11-15T10:17:03Z</time>
      </trkpt>
      <trkpt lat="45.9588" lon="4.90544">
        <ele>292</ele>
        <time>2016-11-15T10:17:04Z</time>
      </trkpt>
      <trkpt lat="45.9588" lon="4.90555">
        <ele>292</ele>
        <time>2016-11-15T10:17:06Z</time>
      </trkpt>
      <trkpt lat="45.95881" lon="4.90562">
        <ele>292</ele>
        <time>2016-11-15T10:17:07Z</time>
      </trkpt>
      <trkpt lat="45.95882" lon="4.90569">
        <ele>292</ele>
        <time>2016-11-15T10:17:08Z</time>
      </trkpt>
      <trkpt lat="45.95882" lon="4.90576">
        <ele>292</ele>
        <time>2016-11-15T10:17:09Z</time>
      </trkpt>
      <trkpt lat="45.95881" lon="4.90582">
        <ele>292</ele>
        <time>2016-11-15T10:17:10Z</time>
      </trkpt>
      <trkpt lat="45.95881" lon="4.90589">
        <ele>293</ele>
        <time>2016-11-15T10:17:11Z</time>
      </trkpt>
      <trkpt lat="45.9588" lon="4.90596">
        <ele>293</ele>
        <time>2016-11-15T10:17:12Z</time>
      </trkpt>
      <trkpt lat="45.9588" lon="4.90604">
        <ele>293</ele>
        <time>2016-11-15T10:17:13Z</time>
      </trkpt>
      <trkpt lat="45.95879" lon="4.90611">
        <ele>293</ele>
        <time>2016-11-15T10:17:14Z</time>
      </trkpt>
      <trkpt lat="45.95879" lon="4.90618">
        <ele>293</ele>
        <time>2016-11-15T10:17:15Z</time>
      </trkpt>
      <trkpt lat="45.95878" lon="4.90625">
        <ele>293</ele>
        <time>2016-11-15T10:17:16Z</time>
      </trkpt>
      <trkpt lat="45.95878" lon="4.90631">
        <ele>293</ele>
        <time>2016-11-15T10:17:17Z</time>
      </trkpt>
      <trkpt lat="45.95877" lon="4.90638">
        <ele>293</ele>
        <time>2016-11-15T10:17:18Z</time>
      </trkpt>
      <trkpt lat="45.95877" lon="4.90645">
        <ele>293</ele>
        <time>2016-11-15T10:17:19Z</time>
      </trkpt>
      <trkpt lat="45.95877" lon="4.90651">
        <ele>293</ele>
        <time>2016-11-15T10:17:20Z</time>
      </trkpt>
      <trkpt lat="45.95877" lon="4.90658">
        <ele>293</ele>
        <time>2016-11-15T10:17:21Z</time>
      </trkpt>
      <trkpt lat="45.95877" lon="4.90665">
        <ele>293</ele>
        <time>2016-11-15T10:17:22Z</time>
      </trkpt>
      <trkpt lat="45.95877" lon="4.90672">
        <ele>292</ele>
        <time>2016-11-15T10:17:23Z</time>
      </trkpt>
      <trkpt lat="45.95876" lon="4.90679">
        <ele>292</ele>
        <time>2016-11-15T10:17:24Z</time>
      </trkpt>
      <trkpt lat="45.95876" lon="4.90686">
        <ele>292</ele>
        <time>2016-11-15T10:17:25Z</time>
      </trkpt>
      <trkpt lat="45.95876" lon="4.90693">
        <ele>292</ele>
        <time>2016-11-15T10:17:26Z</time>
      </trkpt>
      <trkpt lat="45.95875" lon="4.907">
        <ele>292</ele>
        <time>2016-11-15T10:17:27Z</time>
      </trkpt>
      <trkpt lat="45.95875" lon="4.90706">
        <ele>292</ele>
        <time>2016-11-15T10:17:28Z</time>
      </trkpt>
      <trkpt lat="45.95874" lon="4.90714">
        <ele>292</ele>
        <time>2016-11-15T10:17:29Z</time>
      </trkpt>
      <trkpt lat="45.95874" lon="4.90722">
        <ele>292</ele>
        <time>2016-11-15T10:17:30Z</time>
      </trkpt>
      <trkpt lat="45.95873" lon="4.90731">
        <ele>292</ele>
        <time>2016-11-15T10:17:31Z</time>
      </trkpt>
      <trkpt lat="45.95873" lon="4.9074">
        <ele>292</ele>
        <time>2016-11-15T10:17:32Z</time>
      </trkpt>
      <trkpt lat="45.95872" lon="4.90749">
        <ele>292</ele>
        <time>2016-11-15T10:17:33Z</time>
      </trkpt>
      <trkpt lat="45.95872" lon="4.90757">
        <ele>291</ele>
        <time>2016-11-15T10:17:34Z</time>
      </trkpt>
      <trkpt lat="45.95872" lon="4.90766">
        <ele>291</ele>
        <time>2016-11-15T10:17:35Z</time>
      </trkpt>
      <trkpt lat="45.95871" lon="4.90775">
        <ele>291</ele>
        <time>2016-11-15T10:17:36Z</time>
      </trkpt>
      <trkpt lat="45.9587" lon="4.90783">
        <ele>291</ele>
        <time>2016-11-15T10:17:37Z</time>
      </trkpt>
      <trkpt lat="45.95869" lon="4.90792">
        <ele>291</ele>
        <time>2016-11-15T10:17:38Z</time>
      </trkpt>
      <trkpt lat="45.95869" lon="4.90799">
        <ele>291</ele>
        <time>2016-11-15T10:17:39Z</time>
      </trkpt>
      <trkpt lat="45.95868" lon="4.90806">
        <ele>291</ele>
        <time>2016-11-15T10:17:40Z</time>
      </trkpt>
      <trkpt lat="45.95868" lon="4.90814">
        <ele>291</ele>
        <time>2016-11-15T10:17:41Z</time>
      </trkpt>
      <trkpt lat="45.95868" lon="4.90821">
        <ele>291</ele>
        <time>2016-11-15T10:17:42Z</time>
      </trkpt>
      <trkpt lat="45.95868" lon="4.90829">
        <ele>292</ele>
        <time>2016-11-15T10:17:43Z</time>
      </trkpt>
      <trkpt lat="45.95868" lon="4.90836">
        <ele>292</ele>
        <time>2016-11-15T10:17:44Z</time>
      </trkpt>
      <trkpt lat="45.95868" lon="4.90844">
        <ele>292</ele>
        <time>2016-11-15T10:17:45Z</time>
      </trkpt>
      <trkpt lat="45.95867" lon="4.90851">
        <ele>292</ele>
        <time>2016-11-15T10:17:46Z</time>
      </trkpt>
      <trkpt lat="45.95867" lon="4.90858">
        <ele>292</ele>
        <time>2016-11-15T10:17:47Z</time>
      </trkpt>
      <trkpt lat="45.95867" lon="4.90865">
        <ele>292</ele>
        <time>2016-11-15T10:17:48Z</time>
      </trkpt>
      <trkpt lat="45.95867" lon="4.90872">
        <ele>292</ele>
        <time>2016-11-15T10:17:49Z</time>
      </trkpt>
      <trkpt lat="45.95867" lon="4.9088">
        <ele>292</ele>
        <time>2016-11-15T10:17:50Z</time>
      </trkpt>
      <trkpt lat="45.95866" lon="4.90887">
        <ele>292</ele>
        <time>2016-11-15T10:17:51Z</time>
      </trkpt>
      <trkpt lat="45.95865" lon="4.90894">
        <ele>292</ele>
        <time>2016-11-15T10:17:52Z</time>
      </trkpt>
      <trkpt lat="45.95865" lon="4.90902">
        <ele>292</ele>
        <time>2016-11-15T10:17:53Z</time>
      </trkpt>
      <trkpt lat="45.95865" lon="4.90909">
        <ele>292</ele>
        <time>2016-11-15T10:17:54Z</time>
      </trkpt>
      <trkpt lat="45.95865" lon="4.90917">
        <ele>292</ele>
        <time>2016-11-15T10:17:55Z</time>
      </trkpt>
      <trkpt lat="45.95865" lon="4.90924">
        <ele>293</ele>
        <time>2016-11-15T10:17:56Z</time>
      </trkpt>
      <trkpt lat="45.95866" lon="4.90931">
        <ele>293</ele>
        <time>2016-11-15T10:17:57Z</time>
      </trkpt>
      <trkpt lat="45.95866" lon="4.90938">
        <ele>293</ele>
        <time>2016-11-15T10:17:58Z</time>
      </trkpt>
      <trkpt lat="45.95866" lon="4.90944">
        <ele>293</ele>
        <time>2016-11-15T10:17:59Z</time>
      </trkpt>
      <trkpt lat="45.95865" lon="4.90951">
        <ele>294</ele>
        <time>2016-11-15T10:18:00Z</time>
      </trkpt>
      <trkpt lat="45.95865" lon="4.90958">
        <ele>294</ele>
        <time>2016-11-15T10:18:01Z</time>
      </trkpt>
      <trkpt lat="45.95864" lon="4.90964">
        <ele>294</ele>
        <time>2016-11-15T10:18:02Z</time>
      </trkpt>
      <trkpt lat="45.95864" lon="4.90971">
        <ele>294</ele>
        <time>2016-11-15T10:18:03Z</time>
      </trkpt>
      <trkpt lat="45.95864" lon="4.90978">
        <ele>294</ele>
        <time>2016-11-15T10:18:04Z</time>
      </trkpt>
      <trkpt lat="45.95863" lon="4.90985">
        <ele>294</ele>
        <time>2016-11-15T10:18:05Z</time>
      </trkpt>
      <trkpt lat="45.95863" lon="4.90992">
        <ele>294</ele>
        <time>2016-11-15T10:18:06Z</time>
      </trkpt>
      <trkpt lat="45.95862" lon="4.91">
        <ele>294</ele>
        <time>2016-11-15T10:18:07Z</time>
      </trkpt>
      <trkpt lat="45.95861" lon="4.91008">
        <ele>296</ele>
        <time>2016-11-15T10:18:08Z</time>
      </trkpt>
      <trkpt lat="45.95861" lon="4.91016">
        <ele>296</ele>
        <time>2016-11-15T10:18:09Z</time>
      </trkpt>
      <trkpt lat="45.9586" lon="4.91023">
        <ele>296</ele>
        <time>2016-11-15T10:18:10Z</time>
      </trkpt>
      <trkpt lat="45.9586" lon="4.91029">
        <ele>296</ele>
        <time>2016-11-15T10:18:11Z</time>
      </trkpt>
      <trkpt lat="45.95859" lon="4.91041">
        <ele>297</ele>
        <time>2016-11-15T10:18:13Z</time>
      </trkpt>
      <trkpt lat="45.95859" lon="4.91047">
        <ele>297</ele>
        <time>2016-11-15T10:18:14Z</time>
      </trkpt>
      <trkpt lat="45.95857" lon="4.91059">
        <ele>297</ele>
        <time>2016-11-15T10:18:16Z</time>
      </trkpt>
      <trkpt lat="45.95857" lon="4.91065">
        <ele>297</ele>
        <time>2016-11-15T10:18:17Z</time>
      </trkpt>
      <trkpt lat="45.95857" lon="4.91077">
        <ele>297</ele>
        <time>2016-11-15T10:18:19Z</time>
      </trkpt>
      <trkpt lat="45.95857" lon="4.91084">
        <ele>297</ele>
        <time>2016-11-15T10:18:20Z</time>
      </trkpt>
      <trkpt lat="45.95856" lon="4.91091">
        <ele>297</ele>
        <time>2016-11-15T10:18:21Z</time>
      </trkpt>
      <trkpt lat="45.95855" lon="4.91099">
        <ele>297</ele>
        <time>2016-11-15T10:18:22Z</time>
      </trkpt>
      <trkpt lat="45.95854" lon="4.91106">
        <ele>297</ele>
        <time>2016-11-15T10:18:23Z</time>
      </trkpt>
      <trkpt lat="45.95855" lon="4.91114">
        <ele>297</ele>
        <time>2016-11-15T10:18:24Z</time>
      </trkpt>
      <trkpt lat="45.95855" lon="4.91122">
        <ele>297</ele>
        <time>2016-11-15T10:18:25Z</time>
      </trkpt>
      <trkpt lat="45.95855" lon="4.9113">
        <ele>297</ele>
        <time>2016-11-15T10:18:26Z</time>
      </trkpt>
      <trkpt lat="45.95855" lon="4.91137">
        <ele>297</ele>
        <time>2016-11-15T10:18:27Z</time>
      </trkpt>
      <trkpt lat="45.95854" lon="4.91145">
        <ele>297</ele>
        <time>2016-11-15T10:18:28Z</time>
      </trkpt>
      <trkpt lat="45.95854" lon="4.91152">
        <ele>297</ele>
        <time>2016-11-15T10:18:29Z</time>
      </trkpt>
      <trkpt lat="45.95853" lon="4.91159">
        <ele>297</ele>
        <time>2016-11-15T10:18:30Z</time>
      </trkpt>
      <trkpt lat="45.95854" lon="4.91165">
        <ele>297</ele>
        <time>2016-11-15T10:18:31Z</time>
      </trkpt>
      <trkpt lat="45.95854" lon="4.91172">
        <ele>296</ele>
        <time>2016-11-15T10:18:32Z</time>
      </trkpt>
      <trkpt lat="45.95854" lon="4.91179">
        <ele>296</ele>
        <time>2016-11-15T10:18:33Z</time>
      </trkpt>
      <trkpt lat="45.95854" lon="4.91186">
        <ele>296</ele>
        <time>2016-11-15T10:18:34Z</time>
      </trkpt>
      <trkpt lat="45.95853" lon="4.91192">
        <ele>296</ele>
        <time>2016-11-15T10:18:35Z</time>
      </trkpt>
      <trkpt lat="45.95852" lon="4.91199">
        <ele>297</ele>
        <time>2016-11-15T10:18:36Z</time>
      </trkpt>
      <trkpt lat="45.95852" lon="4.91206">
        <ele>297</ele>
        <time>2016-11-15T10:18:37Z</time>
      </trkpt>
      <trkpt lat="45.9585" lon="4.91212">
        <ele>297</ele>
        <time>2016-11-15T10:18:38Z</time>
      </trkpt>
      <trkpt lat="45.9585" lon="4.9122">
        <ele>297</ele>
        <time>2016-11-15T10:18:39Z</time>
      </trkpt>
      <trkpt lat="45.9585" lon="4.91228">
        <ele>297</ele>
        <time>2016-11-15T10:18:40Z</time>
      </trkpt>
      <trkpt lat="45.9585" lon="4.91235">
        <ele>297</ele>
        <time>2016-11-15T10:18:41Z</time>
      </trkpt>
      <trkpt lat="45.9585" lon="4.91241">
        <ele>297</ele>
        <time>2016-11-15T10:18:42Z</time>
      </trkpt>
      <trkpt lat="45.95849" lon="4.91253">
        <ele>297</ele>
        <time>2016-11-15T10:18:44Z</time>
      </trkpt>
      <trkpt lat="45.95849" lon="4.9126">
        <ele>297</ele>
        <time>2016-11-15T10:18:45Z</time>
      </trkpt>
      <trkpt lat="45.95849" lon="4.91267">
        <ele>297</ele>
        <time>2016-11-15T10:18:46Z</time>
      </trkpt>
      <trkpt lat="45.95849" lon="4.91273">
        <ele>297</ele>
        <time>2016-11-15T10:18:47Z</time>
      </trkpt>
      <trkpt lat="45.9585" lon="4.91285">
        <ele>298</ele>
        <time>2016-11-15T10:18:49Z</time>
      </trkpt>
      <trkpt lat="45.95851" lon="4.91292">
        <ele>298</ele>
        <time>2016-11-15T10:18:50Z</time>
      </trkpt>
      <trkpt lat="45.95851" lon="4.91298">
        <ele>298</ele>
        <time>2016-11-15T10:18:51Z</time>
      </trkpt>
      <trkpt lat="45.95849" lon="4.91304">
        <ele>298</ele>
        <time>2016-11-15T10:18:52Z</time>
      </trkpt>
      <trkpt lat="45.95847" lon="4.9131">
        <ele>298</ele>
        <time>2016-11-15T10:18:53Z</time>
      </trkpt>
      <trkpt lat="45.95846" lon="4.91317">
        <ele>298</ele>
        <time>2016-11-15T10:18:54Z</time>
      </trkpt>
      <trkpt lat="45.95846" lon="4.91324">
        <ele>298</ele>
        <time>2016-11-15T10:18:55Z</time>
      </trkpt>
      <trkpt lat="45.95846" lon="4.91332">
        <ele>297</ele>
        <time>2016-11-15T10:18:56Z</time>
      </trkpt>
      <trkpt lat="45.95846" lon="4.91339">
        <ele>298</ele>
        <time>2016-11-15T10:18:57Z</time>
      </trkpt>
      <trkpt lat="45.95845" lon="4.91346">
        <ele>298</ele>
        <time>2016-11-15T10:18:58Z</time>
      </trkpt>
      <trkpt lat="45.95844" lon="4.91352">
        <ele>298</ele>
        <time>2016-11-15T10:18:59Z</time>
      </trkpt>
      <trkpt lat="45.95844" lon="4.91359">
        <ele>298</ele>
        <time>2016-11-15T10:19:00Z</time>
      </trkpt>
      <trkpt lat="45.95843" lon="4.91371">
        <ele>298</ele>
        <time>2016-11-15T10:19:02Z</time>
      </trkpt>
      <trkpt lat="45.95843" lon="4.91377">
        <ele>298</ele>
        <time>2016-11-15T10:19:03Z</time>
      </trkpt>
      <trkpt lat="45.95842" lon="4.91384">
        <ele>298</ele>
        <time>2016-11-15T10:19:04Z</time>
      </trkpt>
      <trkpt lat="45.95842" lon="4.91391">
        <ele>298</ele>
        <time>2016-11-15T10:19:05Z</time>
      </trkpt>
      <trkpt lat="45.95841" lon="4.91398">
        <ele>297</ele>
        <time>2016-11-15T10:19:06Z</time>
      </trkpt>
      <trkpt lat="45.95841" lon="4.91406">
        <ele>297</ele>
        <time>2016-11-15T10:19:07Z</time>
      </trkpt>
      <trkpt lat="45.9584" lon="4.91414">
        <ele>297</ele>
        <time>2016-11-15T10:19:08Z</time>
      </trkpt>
      <trkpt lat="45.9584" lon="4.91423">
        <ele>297</ele>
        <time>2016-11-15T10:19:09Z</time>
      </trkpt>
      <trkpt lat="45.9584" lon="4.91432">
        <ele>298</ele>
        <time>2016-11-15T10:19:10Z</time>
      </trkpt>
      <trkpt lat="45.95841" lon="4.91441">
        <ele>298</ele>
        <time>2016-11-15T10:19:11Z</time>
      </trkpt>
      <trkpt lat="45.95841" lon="4.91448">
        <ele>298</ele>
        <time>2016-11-15T10:19:12Z</time>
      </trkpt>
      <trkpt lat="45.95842" lon="4.91457">
        <ele>298</ele>
        <time>2016-11-15T10:19:13Z</time>
      </trkpt>
      <trkpt lat="45.95842" lon="4.91465">
        <ele>299</ele>
        <time>2016-11-15T10:19:14Z</time>
      </trkpt>
      <trkpt lat="45.95842" lon="4.91472">
        <ele>299</ele>
        <time>2016-11-15T10:19:15Z</time>
      </trkpt>
      <trkpt lat="45.95842" lon="4.91479">
        <ele>299</ele>
        <time>2016-11-15T10:19:16Z</time>
      </trkpt>
      <trkpt lat="45.95842" lon="4.91486">
        <ele>299</ele>
        <time>2016-11-15T10:19:17Z</time>
      </trkpt>
      <trkpt lat="45.95841" lon="4.91499">
        <ele>298</ele>
        <time>2016-11-15T10:19:19Z</time>
      </trkpt>
      <trkpt lat="45.95841" lon="4.91506">
        <ele>299</ele>
        <time>2016-11-15T10:19:20Z</time>
      </trkpt>
      <trkpt lat="45.95841" lon="4.91513">
        <ele>299</ele>
        <time>2016-11-15T10:19:21Z</time>
      </trkpt>
      <trkpt lat="45.95841" lon="4.91521">
        <ele>299</ele>
        <time>2016-11-15T10:19:22Z</time>
      </trkpt>
      <trkpt lat="45.9584" lon="4.91528">
        <ele>300</ele>
        <time>2016-11-15T10:19:23Z</time>
      </trkpt>
      <trkpt lat="45.95839" lon="4.91535">
        <ele>300</ele>
        <time>2016-11-15T10:19:24Z</time>
      </trkpt>
      <trkpt lat="45.95839" lon="4.91542">
        <ele>300</ele>
        <time>2016-11-15T10:19:25Z</time>
      </trkpt>
      <trkpt lat="45.95838" lon="4.91548">
        <ele>300</ele>
        <time>2016-11-15T10:19:26Z</time>
      </trkpt>
      <trkpt lat="45.95837" lon="4.91555">
        <ele>300</ele>
        <time>2016-11-15T10:19:27Z</time>
      </trkpt>
      <trkpt lat="45.95838" lon="4.91562">
        <ele>300</ele>
        <time>2016-11-15T10:19:28Z</time>
      </trkpt>
      <trkpt lat="45.95838" lon="4.91569">
        <ele>300</ele>
        <time>2016-11-15T10:19:29Z</time>
      </trkpt>
      <trkpt lat="45.95837" lon="4.91576">
        <ele>300</ele>
        <time>2016-11-15T10:19:30Z</time>
      </trkpt>
      <trkpt lat="45.95837" lon="4.91584">
        <ele>300</ele>
        <time>2016-11-15T10:19:31Z</time>
      </trkpt>
      <trkpt lat="45.95838" lon="4.91592">
        <ele>300</ele>
        <time>2016-11-15T10:19:32Z</time>
      </trkpt>
      <trkpt lat="45.95838" lon="4.91599">
        <ele>300</ele>
        <time>2016-11-15T10:19:33Z</time>
      </trkpt>
      <trkpt lat="45.95837" lon="4.91608">
        <ele>301</ele>
        <time>2016-11-15T10:19:34Z</time>
      </trkpt>
      <trkpt lat="45.95837" lon="4.91616">
        <ele>301</ele>
        <time>2016-11-15T10:19:35Z</time>
      </trkpt>
      <trkpt lat="45.95837" lon="4.91624">
        <ele>301</ele>
        <time>2016-11-15T10:19:36Z</time>
      </trkpt>
      <trkpt lat="45.95837" lon="4.91632">
        <ele>301</ele>
        <time>2016-11-15T10:19:37Z</time>
      </trkpt>
      <trkpt lat="45.95836" lon="4.9164">
        <ele>301</ele>
        <time>2016-11-15T10:19:38Z</time>
      </trkpt>
      <trkpt lat="45.95835" lon="4.91648">
        <ele>301</ele>
        <time>2016-11-15T10:19:39Z</time>
      </trkpt>
      <trkpt lat="45.95837" lon="4.91655">
        <ele>301</ele>
        <time>2016-11-15T10:19:40Z</time>
      </trkpt>
      <trkpt lat="45.95837" lon="4.91662">
        <ele>301</ele>
        <time>2016-11-15T10:19:41Z</time>
      </trkpt>
      <trkpt lat="45.95837" lon="4.91669">
        <ele>301</ele>
        <time>2016-11-15T10:19:42Z</time>
      </trkpt>
      <trkpt lat="45.95837" lon="4.91681">
        <ele>302</ele>
        <time>2016-11-15T10:19:44Z</time>
      </trkpt>
      <trkpt lat="45.95837" lon="4.91687">
        <ele>302</ele>
        <time>2016-11-15T10:19:45Z</time>
      </trkpt>
      <trkpt lat="45.95838" lon="4.917">
        <ele>302</ele>
        <time>2016-11-15T10:19:47Z</time>
      </trkpt>
      <trkpt lat="45.95838" lon="4.91705">
        <ele>302</ele>
        <time>2016-11-15T10:19:48Z</time>
      </trkpt>
      <trkpt lat="45.95835" lon="4.91717">
        <ele>302</ele>
        <time>2016-11-15T10:19:50Z</time>
      </trkpt>
      <trkpt lat="45.95833" lon="4.91722">
        <ele>301</ele>
        <time>2016-11-15T10:19:51Z</time>
      </trkpt>
      <trkpt lat="45.95829" lon="4.91732">
        <ele>301</ele>
        <time>2016-11-15T10:19:53Z</time>
      </trkpt>
      <trkpt lat="45.95826" lon="4.91736">
        <ele>301</ele>
        <time>2016-11-15T10:19:54Z</time>
      </trkpt>
      <trkpt lat="45.95823" lon="4.91741">
        <ele>302</ele>
        <time>2016-11-15T10:19:55Z</time>
      </trkpt>
      <trkpt lat="45.9582" lon="4.91747">
        <ele>301</ele>
        <time>2016-11-15T10:19:56Z</time>
      </trkpt>
      <trkpt lat="45.95817" lon="4.91752">
        <ele>302</ele>
        <time>2016-11-15T10:19:57Z</time>
      </trkpt>
      <trkpt lat="45.95814" lon="4.91758">
        <ele>301</ele>
        <time>2016-11-15T10:19:58Z</time>
      </trkpt>
      <trkpt lat="45.95811" lon="4.91763">
        <ele>301</ele>
        <time>2016-11-15T10:19:59Z</time>
      </trkpt>
      <trkpt lat="45.95807" lon="4.91769">
        <ele>301</ele>
        <time>2016-11-15T10:20:00Z</time>
      </trkpt>
      <trkpt lat="45.95804" lon="4.91774">
        <ele>301</ele>
        <time>2016-11-15T10:20:01Z</time>
      </trkpt>
      <trkpt lat="45.95801" lon="4.91779">
        <ele>301</ele>
        <time>2016-11-15T10:20:02Z</time>
      </trkpt>
      <trkpt lat="45.95797" lon="4.91784">
        <ele>300</ele>
        <time>2016-11-15T10:20:03Z</time>
      </trkpt>
      <trkpt lat="45.95794" lon="4.91789">
        <ele>300</ele>
        <time>2016-11-15T10:20:04Z</time>
      </trkpt>
      <trkpt lat="45.9579" lon="4.91795">
        <ele>300</ele>
        <time>2016-11-15T10:20:05Z</time>
      </trkpt>
      <trkpt lat="45.95786" lon="4.91801">
        <ele>300</ele>
        <time>2016-11-15T10:20:06Z</time>
      </trkpt>
      <trkpt lat="45.95782" lon="4.91807">
        <ele>300</ele>
        <time>2016-11-15T10:20:07Z</time>
      </trkpt>
      <trkpt lat="45.95779" lon="4.91813">
        <ele>300</ele>
        <time>2016-11-15T10:20:08Z</time>
      </trkpt>
      <trkpt lat="45.95776" lon="4.91819">
        <ele>300</ele>
        <time>2016-11-15T10:20:09Z</time>
      </trkpt>
      <trkpt lat="45.95773" lon="4.91824">
        <ele>300</ele>
        <time>2016-11-15T10:20:10Z</time>
      </trkpt>
      <trkpt lat="45.9577" lon="4.91831">
        <ele>299</ele>
        <time>2016-11-15T10:20:11Z</time>
      </trkpt>
      <trkpt lat="45.95766" lon="4.91838">
        <ele>299</ele>
        <time>2016-11-15T10:20:12Z</time>
      </trkpt>
      <trkpt lat="45.95763" lon="4.91843">
        <ele>299</ele>
        <time>2016-11-15T10:20:13Z</time>
      </trkpt>
      <trkpt lat="45.9576" lon="4.91849">
        <ele>299</ele>
        <time>2016-11-15T10:20:14Z</time>
      </trkpt>
      <trkpt lat="45.95756" lon="4.91855">
        <ele>300</ele>
        <time>2016-11-15T10:20:15Z</time>
      </trkpt>
      <trkpt lat="45.95753" lon="4.91862">
        <ele>300</ele>
        <time>2016-11-15T10:20:16Z</time>
      </trkpt>
      <trkpt lat="45.9575" lon="4.91868">
        <ele>300</ele>
        <time>2016-11-15T10:20:17Z</time>
      </trkpt>
      <trkpt lat="45.95746" lon="4.91875">
        <ele>298</ele>
        <time>2016-11-15T10:20:18Z</time>
      </trkpt>
      <trkpt lat="45.95743" lon="4.9188">
        <ele>298</ele>
        <time>2016-11-15T10:20:19Z</time>
      </trkpt>
      <trkpt lat="45.9574" lon="4.91885">
        <ele>298</ele>
        <time>2016-11-15T10:20:20Z</time>
      </trkpt>
      <trkpt lat="45.95736" lon="4.91891">
        <ele>298</ele>
        <time>2016-11-15T10:20:21Z</time>
      </trkpt>
      <trkpt lat="45.95732" lon="4.91896">
        <ele>298</ele>
        <time>2016-11-15T10:20:22Z</time>
      </trkpt>
      <trkpt lat="45.95729" lon="4.91902">
        <ele>298</ele>
        <time>2016-11-15T10:20:23Z</time>
      </trkpt>
      <trkpt lat="45.95725" lon="4.91908">
        <ele>298</ele>
        <time>2016-11-15T10:20:24Z</time>
      </trkpt>
      <trkpt lat="45.95722" lon="4.91914">
        <ele>298</ele>
        <time>2016-11-15T10:20:25Z</time>
      </trkpt>
      <trkpt lat="45.95719" lon="4.9192">
        <ele>299</ele>
        <time>2016-11-15T10:20:26Z</time>
      </trkpt>
      <trkpt lat="45.95716" lon="4.91926">
        <ele>299</ele>
        <time>2016-11-15T10:20:27Z</time>
      </trkpt>
      <trkpt lat="45.95713" lon="4.91932">
        <ele>299</ele>
        <time>2016-11-15T10:20:28Z</time>
      </trkpt>
      <trkpt lat="45.95709" lon="4.91938">
        <ele>299</ele>
        <time>2016-11-15T10:20:29Z</time>
      </trkpt>
      <trkpt lat="45.95706" lon="4.91944">
        <ele>299</ele>
        <time>2016-11-15T10:20:30Z</time>
      </trkpt>
      <trkpt lat="45.95703" lon="4.9195">
        <ele>299</ele>
        <time>2016-11-15T10:20:31Z</time>
      </trkpt>
      <trkpt lat="45.95699" lon="4.91955">
        <ele>299</ele>
        <time>2016-11-15T10:20:32Z</time>
      </trkpt>
      <trkpt lat="45.95695" lon="4.91962">
        <ele>299</ele>
        <time>2016-11-15T10:20:33Z</time>
      </trkpt>
      <trkpt lat="45.95692" lon="4.91967">
        <ele>299</ele>
        <time>2016-11-15T10:20:34Z</time>
      </trkpt>
      <trkpt lat="45.95688" lon="4.91974">
        <ele>299</ele>
        <time>2016-11-15T10:20:35Z</time>
      </trkpt>
      <trkpt lat="45.95685" lon="4.91983">
        <ele>299</ele>
        <time>2016-11-15T10:20:36Z</time>
      </trkpt>
      <trkpt lat="45.9568" lon="4.91991">
        <ele>299</ele>
        <time>2016-11-15T10:20:37Z</time>
      </trkpt>
      <trkpt lat="45.95677" lon="4.91998">
        <ele>299</ele>
        <time>2016-11-15T10:20:38Z</time>
      </trkpt>
      <trkpt lat="45.95673" lon="4.92007">
        <ele>299</ele>
        <time>2016-11-15T10:20:39Z</time>
      </trkpt>
      <trkpt lat="45.9567" lon="4.92016">
        <ele>299</ele>
        <time>2016-11-15T10:20:40Z</time>
      </trkpt>
      <trkpt lat="45.95668" lon="4.92024">
        <ele>300</ele>
        <time>2016-11-15T10:20:41Z</time>
      </trkpt>
      <trkpt lat="45.95664" lon="4.92035">
        <ele>297</ele>
        <time>2016-11-15T10:20:42Z</time>
      </trkpt>
      <trkpt lat="45.95663" lon="4.92044">
        <ele>297</ele>
        <time>2016-11-15T10:20:43Z</time>
      </trkpt>
      <trkpt lat="45.95663" lon="4.92053">
        <ele>297</ele>
        <time>2016-11-15T10:20:44Z</time>
      </trkpt>
      <trkpt lat="45.95662" lon="4.92061">
        <ele>297</ele>
        <time>2016-11-15T10:20:45Z</time>
      </trkpt>
      <trkpt lat="45.95662" lon="4.92069">
        <ele>297</ele>
        <time>2016-11-15T10:20:46Z</time>
      </trkpt>
      <trkpt lat="45.95663" lon="4.92077">
        <ele>298</ele>
        <time>2016-11-15T10:20:47Z</time>
      </trkpt>
      <trkpt lat="45.95662" lon="4.92085">
        <ele>298</ele>
        <time>2016-11-15T10:20:48Z</time>
      </trkpt>
      <trkpt lat="45.95662" lon="4.92093">
        <ele>298</ele>
        <time>2016-11-15T10:20:49Z</time>
      </trkpt>
      <trkpt lat="45.95661" lon="4.92101">
        <ele>297</ele>
        <time>2016-11-15T10:20:50Z</time>
      </trkpt>
      <trkpt lat="45.95661" lon="4.92109">
        <ele>296</ele>
        <time>2016-11-15T10:20:51Z</time>
      </trkpt>
      <trkpt lat="45.95659" lon="4.92117">
        <ele>296</ele>
        <time>2016-11-15T10:20:52Z</time>
      </trkpt>
      <trkpt lat="45.95659" lon="4.92125">
        <ele>296</ele>
        <time>2016-11-15T10:20:53Z</time>
      </trkpt>
      <trkpt lat="45.95659" lon="4.92134">
        <ele>296</ele>
        <time>2016-11-15T10:20:54Z</time>
      </trkpt>
      <trkpt lat="45.95659" lon="4.92143">
        <ele>296</ele>
        <time>2016-11-15T10:20:55Z</time>
      </trkpt>
      <trkpt lat="45.95659" lon="4.92152">
        <ele>296</ele>
        <time>2016-11-15T10:20:56Z</time>
      </trkpt>
      <trkpt lat="45.95659" lon="4.92161">
        <ele>296</ele>
        <time>2016-11-15T10:20:57Z</time>
      </trkpt>
      <trkpt lat="45.95659" lon="4.92169">
        <ele>296</ele>
        <time>2016-11-15T10:20:58Z</time>
      </trkpt>
      <trkpt lat="45.95658" lon="4.92177">
        <ele>296</ele>
        <time>2016-11-15T10:20:59Z</time>
      </trkpt>
      <trkpt lat="45.95658" lon="4.92185">
        <ele>295</ele>
        <time>2016-11-15T10:21:00Z</time>
      </trkpt>
      <trkpt lat="45.95657" lon="4.92193">
        <ele>295</ele>
        <time>2016-11-15T10:21:01Z</time>
      </trkpt>
      <trkpt lat="45.95657" lon="4.92201">
        <ele>295</ele>
        <time>2016-11-15T10:21:02Z</time>
      </trkpt>
      <trkpt lat="45.95657" lon="4.92208">
        <ele>294</ele>
        <time>2016-11-15T10:21:03Z</time>
      </trkpt>
      <trkpt lat="45.95656" lon="4.92215">
        <ele>294</ele>
        <time>2016-11-15T10:21:04Z</time>
      </trkpt>
      <trkpt lat="45.95656" lon="4.92222">
        <ele>294</ele>
        <time>2016-11-15T10:21:05Z</time>
      </trkpt>
      <trkpt lat="45.95656" lon="4.92229">
        <ele>294</ele>
        <time>2016-11-15T10:21:06Z</time>
      </trkpt>
      <trkpt lat="45.95656" lon="4.92241">
        <ele>294</ele>
        <time>2016-11-15T10:21:08Z</time>
      </trkpt>
      <trkpt lat="45.95656" lon="4.92248">
        <ele>294</ele>
        <time>2016-11-15T10:21:09Z</time>
      </trkpt>
      <trkpt lat="45.95656" lon="4.92255">
        <ele>294</ele>
        <time>2016-11-15T10:21:10Z</time>
      </trkpt>
      <trkpt lat="45.95657" lon="4.92261">
        <ele>294</ele>
        <time>2016-11-15T10:21:11Z</time>
      </trkpt>
      <trkpt lat="45.95657" lon="4.92269">
        <ele>294</ele>
        <time>2016-11-15T10:21:12Z</time>
      </trkpt>
      <trkpt lat="45.95657" lon="4.92276">
        <ele>293</ele>
        <time>2016-11-15T10:21:13Z</time>
      </trkpt>
      <trkpt lat="45.95657" lon="4.92283">
        <ele>293</ele>
        <time>2016-11-15T10:21:14Z</time>
      </trkpt>
      <trkpt lat="45.95657" lon="4.92291">
        <ele>293</ele>
        <time>2016-11-15T10:21:15Z</time>
      </trkpt>
      <trkpt lat="45.95656" lon="4.92299">
        <ele>293</ele>
        <time>2016-11-15T10:21:16Z</time>
      </trkpt>
      <trkpt lat="45.95656" lon="4.92306">
        <ele>293</ele>
        <time>2016-11-15T10:21:17Z</time>
      </trkpt>
      <trkpt lat="45.95655" lon="4.92314">
        <ele>293</ele>
        <time>2016-11-15T10:21:18Z</time>
      </trkpt>
      <trkpt lat="45.95654" lon="4.92322">
        <ele>293</ele>
        <time>2016-11-15T10:21:19Z</time>
      </trkpt>
      <trkpt lat="45.95653" lon="4.9233">
        <ele>293</ele>
        <time>2016-11-15T10:21:20Z</time>
      </trkpt>
      <trkpt lat="45.95652" lon="4.92338">
        <ele>293</ele>
        <time>2016-11-15T10:21:21Z</time>
      </trkpt>
      <trkpt lat="45.95651" lon="4.92346">
        <ele>293</ele>
        <time>2016-11-15T10:21:22Z</time>
      </trkpt>
      <trkpt lat="45.9565" lon="4.92354">
        <ele>293</ele>
        <time>2016-11-15T10:21:23Z</time>
      </trkpt>
      <trkpt lat="45.9565" lon="4.92363">
        <ele>293</ele>
        <time>2016-11-15T10:21:24Z</time>
      </trkpt>
      <trkpt lat="45.95649" lon="4.92372">
        <ele>293</ele>
        <time>2016-11-15T10:21:25Z</time>
      </trkpt>
      <trkpt lat="45.95648" lon="4.9238">
        <ele>293</ele>
        <time>2016-11-15T10:21:26Z</time>
      </trkpt>
      <trkpt lat="45.95647" lon="4.92388">
        <ele>293</ele>
        <time>2016-11-15T10:21:27Z</time>
      </trkpt>
      <trkpt lat="45.95646" lon="4.92396">
        <ele>293</ele>
        <time>2016-11-15T10:21:28Z</time>
      </trkpt>
      <trkpt lat="45.95645" lon="4.92403">
        <ele>293</ele>
        <time>2016-11-15T10:21:29Z</time>
      </trkpt>
      <trkpt lat="45.95644" lon="4.92411">
        <ele>293</ele>
        <time>2016-11-15T10:21:30Z</time>
      </trkpt>
      <trkpt lat="45.95643" lon="4.92417">
        <ele>293</ele>
        <time>2016-11-15T10:21:31Z</time>
      </trkpt>
      <trkpt lat="45.95642" lon="4.92424">
        <ele>293</ele>
        <time>2016-11-15T10:21:32Z</time>
      </trkpt>
      <trkpt lat="45.95641" lon="4.92431">
        <ele>293</ele>
        <time>2016-11-15T10:21:33Z</time>
      </trkpt>
      <trkpt lat="45.9564" lon="4.92438">
        <ele>293</ele>
        <time>2016-11-15T10:21:34Z</time>
      </trkpt>
      <trkpt lat="45.95639" lon="4.92444">
        <ele>293</ele>
        <time>2016-11-15T10:21:35Z</time>
      </trkpt>
      <trkpt lat="45.95638" lon="4.92451">
        <ele>293</ele>
        <time>2016-11-15T10:21:36Z</time>
      </trkpt>
      <trkpt lat="45.95637" lon="4.92458">
        <ele>293</ele>
        <time>2016-11-15T10:21:37Z</time>
      </trkpt>
      <trkpt lat="45.95636" lon="4.92466">
        <ele>293</ele>
        <time>2016-11-15T10:21:38Z</time>
      </trkpt>
      <trkpt lat="45.95635" lon="4.92473">
        <ele>293</ele>
        <time>2016-11-15T10:21:39Z</time>
      </trkpt>
      <trkpt lat="45.95634" lon="4.92479">
        <ele>293</ele>
        <time>2016-11-15T10:21:40Z</time>
      </trkpt>
      <trkpt lat="45.95633" lon="4.92486">
        <ele>293</ele>
        <time>2016-11-15T10:21:41Z</time>
      </trkpt>
      <trkpt lat="45.95632" lon="4.92493">
        <ele>293</ele>
        <time>2016-11-15T10:21:42Z</time>
      </trkpt>
      <trkpt lat="45.95631" lon="4.925">
        <ele>294</ele>
        <time>2016-11-15T10:21:43Z</time>
      </trkpt>
      <trkpt lat="45.95631" lon="4.92508">
        <ele>294</ele>
        <time>2016-11-15T10:21:44Z</time>
      </trkpt>
      <trkpt lat="45.9563" lon="4.92515">
        <ele>294</ele>
        <time>2016-11-15T10:21:45Z</time>
      </trkpt>
      <trkpt lat="45.95629" lon="4.92523">
        <ele>294</ele>
        <time>2016-11-15T10:21:46Z</time>
      </trkpt>
      <trkpt lat="45.95627" lon="4.92531">
        <ele>294</ele>
        <time>2016-11-15T10:21:47Z</time>
      </trkpt>
      <trkpt lat="45.95626" lon="4.92539">
        <ele>294</ele>
        <time>2016-11-15T10:21:48Z</time>
      </trkpt>
      <trkpt lat="45.95625" lon="4.92547">
        <ele>294</ele>
        <time>2016-11-15T10:21:49Z</time>
      </trkpt>
      <trkpt lat="45.95624" lon="4.92555">
        <ele>294</ele>
        <time>2016-11-15T10:21:50Z</time>
      </trkpt>
      <trkpt lat="45.95623" lon="4.92563">
        <ele>294</ele>
        <time>2016-11-15T10:21:51Z</time>
      </trkpt>
      <trkpt lat="45.95623" lon="4.92571">
        <ele>294</ele>
        <time>2016-11-15T10:21:52Z</time>
      </trkpt>
      <trkpt lat="45.95621" lon="4.92578">
        <ele>294</ele>
        <time>2016-11-15T10:21:53Z</time>
      </trkpt>
      <trkpt lat="45.9562" lon="4.92586">
        <ele>294</ele>
        <time>2016-11-15T10:21:54Z</time>
      </trkpt>
      <trkpt lat="45.95619" lon="4.92593">
        <ele>294</ele>
        <time>2016-11-15T10:21:55Z</time>
      </trkpt>
      <trkpt lat="45.95617" lon="4.92601">
        <ele>294</ele>
        <time>2016-11-15T10:21:56Z</time>
      </trkpt>
      <trkpt lat="45.95616" lon="4.92607">
        <ele>294</ele>
        <time>2016-11-15T10:21:57Z</time>
      </trkpt>
      <trkpt lat="45.95615" lon="4.92614">
        <ele>294</ele>
        <time>2016-11-15T10:21:58Z</time>
      </trkpt>
      <trkpt lat="45.95614" lon="4.92621">
        <ele>294</ele>
        <time>2016-11-15T10:21:59Z</time>
      </trkpt>
      <trkpt lat="45.95613" lon="4.92628">
        <ele>294</ele>
        <time>2016-11-15T10:22:00Z</time>
      </trkpt>
      <trkpt lat="45.95612" lon="4.92635">
        <ele>294</ele>
        <time>2016-11-15T10:22:01Z</time>
      </trkpt>
      <trkpt lat="45.9561" lon="4.92643">
        <ele>294</ele>
        <time>2016-11-15T10:22:02Z</time>
      </trkpt>
      <trkpt lat="45.95608" lon="4.9265">
        <ele>294</ele>
        <time>2016-11-15T10:22:03Z</time>
      </trkpt>
      <trkpt lat="45.95607" lon="4.92657">
        <ele>294</ele>
        <time>2016-11-15T10:22:04Z</time>
      </trkpt>
      <trkpt lat="45.95605" lon="4.92664">
        <ele>294</ele>
        <time>2016-11-15T10:22:05Z</time>
      </trkpt>
      <trkpt lat="45.95603" lon="4.92672">
        <ele>294</ele>
        <time>2016-11-15T10:22:06Z</time>
      </trkpt>
      <trkpt lat="45.95601" lon="4.92679">
        <ele>294</ele>
        <time>2016-11-15T10:22:07Z</time>
      </trkpt>
      <trkpt lat="45.95599" lon="4.92686">
        <ele>295</ele>
        <time>2016-11-15T10:22:08Z</time>
      </trkpt>
      <trkpt lat="45.95598" lon="4.92694">
        <ele>295</ele>
        <time>2016-11-15T10:22:09Z</time>
      </trkpt>
      <trkpt lat="45.95596" lon="4.92701">
        <ele>295</ele>
        <time>2016-11-15T10:22:10Z</time>
      </trkpt>
      <trkpt lat="45.95595" lon="4.92708">
        <ele>295</ele>
        <time>2016-11-15T10:22:11Z</time>
      </trkpt>
      <trkpt lat="45.95594" lon="4.92716">
        <ele>295</ele>
        <time>2016-11-15T10:22:12Z</time>
      </trkpt>
      <trkpt lat="45.95593" lon="4.92723">
        <ele>295</ele>
        <time>2016-11-15T10:22:13Z</time>
      </trkpt>
      <trkpt lat="45.95592" lon="4.9273">
        <ele>295</ele>
        <time>2016-11-15T10:22:14Z</time>
      </trkpt>
      <trkpt lat="45.95591" lon="4.92739">
        <ele>295</ele>
        <time>2016-11-15T10:22:15Z</time>
      </trkpt>
      <trkpt lat="45.9559" lon="4.92747">
        <ele>295</ele>
        <time>2016-11-15T10:22:16Z</time>
      </trkpt>
      <trkpt lat="45.95589" lon="4.92755">
        <ele>295</ele>
        <time>2016-11-15T10:22:17Z</time>
      </trkpt>
      <trkpt lat="45.95588" lon="4.92762">
        <ele>295</ele>
        <time>2016-11-15T10:22:18Z</time>
      </trkpt>
      <trkpt lat="45.95587" lon="4.92769">
        <ele>295</ele>
        <time>2016-11-15T10:22:19Z</time>
      </trkpt>
      <trkpt lat="45.95586" lon="4.92776">
        <ele>295</ele>
        <time>2016-11-15T10:22:20Z</time>
      </trkpt>
      <trkpt lat="45.95585" lon="4.92784">
        <ele>295</ele>
        <time>2016-11-15T10:22:21Z</time>
      </trkpt>
      <trkpt lat="45.95584" lon="4.92791">
        <ele>295</ele>
        <time>2016-11-15T10:22:22Z</time>
      </trkpt>
      <trkpt lat="45.95583" lon="4.92798">
        <ele>294</ele>
        <time>2016-11-15T10:22:23Z</time>
      </trkpt>
      <trkpt lat="45.95582" lon="4.92806">
        <ele>294</ele>
        <time>2016-11-15T10:22:24Z</time>
      </trkpt>
      <trkpt lat="45.95581" lon="4.92814">
        <ele>295</ele>
        <time>2016-11-15T10:22:25Z</time>
      </trkpt>
      <trkpt lat="45.9558" lon="4.92822">
        <ele>295</ele>
        <time>2016-11-15T10:22:26Z</time>
      </trkpt>
      <trkpt lat="45.95578" lon="4.9283">
        <ele>295</ele>
        <time>2016-11-15T10:22:27Z</time>
      </trkpt>
      <trkpt lat="45.95577" lon="4.92837">
        <ele>295</ele>
        <time>2016-11-15T10:22:28Z</time>
      </trkpt>
      <trkpt lat="45.95576" lon="4.92845">
        <ele>294</ele>
        <time>2016-11-15T10:22:29Z</time>
      </trkpt>
      <trkpt lat="45.95574" lon="4.92852">
        <ele>294</ele>
        <time>2016-11-15T10:22:30Z</time>
      </trkpt>
      <trkpt lat="45.95573" lon="4.9286">
        <ele>294</ele>
        <time>2016-11-15T10:22:31Z</time>
      </trkpt>
      <trkpt lat="45.95572" lon="4.92867">
        <ele>294</ele>
        <time>2016-11-15T10:22:32Z</time>
      </trkpt>
      <trkpt lat="45.95571" lon="4.92874">
        <ele>294</ele>
        <time>2016-11-15T10:22:33Z</time>
      </trkpt>
      <trkpt lat="45.9557" lon="4.92882">
        <ele>294</ele>
        <time>2016-11-15T10:22:34Z</time>
      </trkpt>
      <trkpt lat="45.95569" lon="4.92889">
        <ele>294</ele>
        <time>2016-11-15T10:22:35Z</time>
      </trkpt>
      <trkpt lat="45.95568" lon="4.92897">
        <ele>294</ele>
        <time>2016-11-15T10:22:36Z</time>
      </trkpt>
      <trkpt lat="45.95567" lon="4.92904">
        <ele>294</ele>
        <time>2016-11-15T10:22:37Z</time>
      </trkpt>
      <trkpt lat="45.95566" lon="4.92911">
        <ele>294</ele>
        <time>2016-11-15T10:22:38Z</time>
      </trkpt>
      <trkpt lat="45.95564" lon="4.92918">
        <ele>293</ele>
        <time>2016-11-15T10:22:39Z</time>
      </trkpt>
      <trkpt lat="45.95563" lon="4.92925">
        <ele>293</ele>
        <time>2016-11-15T10:22:40Z</time>
      </trkpt>
      <trkpt lat="45.95562" lon="4.92933">
        <ele>292</ele>
        <time>2016-11-15T10:22:41Z</time>
      </trkpt>
      <trkpt lat="45.95561" lon="4.9294">
        <ele>292</ele>
        <time>2016-11-15T10:22:42Z</time>
      </trkpt>
      <trkpt lat="45.9556" lon="4.92946">
        <ele>292</ele>
        <time>2016-11-15T10:22:43Z</time>
      </trkpt>
      <trkpt lat="45.95559" lon="4.92954">
        <ele>292</ele>
        <time>2016-11-15T10:22:44Z</time>
      </trkpt>
      <trkpt lat="45.95558" lon="4.9296">
        <ele>292</ele>
        <time>2016-11-15T10:22:45Z</time>
      </trkpt>
      <trkpt lat="45.95557" lon="4.92973">
        <ele>292</ele>
        <time>2016-11-15T10:22:47Z</time>
      </trkpt>
      <trkpt lat="45.95556" lon="4.9298">
        <ele>292</ele>
        <time>2016-11-15T10:22:48Z</time>
      </trkpt>
      <trkpt lat="45.95555" lon="4.92988">
        <ele>292</ele>
        <time>2016-11-15T10:22:49Z</time>
      </trkpt>
      <trkpt lat="45.95554" lon="4.92995">
        <ele>292</ele>
        <time>2016-11-15T10:22:50Z</time>
      </trkpt>
      <trkpt lat="45.95553" lon="4.93002">
        <ele>291</ele>
        <time>2016-11-15T10:22:51Z</time>
      </trkpt>
      <trkpt lat="45.95552" lon="4.9301">
        <ele>291</ele>
        <time>2016-11-15T10:22:52Z</time>
      </trkpt>
      <trkpt lat="45.95551" lon="4.93017">
        <ele>291</ele>
        <time>2016-11-15T10:22:53Z</time>
      </trkpt>
      <trkpt lat="45.9555" lon="4.93026">
        <ele>291</ele>
        <time>2016-11-15T10:22:54Z</time>
      </trkpt>
      <trkpt lat="45.95549" lon="4.93035">
        <ele>291</ele>
        <time>2016-11-15T10:22:55Z</time>
      </trkpt>
      <trkpt lat="45.95548" lon="4.93043">
        <ele>291</ele>
        <time>2016-11-15T10:22:56Z</time>
      </trkpt>
      <trkpt lat="45.95547" lon="4.93052">
        <ele>290</ele>
        <time>2016-11-15T10:22:57Z</time>
      </trkpt>
      <trkpt lat="45.95546" lon="4.9306">
        <ele>290</ele>
        <time>2016-11-15T10:22:58Z</time>
      </trkpt>
      <trkpt lat="45.95545" lon="4.93068">
        <ele>290</ele>
        <time>2016-11-15T10:22:59Z</time>
      </trkpt>
      <trkpt lat="45.95543" lon="4.93075">
        <ele>290</ele>
        <time>2016-11-15T10:23:00Z</time>
      </trkpt>
      <trkpt lat="45.95541" lon="4.93082">
        <ele>290</ele>
        <time>2016-11-15T10:23:01Z</time>
      </trkpt>
      <trkpt lat="45.95538" lon="4.93089">
        <ele>290</ele>
        <time>2016-11-15T10:23:02Z</time>
      </trkpt>
      <trkpt lat="45.95535" lon="4.93094">
        <ele>290</ele>
        <time>2016-11-15T10:23:03Z</time>
      </trkpt>
      <trkpt lat="45.95531" lon="4.93099">
        <ele>289</ele>
        <time>2016-11-15T10:23:04Z</time>
      </trkpt>
      <trkpt lat="45.95527" lon="4.93104">
        <ele>289</ele>
        <time>2016-11-15T10:23:05Z</time>
      </trkpt>
      <trkpt lat="45.95523" lon="4.93109">
        <ele>289</ele>
        <time>2016-11-15T10:23:06Z</time>
      </trkpt>
      <trkpt lat="45.95518" lon="4.93113">
        <ele>289</ele>
        <time>2016-11-15T10:23:07Z</time>
      </trkpt>
      <trkpt lat="45.95514" lon="4.93117">
        <ele>289</ele>
        <time>2016-11-15T10:23:08Z</time>
      </trkpt>
      <trkpt lat="45.95509" lon="4.9312">
        <ele>289</ele>
        <time>2016-11-15T10:23:09Z</time>
      </trkpt>
      <trkpt lat="45.95504" lon="4.93124">
        <ele>289</ele>
        <time>2016-11-15T10:23:10Z</time>
      </trkpt>
      <trkpt lat="45.95499" lon="4.93128">
        <ele>290</ele>
        <time>2016-11-15T10:23:11Z</time>
      </trkpt>
      <trkpt lat="45.95495" lon="4.93132">
        <ele>290</ele>
        <time>2016-11-15T10:23:12Z</time>
      </trkpt>
      <trkpt lat="45.95489" lon="4.93135">
        <ele>290</ele>
        <time>2016-11-15T10:23:13Z</time>
      </trkpt>
      <trkpt lat="45.95485" lon="4.93138">
        <ele>290</ele>
        <time>2016-11-15T10:23:14Z</time>
      </trkpt>
      <trkpt lat="45.9548" lon="4.93142">
        <ele>290</ele>
        <time>2016-11-15T10:23:15Z</time>
      </trkpt>
      <trkpt lat="45.95476" lon="4.93146">
        <ele>290</ele>
        <time>2016-11-15T10:23:16Z</time>
      </trkpt>
      <trkpt lat="45.95472" lon="4.93151">
        <ele>290</ele>
        <time>2016-11-15T10:23:17Z</time>
      </trkpt>
      <trkpt lat="45.95467" lon="4.93155">
        <ele>290</ele>
        <time>2016-11-15T10:23:18Z</time>
      </trkpt>
      <trkpt lat="45.95463" lon="4.93159">
        <ele>290</ele>
        <time>2016-11-15T10:23:19Z</time>
      </trkpt>
      <trkpt lat="45.95459" lon="4.93164">
        <ele>290</ele>
        <time>2016-11-15T10:23:20Z</time>
      </trkpt>
      <trkpt lat="45.95454" lon="4.93169">
        <ele>291</ele>
        <time>2016-11-15T10:23:21Z</time>
      </trkpt>
      <trkpt lat="45.9545" lon="4.93176">
        <ele>291</ele>
        <time>2016-11-15T10:23:22Z</time>
      </trkpt>
      <trkpt lat="45.95446" lon="4.93183">
        <ele>291</ele>
        <time>2016-11-15T10:23:23Z</time>
      </trkpt>
      <trkpt lat="45.95444" lon="4.93192">
        <ele>291</ele>
        <time>2016-11-15T10:23:24Z</time>
      </trkpt>
      <trkpt lat="45.95445" lon="4.93202">
        <ele>291</ele>
        <time>2016-11-15T10:23:25Z</time>
      </trkpt>
      <trkpt lat="45.95447" lon="4.93211">
        <ele>291</ele>
        <time>2016-11-15T10:23:26Z</time>
      </trkpt>
      <trkpt lat="45.9545" lon="4.93219">
        <ele>291</ele>
        <time>2016-11-15T10:23:27Z</time>
      </trkpt>
      <trkpt lat="45.95453" lon="4.93227">
        <ele>291</ele>
        <time>2016-11-15T10:23:28Z</time>
      </trkpt>
      <trkpt lat="45.95456" lon="4.93234">
        <ele>291</ele>
        <time>2016-11-15T10:23:29Z</time>
      </trkpt>
      <trkpt lat="45.95459" lon="4.93242">
        <ele>290</ele>
        <time>2016-11-15T10:23:30Z</time>
      </trkpt>
      <trkpt lat="45.95462" lon="4.9325">
        <ele>290</ele>
        <time>2016-11-15T10:23:31Z</time>
      </trkpt>
      <trkpt lat="45.95465" lon="4.93257">
        <ele>290</ele>
        <time>2016-11-15T10:23:32Z</time>
      </trkpt>
      <trkpt lat="45.95468" lon="4.93265">
        <ele>290</ele>
        <time>2016-11-15T10:23:33Z</time>
      </trkpt>
      <trkpt lat="45.95471" lon="4.93272">
        <ele>290</ele>
        <time>2016-11-15T10:23:34Z</time>
      </trkpt>
      <trkpt lat="45.95474" lon="4.9328">
        <ele>290</ele>
        <time>2016-11-15T10:23:35Z</time>
      </trkpt>
      <trkpt lat="45.95477" lon="4.93288">
        <ele>290</ele>
        <time>2016-11-15T10:23:36Z</time>
      </trkpt>
      <trkpt lat="45.9548" lon="4.93295">
        <ele>290</ele>
        <time>2016-11-15T10:23:37Z</time>
      </trkpt>
      <trkpt lat="45.95484" lon="4.93303">
        <ele>290</ele>
        <time>2016-11-15T10:23:38Z</time>
      </trkpt>
      <trkpt lat="45.95487" lon="4.93311">
        <ele>290</ele>
        <time>2016-11-15T10:23:39Z</time>
      </trkpt>
      <trkpt lat="45.9549" lon="4.9332">
        <ele>290</ele>
        <time>2016-11-15T10:23:40Z</time>
      </trkpt>
      <trkpt lat="45.95493" lon="4.93328">
        <ele>289</ele>
        <time>2016-11-15T10:23:41Z</time>
      </trkpt>
      <trkpt lat="45.95497" lon="4.93337">
        <ele>289</ele>
        <time>2016-11-15T10:23:42Z</time>
      </trkpt>
      <trkpt lat="45.95501" lon="4.93345">
        <ele>289</ele>
        <time>2016-11-15T10:23:43Z</time>
      </trkpt>
      <trkpt lat="45.95504" lon="4.93352">
        <ele>289</ele>
        <time>2016-11-15T10:23:44Z</time>
      </trkpt>
      <trkpt lat="45.95507" lon="4.9336">
        <ele>289</ele>
        <time>2016-11-15T10:23:45Z</time>
      </trkpt>
      <trkpt lat="45.9551" lon="4.93367">
        <ele>289</ele>
        <time>2016-11-15T10:23:46Z</time>
      </trkpt>
      <trkpt lat="45.95514" lon="4.93375">
        <ele>289</ele>
        <time>2016-11-15T10:23:47Z</time>
      </trkpt>
      <trkpt lat="45.95517" lon="4.93382">
        <ele>289</ele>
        <time>2016-11-15T10:23:48Z</time>
      </trkpt>
      <trkpt lat="45.9552" lon="4.93389">
        <ele>289</ele>
        <time>2016-11-15T10:23:49Z</time>
      </trkpt>
      <trkpt lat="45.95523" lon="4.93396">
        <ele>289</ele>
        <time>2016-11-15T10:23:50Z</time>
      </trkpt>
      <trkpt lat="45.95526" lon="4.93403">
        <ele>289</ele>
        <time>2016-11-15T10:23:51Z</time>
      </trkpt>
      <trkpt lat="45.95529" lon="4.9341">
        <ele>289</ele>
        <time>2016-11-15T10:23:52Z</time>
      </trkpt>
      <trkpt lat="45.95532" lon="4.93417">
        <ele>289</ele>
        <time>2016-11-15T10:23:53Z</time>
      </trkpt>
      <trkpt lat="45.95535" lon="4.93424">
        <ele>289</ele>
        <time>2016-11-15T10:23:54Z</time>
      </trkpt>
      <trkpt lat="45.95538" lon="4.93432">
        <ele>289</ele>
        <time>2016-11-15T10:23:55Z</time>
      </trkpt>
      <trkpt lat="45.95541" lon="4.93439">
        <ele>289</ele>
        <time>2016-11-15T10:23:56Z</time>
      </trkpt>
      <trkpt lat="45.95545" lon="4.93447">
        <ele>289</ele>
        <time>2016-11-15T10:23:57Z</time>
      </trkpt>
      <trkpt lat="45.95549" lon="4.93455">
        <ele>289</ele>
        <time>2016-11-15T10:23:58Z</time>
      </trkpt>
      <trkpt lat="45.95552" lon="4.93463">
        <ele>289</ele>
        <time>2016-11-15T10:23:59Z</time>
      </trkpt>
      <trkpt lat="45.95556" lon="4.9347">
        <ele>289</ele>
        <time>2016-11-15T10:24:00Z</time>
      </trkpt>
      <trkpt lat="45.95558" lon="4.93478">
        <ele>289</ele>
        <time>2016-11-15T10:24:01Z</time>
      </trkpt>
      <trkpt lat="45.95561" lon="4.93486">
        <ele>289</ele>
        <time>2016-11-15T10:24:02Z</time>
      </trkpt>
      <trkpt lat="45.95564" lon="4.93493">
        <ele>290</ele>
        <time>2016-11-15T10:24:03Z</time>
      </trkpt>
      <trkpt lat="45.95567" lon="4.93501">
        <ele>290</ele>
        <time>2016-11-15T10:24:04Z</time>
      </trkpt>
      <trkpt lat="45.95568" lon="4.93509">
        <ele>290</ele>
        <time>2016-11-15T10:24:05Z</time>
      </trkpt>
      <trkpt lat="45.9557" lon="4.93517">
        <ele>290</ele>
        <time>2016-11-15T10:24:06Z</time>
      </trkpt>
      <trkpt lat="45.95571" lon="4.93525">
        <ele>290</ele>
        <time>2016-11-15T10:24:07Z</time>
      </trkpt>
      <trkpt lat="45.95572" lon="4.93533">
        <ele>290</ele>
        <time>2016-11-15T10:24:08Z</time>
      </trkpt>
      <trkpt lat="45.95572" lon="4.93541">
        <ele>290</ele>
        <time>2016-11-15T10:24:09Z</time>
      </trkpt>
      <trkpt lat="45.95571" lon="4.93549">
        <ele>289</ele>
        <time>2016-11-15T10:24:10Z</time>
      </trkpt>
      <trkpt lat="45.9557" lon="4.93558">
        <ele>289</ele>
        <time>2016-11-15T10:24:11Z</time>
      </trkpt>
      <trkpt lat="45.9557" lon="4.93567">
        <ele>289</ele>
        <time>2016-11-15T10:24:12Z</time>
      </trkpt>
      <trkpt lat="45.95569" lon="4.93576">
        <ele>289</ele>
        <time>2016-11-15T10:24:13Z</time>
      </trkpt>
      <trkpt lat="45.95568" lon="4.93585">
        <ele>289</ele>
        <time>2016-11-15T10:24:14Z</time>
      </trkpt>
      <trkpt lat="45.95567" lon="4.93594">
        <ele>289</ele>
        <time>2016-11-15T10:24:15Z</time>
      </trkpt>
      <trkpt lat="45.95566" lon="4.93603">
        <ele>289</ele>
        <time>2016-11-15T10:24:16Z</time>
      </trkpt>
      <trkpt lat="45.95565" lon="4.93612">
        <ele>289</ele>
        <time>2016-11-15T10:24:17Z</time>
      </trkpt>
      <trkpt lat="45.95564" lon="4.93621">
        <ele>289</ele>
        <time>2016-11-15T10:24:18Z</time>
      </trkpt>
      <trkpt lat="45.95564" lon="4.9363">
        <ele>289</ele>
        <time>2016-11-15T10:24:19Z</time>
      </trkpt>
      <trkpt lat="45.95563" lon="4.93638">
        <ele>289</ele>
        <time>2016-11-15T10:24:20Z</time>
      </trkpt>
      <trkpt lat="45.95563" lon="4.93645">
        <ele>289</ele>
        <time>2016-11-15T10:24:21Z</time>
      </trkpt>
      <trkpt lat="45.95562" lon="4.93653">
        <ele>289</ele>
        <time>2016-11-15T10:24:22Z</time>
      </trkpt>
      <trkpt lat="45.95561" lon="4.9366">
        <ele>289</ele>
        <time>2016-11-15T10:24:23Z</time>
      </trkpt>
      <trkpt lat="45.9556" lon="4.93668">
        <ele>289</ele>
        <time>2016-11-15T10:24:24Z</time>
      </trkpt>
      <trkpt lat="45.95561" lon="4.93675">
        <ele>289</ele>
        <time>2016-11-15T10:24:25Z</time>
      </trkpt>
      <trkpt lat="45.95561" lon="4.93682">
        <ele>290</ele>
        <time>2016-11-15T10:24:26Z</time>
      </trkpt>
      <trkpt lat="45.95561" lon="4.93689">
        <ele>290</ele>
        <time>2016-11-15T10:24:27Z</time>
      </trkpt>
      <trkpt lat="45.95561" lon="4.93696">
        <ele>290</ele>
        <time>2016-11-15T10:24:28Z</time>
      </trkpt>
      <trkpt lat="45.95561" lon="4.93704">
        <ele>290</ele>
        <time>2016-11-15T10:24:29Z</time>
      </trkpt>
      <trkpt lat="45.95562" lon="4.93711">
        <ele>290</ele>
        <time>2016-11-15T10:24:30Z</time>
      </trkpt>
      <trkpt lat="45.95563" lon="4.9372">
        <ele>290</ele>
        <time>2016-11-15T10:24:31Z</time>
      </trkpt>
      <trkpt lat="45.95563" lon="4.93729">
        <ele>290</ele>
        <time>2016-11-15T10:24:32Z</time>
      </trkpt>
      <trkpt lat="45.95564" lon="4.93737">
        <ele>290</ele>
        <time>2016-11-15T10:24:33Z</time>
      </trkpt>
      <trkpt lat="45.95565" lon="4.93746">
        <ele>290</ele>
        <time>2016-11-15T10:24:34Z</time>
      </trkpt>
      <trkpt lat="45.95566" lon="4.93753">
        <ele>290</ele>
        <time>2016-11-15T10:24:35Z</time>
      </trkpt>
      <trkpt lat="45.95566" lon="4.93761">
        <ele>290</ele>
        <time>2016-11-15T10:24:36Z</time>
      </trkpt>
      <trkpt lat="45.95566" lon="4.93769">
        <ele>290</ele>
        <time>2016-11-15T10:24:37Z</time>
      </trkpt>
      <trkpt lat="45.95566" lon="4.93777">
        <ele>290</ele>
        <time>2016-11-15T10:24:38Z</time>
      </trkpt>
      <trkpt lat="45.95564" lon="4.93784">
        <ele>290</ele>
        <time>2016-11-15T10:24:39Z</time>
      </trkpt>
      <trkpt lat="45.95562" lon="4.93791">
        <ele>290</ele>
        <time>2016-11-15T10:24:40Z</time>
      </trkpt>
      <trkpt lat="45.95559" lon="4.93797">
        <ele>290</ele>
        <time>2016-11-15T10:24:41Z</time>
      </trkpt>
      <trkpt lat="45.95556" lon="4.93802">
        <ele>290</ele>
        <time>2016-11-15T10:24:42Z</time>
      </trkpt>
      <trkpt lat="45.95552" lon="4.93807">
        <ele>290</ele>
        <time>2016-11-15T10:24:43Z</time>
      </trkpt>
      <trkpt lat="45.95548" lon="4.9381">
        <ele>290</ele>
        <time>2016-11-15T10:24:44Z</time>
      </trkpt>
      <trkpt lat="45.95545" lon="4.93814">
        <ele>290</ele>
        <time>2016-11-15T10:24:45Z</time>
      </trkpt>
      <trkpt lat="45.95541" lon="4.93819">
        <ele>291</ele>
        <time>2016-11-15T10:24:46Z</time>
      </trkpt>
      <trkpt lat="45.95538" lon="4.93825">
        <ele>291</ele>
        <time>2016-11-15T10:24:47Z</time>
      </trkpt>
      <trkpt lat="45.95536" lon="4.93833">
        <ele>291</ele>
        <time>2016-11-15T10:24:48Z</time>
      </trkpt>
      <trkpt lat="45.95534" lon="4.93841">
        <ele>290</ele>
        <time>2016-11-15T10:24:49Z</time>
      </trkpt>
      <trkpt lat="45.95533" lon="4.93848">
        <ele>290</ele>
        <time>2016-11-15T10:24:50Z</time>
      </trkpt>
      <trkpt lat="45.95532" lon="4.93857">
        <ele>290</ele>
        <time>2016-11-15T10:24:51Z</time>
      </trkpt>
      <trkpt lat="45.95531" lon="4.93866">
        <ele>290</ele>
        <time>2016-11-15T10:24:52Z</time>
      </trkpt>
      <trkpt lat="45.95531" lon="4.93875">
        <ele>290</ele>
        <time>2016-11-15T10:24:53Z</time>
      </trkpt>
      <trkpt lat="45.95532" lon="4.93883">
        <ele>290</ele>
        <time>2016-11-15T10:24:54Z</time>
      </trkpt>
      <trkpt lat="45.95532" lon="4.9389">
        <ele>290</ele>
        <time>2016-11-15T10:24:55Z</time>
      </trkpt>
      <trkpt lat="45.95531" lon="4.93897">
        <ele>290</ele>
        <time>2016-11-15T10:24:56Z</time>
      </trkpt>
      <trkpt lat="45.95531" lon="4.93906">
        <ele>290</ele>
        <time>2016-11-15T10:24:57Z</time>
      </trkpt>
      <trkpt lat="45.95531" lon="4.93914">
        <ele>290</ele>
        <time>2016-11-15T10:24:58Z</time>
      </trkpt>
      <trkpt lat="45.95531" lon="4.93922">
        <ele>290</ele>
        <time>2016-11-15T10:24:59Z</time>
      </trkpt>
      <trkpt lat="45.95531" lon="4.9393">
        <ele>290</ele>
        <time>2016-11-15T10:25:00Z</time>
      </trkpt>
      <trkpt lat="45.95531" lon="4.93938">
        <ele>290</ele>
        <time>2016-11-15T10:25:01Z</time>
      </trkpt>
      <trkpt lat="45.95531" lon="4.93946">
        <ele>290</ele>
        <time>2016-11-15T10:25:02Z</time>
      </trkpt>
      <trkpt lat="45.95531" lon="4.93953">
        <ele>290</ele>
        <time>2016-11-15T10:25:03Z</time>
      </trkpt>
      <trkpt lat="45.9553" lon="4.93961">
        <ele>290</ele>
        <time>2016-11-15T10:25:04Z</time>
      </trkpt>
      <trkpt lat="45.9553" lon="4.93969">
        <ele>290</ele>
        <time>2016-11-15T10:25:05Z</time>
      </trkpt>
      <trkpt lat="45.95529" lon="4.93976">
        <ele>290</ele>
        <time>2016-11-15T10:25:06Z</time>
      </trkpt>
      <trkpt lat="45.95529" lon="4.93983">
        <ele>290</ele>
        <time>2016-11-15T10:25:07Z</time>
      </trkpt>
      <trkpt lat="45.95527" lon="4.93989">
        <ele>290</ele>
        <time>2016-11-15T10:25:08Z</time>
      </trkpt>
      <trkpt lat="45.95522" lon="4.93996">
        <ele>290</ele>
        <time>2016-11-15T10:25:10Z</time>
      </trkpt>
      <trkpt lat="45.95518" lon="4.93997">
        <ele>290</ele>
        <time>2016-11-15T10:25:11Z</time>
      </trkpt>
      <trkpt lat="45.95509" lon="4.93997">
        <ele>290</ele>
        <time>2016-11-15T10:25:13Z</time>
      </trkpt>
      <trkpt lat="45.95505" lon="4.93996">
        <ele>289</ele>
        <time>2016-11-15T10:25:14Z</time>
      </trkpt>
      <trkpt lat="45.95501" lon="4.93998">
        <ele>289</ele>
        <time>2016-11-15T10:25:15Z</time>
      </trkpt>
      <trkpt lat="45.95495" lon="4.93999">
        <ele>289</ele>
        <time>2016-11-15T10:25:16Z</time>
      </trkpt>
      <trkpt lat="45.9549" lon="4.93997">
        <ele>289</ele>
        <time>2016-11-15T10:25:17Z</time>
      </trkpt>
      <trkpt lat="45.95484" lon="4.93997">
        <ele>289</ele>
        <time>2016-11-15T10:25:18Z</time>
      </trkpt>
      <trkpt lat="45.95479" lon="4.93996">
        <ele>289</ele>
        <time>2016-11-15T10:25:19Z</time>
      </trkpt>
      <trkpt lat="45.95473" lon="4.93995">
        <ele>289</ele>
        <time>2016-11-15T10:25:20Z</time>
      </trkpt>
      <trkpt lat="45.95467" lon="4.93995">
        <ele>289</ele>
        <time>2016-11-15T10:25:21Z</time>
      </trkpt>
      <trkpt lat="45.95461" lon="4.93995">
        <ele>289</ele>
        <time>2016-11-15T10:25:22Z</time>
      </trkpt>
      <trkpt lat="45.95455" lon="4.93995">
        <ele>289</ele>
        <time>2016-11-15T10:25:23Z</time>
      </trkpt>
      <trkpt lat="45.9545" lon="4.93996">
        <ele>289</ele>
        <time>2016-11-15T10:25:24Z</time>
      </trkpt>
      <trkpt lat="45.95445" lon="4.93997">
        <ele>289</ele>
        <time>2016-11-15T10:25:25Z</time>
      </trkpt>
      <trkpt lat="45.95439" lon="4.93998">
        <ele>289</ele>
        <time>2016-11-15T10:25:26Z</time>
      </trkpt>
      <trkpt lat="45.95434" lon="4.94">
        <ele>289</ele>
        <time>2016-11-15T10:25:27Z</time>
      </trkpt>
      <trkpt lat="45.95429" lon="4.94001">
        <ele>289</ele>
        <time>2016-11-15T10:25:28Z</time>
      </trkpt>
      <trkpt lat="45.95424" lon="4.94002">
        <ele>290</ele>
        <time>2016-11-15T10:25:29Z</time>
      </trkpt>
      <trkpt lat="45.95418" lon="4.94004">
        <ele>290</ele>
        <time>2016-11-15T10:25:30Z</time>
      </trkpt>
      <trkpt lat="45.95413" lon="4.94006">
        <ele>290</ele>
        <time>2016-11-15T10:25:31Z</time>
      </trkpt>
      <trkpt lat="45.95407" lon="4.94008">
        <ele>289</ele>
        <time>2016-11-15T10:25:32Z</time>
      </trkpt>
      <trkpt lat="45.95401" lon="4.9401">
        <ele>289</ele>
        <time>2016-11-15T10:25:33Z</time>
      </trkpt>
      <trkpt lat="45.95396" lon="4.94012">
        <ele>289</ele>
        <time>2016-11-15T10:25:34Z</time>
      </trkpt>
      <trkpt lat="45.9539" lon="4.94013">
        <ele>289</ele>
        <time>2016-11-15T10:25:35Z</time>
      </trkpt>
      <trkpt lat="45.95385" lon="4.94015">
        <ele>289</ele>
        <time>2016-11-15T10:25:36Z</time>
      </trkpt>
      <trkpt lat="45.9538" lon="4.94016">
        <ele>289</ele>
        <time>2016-11-15T10:25:37Z</time>
      </trkpt>
      <trkpt lat="45.95376" lon="4.94017">
        <ele>288</ele>
        <time>2016-11-15T10:25:38Z</time>
      </trkpt>
      <trkpt lat="45.95371" lon="4.94019">
        <ele>288</ele>
        <time>2016-11-15T10:25:39Z</time>
      </trkpt>
      <trkpt lat="45.95366" lon="4.9402">
        <ele>288</ele>
        <time>2016-11-15T10:25:40Z</time>
      </trkpt>
      <trkpt lat="45.95361" lon="4.94021">
        <ele>288</ele>
        <time>2016-11-15T10:25:41Z</time>
      </trkpt>
      <trkpt lat="45.95356" lon="4.94022">
        <ele>288</ele>
        <time>2016-11-15T10:25:42Z</time>
      </trkpt>
      <trkpt lat="45.9535" lon="4.94022">
        <ele>288</ele>
        <time>2016-11-15T10:25:43Z</time>
      </trkpt>
      <trkpt lat="45.95344" lon="4.94023">
        <ele>288</ele>
        <time>2016-11-15T10:25:44Z</time>
      </trkpt>
      <trkpt lat="45.95338" lon="4.94023">
        <ele>288</ele>
        <time>2016-11-15T10:25:45Z</time>
      </trkpt>
      <trkpt lat="45.95332" lon="4.94023">
        <ele>288</ele>
        <time>2016-11-15T10:25:46Z</time>
      </trkpt>
      <trkpt lat="45.95327" lon="4.94023">
        <ele>288</ele>
        <time>2016-11-15T10:25:47Z</time>
      </trkpt>
      <trkpt lat="45.95322" lon="4.94023">
        <ele>288</ele>
        <time>2016-11-15T10:25:48Z</time>
      </trkpt>
      <trkpt lat="45.95317" lon="4.94023">
        <ele>288</ele>
        <time>2016-11-15T10:25:49Z</time>
      </trkpt>
      <trkpt lat="45.95312" lon="4.94025">
        <ele>288</ele>
        <time>2016-11-15T10:25:50Z</time>
      </trkpt>
      <trkpt lat="45.95305" lon="4.94033">
        <ele>288</ele>
        <time>2016-11-15T10:25:52Z</time>
      </trkpt>
      <trkpt lat="45.95302" lon="4.94038">
        <ele>288</ele>
        <time>2016-11-15T10:25:53Z</time>
      </trkpt>
      <trkpt lat="45.95299" lon="4.94044">
        <ele>288</ele>
        <time>2016-11-15T10:25:54Z</time>
      </trkpt>
      <trkpt lat="45.95297" lon="4.94051">
        <ele>288</ele>
        <time>2016-11-15T10:25:55Z</time>
      </trkpt>
      <trkpt lat="45.95294" lon="4.94057">
        <ele>288</ele>
        <time>2016-11-15T10:25:56Z</time>
      </trkpt>
      <trkpt lat="45.95291" lon="4.94064">
        <ele>288</ele>
        <time>2016-11-15T10:25:57Z</time>
      </trkpt>
      <trkpt lat="45.95288" lon="4.9407">
        <ele>288</ele>
        <time>2016-11-15T10:25:58Z</time>
      </trkpt>
      <trkpt lat="45.95285" lon="4.94076">
        <ele>288</ele>
        <time>2016-11-15T10:25:59Z</time>
      </trkpt>
      <trkpt lat="45.95282" lon="4.94081">
        <ele>288</ele>
        <time>2016-11-15T10:26:00Z</time>
      </trkpt>
      <trkpt lat="45.9528" lon="4.94087">
        <ele>288</ele>
        <time>2016-11-15T10:26:01Z</time>
      </trkpt>
      <trkpt lat="45.95276" lon="4.94098">
        <ele>288</ele>
        <time>2016-11-15T10:26:03Z</time>
      </trkpt>
      <trkpt lat="45.95274" lon="4.94103">
        <ele>288</ele>
        <time>2016-11-15T10:26:04Z</time>
      </trkpt>
      <trkpt lat="45.9527" lon="4.94114">
        <ele>288</ele>
        <time>2016-11-15T10:26:06Z</time>
      </trkpt>
      <trkpt lat="45.95268" lon="4.94119">
        <ele>288</ele>
        <time>2016-11-15T10:26:07Z</time>
      </trkpt>
      <trkpt lat="45.95265" lon="4.94125">
        <ele>288</ele>
        <time>2016-11-15T10:26:08Z</time>
      </trkpt>
      <trkpt lat="45.95263" lon="4.94131">
        <ele>288</ele>
        <time>2016-11-15T10:26:09Z</time>
      </trkpt>
      <trkpt lat="45.9526" lon="4.94137">
        <ele>288</ele>
        <time>2016-11-15T10:26:10Z</time>
      </trkpt>
      <trkpt lat="45.95257" lon="4.94143">
        <ele>288</ele>
        <time>2016-11-15T10:26:11Z</time>
      </trkpt>
      <trkpt lat="45.95255" lon="4.9415">
        <ele>288</ele>
        <time>2016-11-15T10:26:12Z</time>
      </trkpt>
      <trkpt lat="45.95253" lon="4.94157">
        <ele>289</ele>
        <time>2016-11-15T10:26:13Z</time>
      </trkpt>
      <trkpt lat="45.9525" lon="4.94164">
        <ele>289</ele>
        <time>2016-11-15T10:26:14Z</time>
      </trkpt>
      <trkpt lat="45.95248" lon="4.94171">
        <ele>289</ele>
        <time>2016-11-15T10:26:15Z</time>
      </trkpt>
      <trkpt lat="45.95246" lon="4.94179">
        <ele>289</ele>
        <time>2016-11-15T10:26:16Z</time>
      </trkpt>
      <trkpt lat="45.95243" lon="4.94187">
        <ele>289</ele>
        <time>2016-11-15T10:26:17Z</time>
      </trkpt>
      <trkpt lat="45.9524" lon="4.94194">
        <ele>289</ele>
        <time>2016-11-15T10:26:18Z</time>
      </trkpt>
      <trkpt lat="45.95239" lon="4.94201">
        <ele>289</ele>
        <time>2016-11-15T10:26:19Z</time>
      </trkpt>
      <trkpt lat="45.95238" lon="4.94208">
        <ele>289</ele>
        <time>2016-11-15T10:26:20Z</time>
      </trkpt>
      <trkpt lat="45.95236" lon="4.94215">
        <ele>289</ele>
        <time>2016-11-15T10:26:21Z</time>
      </trkpt>
      <trkpt lat="45.95235" lon="4.94222">
        <ele>289</ele>
        <time>2016-11-15T10:26:22Z</time>
      </trkpt>
      <trkpt lat="45.95234" lon="4.9423">
        <ele>289</ele>
        <time>2016-11-15T10:26:23Z</time>
      </trkpt>
      <trkpt lat="45.95234" lon="4.94237">
        <ele>289</ele>
        <time>2016-11-15T10:26:24Z</time>
      </trkpt>
      <trkpt lat="45.95234" lon="4.94244">
        <ele>289</ele>
        <time>2016-11-15T10:26:25Z</time>
      </trkpt>
      <trkpt lat="45.95234" lon="4.94252">
        <ele>288</ele>
        <time>2016-11-15T10:26:26Z</time>
      </trkpt>
      <trkpt lat="45.95234" lon="4.94259">
        <ele>288</ele>
        <time>2016-11-15T10:26:27Z</time>
      </trkpt>
      <trkpt lat="45.95233" lon="4.94267">
        <ele>288</ele>
        <time>2016-11-15T10:26:28Z</time>
      </trkpt>
      <trkpt lat="45.95234" lon="4.94275">
        <ele>289</ele>
        <time>2016-11-15T10:26:29Z</time>
      </trkpt>
      <trkpt lat="45.95234" lon="4.94282">
        <ele>289</ele>
        <time>2016-11-15T10:26:30Z</time>
      </trkpt>
      <trkpt lat="45.95233" lon="4.9429">
        <ele>289</ele>
        <time>2016-11-15T10:26:31Z</time>
      </trkpt>
      <trkpt lat="45.95233" lon="4.94297">
        <ele>289</ele>
        <time>2016-11-15T10:26:32Z</time>
      </trkpt>
      <trkpt lat="45.95233" lon="4.94304">
        <ele>289</ele>
        <time>2016-11-15T10:26:33Z</time>
      </trkpt>
      <trkpt lat="45.95232" lon="4.94311">
        <ele>288</ele>
        <time>2016-11-15T10:26:34Z</time>
      </trkpt>
      <trkpt lat="45.95231" lon="4.94318">
        <ele>288</ele>
        <time>2016-11-15T10:26:35Z</time>
      </trkpt>
      <trkpt lat="45.9523" lon="4.94325">
        <ele>288</ele>
        <time>2016-11-15T10:26:36Z</time>
      </trkpt>
      <trkpt lat="45.95229" lon="4.94332">
        <ele>288</ele>
        <time>2016-11-15T10:26:37Z</time>
      </trkpt>
      <trkpt lat="45.95226" lon="4.9434">
        <ele>289</ele>
        <time>2016-11-15T10:26:38Z</time>
      </trkpt>
      <trkpt lat="45.95224" lon="4.94347">
        <ele>289</ele>
        <time>2016-11-15T10:26:39Z</time>
      </trkpt>
      <trkpt lat="45.95222" lon="4.94355">
        <ele>289</ele>
        <time>2016-11-15T10:26:40Z</time>
      </trkpt>
      <trkpt lat="45.95219" lon="4.94362">
        <ele>289</ele>
        <time>2016-11-15T10:26:41Z</time>
      </trkpt>
      <trkpt lat="45.95216" lon="4.94369">
        <ele>289</ele>
        <time>2016-11-15T10:26:42Z</time>
      </trkpt>
      <trkpt lat="45.95214" lon="4.94376">
        <ele>289</ele>
        <time>2016-11-15T10:26:43Z</time>
      </trkpt>
      <trkpt lat="45.95211" lon="4.94382">
        <ele>289</ele>
        <time>2016-11-15T10:26:44Z</time>
      </trkpt>
      <trkpt lat="45.95208" lon="4.94389">
        <ele>289</ele>
        <time>2016-11-15T10:26:45Z</time>
      </trkpt>
      <trkpt lat="45.95206" lon="4.94395">
        <ele>289</ele>
        <time>2016-11-15T10:26:46Z</time>
      </trkpt>
      <trkpt lat="45.95204" lon="4.94401">
        <ele>289</ele>
        <time>2016-11-15T10:26:47Z</time>
      </trkpt>
      <trkpt lat="45.95201" lon="4.94407">
        <ele>289</ele>
        <time>2016-11-15T10:26:48Z</time>
      </trkpt>
      <trkpt lat="45.95199" lon="4.94414">
        <ele>289</ele>
        <time>2016-11-15T10:26:49Z</time>
      </trkpt>
      <trkpt lat="45.95196" lon="4.9442">
        <ele>290</ele>
        <time>2016-11-15T10:26:50Z</time>
      </trkpt>
      <trkpt lat="45.95194" lon="4.94426">
        <ele>290</ele>
        <time>2016-11-15T10:26:51Z</time>
      </trkpt>
      <trkpt lat="45.95192" lon="4.94433">
        <ele>290</ele>
        <time>2016-11-15T10:26:52Z</time>
      </trkpt>
      <trkpt lat="45.95192" lon="4.94439">
        <ele>290</ele>
        <time>2016-11-15T10:26:53Z</time>
      </trkpt>
      <trkpt lat="45.95191" lon="4.94447">
        <ele>290</ele>
        <time>2016-11-15T10:26:54Z</time>
      </trkpt>
      <trkpt lat="45.9519" lon="4.94454">
        <ele>290</ele>
        <time>2016-11-15T10:26:55Z</time>
      </trkpt>
      <trkpt lat="45.9519" lon="4.94461">
        <ele>289</ele>
        <time>2016-11-15T10:26:56Z</time>
      </trkpt>
      <trkpt lat="45.9519" lon="4.94469">
        <ele>289</ele>
        <time>2016-11-15T10:26:57Z</time>
      </trkpt>
      <trkpt lat="45.95189" lon="4.94477">
        <ele>289</ele>
        <time>2016-11-15T10:26:58Z</time>
      </trkpt>
      <trkpt lat="45.95189" lon="4.94485">
        <ele>289</ele>
        <time>2016-11-15T10:26:59Z</time>
      </trkpt>
      <trkpt lat="45.95189" lon="4.94493">
        <ele>289</ele>
        <time>2016-11-15T10:27:00Z</time>
      </trkpt>
      <trkpt lat="45.95188" lon="4.94501">
        <ele>289</ele>
        <time>2016-11-15T10:27:01Z</time>
      </trkpt>
      <trkpt lat="45.95188" lon="4.94507">
        <ele>289</ele>
        <time>2016-11-15T10:27:02Z</time>
      </trkpt>
      <trkpt lat="45.95187" lon="4.94514">
        <ele>289</ele>
        <time>2016-11-15T10:27:03Z</time>
      </trkpt>
      <trkpt lat="45.95185" lon="4.9452">
        <ele>289</ele>
        <time>2016-11-15T10:27:04Z</time>
      </trkpt>
      <trkpt lat="45.95185" lon="4.94527">
        <ele>289</ele>
        <time>2016-11-15T10:27:05Z</time>
      </trkpt>
      <trkpt lat="45.95184" lon="4.94534">
        <ele>289</ele>
        <time>2016-11-15T10:27:06Z</time>
      </trkpt>
      <trkpt lat="45.95183" lon="4.94542">
        <ele>289</ele>
        <time>2016-11-15T10:27:07Z</time>
      </trkpt>
      <trkpt lat="45.95182" lon="4.94549">
        <ele>289</ele>
        <time>2016-11-15T10:27:08Z</time>
      </trkpt>
      <trkpt lat="45.95182" lon="4.94557">
        <ele>289</ele>
        <time>2016-11-15T10:27:09Z</time>
      </trkpt>
      <trkpt lat="45.95181" lon="4.94565">
        <ele>289</ele>
        <time>2016-11-15T10:27:10Z</time>
      </trkpt>
      <trkpt lat="45.9518" lon="4.94573">
        <ele>289</ele>
        <time>2016-11-15T10:27:11Z</time>
      </trkpt>
      <trkpt lat="45.9518" lon="4.94581">
        <ele>289</ele>
        <time>2016-11-15T10:27:12Z</time>
      </trkpt>
      <trkpt lat="45.95179" lon="4.9459">
        <ele>289</ele>
        <time>2016-11-15T10:27:13Z</time>
      </trkpt>
      <trkpt lat="45.95178" lon="4.94598">
        <ele>289</ele>
        <time>2016-11-15T10:27:14Z</time>
      </trkpt>
      <trkpt lat="45.95177" lon="4.94606">
        <ele>289</ele>
        <time>2016-11-15T10:27:15Z</time>
      </trkpt>
      <trkpt lat="45.95175" lon="4.94614">
        <ele>289</ele>
        <time>2016-11-15T10:27:16Z</time>
      </trkpt>
      <trkpt lat="45.95173" lon="4.94622">
        <ele>289</ele>
        <time>2016-11-15T10:27:17Z</time>
      </trkpt>
      <trkpt lat="45.9517" lon="4.94628">
        <ele>289</ele>
        <time>2016-11-15T10:27:18Z</time>
      </trkpt>
      <trkpt lat="45.95168" lon="4.94634">
        <ele>289</ele>
        <time>2016-11-15T10:27:19Z</time>
      </trkpt>
      <trkpt lat="45.95165" lon="4.9464">
        <ele>290</ele>
        <time>2016-11-15T10:27:20Z</time>
      </trkpt>
      <trkpt lat="45.95163" lon="4.94646">
        <ele>290</ele>
        <time>2016-11-15T10:27:21Z</time>
      </trkpt>
      <trkpt lat="45.95159" lon="4.94651">
        <ele>290</ele>
        <time>2016-11-15T10:27:22Z</time>
      </trkpt>
      <trkpt lat="45.95156" lon="4.94657">
        <ele>290</ele>
        <time>2016-11-15T10:27:23Z</time>
      </trkpt>
      <trkpt lat="45.95153" lon="4.94663">
        <ele>290</ele>
        <time>2016-11-15T10:27:24Z</time>
      </trkpt>
      <trkpt lat="45.9515" lon="4.9467">
        <ele>290</ele>
        <time>2016-11-15T10:27:25Z</time>
      </trkpt>
      <trkpt lat="45.95148" lon="4.94676">
        <ele>290</ele>
        <time>2016-11-15T10:27:26Z</time>
      </trkpt>
      <trkpt lat="45.95148" lon="4.94684">
        <ele>290</ele>
        <time>2016-11-15T10:27:27Z</time>
      </trkpt>
      <trkpt lat="45.95149" lon="4.94691">
        <ele>290</ele>
        <time>2016-11-15T10:27:28Z</time>
      </trkpt>
      <trkpt lat="45.95151" lon="4.94697">
        <ele>290</ele>
        <time>2016-11-15T10:27:29Z</time>
      </trkpt>
      <trkpt lat="45.95155" lon="4.94702">
        <ele>290</ele>
        <time>2016-11-15T10:27:30Z</time>
      </trkpt>
      <trkpt lat="45.95159" lon="4.94707">
        <ele>290</ele>
        <time>2016-11-15T10:27:31Z</time>
      </trkpt>
      <trkpt lat="45.95164" lon="4.94713">
        <ele>290</ele>
        <time>2016-11-15T10:27:32Z</time>
      </trkpt>
      <trkpt lat="45.95168" lon="4.94717">
        <ele>289</ele>
        <time>2016-11-15T10:27:33Z</time>
      </trkpt>
      <trkpt lat="45.95173" lon="4.94723">
        <ele>288</ele>
        <time>2016-11-15T10:27:34Z</time>
      </trkpt>
      <trkpt lat="45.95178" lon="4.94729">
        <ele>288</ele>
        <time>2016-11-15T10:27:35Z</time>
      </trkpt>
      <trkpt lat="45.95182" lon="4.94733">
        <ele>288</ele>
        <time>2016-11-15T10:27:36Z</time>
      </trkpt>
      <trkpt lat="45.95186" lon="4.94738">
        <ele>288</ele>
        <time>2016-11-15T10:27:37Z</time>
      </trkpt>
      <trkpt lat="45.9519" lon="4.94743">
        <ele>288</ele>
        <time>2016-11-15T10:27:38Z</time>
      </trkpt>
      <trkpt lat="45.95195" lon="4.94749">
        <ele>288</ele>
        <time>2016-11-15T10:27:39Z</time>
      </trkpt>
      <trkpt lat="45.95198" lon="4.94755">
        <ele>287</ele>
        <time>2016-11-15T10:27:40Z</time>
      </trkpt>
      <trkpt lat="45.95201" lon="4.94761">
        <ele>287</ele>
        <time>2016-11-15T10:27:41Z</time>
      </trkpt>
      <trkpt lat="45.95202" lon="4.94768">
        <ele>287</ele>
        <time>2016-11-15T10:27:42Z</time>
      </trkpt>
      <trkpt lat="45.95201" lon="4.94775">
        <ele>287</ele>
        <time>2016-11-15T10:27:43Z</time>
      </trkpt>
      <trkpt lat="45.95197" lon="4.94779">
        <ele>287</ele>
        <time>2016-11-15T10:27:44Z</time>
      </trkpt>
      <trkpt lat="45.95192" lon="4.94782">
        <ele>287</ele>
        <time>2016-11-15T10:27:45Z</time>
      </trkpt>
      <trkpt lat="45.95187" lon="4.94784">
        <ele>287</ele>
        <time>2016-11-15T10:27:46Z</time>
      </trkpt>
      <trkpt lat="45.95181" lon="4.94786">
        <ele>287</ele>
        <time>2016-11-15T10:27:47Z</time>
      </trkpt>
      <trkpt lat="45.95176" lon="4.94788">
        <ele>287</ele>
        <time>2016-11-15T10:27:48Z</time>
      </trkpt>
      <trkpt lat="45.9517" lon="4.94791">
        <ele>287</ele>
        <time>2016-11-15T10:27:49Z</time>
      </trkpt>
      <trkpt lat="45.95165" lon="4.94793">
        <ele>289</ele>
        <time>2016-11-15T10:27:50Z</time>
      </trkpt>
      <trkpt lat="45.9516" lon="4.94796">
        <ele>289</ele>
        <time>2016-11-15T10:27:51Z</time>
      </trkpt>
      <trkpt lat="45.95155" lon="4.94798">
        <ele>289</ele>
        <time>2016-11-15T10:27:52Z</time>
      </trkpt>
      <trkpt lat="45.95151" lon="4.94801">
        <ele>289</ele>
        <time>2016-11-15T10:27:53Z</time>
      </trkpt>
      <trkpt lat="45.95146" lon="4.94804">
        <ele>289</ele>
        <time>2016-11-15T10:27:54Z</time>
      </trkpt>
      <trkpt lat="45.95142" lon="4.94806">
        <ele>289</ele>
        <time>2016-11-15T10:27:55Z</time>
      </trkpt>
      <trkpt lat="45.95137" lon="4.94809">
        <ele>289</ele>
        <time>2016-11-15T10:27:56Z</time>
      </trkpt>
      <trkpt lat="45.95132" lon="4.94812">
        <ele>289</ele>
        <time>2016-11-15T10:27:57Z</time>
      </trkpt>
      <trkpt lat="45.95128" lon="4.94815">
        <ele>289</ele>
        <time>2016-11-15T10:27:58Z</time>
      </trkpt>
      <trkpt lat="45.95124" lon="4.94819">
        <ele>289</ele>
        <time>2016-11-15T10:27:59Z</time>
      </trkpt>
      <trkpt lat="45.95119" lon="4.94823">
        <ele>289</ele>
        <time>2016-11-15T10:28:00Z</time>
      </trkpt>
      <trkpt lat="45.95115" lon="4.94827">
        <ele>289</ele>
        <time>2016-11-15T10:28:01Z</time>
      </trkpt>
      <trkpt lat="45.9511" lon="4.94832">
        <ele>289</ele>
        <time>2016-11-15T10:28:02Z</time>
      </trkpt>
      <trkpt lat="45.95105" lon="4.94836">
        <ele>289</ele>
        <time>2016-11-15T10:28:03Z</time>
      </trkpt>
      <trkpt lat="45.951" lon="4.94841">
        <ele>289</ele>
        <time>2016-11-15T10:28:04Z</time>
      </trkpt>
      <trkpt lat="45.95096" lon="4.94845">
        <ele>289</ele>
        <time>2016-11-15T10:28:05Z</time>
      </trkpt>
      <trkpt lat="45.95092" lon="4.9485">
        <ele>289</ele>
        <time>2016-11-15T10:28:06Z</time>
      </trkpt>
      <trkpt lat="45.95089" lon="4.94855">
        <ele>289</ele>
        <time>2016-11-15T10:28:07Z</time>
      </trkpt>
      <trkpt lat="45.95085" lon="4.94859">
        <ele>289</ele>
        <time>2016-11-15T10:28:08Z</time>
      </trkpt>
      <trkpt lat="45.95081" lon="4.94862">
        <ele>289</ele>
        <time>2016-11-15T10:28:09Z</time>
      </trkpt>
      <trkpt lat="45.95074" lon="4.9487">
        <ele>289</ele>
        <time>2016-11-15T10:28:11Z</time>
      </trkpt>
      <trkpt lat="45.95071" lon="4.94874">
        <ele>289</ele>
        <time>2016-11-15T10:28:12Z</time>
      </trkpt>
      <trkpt lat="45.95067" lon="4.94878">
        <ele>289</ele>
        <time>2016-11-15T10:28:13Z</time>
      </trkpt>
      <trkpt lat="45.95064" lon="4.94883">
        <ele>289</ele>
        <time>2016-11-15T10:28:14Z</time>
      </trkpt>
      <trkpt lat="45.9506" lon="4.94887">
        <ele>289</ele>
        <time>2016-11-15T10:28:15Z</time>
      </trkpt>
      <trkpt lat="45.95057" lon="4.94892">
        <ele>289</ele>
        <time>2016-11-15T10:28:16Z</time>
      </trkpt>
      <trkpt lat="45.95053" lon="4.94896">
        <ele>289</ele>
        <time>2016-11-15T10:28:17Z</time>
      </trkpt>
      <trkpt lat="45.9505" lon="4.949">
        <ele>289</ele>
        <time>2016-11-15T10:28:18Z</time>
      </trkpt>
      <trkpt lat="45.95046" lon="4.94906">
        <ele>289</ele>
        <time>2016-11-15T10:28:19Z</time>
      </trkpt>
      <trkpt lat="45.95042" lon="4.9491">
        <ele>289</ele>
        <time>2016-11-15T10:28:20Z</time>
      </trkpt>
      <trkpt lat="45.95038" lon="4.94915">
        <ele>289</ele>
        <time>2016-11-15T10:28:21Z</time>
      </trkpt>
      <trkpt lat="45.95034" lon="4.94919">
        <ele>289</ele>
        <time>2016-11-15T10:28:22Z</time>
      </trkpt>
      <trkpt lat="45.95029" lon="4.94923">
        <ele>289</ele>
        <time>2016-11-15T10:28:23Z</time>
      </trkpt>
      <trkpt lat="45.95025" lon="4.94928">
        <ele>289</ele>
        <time>2016-11-15T10:28:24Z</time>
      </trkpt>
      <trkpt lat="45.95021" lon="4.94932">
        <ele>289</ele>
        <time>2016-11-15T10:28:25Z</time>
      </trkpt>
      <trkpt lat="45.95017" lon="4.94937">
        <ele>289</ele>
        <time>2016-11-15T10:28:26Z</time>
      </trkpt>
      <trkpt lat="45.95013" lon="4.94942">
        <ele>289</ele>
        <time>2016-11-15T10:28:27Z</time>
      </trkpt>
      <trkpt lat="45.95009" lon="4.94946">
        <ele>289</ele>
        <time>2016-11-15T10:28:28Z</time>
      </trkpt>
      <trkpt lat="45.95005" lon="4.94951">
        <ele>289</ele>
        <time>2016-11-15T10:28:29Z</time>
      </trkpt>
      <trkpt lat="45.95002" lon="4.94956">
        <ele>289</ele>
        <time>2016-11-15T10:28:30Z</time>
      </trkpt>
      <trkpt lat="45.94999" lon="4.94961">
        <ele>289</ele>
        <time>2016-11-15T10:28:31Z</time>
      </trkpt>
      <trkpt lat="45.94996" lon="4.94966">
        <ele>289</ele>
        <time>2016-11-15T10:28:32Z</time>
      </trkpt>
      <trkpt lat="45.94993" lon="4.94972">
        <ele>289</ele>
        <time>2016-11-15T10:28:33Z</time>
      </trkpt>
      <trkpt lat="45.94992" lon="4.94979">
        <ele>289</ele>
        <time>2016-11-15T10:28:34Z</time>
      </trkpt>
      <trkpt lat="45.94993" lon="4.94987">
        <ele>289</ele>
        <time>2016-11-15T10:28:35Z</time>
      </trkpt>
      <trkpt lat="45.94994" lon="4.94994">
        <ele>289</ele>
        <time>2016-11-15T10:28:36Z</time>
      </trkpt>
      <trkpt lat="45.94996" lon="4.95001">
        <ele>289</ele>
        <time>2016-11-15T10:28:37Z</time>
      </trkpt>
      <trkpt lat="45.94998" lon="4.95008">
        <ele>289</ele>
        <time>2016-11-15T10:28:38Z</time>
      </trkpt>
      <trkpt lat="45.95" lon="4.95016">
        <ele>289</ele>
        <time>2016-11-15T10:28:39Z</time>
      </trkpt>
      <trkpt lat="45.95001" lon="4.95023">
        <ele>289</ele>
        <time>2016-11-15T10:28:40Z</time>
      </trkpt>
      <trkpt lat="45.95002" lon="4.95032">
        <ele>290</ele>
        <time>2016-11-15T10:28:41Z</time>
      </trkpt>
      <trkpt lat="45.95003" lon="4.9504">
        <ele>290</ele>
        <time>2016-11-15T10:28:42Z</time>
      </trkpt>
      <trkpt lat="45.95004" lon="4.95048">
        <ele>290</ele>
        <time>2016-11-15T10:28:43Z</time>
      </trkpt>
      <trkpt lat="45.95004" lon="4.95056">
        <ele>290</ele>
        <time>2016-11-15T10:28:44Z</time>
      </trkpt>
      <trkpt lat="45.95004" lon="4.95064">
        <ele>290</ele>
        <time>2016-11-15T10:28:45Z</time>
      </trkpt>
      <trkpt lat="45.95004" lon="4.95072">
        <ele>290</ele>
        <time>2016-11-15T10:28:46Z</time>
      </trkpt>
      <trkpt lat="45.95004" lon="4.9508">
        <ele>290</ele>
        <time>2016-11-15T10:28:47Z</time>
      </trkpt>
      <trkpt lat="45.95004" lon="4.95088">
        <ele>290</ele>
        <time>2016-11-15T10:28:48Z</time>
      </trkpt>
      <trkpt lat="45.95004" lon="4.95097">
        <ele>290</ele>
        <time>2016-11-15T10:28:49Z</time>
      </trkpt>
      <trkpt lat="45.95005" lon="4.95105">
        <ele>290</ele>
        <time>2016-11-15T10:28:50Z</time>
      </trkpt>
      <trkpt lat="45.95004" lon="4.95113">
        <ele>290</ele>
        <time>2016-11-15T10:28:51Z</time>
      </trkpt>
      <trkpt lat="45.95003" lon="4.9512">
        <ele>290</ele>
        <time>2016-11-15T10:28:52Z</time>
      </trkpt>
      <trkpt lat="45.95002" lon="4.95128">
        <ele>290</ele>
        <time>2016-11-15T10:28:53Z</time>
      </trkpt>
      <trkpt lat="45.95002" lon="4.95135">
        <ele>290</ele>
        <time>2016-11-15T10:28:54Z</time>
      </trkpt>
      <trkpt lat="45.95001" lon="4.95142">
        <ele>290</ele>
        <time>2016-11-15T10:28:55Z</time>
      </trkpt>
      <trkpt lat="45.95001" lon="4.95149">
        <ele>290</ele>
        <time>2016-11-15T10:28:56Z</time>
      </trkpt>
      <trkpt lat="45.95" lon="4.95157">
        <ele>290</ele>
        <time>2016-11-15T10:28:57Z</time>
      </trkpt>
      <trkpt lat="45.95" lon="4.95164">
        <ele>290</ele>
        <time>2016-11-15T10:28:58Z</time>
      </trkpt>
      <trkpt lat="45.95" lon="4.95172">
        <ele>290</ele>
        <time>2016-11-15T10:28:59Z</time>
      </trkpt>
      <trkpt lat="45.95" lon="4.95179">
        <ele>290</ele>
        <time>2016-11-15T10:29:00Z</time>
      </trkpt>
      <trkpt lat="45.95001" lon="4.95185">
        <ele>290</ele>
        <time>2016-11-15T10:29:01Z</time>
      </trkpt>
      <trkpt lat="45.95001" lon="4.95192">
        <ele>290</ele>
        <time>2016-11-15T10:29:02Z</time>
      </trkpt>
      <trkpt lat="45.95002" lon="4.95199">
        <ele>290</ele>
        <time>2016-11-15T10:29:03Z</time>
      </trkpt>
      <trkpt lat="45.95002" lon="4.95206">
        <ele>290</ele>
        <time>2016-11-15T10:29:04Z</time>
      </trkpt>
      <trkpt lat="45.95004" lon="4.95213">
        <ele>290</ele>
        <time>2016-11-15T10:29:05Z</time>
      </trkpt>
      <trkpt lat="45.95005" lon="4.95219">
        <ele>290</ele>
        <time>2016-11-15T10:29:06Z</time>
      </trkpt>
      <trkpt lat="45.95006" lon="4.95225">
        <ele>290</ele>
        <time>2016-11-15T10:29:07Z</time>
      </trkpt>
      <trkpt lat="45.95007" lon="4.95231">
        <ele>290</ele>
        <time>2016-11-15T10:29:08Z</time>
      </trkpt>
      <trkpt lat="45.95009" lon="4.95244">
        <ele>290</ele>
        <time>2016-11-15T10:29:10Z</time>
      </trkpt>
      <trkpt lat="45.9501" lon="4.9525">
        <ele>290</ele>
        <time>2016-11-15T10:29:11Z</time>
      </trkpt>
      <trkpt lat="45.95012" lon="4.95263">
        <ele>289</ele>
        <time>2016-11-15T10:29:13Z</time>
      </trkpt>
      <trkpt lat="45.95013" lon="4.95269">
        <ele>289</ele>
        <time>2016-11-15T10:29:14Z</time>
      </trkpt>
      <trkpt lat="45.95012" lon="4.95276">
        <ele>289</ele>
        <time>2016-11-15T10:29:15Z</time>
      </trkpt>
      <trkpt lat="45.95012" lon="4.95283">
        <ele>289</ele>
        <time>2016-11-15T10:29:16Z</time>
      </trkpt>
      <trkpt lat="45.95012" lon="4.95291">
        <ele>289</ele>
        <time>2016-11-15T10:29:17Z</time>
      </trkpt>
      <trkpt lat="45.95013" lon="4.95298">
        <ele>289</ele>
        <time>2016-11-15T10:29:18Z</time>
      </trkpt>
      <trkpt lat="45.95013" lon="4.95305">
        <ele>289</ele>
        <time>2016-11-15T10:29:19Z</time>
      </trkpt>
      <trkpt lat="45.95014" lon="4.95312">
        <ele>289</ele>
        <time>2016-11-15T10:29:20Z</time>
      </trkpt>
      <trkpt lat="45.95013" lon="4.95319">
        <ele>289</ele>
        <time>2016-11-15T10:29:21Z</time>
      </trkpt>
      <trkpt lat="45.95014" lon="4.95326">
        <ele>289</ele>
        <time>2016-11-15T10:29:22Z</time>
      </trkpt>
      <trkpt lat="45.95015" lon="4.95334">
        <ele>289</ele>
        <time>2016-11-15T10:29:23Z</time>
      </trkpt>
      <trkpt lat="45.95016" lon="4.95342">
        <ele>289</ele>
        <time>2016-11-15T10:29:24Z</time>
      </trkpt>
      <trkpt lat="45.95016" lon="4.95349">
        <ele>289</ele>
        <time>2016-11-15T10:29:25Z</time>
      </trkpt>
      <trkpt lat="45.95016" lon="4.95356">
        <ele>289</ele>
        <time>2016-11-15T10:29:26Z</time>
      </trkpt>
      <trkpt lat="45.95017" lon="4.95369">
        <ele>288</ele>
        <time>2016-11-15T10:29:28Z</time>
      </trkpt>
      <trkpt lat="45.95017" lon="4.95376">
        <ele>288</ele>
        <time>2016-11-15T10:29:29Z</time>
      </trkpt>
      <trkpt lat="45.95017" lon="4.95384">
        <ele>288</ele>
        <time>2016-11-15T10:29:30Z</time>
      </trkpt>
      <trkpt lat="45.95017" lon="4.95392">
        <ele>288</ele>
        <time>2016-11-15T10:29:31Z</time>
      </trkpt>
      <trkpt lat="45.95016" lon="4.954">
        <ele>288</ele>
        <time>2016-11-15T10:29:32Z</time>
      </trkpt>
      <trkpt lat="45.95016" lon="4.95409">
        <ele>288</ele>
        <time>2016-11-15T10:29:33Z</time>
      </trkpt>
      <trkpt lat="45.95016" lon="4.95417">
        <ele>288</ele>
        <time>2016-11-15T10:29:34Z</time>
      </trkpt>
      <trkpt lat="45.95014" lon="4.95426">
        <ele>288</ele>
        <time>2016-11-15T10:29:35Z</time>
      </trkpt>
      <trkpt lat="45.95013" lon="4.95434">
        <ele>288</ele>
        <time>2016-11-15T10:29:36Z</time>
      </trkpt>
      <trkpt lat="45.95012" lon="4.95443">
        <ele>288</ele>
        <time>2016-11-15T10:29:37Z</time>
      </trkpt>
      <trkpt lat="45.95011" lon="4.95452">
        <ele>288</ele>
        <time>2016-11-15T10:29:38Z</time>
      </trkpt>
      <trkpt lat="45.95011" lon="4.9546">
        <ele>288</ele>
        <time>2016-11-15T10:29:39Z</time>
      </trkpt>
      <trkpt lat="45.95011" lon="4.95469">
        <ele>288</ele>
        <time>2016-11-15T10:29:40Z</time>
      </trkpt>
      <trkpt lat="45.95011" lon="4.95478">
        <ele>288</ele>
        <time>2016-11-15T10:29:41Z</time>
      </trkpt>
      <trkpt lat="45.95011" lon="4.95487">
        <ele>288</ele>
        <time>2016-11-15T10:29:42Z</time>
      </trkpt>
      <trkpt lat="45.95012" lon="4.95495">
        <ele>288</ele>
        <time>2016-11-15T10:29:43Z</time>
      </trkpt>
      <trkpt lat="45.95013" lon="4.95504">
        <ele>287</ele>
        <time>2016-11-15T10:29:44Z</time>
      </trkpt>
      <trkpt lat="45.95014" lon="4.95513">
        <ele>287</ele>
        <time>2016-11-15T10:29:45Z</time>
      </trkpt>
      <trkpt lat="45.95015" lon="4.95521">
        <ele>287</ele>
        <time>2016-11-15T10:29:46Z</time>
      </trkpt>
      <trkpt lat="45.95017" lon="4.9553">
        <ele>287</ele>
        <time>2016-11-15T10:29:47Z</time>
      </trkpt>
      <trkpt lat="45.95018" lon="4.95538">
        <ele>287</ele>
        <time>2016-11-15T10:29:48Z</time>
      </trkpt>
      <trkpt lat="45.9502" lon="4.95546">
        <ele>287</ele>
        <time>2016-11-15T10:29:49Z</time>
      </trkpt>
      <trkpt lat="45.95022" lon="4.95553">
        <ele>287</ele>
        <time>2016-11-15T10:29:50Z</time>
      </trkpt>
      <trkpt lat="45.95024" lon="4.95562">
        <ele>287</ele>
        <time>2016-11-15T10:29:51Z</time>
      </trkpt>
      <trkpt lat="45.95026" lon="4.95569">
        <ele>287</ele>
        <time>2016-11-15T10:29:52Z</time>
      </trkpt>
      <trkpt lat="45.95028" lon="4.95576">
        <ele>286</ele>
        <time>2016-11-15T10:29:53Z</time>
      </trkpt>
      <trkpt lat="45.95031" lon="4.95584">
        <ele>286</ele>
        <time>2016-11-15T10:29:54Z</time>
      </trkpt>
      <trkpt lat="45.95035" lon="4.95592">
        <ele>286</ele>
        <time>2016-11-15T10:29:55Z</time>
      </trkpt>
      <trkpt lat="45.95038" lon="4.956">
        <ele>286</ele>
        <time>2016-11-15T10:29:56Z</time>
      </trkpt>
      <trkpt lat="45.95041" lon="4.95608">
        <ele>286</ele>
        <time>2016-11-15T10:29:57Z</time>
      </trkpt>
      <trkpt lat="45.95044" lon="4.95617">
        <ele>286</ele>
        <time>2016-11-15T10:29:58Z</time>
      </trkpt>
      <trkpt lat="45.95047" lon="4.95625">
        <ele>286</ele>
        <time>2016-11-15T10:29:59Z</time>
      </trkpt>
      <trkpt lat="45.9505" lon="4.95633">
        <ele>286</ele>
        <time>2016-11-15T10:30:00Z</time>
      </trkpt>
      <trkpt lat="45.95053" lon="4.9564">
        <ele>286</ele>
        <time>2016-11-15T10:30:01Z</time>
      </trkpt>
      <trkpt lat="45.95055" lon="4.95649">
        <ele>286</ele>
        <time>2016-11-15T10:30:02Z</time>
      </trkpt>
      <trkpt lat="45.95058" lon="4.95656">
        <ele>286</ele>
        <time>2016-11-15T10:30:03Z</time>
      </trkpt>
      <trkpt lat="45.95061" lon="4.95664">
        <ele>286</ele>
        <time>2016-11-15T10:30:04Z</time>
      </trkpt>
      <trkpt lat="45.95064" lon="4.95672">
        <ele>286</ele>
        <time>2016-11-15T10:30:05Z</time>
      </trkpt>
      <trkpt lat="45.95067" lon="4.95681">
        <ele>286</ele>
        <time>2016-11-15T10:30:06Z</time>
      </trkpt>
      <trkpt lat="45.9507" lon="4.95689">
        <ele>286</ele>
        <time>2016-11-15T10:30:07Z</time>
      </trkpt>
      <trkpt lat="45.95073" lon="4.95698">
        <ele>286</ele>
        <time>2016-11-15T10:30:08Z</time>
      </trkpt>
      <trkpt lat="45.95076" lon="4.95707">
        <ele>286</ele>
        <time>2016-11-15T10:30:09Z</time>
      </trkpt>
      <trkpt lat="45.95079" lon="4.95716">
        <ele>286</ele>
        <time>2016-11-15T10:30:10Z</time>
      </trkpt>
      <trkpt lat="45.95082" lon="4.95724">
        <ele>286</ele>
        <time>2016-11-15T10:30:11Z</time>
      </trkpt>
      <trkpt lat="45.95084" lon="4.95732">
        <ele>285</ele>
        <time>2016-11-15T10:30:12Z</time>
      </trkpt>
      <trkpt lat="45.95086" lon="4.9574">
        <ele>285</ele>
        <time>2016-11-15T10:30:13Z</time>
      </trkpt>
      <trkpt lat="45.95089" lon="4.95747">
        <ele>286</ele>
        <time>2016-11-15T10:30:14Z</time>
      </trkpt>
      <trkpt lat="45.95091" lon="4.95755">
        <ele>286</ele>
        <time>2016-11-15T10:30:15Z</time>
      </trkpt>
      <trkpt lat="45.95093" lon="4.95762">
        <ele>285</ele>
        <time>2016-11-15T10:30:16Z</time>
      </trkpt>
      <trkpt lat="45.95096" lon="4.95769">
        <ele>285</ele>
        <time>2016-11-15T10:30:17Z</time>
      </trkpt>
      <trkpt lat="45.95098" lon="4.95777">
        <ele>285</ele>
        <time>2016-11-15T10:30:18Z</time>
      </trkpt>
      <trkpt lat="45.951" lon="4.95786">
        <ele>285</ele>
        <time>2016-11-15T10:30:19Z</time>
      </trkpt>
      <trkpt lat="45.95101" lon="4.95794">
        <ele>285</ele>
        <time>2016-11-15T10:30:20Z</time>
      </trkpt>
      <trkpt lat="45.95104" lon="4.95802">
        <ele>285</ele>
        <time>2016-11-15T10:30:21Z</time>
      </trkpt>
      <trkpt lat="45.95106" lon="4.9581">
        <ele>285</ele>
        <time>2016-11-15T10:30:22Z</time>
      </trkpt>
      <trkpt lat="45.95109" lon="4.95819">
        <ele>285</ele>
        <time>2016-11-15T10:30:23Z</time>
      </trkpt>
      <trkpt lat="45.9511" lon="4.95827">
        <ele>285</ele>
        <time>2016-11-15T10:30:24Z</time>
      </trkpt>
      <trkpt lat="45.95112" lon="4.95835">
        <ele>285</ele>
        <time>2016-11-15T10:30:25Z</time>
      </trkpt>
      <trkpt lat="45.95114" lon="4.95843">
        <ele>285</ele>
        <time>2016-11-15T10:30:26Z</time>
      </trkpt>
      <trkpt lat="45.95115" lon="4.95851">
        <ele>285</ele>
        <time>2016-11-15T10:30:27Z</time>
      </trkpt>
      <trkpt lat="45.95116" lon="4.95858">
        <ele>285</ele>
        <time>2016-11-15T10:30:28Z</time>
      </trkpt>
      <trkpt lat="45.95118" lon="4.95866">
        <ele>285</ele>
        <time>2016-11-15T10:30:29Z</time>
      </trkpt>
      <trkpt lat="45.95119" lon="4.95873">
        <ele>285</ele>
        <time>2016-11-15T10:30:30Z</time>
      </trkpt>
      <trkpt lat="45.9512" lon="4.9588">
        <ele>285</ele>
        <time>2016-11-15T10:30:31Z</time>
      </trkpt>
      <trkpt lat="45.95121" lon="4.95887">
        <ele>285</ele>
        <time>2016-11-15T10:30:32Z</time>
      </trkpt>
      <trkpt lat="45.95122" lon="4.95895">
        <ele>285</ele>
        <time>2016-11-15T10:30:33Z</time>
      </trkpt>
      <trkpt lat="45.95124" lon="4.95902">
        <ele>285</ele>
        <time>2016-11-15T10:30:34Z</time>
      </trkpt>
      <trkpt lat="45.95125" lon="4.95909">
        <ele>284</ele>
        <time>2016-11-15T10:30:35Z</time>
      </trkpt>
      <trkpt lat="45.95127" lon="4.95916">
        <ele>284</ele>
        <time>2016-11-15T10:30:36Z</time>
      </trkpt>
      <trkpt lat="45.95128" lon="4.95923">
        <ele>284</ele>
        <time>2016-11-15T10:30:37Z</time>
      </trkpt>
      <trkpt lat="45.9513" lon="4.9593">
        <ele>284</ele>
        <time>2016-11-15T10:30:38Z</time>
      </trkpt>
      <trkpt lat="45.95132" lon="4.95937">
        <ele>284</ele>
        <time>2016-11-15T10:30:39Z</time>
      </trkpt>
      <trkpt lat="45.95134" lon="4.95944">
        <ele>284</ele>
        <time>2016-11-15T10:30:40Z</time>
      </trkpt>
      <trkpt lat="45.95135" lon="4.95951">
        <ele>284</ele>
        <time>2016-11-15T10:30:41Z</time>
      </trkpt>
      <trkpt lat="45.95137" lon="4.95958">
        <ele>284</ele>
        <time>2016-11-15T10:30:42Z</time>
      </trkpt>
      <trkpt lat="45.95138" lon="4.95965">
        <ele>285</ele>
        <time>2016-11-15T10:30:43Z</time>
      </trkpt>
      <trkpt lat="45.9514" lon="4.95973">
        <ele>285</ele>
        <time>2016-11-15T10:30:44Z</time>
      </trkpt>
      <trkpt lat="45.95142" lon="4.9598">
        <ele>285</ele>
        <time>2016-11-15T10:30:45Z</time>
      </trkpt>
      <trkpt lat="45.95143" lon="4.95988">
        <ele>285</ele>
        <time>2016-11-15T10:30:46Z</time>
      </trkpt>
      <trkpt lat="45.95145" lon="4.95995">
        <ele>285</ele>
        <time>2016-11-15T10:30:47Z</time>
      </trkpt>
      <trkpt lat="45.95146" lon="4.96002">
        <ele>285</ele>
        <time>2016-11-15T10:30:48Z</time>
      </trkpt>
      <trkpt lat="45.95148" lon="4.96009">
        <ele>285</ele>
        <time>2016-11-15T10:30:49Z</time>
      </trkpt>
      <trkpt lat="45.9515" lon="4.96017">
        <ele>285</ele>
        <time>2016-11-15T10:30:50Z</time>
      </trkpt>
      <trkpt lat="45.95151" lon="4.96024">
        <ele>285</ele>
        <time>2016-11-15T10:30:51Z</time>
      </trkpt>
      <trkpt lat="45.95152" lon="4.9603">
        <ele>285</ele>
        <time>2016-11-15T10:30:52Z</time>
      </trkpt>
      <trkpt lat="45.95154" lon="4.96037">
        <ele>285</ele>
        <time>2016-11-15T10:30:53Z</time>
      </trkpt>
      <trkpt lat="45.95157" lon="4.96049">
        <ele>285</ele>
        <time>2016-11-15T10:30:55Z</time>
      </trkpt>
      <trkpt lat="45.95158" lon="4.96055">
        <ele>285</ele>
        <time>2016-11-15T10:30:56Z</time>
      </trkpt>
      <trkpt lat="45.9516" lon="4.96066">
        <ele>285</ele>
        <time>2016-11-15T10:30:58Z</time>
      </trkpt>
      <trkpt lat="45.95161" lon="4.96072">
        <ele>286</ele>
        <time>2016-11-15T10:30:59Z</time>
      </trkpt>
      <trkpt lat="45.95162" lon="4.96079">
        <ele>286</ele>
        <time>2016-11-15T10:31:00Z</time>
      </trkpt>
      <trkpt lat="45.95163" lon="4.96085">
        <ele>286</ele>
        <time>2016-11-15T10:31:01Z</time>
      </trkpt>
      <trkpt lat="45.95164" lon="4.96098">
        <ele>286</ele>
        <time>2016-11-15T10:31:03Z</time>
      </trkpt>
      <trkpt lat="45.95164" lon="4.96104">
        <ele>286</ele>
        <time>2016-11-15T10:31:04Z</time>
      </trkpt>
      <trkpt lat="45.95164" lon="4.96111">
        <ele>286</ele>
        <time>2016-11-15T10:31:05Z</time>
      </trkpt>
      <trkpt lat="45.95163" lon="4.96118">
        <ele>286</ele>
        <time>2016-11-15T10:31:06Z</time>
      </trkpt>
      <trkpt lat="45.95161" lon="4.96129">
        <ele>286</ele>
        <time>2016-11-15T10:31:08Z</time>
      </trkpt>
      <trkpt lat="45.95161" lon="4.96135">
        <ele>286</ele>
        <time>2016-11-15T10:31:09Z</time>
      </trkpt>
      <trkpt lat="45.9516" lon="4.96142">
        <ele>286</ele>
        <time>2016-11-15T10:31:10Z</time>
      </trkpt>
      <trkpt lat="45.9516" lon="4.96149">
        <ele>286</ele>
        <time>2016-11-15T10:31:11Z</time>
      </trkpt>
      <trkpt lat="45.9516" lon="4.96156">
        <ele>286</ele>
        <time>2016-11-15T10:31:12Z</time>
      </trkpt>
      <trkpt lat="45.9516" lon="4.96162">
        <ele>286</ele>
        <time>2016-11-15T10:31:13Z</time>
      </trkpt>
      <trkpt lat="45.9516" lon="4.96169">
        <ele>286</ele>
        <time>2016-11-15T10:31:14Z</time>
      </trkpt>
      <trkpt lat="45.9516" lon="4.96175">
        <ele>286</ele>
        <time>2016-11-15T10:31:15Z</time>
      </trkpt>
      <trkpt lat="45.9516" lon="4.96182">
        <ele>286</ele>
        <time>2016-11-15T10:31:16Z</time>
      </trkpt>
      <trkpt lat="45.9516" lon="4.96188">
        <ele>286</ele>
        <time>2016-11-15T10:31:17Z</time>
      </trkpt>
      <trkpt lat="45.95159" lon="4.96195">
        <ele>286</ele>
        <time>2016-11-15T10:31:18Z</time>
      </trkpt>
      <trkpt lat="45.95159" lon="4.96201">
        <ele>286</ele>
        <time>2016-11-15T10:31:19Z</time>
      </trkpt>
      <trkpt lat="45.9516" lon="4.96208">
        <ele>286</ele>
        <time>2016-11-15T10:31:20Z</time>
      </trkpt>
      <trkpt lat="45.9516" lon="4.96215">
        <ele>285</ele>
        <time>2016-11-15T10:31:21Z</time>
      </trkpt>
      <trkpt lat="45.95158" lon="4.96228">
        <ele>286</ele>
        <time>2016-11-15T10:31:23Z</time>
      </trkpt>
      <trkpt lat="45.95158" lon="4.96233">
        <ele>286</ele>
        <time>2016-11-15T10:31:24Z</time>
      </trkpt>
      <trkpt lat="45.95157" lon="4.96244">
        <ele>286</ele>
        <time>2016-11-15T10:31:26Z</time>
      </trkpt>
      <trkpt lat="45.95156" lon="4.96248">
        <ele>286</ele>
        <time>2016-11-15T10:31:27Z</time>
      </trkpt>
      <trkpt lat="45.95153" lon="4.96258">
        <ele>285</ele>
        <time>2016-11-15T10:31:29Z</time>
      </trkpt>
      <trkpt lat="45.95151" lon="4.96264">
        <ele>285</ele>
        <time>2016-11-15T10:31:30Z</time>
      </trkpt>
      <trkpt lat="45.9515" lon="4.9627">
        <ele>285</ele>
        <time>2016-11-15T10:31:31Z</time>
      </trkpt>
      <trkpt lat="45.95148" lon="4.96276">
        <ele>285</ele>
        <time>2016-11-15T10:31:32Z</time>
      </trkpt>
      <trkpt lat="45.95145" lon="4.96287">
        <ele>285</ele>
        <time>2016-11-15T10:31:34Z</time>
      </trkpt>
      <trkpt lat="45.95143" lon="4.96293">
        <ele>285</ele>
        <time>2016-11-15T10:31:35Z</time>
      </trkpt>
      <trkpt lat="45.95139" lon="4.96303">
        <ele>285</ele>
        <time>2016-11-15T10:31:37Z</time>
      </trkpt>
      <trkpt lat="45.95136" lon="4.96307">
        <ele>285</ele>
        <time>2016-11-15T10:31:38Z</time>
      </trkpt>
      <trkpt lat="45.95134" lon="4.96313">
        <ele>285</ele>
        <time>2016-11-15T10:31:39Z</time>
      </trkpt>
      <trkpt lat="45.95132" lon="4.96319">
        <ele>285</ele>
        <time>2016-11-15T10:31:40Z</time>
      </trkpt>
      <trkpt lat="45.9513" lon="4.96325">
        <ele>285</ele>
        <time>2016-11-15T10:31:41Z</time>
      </trkpt>
      <trkpt lat="45.95128" lon="4.96331">
        <ele>285</ele>
        <time>2016-11-15T10:31:42Z</time>
      </trkpt>
      <trkpt lat="45.95126" lon="4.96337">
        <ele>286</ele>
        <time>2016-11-15T10:31:43Z</time>
      </trkpt>
      <trkpt lat="45.95124" lon="4.96343">
        <ele>286</ele>
        <time>2016-11-15T10:31:44Z</time>
      </trkpt>
      <trkpt lat="45.95122" lon="4.96349">
        <ele>286</ele>
        <time>2016-11-15T10:31:45Z</time>
      </trkpt>
      <trkpt lat="45.9512" lon="4.96355">
        <ele>286</ele>
        <time>2016-11-15T10:31:46Z</time>
      </trkpt>
      <trkpt lat="45.95118" lon="4.96361">
        <ele>286</ele>
        <time>2016-11-15T10:31:47Z</time>
      </trkpt>
      <trkpt lat="45.95116" lon="4.96367">
        <ele>286</ele>
        <time>2016-11-15T10:31:48Z</time>
      </trkpt>
      <trkpt lat="45.95114" lon="4.96374">
        <ele>286</ele>
        <time>2016-11-15T10:31:49Z</time>
      </trkpt>
      <trkpt lat="45.95111" lon="4.96379">
        <ele>286</ele>
        <time>2016-11-15T10:31:50Z</time>
      </trkpt>
      <trkpt lat="45.95109" lon="4.96385">
        <ele>286</ele>
        <time>2016-11-15T10:31:51Z</time>
      </trkpt>
      <trkpt lat="45.95107" lon="4.96391">
        <ele>286</ele>
        <time>2016-11-15T10:31:52Z</time>
      </trkpt>
      <trkpt lat="45.95104" lon="4.96397">
        <ele>286</ele>
        <time>2016-11-15T10:31:53Z</time>
      </trkpt>
      <trkpt lat="45.95102" lon="4.96402">
        <ele>286</ele>
        <time>2016-11-15T10:31:54Z</time>
      </trkpt>
      <trkpt lat="45.95098" lon="4.96414">
        <ele>286</ele>
        <time>2016-11-15T10:31:56Z</time>
      </trkpt>
      <trkpt lat="45.95096" lon="4.96419">
        <ele>286</ele>
        <time>2016-11-15T10:31:57Z</time>
      </trkpt>
      <trkpt lat="45.95092" lon="4.9643">
        <ele>286</ele>
        <time>2016-11-15T10:31:59Z</time>
      </trkpt>
      <trkpt lat="45.9509" lon="4.96436">
        <ele>286</ele>
        <time>2016-11-15T10:32:00Z</time>
      </trkpt>
      <trkpt lat="45.95089" lon="4.96442">
        <ele>287</ele>
        <time>2016-11-15T10:32:01Z</time>
      </trkpt>
      <trkpt lat="45.95088" lon="4.96449">
        <ele>287</ele>
        <time>2016-11-15T10:32:02Z</time>
      </trkpt>
      <trkpt lat="45.95086" lon="4.96455">
        <ele>287</ele>
        <time>2016-11-15T10:32:03Z</time>
      </trkpt>
      <trkpt lat="45.95084" lon="4.96462">
        <ele>287</ele>
        <time>2016-11-15T10:32:04Z</time>
      </trkpt>
      <trkpt lat="45.95082" lon="4.96469">
        <ele>287</ele>
        <time>2016-11-15T10:32:05Z</time>
      </trkpt>
      <trkpt lat="45.95079" lon="4.96476">
        <ele>287</ele>
        <time>2016-11-15T10:32:06Z</time>
      </trkpt>
      <trkpt lat="45.95077" lon="4.96482">
        <ele>287</ele>
        <time>2016-11-15T10:32:07Z</time>
      </trkpt>
      <trkpt lat="45.95075" lon="4.9649">
        <ele>287</ele>
        <time>2016-11-15T10:32:08Z</time>
      </trkpt>
      <trkpt lat="45.95073" lon="4.96498">
        <ele>287</ele>
        <time>2016-11-15T10:32:09Z</time>
      </trkpt>
      <trkpt lat="45.95072" lon="4.96504">
        <ele>288</ele>
        <time>2016-11-15T10:32:10Z</time>
      </trkpt>
      <trkpt lat="45.95069" lon="4.96511">
        <ele>288</ele>
        <time>2016-11-15T10:32:11Z</time>
      </trkpt>
      <trkpt lat="45.95067" lon="4.96517">
        <ele>288</ele>
        <time>2016-11-15T10:32:12Z</time>
      </trkpt>
      <trkpt lat="45.95065" lon="4.96523">
        <ele>287</ele>
        <time>2016-11-15T10:32:13Z</time>
      </trkpt>
      <trkpt lat="45.95063" lon="4.96529">
        <ele>287</ele>
        <time>2016-11-15T10:32:14Z</time>
      </trkpt>
      <trkpt lat="45.95061" lon="4.96535">
        <ele>287</ele>
        <time>2016-11-15T10:32:15Z</time>
      </trkpt>
      <trkpt lat="45.95059" lon="4.96541">
        <ele>287</ele>
        <time>2016-11-15T10:32:16Z</time>
      </trkpt>
      <trkpt lat="45.95057" lon="4.96547">
        <ele>287</ele>
        <time>2016-11-15T10:32:17Z</time>
      </trkpt>
      <trkpt lat="45.95055" lon="4.96553">
        <ele>287</ele>
        <time>2016-11-15T10:32:18Z</time>
      </trkpt>
      <trkpt lat="45.95053" lon="4.9656">
        <ele>287</ele>
        <time>2016-11-15T10:32:19Z</time>
      </trkpt>
      <trkpt lat="45.95051" lon="4.96567">
        <ele>287</ele>
        <time>2016-11-15T10:32:20Z</time>
      </trkpt>
      <trkpt lat="45.95049" lon="4.96574">
        <ele>287</ele>
        <time>2016-11-15T10:32:21Z</time>
      </trkpt>
      <trkpt lat="45.95048" lon="4.96582">
        <ele>287</ele>
        <time>2016-11-15T10:32:22Z</time>
      </trkpt>
      <trkpt lat="45.95047" lon="4.96589">
        <ele>288</ele>
        <time>2016-11-15T10:32:23Z</time>
      </trkpt>
      <trkpt lat="45.95046" lon="4.96596">
        <ele>288</ele>
        <time>2016-11-15T10:32:24Z</time>
      </trkpt>
      <trkpt lat="45.95046" lon="4.96603">
        <ele>288</ele>
        <time>2016-11-15T10:32:25Z</time>
      </trkpt>
      <trkpt lat="45.95045" lon="4.9661">
        <ele>288</ele>
        <time>2016-11-15T10:32:26Z</time>
      </trkpt>
      <trkpt lat="45.95044" lon="4.96617">
        <ele>288</ele>
        <time>2016-11-15T10:32:27Z</time>
      </trkpt>
      <trkpt lat="45.95044" lon="4.96623">
        <ele>288</ele>
        <time>2016-11-15T10:32:28Z</time>
      </trkpt>
      <trkpt lat="45.95043" lon="4.96631">
        <ele>287</ele>
        <time>2016-11-15T10:32:29Z</time>
      </trkpt>
      <trkpt lat="45.95043" lon="4.96637">
        <ele>287</ele>
        <time>2016-11-15T10:32:30Z</time>
      </trkpt>
      <trkpt lat="45.95043" lon="4.9665">
        <ele>287</ele>
        <time>2016-11-15T10:32:32Z</time>
      </trkpt>
      <trkpt lat="45.95043" lon="4.96656">
        <ele>287</ele>
        <time>2016-11-15T10:32:33Z</time>
      </trkpt>
      <trkpt lat="45.95042" lon="4.96663">
        <ele>287</ele>
        <time>2016-11-15T10:32:34Z</time>
      </trkpt>
      <trkpt lat="45.95042" lon="4.9667">
        <ele>287</ele>
        <time>2016-11-15T10:32:35Z</time>
      </trkpt>
      <trkpt lat="45.95042" lon="4.96677">
        <ele>287</ele>
        <time>2016-11-15T10:32:36Z</time>
      </trkpt>
      <trkpt lat="45.95041" lon="4.96683">
        <ele>287</ele>
        <time>2016-11-15T10:32:37Z</time>
      </trkpt>
      <trkpt lat="45.95041" lon="4.96691">
        <ele>287</ele>
        <time>2016-11-15T10:32:38Z</time>
      </trkpt>
      <trkpt lat="45.9504" lon="4.96697">
        <ele>287</ele>
        <time>2016-11-15T10:32:39Z</time>
      </trkpt>
      <trkpt lat="45.9504" lon="4.96704">
        <ele>287</ele>
        <time>2016-11-15T10:32:40Z</time>
      </trkpt>
      <trkpt lat="45.95041" lon="4.96711">
        <ele>287</ele>
        <time>2016-11-15T10:32:41Z</time>
      </trkpt>
      <trkpt lat="45.95041" lon="4.96719">
        <ele>287</ele>
        <time>2016-11-15T10:32:42Z</time>
      </trkpt>
      <trkpt lat="45.95042" lon="4.96727">
        <ele>287</ele>
        <time>2016-11-15T10:32:43Z</time>
      </trkpt>
      <trkpt lat="45.95043" lon="4.96734">
        <ele>287</ele>
        <time>2016-11-15T10:32:44Z</time>
      </trkpt>
      <trkpt lat="45.95043" lon="4.96742">
        <ele>287</ele>
        <time>2016-11-15T10:32:45Z</time>
      </trkpt>
      <trkpt lat="45.95043" lon="4.96749">
        <ele>287</ele>
        <time>2016-11-15T10:32:46Z</time>
      </trkpt>
      <trkpt lat="45.95044" lon="4.96756">
        <ele>287</ele>
        <time>2016-11-15T10:32:47Z</time>
      </trkpt>
      <trkpt lat="45.95044" lon="4.96764">
        <ele>287</ele>
        <time>2016-11-15T10:32:48Z</time>
      </trkpt>
      <trkpt lat="45.95044" lon="4.96771">
        <ele>287</ele>
        <time>2016-11-15T10:32:49Z</time>
      </trkpt>
      <trkpt lat="45.95045" lon="4.96778">
        <ele>287</ele>
        <time>2016-11-15T10:32:50Z</time>
      </trkpt>
      <trkpt lat="45.95045" lon="4.96784">
        <ele>287</ele>
        <time>2016-11-15T10:32:51Z</time>
      </trkpt>
      <trkpt lat="45.95045" lon="4.96791">
        <ele>286</ele>
        <time>2016-11-15T10:32:52Z</time>
      </trkpt>
      <trkpt lat="45.95045" lon="4.96798">
        <ele>286</ele>
        <time>2016-11-15T10:32:53Z</time>
      </trkpt>
      <trkpt lat="45.95045" lon="4.96805">
        <ele>286</ele>
        <time>2016-11-15T10:32:54Z</time>
      </trkpt>
      <trkpt lat="45.95045" lon="4.96812">
        <ele>286</ele>
        <time>2016-11-15T10:32:55Z</time>
      </trkpt>
      <trkpt lat="45.95046" lon="4.96819">
        <ele>286</ele>
        <time>2016-11-15T10:32:56Z</time>
      </trkpt>
      <trkpt lat="45.95046" lon="4.96826">
        <ele>286</ele>
        <time>2016-11-15T10:32:57Z</time>
      </trkpt>
      <trkpt lat="45.95046" lon="4.96833">
        <ele>286</ele>
        <time>2016-11-15T10:32:58Z</time>
      </trkpt>
      <trkpt lat="45.95047" lon="4.9684">
        <ele>286</ele>
        <time>2016-11-15T10:32:59Z</time>
      </trkpt>
      <trkpt lat="45.95046" lon="4.96848">
        <ele>286</ele>
        <time>2016-11-15T10:33:00Z</time>
      </trkpt>
      <trkpt lat="45.95046" lon="4.96855">
        <ele>286</ele>
        <time>2016-11-15T10:33:01Z</time>
      </trkpt>
      <trkpt lat="45.95047" lon="4.96862">
        <ele>286</ele>
        <time>2016-11-15T10:33:02Z</time>
      </trkpt>
      <trkpt lat="45.95047" lon="4.96869">
        <ele>286</ele>
        <time>2016-11-15T10:33:03Z</time>
      </trkpt>
      <trkpt lat="45.95047" lon="4.96876">
        <ele>286</ele>
        <time>2016-11-15T10:33:04Z</time>
      </trkpt>
      <trkpt lat="45.95047" lon="4.96883">
        <ele>286</ele>
        <time>2016-11-15T10:33:05Z</time>
      </trkpt>
      <trkpt lat="45.95048" lon="4.9689">
        <ele>286</ele>
        <time>2016-11-15T10:33:06Z</time>
      </trkpt>
      <trkpt lat="45.95048" lon="4.96898">
        <ele>286</ele>
        <time>2016-11-15T10:33:07Z</time>
      </trkpt>
      <trkpt lat="45.95048" lon="4.96904">
        <ele>286</ele>
        <time>2016-11-15T10:33:08Z</time>
      </trkpt>
      <trkpt lat="45.95049" lon="4.96911">
        <ele>285</ele>
        <time>2016-11-15T10:33:09Z</time>
      </trkpt>
      <trkpt lat="45.95049" lon="4.96919">
        <ele>285</ele>
        <time>2016-11-15T10:33:10Z</time>
      </trkpt>
      <trkpt lat="45.95049" lon="4.96926">
        <ele>285</ele>
        <time>2016-11-15T10:33:11Z</time>
      </trkpt>
      <trkpt lat="45.9505" lon="4.96934">
        <ele>285</ele>
        <time>2016-11-15T10:33:12Z</time>
      </trkpt>
      <trkpt lat="45.9505" lon="4.96941">
        <ele>285</ele>
        <time>2016-11-15T10:33:13Z</time>
      </trkpt>
      <trkpt lat="45.95051" lon="4.96949">
        <ele>285</ele>
        <time>2016-11-15T10:33:14Z</time>
      </trkpt>
      <trkpt lat="45.95051" lon="4.96957">
        <ele>285</ele>
        <time>2016-11-15T10:33:15Z</time>
      </trkpt>
      <trkpt lat="45.95052" lon="4.96964">
        <ele>285</ele>
        <time>2016-11-15T10:33:16Z</time>
      </trkpt>
      <trkpt lat="45.95052" lon="4.96972">
        <ele>285</ele>
        <time>2016-11-15T10:33:17Z</time>
      </trkpt>
      <trkpt lat="45.95052" lon="4.9698">
        <ele>285</ele>
        <time>2016-11-15T10:33:18Z</time>
      </trkpt>
      <trkpt lat="45.95053" lon="4.96988">
        <ele>285</ele>
        <time>2016-11-15T10:33:19Z</time>
      </trkpt>
      <trkpt lat="45.95053" lon="4.96996">
        <ele>285</ele>
        <time>2016-11-15T10:33:20Z</time>
      </trkpt>
      <trkpt lat="45.95053" lon="4.97004">
        <ele>285</ele>
        <time>2016-11-15T10:33:21Z</time>
      </trkpt>
      <trkpt lat="45.95054" lon="4.97013">
        <ele>285</ele>
        <time>2016-11-15T10:33:22Z</time>
      </trkpt>
      <trkpt lat="45.95054" lon="4.97021">
        <ele>285</ele>
        <time>2016-11-15T10:33:23Z</time>
      </trkpt>
      <trkpt lat="45.95054" lon="4.9703">
        <ele>285</ele>
        <time>2016-11-15T10:33:24Z</time>
      </trkpt>
      <trkpt lat="45.95055" lon="4.97038">
        <ele>285</ele>
        <time>2016-11-15T10:33:25Z</time>
      </trkpt>
      <trkpt lat="45.95056" lon="4.97047">
        <ele>285</ele>
        <time>2016-11-15T10:33:26Z</time>
      </trkpt>
      <trkpt lat="45.95056" lon="4.97055">
        <ele>285</ele>
        <time>2016-11-15T10:33:27Z</time>
      </trkpt>
      <trkpt lat="45.95057" lon="4.97062">
        <ele>285</ele>
        <time>2016-11-15T10:33:28Z</time>
      </trkpt>
      <trkpt lat="45.95057" lon="4.9707">
        <ele>285</ele>
        <time>2016-11-15T10:33:29Z</time>
      </trkpt>
      <trkpt lat="45.95057" lon="4.97077">
        <ele>285</ele>
        <time>2016-11-15T10:33:30Z</time>
      </trkpt>
      <trkpt lat="45.95056" lon="4.97084">
        <ele>285</ele>
        <time>2016-11-15T10:33:31Z</time>
      </trkpt>
      <trkpt lat="45.95056" lon="4.97091">
        <ele>285</ele>
        <time>2016-11-15T10:33:32Z</time>
      </trkpt>
      <trkpt lat="45.95055" lon="4.97098">
        <ele>285</ele>
        <time>2016-11-15T10:33:33Z</time>
      </trkpt>
      <trkpt lat="45.95056" lon="4.97105">
        <ele>285</ele>
        <time>2016-11-15T10:33:34Z</time>
      </trkpt>
      <trkpt lat="45.95056" lon="4.97112">
        <ele>285</ele>
        <time>2016-11-15T10:33:35Z</time>
      </trkpt>
      <trkpt lat="45.95056" lon="4.97118">
        <ele>285</ele>
        <time>2016-11-15T10:33:36Z</time>
      </trkpt>
      <trkpt lat="45.95057" lon="4.97125">
        <ele>285</ele>
        <time>2016-11-15T10:33:37Z</time>
      </trkpt>
      <trkpt lat="45.95057" lon="4.97132">
        <ele>285</ele>
        <time>2016-11-15T10:33:38Z</time>
      </trkpt>
      <trkpt lat="45.95057" lon="4.97139">
        <ele>285</ele>
        <time>2016-11-15T10:33:39Z</time>
      </trkpt>
      <trkpt lat="45.95058" lon="4.97146">
        <ele>285</ele>
        <time>2016-11-15T10:33:40Z</time>
      </trkpt>
      <trkpt lat="45.95057" lon="4.97153">
        <ele>285</ele>
        <time>2016-11-15T10:33:41Z</time>
      </trkpt>
      <trkpt lat="45.95057" lon="4.9716">
        <ele>285</ele>
        <time>2016-11-15T10:33:42Z</time>
      </trkpt>
      <trkpt lat="45.95057" lon="4.97167">
        <ele>285</ele>
        <time>2016-11-15T10:33:43Z</time>
      </trkpt>
      <trkpt lat="45.95058" lon="4.97174">
        <ele>285</ele>
        <time>2016-11-15T10:33:44Z</time>
      </trkpt>
      <trkpt lat="45.95058" lon="4.97181">
        <ele>285</ele>
        <time>2016-11-15T10:33:45Z</time>
      </trkpt>
      <trkpt lat="45.95059" lon="4.97187">
        <ele>285</ele>
        <time>2016-11-15T10:33:46Z</time>
      </trkpt>
      <trkpt lat="45.9506" lon="4.97194">
        <ele>285</ele>
        <time>2016-11-15T10:33:47Z</time>
      </trkpt>
      <trkpt lat="45.9506" lon="4.97201">
        <ele>285</ele>
        <time>2016-11-15T10:33:48Z</time>
      </trkpt>
      <trkpt lat="45.9506" lon="4.97208">
        <ele>285</ele>
        <time>2016-11-15T10:33:49Z</time>
      </trkpt>
      <trkpt lat="45.9506" lon="4.97215">
        <ele>285</ele>
        <time>2016-11-15T10:33:50Z</time>
      </trkpt>
      <trkpt lat="45.95061" lon="4.97222">
        <ele>285</ele>
        <time>2016-11-15T10:33:51Z</time>
      </trkpt>
      <trkpt lat="45.95062" lon="4.97229">
        <ele>285</ele>
        <time>2016-11-15T10:33:52Z</time>
      </trkpt>
      <trkpt lat="45.95062" lon="4.97236">
        <ele>285</ele>
        <time>2016-11-15T10:33:53Z</time>
      </trkpt>
      <trkpt lat="45.95063" lon="4.97243">
        <ele>285</ele>
        <time>2016-11-15T10:33:54Z</time>
      </trkpt>
      <trkpt lat="45.95063" lon="4.9725">
        <ele>286</ele>
        <time>2016-11-15T10:33:55Z</time>
      </trkpt>
      <trkpt lat="45.95063" lon="4.97258">
        <ele>286</ele>
        <time>2016-11-15T10:33:56Z</time>
      </trkpt>
      <trkpt lat="45.95064" lon="4.97265">
        <ele>285</ele>
        <time>2016-11-15T10:33:57Z</time>
      </trkpt>
      <trkpt lat="45.95064" lon="4.97273">
        <ele>285</ele>
        <time>2016-11-15T10:33:58Z</time>
      </trkpt>
      <trkpt lat="45.95065" lon="4.9728">
        <ele>285</ele>
        <time>2016-11-15T10:33:59Z</time>
      </trkpt>
      <trkpt lat="45.95065" lon="4.97287">
        <ele>285</ele>
        <time>2016-11-15T10:34:00Z</time>
      </trkpt>
      <trkpt lat="45.95066" lon="4.97294">
        <ele>285</ele>
        <time>2016-11-15T10:34:01Z</time>
      </trkpt>
      <trkpt lat="45.95066" lon="4.97301">
        <ele>285</ele>
        <time>2016-11-15T10:34:02Z</time>
      </trkpt>
      <trkpt lat="45.95066" lon="4.97309">
        <ele>286</ele>
        <time>2016-11-15T10:34:03Z</time>
      </trkpt>
      <trkpt lat="45.95066" lon="4.97316">
        <ele>286</ele>
        <time>2016-11-15T10:34:04Z</time>
      </trkpt>
      <trkpt lat="45.95066" lon="4.97323">
        <ele>286</ele>
        <time>2016-11-15T10:34:05Z</time>
      </trkpt>
      <trkpt lat="45.95066" lon="4.9733">
        <ele>286</ele>
        <time>2016-11-15T10:34:06Z</time>
      </trkpt>
      <trkpt lat="45.95067" lon="4.97337">
        <ele>286</ele>
        <time>2016-11-15T10:34:07Z</time>
      </trkpt>
      <trkpt lat="45.95067" lon="4.97344">
        <ele>286</ele>
        <time>2016-11-15T10:34:08Z</time>
      </trkpt>
      <trkpt lat="45.95067" lon="4.97351">
        <ele>286</ele>
        <time>2016-11-15T10:34:09Z</time>
      </trkpt>
      <trkpt lat="45.95068" lon="4.97358">
        <ele>286</ele>
        <time>2016-11-15T10:34:10Z</time>
      </trkpt>
      <trkpt lat="45.95069" lon="4.97365">
        <ele>286</ele>
        <time>2016-11-15T10:34:11Z</time>
      </trkpt>
      <trkpt lat="45.95069" lon="4.97372">
        <ele>286</ele>
        <time>2016-11-15T10:34:12Z</time>
      </trkpt>
      <trkpt lat="45.95069" lon="4.97379">
        <ele>287</ele>
        <time>2016-11-15T10:34:13Z</time>
      </trkpt>
      <trkpt lat="45.95069" lon="4.97386">
        <ele>287</ele>
        <time>2016-11-15T10:34:14Z</time>
      </trkpt>
      <trkpt lat="45.9507" lon="4.97393">
        <ele>287</ele>
        <time>2016-11-15T10:34:15Z</time>
      </trkpt>
      <trkpt lat="45.9507" lon="4.974">
        <ele>287</ele>
        <time>2016-11-15T10:34:16Z</time>
      </trkpt>
      <trkpt lat="45.9507" lon="4.97407">
        <ele>287</ele>
        <time>2016-11-15T10:34:17Z</time>
      </trkpt>
      <trkpt lat="45.9507" lon="4.97414">
        <ele>287</ele>
        <time>2016-11-15T10:34:18Z</time>
      </trkpt>
      <trkpt lat="45.95071" lon="4.9742">
        <ele>287</ele>
        <time>2016-11-15T10:34:19Z</time>
      </trkpt>
      <trkpt lat="45.95071" lon="4.97427">
        <ele>287</ele>
        <time>2016-11-15T10:34:20Z</time>
      </trkpt>
      <trkpt lat="45.95071" lon="4.97434">
        <ele>287</ele>
        <time>2016-11-15T10:34:21Z</time>
      </trkpt>
      <trkpt lat="45.95071" lon="4.97441">
        <ele>287</ele>
        <time>2016-11-15T10:34:22Z</time>
      </trkpt>
      <trkpt lat="45.95072" lon="4.97448">
        <ele>287</ele>
        <time>2016-11-15T10:34:23Z</time>
      </trkpt>
      <trkpt lat="45.95072" lon="4.97455">
        <ele>287</ele>
        <time>2016-11-15T10:34:24Z</time>
      </trkpt>
      <trkpt lat="45.95072" lon="4.97461">
        <ele>287</ele>
        <time>2016-11-15T10:34:25Z</time>
      </trkpt>
      <trkpt lat="45.95073" lon="4.97468">
        <ele>287</ele>
        <time>2016-11-15T10:34:26Z</time>
      </trkpt>
      <trkpt lat="45.95074" lon="4.97474">
        <ele>287</ele>
        <time>2016-11-15T10:34:27Z</time>
      </trkpt>
      <trkpt lat="45.95074" lon="4.97481">
        <ele>287</ele>
        <time>2016-11-15T10:34:28Z</time>
      </trkpt>
      <trkpt lat="45.95075" lon="4.97488">
        <ele>286</ele>
        <time>2016-11-15T10:34:29Z</time>
      </trkpt>
      <trkpt lat="45.95075" lon="4.97494">
        <ele>286</ele>
        <time>2016-11-15T10:34:30Z</time>
      </trkpt>
      <trkpt lat="45.95075" lon="4.97501">
        <ele>286</ele>
        <time>2016-11-15T10:34:31Z</time>
      </trkpt>
      <trkpt lat="45.95075" lon="4.97508">
        <ele>286</ele>
        <time>2016-11-15T10:34:32Z</time>
      </trkpt>
      <trkpt lat="45.95075" lon="4.97515">
        <ele>286</ele>
        <time>2016-11-15T10:34:33Z</time>
      </trkpt>
      <trkpt lat="45.95076" lon="4.97522">
        <ele>286</ele>
        <time>2016-11-15T10:34:34Z</time>
      </trkpt>
      <trkpt lat="45.95076" lon="4.97529">
        <ele>286</ele>
        <time>2016-11-15T10:34:35Z</time>
      </trkpt>
      <trkpt lat="45.95076" lon="4.97535">
        <ele>286</ele>
        <time>2016-11-15T10:34:36Z</time>
      </trkpt>
      <trkpt lat="45.95076" lon="4.97542">
        <ele>285</ele>
        <time>2016-11-15T10:34:37Z</time>
      </trkpt>
      <trkpt lat="45.95076" lon="4.97549">
        <ele>285</ele>
        <time>2016-11-15T10:34:38Z</time>
      </trkpt>
      <trkpt lat="45.95076" lon="4.97557">
        <ele>285</ele>
        <time>2016-11-15T10:34:39Z</time>
      </trkpt>
      <trkpt lat="45.95076" lon="4.97564">
        <ele>285</ele>
        <time>2016-11-15T10:34:40Z</time>
      </trkpt>
      <trkpt lat="45.95075" lon="4.97571">
        <ele>285</ele>
        <time>2016-11-15T10:34:41Z</time>
      </trkpt>
      <trkpt lat="45.95075" lon="4.97578">
        <ele>285</ele>
        <time>2016-11-15T10:34:42Z</time>
      </trkpt>
      <trkpt lat="45.95075" lon="4.97585">
        <ele>285</ele>
        <time>2016-11-15T10:34:43Z</time>
      </trkpt>
      <trkpt lat="45.95075" lon="4.97592">
        <ele>285</ele>
        <time>2016-11-15T10:34:44Z</time>
      </trkpt>
      <trkpt lat="45.95075" lon="4.97598">
        <ele>285</ele>
        <time>2016-11-15T10:34:45Z</time>
      </trkpt>
      <trkpt lat="45.95074" lon="4.97605">
        <ele>285</ele>
        <time>2016-11-15T10:34:46Z</time>
      </trkpt>
      <trkpt lat="45.95074" lon="4.97611">
        <ele>285</ele>
        <time>2016-11-15T10:34:47Z</time>
      </trkpt>
      <trkpt lat="45.95073" lon="4.97618">
        <ele>285</ele>
        <time>2016-11-15T10:34:48Z</time>
      </trkpt>
      <trkpt lat="45.95073" lon="4.97625">
        <ele>285</ele>
        <time>2016-11-15T10:34:49Z</time>
      </trkpt>
      <trkpt lat="45.95072" lon="4.97631">
        <ele>285</ele>
        <time>2016-11-15T10:34:50Z</time>
      </trkpt>
      <trkpt lat="45.95072" lon="4.97638">
        <ele>285</ele>
        <time>2016-11-15T10:34:51Z</time>
      </trkpt>
      <trkpt lat="45.95071" lon="4.97644">
        <ele>286</ele>
        <time>2016-11-15T10:34:52Z</time>
      </trkpt>
      <trkpt lat="45.95071" lon="4.97651">
        <ele>286</ele>
        <time>2016-11-15T10:34:53Z</time>
      </trkpt>
      <trkpt lat="45.9507" lon="4.97663">
        <ele>286</ele>
        <time>2016-11-15T10:34:55Z</time>
      </trkpt>
      <trkpt lat="45.95069" lon="4.97669">
        <ele>286</ele>
        <time>2016-11-15T10:34:56Z</time>
      </trkpt>
      <trkpt lat="45.95068" lon="4.97682">
        <ele>286</ele>
        <time>2016-11-15T10:34:58Z</time>
      </trkpt>
      <trkpt lat="45.95068" lon="4.97688">
        <ele>286</ele>
        <time>2016-11-15T10:34:59Z</time>
      </trkpt>
      <trkpt lat="45.95067" lon="4.977">
        <ele>286</ele>
        <time>2016-11-15T10:35:01Z</time>
      </trkpt>
      <trkpt lat="45.95066" lon="4.97707">
        <ele>286</ele>
        <time>2016-11-15T10:35:02Z</time>
      </trkpt>
      <trkpt lat="45.95066" lon="4.97713">
        <ele>287</ele>
        <time>2016-11-15T10:35:03Z</time>
      </trkpt>
      <trkpt lat="45.95066" lon="4.9772">
        <ele>287</ele>
        <time>2016-11-15T10:35:04Z</time>
      </trkpt>
      <trkpt lat="45.95065" lon="4.97727">
        <ele>287</ele>
        <time>2016-11-15T10:35:05Z</time>
      </trkpt>
      <trkpt lat="45.95065" lon="4.97734">
        <ele>287</ele>
        <time>2016-11-15T10:35:06Z</time>
      </trkpt>
      <trkpt lat="45.95065" lon="4.97741">
        <ele>287</ele>
        <time>2016-11-15T10:35:07Z</time>
      </trkpt>
      <trkpt lat="45.95065" lon="4.97749">
        <ele>287</ele>
        <time>2016-11-15T10:35:08Z</time>
      </trkpt>
      <trkpt lat="45.95064" lon="4.97756">
        <ele>287</ele>
        <time>2016-11-15T10:35:09Z</time>
      </trkpt>
      <trkpt lat="45.95064" lon="4.97763">
        <ele>287</ele>
        <time>2016-11-15T10:35:10Z</time>
      </trkpt>
      <trkpt lat="45.95063" lon="4.9777">
        <ele>287</ele>
        <time>2016-11-15T10:35:11Z</time>
      </trkpt>
      <trkpt lat="45.95063" lon="4.97778">
        <ele>287</ele>
        <time>2016-11-15T10:35:12Z</time>
      </trkpt>
      <trkpt lat="45.95063" lon="4.97786">
        <ele>287</ele>
        <time>2016-11-15T10:35:13Z</time>
      </trkpt>
      <trkpt lat="45.95062" lon="4.97793">
        <ele>287</ele>
        <time>2016-11-15T10:35:14Z</time>
      </trkpt>
      <trkpt lat="45.95062" lon="4.97801">
        <ele>287</ele>
        <time>2016-11-15T10:35:15Z</time>
      </trkpt>
      <trkpt lat="45.95063" lon="4.97807">
        <ele>287</ele>
        <time>2016-11-15T10:35:16Z</time>
      </trkpt>
      <trkpt lat="45.95063" lon="4.97814">
        <ele>287</ele>
        <time>2016-11-15T10:35:17Z</time>
      </trkpt>
      <trkpt lat="45.95065" lon="4.9782">
        <ele>287</ele>
        <time>2016-11-15T10:35:18Z</time>
      </trkpt>
      <trkpt lat="45.95066" lon="4.97826">
        <ele>287</ele>
        <time>2016-11-15T10:35:19Z</time>
      </trkpt>
      <trkpt lat="45.95068" lon="4.97832">
        <ele>287</ele>
        <time>2016-11-15T10:35:20Z</time>
      </trkpt>
      <trkpt lat="45.95069" lon="4.97838">
        <ele>287</ele>
        <time>2016-11-15T10:35:21Z</time>
      </trkpt>
      <trkpt lat="45.95071" lon="4.97845">
        <ele>287</ele>
        <time>2016-11-15T10:35:22Z</time>
      </trkpt>
      <trkpt lat="45.95072" lon="4.97852">
        <ele>287</ele>
        <time>2016-11-15T10:35:23Z</time>
      </trkpt>
      <trkpt lat="45.95074" lon="4.97858">
        <ele>287</ele>
        <time>2016-11-15T10:35:24Z</time>
      </trkpt>
      <trkpt lat="45.95077" lon="4.97864">
        <ele>287</ele>
        <time>2016-11-15T10:35:25Z</time>
      </trkpt>
      <trkpt lat="45.95078" lon="4.97871">
        <ele>287</ele>
        <time>2016-11-15T10:35:26Z</time>
      </trkpt>
      <trkpt lat="45.9508" lon="4.97878">
        <ele>287</ele>
        <time>2016-11-15T10:35:27Z</time>
      </trkpt>
      <trkpt lat="45.95082" lon="4.97885">
        <ele>287</ele>
        <time>2016-11-15T10:35:28Z</time>
      </trkpt>
      <trkpt lat="45.95084" lon="4.97892">
        <ele>287</ele>
        <time>2016-11-15T10:35:29Z</time>
      </trkpt>
      <trkpt lat="45.95086" lon="4.97899">
        <ele>287</ele>
        <time>2016-11-15T10:35:30Z</time>
      </trkpt>
      <trkpt lat="45.95088" lon="4.97907">
        <ele>287</ele>
        <time>2016-11-15T10:35:31Z</time>
      </trkpt>
      <trkpt lat="45.9509" lon="4.97914">
        <ele>288</ele>
        <time>2016-11-15T10:35:32Z</time>
      </trkpt>
      <trkpt lat="45.95092" lon="4.97921">
        <ele>288</ele>
        <time>2016-11-15T10:35:33Z</time>
      </trkpt>
      <trkpt lat="45.95093" lon="4.97929">
        <ele>288</ele>
        <time>2016-11-15T10:35:34Z</time>
      </trkpt>
      <trkpt lat="45.95094" lon="4.97936">
        <ele>287</ele>
        <time>2016-11-15T10:35:35Z</time>
      </trkpt>
      <trkpt lat="45.95094" lon="4.97943">
        <ele>287</ele>
        <time>2016-11-15T10:35:36Z</time>
      </trkpt>
      <trkpt lat="45.95095" lon="4.97951">
        <ele>287</ele>
        <time>2016-11-15T10:35:37Z</time>
      </trkpt>
      <trkpt lat="45.95096" lon="4.97957">
        <ele>287</ele>
        <time>2016-11-15T10:35:38Z</time>
      </trkpt>
      <trkpt lat="45.95097" lon="4.97964">
        <ele>288</ele>
        <time>2016-11-15T10:35:39Z</time>
      </trkpt>
      <trkpt lat="45.95098" lon="4.9797">
        <ele>288</ele>
        <time>2016-11-15T10:35:40Z</time>
      </trkpt>
      <trkpt lat="45.95097" lon="4.97977">
        <ele>288</ele>
        <time>2016-11-15T10:35:41Z</time>
      </trkpt>
      <trkpt lat="45.95097" lon="4.97983">
        <ele>288</ele>
        <time>2016-11-15T10:35:42Z</time>
      </trkpt>
      <trkpt lat="45.95097" lon="4.9799">
        <ele>288</ele>
        <time>2016-11-15T10:35:43Z</time>
      </trkpt>
      <trkpt lat="45.95097" lon="4.97997">
        <ele>288</ele>
        <time>2016-11-15T10:35:44Z</time>
      </trkpt>
      <trkpt lat="45.95097" lon="4.98005">
        <ele>288</ele>
        <time>2016-11-15T10:35:45Z</time>
      </trkpt>
      <trkpt lat="45.95097" lon="4.98012">
        <ele>288</ele>
        <time>2016-11-15T10:35:46Z</time>
      </trkpt>
      <trkpt lat="45.95097" lon="4.9802">
        <ele>288</ele>
        <time>2016-11-15T10:35:47Z</time>
      </trkpt>
      <trkpt lat="45.95097" lon="4.98028">
        <ele>288</ele>
        <time>2016-11-15T10:35:48Z</time>
      </trkpt>
      <trkpt lat="45.95097" lon="4.98036">
        <ele>288</ele>
        <time>2016-11-15T10:35:49Z</time>
      </trkpt>
      <trkpt lat="45.95097" lon="4.98044">
        <ele>287</ele>
        <time>2016-11-15T10:35:50Z</time>
      </trkpt>
      <trkpt lat="45.95097" lon="4.98052">
        <ele>287</ele>
        <time>2016-11-15T10:35:51Z</time>
      </trkpt>
      <trkpt lat="45.95097" lon="4.98059">
        <ele>287</ele>
        <time>2016-11-15T10:35:52Z</time>
      </trkpt>
      <trkpt lat="45.95096" lon="4.98067">
        <ele>287</ele>
        <time>2016-11-15T10:35:53Z</time>
      </trkpt>
      <trkpt lat="45.95096" lon="4.98074">
        <ele>288</ele>
        <time>2016-11-15T10:35:54Z</time>
      </trkpt>
      <trkpt lat="45.95095" lon="4.98083">
        <ele>288</ele>
        <time>2016-11-15T10:35:55Z</time>
      </trkpt>
      <trkpt lat="45.95094" lon="4.98089">
        <ele>287</ele>
        <time>2016-11-15T10:35:56Z</time>
      </trkpt>
      <trkpt lat="45.95095" lon="4.98098">
        <ele>287</ele>
        <time>2016-11-15T10:35:57Z</time>
      </trkpt>
      <trkpt lat="45.95096" lon="4.98107">
        <ele>287</ele>
        <time>2016-11-15T10:35:58Z</time>
      </trkpt>
      <trkpt lat="45.95095" lon="4.98114">
        <ele>287</ele>
        <time>2016-11-15T10:35:59Z</time>
      </trkpt>
      <trkpt lat="45.95095" lon="4.98122">
        <ele>287</ele>
        <time>2016-11-15T10:36:00Z</time>
      </trkpt>
      <trkpt lat="45.95093" lon="4.98129">
        <ele>287</ele>
        <time>2016-11-15T10:36:01Z</time>
      </trkpt>
      <trkpt lat="45.95092" lon="4.98136">
        <ele>287</ele>
        <time>2016-11-15T10:36:02Z</time>
      </trkpt>
      <trkpt lat="45.9509" lon="4.98143">
        <ele>287</ele>
        <time>2016-11-15T10:36:03Z</time>
      </trkpt>
      <trkpt lat="45.95088" lon="4.98149">
        <ele>287</ele>
        <time>2016-11-15T10:36:04Z</time>
      </trkpt>
      <trkpt lat="45.95086" lon="4.98161">
        <ele>288</ele>
        <time>2016-11-15T10:36:06Z</time>
      </trkpt>
      <trkpt lat="45.95084" lon="4.98167">
        <ele>288</ele>
        <time>2016-11-15T10:36:07Z</time>
      </trkpt>
      <trkpt lat="45.95083" lon="4.98174">
        <ele>288</ele>
        <time>2016-11-15T10:36:08Z</time>
      </trkpt>
      <trkpt lat="45.95081" lon="4.98181">
        <ele>288</ele>
        <time>2016-11-15T10:36:09Z</time>
      </trkpt>
      <trkpt lat="45.95079" lon="4.98188">
        <ele>288</ele>
        <time>2016-11-15T10:36:10Z</time>
      </trkpt>
      <trkpt lat="45.95077" lon="4.98195">
        <ele>288</ele>
        <time>2016-11-15T10:36:11Z</time>
      </trkpt>
      <trkpt lat="45.95074" lon="4.98202">
        <ele>288</ele>
        <time>2016-11-15T10:36:12Z</time>
      </trkpt>
      <trkpt lat="45.95072" lon="4.9821">
        <ele>287</ele>
        <time>2016-11-15T10:36:13Z</time>
      </trkpt>
      <trkpt lat="45.9507" lon="4.98218">
        <ele>287</ele>
        <time>2016-11-15T10:36:14Z</time>
      </trkpt>
      <trkpt lat="45.95067" lon="4.98226">
        <ele>287</ele>
        <time>2016-11-15T10:36:15Z</time>
      </trkpt>
      <trkpt lat="45.95064" lon="4.98233">
        <ele>287</ele>
        <time>2016-11-15T10:36:16Z</time>
      </trkpt>
      <trkpt lat="45.95062" lon="4.98241">
        <ele>287</ele>
        <time>2016-11-15T10:36:17Z</time>
      </trkpt>
      <trkpt lat="45.95059" lon="4.98248">
        <ele>287</ele>
        <time>2016-11-15T10:36:18Z</time>
      </trkpt>
      <trkpt lat="45.95057" lon="4.98255">
        <ele>287</ele>
        <time>2016-11-15T10:36:19Z</time>
      </trkpt>
      <trkpt lat="45.95055" lon="4.98262">
        <ele>287</ele>
        <time>2016-11-15T10:36:20Z</time>
      </trkpt>
      <trkpt lat="45.95052" lon="4.98269">
        <ele>287</ele>
        <time>2016-11-15T10:36:21Z</time>
      </trkpt>
      <trkpt lat="45.9505" lon="4.98276">
        <ele>287</ele>
        <time>2016-11-15T10:36:22Z</time>
      </trkpt>
      <trkpt lat="45.95048" lon="4.98283">
        <ele>287</ele>
        <time>2016-11-15T10:36:23Z</time>
      </trkpt>
      <trkpt lat="45.95045" lon="4.98288">
        <ele>287</ele>
        <time>2016-11-15T10:36:24Z</time>
      </trkpt>
      <trkpt lat="45.95042" lon="4.98293">
        <ele>287</ele>
        <time>2016-11-15T10:36:25Z</time>
      </trkpt>
      <trkpt lat="45.9504" lon="4.98299">
        <ele>287</ele>
        <time>2016-11-15T10:36:26Z</time>
      </trkpt>
      <trkpt lat="45.95037" lon="4.98304">
        <ele>287</ele>
        <time>2016-11-15T10:36:27Z</time>
      </trkpt>
      <trkpt lat="45.95034" lon="4.9831">
        <ele>287</ele>
        <time>2016-11-15T10:36:28Z</time>
      </trkpt>
      <trkpt lat="45.95031" lon="4.98316">
        <ele>287</ele>
        <time>2016-11-15T10:36:29Z</time>
      </trkpt>
      <trkpt lat="45.95028" lon="4.98321">
        <ele>287</ele>
        <time>2016-11-15T10:36:30Z</time>
      </trkpt>
      <trkpt lat="45.95025" lon="4.98327">
        <ele>287</ele>
        <time>2016-11-15T10:36:31Z</time>
      </trkpt>
      <trkpt lat="45.95022" lon="4.98334">
        <ele>287</ele>
        <time>2016-11-15T10:36:32Z</time>
      </trkpt>
      <trkpt lat="45.9502" lon="4.9834">
        <ele>287</ele>
        <time>2016-11-15T10:36:33Z</time>
      </trkpt>
      <trkpt lat="45.95016" lon="4.98345">
        <ele>287</ele>
        <time>2016-11-15T10:36:34Z</time>
      </trkpt>
      <trkpt lat="45.95013" lon="4.98351">
        <ele>287</ele>
        <time>2016-11-15T10:36:35Z</time>
      </trkpt>
      <trkpt lat="45.9501" lon="4.98357">
        <ele>287</ele>
        <time>2016-11-15T10:36:36Z</time>
      </trkpt>
      <trkpt lat="45.95007" lon="4.98363">
        <ele>287</ele>
        <time>2016-11-15T10:36:37Z</time>
      </trkpt>
      <trkpt lat="45.95004" lon="4.98369">
        <ele>287</ele>
        <time>2016-11-15T10:36:38Z</time>
      </trkpt>
      <trkpt lat="45.95001" lon="4.98374">
        <ele>287</ele>
        <time>2016-11-15T10:36:39Z</time>
      </trkpt>
      <trkpt lat="45.94997" lon="4.98379">
        <ele>287</ele>
        <time>2016-11-15T10:36:40Z</time>
      </trkpt>
      <trkpt lat="45.94995" lon="4.98385">
        <ele>287</ele>
        <time>2016-11-15T10:36:41Z</time>
      </trkpt>
      <trkpt lat="45.94992" lon="4.98391">
        <ele>288</ele>
        <time>2016-11-15T10:36:42Z</time>
      </trkpt>
      <trkpt lat="45.9499" lon="4.98397">
        <ele>288</ele>
        <time>2016-11-15T10:36:43Z</time>
      </trkpt>
      <trkpt lat="45.94988" lon="4.98403">
        <ele>288</ele>
        <time>2016-11-15T10:36:44Z</time>
      </trkpt>
      <trkpt lat="45.94984" lon="4.98409">
        <ele>288</ele>
        <time>2016-11-15T10:36:45Z</time>
      </trkpt>
      <trkpt lat="45.94981" lon="4.98415">
        <ele>288</ele>
        <time>2016-11-15T10:36:46Z</time>
      </trkpt>
      <trkpt lat="45.94979" lon="4.98421">
        <ele>288</ele>
        <time>2016-11-15T10:36:47Z</time>
      </trkpt>
      <trkpt lat="45.94973" lon="4.98432">
        <ele>288</ele>
        <time>2016-11-15T10:36:49Z</time>
      </trkpt>
      <trkpt lat="45.94971" lon="4.98437">
        <ele>288</ele>
        <time>2016-11-15T10:36:50Z</time>
      </trkpt>
      <trkpt lat="45.94966" lon="4.98447">
        <ele>288</ele>
        <time>2016-11-15T10:36:52Z</time>
      </trkpt>
      <trkpt lat="45.94963" lon="4.98452">
        <ele>288</ele>
        <time>2016-11-15T10:36:53Z</time>
      </trkpt>
      <trkpt lat="45.94958" lon="4.98462">
        <ele>289</ele>
        <time>2016-11-15T10:36:55Z</time>
      </trkpt>
      <trkpt lat="45.94956" lon="4.98467">
        <ele>289</ele>
        <time>2016-11-15T10:36:56Z</time>
      </trkpt>
      <trkpt lat="45.94951" lon="4.98477">
        <ele>289</ele>
        <time>2016-11-15T10:36:58Z</time>
      </trkpt>
      <trkpt lat="45.94949" lon="4.98482">
        <ele>289</ele>
        <time>2016-11-15T10:36:59Z</time>
      </trkpt>
      <trkpt lat="45.94945" lon="4.98492">
        <ele>289</ele>
        <time>2016-11-15T10:37:01Z</time>
      </trkpt>
      <trkpt lat="45.94942" lon="4.98497">
        <ele>289</ele>
        <time>2016-11-15T10:37:02Z</time>
      </trkpt>
      <trkpt lat="45.94937" lon="4.98506">
        <ele>290</ele>
        <time>2016-11-15T10:37:04Z</time>
      </trkpt>
      <trkpt lat="45.94935" lon="4.9851">
        <ele>290</ele>
        <time>2016-11-15T10:37:05Z</time>
      </trkpt>
      <trkpt lat="45.9493" lon="4.98519">
        <ele>290</ele>
        <time>2016-11-15T10:37:07Z</time>
      </trkpt>
      <trkpt lat="45.94926" lon="4.98524">
        <ele>290</ele>
        <time>2016-11-15T10:37:08Z</time>
      </trkpt>
      <trkpt lat="45.94921" lon="4.98533">
        <ele>290</ele>
        <time>2016-11-15T10:37:10Z</time>
      </trkpt>
      <trkpt lat="45.94918" lon="4.98537">
        <ele>290</ele>
        <time>2016-11-15T10:37:11Z</time>
      </trkpt>
      <trkpt lat="45.94914" lon="4.98544">
        <ele>291</ele>
        <time>2016-11-15T10:37:13Z</time>
      </trkpt>
      <trkpt lat="45.94913" lon="4.98548">
        <ele>291</ele>
        <time>2016-11-15T10:37:14Z</time>
      </trkpt>
      <trkpt lat="45.94908" lon="4.98555">
        <ele>292</ele>
        <time>2016-11-15T10:37:16Z</time>
      </trkpt>
      <trkpt lat="45.94906" lon="4.98559">
        <ele>292</ele>
        <time>2016-11-15T10:37:17Z</time>
      </trkpt>
      <trkpt lat="45.94902" lon="4.98567">
        <ele>292</ele>
        <time>2016-11-15T10:37:19Z</time>
      </trkpt>
      <trkpt lat="45.94901" lon="4.98571">
        <ele>292</ele>
        <time>2016-11-15T10:37:20Z</time>
      </trkpt>
      <trkpt lat="45.94897" lon="4.98577">
        <ele>292</ele>
        <time>2016-11-15T10:37:22Z</time>
      </trkpt>
      <trkpt lat="45.94895" lon="4.98581">
        <ele>292</ele>
        <time>2016-11-15T10:37:23Z</time>
      </trkpt>
      <trkpt lat="45.94891" lon="4.98591">
        <ele>292</ele>
        <time>2016-11-15T10:37:26Z</time>
      </trkpt>
      <trkpt lat="45.94889" lon="4.98593">
        <ele>292</ele>
        <time>2016-11-15T10:37:27Z</time>
      </trkpt>
      <trkpt lat="45.94883" lon="4.98602">
        <ele>293</ele>
        <time>2016-11-15T10:37:31Z</time>
      </trkpt>
      <trkpt lat="45.94882" lon="4.98604">
        <ele>293</ele>
        <time>2016-11-15T10:37:32Z</time>
      </trkpt>
      <trkpt lat="45.94876" lon="4.98609">
        <ele>293</ele>
        <time>2016-11-15T10:37:35Z</time>
      </trkpt>
      <trkpt lat="45.94873" lon="4.98612">
        <ele>293</ele>
        <time>2016-11-15T10:37:36Z</time>
      </trkpt>
      <trkpt lat="45.94867" lon="4.98616">
        <ele>293</ele>
        <time>2016-11-15T10:37:38Z</time>
      </trkpt>
      <trkpt lat="45.94865" lon="4.98618">
        <ele>293</ele>
        <time>2016-11-15T10:37:39Z</time>
      </trkpt>
      <trkpt lat="45.94858" lon="4.98622">
        <ele>293</ele>
        <time>2016-11-15T10:37:41Z</time>
      </trkpt>
      <trkpt lat="45.94855" lon="4.98624">
        <ele>293</ele>
        <time>2016-11-15T10:37:42Z</time>
      </trkpt>
      <trkpt lat="45.94849" lon="4.9863">
        <ele>293</ele>
        <time>2016-11-15T10:37:44Z</time>
      </trkpt>
      <trkpt lat="45.94846" lon="4.98633">
        <ele>293</ele>
        <time>2016-11-15T10:37:45Z</time>
      </trkpt>
      <trkpt lat="45.9484" lon="4.98643">
        <ele>293</ele>
        <time>2016-11-15T10:37:48Z</time>
      </trkpt>
      <trkpt lat="45.94839" lon="4.98646">
        <ele>294</ele>
        <time>2016-11-15T10:37:49Z</time>
      </trkpt>
      <trkpt lat="45.94835" lon="4.98657">
        <ele>294</ele>
        <time>2016-11-15T10:37:52Z</time>
      </trkpt>
      <trkpt lat="45.94834" lon="4.98662">
        <ele>294</ele>
        <time>2016-11-15T10:37:53Z</time>
      </trkpt>
      <trkpt lat="45.94835" lon="4.98672">
        <ele>294</ele>
        <time>2016-11-15T10:37:55Z</time>
      </trkpt>
      <trkpt lat="45.94834" lon="4.98679">
        <ele>294</ele>
        <time>2016-11-15T10:37:56Z</time>
      </trkpt>
      <trkpt lat="45.94833" lon="4.98685">
        <ele>294</ele>
        <time>2016-11-15T10:37:57Z</time>
      </trkpt>
      <trkpt lat="45.9483" lon="4.98691">
        <ele>294</ele>
        <time>2016-11-15T10:37:58Z</time>
      </trkpt>
      <trkpt lat="45.94827" lon="4.98697">
        <ele>294</ele>
        <time>2016-11-15T10:37:59Z</time>
      </trkpt>
      <trkpt lat="45.94824" lon="4.98703">
        <ele>294</ele>
        <time>2016-11-15T10:38:00Z</time>
      </trkpt>
      <trkpt lat="45.9482" lon="4.98708">
        <ele>294</ele>
        <time>2016-11-15T10:38:01Z</time>
      </trkpt>
      <trkpt lat="45.94818" lon="4.98715">
        <ele>294</ele>
        <time>2016-11-15T10:38:02Z</time>
      </trkpt>
      <trkpt lat="45.94816" lon="4.98722">
        <ele>294</ele>
        <time>2016-11-15T10:38:03Z</time>
      </trkpt>
      <trkpt lat="45.94815" lon="4.98729">
        <ele>294</ele>
        <time>2016-11-15T10:38:04Z</time>
      </trkpt>
      <trkpt lat="45.94815" lon="4.98737">
        <ele>294</ele>
        <time>2016-11-15T10:38:05Z</time>
      </trkpt>
      <trkpt lat="45.94814" lon="4.98744">
        <ele>294</ele>
        <time>2016-11-15T10:38:06Z</time>
      </trkpt>
      <trkpt lat="45.94814" lon="4.98751">
        <ele>294</ele>
        <time>2016-11-15T10:38:07Z</time>
      </trkpt>
      <trkpt lat="45.94813" lon="4.98758">
        <ele>294</ele>
        <time>2016-11-15T10:38:08Z</time>
      </trkpt>
      <trkpt lat="45.94813" lon="4.98765">
        <ele>294</ele>
        <time>2016-11-15T10:38:09Z</time>
      </trkpt>
      <trkpt lat="45.94812" lon="4.98772">
        <ele>294</ele>
        <time>2016-11-15T10:38:10Z</time>
      </trkpt>
      <trkpt lat="45.9481" lon="4.98784">
        <ele>294</ele>
        <time>2016-11-15T10:38:12Z</time>
      </trkpt>
      <trkpt lat="45.94809" lon="4.9879">
        <ele>294</ele>
        <time>2016-11-15T10:38:13Z</time>
      </trkpt>
      <trkpt lat="45.94808" lon="4.98797">
        <ele>294</ele>
        <time>2016-11-15T10:38:14Z</time>
      </trkpt>
      <trkpt lat="45.94808" lon="4.98804">
        <ele>294</ele>
        <time>2016-11-15T10:38:15Z</time>
      </trkpt>
      <trkpt lat="45.94808" lon="4.98811">
        <ele>294</ele>
        <time>2016-11-15T10:38:16Z</time>
      </trkpt>
      <trkpt lat="45.94807" lon="4.98817">
        <ele>294</ele>
        <time>2016-11-15T10:38:17Z</time>
      </trkpt>
      <trkpt lat="45.94807" lon="4.9883">
        <ele>294</ele>
        <time>2016-11-15T10:38:19Z</time>
      </trkpt>
      <trkpt lat="45.94806" lon="4.98836">
        <ele>293</ele>
        <time>2016-11-15T10:38:20Z</time>
      </trkpt>
      <trkpt lat="45.94806" lon="4.98843">
        <ele>293</ele>
        <time>2016-11-15T10:38:21Z</time>
      </trkpt>
      <trkpt lat="45.94805" lon="4.98849">
        <ele>293</ele>
        <time>2016-11-15T10:38:22Z</time>
      </trkpt>
      <trkpt lat="45.94804" lon="4.98856">
        <ele>293</ele>
        <time>2016-11-15T10:38:23Z</time>
      </trkpt>
      <trkpt lat="45.94804" lon="4.98863">
        <ele>293</ele>
        <time>2016-11-15T10:38:24Z</time>
      </trkpt>
      <trkpt lat="45.94804" lon="4.9887">
        <ele>293</ele>
        <time>2016-11-15T10:38:25Z</time>
      </trkpt>
      <trkpt lat="45.94803" lon="4.98878">
        <ele>293</ele>
        <time>2016-11-15T10:38:26Z</time>
      </trkpt>
      <trkpt lat="45.94803" lon="4.98885">
        <ele>293</ele>
        <time>2016-11-15T10:38:27Z</time>
      </trkpt>
      <trkpt lat="45.94802" lon="4.98893">
        <ele>293</ele>
        <time>2016-11-15T10:38:28Z</time>
      </trkpt>
      <trkpt lat="45.94801" lon="4.98901">
        <ele>293</ele>
        <time>2016-11-15T10:38:29Z</time>
      </trkpt>
      <trkpt lat="45.948" lon="4.98908">
        <ele>293</ele>
        <time>2016-11-15T10:38:30Z</time>
      </trkpt>
      <trkpt lat="45.94799" lon="4.98915">
        <ele>293</ele>
        <time>2016-11-15T10:38:31Z</time>
      </trkpt>
      <trkpt lat="45.94797" lon="4.98922">
        <ele>292</ele>
        <time>2016-11-15T10:38:32Z</time>
      </trkpt>
      <trkpt lat="45.94796" lon="4.98929">
        <ele>292</ele>
        <time>2016-11-15T10:38:33Z</time>
      </trkpt>
      <trkpt lat="45.94795" lon="4.98936">
        <ele>292</ele>
        <time>2016-11-15T10:38:34Z</time>
      </trkpt>
      <trkpt lat="45.94794" lon="4.98943">
        <ele>292</ele>
        <time>2016-11-15T10:38:35Z</time>
      </trkpt>
      <trkpt lat="45.94793" lon="4.98949">
        <ele>292</ele>
        <time>2016-11-15T10:38:36Z</time>
      </trkpt>
      <trkpt lat="45.94792" lon="4.98956">
        <ele>292</ele>
        <time>2016-11-15T10:38:37Z</time>
      </trkpt>
      <trkpt lat="45.94792" lon="4.98962">
        <ele>291</ele>
        <time>2016-11-15T10:38:38Z</time>
      </trkpt>
      <trkpt lat="45.94791" lon="4.98969">
        <ele>291</ele>
        <time>2016-11-15T10:38:39Z</time>
      </trkpt>
      <trkpt lat="45.9479" lon="4.98975">
        <ele>291</ele>
        <time>2016-11-15T10:38:40Z</time>
      </trkpt>
      <trkpt lat="45.9479" lon="4.98982">
        <ele>291</ele>
        <time>2016-11-15T10:38:41Z</time>
      </trkpt>
      <trkpt lat="45.94791" lon="4.98989">
        <ele>291</ele>
        <time>2016-11-15T10:38:42Z</time>
      </trkpt>
      <trkpt lat="45.94791" lon="4.98996">
        <ele>291</ele>
        <time>2016-11-15T10:38:43Z</time>
      </trkpt>
      <trkpt lat="45.9479" lon="4.99003">
        <ele>291</ele>
        <time>2016-11-15T10:38:44Z</time>
      </trkpt>
      <trkpt lat="45.9479" lon="4.9901">
        <ele>291</ele>
        <time>2016-11-15T10:38:45Z</time>
      </trkpt>
      <trkpt lat="45.94789" lon="4.99017">
        <ele>291</ele>
        <time>2016-11-15T10:38:46Z</time>
      </trkpt>
      <trkpt lat="45.94788" lon="4.99025">
        <ele>291</ele>
        <time>2016-11-15T10:38:47Z</time>
      </trkpt>
      <trkpt lat="45.94787" lon="4.99031">
        <ele>291</ele>
        <time>2016-11-15T10:38:48Z</time>
      </trkpt>
      <trkpt lat="45.94784" lon="4.99037">
        <ele>291</ele>
        <time>2016-11-15T10:38:49Z</time>
      </trkpt>
      <trkpt lat="45.9478" lon="4.99043">
        <ele>291</ele>
        <time>2016-11-15T10:38:50Z</time>
      </trkpt>
      <trkpt lat="45.94777" lon="4.99049">
        <ele>291</ele>
        <time>2016-11-15T10:38:51Z</time>
      </trkpt>
      <trkpt lat="45.94774" lon="4.99055">
        <ele>291</ele>
        <time>2016-11-15T10:38:52Z</time>
      </trkpt>
      <trkpt lat="45.94771" lon="4.99061">
        <ele>291</ele>
        <time>2016-11-15T10:38:53Z</time>
      </trkpt>
      <trkpt lat="45.94767" lon="4.99067">
        <ele>291</ele>
        <time>2016-11-15T10:38:54Z</time>
      </trkpt>
      <trkpt lat="45.94764" lon="4.99072">
        <ele>291</ele>
        <time>2016-11-15T10:38:55Z</time>
      </trkpt>
      <trkpt lat="45.9476" lon="4.99078">
        <ele>291</ele>
        <time>2016-11-15T10:38:56Z</time>
      </trkpt>
      <trkpt lat="45.94757" lon="4.99083">
        <ele>291</ele>
        <time>2016-11-15T10:38:57Z</time>
      </trkpt>
      <trkpt lat="45.94754" lon="4.99089">
        <ele>291</ele>
        <time>2016-11-15T10:38:58Z</time>
      </trkpt>
      <trkpt lat="45.94752" lon="4.99094">
        <ele>290</ele>
        <time>2016-11-15T10:38:59Z</time>
      </trkpt>
      <trkpt lat="45.94749" lon="4.99099">
        <ele>290</ele>
        <time>2016-11-15T10:39:00Z</time>
      </trkpt>
      <trkpt lat="45.94745" lon="4.99104">
        <ele>290</ele>
        <time>2016-11-15T10:39:01Z</time>
      </trkpt>
      <trkpt lat="45.94742" lon="4.99108">
        <ele>290</ele>
        <time>2016-11-15T10:39:02Z</time>
      </trkpt>
      <trkpt lat="45.94738" lon="4.99113">
        <ele>290</ele>
        <time>2016-11-15T10:39:03Z</time>
      </trkpt>
      <trkpt lat="45.94735" lon="4.99118">
        <ele>290</ele>
        <time>2016-11-15T10:39:04Z</time>
      </trkpt>
      <trkpt lat="45.94731" lon="4.99123">
        <ele>290</ele>
        <time>2016-11-15T10:39:05Z</time>
      </trkpt>
      <trkpt lat="45.94727" lon="4.99129">
        <ele>289</ele>
        <time>2016-11-15T10:39:06Z</time>
      </trkpt>
      <trkpt lat="45.94723" lon="4.99134">
        <ele>289</ele>
        <time>2016-11-15T10:39:07Z</time>
      </trkpt>
      <trkpt lat="45.9472" lon="4.99139">
        <ele>289</ele>
        <time>2016-11-15T10:39:08Z</time>
      </trkpt>
      <trkpt lat="45.94716" lon="4.99144">
        <ele>289</ele>
        <time>2016-11-15T10:39:09Z</time>
      </trkpt>
      <trkpt lat="45.94711" lon="4.99149">
        <ele>289</ele>
        <time>2016-11-15T10:39:10Z</time>
      </trkpt>
      <trkpt lat="45.94707" lon="4.99153">
        <ele>289</ele>
        <time>2016-11-15T10:39:11Z</time>
      </trkpt>
      <trkpt lat="45.94703" lon="4.99157">
        <ele>289</ele>
        <time>2016-11-15T10:39:12Z</time>
      </trkpt>
      <trkpt lat="45.94699" lon="4.99162">
        <ele>289</ele>
        <time>2016-11-15T10:39:13Z</time>
      </trkpt>
      <trkpt lat="45.94694" lon="4.99166">
        <ele>289</ele>
        <time>2016-11-15T10:39:14Z</time>
      </trkpt>
      <trkpt lat="45.9469" lon="4.99171">
        <ele>289</ele>
        <time>2016-11-15T10:39:15Z</time>
      </trkpt>
      <trkpt lat="45.94685" lon="4.99175">
        <ele>289</ele>
        <time>2016-11-15T10:39:16Z</time>
      </trkpt>
      <trkpt lat="45.9468" lon="4.99179">
        <ele>289</ele>
        <time>2016-11-15T10:39:17Z</time>
      </trkpt>
      <trkpt lat="45.94675" lon="4.99185">
        <ele>289</ele>
        <time>2016-11-15T10:39:18Z</time>
      </trkpt>
      <trkpt lat="45.94671" lon="4.9919">
        <ele>289</ele>
        <time>2016-11-15T10:39:19Z</time>
      </trkpt>
      <trkpt lat="45.94666" lon="4.99195">
        <ele>288</ele>
        <time>2016-11-15T10:39:20Z</time>
      </trkpt>
      <trkpt lat="45.94661" lon="4.99201">
        <ele>288</ele>
        <time>2016-11-15T10:39:21Z</time>
      </trkpt>
      <trkpt lat="45.94656" lon="4.99206">
        <ele>288</ele>
        <time>2016-11-15T10:39:22Z</time>
      </trkpt>
      <trkpt lat="45.94651" lon="4.99212">
        <ele>288</ele>
        <time>2016-11-15T10:39:23Z</time>
      </trkpt>
      <trkpt lat="45.94646" lon="4.99218">
        <ele>288</ele>
        <time>2016-11-15T10:39:24Z</time>
      </trkpt>
      <trkpt lat="45.94642" lon="4.99224">
        <ele>288</ele>
        <time>2016-11-15T10:39:25Z</time>
      </trkpt>
      <trkpt lat="45.94637" lon="4.9923">
        <ele>288</ele>
        <time>2016-11-15T10:39:26Z</time>
      </trkpt>
      <trkpt lat="45.94633" lon="4.99236">
        <ele>288</ele>
        <time>2016-11-15T10:39:27Z</time>
      </trkpt>
      <trkpt lat="45.94628" lon="4.99242">
        <ele>288</ele>
        <time>2016-11-15T10:39:28Z</time>
      </trkpt>
      <trkpt lat="45.94624" lon="4.99248">
        <ele>288</ele>
        <time>2016-11-15T10:39:29Z</time>
      </trkpt>
      <trkpt lat="45.9462" lon="4.99254">
        <ele>287</ele>
        <time>2016-11-15T10:39:30Z</time>
      </trkpt>
      <trkpt lat="45.94616" lon="4.9926">
        <ele>287</ele>
        <time>2016-11-15T10:39:31Z</time>
      </trkpt>
      <trkpt lat="45.94612" lon="4.99265">
        <ele>287</ele>
        <time>2016-11-15T10:39:32Z</time>
      </trkpt>
      <trkpt lat="45.94608" lon="4.99271">
        <ele>287</ele>
        <time>2016-11-15T10:39:33Z</time>
      </trkpt>
      <trkpt lat="45.94604" lon="4.99277">
        <ele>287</ele>
        <time>2016-11-15T10:39:34Z</time>
      </trkpt>
      <trkpt lat="45.946" lon="4.99282">
        <ele>287</ele>
        <time>2016-11-15T10:39:35Z</time>
      </trkpt>
      <trkpt lat="45.94596" lon="4.99288">
        <ele>287</ele>
        <time>2016-11-15T10:39:36Z</time>
      </trkpt>
      <trkpt lat="45.94593" lon="4.99293">
        <ele>287</ele>
        <time>2016-11-15T10:39:37Z</time>
      </trkpt>
      <trkpt lat="45.94589" lon="4.99298">
        <ele>287</ele>
        <time>2016-11-15T10:39:38Z</time>
      </trkpt>
      <trkpt lat="45.94586" lon="4.99304">
        <ele>287</ele>
        <time>2016-11-15T10:39:39Z</time>
      </trkpt>
      <trkpt lat="45.94582" lon="4.9931">
        <ele>287</ele>
        <time>2016-11-15T10:39:40Z</time>
      </trkpt>
      <trkpt lat="45.94577" lon="4.99315">
        <ele>287</ele>
        <time>2016-11-15T10:39:41Z</time>
      </trkpt>
      <trkpt lat="45.94573" lon="4.99322">
        <ele>287</ele>
        <time>2016-11-15T10:39:42Z</time>
      </trkpt>
      <trkpt lat="45.94569" lon="4.99328">
        <ele>287</ele>
        <time>2016-11-15T10:39:43Z</time>
      </trkpt>
      <trkpt lat="45.94565" lon="4.99333">
        <ele>287</ele>
        <time>2016-11-15T10:39:44Z</time>
      </trkpt>
      <trkpt lat="45.94562" lon="4.99339">
        <ele>287</ele>
        <time>2016-11-15T10:39:45Z</time>
      </trkpt>
      <trkpt lat="45.94559" lon="4.99345">
        <ele>287</ele>
        <time>2016-11-15T10:39:46Z</time>
      </trkpt>
      <trkpt lat="45.94556" lon="4.9935">
        <ele>288</ele>
        <time>2016-11-15T10:39:47Z</time>
      </trkpt>
      <trkpt lat="45.94553" lon="4.99356">
        <ele>288</ele>
        <time>2016-11-15T10:39:48Z</time>
      </trkpt>
      <trkpt lat="45.9455" lon="4.99362">
        <ele>288</ele>
        <time>2016-11-15T10:39:49Z</time>
      </trkpt>
      <trkpt lat="45.94547" lon="4.99368">
        <ele>288</ele>
        <time>2016-11-15T10:39:50Z</time>
      </trkpt>
      <trkpt lat="45.94545" lon="4.99374">
        <ele>288</ele>
        <time>2016-11-15T10:39:51Z</time>
      </trkpt>
      <trkpt lat="45.94543" lon="4.9938">
        <ele>288</ele>
        <time>2016-11-15T10:39:52Z</time>
      </trkpt>
      <trkpt lat="45.94542" lon="4.99386">
        <ele>288</ele>
        <time>2016-11-15T10:39:53Z</time>
      </trkpt>
      <trkpt lat="45.9454" lon="4.99393">
        <ele>288</ele>
        <time>2016-11-15T10:39:54Z</time>
      </trkpt>
      <trkpt lat="45.94538" lon="4.99399">
        <ele>288</ele>
        <time>2016-11-15T10:39:55Z</time>
      </trkpt>
      <trkpt lat="45.94537" lon="4.99406">
        <ele>288</ele>
        <time>2016-11-15T10:39:56Z</time>
      </trkpt>
      <trkpt lat="45.94535" lon="4.99413">
        <ele>288</ele>
        <time>2016-11-15T10:39:57Z</time>
      </trkpt>
      <trkpt lat="45.94533" lon="4.9942">
        <ele>288</ele>
        <time>2016-11-15T10:39:58Z</time>
      </trkpt>
      <trkpt lat="45.94531" lon="4.99427">
        <ele>288</ele>
        <time>2016-11-15T10:39:59Z</time>
      </trkpt>
      <trkpt lat="45.94528" lon="4.99434">
        <ele>288</ele>
        <time>2016-11-15T10:40:00Z</time>
      </trkpt>
      <trkpt lat="45.94526" lon="4.99441">
        <ele>288</ele>
        <time>2016-11-15T10:40:01Z</time>
      </trkpt>
      <trkpt lat="45.94523" lon="4.99448">
        <ele>288</ele>
        <time>2016-11-15T10:40:02Z</time>
      </trkpt>
      <trkpt lat="45.94521" lon="4.99455">
        <ele>288</ele>
        <time>2016-11-15T10:40:03Z</time>
      </trkpt>
      <trkpt lat="45.94519" lon="4.99462">
        <ele>288</ele>
        <time>2016-11-15T10:40:04Z</time>
      </trkpt>
      <trkpt lat="45.94517" lon="4.99468">
        <ele>288</ele>
        <time>2016-11-15T10:40:05Z</time>
      </trkpt>
      <trkpt lat="45.94515" lon="4.99475">
        <ele>288</ele>
        <time>2016-11-15T10:40:06Z</time>
      </trkpt>
      <trkpt lat="45.94513" lon="4.99482">
        <ele>288</ele>
        <time>2016-11-15T10:40:07Z</time>
      </trkpt>
      <trkpt lat="45.94511" lon="4.99488">
        <ele>288</ele>
        <time>2016-11-15T10:40:08Z</time>
      </trkpt>
      <trkpt lat="45.94509" lon="4.99494">
        <ele>288</ele>
        <time>2016-11-15T10:40:09Z</time>
      </trkpt>
      <trkpt lat="45.94508" lon="4.99501">
        <ele>288</ele>
        <time>2016-11-15T10:40:10Z</time>
      </trkpt>
      <trkpt lat="45.94506" lon="4.99508">
        <ele>288</ele>
        <time>2016-11-15T10:40:11Z</time>
      </trkpt>
      <trkpt lat="45.94504" lon="4.99514">
        <ele>288</ele>
        <time>2016-11-15T10:40:12Z</time>
      </trkpt>
      <trkpt lat="45.94502" lon="4.99521">
        <ele>287</ele>
        <time>2016-11-15T10:40:13Z</time>
      </trkpt>
      <trkpt lat="45.945" lon="4.99527">
        <ele>288</ele>
        <time>2016-11-15T10:40:14Z</time>
      </trkpt>
      <trkpt lat="45.94497" lon="4.99533">
        <ele>288</ele>
        <time>2016-11-15T10:40:15Z</time>
      </trkpt>
      <trkpt lat="45.94496" lon="4.9954">
        <ele>288</ele>
        <time>2016-11-15T10:40:16Z</time>
      </trkpt>
      <trkpt lat="45.94493" lon="4.99547">
        <ele>288</ele>
        <time>2016-11-15T10:40:17Z</time>
      </trkpt>
      <trkpt lat="45.94491" lon="4.99554">
        <ele>288</ele>
        <time>2016-11-15T10:40:18Z</time>
      </trkpt>
      <trkpt lat="45.9449" lon="4.99562">
        <ele>288</ele>
        <time>2016-11-15T10:40:19Z</time>
      </trkpt>
      <trkpt lat="45.94488" lon="4.9957">
        <ele>288</ele>
        <time>2016-11-15T10:40:20Z</time>
      </trkpt>
      <trkpt lat="45.94485" lon="4.99577">
        <ele>288</ele>
        <time>2016-11-15T10:40:21Z</time>
      </trkpt>
      <trkpt lat="45.94483" lon="4.99585">
        <ele>289</ele>
        <time>2016-11-15T10:40:22Z</time>
      </trkpt>
      <trkpt lat="45.94481" lon="4.99593">
        <ele>289</ele>
        <time>2016-11-15T10:40:23Z</time>
      </trkpt>
      <trkpt lat="45.94479" lon="4.99601">
        <ele>289</ele>
        <time>2016-11-15T10:40:24Z</time>
      </trkpt>
      <trkpt lat="45.94477" lon="4.99609">
        <ele>289</ele>
        <time>2016-11-15T10:40:25Z</time>
      </trkpt>
      <trkpt lat="45.94475" lon="4.99616">
        <ele>289</ele>
        <time>2016-11-15T10:40:26Z</time>
      </trkpt>
      <trkpt lat="45.94473" lon="4.99623">
        <ele>289</ele>
        <time>2016-11-15T10:40:27Z</time>
      </trkpt>
      <trkpt lat="45.94471" lon="4.9963">
        <ele>289</ele>
        <time>2016-11-15T10:40:28Z</time>
      </trkpt>
      <trkpt lat="45.9447" lon="4.99636">
        <ele>289</ele>
        <time>2016-11-15T10:40:29Z</time>
      </trkpt>
      <trkpt lat="45.94468" lon="4.99643">
        <ele>289</ele>
        <time>2016-11-15T10:40:30Z</time>
      </trkpt>
      <trkpt lat="45.94466" lon="4.99649">
        <ele>289</ele>
        <time>2016-11-15T10:40:31Z</time>
      </trkpt>
      <trkpt lat="45.94465" lon="4.99657">
        <ele>289</ele>
        <time>2016-11-15T10:40:32Z</time>
      </trkpt>
      <trkpt lat="45.94462" lon="4.99664">
        <ele>290</ele>
        <time>2016-11-15T10:40:33Z</time>
      </trkpt>
      <trkpt lat="45.9446" lon="4.99672">
        <ele>289</ele>
        <time>2016-11-15T10:40:34Z</time>
      </trkpt>
      <trkpt lat="45.94458" lon="4.99679">
        <ele>289</ele>
        <time>2016-11-15T10:40:35Z</time>
      </trkpt>
      <trkpt lat="45.94456" lon="4.99686">
        <ele>289</ele>
        <time>2016-11-15T10:40:36Z</time>
      </trkpt>
      <trkpt lat="45.94454" lon="4.99693">
        <ele>289</ele>
        <time>2016-11-15T10:40:37Z</time>
      </trkpt>
      <trkpt lat="45.94452" lon="4.997">
        <ele>289</ele>
        <time>2016-11-15T10:40:38Z</time>
      </trkpt>
      <trkpt lat="45.9445" lon="4.99706">
        <ele>289</ele>
        <time>2016-11-15T10:40:39Z</time>
      </trkpt>
      <trkpt lat="45.94448" lon="4.99712">
        <ele>289</ele>
        <time>2016-11-15T10:40:40Z</time>
      </trkpt>
      <trkpt lat="45.94445" lon="4.99718">
        <ele>289</ele>
        <time>2016-11-15T10:40:41Z</time>
      </trkpt>
      <trkpt lat="45.94442" lon="4.99724">
        <ele>289</ele>
        <time>2016-11-15T10:40:42Z</time>
      </trkpt>
      <trkpt lat="45.94439" lon="4.9973">
        <ele>289</ele>
        <time>2016-11-15T10:40:43Z</time>
      </trkpt>
      <trkpt lat="45.94437" lon="4.99737">
        <ele>289</ele>
        <time>2016-11-15T10:40:44Z</time>
      </trkpt>
      <trkpt lat="45.94434" lon="4.99744">
        <ele>289</ele>
        <time>2016-11-15T10:40:45Z</time>
      </trkpt>
      <trkpt lat="45.94431" lon="4.99751">
        <ele>289</ele>
        <time>2016-11-15T10:40:46Z</time>
      </trkpt>
      <trkpt lat="45.94426" lon="4.99761">
        <ele>289</ele>
        <time>2016-11-15T10:40:48Z</time>
      </trkpt>
      <trkpt lat="45.94423" lon="4.99767">
        <ele>289</ele>
        <time>2016-11-15T10:40:49Z</time>
      </trkpt>
      <trkpt lat="45.9442" lon="4.99773">
        <ele>288</ele>
        <time>2016-11-15T10:40:50Z</time>
      </trkpt>
      <trkpt lat="45.94417" lon="4.99778">
        <ele>288</ele>
        <time>2016-11-15T10:40:51Z</time>
      </trkpt>
      <trkpt lat="45.94413" lon="4.99788">
        <ele>290</ele>
        <time>2016-11-15T10:40:53Z</time>
      </trkpt>
      <trkpt lat="45.9441" lon="4.99792">
        <ele>290</ele>
        <time>2016-11-15T10:40:54Z</time>
      </trkpt>
      <trkpt lat="45.94406" lon="4.99802">
        <ele>290</ele>
        <time>2016-11-15T10:40:56Z</time>
      </trkpt>
      <trkpt lat="45.94404" lon="4.99806">
        <ele>290</ele>
        <time>2016-11-15T10:40:57Z</time>
      </trkpt>
      <trkpt lat="45.94399" lon="4.99817">
        <ele>290</ele>
        <time>2016-11-15T10:40:59Z</time>
      </trkpt>
      <trkpt lat="45.94397" lon="4.99822">
        <ele>290</ele>
        <time>2016-11-15T10:41:00Z</time>
      </trkpt>
      <trkpt lat="45.94392" lon="4.99832">
        <ele>290</ele>
        <time>2016-11-15T10:41:02Z</time>
      </trkpt>
      <trkpt lat="45.94389" lon="4.99836">
        <ele>290</ele>
        <time>2016-11-15T10:41:03Z</time>
      </trkpt>
      <trkpt lat="45.94387" lon="4.99842">
        <ele>290</ele>
        <time>2016-11-15T10:41:04Z</time>
      </trkpt>
      <trkpt lat="45.94384" lon="4.99847">
        <ele>290</ele>
        <time>2016-11-15T10:41:05Z</time>
      </trkpt>
      <trkpt lat="45.9438" lon="4.99858">
        <ele>290</ele>
        <time>2016-11-15T10:41:07Z</time>
      </trkpt>
      <trkpt lat="45.94377" lon="4.99863">
        <ele>290</ele>
        <time>2016-11-15T10:41:08Z</time>
      </trkpt>
      <trkpt lat="45.94375" lon="4.99869">
        <ele>290</ele>
        <time>2016-11-15T10:41:09Z</time>
      </trkpt>
      <trkpt lat="45.94372" lon="4.99875">
        <ele>290</ele>
        <time>2016-11-15T10:41:10Z</time>
      </trkpt>
      <trkpt lat="45.94369" lon="4.99881">
        <ele>290</ele>
        <time>2016-11-15T10:41:11Z</time>
      </trkpt>
      <trkpt lat="45.94367" lon="4.99887">
        <ele>290</ele>
        <time>2016-11-15T10:41:12Z</time>
      </trkpt>
      <trkpt lat="45.94364" lon="4.99894">
        <ele>290</ele>
        <time>2016-11-15T10:41:13Z</time>
      </trkpt>
      <trkpt lat="45.94362" lon="4.999">
        <ele>290</ele>
        <time>2016-11-15T10:41:14Z</time>
      </trkpt>
      <trkpt lat="45.94359" lon="4.99906">
        <ele>290</ele>
        <time>2016-11-15T10:41:15Z</time>
      </trkpt>
      <trkpt lat="45.94356" lon="4.99913">
        <ele>290</ele>
        <time>2016-11-15T10:41:16Z</time>
      </trkpt>
      <trkpt lat="45.94352" lon="4.99921">
        <ele>290</ele>
        <time>2016-11-15T10:41:17Z</time>
      </trkpt>
      <trkpt lat="45.94349" lon="4.99927">
        <ele>290</ele>
        <time>2016-11-15T10:41:18Z</time>
      </trkpt>
      <trkpt lat="45.94345" lon="4.99934">
        <ele>290</ele>
        <time>2016-11-15T10:41:19Z</time>
      </trkpt>
      <trkpt lat="45.94343" lon="4.9994">
        <ele>290</ele>
        <time>2016-11-15T10:41:20Z</time>
      </trkpt>
      <trkpt lat="45.94341" lon="4.99946">
        <ele>290</ele>
        <time>2016-11-15T10:41:21Z</time>
      </trkpt>
      <trkpt lat="45.94338" lon="4.99953">
        <ele>290</ele>
        <time>2016-11-15T10:41:22Z</time>
      </trkpt>
      <trkpt lat="45.94336" lon="4.99959">
        <ele>290</ele>
        <time>2016-11-15T10:41:23Z</time>
      </trkpt>
      <trkpt lat="45.94334" lon="4.99965">
        <ele>290</ele>
        <time>2016-11-15T10:41:24Z</time>
      </trkpt>
      <trkpt lat="45.94331" lon="4.99972">
        <ele>291</ele>
        <time>2016-11-15T10:41:25Z</time>
      </trkpt>
      <trkpt lat="45.94328" lon="4.99979">
        <ele>291</ele>
        <time>2016-11-15T10:41:26Z</time>
      </trkpt>
      <trkpt lat="45.94325" lon="4.99985">
        <ele>291</ele>
        <time>2016-11-15T10:41:27Z</time>
      </trkpt>
      <trkpt lat="45.94322" lon="4.99992">
        <ele>291</ele>
        <time>2016-11-15T10:41:28Z</time>
      </trkpt>
      <trkpt lat="45.9432" lon="5">
        <ele>291</ele>
        <time>2016-11-15T10:41:29Z</time>
      </trkpt>
      <trkpt lat="45.94317" lon="5.00007">
        <ele>291</ele>
        <time>2016-11-15T10:41:30Z</time>
      </trkpt>
      <trkpt lat="45.94314" lon="5.00014">
        <ele>291</ele>
        <time>2016-11-15T10:41:31Z</time>
      </trkpt>
      <trkpt lat="45.94312" lon="5.0002">
        <ele>290</ele>
        <time>2016-11-15T10:41:32Z</time>
      </trkpt>
      <trkpt lat="45.94306" lon="5.00029">
        <ele>290</ele>
        <time>2016-11-15T10:41:34Z</time>
      </trkpt>
      <trkpt lat="45.94303" lon="5.00035">
        <ele>290</ele>
        <time>2016-11-15T10:41:35Z</time>
      </trkpt>
      <trkpt lat="45.943" lon="5.00041">
        <ele>290</ele>
        <time>2016-11-15T10:41:36Z</time>
      </trkpt>
      <trkpt lat="45.94297" lon="5.00047">
        <ele>290</ele>
        <time>2016-11-15T10:41:37Z</time>
      </trkpt>
      <trkpt lat="45.94293" lon="5.00052">
        <ele>290</ele>
        <time>2016-11-15T10:41:38Z</time>
      </trkpt>
      <trkpt lat="45.94289" lon="5.00058">
        <ele>290</ele>
        <time>2016-11-15T10:41:39Z</time>
      </trkpt>
      <trkpt lat="45.94285" lon="5.00065">
        <ele>290</ele>
        <time>2016-11-15T10:41:40Z</time>
      </trkpt>
      <trkpt lat="45.94281" lon="5.00071">
        <ele>290</ele>
        <time>2016-11-15T10:41:41Z</time>
      </trkpt>
      <trkpt lat="45.94277" lon="5.00078">
        <ele>290</ele>
        <time>2016-11-15T10:41:42Z</time>
      </trkpt>
      <trkpt lat="45.94273" lon="5.00085">
        <ele>289</ele>
        <time>2016-11-15T10:41:43Z</time>
      </trkpt>
      <trkpt lat="45.94269" lon="5.00091">
        <ele>289</ele>
        <time>2016-11-15T10:41:44Z</time>
      </trkpt>
      <trkpt lat="45.94265" lon="5.00097">
        <ele>289</ele>
        <time>2016-11-15T10:41:45Z</time>
      </trkpt>
      <trkpt lat="45.94261" lon="5.00104">
        <ele>289</ele>
        <time>2016-11-15T10:41:46Z</time>
      </trkpt>
      <trkpt lat="45.94257" lon="5.0011">
        <ele>289</ele>
        <time>2016-11-15T10:41:47Z</time>
      </trkpt>
      <trkpt lat="45.94252" lon="5.00117">
        <ele>289</ele>
        <time>2016-11-15T10:41:48Z</time>
      </trkpt>
      <trkpt lat="45.94248" lon="5.00123">
        <ele>288</ele>
        <time>2016-11-15T10:41:49Z</time>
      </trkpt>
      <trkpt lat="45.94244" lon="5.00129">
        <ele>288</ele>
        <time>2016-11-15T10:41:50Z</time>
      </trkpt>
      <trkpt lat="45.9424" lon="5.00136">
        <ele>288</ele>
        <time>2016-11-15T10:41:51Z</time>
      </trkpt>
      <trkpt lat="45.94235" lon="5.00142">
        <ele>288</ele>
        <time>2016-11-15T10:41:52Z</time>
      </trkpt>
      <trkpt lat="45.94231" lon="5.00149">
        <ele>288</ele>
        <time>2016-11-15T10:41:53Z</time>
      </trkpt>
      <trkpt lat="45.94227" lon="5.00155">
        <ele>287</ele>
        <time>2016-11-15T10:41:54Z</time>
      </trkpt>
      <trkpt lat="45.94223" lon="5.00161">
        <ele>287</ele>
        <time>2016-11-15T10:41:55Z</time>
      </trkpt>
      <trkpt lat="45.94218" lon="5.00168">
        <ele>287</ele>
        <time>2016-11-15T10:41:56Z</time>
      </trkpt>
      <trkpt lat="45.94214" lon="5.00174">
        <ele>287</ele>
        <time>2016-11-15T10:41:57Z</time>
      </trkpt>
      <trkpt lat="45.9421" lon="5.00181">
        <ele>287</ele>
        <time>2016-11-15T10:41:58Z</time>
      </trkpt>
      <trkpt lat="45.94205" lon="5.00187">
        <ele>287</ele>
        <time>2016-11-15T10:41:59Z</time>
      </trkpt>
      <trkpt lat="45.94201" lon="5.00194">
        <ele>287</ele>
        <time>2016-11-15T10:42:00Z</time>
      </trkpt>
      <trkpt lat="45.94197" lon="5.002">
        <ele>287</ele>
        <time>2016-11-15T10:42:01Z</time>
      </trkpt>
      <trkpt lat="45.94193" lon="5.00206">
        <ele>287</ele>
        <time>2016-11-15T10:42:02Z</time>
      </trkpt>
      <trkpt lat="45.94188" lon="5.00212">
        <ele>286</ele>
        <time>2016-11-15T10:42:03Z</time>
      </trkpt>
      <trkpt lat="45.94184" lon="5.00219">
        <ele>286</ele>
        <time>2016-11-15T10:42:04Z</time>
      </trkpt>
      <trkpt lat="45.94179" lon="5.00225">
        <ele>286</ele>
        <time>2016-11-15T10:42:05Z</time>
      </trkpt>
      <trkpt lat="45.94175" lon="5.00231">
        <ele>286</ele>
        <time>2016-11-15T10:42:06Z</time>
      </trkpt>
      <trkpt lat="45.9417" lon="5.00237">
        <ele>286</ele>
        <time>2016-11-15T10:42:07Z</time>
      </trkpt>
      <trkpt lat="45.94166" lon="5.00244">
        <ele>285</ele>
        <time>2016-11-15T10:42:08Z</time>
      </trkpt>
      <trkpt lat="45.94162" lon="5.00251">
        <ele>285</ele>
        <time>2016-11-15T10:42:09Z</time>
      </trkpt>
      <trkpt lat="45.94157" lon="5.00258">
        <ele>285</ele>
        <time>2016-11-15T10:42:10Z</time>
      </trkpt>
      <trkpt lat="45.94153" lon="5.00264">
        <ele>285</ele>
        <time>2016-11-15T10:42:11Z</time>
      </trkpt>
      <trkpt lat="45.94148" lon="5.00271">
        <ele>285</ele>
        <time>2016-11-15T10:42:12Z</time>
      </trkpt>
      <trkpt lat="45.94143" lon="5.00278">
        <ele>285</ele>
        <time>2016-11-15T10:42:13Z</time>
      </trkpt>
      <trkpt lat="45.94139" lon="5.00285">
        <ele>285</ele>
        <time>2016-11-15T10:42:14Z</time>
      </trkpt>
      <trkpt lat="45.94135" lon="5.00292">
        <ele>285</ele>
        <time>2016-11-15T10:42:15Z</time>
      </trkpt>
      <trkpt lat="45.94131" lon="5.00298">
        <ele>285</ele>
        <time>2016-11-15T10:42:16Z</time>
      </trkpt>
      <trkpt lat="45.94126" lon="5.00304">
        <ele>285</ele>
        <time>2016-11-15T10:42:17Z</time>
      </trkpt>
      <trkpt lat="45.94122" lon="5.0031">
        <ele>285</ele>
        <time>2016-11-15T10:42:18Z</time>
      </trkpt>
      <trkpt lat="45.94118" lon="5.00316">
        <ele>285</ele>
        <time>2016-11-15T10:42:19Z</time>
      </trkpt>
      <trkpt lat="45.94114" lon="5.00322">
        <ele>285</ele>
        <time>2016-11-15T10:42:20Z</time>
      </trkpt>
      <trkpt lat="45.94111" lon="5.00327">
        <ele>285</ele>
        <time>2016-11-15T10:42:21Z</time>
      </trkpt>
      <trkpt lat="45.94107" lon="5.00333">
        <ele>285</ele>
        <time>2016-11-15T10:42:22Z</time>
      </trkpt>
      <trkpt lat="45.94104" lon="5.00338">
        <ele>285</ele>
        <time>2016-11-15T10:42:23Z</time>
      </trkpt>
      <trkpt lat="45.941" lon="5.00344">
        <ele>285</ele>
        <time>2016-11-15T10:42:24Z</time>
      </trkpt>
      <trkpt lat="45.94096" lon="5.00348">
        <ele>285</ele>
        <time>2016-11-15T10:42:25Z</time>
      </trkpt>
      <trkpt lat="45.94091" lon="5.00352">
        <ele>286</ele>
        <time>2016-11-15T10:42:26Z</time>
      </trkpt>
      <trkpt lat="45.94087" lon="5.00356">
        <ele>286</ele>
        <time>2016-11-15T10:42:27Z</time>
      </trkpt>
      <trkpt lat="45.94082" lon="5.00358">
        <ele>285</ele>
        <time>2016-11-15T10:42:28Z</time>
      </trkpt>
      <trkpt lat="45.94077" lon="5.0036">
        <ele>285</ele>
        <time>2016-11-15T10:42:29Z</time>
      </trkpt>
      <trkpt lat="45.94072" lon="5.00361">
        <ele>285</ele>
        <time>2016-11-15T10:42:30Z</time>
      </trkpt>
      <trkpt lat="45.94068" lon="5.00362">
        <ele>285</ele>
        <time>2016-11-15T10:42:31Z</time>
      </trkpt>
      <trkpt lat="45.9406" lon="5.00363">
        <ele>285</ele>
        <time>2016-11-15T10:42:33Z</time>
      </trkpt>
      <trkpt lat="45.94056" lon="5.00362">
        <ele>285</ele>
        <time>2016-11-15T10:42:34Z</time>
      </trkpt>
      <trkpt lat="45.94047" lon="5.00362">
        <ele>285</ele>
        <time>2016-11-15T10:42:36Z</time>
      </trkpt>
      <trkpt lat="45.94042" lon="5.00362">
        <ele>285</ele>
        <time>2016-11-15T10:42:37Z</time>
      </trkpt>
      <trkpt lat="45.94037" lon="5.00361">
        <ele>285</ele>
        <time>2016-11-15T10:42:38Z</time>
      </trkpt>
      <trkpt lat="45.94031" lon="5.0036">
        <ele>285</ele>
        <time>2016-11-15T10:42:39Z</time>
      </trkpt>
      <trkpt lat="45.94026" lon="5.00359">
        <ele>285</ele>
        <time>2016-11-15T10:42:40Z</time>
      </trkpt>
      <trkpt lat="45.9402" lon="5.00357">
        <ele>285</ele>
        <time>2016-11-15T10:42:41Z</time>
      </trkpt>
      <trkpt lat="45.94014" lon="5.00356">
        <ele>285</ele>
        <time>2016-11-15T10:42:42Z</time>
      </trkpt>
      <trkpt lat="45.94009" lon="5.00355">
        <ele>285</ele>
        <time>2016-11-15T10:42:43Z</time>
      </trkpt>
      <trkpt lat="45.94004" lon="5.00354">
        <ele>285</ele>
        <time>2016-11-15T10:42:44Z</time>
      </trkpt>
      <trkpt lat="45.94" lon="5.00352">
        <ele>285</ele>
        <time>2016-11-15T10:42:45Z</time>
      </trkpt>
      <trkpt lat="45.93991" lon="5.00349">
        <ele>285</ele>
        <time>2016-11-15T10:42:47Z</time>
      </trkpt>
      <trkpt lat="45.93987" lon="5.00348">
        <ele>285</ele>
        <time>2016-11-15T10:42:48Z</time>
      </trkpt>
      <trkpt lat="45.93983" lon="5.00347">
        <ele>285</ele>
        <time>2016-11-15T10:42:49Z</time>
      </trkpt>
      <trkpt lat="45.93978" lon="5.00345">
        <ele>285</ele>
        <time>2016-11-15T10:42:50Z</time>
      </trkpt>
      <trkpt lat="45.93974" lon="5.00345">
        <ele>286</ele>
        <time>2016-11-15T10:42:51Z</time>
      </trkpt>
      <trkpt lat="45.93969" lon="5.00344">
        <ele>286</ele>
        <time>2016-11-15T10:42:52Z</time>
      </trkpt>
      <trkpt lat="45.93964" lon="5.00343">
        <ele>286</ele>
        <time>2016-11-15T10:42:53Z</time>
      </trkpt>
      <trkpt lat="45.93959" lon="5.00341">
        <ele>286</ele>
        <time>2016-11-15T10:42:54Z</time>
      </trkpt>
      <trkpt lat="45.93954" lon="5.00339">
        <ele>286</ele>
        <time>2016-11-15T10:42:55Z</time>
      </trkpt>
      <trkpt lat="45.9395" lon="5.00337">
        <ele>286</ele>
        <time>2016-11-15T10:42:56Z</time>
      </trkpt>
      <trkpt lat="45.93945" lon="5.00334">
        <ele>286</ele>
        <time>2016-11-15T10:42:57Z</time>
      </trkpt>
      <trkpt lat="45.9394" lon="5.00332">
        <ele>286</ele>
        <time>2016-11-15T10:42:58Z</time>
      </trkpt>
      <trkpt lat="45.93935" lon="5.00331">
        <ele>286</ele>
        <time>2016-11-15T10:42:59Z</time>
      </trkpt>
      <trkpt lat="45.9393" lon="5.0033">
        <ele>286</ele>
        <time>2016-11-15T10:43:00Z</time>
      </trkpt>
      <trkpt lat="45.93925" lon="5.00328">
        <ele>286</ele>
        <time>2016-11-15T10:43:01Z</time>
      </trkpt>
      <trkpt lat="45.9392" lon="5.00327">
        <ele>286</ele>
        <time>2016-11-15T10:43:02Z</time>
      </trkpt>
      <trkpt lat="45.93915" lon="5.00325">
        <ele>287</ele>
        <time>2016-11-15T10:43:03Z</time>
      </trkpt>
      <trkpt lat="45.93911" lon="5.00324">
        <ele>287</ele>
        <time>2016-11-15T10:43:04Z</time>
      </trkpt>
      <trkpt lat="45.93903" lon="5.00322">
        <ele>287</ele>
        <time>2016-11-15T10:43:06Z</time>
      </trkpt>
      <trkpt lat="45.93899" lon="5.00321">
        <ele>287</ele>
        <time>2016-11-15T10:43:07Z</time>
      </trkpt>
      <trkpt lat="45.9389" lon="5.00317">
        <ele>287</ele>
        <time>2016-11-15T10:43:09Z</time>
      </trkpt>
      <trkpt lat="45.93887" lon="5.00316">
        <ele>288</ele>
        <time>2016-11-15T10:43:10Z</time>
      </trkpt>
      <trkpt lat="45.93879" lon="5.00315">
        <ele>288</ele>
        <time>2016-11-15T10:43:12Z</time>
      </trkpt>
      <trkpt lat="45.93876" lon="5.00314">
        <ele>288</ele>
        <time>2016-11-15T10:43:13Z</time>
      </trkpt>
      <trkpt lat="45.93868" lon="5.00311">
        <ele>288</ele>
        <time>2016-11-15T10:43:15Z</time>
      </trkpt>
      <trkpt lat="45.93865" lon="5.0031">
        <ele>288</ele>
        <time>2016-11-15T10:43:16Z</time>
      </trkpt>
      <trkpt lat="45.93857" lon="5.00306">
        <ele>288</ele>
        <time>2016-11-15T10:43:18Z</time>
      </trkpt>
      <trkpt lat="45.93854" lon="5.00305">
        <ele>288</ele>
        <time>2016-11-15T10:43:19Z</time>
      </trkpt>
      <trkpt lat="45.93849" lon="5.00303">
        <ele>288</ele>
        <time>2016-11-15T10:43:20Z</time>
      </trkpt>
      <trkpt lat="45.93845" lon="5.00301">
        <ele>288</ele>
        <time>2016-11-15T10:43:21Z</time>
      </trkpt>
      <trkpt lat="45.93837" lon="5.00299">
        <ele>289</ele>
        <time>2016-11-15T10:43:23Z</time>
      </trkpt>
      <trkpt lat="45.93833" lon="5.00298">
        <ele>289</ele>
        <time>2016-11-15T10:43:24Z</time>
      </trkpt>
      <trkpt lat="45.93825" lon="5.00296">
        <ele>289</ele>
        <time>2016-11-15T10:43:26Z</time>
      </trkpt>
      <trkpt lat="45.93821" lon="5.00295">
        <ele>289</ele>
        <time>2016-11-15T10:43:27Z</time>
      </trkpt>
      <trkpt lat="45.93812" lon="5.00294">
        <ele>289</ele>
        <time>2016-11-15T10:43:29Z</time>
      </trkpt>
      <trkpt lat="45.93808" lon="5.00293">
        <ele>289</ele>
        <time>2016-11-15T10:43:30Z</time>
      </trkpt>
      <trkpt lat="45.93799" lon="5.00291">
        <ele>289</ele>
        <time>2016-11-15T10:43:32Z</time>
      </trkpt>
      <trkpt lat="45.93794" lon="5.00291">
        <ele>289</ele>
        <time>2016-11-15T10:43:33Z</time>
      </trkpt>
      <trkpt lat="45.93789" lon="5.0029">
        <ele>289</ele>
        <time>2016-11-15T10:43:34Z</time>
      </trkpt>
      <trkpt lat="45.93784" lon="5.0029">
        <ele>289</ele>
        <time>2016-11-15T10:43:35Z</time>
      </trkpt>
      <trkpt lat="45.9378" lon="5.00289">
        <ele>289</ele>
        <time>2016-11-15T10:43:36Z</time>
      </trkpt>
      <trkpt lat="45.93775" lon="5.00288">
        <ele>289</ele>
        <time>2016-11-15T10:43:37Z</time>
      </trkpt>
      <trkpt lat="45.9377" lon="5.00287">
        <ele>289</ele>
        <time>2016-11-15T10:43:38Z</time>
      </trkpt>
      <trkpt lat="45.93765" lon="5.00286">
        <ele>289</ele>
        <time>2016-11-15T10:43:39Z</time>
      </trkpt>
      <trkpt lat="45.9376" lon="5.00286">
        <ele>289</ele>
        <time>2016-11-15T10:43:40Z</time>
      </trkpt>
      <trkpt lat="45.93754" lon="5.00286">
        <ele>289</ele>
        <time>2016-11-15T10:43:41Z</time>
      </trkpt>
      <trkpt lat="45.93749" lon="5.00285">
        <ele>289</ele>
        <time>2016-11-15T10:43:42Z</time>
      </trkpt>
      <trkpt lat="45.93744" lon="5.00285">
        <ele>289</ele>
        <time>2016-11-15T10:43:43Z</time>
      </trkpt>
      <trkpt lat="45.93738" lon="5.00285">
        <ele>289</ele>
        <time>2016-11-15T10:43:44Z</time>
      </trkpt>
      <trkpt lat="45.93733" lon="5.00285">
        <ele>289</ele>
        <time>2016-11-15T10:43:45Z</time>
      </trkpt>
      <trkpt lat="45.93727" lon="5.00284">
        <ele>289</ele>
        <time>2016-11-15T10:43:46Z</time>
      </trkpt>
      <trkpt lat="45.93721" lon="5.00283">
        <ele>289</ele>
        <time>2016-11-15T10:43:47Z</time>
      </trkpt>
      <trkpt lat="45.93715" lon="5.00282">
        <ele>289</ele>
        <time>2016-11-15T10:43:48Z</time>
      </trkpt>
      <trkpt lat="45.93708" lon="5.00281">
        <ele>289</ele>
        <time>2016-11-15T10:43:49Z</time>
      </trkpt>
      <trkpt lat="45.93702" lon="5.00281">
        <ele>289</ele>
        <time>2016-11-15T10:43:50Z</time>
      </trkpt>
      <trkpt lat="45.93696" lon="5.0028">
        <ele>289</ele>
        <time>2016-11-15T10:43:51Z</time>
      </trkpt>
      <trkpt lat="45.93689" lon="5.0028">
        <ele>289</ele>
        <time>2016-11-15T10:43:52Z</time>
      </trkpt>
      <trkpt lat="45.93684" lon="5.0028">
        <ele>289</ele>
        <time>2016-11-15T10:43:53Z</time>
      </trkpt>
      <trkpt lat="45.93678" lon="5.0028">
        <ele>289</ele>
        <time>2016-11-15T10:43:54Z</time>
      </trkpt>
      <trkpt lat="45.93672" lon="5.00281">
        <ele>289</ele>
        <time>2016-11-15T10:43:55Z</time>
      </trkpt>
      <trkpt lat="45.93666" lon="5.00281">
        <ele>290</ele>
        <time>2016-11-15T10:43:56Z</time>
      </trkpt>
      <trkpt lat="45.9366" lon="5.00281">
        <ele>290</ele>
        <time>2016-11-15T10:43:57Z</time>
      </trkpt>
      <trkpt lat="45.93654" lon="5.00282">
        <ele>290</ele>
        <time>2016-11-15T10:43:58Z</time>
      </trkpt>
      <trkpt lat="45.93648" lon="5.00282">
        <ele>290</ele>
        <time>2016-11-15T10:43:59Z</time>
      </trkpt>
      <trkpt lat="45.93642" lon="5.00284">
        <ele>290</ele>
        <time>2016-11-15T10:44:00Z</time>
      </trkpt>
      <trkpt lat="45.93637" lon="5.00285">
        <ele>290</ele>
        <time>2016-11-15T10:44:01Z</time>
      </trkpt>
      <trkpt lat="45.93631" lon="5.00286">
        <ele>290</ele>
        <time>2016-11-15T10:44:02Z</time>
      </trkpt>
      <trkpt lat="45.93626" lon="5.00287">
        <ele>290</ele>
        <time>2016-11-15T10:44:03Z</time>
      </trkpt>
      <trkpt lat="45.93621" lon="5.00288">
        <ele>291</ele>
        <time>2016-11-15T10:44:04Z</time>
      </trkpt>
      <trkpt lat="45.93615" lon="5.00289">
        <ele>291</ele>
        <time>2016-11-15T10:44:05Z</time>
      </trkpt>
      <trkpt lat="45.9361" lon="5.0029">
        <ele>291</ele>
        <time>2016-11-15T10:44:06Z</time>
      </trkpt>
      <trkpt lat="45.93604" lon="5.00291">
        <ele>291</ele>
        <time>2016-11-15T10:44:07Z</time>
      </trkpt>
      <trkpt lat="45.93599" lon="5.00292">
        <ele>291</ele>
        <time>2016-11-15T10:44:08Z</time>
      </trkpt>
      <trkpt lat="45.93594" lon="5.00294">
        <ele>291</ele>
        <time>2016-11-15T10:44:09Z</time>
      </trkpt>
      <trkpt lat="45.93589" lon="5.00296">
        <ele>291</ele>
        <time>2016-11-15T10:44:10Z</time>
      </trkpt>
      <trkpt lat="45.93583" lon="5.00298">
        <ele>292</ele>
        <time>2016-11-15T10:44:11Z</time>
      </trkpt>
      <trkpt lat="45.93577" lon="5.00299">
        <ele>292</ele>
        <time>2016-11-15T10:44:12Z</time>
      </trkpt>
      <trkpt lat="45.93572" lon="5.00299">
        <ele>292</ele>
        <time>2016-11-15T10:44:13Z</time>
      </trkpt>
      <trkpt lat="45.93566" lon="5.00301">
        <ele>292</ele>
        <time>2016-11-15T10:44:14Z</time>
      </trkpt>
      <trkpt lat="45.93561" lon="5.00302">
        <ele>292</ele>
        <time>2016-11-15T10:44:15Z</time>
      </trkpt>
      <trkpt lat="45.93555" lon="5.00303">
        <ele>292</ele>
        <time>2016-11-15T10:44:16Z</time>
      </trkpt>
      <trkpt lat="45.9355" lon="5.00305">
        <ele>292</ele>
        <time>2016-11-15T10:44:17Z</time>
      </trkpt>
      <trkpt lat="45.93544" lon="5.00307">
        <ele>292</ele>
        <time>2016-11-15T10:44:18Z</time>
      </trkpt>
      <trkpt lat="45.9354" lon="5.00309">
        <ele>292</ele>
        <time>2016-11-15T10:44:19Z</time>
      </trkpt>
      <trkpt lat="45.93535" lon="5.00311">
        <ele>292</ele>
        <time>2016-11-15T10:44:20Z</time>
      </trkpt>
      <trkpt lat="45.9353" lon="5.00313">
        <ele>292</ele>
        <time>2016-11-15T10:44:21Z</time>
      </trkpt>
      <trkpt lat="45.93525" lon="5.00315">
        <ele>292</ele>
        <time>2016-11-15T10:44:22Z</time>
      </trkpt>
      <trkpt lat="45.93521" lon="5.00317">
        <ele>292</ele>
        <time>2016-11-15T10:44:23Z</time>
      </trkpt>
      <trkpt lat="45.93516" lon="5.0032">
        <ele>292</ele>
        <time>2016-11-15T10:44:24Z</time>
      </trkpt>
      <trkpt lat="45.93511" lon="5.00321">
        <ele>292</ele>
        <time>2016-11-15T10:44:25Z</time>
      </trkpt>
      <trkpt lat="45.93506" lon="5.00323">
        <ele>292</ele>
        <time>2016-11-15T10:44:26Z</time>
      </trkpt>
      <trkpt lat="45.93501" lon="5.00325">
        <ele>293</ele>
        <time>2016-11-15T10:44:27Z</time>
      </trkpt>
      <trkpt lat="45.93497" lon="5.00327">
        <ele>293</ele>
        <time>2016-11-15T10:44:28Z</time>
      </trkpt>
      <trkpt lat="45.93492" lon="5.0033">
        <ele>293</ele>
        <time>2016-11-15T10:44:29Z</time>
      </trkpt>
      <trkpt lat="45.93487" lon="5.00333">
        <ele>293</ele>
        <time>2016-11-15T10:44:30Z</time>
      </trkpt>
      <trkpt lat="45.93483" lon="5.00336">
        <ele>294</ele>
        <time>2016-11-15T10:44:31Z</time>
      </trkpt>
      <trkpt lat="45.93478" lon="5.00339">
        <ele>294</ele>
        <time>2016-11-15T10:44:32Z</time>
      </trkpt>
      <trkpt lat="45.93473" lon="5.00342">
        <ele>295</ele>
        <time>2016-11-15T10:44:33Z</time>
      </trkpt>
      <trkpt lat="45.93468" lon="5.00345">
        <ele>295</ele>
        <time>2016-11-15T10:44:34Z</time>
      </trkpt>
      <trkpt lat="45.93464" lon="5.00348">
        <ele>295</ele>
        <time>2016-11-15T10:44:35Z</time>
      </trkpt>
      <trkpt lat="45.93459" lon="5.00351">
        <ele>295</ele>
        <time>2016-11-15T10:44:36Z</time>
      </trkpt>
      <trkpt lat="45.93454" lon="5.00355">
        <ele>295</ele>
        <time>2016-11-15T10:44:37Z</time>
      </trkpt>
      <trkpt lat="45.9345" lon="5.00357">
        <ele>295</ele>
        <time>2016-11-15T10:44:38Z</time>
      </trkpt>
      <trkpt lat="45.93445" lon="5.00361">
        <ele>296</ele>
        <time>2016-11-15T10:44:39Z</time>
      </trkpt>
      <trkpt lat="45.9344" lon="5.00364">
        <ele>296</ele>
        <time>2016-11-15T10:44:40Z</time>
      </trkpt>
      <trkpt lat="45.93436" lon="5.00367">
        <ele>296</ele>
        <time>2016-11-15T10:44:41Z</time>
      </trkpt>
      <trkpt lat="45.9343" lon="5.0037">
        <ele>296</ele>
        <time>2016-11-15T10:44:42Z</time>
      </trkpt>
      <trkpt lat="45.93425" lon="5.00374">
        <ele>296</ele>
        <time>2016-11-15T10:44:43Z</time>
      </trkpt>
      <trkpt lat="45.9342" lon="5.00376">
        <ele>296</ele>
        <time>2016-11-15T10:44:44Z</time>
      </trkpt>
      <trkpt lat="45.93415" lon="5.00379">
        <ele>297</ele>
        <time>2016-11-15T10:44:45Z</time>
      </trkpt>
      <trkpt lat="45.93407" lon="5.00384">
        <ele>297</ele>
        <time>2016-11-15T10:44:47Z</time>
      </trkpt>
      <trkpt lat="45.93403" lon="5.00387">
        <ele>297</ele>
        <time>2016-11-15T10:44:48Z</time>
      </trkpt>
      <trkpt lat="45.934" lon="5.0039">
        <ele>297</ele>
        <time>2016-11-15T10:44:49Z</time>
      </trkpt>
      <trkpt lat="45.93396" lon="5.00394">
        <ele>297</ele>
        <time>2016-11-15T10:44:50Z</time>
      </trkpt>
      <trkpt lat="45.93391" lon="5.00399">
        <ele>297</ele>
        <time>2016-11-15T10:44:51Z</time>
      </trkpt>
      <trkpt lat="45.93388" lon="5.00402">
        <ele>297</ele>
        <time>2016-11-15T10:44:52Z</time>
      </trkpt>
      <trkpt lat="45.93383" lon="5.00407">
        <ele>297</ele>
        <time>2016-11-15T10:44:53Z</time>
      </trkpt>
      <trkpt lat="45.93378" lon="5.00412">
        <ele>297</ele>
        <time>2016-11-15T10:44:54Z</time>
      </trkpt>
      <trkpt lat="45.93374" lon="5.00416">
        <ele>297</ele>
        <time>2016-11-15T10:44:55Z</time>
      </trkpt>
      <trkpt lat="45.93369" lon="5.0042">
        <ele>297</ele>
        <time>2016-11-15T10:44:56Z</time>
      </trkpt>
      <trkpt lat="45.93364" lon="5.00424">
        <ele>297</ele>
        <time>2016-11-15T10:44:57Z</time>
      </trkpt>
      <trkpt lat="45.93359" lon="5.00429">
        <ele>297</ele>
        <time>2016-11-15T10:44:58Z</time>
      </trkpt>
      <trkpt lat="45.93355" lon="5.00433">
        <ele>297</ele>
        <time>2016-11-15T10:44:59Z</time>
      </trkpt>
      <trkpt lat="45.9335" lon="5.00438">
        <ele>297</ele>
        <time>2016-11-15T10:45:00Z</time>
      </trkpt>
      <trkpt lat="45.93345" lon="5.00442">
        <ele>297</ele>
        <time>2016-11-15T10:45:01Z</time>
      </trkpt>
      <trkpt lat="45.9334" lon="5.00447">
        <ele>297</ele>
        <time>2016-11-15T10:45:02Z</time>
      </trkpt>
      <trkpt lat="45.93336" lon="5.00453">
        <ele>297</ele>
        <time>2016-11-15T10:45:03Z</time>
      </trkpt>
      <trkpt lat="45.93332" lon="5.00459">
        <ele>295</ele>
        <time>2016-11-15T10:45:04Z</time>
      </trkpt>
      <trkpt lat="45.93328" lon="5.00464">
        <ele>295</ele>
        <time>2016-11-15T10:45:05Z</time>
      </trkpt>
      <trkpt lat="45.93324" lon="5.00469">
        <ele>295</ele>
        <time>2016-11-15T10:45:06Z</time>
      </trkpt>
      <trkpt lat="45.93321" lon="5.00475">
        <ele>295</ele>
        <time>2016-11-15T10:45:07Z</time>
      </trkpt>
      <trkpt lat="45.93317" lon="5.00481">
        <ele>295</ele>
        <time>2016-11-15T10:45:08Z</time>
      </trkpt>
      <trkpt lat="45.93314" lon="5.00488">
        <ele>295</ele>
        <time>2016-11-15T10:45:09Z</time>
      </trkpt>
      <trkpt lat="45.93311" lon="5.00494">
        <ele>295</ele>
        <time>2016-11-15T10:45:10Z</time>
      </trkpt>
      <trkpt lat="45.93307" lon="5.00501">
        <ele>296</ele>
        <time>2016-11-15T10:45:11Z</time>
      </trkpt>
      <trkpt lat="45.93304" lon="5.00507">
        <ele>296</ele>
        <time>2016-11-15T10:45:12Z</time>
      </trkpt>
      <trkpt lat="45.93301" lon="5.00514">
        <ele>296</ele>
        <time>2016-11-15T10:45:13Z</time>
      </trkpt>
      <trkpt lat="45.93297" lon="5.00521">
        <ele>296</ele>
        <time>2016-11-15T10:45:14Z</time>
      </trkpt>
      <trkpt lat="45.93294" lon="5.00528">
        <ele>296</ele>
        <time>2016-11-15T10:45:15Z</time>
      </trkpt>
      <trkpt lat="45.93291" lon="5.00535">
        <ele>296</ele>
        <time>2016-11-15T10:45:16Z</time>
      </trkpt>
      <trkpt lat="45.93287" lon="5.00541">
        <ele>296</ele>
        <time>2016-11-15T10:45:17Z</time>
      </trkpt>
      <trkpt lat="45.93284" lon="5.00547">
        <ele>296</ele>
        <time>2016-11-15T10:45:18Z</time>
      </trkpt>
      <trkpt lat="45.9328" lon="5.00552">
        <ele>296</ele>
        <time>2016-11-15T10:45:19Z</time>
      </trkpt>
      <trkpt lat="45.93277" lon="5.00557">
        <ele>295</ele>
        <time>2016-11-15T10:45:20Z</time>
      </trkpt>
      <trkpt lat="45.93272" lon="5.00562">
        <ele>295</ele>
        <time>2016-11-15T10:45:21Z</time>
      </trkpt>
      <trkpt lat="45.93268" lon="5.00566">
        <ele>295</ele>
        <time>2016-11-15T10:45:22Z</time>
      </trkpt>
      <trkpt lat="45.93264" lon="5.00571">
        <ele>295</ele>
        <time>2016-11-15T10:45:23Z</time>
      </trkpt>
      <trkpt lat="45.93258" lon="5.00577">
        <ele>295</ele>
        <time>2016-11-15T10:45:24Z</time>
      </trkpt>
      <trkpt lat="45.93253" lon="5.00582">
        <ele>294</ele>
        <time>2016-11-15T10:45:25Z</time>
      </trkpt>
      <trkpt lat="45.93248" lon="5.00587">
        <ele>294</ele>
        <time>2016-11-15T10:45:26Z</time>
      </trkpt>
      <trkpt lat="45.93244" lon="5.00591">
        <ele>293</ele>
        <time>2016-11-15T10:45:27Z</time>
      </trkpt>
      <trkpt lat="45.9324" lon="5.00596">
        <ele>293</ele>
        <time>2016-11-15T10:45:28Z</time>
      </trkpt>
      <trkpt lat="45.93233" lon="5.00604">
        <ele>292</ele>
        <time>2016-11-15T10:45:30Z</time>
      </trkpt>
      <trkpt lat="45.9323" lon="5.00607">
        <ele>292</ele>
        <time>2016-11-15T10:45:31Z</time>
      </trkpt>
      <trkpt lat="45.93222" lon="5.00611">
        <ele>292</ele>
        <time>2016-11-15T10:45:33Z</time>
      </trkpt>
      <trkpt lat="45.93218" lon="5.00613">
        <ele>292</ele>
        <time>2016-11-15T10:45:34Z</time>
      </trkpt>
      <trkpt lat="45.93213" lon="5.00615">
        <ele>291</ele>
        <time>2016-11-15T10:45:35Z</time>
      </trkpt>
      <trkpt lat="45.93209" lon="5.00617">
        <ele>291</ele>
        <time>2016-11-15T10:45:36Z</time>
      </trkpt>
      <trkpt lat="45.93204" lon="5.00619">
        <ele>291</ele>
        <time>2016-11-15T10:45:37Z</time>
      </trkpt>
      <trkpt lat="45.93199" lon="5.0062">
        <ele>291</ele>
        <time>2016-11-15T10:45:38Z</time>
      </trkpt>
      <trkpt lat="45.93194" lon="5.00622">
        <ele>291</ele>
        <time>2016-11-15T10:45:39Z</time>
      </trkpt>
      <trkpt lat="45.93189" lon="5.00623">
        <ele>291</ele>
        <time>2016-11-15T10:45:40Z</time>
      </trkpt>
      <trkpt lat="45.93184" lon="5.00624">
        <ele>290</ele>
        <time>2016-11-15T10:45:41Z</time>
      </trkpt>
      <trkpt lat="45.93179" lon="5.00626">
        <ele>290</ele>
        <time>2016-11-15T10:45:42Z</time>
      </trkpt>
      <trkpt lat="45.93173" lon="5.00626">
        <ele>290</ele>
        <time>2016-11-15T10:45:43Z</time>
      </trkpt>
      <trkpt lat="45.93168" lon="5.00626">
        <ele>290</ele>
        <time>2016-11-15T10:45:44Z</time>
      </trkpt>
      <trkpt lat="45.93159" lon="5.00627">
        <ele>287</ele>
        <time>2016-11-15T10:45:46Z</time>
      </trkpt>
      <trkpt lat="45.93155" lon="5.00627">
        <ele>287</ele>
        <time>2016-11-15T10:45:47Z</time>
      </trkpt>
      <trkpt lat="45.93148" lon="5.00628">
        <ele>287</ele>
        <time>2016-11-15T10:45:49Z</time>
      </trkpt>
      <trkpt lat="45.93144" lon="5.00629">
        <ele>287</ele>
        <time>2016-11-15T10:45:50Z</time>
      </trkpt>
      <trkpt lat="45.9314" lon="5.00631">
        <ele>287</ele>
        <time>2016-11-15T10:45:51Z</time>
      </trkpt>
      <trkpt lat="45.93135" lon="5.00632">
        <ele>287</ele>
        <time>2016-11-15T10:45:52Z</time>
      </trkpt>
      <trkpt lat="45.9313" lon="5.00632">
        <ele>287</ele>
        <time>2016-11-15T10:45:53Z</time>
      </trkpt>
      <trkpt lat="45.93124" lon="5.00633">
        <ele>287</ele>
        <time>2016-11-15T10:45:54Z</time>
      </trkpt>
      <trkpt lat="45.93117" lon="5.00633">
        <ele>286</ele>
        <time>2016-11-15T10:45:55Z</time>
      </trkpt>
      <trkpt lat="45.93111" lon="5.00634">
        <ele>286</ele>
        <time>2016-11-15T10:45:56Z</time>
      </trkpt>
      <trkpt lat="45.93105" lon="5.00635">
        <ele>286</ele>
        <time>2016-11-15T10:45:57Z</time>
      </trkpt>
      <trkpt lat="45.931" lon="5.00637">
        <ele>286</ele>
        <time>2016-11-15T10:45:58Z</time>
      </trkpt>
      <trkpt lat="45.93094" lon="5.00637">
        <ele>286</ele>
        <time>2016-11-15T10:45:59Z</time>
      </trkpt>
      <trkpt lat="45.93089" lon="5.00638">
        <ele>286</ele>
        <time>2016-11-15T10:46:00Z</time>
      </trkpt>
      <trkpt lat="45.93083" lon="5.00639">
        <ele>286</ele>
        <time>2016-11-15T10:46:01Z</time>
      </trkpt>
      <trkpt lat="45.93078" lon="5.0064">
        <ele>286</ele>
        <time>2016-11-15T10:46:02Z</time>
      </trkpt>
      <trkpt lat="45.93073" lon="5.0064">
        <ele>286</ele>
        <time>2016-11-15T10:46:03Z</time>
      </trkpt>
      <trkpt lat="45.93068" lon="5.00641">
        <ele>286</ele>
        <time>2016-11-15T10:46:04Z</time>
      </trkpt>
      <trkpt lat="45.9306" lon="5.00642">
        <ele>286</ele>
        <time>2016-11-15T10:46:06Z</time>
      </trkpt>
      <trkpt lat="45.93055" lon="5.00643">
        <ele>286</ele>
        <time>2016-11-15T10:46:07Z</time>
      </trkpt>
      <trkpt lat="45.93051" lon="5.00644">
        <ele>286</ele>
        <time>2016-11-15T10:46:08Z</time>
      </trkpt>
      <trkpt lat="45.93046" lon="5.00645">
        <ele>286</ele>
        <time>2016-11-15T10:46:09Z</time>
      </trkpt>
      <trkpt lat="45.93038" lon="5.00646">
        <ele>286</ele>
        <time>2016-11-15T10:46:11Z</time>
      </trkpt>
      <trkpt lat="45.93034" lon="5.00646">
        <ele>286</ele>
        <time>2016-11-15T10:46:12Z</time>
      </trkpt>
      <trkpt lat="45.93027" lon="5.00648">
        <ele>286</ele>
        <time>2016-11-15T10:46:14Z</time>
      </trkpt>
      <trkpt lat="45.93023" lon="5.00649">
        <ele>286</ele>
        <time>2016-11-15T10:46:15Z</time>
      </trkpt>
      <trkpt lat="45.93014" lon="5.00652">
        <ele>286</ele>
        <time>2016-11-15T10:46:18Z</time>
      </trkpt>
      <trkpt lat="45.93011" lon="5.00653">
        <ele>286</ele>
        <time>2016-11-15T10:46:19Z</time>
      </trkpt>
      <trkpt lat="45.93003" lon="5.00655">
        <ele>287</ele>
        <time>2016-11-15T10:46:23Z</time>
      </trkpt>
      <trkpt lat="45.93002" lon="5.00655">
        <ele>287</ele>
        <time>2016-11-15T10:46:24Z</time>
      </trkpt>
      <trkpt lat="45.92994" lon="5.00659">
        <ele>287</ele>
        <time>2016-11-15T10:48:26Z</time>
      </trkpt>
      <trkpt lat="45.92991" lon="5.0066">
        <ele>287</ele>
        <time>2016-11-15T10:48:27Z</time>
      </trkpt>
      <trkpt lat="45.92986" lon="5.00661">
        <ele>287</ele>
        <time>2016-11-15T10:48:28Z</time>
      </trkpt>
      <trkpt lat="45.92982" lon="5.00663">
        <ele>287</ele>
        <time>2016-11-15T10:48:29Z</time>
      </trkpt>
      <trkpt lat="45.92974" lon="5.00665">
        <ele>287</ele>
        <time>2016-11-15T10:48:31Z</time>
      </trkpt>
      <trkpt lat="45.9297" lon="5.00667">
        <ele>287</ele>
        <time>2016-11-15T10:48:32Z</time>
      </trkpt>
      <trkpt lat="45.92963" lon="5.00672">
        <ele>287</ele>
        <time>2016-11-15T10:48:34Z</time>
      </trkpt>
      <trkpt lat="45.9296" lon="5.00675">
        <ele>287</ele>
        <time>2016-11-15T10:48:35Z</time>
      </trkpt>
      <trkpt lat="45.92953" lon="5.0068">
        <ele>287</ele>
        <time>2016-11-15T10:48:37Z</time>
      </trkpt>
      <trkpt lat="45.9295" lon="5.00682">
        <ele>287</ele>
        <time>2016-11-15T10:48:38Z</time>
      </trkpt>
      <trkpt lat="45.92943" lon="5.00687">
        <ele>287</ele>
        <time>2016-11-15T10:48:41Z</time>
      </trkpt>
      <trkpt lat="45.9294" lon="5.00688">
        <ele>287</ele>
        <time>2016-11-15T10:48:42Z</time>
      </trkpt>
      <trkpt lat="45.92933" lon="5.00693">
        <ele>287</ele>
        <time>2016-11-15T10:48:44Z</time>
      </trkpt>
      <trkpt lat="45.9293" lon="5.00696">
        <ele>287</ele>
        <time>2016-11-15T10:48:45Z</time>
      </trkpt>
      <trkpt lat="45.92922" lon="5.00701">
        <ele>287</ele>
        <time>2016-11-15T10:48:47Z</time>
      </trkpt>
      <trkpt lat="45.92918" lon="5.00705">
        <ele>287</ele>
        <time>2016-11-15T10:48:48Z</time>
      </trkpt>
      <trkpt lat="45.92914" lon="5.00708">
        <ele>287</ele>
        <time>2016-11-15T10:48:49Z</time>
      </trkpt>
      <trkpt lat="45.92909" lon="5.00712">
        <ele>288</ele>
        <time>2016-11-15T10:48:50Z</time>
      </trkpt>
      <trkpt lat="45.92905" lon="5.00715">
        <ele>288</ele>
        <time>2016-11-15T10:48:51Z</time>
      </trkpt>
      <trkpt lat="45.92901" lon="5.00718">
        <ele>288</ele>
        <time>2016-11-15T10:48:52Z</time>
      </trkpt>
      <trkpt lat="45.92893" lon="5.00723">
        <ele>288</ele>
        <time>2016-11-15T10:48:54Z</time>
      </trkpt>
      <trkpt lat="45.92889" lon="5.00726">
        <ele>288</ele>
        <time>2016-11-15T10:48:55Z</time>
      </trkpt>
      <trkpt lat="45.92881" lon="5.00732">
        <ele>288</ele>
        <time>2016-11-15T10:48:57Z</time>
      </trkpt>
      <trkpt lat="45.92877" lon="5.00735">
        <ele>288</ele>
        <time>2016-11-15T10:48:58Z</time>
      </trkpt>
      <trkpt lat="45.92872" lon="5.00739">
        <ele>287</ele>
        <time>2016-11-15T10:48:59Z</time>
      </trkpt>
      <trkpt lat="45.92868" lon="5.00743">
        <ele>287</ele>
        <time>2016-11-15T10:49:00Z</time>
      </trkpt>
      <trkpt lat="45.92863" lon="5.00747">
        <ele>287</ele>
        <time>2016-11-15T10:49:01Z</time>
      </trkpt>
      <trkpt lat="45.92859" lon="5.0075">
        <ele>287</ele>
        <time>2016-11-15T10:49:02Z</time>
      </trkpt>
      <trkpt lat="45.92854" lon="5.00754">
        <ele>287</ele>
        <time>2016-11-15T10:49:03Z</time>
      </trkpt>
      <trkpt lat="45.9285" lon="5.00759">
        <ele>287</ele>
        <time>2016-11-15T10:49:04Z</time>
      </trkpt>
      <trkpt lat="45.92847" lon="5.00765">
        <ele>287</ele>
        <time>2016-11-15T10:49:05Z</time>
      </trkpt>
      <trkpt lat="45.92844" lon="5.0077">
        <ele>287</ele>
        <time>2016-11-15T10:49:06Z</time>
      </trkpt>
      <trkpt lat="45.9284" lon="5.00776">
        <ele>287</ele>
        <time>2016-11-15T10:49:07Z</time>
      </trkpt>
      <trkpt lat="45.92837" lon="5.00782">
        <ele>287</ele>
        <time>2016-11-15T10:49:08Z</time>
      </trkpt>
      <trkpt lat="45.92834" lon="5.00788">
        <ele>287</ele>
        <time>2016-11-15T10:49:09Z</time>
      </trkpt>
      <trkpt lat="45.92831" lon="5.00794">
        <ele>287</ele>
        <time>2016-11-15T10:49:10Z</time>
      </trkpt>
      <trkpt lat="45.92828" lon="5.008">
        <ele>287</ele>
        <time>2016-11-15T10:49:11Z</time>
      </trkpt>
      <trkpt lat="45.92825" lon="5.00807">
        <ele>287</ele>
        <time>2016-11-15T10:49:12Z</time>
      </trkpt>
      <trkpt lat="45.92822" lon="5.00813">
        <ele>287</ele>
        <time>2016-11-15T10:49:13Z</time>
      </trkpt>
      <trkpt lat="45.92819" lon="5.0082">
        <ele>287</ele>
        <time>2016-11-15T10:49:14Z</time>
      </trkpt>
      <trkpt lat="45.92816" lon="5.00826">
        <ele>287</ele>
        <time>2016-11-15T10:49:15Z</time>
      </trkpt>
      <trkpt lat="45.92813" lon="5.00833">
        <ele>287</ele>
        <time>2016-11-15T10:49:16Z</time>
      </trkpt>
      <trkpt lat="45.9281" lon="5.00839">
        <ele>287</ele>
        <time>2016-11-15T10:49:17Z</time>
      </trkpt>
      <trkpt lat="45.92806" lon="5.00845">
        <ele>287</ele>
        <time>2016-11-15T10:49:18Z</time>
      </trkpt>
      <trkpt lat="45.92803" lon="5.00852">
        <ele>287</ele>
        <time>2016-11-15T10:49:19Z</time>
      </trkpt>
      <trkpt lat="45.928" lon="5.00858">
        <ele>287</ele>
        <time>2016-11-15T10:49:20Z</time>
      </trkpt>
      <trkpt lat="45.92796" lon="5.00863">
        <ele>287</ele>
        <time>2016-11-15T10:49:21Z</time>
      </trkpt>
      <trkpt lat="45.92793" lon="5.00869">
        <ele>287</ele>
        <time>2016-11-15T10:49:22Z</time>
      </trkpt>
      <trkpt lat="45.92789" lon="5.00875">
        <ele>287</ele>
        <time>2016-11-15T10:49:23Z</time>
      </trkpt>
      <trkpt lat="45.92786" lon="5.0088">
        <ele>287</ele>
        <time>2016-11-15T10:49:24Z</time>
      </trkpt>
      <trkpt lat="45.92782" lon="5.00885">
        <ele>287</ele>
        <time>2016-11-15T10:49:25Z</time>
      </trkpt>
      <trkpt lat="45.92778" lon="5.0089">
        <ele>287</ele>
        <time>2016-11-15T10:49:26Z</time>
      </trkpt>
      <trkpt lat="45.92774" lon="5.00895">
        <ele>287</ele>
        <time>2016-11-15T10:49:27Z</time>
      </trkpt>
      <trkpt lat="45.92769" lon="5.009">
        <ele>287</ele>
        <time>2016-11-15T10:49:28Z</time>
      </trkpt>
      <trkpt lat="45.92764" lon="5.00906">
        <ele>287</ele>
        <time>2016-11-15T10:49:29Z</time>
      </trkpt>
      <trkpt lat="45.9276" lon="5.00912">
        <ele>287</ele>
        <time>2016-11-15T10:49:30Z</time>
      </trkpt>
      <trkpt lat="45.92756" lon="5.00917">
        <ele>287</ele>
        <time>2016-11-15T10:49:31Z</time>
      </trkpt>
      <trkpt lat="45.92751" lon="5.00922">
        <ele>287</ele>
        <time>2016-11-15T10:49:32Z</time>
      </trkpt>
      <trkpt lat="45.92747" lon="5.00928">
        <ele>287</ele>
        <time>2016-11-15T10:49:33Z</time>
      </trkpt>
      <trkpt lat="45.92743" lon="5.00933">
        <ele>287</ele>
        <time>2016-11-15T10:49:34Z</time>
      </trkpt>
      <trkpt lat="45.92739" lon="5.00938">
        <ele>287</ele>
        <time>2016-11-15T10:49:35Z</time>
      </trkpt>
      <trkpt lat="45.92735" lon="5.00943">
        <ele>287</ele>
        <time>2016-11-15T10:49:36Z</time>
      </trkpt>
      <trkpt lat="45.92731" lon="5.00947">
        <ele>287</ele>
        <time>2016-11-15T10:49:37Z</time>
      </trkpt>
      <trkpt lat="45.92727" lon="5.00952">
        <ele>287</ele>
        <time>2016-11-15T10:49:38Z</time>
      </trkpt>
      <trkpt lat="45.92723" lon="5.00956">
        <ele>287</ele>
        <time>2016-11-15T10:49:39Z</time>
      </trkpt>
      <trkpt lat="45.9272" lon="5.0096">
        <ele>287</ele>
        <time>2016-11-15T10:49:40Z</time>
      </trkpt>
      <trkpt lat="45.92716" lon="5.00965">
        <ele>287</ele>
        <time>2016-11-15T10:49:41Z</time>
      </trkpt>
      <trkpt lat="45.92712" lon="5.00969">
        <ele>287</ele>
        <time>2016-11-15T10:49:42Z</time>
      </trkpt>
      <trkpt lat="45.92709" lon="5.00973">
        <ele>287</ele>
        <time>2016-11-15T10:49:43Z</time>
      </trkpt>
      <trkpt lat="45.92706" lon="5.00978">
        <ele>287</ele>
        <time>2016-11-15T10:49:44Z</time>
      </trkpt>
      <trkpt lat="45.92702" lon="5.00982">
        <ele>287</ele>
        <time>2016-11-15T10:49:45Z</time>
      </trkpt>
      <trkpt lat="45.92698" lon="5.00987">
        <ele>287</ele>
        <time>2016-11-15T10:49:46Z</time>
      </trkpt>
      <trkpt lat="45.92695" lon="5.0099">
        <ele>287</ele>
        <time>2016-11-15T10:49:47Z</time>
      </trkpt>
      <trkpt lat="45.92691" lon="5.00994">
        <ele>288</ele>
        <time>2016-11-15T10:49:48Z</time>
      </trkpt>
      <trkpt lat="45.92687" lon="5.00999">
        <ele>288</ele>
        <time>2016-11-15T10:49:49Z</time>
      </trkpt>
      <trkpt lat="45.92682" lon="5.01003">
        <ele>288</ele>
        <time>2016-11-15T10:49:50Z</time>
      </trkpt>
      <trkpt lat="45.92678" lon="5.01006">
        <ele>289</ele>
        <time>2016-11-15T10:49:51Z</time>
      </trkpt>
      <trkpt lat="45.92673" lon="5.01009">
        <ele>289</ele>
        <time>2016-11-15T10:49:52Z</time>
      </trkpt>
      <trkpt lat="45.92665" lon="5.01012">
        <ele>289</ele>
        <time>2016-11-15T10:49:54Z</time>
      </trkpt>
      <trkpt lat="45.92661" lon="5.01014">
        <ele>289</ele>
        <time>2016-11-15T10:49:55Z</time>
      </trkpt>
      <trkpt lat="45.92653" lon="5.01016">
        <ele>289</ele>
        <time>2016-11-15T10:49:57Z</time>
      </trkpt>
      <trkpt lat="45.92649" lon="5.01018">
        <ele>289</ele>
        <time>2016-11-15T10:49:58Z</time>
      </trkpt>
      <trkpt lat="45.92642" lon="5.01021">
        <ele>289</ele>
        <time>2016-11-15T10:50:00Z</time>
      </trkpt>
      <trkpt lat="45.92638" lon="5.01022">
        <ele>289</ele>
        <time>2016-11-15T10:50:01Z</time>
      </trkpt>
      <trkpt lat="45.92631" lon="5.01022">
        <ele>288</ele>
        <time>2016-11-15T10:50:03Z</time>
      </trkpt>
      <trkpt lat="45.92626" lon="5.01024">
        <ele>288</ele>
        <time>2016-11-15T10:50:04Z</time>
      </trkpt>
      <trkpt lat="45.92618" lon="5.01027">
        <ele>288</ele>
        <time>2016-11-15T10:50:06Z</time>
      </trkpt>
      <trkpt lat="45.92613" lon="5.01028">
        <ele>288</ele>
        <time>2016-11-15T10:50:07Z</time>
      </trkpt>
      <trkpt lat="45.92605" lon="5.0103">
        <ele>288</ele>
        <time>2016-11-15T10:50:09Z</time>
      </trkpt>
      <trkpt lat="45.92601" lon="5.01031">
        <ele>288</ele>
        <time>2016-11-15T10:50:10Z</time>
      </trkpt>
      <trkpt lat="45.92594" lon="5.01033">
        <ele>288</ele>
        <time>2016-11-15T10:50:12Z</time>
      </trkpt>
      <trkpt lat="45.92589" lon="5.01035">
        <ele>288</ele>
        <time>2016-11-15T10:50:13Z</time>
      </trkpt>
      <trkpt lat="45.92581" lon="5.01039">
        <ele>288</ele>
        <time>2016-11-15T10:50:15Z</time>
      </trkpt>
      <trkpt lat="45.92577" lon="5.0104">
        <ele>288</ele>
        <time>2016-11-15T10:50:16Z</time>
      </trkpt>
      <trkpt lat="45.92568" lon="5.01043">
        <ele>288</ele>
        <time>2016-11-15T10:50:18Z</time>
      </trkpt>
      <trkpt lat="45.92563" lon="5.01045">
        <ele>288</ele>
        <time>2016-11-15T10:50:19Z</time>
      </trkpt>
      <trkpt lat="45.92558" lon="5.01047">
        <ele>288</ele>
        <time>2016-11-15T10:50:20Z</time>
      </trkpt>
      <trkpt lat="45.92553" lon="5.01049">
        <ele>288</ele>
        <time>2016-11-15T10:50:21Z</time>
      </trkpt>
      <trkpt lat="45.92545" lon="5.01053">
        <ele>288</ele>
        <time>2016-11-15T10:50:23Z</time>
      </trkpt>
      <trkpt lat="45.92541" lon="5.01054">
        <ele>288</ele>
        <time>2016-11-15T10:50:24Z</time>
      </trkpt>
      <trkpt lat="45.92533" lon="5.01056">
        <ele>288</ele>
        <time>2016-11-15T10:50:26Z</time>
      </trkpt>
      <trkpt lat="45.92529" lon="5.01057">
        <ele>288</ele>
        <time>2016-11-15T10:50:27Z</time>
      </trkpt>
      <trkpt lat="45.92521" lon="5.01058">
        <ele>288</ele>
        <time>2016-11-15T10:50:29Z</time>
      </trkpt>
      <trkpt lat="45.92517" lon="5.01058">
        <ele>288</ele>
        <time>2016-11-15T10:50:30Z</time>
      </trkpt>
      <trkpt lat="45.92508" lon="5.01059">
        <ele>288</ele>
        <time>2016-11-15T10:50:32Z</time>
      </trkpt>
      <trkpt lat="45.92504" lon="5.0106">
        <ele>288</ele>
        <time>2016-11-15T10:50:33Z</time>
      </trkpt>
      <trkpt lat="45.92495" lon="5.0106">
        <ele>288</ele>
        <time>2016-11-15T10:50:35Z</time>
      </trkpt>
      <trkpt lat="45.92491" lon="5.0106">
        <ele>288</ele>
        <time>2016-11-15T10:50:36Z</time>
      </trkpt>
      <trkpt lat="45.92483" lon="5.0106">
        <ele>288</ele>
        <time>2016-11-15T10:50:38Z</time>
      </trkpt>
      <trkpt lat="45.92478" lon="5.0106">
        <ele>288</ele>
        <time>2016-11-15T10:50:39Z</time>
      </trkpt>
      <trkpt lat="45.9247" lon="5.01062">
        <ele>288</ele>
        <time>2016-11-15T10:50:41Z</time>
      </trkpt>
      <trkpt lat="45.92465" lon="5.01063">
        <ele>288</ele>
        <time>2016-11-15T10:50:42Z</time>
      </trkpt>
      <trkpt lat="45.92461" lon="5.01064">
        <ele>288</ele>
        <time>2016-11-15T10:50:43Z</time>
      </trkpt>
      <trkpt lat="45.92456" lon="5.01065">
        <ele>288</ele>
        <time>2016-11-15T10:50:44Z</time>
      </trkpt>
      <trkpt lat="45.92451" lon="5.01066">
        <ele>288</ele>
        <time>2016-11-15T10:50:45Z</time>
      </trkpt>
      <trkpt lat="45.92446" lon="5.01066">
        <ele>288</ele>
        <time>2016-11-15T10:50:46Z</time>
      </trkpt>
      <trkpt lat="45.9244" lon="5.01067">
        <ele>288</ele>
        <time>2016-11-15T10:50:47Z</time>
      </trkpt>
      <trkpt lat="45.92435" lon="5.01067">
        <ele>289</ele>
        <time>2016-11-15T10:50:48Z</time>
      </trkpt>
      <trkpt lat="45.9243" lon="5.01068">
        <ele>289</ele>
        <time>2016-11-15T10:50:49Z</time>
      </trkpt>
      <trkpt lat="45.92424" lon="5.01069">
        <ele>289</ele>
        <time>2016-11-15T10:50:50Z</time>
      </trkpt>
      <trkpt lat="45.92419" lon="5.0107">
        <ele>289</ele>
        <time>2016-11-15T10:50:51Z</time>
      </trkpt>
      <trkpt lat="45.92414" lon="5.01071">
        <ele>288</ele>
        <time>2016-11-15T10:50:52Z</time>
      </trkpt>
      <trkpt lat="45.9241" lon="5.01073">
        <ele>288</ele>
        <time>2016-11-15T10:50:53Z</time>
      </trkpt>
      <trkpt lat="45.92406" lon="5.01075">
        <ele>288</ele>
        <time>2016-11-15T10:50:54Z</time>
      </trkpt>
      <trkpt lat="45.92401" lon="5.01078">
        <ele>288</ele>
        <time>2016-11-15T10:50:55Z</time>
      </trkpt>
      <trkpt lat="45.92397" lon="5.01081">
        <ele>288</ele>
        <time>2016-11-15T10:50:56Z</time>
      </trkpt>
      <trkpt lat="45.92391" lon="5.01087">
        <ele>288</ele>
        <time>2016-11-15T10:50:58Z</time>
      </trkpt>
      <trkpt lat="45.92388" lon="5.0109">
        <ele>288</ele>
        <time>2016-11-15T10:50:59Z</time>
      </trkpt>
      <trkpt lat="45.92382" lon="5.01097">
        <ele>288</ele>
        <time>2016-11-15T10:51:02Z</time>
      </trkpt>
      <trkpt lat="45.92379" lon="5.011">
        <ele>288</ele>
        <time>2016-11-15T10:51:03Z</time>
      </trkpt>
      <trkpt lat="45.92375" lon="5.01106">
        <ele>288</ele>
        <time>2016-11-15T10:51:05Z</time>
      </trkpt>
      <trkpt lat="45.92371" lon="5.0111">
        <ele>288</ele>
        <time>2016-11-15T10:51:06Z</time>
      </trkpt>
      <trkpt lat="45.92368" lon="5.01114">
        <ele>288</ele>
        <time>2016-11-15T10:51:07Z</time>
      </trkpt>
      <trkpt lat="45.92363" lon="5.01117">
        <ele>288</ele>
        <time>2016-11-15T10:51:08Z</time>
      </trkpt>
      <trkpt lat="45.92358" lon="5.0112">
        <ele>288</ele>
        <time>2016-11-15T10:51:09Z</time>
      </trkpt>
      <trkpt lat="45.92353" lon="5.01124">
        <ele>288</ele>
        <time>2016-11-15T10:51:10Z</time>
      </trkpt>
      <trkpt lat="45.92347" lon="5.01126">
        <ele>288</ele>
        <time>2016-11-15T10:51:11Z</time>
      </trkpt>
      <trkpt lat="45.92341" lon="5.01129">
        <ele>288</ele>
        <time>2016-11-15T10:51:12Z</time>
      </trkpt>
      <trkpt lat="45.92335" lon="5.01131">
        <ele>288</ele>
        <time>2016-11-15T10:51:13Z</time>
      </trkpt>
      <trkpt lat="45.92329" lon="5.01134">
        <ele>287</ele>
        <time>2016-11-15T10:51:14Z</time>
      </trkpt>
      <trkpt lat="45.92323" lon="5.01136">
        <ele>287</ele>
        <time>2016-11-15T10:51:15Z</time>
      </trkpt>
      <trkpt lat="45.92316" lon="5.01139">
        <ele>286</ele>
        <time>2016-11-15T10:51:16Z</time>
      </trkpt>
      <trkpt lat="45.92309" lon="5.01142">
        <ele>286</ele>
        <time>2016-11-15T10:51:17Z</time>
      </trkpt>
      <trkpt lat="45.92303" lon="5.01145">
        <ele>286</ele>
        <time>2016-11-15T10:51:18Z</time>
      </trkpt>
      <trkpt lat="45.92296" lon="5.01147">
        <ele>286</ele>
        <time>2016-11-15T10:51:19Z</time>
      </trkpt>
      <trkpt lat="45.92289" lon="5.0115">
        <ele>286</ele>
        <time>2016-11-15T10:51:20Z</time>
      </trkpt>
      <trkpt lat="45.92282" lon="5.01153">
        <ele>286</ele>
        <time>2016-11-15T10:51:21Z</time>
      </trkpt>
      <trkpt lat="45.92275" lon="5.01155">
        <ele>286</ele>
        <time>2016-11-15T10:51:22Z</time>
      </trkpt>
      <trkpt lat="45.92268" lon="5.01158">
        <ele>286</ele>
        <time>2016-11-15T10:51:23Z</time>
      </trkpt>
      <trkpt lat="45.92261" lon="5.01159">
        <ele>285</ele>
        <time>2016-11-15T10:51:24Z</time>
      </trkpt>
      <trkpt lat="45.92255" lon="5.01161">
        <ele>285</ele>
        <time>2016-11-15T10:51:25Z</time>
      </trkpt>
      <trkpt lat="45.92248" lon="5.01161">
        <ele>285</ele>
        <time>2016-11-15T10:51:26Z</time>
      </trkpt>
      <trkpt lat="45.92241" lon="5.01162">
        <ele>284</ele>
        <time>2016-11-15T10:51:27Z</time>
      </trkpt>
      <trkpt lat="45.92234" lon="5.01164">
        <ele>284</ele>
        <time>2016-11-15T10:51:28Z</time>
      </trkpt>
      <trkpt lat="45.92228" lon="5.01165">
        <ele>284</ele>
        <time>2016-11-15T10:51:29Z</time>
      </trkpt>
      <trkpt lat="45.92221" lon="5.01166">
        <ele>284</ele>
        <time>2016-11-15T10:51:30Z</time>
      </trkpt>
      <trkpt lat="45.92215" lon="5.01167">
        <ele>284</ele>
        <time>2016-11-15T10:51:31Z</time>
      </trkpt>
      <trkpt lat="45.92209" lon="5.01167">
        <ele>284</ele>
        <time>2016-11-15T10:51:32Z</time>
      </trkpt>
      <trkpt lat="45.92202" lon="5.01168">
        <ele>283</ele>
        <time>2016-11-15T10:51:33Z</time>
      </trkpt>
      <trkpt lat="45.92196" lon="5.01168">
        <ele>283</ele>
        <time>2016-11-15T10:51:34Z</time>
      </trkpt>
      <trkpt lat="45.92191" lon="5.01168">
        <ele>283</ele>
        <time>2016-11-15T10:51:35Z</time>
      </trkpt>
      <trkpt lat="45.92185" lon="5.0117">
        <ele>283</ele>
        <time>2016-11-15T10:51:36Z</time>
      </trkpt>
      <trkpt lat="45.92179" lon="5.01172">
        <ele>283</ele>
        <time>2016-11-15T10:51:37Z</time>
      </trkpt>
      <trkpt lat="45.92174" lon="5.01175">
        <ele>283</ele>
        <time>2016-11-15T10:51:38Z</time>
      </trkpt>
      <trkpt lat="45.92168" lon="5.01178">
        <ele>283</ele>
        <time>2016-11-15T10:51:39Z</time>
      </trkpt>
      <trkpt lat="45.92163" lon="5.01181">
        <ele>282</ele>
        <time>2016-11-15T10:51:40Z</time>
      </trkpt>
      <trkpt lat="45.92157" lon="5.01184">
        <ele>282</ele>
        <time>2016-11-15T10:51:41Z</time>
      </trkpt>
      <trkpt lat="45.92152" lon="5.01187">
        <ele>282</ele>
        <time>2016-11-15T10:51:42Z</time>
      </trkpt>
      <trkpt lat="45.92146" lon="5.01191">
        <ele>282</ele>
        <time>2016-11-15T10:51:43Z</time>
      </trkpt>
      <trkpt lat="45.92141" lon="5.01195">
        <ele>282</ele>
        <time>2016-11-15T10:51:44Z</time>
      </trkpt>
      <trkpt lat="45.92136" lon="5.01198">
        <ele>282</ele>
        <time>2016-11-15T10:51:45Z</time>
      </trkpt>
      <trkpt lat="45.9213" lon="5.01202">
        <ele>282</ele>
        <time>2016-11-15T10:51:46Z</time>
      </trkpt>
      <trkpt lat="45.92125" lon="5.01205">
        <ele>282</ele>
        <time>2016-11-15T10:51:47Z</time>
      </trkpt>
      <trkpt lat="45.9212" lon="5.01208">
        <ele>282</ele>
        <time>2016-11-15T10:51:48Z</time>
      </trkpt>
      <trkpt lat="45.92115" lon="5.01211">
        <ele>282</ele>
        <time>2016-11-15T10:51:49Z</time>
      </trkpt>
      <trkpt lat="45.9211" lon="5.01214">
        <ele>282</ele>
        <time>2016-11-15T10:51:50Z</time>
      </trkpt>
      <trkpt lat="45.92105" lon="5.01216">
        <ele>282</ele>
        <time>2016-11-15T10:51:51Z</time>
      </trkpt>
      <trkpt lat="45.92101" lon="5.01219">
        <ele>282</ele>
        <time>2016-11-15T10:51:52Z</time>
      </trkpt>
      <trkpt lat="45.92097" lon="5.01222">
        <ele>282</ele>
        <time>2016-11-15T10:51:53Z</time>
      </trkpt>
      <trkpt lat="45.92092" lon="5.01225">
        <ele>282</ele>
        <time>2016-11-15T10:51:54Z</time>
      </trkpt>
      <trkpt lat="45.92089" lon="5.01228">
        <ele>282</ele>
        <time>2016-11-15T10:51:55Z</time>
      </trkpt>
      <trkpt lat="45.92084" lon="5.01229">
        <ele>282</ele>
        <time>2016-11-15T10:51:56Z</time>
      </trkpt>
      <trkpt lat="45.92075" lon="5.0123">
        <ele>283</ele>
        <time>2016-11-15T10:52:00Z</time>
      </trkpt>
      <trkpt lat="45.92074" lon="5.01231">
        <ele>283</ele>
        <time>2016-11-15T10:52:01Z</time>
      </trkpt>
      <trkpt lat="45.92074" lon="5.0123">
        <ele>283</ele>
        <time>2016-11-15T10:52:35Z</time>
      </trkpt>
      <trkpt lat="45.92074" lon="5.01229">
        <ele>283</ele>
        <time>2016-11-15T10:52:36Z</time>
      </trkpt>
      <trkpt lat="45.92071" lon="5.01228">
        <ele>283</ele>
        <time>2016-11-15T10:52:41Z</time>
      </trkpt>
      <trkpt lat="45.92071" lon="5.01228">
        <ele>283</ele>
        <time>2016-11-15T10:52:42Z</time>
      </trkpt>
      <trkpt lat="45.92069" lon="5.01233">
        <ele>283</ele>
        <time>2016-11-15T10:53:50Z</time>
      </trkpt>
      <trkpt lat="45.92067" lon="5.0124">
        <ele>283</ele>
        <time>2016-11-15T10:53:51Z</time>
      </trkpt>
      <trkpt lat="45.92065" lon="5.01233">
        <ele>283</ele>
        <time>2016-11-15T10:56:19Z</time>
      </trkpt>
      <trkpt lat="45.9207" lon="5.01227">
        <ele>283</ele>
        <time>2016-11-15T10:56:20Z</time>
      </trkpt>
      <trkpt lat="45.92078" lon="5.01232">
        <ele>283</ele>
        <time>2016-11-15T11:01:47Z</time>
      </trkpt>
      <trkpt lat="45.92078" lon="5.01232">
        <ele>283</ele>
        <time>2016-11-15T11:01:48Z</time>
      </trkpt>
      <trkpt lat="45.92072" lon="5.01241">
        <ele>283</ele>
        <time>2016-11-15T11:02:38Z</time>
      </trkpt>
      <trkpt lat="45.92071" lon="5.01242">
        <ele>283</ele>
        <time>2016-11-15T11:02:39Z</time>
      </trkpt>
      <trkpt lat="45.92064" lon="5.01245">
        <ele>283</ele>
        <time>2016-11-15T11:02:43Z</time>
      </trkpt>
      <trkpt lat="45.92062" lon="5.01246">
        <ele>283</ele>
        <time>2016-11-15T11:02:44Z</time>
      </trkpt>
      <trkpt lat="45.92056" lon="5.01251">
        <ele>283</ele>
        <time>2016-11-15T11:02:48Z</time>
      </trkpt>
      <trkpt lat="45.92054" lon="5.01252">
        <ele>283</ele>
        <time>2016-11-15T11:02:49Z</time>
      </trkpt>
      <trkpt lat="45.92048" lon="5.01257">
        <ele>283</ele>
        <time>2016-11-15T11:02:53Z</time>
      </trkpt>
      <trkpt lat="45.92046" lon="5.01258">
        <ele>283</ele>
        <time>2016-11-15T11:02:54Z</time>
      </trkpt>
      <trkpt lat="45.92041" lon="5.01263">
        <ele>283</ele>
        <time>2016-11-15T11:02:57Z</time>
      </trkpt>
      <trkpt lat="45.92038" lon="5.01265">
        <ele>283</ele>
        <time>2016-11-15T11:02:58Z</time>
      </trkpt>
      <trkpt lat="45.92031" lon="5.01272">
        <ele>284</ele>
        <time>2016-11-15T11:03:01Z</time>
      </trkpt>
      <trkpt lat="45.92028" lon="5.01274">
        <ele>284</ele>
        <time>2016-11-15T11:03:02Z</time>
      </trkpt>
      <trkpt lat="45.92022" lon="5.01277">
        <ele>284</ele>
        <time>2016-11-15T11:03:04Z</time>
      </trkpt>
      <trkpt lat="45.92019" lon="5.01278">
        <ele>284</ele>
        <time>2016-11-15T11:03:05Z</time>
      </trkpt>
      <trkpt lat="45.92013" lon="5.0128">
        <ele>284</ele>
        <time>2016-11-15T11:03:07Z</time>
      </trkpt>
      <trkpt lat="45.92009" lon="5.0128">
        <ele>284</ele>
        <time>2016-11-15T11:03:08Z</time>
      </trkpt>
      <trkpt lat="45.92002" lon="5.01281">
        <ele>284</ele>
        <time>2016-11-15T11:03:10Z</time>
      </trkpt>
      <trkpt lat="45.91998" lon="5.01281">
        <ele>285</ele>
        <time>2016-11-15T11:03:11Z</time>
      </trkpt>
      <trkpt lat="45.91991" lon="5.01283">
        <ele>285</ele>
        <time>2016-11-15T11:03:13Z</time>
      </trkpt>
      <trkpt lat="45.91987" lon="5.01283">
        <ele>285</ele>
        <time>2016-11-15T11:03:14Z</time>
      </trkpt>
      <trkpt lat="45.9198" lon="5.01284">
        <ele>286</ele>
        <time>2016-11-15T11:03:16Z</time>
      </trkpt>
      <trkpt lat="45.91976" lon="5.01285">
        <ele>286</ele>
        <time>2016-11-15T11:03:17Z</time>
      </trkpt>
      <trkpt lat="45.91969" lon="5.01287">
        <ele>286</ele>
        <time>2016-11-15T11:03:19Z</time>
      </trkpt>
      <trkpt lat="45.91965" lon="5.01288">
        <ele>286</ele>
        <time>2016-11-15T11:03:20Z</time>
      </trkpt>
      <trkpt lat="45.91956" lon="5.01289">
        <ele>286</ele>
        <time>2016-11-15T11:03:22Z</time>
      </trkpt>
      <trkpt lat="45.91952" lon="5.0129">
        <ele>286</ele>
        <time>2016-11-15T11:03:23Z</time>
      </trkpt>
      <trkpt lat="45.91947" lon="5.01291">
        <ele>286</ele>
        <time>2016-11-15T11:03:24Z</time>
      </trkpt>
      <trkpt lat="45.91943" lon="5.01291">
        <ele>286</ele>
        <time>2016-11-15T11:03:25Z</time>
      </trkpt>
      <trkpt lat="45.91938" lon="5.01292">
        <ele>286</ele>
        <time>2016-11-15T11:03:26Z</time>
      </trkpt>
      <trkpt lat="45.91933" lon="5.01292">
        <ele>286</ele>
        <time>2016-11-15T11:03:27Z</time>
      </trkpt>
      <trkpt lat="45.91928" lon="5.01293">
        <ele>286</ele>
        <time>2016-11-15T11:03:28Z</time>
      </trkpt>
      <trkpt lat="45.91922" lon="5.01294">
        <ele>286</ele>
        <time>2016-11-15T11:03:29Z</time>
      </trkpt>
      <trkpt lat="45.91916" lon="5.01295">
        <ele>286</ele>
        <time>2016-11-15T11:03:30Z</time>
      </trkpt>
      <trkpt lat="45.9191" lon="5.01297">
        <ele>286</ele>
        <time>2016-11-15T11:03:31Z</time>
      </trkpt>
      <trkpt lat="45.91903" lon="5.01298">
        <ele>286</ele>
        <time>2016-11-15T11:03:32Z</time>
      </trkpt>
      <trkpt lat="45.91897" lon="5.01299">
        <ele>286</ele>
        <time>2016-11-15T11:03:33Z</time>
      </trkpt>
      <trkpt lat="45.91891" lon="5.013">
        <ele>286</ele>
        <time>2016-11-15T11:03:34Z</time>
      </trkpt>
      <trkpt lat="45.91885" lon="5.01301">
        <ele>285</ele>
        <time>2016-11-15T11:03:35Z</time>
      </trkpt>
      <trkpt lat="45.91879" lon="5.01302">
        <ele>285</ele>
        <time>2016-11-15T11:03:36Z</time>
      </trkpt>
      <trkpt lat="45.91873" lon="5.01303">
        <ele>285</ele>
        <time>2016-11-15T11:03:37Z</time>
      </trkpt>
      <trkpt lat="45.91866" lon="5.01304">
        <ele>285</ele>
        <time>2016-11-15T11:03:38Z</time>
      </trkpt>
      <trkpt lat="45.91859" lon="5.01306">
        <ele>285</ele>
        <time>2016-11-15T11:03:39Z</time>
      </trkpt>
      <trkpt lat="45.91852" lon="5.01307">
        <ele>285</ele>
        <time>2016-11-15T11:03:40Z</time>
      </trkpt>
      <trkpt lat="45.91845" lon="5.01309">
        <ele>284</ele>
        <time>2016-11-15T11:03:41Z</time>
      </trkpt>
      <trkpt lat="45.91836" lon="5.0131">
        <ele>284</ele>
        <time>2016-11-15T11:03:42Z</time>
      </trkpt>
      <trkpt lat="45.91829" lon="5.01311">
        <ele>283</ele>
        <time>2016-11-15T11:03:43Z</time>
      </trkpt>
      <trkpt lat="45.9182" lon="5.01311">
        <ele>283</ele>
        <time>2016-11-15T11:03:44Z</time>
      </trkpt>
      <trkpt lat="45.91812" lon="5.01312">
        <ele>283</ele>
        <time>2016-11-15T11:03:45Z</time>
      </trkpt>
      <trkpt lat="45.91805" lon="5.01314">
        <ele>283</ele>
        <time>2016-11-15T11:03:46Z</time>
      </trkpt>
      <trkpt lat="45.91797" lon="5.01317">
        <ele>283</ele>
        <time>2016-11-15T11:03:47Z</time>
      </trkpt>
      <trkpt lat="45.9179" lon="5.01319">
        <ele>283</ele>
        <time>2016-11-15T11:03:48Z</time>
      </trkpt>
      <trkpt lat="45.91782" lon="5.01322">
        <ele>282</ele>
        <time>2016-11-15T11:03:49Z</time>
      </trkpt>
      <trkpt lat="45.91775" lon="5.01325">
        <ele>282</ele>
        <time>2016-11-15T11:03:50Z</time>
      </trkpt>
      <trkpt lat="45.91769" lon="5.01329">
        <ele>282</ele>
        <time>2016-11-15T11:03:51Z</time>
      </trkpt>
      <trkpt lat="45.91762" lon="5.01332">
        <ele>282</ele>
        <time>2016-11-15T11:03:52Z</time>
      </trkpt>
      <trkpt lat="45.91756" lon="5.01335">
        <ele>281</ele>
        <time>2016-11-15T11:03:53Z</time>
      </trkpt>
      <trkpt lat="45.9175" lon="5.01338">
        <ele>281</ele>
        <time>2016-11-15T11:03:54Z</time>
      </trkpt>
      <trkpt lat="45.91744" lon="5.0134">
        <ele>281</ele>
        <time>2016-11-15T11:03:55Z</time>
      </trkpt>
      <trkpt lat="45.91738" lon="5.01344">
        <ele>281</ele>
        <time>2016-11-15T11:03:56Z</time>
      </trkpt>
      <trkpt lat="45.91732" lon="5.01346">
        <ele>281</ele>
        <time>2016-11-15T11:03:57Z</time>
      </trkpt>
      <trkpt lat="45.91726" lon="5.01349">
        <ele>280</ele>
        <time>2016-11-15T11:03:58Z</time>
      </trkpt>
      <trkpt lat="45.91719" lon="5.01353">
        <ele>280</ele>
        <time>2016-11-15T11:03:59Z</time>
      </trkpt>
      <trkpt lat="45.91712" lon="5.01356">
        <ele>280</ele>
        <time>2016-11-15T11:04:00Z</time>
      </trkpt>
      <trkpt lat="45.91705" lon="5.01359">
        <ele>280</ele>
        <time>2016-11-15T11:04:01Z</time>
      </trkpt>
      <trkpt lat="45.91698" lon="5.01363">
        <ele>280</ele>
        <time>2016-11-15T11:04:02Z</time>
      </trkpt>
      <trkpt lat="45.91691" lon="5.01366">
        <ele>280</ele>
        <time>2016-11-15T11:04:03Z</time>
      </trkpt>
      <trkpt lat="45.91684" lon="5.0137">
        <ele>280</ele>
        <time>2016-11-15T11:04:04Z</time>
      </trkpt>
      <trkpt lat="45.91677" lon="5.01373">
        <ele>280</ele>
        <time>2016-11-15T11:04:05Z</time>
      </trkpt>
      <trkpt lat="45.91671" lon="5.01377">
        <ele>280</ele>
        <time>2016-11-15T11:04:06Z</time>
      </trkpt>
      <trkpt lat="45.91664" lon="5.0138">
        <ele>280</ele>
        <time>2016-11-15T11:04:07Z</time>
      </trkpt>
      <trkpt lat="45.91658" lon="5.01384">
        <ele>280</ele>
        <time>2016-11-15T11:04:08Z</time>
      </trkpt>
      <trkpt lat="45.91652" lon="5.01387">
        <ele>280</ele>
        <time>2016-11-15T11:04:09Z</time>
      </trkpt>
      <trkpt lat="45.91646" lon="5.0139">
        <ele>280</ele>
        <time>2016-11-15T11:04:10Z</time>
      </trkpt>
      <trkpt lat="45.91639" lon="5.01393">
        <ele>280</ele>
        <time>2016-11-15T11:04:11Z</time>
      </trkpt>
      <trkpt lat="45.91633" lon="5.01397">
        <ele>280</ele>
        <time>2016-11-15T11:04:12Z</time>
      </trkpt>
      <trkpt lat="45.91628" lon="5.01402">
        <ele>280</ele>
        <time>2016-11-15T11:04:13Z</time>
      </trkpt>
      <trkpt lat="45.91622" lon="5.01407">
        <ele>280</ele>
        <time>2016-11-15T11:04:14Z</time>
      </trkpt>
      <trkpt lat="45.91617" lon="5.01413">
        <ele>280</ele>
        <time>2016-11-15T11:04:15Z</time>
      </trkpt>
      <trkpt lat="45.91611" lon="5.01419">
        <ele>280</ele>
        <time>2016-11-15T11:04:16Z</time>
      </trkpt>
      <trkpt lat="45.91606" lon="5.01425">
        <ele>280</ele>
        <time>2016-11-15T11:04:17Z</time>
      </trkpt>
      <trkpt lat="45.916" lon="5.01431">
        <ele>280</ele>
        <time>2016-11-15T11:04:18Z</time>
      </trkpt>
      <trkpt lat="45.91594" lon="5.01437">
        <ele>280</ele>
        <time>2016-11-15T11:04:19Z</time>
      </trkpt>
      <trkpt lat="45.91588" lon="5.01444">
        <ele>280</ele>
        <time>2016-11-15T11:04:20Z</time>
      </trkpt>
      <trkpt lat="45.91583" lon="5.0145">
        <ele>282</ele>
        <time>2016-11-15T11:04:21Z</time>
      </trkpt>
      <trkpt lat="45.91577" lon="5.01456">
        <ele>282</ele>
        <time>2016-11-15T11:04:22Z</time>
      </trkpt>
      <trkpt lat="45.91571" lon="5.01463">
        <ele>282</ele>
        <time>2016-11-15T11:04:23Z</time>
      </trkpt>
      <trkpt lat="45.91565" lon="5.01469">
        <ele>282</ele>
        <time>2016-11-15T11:04:24Z</time>
      </trkpt>
      <trkpt lat="45.91559" lon="5.01475">
        <ele>282</ele>
        <time>2016-11-15T11:04:25Z</time>
      </trkpt>
      <trkpt lat="45.91554" lon="5.01481">
        <ele>282</ele>
        <time>2016-11-15T11:04:26Z</time>
      </trkpt>
      <trkpt lat="45.91549" lon="5.01487">
        <ele>282</ele>
        <time>2016-11-15T11:04:27Z</time>
      </trkpt>
      <trkpt lat="45.91544" lon="5.01493">
        <ele>282</ele>
        <time>2016-11-15T11:04:28Z</time>
      </trkpt>
      <trkpt lat="45.91539" lon="5.01499">
        <ele>282</ele>
        <time>2016-11-15T11:04:29Z</time>
      </trkpt>
      <trkpt lat="45.91534" lon="5.01504">
        <ele>281</ele>
        <time>2016-11-15T11:04:30Z</time>
      </trkpt>
      <trkpt lat="45.91529" lon="5.01509">
        <ele>281</ele>
        <time>2016-11-15T11:04:31Z</time>
      </trkpt>
      <trkpt lat="45.91524" lon="5.01515">
        <ele>282</ele>
        <time>2016-11-15T11:04:32Z</time>
      </trkpt>
      <trkpt lat="45.9152" lon="5.01521">
        <ele>282</ele>
        <time>2016-11-15T11:04:33Z</time>
      </trkpt>
      <trkpt lat="45.91515" lon="5.01526">
        <ele>282</ele>
        <time>2016-11-15T11:04:34Z</time>
      </trkpt>
      <trkpt lat="45.91511" lon="5.01531">
        <ele>281</ele>
        <time>2016-11-15T11:04:35Z</time>
      </trkpt>
      <trkpt lat="45.91506" lon="5.01536">
        <ele>281</ele>
        <time>2016-11-15T11:04:36Z</time>
      </trkpt>
      <trkpt lat="45.91502" lon="5.01542">
        <ele>281</ele>
        <time>2016-11-15T11:04:37Z</time>
      </trkpt>
      <trkpt lat="45.91498" lon="5.01548">
        <ele>283</ele>
        <time>2016-11-15T11:04:38Z</time>
      </trkpt>
      <trkpt lat="45.91494" lon="5.01554">
        <ele>283</ele>
        <time>2016-11-15T11:04:39Z</time>
      </trkpt>
      <trkpt lat="45.9149" lon="5.0156">
        <ele>283</ele>
        <time>2016-11-15T11:04:40Z</time>
      </trkpt>
      <trkpt lat="45.91485" lon="5.01565">
        <ele>283</ele>
        <time>2016-11-15T11:04:41Z</time>
      </trkpt>
      <trkpt lat="45.91481" lon="5.01572">
        <ele>283</ele>
        <time>2016-11-15T11:04:42Z</time>
      </trkpt>
      <trkpt lat="45.91477" lon="5.01579">
        <ele>283</ele>
        <time>2016-11-15T11:04:43Z</time>
      </trkpt>
      <trkpt lat="45.91473" lon="5.01585">
        <ele>281</ele>
        <time>2016-11-15T11:04:44Z</time>
      </trkpt>
      <trkpt lat="45.91469" lon="5.01592">
        <ele>281</ele>
        <time>2016-11-15T11:04:45Z</time>
      </trkpt>
      <trkpt lat="45.91465" lon="5.01598">
        <ele>281</ele>
        <time>2016-11-15T11:04:46Z</time>
      </trkpt>
      <trkpt lat="45.9146" lon="5.01604">
        <ele>281</ele>
        <time>2016-11-15T11:04:47Z</time>
      </trkpt>
      <trkpt lat="45.91455" lon="5.0161">
        <ele>281</ele>
        <time>2016-11-15T11:04:48Z</time>
      </trkpt>
      <trkpt lat="45.91449" lon="5.01615">
        <ele>281</ele>
        <time>2016-11-15T11:04:49Z</time>
      </trkpt>
      <trkpt lat="45.91443" lon="5.01619">
        <ele>281</ele>
        <time>2016-11-15T11:04:50Z</time>
      </trkpt>
      <trkpt lat="45.91437" lon="5.01621">
        <ele>281</ele>
        <time>2016-11-15T11:04:51Z</time>
      </trkpt>
      <trkpt lat="45.9143" lon="5.01621">
        <ele>281</ele>
        <time>2016-11-15T11:04:52Z</time>
      </trkpt>
      <trkpt lat="45.91423" lon="5.0162">
        <ele>281</ele>
        <time>2016-11-15T11:04:53Z</time>
      </trkpt>
      <trkpt lat="45.91416" lon="5.01619">
        <ele>280</ele>
        <time>2016-11-15T11:04:54Z</time>
      </trkpt>
      <trkpt lat="45.91409" lon="5.01616">
        <ele>280</ele>
        <time>2016-11-15T11:04:55Z</time>
      </trkpt>
      <trkpt lat="45.91402" lon="5.01614">
        <ele>280</ele>
        <time>2016-11-15T11:04:56Z</time>
      </trkpt>
      <trkpt lat="45.91395" lon="5.01611">
        <ele>279</ele>
        <time>2016-11-15T11:04:57Z</time>
      </trkpt>
      <trkpt lat="45.91388" lon="5.01608">
        <ele>279</ele>
        <time>2016-11-15T11:04:58Z</time>
      </trkpt>
      <trkpt lat="45.91381" lon="5.01604">
        <ele>279</ele>
        <time>2016-11-15T11:04:59Z</time>
      </trkpt>
      <trkpt lat="45.91374" lon="5.01602">
        <ele>279</ele>
        <time>2016-11-15T11:05:00Z</time>
      </trkpt>
      <trkpt lat="45.91367" lon="5.01599">
        <ele>279</ele>
        <time>2016-11-15T11:05:01Z</time>
      </trkpt>
      <trkpt lat="45.91359" lon="5.01596">
        <ele>279</ele>
        <time>2016-11-15T11:05:02Z</time>
      </trkpt>
      <trkpt lat="45.91352" lon="5.01593">
        <ele>278</ele>
        <time>2016-11-15T11:05:03Z</time>
      </trkpt>
      <trkpt lat="45.91345" lon="5.01591">
        <ele>278</ele>
        <time>2016-11-15T11:05:04Z</time>
      </trkpt>
      <trkpt lat="45.91337" lon="5.01589">
        <ele>278</ele>
        <time>2016-11-15T11:05:05Z</time>
      </trkpt>
      <trkpt lat="45.91329" lon="5.01588">
        <ele>277</ele>
        <time>2016-11-15T11:05:06Z</time>
      </trkpt>
      <trkpt lat="45.91322" lon="5.01587">
        <ele>277</ele>
        <time>2016-11-15T11:05:07Z</time>
      </trkpt>
      <trkpt lat="45.91314" lon="5.01585">
        <ele>276</ele>
        <time>2016-11-15T11:05:08Z</time>
      </trkpt>
      <trkpt lat="45.91306" lon="5.01584">
        <ele>276</ele>
        <time>2016-11-15T11:05:09Z</time>
      </trkpt>
      <trkpt lat="45.91298" lon="5.01584">
        <ele>275</ele>
        <time>2016-11-15T11:05:10Z</time>
      </trkpt>
      <trkpt lat="45.91291" lon="5.01584">
        <ele>275</ele>
        <time>2016-11-15T11:05:11Z</time>
      </trkpt>
      <trkpt lat="45.91283" lon="5.01583">
        <ele>276</ele>
        <time>2016-11-15T11:05:12Z</time>
      </trkpt>
      <trkpt lat="45.91276" lon="5.01583">
        <ele>276</ele>
        <time>2016-11-15T11:05:13Z</time>
      </trkpt>
      <trkpt lat="45.91268" lon="5.01584">
        <ele>275</ele>
        <time>2016-11-15T11:05:14Z</time>
      </trkpt>
      <trkpt lat="45.9126" lon="5.01585">
        <ele>274</ele>
        <time>2016-11-15T11:05:15Z</time>
      </trkpt>
      <trkpt lat="45.91253" lon="5.01586">
        <ele>274</ele>
        <time>2016-11-15T11:05:16Z</time>
      </trkpt>
      <trkpt lat="45.91245" lon="5.01588">
        <ele>274</ele>
        <time>2016-11-15T11:05:17Z</time>
      </trkpt>
      <trkpt lat="45.91237" lon="5.0159">
        <ele>274</ele>
        <time>2016-11-15T11:05:18Z</time>
      </trkpt>
      <trkpt lat="45.9123" lon="5.01592">
        <ele>273</ele>
        <time>2016-11-15T11:05:19Z</time>
      </trkpt>
      <trkpt lat="45.91223" lon="5.01595">
        <ele>273</ele>
        <time>2016-11-15T11:05:20Z</time>
      </trkpt>
      <trkpt lat="45.91215" lon="5.01597">
        <ele>273</ele>
        <time>2016-11-15T11:05:21Z</time>
      </trkpt>
      <trkpt lat="45.91208" lon="5.016">
        <ele>273</ele>
        <time>2016-11-15T11:05:22Z</time>
      </trkpt>
      <trkpt lat="45.91201" lon="5.01602">
        <ele>273</ele>
        <time>2016-11-15T11:05:23Z</time>
      </trkpt>
      <trkpt lat="45.91193" lon="5.01605">
        <ele>273</ele>
        <time>2016-11-15T11:05:24Z</time>
      </trkpt>
      <trkpt lat="45.91186" lon="5.01608">
        <ele>273</ele>
        <time>2016-11-15T11:05:25Z</time>
      </trkpt>
      <trkpt lat="45.91179" lon="5.0161">
        <ele>273</ele>
        <time>2016-11-15T11:05:26Z</time>
      </trkpt>
      <trkpt lat="45.91171" lon="5.01613">
        <ele>273</ele>
        <time>2016-11-15T11:05:27Z</time>
      </trkpt>
      <trkpt lat="45.91164" lon="5.01615">
        <ele>274</ele>
        <time>2016-11-15T11:05:28Z</time>
      </trkpt>
      <trkpt lat="45.91157" lon="5.01618">
        <ele>274</ele>
        <time>2016-11-15T11:05:29Z</time>
      </trkpt>
      <trkpt lat="45.9115" lon="5.01621">
        <ele>274</ele>
        <time>2016-11-15T11:05:30Z</time>
      </trkpt>
      <trkpt lat="45.91143" lon="5.01623">
        <ele>274</ele>
        <time>2016-11-15T11:05:31Z</time>
      </trkpt>
      <trkpt lat="45.91136" lon="5.01626">
        <ele>274</ele>
        <time>2016-11-15T11:05:32Z</time>
      </trkpt>
      <trkpt lat="45.91128" lon="5.01629">
        <ele>274</ele>
        <time>2016-11-15T11:05:33Z</time>
      </trkpt>
      <trkpt lat="45.91121" lon="5.01631">
        <ele>274</ele>
        <time>2016-11-15T11:05:34Z</time>
      </trkpt>
      <trkpt lat="45.91114" lon="5.01634">
        <ele>274</ele>
        <time>2016-11-15T11:05:35Z</time>
      </trkpt>
      <trkpt lat="45.91107" lon="5.01636">
        <ele>274</ele>
        <time>2016-11-15T11:05:36Z</time>
      </trkpt>
      <trkpt lat="45.911" lon="5.01639">
        <ele>274</ele>
        <time>2016-11-15T11:05:37Z</time>
      </trkpt>
      <trkpt lat="45.91093" lon="5.01642">
        <ele>274</ele>
        <time>2016-11-15T11:05:38Z</time>
      </trkpt>
      <trkpt lat="45.91086" lon="5.01644">
        <ele>274</ele>
        <time>2016-11-15T11:05:39Z</time>
      </trkpt>
      <trkpt lat="45.9108" lon="5.01647">
        <ele>277</ele>
        <time>2016-11-15T11:05:40Z</time>
      </trkpt>
      <trkpt lat="45.91073" lon="5.0165">
        <ele>277</ele>
        <time>2016-11-15T11:05:41Z</time>
      </trkpt>
      <trkpt lat="45.91066" lon="5.01652">
        <ele>277</ele>
        <time>2016-11-15T11:05:42Z</time>
      </trkpt>
      <trkpt lat="45.9106" lon="5.01654">
        <ele>277</ele>
        <time>2016-11-15T11:05:43Z</time>
      </trkpt>
      <trkpt lat="45.91053" lon="5.01656">
        <ele>278</ele>
        <time>2016-11-15T11:05:44Z</time>
      </trkpt>
      <trkpt lat="45.91047" lon="5.01658">
        <ele>278</ele>
        <time>2016-11-15T11:05:45Z</time>
      </trkpt>
      <trkpt lat="45.91041" lon="5.0166">
        <ele>278</ele>
        <time>2016-11-15T11:05:46Z</time>
      </trkpt>
      <trkpt lat="45.91036" lon="5.01662">
        <ele>278</ele>
        <time>2016-11-15T11:05:47Z</time>
      </trkpt>
      <trkpt lat="45.9103" lon="5.01664">
        <ele>278</ele>
        <time>2016-11-15T11:05:48Z</time>
      </trkpt>
      <trkpt lat="45.91025" lon="5.01666">
        <ele>278</ele>
        <time>2016-11-15T11:05:49Z</time>
      </trkpt>
      <trkpt lat="45.9102" lon="5.01668">
        <ele>277</ele>
        <time>2016-11-15T11:05:50Z</time>
      </trkpt>
      <trkpt lat="45.91015" lon="5.0167">
        <ele>277</ele>
        <time>2016-11-15T11:05:51Z</time>
      </trkpt>
      <trkpt lat="45.91011" lon="5.01672">
        <ele>277</ele>
        <time>2016-11-15T11:05:52Z</time>
      </trkpt>
      <trkpt lat="45.91006" lon="5.01675">
        <ele>277</ele>
        <time>2016-11-15T11:05:53Z</time>
      </trkpt>
      <trkpt lat="45.91002" lon="5.01677">
        <ele>277</ele>
        <time>2016-11-15T11:05:54Z</time>
      </trkpt>
      <trkpt lat="45.90997" lon="5.01679">
        <ele>278</ele>
        <time>2016-11-15T11:05:55Z</time>
      </trkpt>
      <trkpt lat="45.90989" lon="5.01682">
        <ele>278</ele>
        <time>2016-11-15T11:05:57Z</time>
      </trkpt>
      <trkpt lat="45.90985" lon="5.01683">
        <ele>278</ele>
        <time>2016-11-15T11:05:58Z</time>
      </trkpt>
      <trkpt lat="45.90981" lon="5.01685">
        <ele>278</ele>
        <time>2016-11-15T11:05:59Z</time>
      </trkpt>
      <trkpt lat="45.90976" lon="5.01686">
        <ele>278</ele>
        <time>2016-11-15T11:06:00Z</time>
      </trkpt>
      <trkpt lat="45.90972" lon="5.01687">
        <ele>278</ele>
        <time>2016-11-15T11:06:01Z</time>
      </trkpt>
      <trkpt lat="45.90967" lon="5.01689">
        <ele>278</ele>
        <time>2016-11-15T11:06:02Z</time>
      </trkpt>
      <trkpt lat="45.90963" lon="5.0169">
        <ele>278</ele>
        <time>2016-11-15T11:06:03Z</time>
      </trkpt>
      <trkpt lat="45.90958" lon="5.01692">
        <ele>278</ele>
        <time>2016-11-15T11:06:04Z</time>
      </trkpt>
      <trkpt lat="45.90954" lon="5.01694">
        <ele>279</ele>
        <time>2016-11-15T11:06:05Z</time>
      </trkpt>
      <trkpt lat="45.90949" lon="5.01696">
        <ele>279</ele>
        <time>2016-11-15T11:06:06Z</time>
      </trkpt>
      <trkpt lat="45.90945" lon="5.01698">
        <ele>279</ele>
        <time>2016-11-15T11:06:07Z</time>
      </trkpt>
      <trkpt lat="45.9094" lon="5.017">
        <ele>279</ele>
        <time>2016-11-15T11:06:08Z</time>
      </trkpt>
      <trkpt lat="45.90936" lon="5.01701">
        <ele>279</ele>
        <time>2016-11-15T11:06:09Z</time>
      </trkpt>
      <trkpt lat="45.90931" lon="5.01702">
        <ele>279</ele>
        <time>2016-11-15T11:06:10Z</time>
      </trkpt>
      <trkpt lat="45.90926" lon="5.01704">
        <ele>279</ele>
        <time>2016-11-15T11:06:11Z</time>
      </trkpt>
      <trkpt lat="45.90922" lon="5.01705">
        <ele>279</ele>
        <time>2016-11-15T11:06:12Z</time>
      </trkpt>
      <trkpt lat="45.90917" lon="5.01705">
        <ele>279</ele>
        <time>2016-11-15T11:06:13Z</time>
      </trkpt>
      <trkpt lat="45.90913" lon="5.01705">
        <ele>279</ele>
        <time>2016-11-15T11:06:14Z</time>
      </trkpt>
      <trkpt lat="45.90908" lon="5.01706">
        <ele>279</ele>
        <time>2016-11-15T11:06:15Z</time>
      </trkpt>
      <trkpt lat="45.90903" lon="5.01705">
        <ele>279</ele>
        <time>2016-11-15T11:06:16Z</time>
      </trkpt>
      <trkpt lat="45.90899" lon="5.01704">
        <ele>279</ele>
        <time>2016-11-15T11:06:17Z</time>
      </trkpt>
      <trkpt lat="45.90894" lon="5.01703">
        <ele>279</ele>
        <time>2016-11-15T11:06:18Z</time>
      </trkpt>
      <trkpt lat="45.90889" lon="5.01702">
        <ele>279</ele>
        <time>2016-11-15T11:06:19Z</time>
      </trkpt>
      <trkpt lat="45.90884" lon="5.01701">
        <ele>279</ele>
        <time>2016-11-15T11:06:20Z</time>
      </trkpt>
      <trkpt lat="45.90879" lon="5.01699">
        <ele>279</ele>
        <time>2016-11-15T11:06:21Z</time>
      </trkpt>
      <trkpt lat="45.90875" lon="5.01697">
        <ele>279</ele>
        <time>2016-11-15T11:06:22Z</time>
      </trkpt>
      <trkpt lat="45.90869" lon="5.01695">
        <ele>280</ele>
        <time>2016-11-15T11:06:23Z</time>
      </trkpt>
      <trkpt lat="45.90864" lon="5.01693">
        <ele>280</ele>
        <time>2016-11-15T11:06:24Z</time>
      </trkpt>
      <trkpt lat="45.90859" lon="5.01691">
        <ele>280</ele>
        <time>2016-11-15T11:06:25Z</time>
      </trkpt>
      <trkpt lat="45.90854" lon="5.01689">
        <ele>280</ele>
        <time>2016-11-15T11:06:26Z</time>
      </trkpt>
      <trkpt lat="45.9085" lon="5.01687">
        <ele>280</ele>
        <time>2016-11-15T11:06:27Z</time>
      </trkpt>
      <trkpt lat="45.90845" lon="5.01686">
        <ele>280</ele>
        <time>2016-11-15T11:06:28Z</time>
      </trkpt>
      <trkpt lat="45.9084" lon="5.01684">
        <ele>280</ele>
        <time>2016-11-15T11:06:29Z</time>
      </trkpt>
      <trkpt lat="45.90836" lon="5.01683">
        <ele>280</ele>
        <time>2016-11-15T11:06:30Z</time>
      </trkpt>
      <trkpt lat="45.90831" lon="5.01682">
        <ele>280</ele>
        <time>2016-11-15T11:06:31Z</time>
      </trkpt>
      <trkpt lat="45.90826" lon="5.0168">
        <ele>280</ele>
        <time>2016-11-15T11:06:32Z</time>
      </trkpt>
      <trkpt lat="45.90821" lon="5.01679">
        <ele>280</ele>
        <time>2016-11-15T11:06:33Z</time>
      </trkpt>
      <trkpt lat="45.90816" lon="5.01677">
        <ele>280</ele>
        <time>2016-11-15T11:06:34Z</time>
      </trkpt>
      <trkpt lat="45.90811" lon="5.01674">
        <ele>280</ele>
        <time>2016-11-15T11:06:35Z</time>
      </trkpt>
      <trkpt lat="45.90806" lon="5.01672">
        <ele>280</ele>
        <time>2016-11-15T11:06:36Z</time>
      </trkpt>
      <trkpt lat="45.90801" lon="5.0167">
        <ele>279</ele>
        <time>2016-11-15T11:06:37Z</time>
      </trkpt>
      <trkpt lat="45.90796" lon="5.01668">
        <ele>279</ele>
        <time>2016-11-15T11:06:38Z</time>
      </trkpt>
      <trkpt lat="45.90791" lon="5.01666">
        <ele>281</ele>
        <time>2016-11-15T11:06:39Z</time>
      </trkpt>
      <trkpt lat="45.90786" lon="5.01664">
        <ele>281</ele>
        <time>2016-11-15T11:06:40Z</time>
      </trkpt>
      <trkpt lat="45.9078" lon="5.01662">
        <ele>280</ele>
        <time>2016-11-15T11:06:41Z</time>
      </trkpt>
      <trkpt lat="45.90775" lon="5.0166">
        <ele>280</ele>
        <time>2016-11-15T11:06:42Z</time>
      </trkpt>
      <trkpt lat="45.90769" lon="5.01658">
        <ele>280</ele>
        <time>2016-11-15T11:06:43Z</time>
      </trkpt>
      <trkpt lat="45.90764" lon="5.01656">
        <ele>280</ele>
        <time>2016-11-15T11:06:44Z</time>
      </trkpt>
      <trkpt lat="45.90758" lon="5.01654">
        <ele>280</ele>
        <time>2016-11-15T11:06:45Z</time>
      </trkpt>
      <trkpt lat="45.90752" lon="5.01652">
        <ele>280</ele>
        <time>2016-11-15T11:06:46Z</time>
      </trkpt>
      <trkpt lat="45.90747" lon="5.0165">
        <ele>280</ele>
        <time>2016-11-15T11:06:47Z</time>
      </trkpt>
      <trkpt lat="45.90741" lon="5.01648">
        <ele>280</ele>
        <time>2016-11-15T11:06:48Z</time>
      </trkpt>
      <trkpt lat="45.90735" lon="5.01646">
        <ele>280</ele>
        <time>2016-11-15T11:06:49Z</time>
      </trkpt>
      <trkpt lat="45.9073" lon="5.01644">
        <ele>280</ele>
        <time>2016-11-15T11:06:50Z</time>
      </trkpt>
      <trkpt lat="45.90724" lon="5.01643">
        <ele>280</ele>
        <time>2016-11-15T11:06:51Z</time>
      </trkpt>
      <trkpt lat="45.90719" lon="5.01641">
        <ele>280</ele>
        <time>2016-11-15T11:06:52Z</time>
      </trkpt>
      <trkpt lat="45.90713" lon="5.01639">
        <ele>280</ele>
        <time>2016-11-15T11:06:53Z</time>
      </trkpt>
      <trkpt lat="45.90708" lon="5.01637">
        <ele>280</ele>
        <time>2016-11-15T11:06:54Z</time>
      </trkpt>
      <trkpt lat="45.90702" lon="5.01635">
        <ele>281</ele>
        <time>2016-11-15T11:06:55Z</time>
      </trkpt>
      <trkpt lat="45.90697" lon="5.01634">
        <ele>281</ele>
        <time>2016-11-15T11:06:56Z</time>
      </trkpt>
      <trkpt lat="45.90692" lon="5.01631">
        <ele>281</ele>
        <time>2016-11-15T11:06:57Z</time>
      </trkpt>
      <trkpt lat="45.90687" lon="5.01629">
        <ele>281</ele>
        <time>2016-11-15T11:06:58Z</time>
      </trkpt>
      <trkpt lat="45.90681" lon="5.01626">
        <ele>281</ele>
        <time>2016-11-15T11:06:59Z</time>
      </trkpt>
      <trkpt lat="45.90676" lon="5.01624">
        <ele>281</ele>
        <time>2016-11-15T11:07:00Z</time>
      </trkpt>
      <trkpt lat="45.9067" lon="5.01621">
        <ele>281</ele>
        <time>2016-11-15T11:07:01Z</time>
      </trkpt>
      <trkpt lat="45.90664" lon="5.01619">
        <ele>283</ele>
        <time>2016-11-15T11:07:02Z</time>
      </trkpt>
      <trkpt lat="45.90659" lon="5.01617">
        <ele>283</ele>
        <time>2016-11-15T11:07:03Z</time>
      </trkpt>
      <trkpt lat="45.90653" lon="5.01615">
        <ele>283</ele>
        <time>2016-11-15T11:07:04Z</time>
      </trkpt>
      <trkpt lat="45.90647" lon="5.01613">
        <ele>283</ele>
        <time>2016-11-15T11:07:05Z</time>
      </trkpt>
      <trkpt lat="45.90641" lon="5.01612">
        <ele>283</ele>
        <time>2016-11-15T11:07:06Z</time>
      </trkpt>
      <trkpt lat="45.90635" lon="5.0161">
        <ele>283</ele>
        <time>2016-11-15T11:07:07Z</time>
      </trkpt>
      <trkpt lat="45.90629" lon="5.01608">
        <ele>283</ele>
        <time>2016-11-15T11:07:08Z</time>
      </trkpt>
      <trkpt lat="45.90623" lon="5.01607">
        <ele>283</ele>
        <time>2016-11-15T11:07:09Z</time>
      </trkpt>
      <trkpt lat="45.90617" lon="5.01605">
        <ele>283</ele>
        <time>2016-11-15T11:07:10Z</time>
      </trkpt>
      <trkpt lat="45.90612" lon="5.01604">
        <ele>283</ele>
        <time>2016-11-15T11:07:11Z</time>
      </trkpt>
      <trkpt lat="45.90606" lon="5.01602">
        <ele>284</ele>
        <time>2016-11-15T11:07:12Z</time>
      </trkpt>
      <trkpt lat="45.90601" lon="5.016">
        <ele>284</ele>
        <time>2016-11-15T11:07:13Z</time>
      </trkpt>
      <trkpt lat="45.90596" lon="5.01598">
        <ele>284</ele>
        <time>2016-11-15T11:07:14Z</time>
      </trkpt>
      <trkpt lat="45.90592" lon="5.01596">
        <ele>284</ele>
        <time>2016-11-15T11:07:15Z</time>
      </trkpt>
      <trkpt lat="45.90587" lon="5.01594">
        <ele>284</ele>
        <time>2016-11-15T11:07:16Z</time>
      </trkpt>
      <trkpt lat="45.90582" lon="5.01592">
        <ele>284</ele>
        <time>2016-11-15T11:07:17Z</time>
      </trkpt>
      <trkpt lat="45.90578" lon="5.01591">
        <ele>285</ele>
        <time>2016-11-15T11:07:18Z</time>
      </trkpt>
      <trkpt lat="45.90573" lon="5.0159">
        <ele>285</ele>
        <time>2016-11-15T11:07:19Z</time>
      </trkpt>
      <trkpt lat="45.90568" lon="5.01589">
        <ele>285</ele>
        <time>2016-11-15T11:07:20Z</time>
      </trkpt>
      <trkpt lat="45.90564" lon="5.01588">
        <ele>285</ele>
        <time>2016-11-15T11:07:21Z</time>
      </trkpt>
      <trkpt lat="45.90559" lon="5.01586">
        <ele>285</ele>
        <time>2016-11-15T11:07:22Z</time>
      </trkpt>
      <trkpt lat="45.90555" lon="5.01584">
        <ele>285</ele>
        <time>2016-11-15T11:07:23Z</time>
      </trkpt>
      <trkpt lat="45.9055" lon="5.01583">
        <ele>284</ele>
        <time>2016-11-15T11:07:24Z</time>
      </trkpt>
      <trkpt lat="45.90546" lon="5.01582">
        <ele>284</ele>
        <time>2016-11-15T11:07:25Z</time>
      </trkpt>
      <trkpt lat="45.90541" lon="5.01581">
        <ele>284</ele>
        <time>2016-11-15T11:07:26Z</time>
      </trkpt>
      <trkpt lat="45.90535" lon="5.0158">
        <ele>284</ele>
        <time>2016-11-15T11:07:27Z</time>
      </trkpt>
      <trkpt lat="45.90531" lon="5.01579">
        <ele>284</ele>
        <time>2016-11-15T11:07:28Z</time>
      </trkpt>
      <trkpt lat="45.90526" lon="5.01578">
        <ele>284</ele>
        <time>2016-11-15T11:07:29Z</time>
      </trkpt>
      <trkpt lat="45.90521" lon="5.01579">
        <ele>284</ele>
        <time>2016-11-15T11:07:30Z</time>
      </trkpt>
      <trkpt lat="45.90516" lon="5.0158">
        <ele>284</ele>
        <time>2016-11-15T11:07:31Z</time>
      </trkpt>
      <trkpt lat="45.90511" lon="5.0158">
        <ele>284</ele>
        <time>2016-11-15T11:07:32Z</time>
      </trkpt>
      <trkpt lat="45.90506" lon="5.01582">
        <ele>285</ele>
        <time>2016-11-15T11:07:33Z</time>
      </trkpt>
      <trkpt lat="45.90501" lon="5.01583">
        <ele>285</ele>
        <time>2016-11-15T11:07:34Z</time>
      </trkpt>
      <trkpt lat="45.90492" lon="5.01584">
        <ele>285</ele>
        <time>2016-11-15T11:07:36Z</time>
      </trkpt>
      <trkpt lat="45.90488" lon="5.01586">
        <ele>285</ele>
        <time>2016-11-15T11:07:37Z</time>
      </trkpt>
      <trkpt lat="45.90481" lon="5.01588">
        <ele>285</ele>
        <time>2016-11-15T11:07:39Z</time>
      </trkpt>
      <trkpt lat="45.90477" lon="5.01588">
        <ele>285</ele>
        <time>2016-11-15T11:07:40Z</time>
      </trkpt>
      <trkpt lat="45.90472" lon="5.0158">
        <ele>284</ele>
        <time>2016-11-15T11:07:42Z</time>
      </trkpt>
      <trkpt lat="45.90471" lon="5.01574">
        <ele>284</ele>
        <time>2016-11-15T11:07:43Z</time>
      </trkpt>
      <trkpt lat="45.90471" lon="5.01567">
        <ele>283</ele>
        <time>2016-11-15T11:07:44Z</time>
      </trkpt>
      <trkpt lat="45.9047" lon="5.0156">
        <ele>283</ele>
        <time>2016-11-15T11:07:45Z</time>
      </trkpt>
      <trkpt lat="45.90469" lon="5.01553">
        <ele>283</ele>
        <time>2016-11-15T11:07:46Z</time>
      </trkpt>
      <trkpt lat="45.90468" lon="5.01545">
        <ele>283</ele>
        <time>2016-11-15T11:07:47Z</time>
      </trkpt>
      <trkpt lat="45.90468" lon="5.01537">
        <ele>283</ele>
        <time>2016-11-15T11:07:48Z</time>
      </trkpt>
      <trkpt lat="45.90467" lon="5.0153">
        <ele>283</ele>
        <time>2016-11-15T11:07:49Z</time>
      </trkpt>
      <trkpt lat="45.90467" lon="5.01522">
        <ele>283</ele>
        <time>2016-11-15T11:07:50Z</time>
      </trkpt>
      <trkpt lat="45.90467" lon="5.01513">
        <ele>283</ele>
        <time>2016-11-15T11:07:51Z</time>
      </trkpt>
      <trkpt lat="45.90466" lon="5.01504">
        <ele>283</ele>
        <time>2016-11-15T11:07:52Z</time>
      </trkpt>
      <trkpt lat="45.90465" lon="5.01495">
        <ele>282</ele>
        <time>2016-11-15T11:07:53Z</time>
      </trkpt>
      <trkpt lat="45.90465" lon="5.01486">
        <ele>282</ele>
        <time>2016-11-15T11:07:54Z</time>
      </trkpt>
      <trkpt lat="45.90464" lon="5.01477">
        <ele>282</ele>
        <time>2016-11-15T11:07:55Z</time>
      </trkpt>
      <trkpt lat="45.90464" lon="5.01468">
        <ele>282</ele>
        <time>2016-11-15T11:07:56Z</time>
      </trkpt>
      <trkpt lat="45.90463" lon="5.01459">
        <ele>282</ele>
        <time>2016-11-15T11:07:57Z</time>
      </trkpt>
      <trkpt lat="45.90462" lon="5.0145">
        <ele>282</ele>
        <time>2016-11-15T11:07:58Z</time>
      </trkpt>
      <trkpt lat="45.90462" lon="5.01441">
        <ele>282</ele>
        <time>2016-11-15T11:07:59Z</time>
      </trkpt>
      <trkpt lat="45.90461" lon="5.01432">
        <ele>282</ele>
        <time>2016-11-15T11:08:00Z</time>
      </trkpt>
      <trkpt lat="45.9046" lon="5.01422">
        <ele>282</ele>
        <time>2016-11-15T11:08:01Z</time>
      </trkpt>
      <trkpt lat="45.90459" lon="5.01412">
        <ele>281</ele>
        <time>2016-11-15T11:08:02Z</time>
      </trkpt>
      <trkpt lat="45.90459" lon="5.01402">
        <ele>281</ele>
        <time>2016-11-15T11:08:03Z</time>
      </trkpt>
      <trkpt lat="45.90458" lon="5.01393">
        <ele>281</ele>
        <time>2016-11-15T11:08:04Z</time>
      </trkpt>
      <trkpt lat="45.90457" lon="5.01383">
        <ele>281</ele>
        <time>2016-11-15T11:08:05Z</time>
      </trkpt>
      <trkpt lat="45.90457" lon="5.01374">
        <ele>281</ele>
        <time>2016-11-15T11:08:06Z</time>
      </trkpt>
      <trkpt lat="45.90456" lon="5.01365">
        <ele>281</ele>
        <time>2016-11-15T11:08:07Z</time>
      </trkpt>
      <trkpt lat="45.90455" lon="5.01356">
        <ele>281</ele>
        <time>2016-11-15T11:08:08Z</time>
      </trkpt>
      <trkpt lat="45.90454" lon="5.01347">
        <ele>281</ele>
        <time>2016-11-15T11:08:09Z</time>
      </trkpt>
      <trkpt lat="45.90454" lon="5.01339">
        <ele>281</ele>
        <time>2016-11-15T11:08:10Z</time>
      </trkpt>
      <trkpt lat="45.90453" lon="5.01331">
        <ele>281</ele>
        <time>2016-11-15T11:08:11Z</time>
      </trkpt>
      <trkpt lat="45.90453" lon="5.01322">
        <ele>281</ele>
        <time>2016-11-15T11:08:12Z</time>
      </trkpt>
      <trkpt lat="45.90452" lon="5.01314">
        <ele>281</ele>
        <time>2016-11-15T11:08:13Z</time>
      </trkpt>
      <trkpt lat="45.90451" lon="5.01305">
        <ele>281</ele>
        <time>2016-11-15T11:08:14Z</time>
      </trkpt>
      <trkpt lat="45.9045" lon="5.01296">
        <ele>281</ele>
        <time>2016-11-15T11:08:15Z</time>
      </trkpt>
      <trkpt lat="45.90449" lon="5.01287">
        <ele>281</ele>
        <time>2016-11-15T11:08:16Z</time>
      </trkpt>
      <trkpt lat="45.90448" lon="5.01277">
        <ele>281</ele>
        <time>2016-11-15T11:08:17Z</time>
      </trkpt>
      <trkpt lat="45.90448" lon="5.01267">
        <ele>281</ele>
        <time>2016-11-15T11:08:18Z</time>
      </trkpt>
      <trkpt lat="45.90447" lon="5.01257">
        <ele>281</ele>
        <time>2016-11-15T11:08:19Z</time>
      </trkpt>
      <trkpt lat="45.90446" lon="5.01247">
        <ele>281</ele>
        <time>2016-11-15T11:08:20Z</time>
      </trkpt>
      <trkpt lat="45.90445" lon="5.01237">
        <ele>281</ele>
        <time>2016-11-15T11:08:21Z</time>
      </trkpt>
      <trkpt lat="45.90444" lon="5.01227">
        <ele>281</ele>
        <time>2016-11-15T11:08:22Z</time>
      </trkpt>
      <trkpt lat="45.90443" lon="5.01217">
        <ele>281</ele>
        <time>2016-11-15T11:08:23Z</time>
      </trkpt>
      <trkpt lat="45.90442" lon="5.01208">
        <ele>281</ele>
        <time>2016-11-15T11:08:24Z</time>
      </trkpt>
      <trkpt lat="45.90442" lon="5.01198">
        <ele>281</ele>
        <time>2016-11-15T11:08:25Z</time>
      </trkpt>
      <trkpt lat="45.90441" lon="5.01189">
        <ele>282</ele>
        <time>2016-11-15T11:08:26Z</time>
      </trkpt>
      <trkpt lat="45.9044" lon="5.0118">
        <ele>282</ele>
        <time>2016-11-15T11:08:27Z</time>
      </trkpt>
      <trkpt lat="45.9044" lon="5.01171">
        <ele>282</ele>
        <time>2016-11-15T11:08:28Z</time>
      </trkpt>
      <trkpt lat="45.90439" lon="5.01162">
        <ele>282</ele>
        <time>2016-11-15T11:08:29Z</time>
      </trkpt>
      <trkpt lat="45.90439" lon="5.01154">
        <ele>282</ele>
        <time>2016-11-15T11:08:30Z</time>
      </trkpt>
      <trkpt lat="45.90437" lon="5.01145">
        <ele>282</ele>
        <time>2016-11-15T11:08:31Z</time>
      </trkpt>
      <trkpt lat="45.90437" lon="5.01137">
        <ele>282</ele>
        <time>2016-11-15T11:08:32Z</time>
      </trkpt>
      <trkpt lat="45.90436" lon="5.01129">
        <ele>282</ele>
        <time>2016-11-15T11:08:33Z</time>
      </trkpt>
      <trkpt lat="45.90435" lon="5.0112">
        <ele>282</ele>
        <time>2016-11-15T11:08:34Z</time>
      </trkpt>
      <trkpt lat="45.90434" lon="5.01111">
        <ele>282</ele>
        <time>2016-11-15T11:08:35Z</time>
      </trkpt>
      <trkpt lat="45.90434" lon="5.01102">
        <ele>282</ele>
        <time>2016-11-15T11:08:36Z</time>
      </trkpt>
      <trkpt lat="45.90433" lon="5.01093">
        <ele>282</ele>
        <time>2016-11-15T11:08:37Z</time>
      </trkpt>
      <trkpt lat="45.90432" lon="5.01084">
        <ele>282</ele>
        <time>2016-11-15T11:08:38Z</time>
      </trkpt>
      <trkpt lat="45.90431" lon="5.01075">
        <ele>282</ele>
        <time>2016-11-15T11:08:39Z</time>
      </trkpt>
      <trkpt lat="45.90431" lon="5.01066">
        <ele>282</ele>
        <time>2016-11-15T11:08:40Z</time>
      </trkpt>
      <trkpt lat="45.9043" lon="5.01057">
        <ele>282</ele>
        <time>2016-11-15T11:08:41Z</time>
      </trkpt>
      <trkpt lat="45.90429" lon="5.01049">
        <ele>282</ele>
        <time>2016-11-15T11:08:42Z</time>
      </trkpt>
      <trkpt lat="45.90429" lon="5.01041">
        <ele>282</ele>
        <time>2016-11-15T11:08:43Z</time>
      </trkpt>
      <trkpt lat="45.90428" lon="5.01033">
        <ele>282</ele>
        <time>2016-11-15T11:08:44Z</time>
      </trkpt>
      <trkpt lat="45.90427" lon="5.01025">
        <ele>282</ele>
        <time>2016-11-15T11:08:45Z</time>
      </trkpt>
      <trkpt lat="45.90427" lon="5.01018">
        <ele>282</ele>
        <time>2016-11-15T11:08:46Z</time>
      </trkpt>
      <trkpt lat="45.90426" lon="5.0101">
        <ele>282</ele>
        <time>2016-11-15T11:08:47Z</time>
      </trkpt>
      <trkpt lat="45.90425" lon="5.01002">
        <ele>282</ele>
        <time>2016-11-15T11:08:48Z</time>
      </trkpt>
      <trkpt lat="45.90424" lon="5.00995">
        <ele>282</ele>
        <time>2016-11-15T11:08:49Z</time>
      </trkpt>
      <trkpt lat="45.90424" lon="5.00987">
        <ele>282</ele>
        <time>2016-11-15T11:08:50Z</time>
      </trkpt>
      <trkpt lat="45.90423" lon="5.00979">
        <ele>282</ele>
        <time>2016-11-15T11:08:51Z</time>
      </trkpt>
      <trkpt lat="45.90422" lon="5.00971">
        <ele>282</ele>
        <time>2016-11-15T11:08:52Z</time>
      </trkpt>
      <trkpt lat="45.90422" lon="5.00963">
        <ele>282</ele>
        <time>2016-11-15T11:08:53Z</time>
      </trkpt>
      <trkpt lat="45.90421" lon="5.00955">
        <ele>282</ele>
        <time>2016-11-15T11:08:54Z</time>
      </trkpt>
      <trkpt lat="45.9042" lon="5.00946">
        <ele>282</ele>
        <time>2016-11-15T11:08:55Z</time>
      </trkpt>
      <trkpt lat="45.9042" lon="5.00938">
        <ele>283</ele>
        <time>2016-11-15T11:08:56Z</time>
      </trkpt>
      <trkpt lat="45.90419" lon="5.00929">
        <ele>283</ele>
        <time>2016-11-15T11:08:57Z</time>
      </trkpt>
      <trkpt lat="45.90418" lon="5.0092">
        <ele>283</ele>
        <time>2016-11-15T11:08:58Z</time>
      </trkpt>
      <trkpt lat="45.90417" lon="5.00911">
        <ele>283</ele>
        <time>2016-11-15T11:08:59Z</time>
      </trkpt>
      <trkpt lat="45.90417" lon="5.00902">
        <ele>284</ele>
        <time>2016-11-15T11:09:00Z</time>
      </trkpt>
      <trkpt lat="45.90416" lon="5.00894">
        <ele>284</ele>
        <time>2016-11-15T11:09:01Z</time>
      </trkpt>
      <trkpt lat="45.90415" lon="5.00886">
        <ele>284</ele>
        <time>2016-11-15T11:09:02Z</time>
      </trkpt>
      <trkpt lat="45.90414" lon="5.00878">
        <ele>284</ele>
        <time>2016-11-15T11:09:03Z</time>
      </trkpt>
      <trkpt lat="45.90413" lon="5.0087">
        <ele>284</ele>
        <time>2016-11-15T11:09:04Z</time>
      </trkpt>
      <trkpt lat="45.90413" lon="5.00863">
        <ele>284</ele>
        <time>2016-11-15T11:09:05Z</time>
      </trkpt>
      <trkpt lat="45.90412" lon="5.00856">
        <ele>284</ele>
        <time>2016-11-15T11:09:06Z</time>
      </trkpt>
      <trkpt lat="45.90411" lon="5.00848">
        <ele>284</ele>
        <time>2016-11-15T11:09:07Z</time>
      </trkpt>
      <trkpt lat="45.9041" lon="5.00841">
        <ele>283</ele>
        <time>2016-11-15T11:09:08Z</time>
      </trkpt>
      <trkpt lat="45.9041" lon="5.00833">
        <ele>283</ele>
        <time>2016-11-15T11:09:09Z</time>
      </trkpt>
      <trkpt lat="45.90409" lon="5.00826">
        <ele>283</ele>
        <time>2016-11-15T11:09:10Z</time>
      </trkpt>
      <trkpt lat="45.90408" lon="5.00818">
        <ele>283</ele>
        <time>2016-11-15T11:09:11Z</time>
      </trkpt>
      <trkpt lat="45.90408" lon="5.0081">
        <ele>283</ele>
        <time>2016-11-15T11:09:12Z</time>
      </trkpt>
      <trkpt lat="45.90407" lon="5.00803">
        <ele>283</ele>
        <time>2016-11-15T11:09:13Z</time>
      </trkpt>
      <trkpt lat="45.90407" lon="5.00795">
        <ele>283</ele>
        <time>2016-11-15T11:09:14Z</time>
      </trkpt>
      <trkpt lat="45.90406" lon="5.00787">
        <ele>283</ele>
        <time>2016-11-15T11:09:15Z</time>
      </trkpt>
      <trkpt lat="45.90405" lon="5.00779">
        <ele>283</ele>
        <time>2016-11-15T11:09:16Z</time>
      </trkpt>
      <trkpt lat="45.90404" lon="5.00771">
        <ele>283</ele>
        <time>2016-11-15T11:09:17Z</time>
      </trkpt>
      <trkpt lat="45.90404" lon="5.00763">
        <ele>283</ele>
        <time>2016-11-15T11:09:18Z</time>
      </trkpt>
      <trkpt lat="45.90403" lon="5.00755">
        <ele>283</ele>
        <time>2016-11-15T11:09:19Z</time>
      </trkpt>
      <trkpt lat="45.90402" lon="5.00746">
        <ele>282</ele>
        <time>2016-11-15T11:09:20Z</time>
      </trkpt>
      <trkpt lat="45.90401" lon="5.00737">
        <ele>282</ele>
        <time>2016-11-15T11:09:21Z</time>
      </trkpt>
      <trkpt lat="45.90401" lon="5.00728">
        <ele>282</ele>
        <time>2016-11-15T11:09:22Z</time>
      </trkpt>
      <trkpt lat="45.904" lon="5.00719">
        <ele>282</ele>
        <time>2016-11-15T11:09:23Z</time>
      </trkpt>
      <trkpt lat="45.904" lon="5.0071">
        <ele>282</ele>
        <time>2016-11-15T11:09:24Z</time>
      </trkpt>
      <trkpt lat="45.90399" lon="5.00701">
        <ele>282</ele>
        <time>2016-11-15T11:09:25Z</time>
      </trkpt>
      <trkpt lat="45.90398" lon="5.00692">
        <ele>282</ele>
        <time>2016-11-15T11:09:26Z</time>
      </trkpt>
      <trkpt lat="45.90398" lon="5.00684">
        <ele>282</ele>
        <time>2016-11-15T11:09:27Z</time>
      </trkpt>
      <trkpt lat="45.90397" lon="5.00676">
        <ele>282</ele>
        <time>2016-11-15T11:09:28Z</time>
      </trkpt>
      <trkpt lat="45.90396" lon="5.00668">
        <ele>282</ele>
        <time>2016-11-15T11:09:29Z</time>
      </trkpt>
      <trkpt lat="45.90395" lon="5.0066">
        <ele>282</ele>
        <time>2016-11-15T11:09:30Z</time>
      </trkpt>
      <trkpt lat="45.90395" lon="5.00652">
        <ele>282</ele>
        <time>2016-11-15T11:09:31Z</time>
      </trkpt>
      <trkpt lat="45.90394" lon="5.00643">
        <ele>282</ele>
        <time>2016-11-15T11:09:32Z</time>
      </trkpt>
      <trkpt lat="45.90394" lon="5.00634">
        <ele>282</ele>
        <time>2016-11-15T11:09:33Z</time>
      </trkpt>
      <trkpt lat="45.90393" lon="5.00626">
        <ele>282</ele>
        <time>2016-11-15T11:09:34Z</time>
      </trkpt>
      <trkpt lat="45.90392" lon="5.00617">
        <ele>282</ele>
        <time>2016-11-15T11:09:35Z</time>
      </trkpt>
      <trkpt lat="45.90391" lon="5.00609">
        <ele>282</ele>
        <time>2016-11-15T11:09:36Z</time>
      </trkpt>
      <trkpt lat="45.9039" lon="5.00601">
        <ele>282</ele>
        <time>2016-11-15T11:09:37Z</time>
      </trkpt>
      <trkpt lat="45.90389" lon="5.00593">
        <ele>282</ele>
        <time>2016-11-15T11:09:38Z</time>
      </trkpt>
      <trkpt lat="45.90388" lon="5.00585">
        <ele>282</ele>
        <time>2016-11-15T11:09:39Z</time>
      </trkpt>
      <trkpt lat="45.90387" lon="5.00577">
        <ele>281</ele>
        <time>2016-11-15T11:09:40Z</time>
      </trkpt>
      <trkpt lat="45.90387" lon="5.00569">
        <ele>281</ele>
        <time>2016-11-15T11:09:41Z</time>
      </trkpt>
      <trkpt lat="45.90385" lon="5.00562">
        <ele>281</ele>
        <time>2016-11-15T11:09:42Z</time>
      </trkpt>
      <trkpt lat="45.90383" lon="5.00555">
        <ele>281</ele>
        <time>2016-11-15T11:09:43Z</time>
      </trkpt>
      <trkpt lat="45.90381" lon="5.00548">
        <ele>281</ele>
        <time>2016-11-15T11:09:44Z</time>
      </trkpt>
      <trkpt lat="45.90378" lon="5.00542">
        <ele>281</ele>
        <time>2016-11-15T11:09:45Z</time>
      </trkpt>
      <trkpt lat="45.90375" lon="5.00536">
        <ele>281</ele>
        <time>2016-11-15T11:09:46Z</time>
      </trkpt>
      <trkpt lat="45.90371" lon="5.00531">
        <ele>281</ele>
        <time>2016-11-15T11:09:47Z</time>
      </trkpt>
      <trkpt lat="45.90367" lon="5.00525">
        <ele>281</ele>
        <time>2016-11-15T11:09:48Z</time>
      </trkpt>
      <trkpt lat="45.90362" lon="5.0052">
        <ele>281</ele>
        <time>2016-11-15T11:09:49Z</time>
      </trkpt>
      <trkpt lat="45.90358" lon="5.00514">
        <ele>281</ele>
        <time>2016-11-15T11:09:50Z</time>
      </trkpt>
      <trkpt lat="45.90352" lon="5.00508">
        <ele>281</ele>
        <time>2016-11-15T11:09:51Z</time>
      </trkpt>
      <trkpt lat="45.90347" lon="5.00501">
        <ele>280</ele>
        <time>2016-11-15T11:09:52Z</time>
      </trkpt>
      <trkpt lat="45.90342" lon="5.00495">
        <ele>280</ele>
        <time>2016-11-15T11:09:53Z</time>
      </trkpt>
      <trkpt lat="45.90337" lon="5.00488">
        <ele>280</ele>
        <time>2016-11-15T11:09:54Z</time>
      </trkpt>
      <trkpt lat="45.90332" lon="5.00481">
        <ele>280</ele>
        <time>2016-11-15T11:09:55Z</time>
      </trkpt>
      <trkpt lat="45.90327" lon="5.00474">
        <ele>280</ele>
        <time>2016-11-15T11:09:56Z</time>
      </trkpt>
      <trkpt lat="45.90321" lon="5.00467">
        <ele>280</ele>
        <time>2016-11-15T11:09:57Z</time>
      </trkpt>
      <trkpt lat="45.90316" lon="5.0046">
        <ele>280</ele>
        <time>2016-11-15T11:09:58Z</time>
      </trkpt>
      <trkpt lat="45.90311" lon="5.00453">
        <ele>279</ele>
        <time>2016-11-15T11:09:59Z</time>
      </trkpt>
      <trkpt lat="45.90306" lon="5.00446">
        <ele>279</ele>
        <time>2016-11-15T11:10:00Z</time>
      </trkpt>
      <trkpt lat="45.90301" lon="5.00439">
        <ele>279</ele>
        <time>2016-11-15T11:10:01Z</time>
      </trkpt>
      <trkpt lat="45.90295" lon="5.00432">
        <ele>279</ele>
        <time>2016-11-15T11:10:02Z</time>
      </trkpt>
      <trkpt lat="45.9029" lon="5.00424">
        <ele>279</ele>
        <time>2016-11-15T11:10:03Z</time>
      </trkpt>
      <trkpt lat="45.90284" lon="5.00417">
        <ele>279</ele>
        <time>2016-11-15T11:10:04Z</time>
      </trkpt>
      <trkpt lat="45.90279" lon="5.0041">
        <ele>279</ele>
        <time>2016-11-15T11:10:05Z</time>
      </trkpt>
      <trkpt lat="45.90273" lon="5.00403">
        <ele>279</ele>
        <time>2016-11-15T11:10:06Z</time>
      </trkpt>
      <trkpt lat="45.90268" lon="5.00396">
        <ele>278</ele>
        <time>2016-11-15T11:10:07Z</time>
      </trkpt>
      <trkpt lat="45.90263" lon="5.00389">
        <ele>278</ele>
        <time>2016-11-15T11:10:08Z</time>
      </trkpt>
      <trkpt lat="45.90258" lon="5.00382">
        <ele>278</ele>
        <time>2016-11-15T11:10:09Z</time>
      </trkpt>
      <trkpt lat="45.90253" lon="5.00374">
        <ele>278</ele>
        <time>2016-11-15T11:10:10Z</time>
      </trkpt>
      <trkpt lat="45.90248" lon="5.00367">
        <ele>277</ele>
        <time>2016-11-15T11:10:11Z</time>
      </trkpt>
      <trkpt lat="45.90243" lon="5.0036">
        <ele>277</ele>
        <time>2016-11-15T11:10:12Z</time>
      </trkpt>
      <trkpt lat="45.90238" lon="5.00352">
        <ele>277</ele>
        <time>2016-11-15T11:10:13Z</time>
      </trkpt>
      <trkpt lat="45.90235" lon="5.00343">
        <ele>277</ele>
        <time>2016-11-15T11:10:14Z</time>
      </trkpt>
      <trkpt lat="45.90232" lon="5.00334">
        <ele>277</ele>
        <time>2016-11-15T11:10:15Z</time>
      </trkpt>
      <trkpt lat="45.90231" lon="5.00325">
        <ele>277</ele>
        <time>2016-11-15T11:10:16Z</time>
      </trkpt>
      <trkpt lat="45.9023" lon="5.00316">
        <ele>277</ele>
        <time>2016-11-15T11:10:17Z</time>
      </trkpt>
      <trkpt lat="45.9023" lon="5.00307">
        <ele>277</ele>
        <time>2016-11-15T11:10:18Z</time>
      </trkpt>
      <trkpt lat="45.9023" lon="5.00297">
        <ele>277</ele>
        <time>2016-11-15T11:10:19Z</time>
      </trkpt>
      <trkpt lat="45.9023" lon="5.00288">
        <ele>277</ele>
        <time>2016-11-15T11:10:20Z</time>
      </trkpt>
      <trkpt lat="45.90231" lon="5.00279">
        <ele>277</ele>
        <time>2016-11-15T11:10:21Z</time>
      </trkpt>
      <trkpt lat="45.90231" lon="5.00271">
        <ele>277</ele>
        <time>2016-11-15T11:10:22Z</time>
      </trkpt>
      <trkpt lat="45.90232" lon="5.00262">
        <ele>277</ele>
        <time>2016-11-15T11:10:23Z</time>
      </trkpt>
      <trkpt lat="45.90233" lon="5.00253">
        <ele>277</ele>
        <time>2016-11-15T11:10:24Z</time>
      </trkpt>
      <trkpt lat="45.90234" lon="5.00244">
        <ele>277</ele>
        <time>2016-11-15T11:10:25Z</time>
      </trkpt>
      <trkpt lat="45.90234" lon="5.00236">
        <ele>277</ele>
        <time>2016-11-15T11:10:26Z</time>
      </trkpt>
      <trkpt lat="45.90235" lon="5.00228">
        <ele>277</ele>
        <time>2016-11-15T11:10:27Z</time>
      </trkpt>
      <trkpt lat="45.90236" lon="5.0022">
        <ele>277</ele>
        <time>2016-11-15T11:10:28Z</time>
      </trkpt>
      <trkpt lat="45.90236" lon="5.00211">
        <ele>277</ele>
        <time>2016-11-15T11:10:29Z</time>
      </trkpt>
      <trkpt lat="45.90236" lon="5.00203">
        <ele>277</ele>
        <time>2016-11-15T11:10:30Z</time>
      </trkpt>
      <trkpt lat="45.90237" lon="5.00195">
        <ele>277</ele>
        <time>2016-11-15T11:10:31Z</time>
      </trkpt>
      <trkpt lat="45.90237" lon="5.00186">
        <ele>278</ele>
        <time>2016-11-15T11:10:32Z</time>
      </trkpt>
      <trkpt lat="45.90238" lon="5.00178">
        <ele>278</ele>
        <time>2016-11-15T11:10:33Z</time>
      </trkpt>
      <trkpt lat="45.90238" lon="5.0017">
        <ele>278</ele>
        <time>2016-11-15T11:10:34Z</time>
      </trkpt>
      <trkpt lat="45.90239" lon="5.00162">
        <ele>279</ele>
        <time>2016-11-15T11:10:35Z</time>
      </trkpt>
      <trkpt lat="45.9024" lon="5.00154">
        <ele>279</ele>
        <time>2016-11-15T11:10:36Z</time>
      </trkpt>
      <trkpt lat="45.9024" lon="5.00146">
        <ele>279</ele>
        <time>2016-11-15T11:10:37Z</time>
      </trkpt>
      <trkpt lat="45.90241" lon="5.00138">
        <ele>279</ele>
        <time>2016-11-15T11:10:38Z</time>
      </trkpt>
      <trkpt lat="45.90242" lon="5.0013">
        <ele>280</ele>
        <time>2016-11-15T11:10:39Z</time>
      </trkpt>
      <trkpt lat="45.90243" lon="5.00122">
        <ele>280</ele>
        <time>2016-11-15T11:10:40Z</time>
      </trkpt>
      <trkpt lat="45.90243" lon="5.00113">
        <ele>280</ele>
        <time>2016-11-15T11:10:41Z</time>
      </trkpt>
      <trkpt lat="45.90244" lon="5.00106">
        <ele>280</ele>
        <time>2016-11-15T11:10:42Z</time>
      </trkpt>
      <trkpt lat="45.90245" lon="5.00098">
        <ele>281</ele>
        <time>2016-11-15T11:10:43Z</time>
      </trkpt>
      <trkpt lat="45.90245" lon="5.0009">
        <ele>281</ele>
        <time>2016-11-15T11:10:44Z</time>
      </trkpt>
      <trkpt lat="45.90246" lon="5.00082">
        <ele>282</ele>
        <time>2016-11-15T11:10:45Z</time>
      </trkpt>
      <trkpt lat="45.90246" lon="5.00074">
        <ele>282</ele>
        <time>2016-11-15T11:10:46Z</time>
      </trkpt>
      <trkpt lat="45.90247" lon="5.00066">
        <ele>283</ele>
        <time>2016-11-15T11:10:47Z</time>
      </trkpt>
      <trkpt lat="45.90247" lon="5.00059">
        <ele>283</ele>
        <time>2016-11-15T11:10:48Z</time>
      </trkpt>
      <trkpt lat="45.90248" lon="5.00051">
        <ele>283</ele>
        <time>2016-11-15T11:10:49Z</time>
      </trkpt>
      <trkpt lat="45.90249" lon="5.00044">
        <ele>283</ele>
        <time>2016-11-15T11:10:50Z</time>
      </trkpt>
      <trkpt lat="45.90249" lon="5.00036">
        <ele>284</ele>
        <time>2016-11-15T11:10:51Z</time>
      </trkpt>
      <trkpt lat="45.9025" lon="5.00029">
        <ele>284</ele>
        <time>2016-11-15T11:10:52Z</time>
      </trkpt>
      <trkpt lat="45.9025" lon="5.00022">
        <ele>283</ele>
        <time>2016-11-15T11:10:53Z</time>
      </trkpt>
      <trkpt lat="45.90251" lon="5.00015">
        <ele>283</ele>
        <time>2016-11-15T11:10:54Z</time>
      </trkpt>
      <trkpt lat="45.90252" lon="5.00008">
        <ele>284</ele>
        <time>2016-11-15T11:10:55Z</time>
      </trkpt>
      <trkpt lat="45.90252" lon="5">
        <ele>285</ele>
        <time>2016-11-15T11:10:56Z</time>
      </trkpt>
      <trkpt lat="45.90253" lon="4.99993">
        <ele>285</ele>
        <time>2016-11-15T11:10:57Z</time>
      </trkpt>
      <trkpt lat="45.90254" lon="4.99986">
        <ele>284</ele>
        <time>2016-11-15T11:10:58Z</time>
      </trkpt>
      <trkpt lat="45.90254" lon="4.99979">
        <ele>284</ele>
        <time>2016-11-15T11:10:59Z</time>
      </trkpt>
      <trkpt lat="45.90255" lon="4.99972">
        <ele>284</ele>
        <time>2016-11-15T11:11:00Z</time>
      </trkpt>
      <trkpt lat="45.90256" lon="4.99965">
        <ele>284</ele>
        <time>2016-11-15T11:11:01Z</time>
      </trkpt>
      <trkpt lat="45.90257" lon="4.99958">
        <ele>284</ele>
        <time>2016-11-15T11:11:02Z</time>
      </trkpt>
      <trkpt lat="45.90257" lon="4.99951">
        <ele>284</ele>
        <time>2016-11-15T11:11:03Z</time>
      </trkpt>
      <trkpt lat="45.90257" lon="4.99944">
        <ele>284</ele>
        <time>2016-11-15T11:11:04Z</time>
      </trkpt>
      <trkpt lat="45.90258" lon="4.99937">
        <ele>285</ele>
        <time>2016-11-15T11:11:05Z</time>
      </trkpt>
      <trkpt lat="45.90258" lon="4.99924">
        <ele>286</ele>
        <time>2016-11-15T11:11:07Z</time>
      </trkpt>
      <trkpt lat="45.90259" lon="4.99918">
        <ele>286</ele>
        <time>2016-11-15T11:11:08Z</time>
      </trkpt>
      <trkpt lat="45.9026" lon="4.99911">
        <ele>286</ele>
        <time>2016-11-15T11:11:09Z</time>
      </trkpt>
      <trkpt lat="45.90261" lon="4.99904">
        <ele>285</ele>
        <time>2016-11-15T11:11:10Z</time>
      </trkpt>
      <trkpt lat="45.90261" lon="4.99897">
        <ele>285</ele>
        <time>2016-11-15T11:11:11Z</time>
      </trkpt>
      <trkpt lat="45.90261" lon="4.9989">
        <ele>285</ele>
        <time>2016-11-15T11:11:12Z</time>
      </trkpt>
      <trkpt lat="45.9026" lon="4.99883">
        <ele>285</ele>
        <time>2016-11-15T11:11:13Z</time>
      </trkpt>
      <trkpt lat="45.90257" lon="4.99876">
        <ele>285</ele>
        <time>2016-11-15T11:11:14Z</time>
      </trkpt>
      <trkpt lat="45.90254" lon="4.9987">
        <ele>285</ele>
        <time>2016-11-15T11:11:15Z</time>
      </trkpt>
      <trkpt lat="45.90251" lon="4.99864">
        <ele>285</ele>
        <time>2016-11-15T11:11:16Z</time>
      </trkpt>
      <trkpt lat="45.90248" lon="4.99858">
        <ele>287</ele>
        <time>2016-11-15T11:11:17Z</time>
      </trkpt>
      <trkpt lat="45.90245" lon="4.99853">
        <ele>287</ele>
        <time>2016-11-15T11:11:18Z</time>
      </trkpt>
      <trkpt lat="45.90243" lon="4.99846">
        <ele>287</ele>
        <time>2016-11-15T11:11:19Z</time>
      </trkpt>
      <trkpt lat="45.90242" lon="4.9984">
        <ele>287</ele>
        <time>2016-11-15T11:11:20Z</time>
      </trkpt>
      <trkpt lat="45.90241" lon="4.99834">
        <ele>286</ele>
        <time>2016-11-15T11:11:21Z</time>
      </trkpt>
      <trkpt lat="45.9024" lon="4.99827">
        <ele>287</ele>
        <time>2016-11-15T11:11:22Z</time>
      </trkpt>
      <trkpt lat="45.90239" lon="4.99821">
        <ele>287</ele>
        <time>2016-11-15T11:11:23Z</time>
      </trkpt>
      <trkpt lat="45.90238" lon="4.99815">
        <ele>287</ele>
        <time>2016-11-15T11:11:24Z</time>
      </trkpt>
      <trkpt lat="45.90237" lon="4.99808">
        <ele>287</ele>
        <time>2016-11-15T11:11:25Z</time>
      </trkpt>
      <trkpt lat="45.90236" lon="4.99802">
        <ele>287</ele>
        <time>2016-11-15T11:11:26Z</time>
      </trkpt>
      <trkpt lat="45.90236" lon="4.99795">
        <ele>287</ele>
        <time>2016-11-15T11:11:27Z</time>
      </trkpt>
      <trkpt lat="45.90236" lon="4.99789">
        <ele>287</ele>
        <time>2016-11-15T11:11:28Z</time>
      </trkpt>
      <trkpt lat="45.90236" lon="4.99782">
        <ele>287</ele>
        <time>2016-11-15T11:11:29Z</time>
      </trkpt>
      <trkpt lat="45.90236" lon="4.99775">
        <ele>288</ele>
        <time>2016-11-15T11:11:30Z</time>
      </trkpt>
      <trkpt lat="45.90235" lon="4.99763">
        <ele>288</ele>
        <time>2016-11-15T11:11:32Z</time>
      </trkpt>
      <trkpt lat="45.90234" lon="4.99757">
        <ele>288</ele>
        <time>2016-11-15T11:11:33Z</time>
      </trkpt>
      <trkpt lat="45.90233" lon="4.9975">
        <ele>288</ele>
        <time>2016-11-15T11:11:34Z</time>
      </trkpt>
      <trkpt lat="45.90232" lon="4.99744">
        <ele>288</ele>
        <time>2016-11-15T11:11:35Z</time>
      </trkpt>
      <trkpt lat="45.90233" lon="4.99737">
        <ele>288</ele>
        <time>2016-11-15T11:11:36Z</time>
      </trkpt>
      <trkpt lat="45.90233" lon="4.9973">
        <ele>288</ele>
        <time>2016-11-15T11:11:37Z</time>
      </trkpt>
      <trkpt lat="45.90231" lon="4.99718">
        <ele>288</ele>
        <time>2016-11-15T11:11:39Z</time>
      </trkpt>
      <trkpt lat="45.9023" lon="4.99712">
        <ele>288</ele>
        <time>2016-11-15T11:11:40Z</time>
      </trkpt>
      <trkpt lat="45.90229" lon="4.99701">
        <ele>288</ele>
        <time>2016-11-15T11:11:42Z</time>
      </trkpt>
      <trkpt lat="45.90228" lon="4.99695">
        <ele>288</ele>
        <time>2016-11-15T11:11:43Z</time>
      </trkpt>
      <trkpt lat="45.90225" lon="4.99684">
        <ele>288</ele>
        <time>2016-11-15T11:11:45Z</time>
      </trkpt>
      <trkpt lat="45.90223" lon="4.99678">
        <ele>288</ele>
        <time>2016-11-15T11:11:46Z</time>
      </trkpt>
      <trkpt lat="45.90221" lon="4.99666">
        <ele>287</ele>
        <time>2016-11-15T11:11:48Z</time>
      </trkpt>
      <trkpt lat="45.90221" lon="4.9966">
        <ele>287</ele>
        <time>2016-11-15T11:11:49Z</time>
      </trkpt>
      <trkpt lat="45.90218" lon="4.99648">
        <ele>287</ele>
        <time>2016-11-15T11:11:51Z</time>
      </trkpt>
      <trkpt lat="45.90216" lon="4.99642">
        <ele>287</ele>
        <time>2016-11-15T11:11:52Z</time>
      </trkpt>
      <trkpt lat="45.90215" lon="4.99636">
        <ele>287</ele>
        <time>2016-11-15T11:11:53Z</time>
      </trkpt>
      <trkpt lat="45.90213" lon="4.9963">
        <ele>287</ele>
        <time>2016-11-15T11:11:54Z</time>
      </trkpt>
      <trkpt lat="45.90212" lon="4.99623">
        <ele>287</ele>
        <time>2016-11-15T11:11:55Z</time>
      </trkpt>
      <trkpt lat="45.90212" lon="4.99616">
        <ele>287</ele>
        <time>2016-11-15T11:11:56Z</time>
      </trkpt>
      <trkpt lat="45.90211" lon="4.99609">
        <ele>287</ele>
        <time>2016-11-15T11:11:57Z</time>
      </trkpt>
      <trkpt lat="45.90211" lon="4.99601">
        <ele>287</ele>
        <time>2016-11-15T11:11:58Z</time>
      </trkpt>
      <trkpt lat="45.90211" lon="4.99594">
        <ele>286</ele>
        <time>2016-11-15T11:11:59Z</time>
      </trkpt>
      <trkpt lat="45.90211" lon="4.99586">
        <ele>286</ele>
        <time>2016-11-15T11:12:00Z</time>
      </trkpt>
      <trkpt lat="45.90211" lon="4.99579">
        <ele>285</ele>
        <time>2016-11-15T11:12:01Z</time>
      </trkpt>
      <trkpt lat="45.90212" lon="4.99571">
        <ele>285</ele>
        <time>2016-11-15T11:12:02Z</time>
      </trkpt>
      <trkpt lat="45.90212" lon="4.99563">
        <ele>285</ele>
        <time>2016-11-15T11:12:03Z</time>
      </trkpt>
      <trkpt lat="45.90213" lon="4.99555">
        <ele>285</ele>
        <time>2016-11-15T11:12:04Z</time>
      </trkpt>
      <trkpt lat="45.90214" lon="4.99547">
        <ele>285</ele>
        <time>2016-11-15T11:12:05Z</time>
      </trkpt>
      <trkpt lat="45.90215" lon="4.9954">
        <ele>285</ele>
        <time>2016-11-15T11:12:06Z</time>
      </trkpt>
      <trkpt lat="45.90216" lon="4.99531">
        <ele>285</ele>
        <time>2016-11-15T11:12:07Z</time>
      </trkpt>
      <trkpt lat="45.90218" lon="4.99523">
        <ele>285</ele>
        <time>2016-11-15T11:12:08Z</time>
      </trkpt>
      <trkpt lat="45.90219" lon="4.99514">
        <ele>285</ele>
        <time>2016-11-15T11:12:09Z</time>
      </trkpt>
      <trkpt lat="45.90221" lon="4.99505">
        <ele>285</ele>
        <time>2016-11-15T11:12:10Z</time>
      </trkpt>
      <trkpt lat="45.90222" lon="4.99497">
        <ele>284</ele>
        <time>2016-11-15T11:12:11Z</time>
      </trkpt>
      <trkpt lat="45.90224" lon="4.99488">
        <ele>284</ele>
        <time>2016-11-15T11:12:12Z</time>
      </trkpt>
      <trkpt lat="45.90226" lon="4.99478">
        <ele>284</ele>
        <time>2016-11-15T11:12:13Z</time>
      </trkpt>
      <trkpt lat="45.90227" lon="4.99468">
        <ele>284</ele>
        <time>2016-11-15T11:12:14Z</time>
      </trkpt>
      <trkpt lat="45.90229" lon="4.99458">
        <ele>284</ele>
        <time>2016-11-15T11:12:15Z</time>
      </trkpt>
      <trkpt lat="45.90229" lon="4.99448">
        <ele>284</ele>
        <time>2016-11-15T11:12:16Z</time>
      </trkpt>
      <trkpt lat="45.9023" lon="4.99438">
        <ele>284</ele>
        <time>2016-11-15T11:12:17Z</time>
      </trkpt>
      <trkpt lat="45.90232" lon="4.99428">
        <ele>284</ele>
        <time>2016-11-15T11:12:18Z</time>
      </trkpt>
      <trkpt lat="45.90232" lon="4.99418">
        <ele>284</ele>
        <time>2016-11-15T11:12:19Z</time>
      </trkpt>
      <trkpt lat="45.90233" lon="4.99408">
        <ele>283</ele>
        <time>2016-11-15T11:12:20Z</time>
      </trkpt>
      <trkpt lat="45.90233" lon="4.99398">
        <ele>283</ele>
        <time>2016-11-15T11:12:21Z</time>
      </trkpt>
      <trkpt lat="45.90234" lon="4.99387">
        <ele>283</ele>
        <time>2016-11-15T11:12:22Z</time>
      </trkpt>
      <trkpt lat="45.90234" lon="4.99377">
        <ele>283</ele>
        <time>2016-11-15T11:12:23Z</time>
      </trkpt>
      <trkpt lat="45.90235" lon="4.99367">
        <ele>282</ele>
        <time>2016-11-15T11:12:24Z</time>
      </trkpt>
      <trkpt lat="45.90235" lon="4.99357">
        <ele>282</ele>
        <time>2016-11-15T11:12:25Z</time>
      </trkpt>
      <trkpt lat="45.90236" lon="4.99347">
        <ele>282</ele>
        <time>2016-11-15T11:12:26Z</time>
      </trkpt>
      <trkpt lat="45.90236" lon="4.99337">
        <ele>282</ele>
        <time>2016-11-15T11:12:27Z</time>
      </trkpt>
      <trkpt lat="45.90237" lon="4.99327">
        <ele>282</ele>
        <time>2016-11-15T11:12:28Z</time>
      </trkpt>
      <trkpt lat="45.90237" lon="4.99317">
        <ele>281</ele>
        <time>2016-11-15T11:12:29Z</time>
      </trkpt>
      <trkpt lat="45.90238" lon="4.99307">
        <ele>281</ele>
        <time>2016-11-15T11:12:30Z</time>
      </trkpt>
      <trkpt lat="45.90238" lon="4.99297">
        <ele>281</ele>
        <time>2016-11-15T11:12:31Z</time>
      </trkpt>
      <trkpt lat="45.90238" lon="4.99287">
        <ele>281</ele>
        <time>2016-11-15T11:12:32Z</time>
      </trkpt>
      <trkpt lat="45.90238" lon="4.99277">
        <ele>281</ele>
        <time>2016-11-15T11:12:33Z</time>
      </trkpt>
      <trkpt lat="45.90238" lon="4.99267">
        <ele>281</ele>
        <time>2016-11-15T11:12:34Z</time>
      </trkpt>
      <trkpt lat="45.90237" lon="4.99257">
        <ele>282</ele>
        <time>2016-11-15T11:12:35Z</time>
      </trkpt>
      <trkpt lat="45.90237" lon="4.99247">
        <ele>281</ele>
        <time>2016-11-15T11:12:36Z</time>
      </trkpt>
      <trkpt lat="45.90237" lon="4.99237">
        <ele>281</ele>
        <time>2016-11-15T11:12:37Z</time>
      </trkpt>
      <trkpt lat="45.90236" lon="4.99227">
        <ele>281</ele>
        <time>2016-11-15T11:12:38Z</time>
      </trkpt>
      <trkpt lat="45.90236" lon="4.99217">
        <ele>281</ele>
        <time>2016-11-15T11:12:39Z</time>
      </trkpt>
      <trkpt lat="45.90235" lon="4.99207">
        <ele>280</ele>
        <time>2016-11-15T11:12:40Z</time>
      </trkpt>
      <trkpt lat="45.90234" lon="4.99198">
        <ele>280</ele>
        <time>2016-11-15T11:12:41Z</time>
      </trkpt>
      <trkpt lat="45.90234" lon="4.99189">
        <ele>280</ele>
        <time>2016-11-15T11:12:42Z</time>
      </trkpt>
      <trkpt lat="45.90233" lon="4.99179">
        <ele>280</ele>
        <time>2016-11-15T11:12:43Z</time>
      </trkpt>
      <trkpt lat="45.90233" lon="4.9917">
        <ele>280</ele>
        <time>2016-11-15T11:12:44Z</time>
      </trkpt>
      <trkpt lat="45.90233" lon="4.99161">
        <ele>280</ele>
        <time>2016-11-15T11:12:45Z</time>
      </trkpt>
      <trkpt lat="45.90232" lon="4.99151">
        <ele>280</ele>
        <time>2016-11-15T11:12:46Z</time>
      </trkpt>
      <trkpt lat="45.90232" lon="4.99142">
        <ele>280</ele>
        <time>2016-11-15T11:12:47Z</time>
      </trkpt>
      <trkpt lat="45.90231" lon="4.99132">
        <ele>280</ele>
        <time>2016-11-15T11:12:48Z</time>
      </trkpt>
      <trkpt lat="45.90231" lon="4.99122">
        <ele>281</ele>
        <time>2016-11-15T11:12:49Z</time>
      </trkpt>
      <trkpt lat="45.9023" lon="4.99112">
        <ele>281</ele>
        <time>2016-11-15T11:12:50Z</time>
      </trkpt>
      <trkpt lat="45.9023" lon="4.99102">
        <ele>281</ele>
        <time>2016-11-15T11:12:51Z</time>
      </trkpt>
      <trkpt lat="45.9023" lon="4.99092">
        <ele>281</ele>
        <time>2016-11-15T11:12:52Z</time>
      </trkpt>
      <trkpt lat="45.90229" lon="4.99083">
        <ele>281</ele>
        <time>2016-11-15T11:12:53Z</time>
      </trkpt>
      <trkpt lat="45.90229" lon="4.99074">
        <ele>281</ele>
        <time>2016-11-15T11:12:54Z</time>
      </trkpt>
      <trkpt lat="45.90228" lon="4.99065">
        <ele>281</ele>
        <time>2016-11-15T11:12:55Z</time>
      </trkpt>
      <trkpt lat="45.90228" lon="4.99056">
        <ele>280</ele>
        <time>2016-11-15T11:12:56Z</time>
      </trkpt>
      <trkpt lat="45.90228" lon="4.99047">
        <ele>280</ele>
        <time>2016-11-15T11:12:57Z</time>
      </trkpt>
      <trkpt lat="45.90227" lon="4.99039">
        <ele>280</ele>
        <time>2016-11-15T11:12:58Z</time>
      </trkpt>
      <trkpt lat="45.90227" lon="4.99031">
        <ele>280</ele>
        <time>2016-11-15T11:12:59Z</time>
      </trkpt>
      <trkpt lat="45.90227" lon="4.99022">
        <ele>280</ele>
        <time>2016-11-15T11:13:00Z</time>
      </trkpt>
      <trkpt lat="45.90227" lon="4.99014">
        <ele>280</ele>
        <time>2016-11-15T11:13:01Z</time>
      </trkpt>
      <trkpt lat="45.90226" lon="4.99006">
        <ele>280</ele>
        <time>2016-11-15T11:13:02Z</time>
      </trkpt>
      <trkpt lat="45.90226" lon="4.98998">
        <ele>280</ele>
        <time>2016-11-15T11:13:03Z</time>
      </trkpt>
      <trkpt lat="45.90226" lon="4.9899">
        <ele>280</ele>
        <time>2016-11-15T11:13:04Z</time>
      </trkpt>
      <trkpt lat="45.90225" lon="4.98982">
        <ele>280</ele>
        <time>2016-11-15T11:13:05Z</time>
      </trkpt>
      <trkpt lat="45.90225" lon="4.98973">
        <ele>280</ele>
        <time>2016-11-15T11:13:06Z</time>
      </trkpt>
      <trkpt lat="45.90224" lon="4.98965">
        <ele>280</ele>
        <time>2016-11-15T11:13:07Z</time>
      </trkpt>
      <trkpt lat="45.90224" lon="4.98956">
        <ele>280</ele>
        <time>2016-11-15T11:13:08Z</time>
      </trkpt>
      <trkpt lat="45.90224" lon="4.98947">
        <ele>280</ele>
        <time>2016-11-15T11:13:09Z</time>
      </trkpt>
      <trkpt lat="45.90224" lon="4.98938">
        <ele>280</ele>
        <time>2016-11-15T11:13:10Z</time>
      </trkpt>
      <trkpt lat="45.90223" lon="4.98929">
        <ele>280</ele>
        <time>2016-11-15T11:13:11Z</time>
      </trkpt>
      <trkpt lat="45.90223" lon="4.98919">
        <ele>280</ele>
        <time>2016-11-15T11:13:12Z</time>
      </trkpt>
      <trkpt lat="45.90223" lon="4.9891">
        <ele>281</ele>
        <time>2016-11-15T11:13:13Z</time>
      </trkpt>
      <trkpt lat="45.90222" lon="4.989">
        <ele>281</ele>
        <time>2016-11-15T11:13:14Z</time>
      </trkpt>
      <trkpt lat="45.90222" lon="4.98891">
        <ele>281</ele>
        <time>2016-11-15T11:13:15Z</time>
      </trkpt>
      <trkpt lat="45.90222" lon="4.98881">
        <ele>281</ele>
        <time>2016-11-15T11:13:16Z</time>
      </trkpt>
      <trkpt lat="45.90221" lon="4.98872">
        <ele>281</ele>
        <time>2016-11-15T11:13:17Z</time>
      </trkpt>
      <trkpt lat="45.90221" lon="4.98862">
        <ele>281</ele>
        <time>2016-11-15T11:13:18Z</time>
      </trkpt>
      <trkpt lat="45.9022" lon="4.98853">
        <ele>281</ele>
        <time>2016-11-15T11:13:19Z</time>
      </trkpt>
      <trkpt lat="45.90218" lon="4.98844">
        <ele>281</ele>
        <time>2016-11-15T11:13:20Z</time>
      </trkpt>
      <trkpt lat="45.90217" lon="4.98835">
        <ele>281</ele>
        <time>2016-11-15T11:13:21Z</time>
      </trkpt>
      <trkpt lat="45.90216" lon="4.98827">
        <ele>281</ele>
        <time>2016-11-15T11:13:22Z</time>
      </trkpt>
      <trkpt lat="45.90214" lon="4.98818">
        <ele>281</ele>
        <time>2016-11-15T11:13:23Z</time>
      </trkpt>
      <trkpt lat="45.90212" lon="4.98809">
        <ele>281</ele>
        <time>2016-11-15T11:13:24Z</time>
      </trkpt>
      <trkpt lat="45.9021" lon="4.988">
        <ele>281</ele>
        <time>2016-11-15T11:13:25Z</time>
      </trkpt>
      <trkpt lat="45.90207" lon="4.98792">
        <ele>281</ele>
        <time>2016-11-15T11:13:26Z</time>
      </trkpt>
      <trkpt lat="45.90205" lon="4.98784">
        <ele>281</ele>
        <time>2016-11-15T11:13:27Z</time>
      </trkpt>
      <trkpt lat="45.90202" lon="4.98775">
        <ele>281</ele>
        <time>2016-11-15T11:13:28Z</time>
      </trkpt>
      <trkpt lat="45.902" lon="4.98767">
        <ele>281</ele>
        <time>2016-11-15T11:13:29Z</time>
      </trkpt>
      <trkpt lat="45.90197" lon="4.9876">
        <ele>281</ele>
        <time>2016-11-15T11:13:30Z</time>
      </trkpt>
      <trkpt lat="45.90195" lon="4.98752">
        <ele>281</ele>
        <time>2016-11-15T11:13:31Z</time>
      </trkpt>
      <trkpt lat="45.90192" lon="4.98745">
        <ele>281</ele>
        <time>2016-11-15T11:13:32Z</time>
      </trkpt>
      <trkpt lat="45.9019" lon="4.98738">
        <ele>281</ele>
        <time>2016-11-15T11:13:33Z</time>
      </trkpt>
      <trkpt lat="45.90189" lon="4.98732">
        <ele>281</ele>
        <time>2016-11-15T11:13:34Z</time>
      </trkpt>
      <trkpt lat="45.90187" lon="4.98726">
        <ele>281</ele>
        <time>2016-11-15T11:13:35Z</time>
      </trkpt>
      <trkpt lat="45.90186" lon="4.98719">
        <ele>281</ele>
        <time>2016-11-15T11:13:36Z</time>
      </trkpt>
      <trkpt lat="45.90184" lon="4.98713">
        <ele>281</ele>
        <time>2016-11-15T11:13:37Z</time>
      </trkpt>
      <trkpt lat="45.90182" lon="4.98707">
        <ele>281</ele>
        <time>2016-11-15T11:13:38Z</time>
      </trkpt>
      <trkpt lat="45.9018" lon="4.98701">
        <ele>281</ele>
        <time>2016-11-15T11:13:39Z</time>
      </trkpt>
      <trkpt lat="45.90178" lon="4.98695">
        <ele>282</ele>
        <time>2016-11-15T11:13:40Z</time>
      </trkpt>
      <trkpt lat="45.90176" lon="4.98688">
        <ele>282</ele>
        <time>2016-11-15T11:13:41Z</time>
      </trkpt>
      <trkpt lat="45.90173" lon="4.98682">
        <ele>282</ele>
        <time>2016-11-15T11:13:42Z</time>
      </trkpt>
      <trkpt lat="45.90171" lon="4.98676">
        <ele>282</ele>
        <time>2016-11-15T11:13:43Z</time>
      </trkpt>
      <trkpt lat="45.90168" lon="4.98671">
        <ele>282</ele>
        <time>2016-11-15T11:13:44Z</time>
      </trkpt>
      <trkpt lat="45.90164" lon="4.9866">
        <ele>282</ele>
        <time>2016-11-15T11:13:46Z</time>
      </trkpt>
      <trkpt lat="45.90162" lon="4.98655">
        <ele>282</ele>
        <time>2016-11-15T11:13:47Z</time>
      </trkpt>
      <trkpt lat="45.90159" lon="4.98646">
        <ele>282</ele>
        <time>2016-11-15T11:13:49Z</time>
      </trkpt>
      <trkpt lat="45.90157" lon="4.98642">
        <ele>282</ele>
        <time>2016-11-15T11:13:50Z</time>
      </trkpt>
      <trkpt lat="45.90154" lon="4.98632">
        <ele>282</ele>
        <time>2016-11-15T11:13:52Z</time>
      </trkpt>
      <trkpt lat="45.90152" lon="4.98627">
        <ele>282</ele>
        <time>2016-11-15T11:13:53Z</time>
      </trkpt>
      <trkpt lat="45.90147" lon="4.98617">
        <ele>282</ele>
        <time>2016-11-15T11:13:55Z</time>
      </trkpt>
      <trkpt lat="45.90145" lon="4.98611">
        <ele>282</ele>
        <time>2016-11-15T11:13:56Z</time>
      </trkpt>
      <trkpt lat="45.90142" lon="4.986">
        <ele>282</ele>
        <time>2016-11-15T11:13:58Z</time>
      </trkpt>
      <trkpt lat="45.9014" lon="4.98594">
        <ele>282</ele>
        <time>2016-11-15T11:13:59Z</time>
      </trkpt>
      <trkpt lat="45.90138" lon="4.98588">
        <ele>282</ele>
        <time>2016-11-15T11:14:00Z</time>
      </trkpt>
      <trkpt lat="45.90136" lon="4.98582">
        <ele>282</ele>
        <time>2016-11-15T11:14:01Z</time>
      </trkpt>
      <trkpt lat="45.90131" lon="4.98571">
        <ele>282</ele>
        <time>2016-11-15T11:14:03Z</time>
      </trkpt>
      <trkpt lat="45.90129" lon="4.98566">
        <ele>282</ele>
        <time>2016-11-15T11:14:04Z</time>
      </trkpt>
      <trkpt lat="45.90125" lon="4.98556">
        <ele>282</ele>
        <time>2016-11-15T11:14:06Z</time>
      </trkpt>
      <trkpt lat="45.90123" lon="4.98551">
        <ele>282</ele>
        <time>2016-11-15T11:14:07Z</time>
      </trkpt>
      <trkpt lat="45.9012" lon="4.9854">
        <ele>282</ele>
        <time>2016-11-15T11:14:09Z</time>
      </trkpt>
      <trkpt lat="45.90118" lon="4.98535">
        <ele>283</ele>
        <time>2016-11-15T11:14:10Z</time>
      </trkpt>
      <trkpt lat="45.90114" lon="4.98524">
        <ele>283</ele>
        <time>2016-11-15T11:14:12Z</time>
      </trkpt>
      <trkpt lat="45.90112" lon="4.98519">
        <ele>283</ele>
        <time>2016-11-15T11:14:13Z</time>
      </trkpt>
      <trkpt lat="45.90108" lon="4.98509">
        <ele>283</ele>
        <time>2016-11-15T11:14:15Z</time>
      </trkpt>
      <trkpt lat="45.90107" lon="4.98503">
        <ele>283</ele>
        <time>2016-11-15T11:14:16Z</time>
      </trkpt>
      <trkpt lat="45.90105" lon="4.98497">
        <ele>283</ele>
        <time>2016-11-15T11:14:17Z</time>
      </trkpt>
      <trkpt lat="45.90103" lon="4.9849">
        <ele>283</ele>
        <time>2016-11-15T11:14:18Z</time>
      </trkpt>
      <trkpt lat="45.90101" lon="4.98483">
        <ele>283</ele>
        <time>2016-11-15T11:14:19Z</time>
      </trkpt>
      <trkpt lat="45.90099" lon="4.98476">
        <ele>283</ele>
        <time>2016-11-15T11:14:20Z</time>
      </trkpt>
      <trkpt lat="45.90097" lon="4.98469">
        <ele>283</ele>
        <time>2016-11-15T11:14:21Z</time>
      </trkpt>
      <trkpt lat="45.90094" lon="4.98462">
        <ele>283</ele>
        <time>2016-11-15T11:14:22Z</time>
      </trkpt>
      <trkpt lat="45.90091" lon="4.98455">
        <ele>283</ele>
        <time>2016-11-15T11:14:23Z</time>
      </trkpt>
      <trkpt lat="45.90089" lon="4.98447">
        <ele>283</ele>
        <time>2016-11-15T11:14:24Z</time>
      </trkpt>
      <trkpt lat="45.90086" lon="4.98439">
        <ele>283</ele>
        <time>2016-11-15T11:14:25Z</time>
      </trkpt>
      <trkpt lat="45.90083" lon="4.98431">
        <ele>283</ele>
        <time>2016-11-15T11:14:26Z</time>
      </trkpt>
      <trkpt lat="45.9008" lon="4.98423">
        <ele>284</ele>
        <time>2016-11-15T11:14:27Z</time>
      </trkpt>
      <trkpt lat="45.90077" lon="4.98415">
        <ele>283</ele>
        <time>2016-11-15T11:14:28Z</time>
      </trkpt>
      <trkpt lat="45.90075" lon="4.98407">
        <ele>283</ele>
        <time>2016-11-15T11:14:29Z</time>
      </trkpt>
      <trkpt lat="45.90073" lon="4.98398">
        <ele>283</ele>
        <time>2016-11-15T11:14:30Z</time>
      </trkpt>
      <trkpt lat="45.90071" lon="4.9839">
        <ele>282</ele>
        <time>2016-11-15T11:14:31Z</time>
      </trkpt>
      <trkpt lat="45.90069" lon="4.98382">
        <ele>282</ele>
        <time>2016-11-15T11:14:32Z</time>
      </trkpt>
      <trkpt lat="45.90067" lon="4.98373">
        <ele>282</ele>
        <time>2016-11-15T11:14:33Z</time>
      </trkpt>
      <trkpt lat="45.90066" lon="4.98364">
        <ele>282</ele>
        <time>2016-11-15T11:14:34Z</time>
      </trkpt>
      <trkpt lat="45.90065" lon="4.98355">
        <ele>282</ele>
        <time>2016-11-15T11:14:35Z</time>
      </trkpt>
      <trkpt lat="45.90065" lon="4.98346">
        <ele>282</ele>
        <time>2016-11-15T11:14:36Z</time>
      </trkpt>
      <trkpt lat="45.90065" lon="4.98337">
        <ele>282</ele>
        <time>2016-11-15T11:14:37Z</time>
      </trkpt>
      <trkpt lat="45.90064" lon="4.98327">
        <ele>281</ele>
        <time>2016-11-15T11:14:38Z</time>
      </trkpt>
      <trkpt lat="45.90064" lon="4.98318">
        <ele>281</ele>
        <time>2016-11-15T11:14:39Z</time>
      </trkpt>
      <trkpt lat="45.90063" lon="4.98308">
        <ele>281</ele>
        <time>2016-11-15T11:14:40Z</time>
      </trkpt>
      <trkpt lat="45.90062" lon="4.98298">
        <ele>281</ele>
        <time>2016-11-15T11:14:41Z</time>
      </trkpt>
      <trkpt lat="45.90061" lon="4.98288">
        <ele>281</ele>
        <time>2016-11-15T11:14:42Z</time>
      </trkpt>
      <trkpt lat="45.90061" lon="4.98278">
        <ele>281</ele>
        <time>2016-11-15T11:14:43Z</time>
      </trkpt>
      <trkpt lat="45.90061" lon="4.98268">
        <ele>281</ele>
        <time>2016-11-15T11:14:44Z</time>
      </trkpt>
      <trkpt lat="45.90061" lon="4.98258">
        <ele>281</ele>
        <time>2016-11-15T11:14:45Z</time>
      </trkpt>
      <trkpt lat="45.9006" lon="4.98248">
        <ele>280</ele>
        <time>2016-11-15T11:14:46Z</time>
      </trkpt>
      <trkpt lat="45.9006" lon="4.98238">
        <ele>280</ele>
        <time>2016-11-15T11:14:47Z</time>
      </trkpt>
      <trkpt lat="45.90059" lon="4.98229">
        <ele>280</ele>
        <time>2016-11-15T11:14:48Z</time>
      </trkpt>
      <trkpt lat="45.90058" lon="4.9822">
        <ele>280</ele>
        <time>2016-11-15T11:14:49Z</time>
      </trkpt>
      <trkpt lat="45.90057" lon="4.98211">
        <ele>280</ele>
        <time>2016-11-15T11:14:50Z</time>
      </trkpt>
      <trkpt lat="45.90056" lon="4.98201">
        <ele>280</ele>
        <time>2016-11-15T11:14:51Z</time>
      </trkpt>
      <trkpt lat="45.90055" lon="4.98191">
        <ele>280</ele>
        <time>2016-11-15T11:14:52Z</time>
      </trkpt>
      <trkpt lat="45.90055" lon="4.98182">
        <ele>280</ele>
        <time>2016-11-15T11:14:53Z</time>
      </trkpt>
      <trkpt lat="45.90055" lon="4.98173">
        <ele>280</ele>
        <time>2016-11-15T11:14:54Z</time>
      </trkpt>
      <trkpt lat="45.90054" lon="4.98163">
        <ele>279</ele>
        <time>2016-11-15T11:14:55Z</time>
      </trkpt>
      <trkpt lat="45.90053" lon="4.98154">
        <ele>279</ele>
        <time>2016-11-15T11:14:56Z</time>
      </trkpt>
      <trkpt lat="45.90053" lon="4.98144">
        <ele>279</ele>
        <time>2016-11-15T11:14:57Z</time>
      </trkpt>
      <trkpt lat="45.90052" lon="4.98135">
        <ele>279</ele>
        <time>2016-11-15T11:14:58Z</time>
      </trkpt>
      <trkpt lat="45.90051" lon="4.98126">
        <ele>279</ele>
        <time>2016-11-15T11:14:59Z</time>
      </trkpt>
      <trkpt lat="45.9005" lon="4.98116">
        <ele>279</ele>
        <time>2016-11-15T11:15:00Z</time>
      </trkpt>
      <trkpt lat="45.9005" lon="4.98107">
        <ele>279</ele>
        <time>2016-11-15T11:15:01Z</time>
      </trkpt>
      <trkpt lat="45.90049" lon="4.98097">
        <ele>279</ele>
        <time>2016-11-15T11:15:02Z</time>
      </trkpt>
      <trkpt lat="45.90048" lon="4.98088">
        <ele>279</ele>
        <time>2016-11-15T11:15:03Z</time>
      </trkpt>
      <trkpt lat="45.90048" lon="4.98078">
        <ele>279</ele>
        <time>2016-11-15T11:15:04Z</time>
      </trkpt>
      <trkpt lat="45.90047" lon="4.98068">
        <ele>279</ele>
        <time>2016-11-15T11:15:05Z</time>
      </trkpt>
      <trkpt lat="45.90047" lon="4.98059">
        <ele>279</ele>
        <time>2016-11-15T11:15:06Z</time>
      </trkpt>
      <trkpt lat="45.90046" lon="4.9805">
        <ele>279</ele>
        <time>2016-11-15T11:15:07Z</time>
      </trkpt>
      <trkpt lat="45.90046" lon="4.98041">
        <ele>278</ele>
        <time>2016-11-15T11:15:08Z</time>
      </trkpt>
      <trkpt lat="45.90045" lon="4.98032">
        <ele>278</ele>
        <time>2016-11-15T11:15:09Z</time>
      </trkpt>
      <trkpt lat="45.90044" lon="4.98023">
        <ele>278</ele>
        <time>2016-11-15T11:15:10Z</time>
      </trkpt>
      <trkpt lat="45.90044" lon="4.98014">
        <ele>278</ele>
        <time>2016-11-15T11:15:11Z</time>
      </trkpt>
      <trkpt lat="45.90044" lon="4.98005">
        <ele>278</ele>
        <time>2016-11-15T11:15:12Z</time>
      </trkpt>
      <trkpt lat="45.90043" lon="4.97995">
        <ele>278</ele>
        <time>2016-11-15T11:15:13Z</time>
      </trkpt>
      <trkpt lat="45.90042" lon="4.97986">
        <ele>278</ele>
        <time>2016-11-15T11:15:14Z</time>
      </trkpt>
      <trkpt lat="45.90041" lon="4.97977">
        <ele>278</ele>
        <time>2016-11-15T11:15:15Z</time>
      </trkpt>
      <trkpt lat="45.9004" lon="4.97968">
        <ele>278</ele>
        <time>2016-11-15T11:15:16Z</time>
      </trkpt>
      <trkpt lat="45.9004" lon="4.97959">
        <ele>278</ele>
        <time>2016-11-15T11:15:17Z</time>
      </trkpt>
      <trkpt lat="45.90039" lon="4.9795">
        <ele>279</ele>
        <time>2016-11-15T11:15:18Z</time>
      </trkpt>
      <trkpt lat="45.90038" lon="4.97941">
        <ele>279</ele>
        <time>2016-11-15T11:15:19Z</time>
      </trkpt>
      <trkpt lat="45.90037" lon="4.97932">
        <ele>279</ele>
        <time>2016-11-15T11:15:20Z</time>
      </trkpt>
      <trkpt lat="45.90036" lon="4.97924">
        <ele>279</ele>
        <time>2016-11-15T11:15:21Z</time>
      </trkpt>
      <trkpt lat="45.90034" lon="4.97916">
        <ele>279</ele>
        <time>2016-11-15T11:15:22Z</time>
      </trkpt>
      <trkpt lat="45.9003" lon="4.9791">
        <ele>279</ele>
        <time>2016-11-15T11:15:23Z</time>
      </trkpt>
      <trkpt lat="45.90025" lon="4.97907">
        <ele>279</ele>
        <time>2016-11-15T11:15:24Z</time>
      </trkpt>
      <trkpt lat="45.90019" lon="4.97906">
        <ele>279</ele>
        <time>2016-11-15T11:15:25Z</time>
      </trkpt>
      <trkpt lat="45.90014" lon="4.97908">
        <ele>278</ele>
        <time>2016-11-15T11:15:26Z</time>
      </trkpt>
      <trkpt lat="45.90008" lon="4.97911">
        <ele>278</ele>
        <time>2016-11-15T11:15:27Z</time>
      </trkpt>
      <trkpt lat="45.90003" lon="4.97913">
        <ele>278</ele>
        <time>2016-11-15T11:15:28Z</time>
      </trkpt>
      <trkpt lat="45.89997" lon="4.97916">
        <ele>278</ele>
        <time>2016-11-15T11:15:29Z</time>
      </trkpt>
      <trkpt lat="45.89991" lon="4.97918">
        <ele>278</ele>
        <time>2016-11-15T11:15:30Z</time>
      </trkpt>
      <trkpt lat="45.89984" lon="4.97921">
        <ele>278</ele>
        <time>2016-11-15T11:15:31Z</time>
      </trkpt>
      <trkpt lat="45.89978" lon="4.97924">
        <ele>278</ele>
        <time>2016-11-15T11:15:32Z</time>
      </trkpt>
      <trkpt lat="45.89972" lon="4.97926">
        <ele>278</ele>
        <time>2016-11-15T11:15:33Z</time>
      </trkpt>
      <trkpt lat="45.89966" lon="4.97928">
        <ele>278</ele>
        <time>2016-11-15T11:15:34Z</time>
      </trkpt>
      <trkpt lat="45.8996" lon="4.97929">
        <ele>278</ele>
        <time>2016-11-15T11:15:35Z</time>
      </trkpt>
      <trkpt lat="45.89954" lon="4.9793">
        <ele>278</ele>
        <time>2016-11-15T11:15:36Z</time>
      </trkpt>
      <trkpt lat="45.89948" lon="4.97931">
        <ele>278</ele>
        <time>2016-11-15T11:15:37Z</time>
      </trkpt>
      <trkpt lat="45.89942" lon="4.9793">
        <ele>278</ele>
        <time>2016-11-15T11:15:38Z</time>
      </trkpt>
      <trkpt lat="45.89936" lon="4.97929">
        <ele>278</ele>
        <time>2016-11-15T11:15:39Z</time>
      </trkpt>
      <trkpt lat="45.8993" lon="4.97928">
        <ele>278</ele>
        <time>2016-11-15T11:15:40Z</time>
      </trkpt>
      <trkpt lat="45.89925" lon="4.97926">
        <ele>278</ele>
        <time>2016-11-15T11:15:41Z</time>
      </trkpt>
      <trkpt lat="45.89919" lon="4.97925">
        <ele>278</ele>
        <time>2016-11-15T11:15:42Z</time>
      </trkpt>
      <trkpt lat="45.89913" lon="4.97923">
        <ele>278</ele>
        <time>2016-11-15T11:15:43Z</time>
      </trkpt>
      <trkpt lat="45.89907" lon="4.97921">
        <ele>278</ele>
        <time>2016-11-15T11:15:44Z</time>
      </trkpt>
      <trkpt lat="45.89901" lon="4.97919">
        <ele>278</ele>
        <time>2016-11-15T11:15:45Z</time>
      </trkpt>
      <trkpt lat="45.89895" lon="4.97917">
        <ele>278</ele>
        <time>2016-11-15T11:15:46Z</time>
      </trkpt>
      <trkpt lat="45.89889" lon="4.97915">
        <ele>278</ele>
        <time>2016-11-15T11:15:47Z</time>
      </trkpt>
      <trkpt lat="45.89884" lon="4.97912">
        <ele>278</ele>
        <time>2016-11-15T11:15:48Z</time>
      </trkpt>
      <trkpt lat="45.89879" lon="4.9791">
        <ele>278</ele>
        <time>2016-11-15T11:15:49Z</time>
      </trkpt>
      <trkpt lat="45.89873" lon="4.97907">
        <ele>278</ele>
        <time>2016-11-15T11:15:50Z</time>
      </trkpt>
      <trkpt lat="45.89868" lon="4.97904">
        <ele>278</ele>
        <time>2016-11-15T11:15:51Z</time>
      </trkpt>
      <trkpt lat="45.89862" lon="4.97901">
        <ele>278</ele>
        <time>2016-11-15T11:15:52Z</time>
      </trkpt>
      <trkpt lat="45.89856" lon="4.97898">
        <ele>278</ele>
        <time>2016-11-15T11:15:53Z</time>
      </trkpt>
      <trkpt lat="45.8985" lon="4.97894">
        <ele>278</ele>
        <time>2016-11-15T11:15:54Z</time>
      </trkpt>
      <trkpt lat="45.89844" lon="4.9789">
        <ele>278</ele>
        <time>2016-11-15T11:15:55Z</time>
      </trkpt>
      <trkpt lat="45.89838" lon="4.97887">
        <ele>278</ele>
        <time>2016-11-15T11:15:56Z</time>
      </trkpt>
      <trkpt lat="45.89832" lon="4.97883">
        <ele>278</ele>
        <time>2016-11-15T11:15:57Z</time>
      </trkpt>
      <trkpt lat="45.89826" lon="4.9788">
        <ele>278</ele>
        <time>2016-11-15T11:15:58Z</time>
      </trkpt>
      <trkpt lat="45.8982" lon="4.97876">
        <ele>278</ele>
        <time>2016-11-15T11:15:59Z</time>
      </trkpt>
      <trkpt lat="45.89814" lon="4.97872">
        <ele>278</ele>
        <time>2016-11-15T11:16:00Z</time>
      </trkpt>
      <trkpt lat="45.89809" lon="4.97869">
        <ele>278</ele>
        <time>2016-11-15T11:16:01Z</time>
      </trkpt>
      <trkpt lat="45.89803" lon="4.97866">
        <ele>278</ele>
        <time>2016-11-15T11:16:02Z</time>
      </trkpt>
      <trkpt lat="45.89798" lon="4.97862">
        <ele>278</ele>
        <time>2016-11-15T11:16:03Z</time>
      </trkpt>
      <trkpt lat="45.89793" lon="4.97858">
        <ele>278</ele>
        <time>2016-11-15T11:16:04Z</time>
      </trkpt>
      <trkpt lat="45.89788" lon="4.97854">
        <ele>278</ele>
        <time>2016-11-15T11:16:05Z</time>
      </trkpt>
      <trkpt lat="45.89783" lon="4.97851">
        <ele>278</ele>
        <time>2016-11-15T11:16:06Z</time>
      </trkpt>
      <trkpt lat="45.89778" lon="4.97847">
        <ele>278</ele>
        <time>2016-11-15T11:16:07Z</time>
      </trkpt>
      <trkpt lat="45.89773" lon="4.97843">
        <ele>278</ele>
        <time>2016-11-15T11:16:08Z</time>
      </trkpt>
      <trkpt lat="45.89768" lon="4.97839">
        <ele>278</ele>
        <time>2016-11-15T11:16:09Z</time>
      </trkpt>
      <trkpt lat="45.89763" lon="4.97835">
        <ele>278</ele>
        <time>2016-11-15T11:16:10Z</time>
      </trkpt>
      <trkpt lat="45.89758" lon="4.97831">
        <ele>278</ele>
        <time>2016-11-15T11:16:11Z</time>
      </trkpt>
      <trkpt lat="45.89752" lon="4.97827">
        <ele>278</ele>
        <time>2016-11-15T11:16:12Z</time>
      </trkpt>
      <trkpt lat="45.89747" lon="4.97824">
        <ele>279</ele>
        <time>2016-11-15T11:16:13Z</time>
      </trkpt>
      <trkpt lat="45.89742" lon="4.9782">
        <ele>279</ele>
        <time>2016-11-15T11:16:14Z</time>
      </trkpt>
      <trkpt lat="45.89737" lon="4.97816">
        <ele>279</ele>
        <time>2016-11-15T11:16:15Z</time>
      </trkpt>
      <trkpt lat="45.89732" lon="4.97812">
        <ele>279</ele>
        <time>2016-11-15T11:16:16Z</time>
      </trkpt>
      <trkpt lat="45.89727" lon="4.97809">
        <ele>279</ele>
        <time>2016-11-15T11:16:17Z</time>
      </trkpt>
      <trkpt lat="45.89722" lon="4.97805">
        <ele>279</ele>
        <time>2016-11-15T11:16:18Z</time>
      </trkpt>
      <trkpt lat="45.89717" lon="4.97802">
        <ele>279</ele>
        <time>2016-11-15T11:16:19Z</time>
      </trkpt>
      <trkpt lat="45.89712" lon="4.97798">
        <ele>279</ele>
        <time>2016-11-15T11:16:20Z</time>
      </trkpt>
      <trkpt lat="45.89707" lon="4.97795">
        <ele>280</ele>
        <time>2016-11-15T11:16:21Z</time>
      </trkpt>
      <trkpt lat="45.89702" lon="4.97791">
        <ele>280</ele>
        <time>2016-11-15T11:16:22Z</time>
      </trkpt>
      <trkpt lat="45.89697" lon="4.97787">
        <ele>280</ele>
        <time>2016-11-15T11:16:23Z</time>
      </trkpt>
      <trkpt lat="45.89692" lon="4.97783">
        <ele>280</ele>
        <time>2016-11-15T11:16:24Z</time>
      </trkpt>
      <trkpt lat="45.89687" lon="4.97779">
        <ele>280</ele>
        <time>2016-11-15T11:16:25Z</time>
      </trkpt>
      <trkpt lat="45.89682" lon="4.97775">
        <ele>280</ele>
        <time>2016-11-15T11:16:26Z</time>
      </trkpt>
      <trkpt lat="45.89677" lon="4.97771">
        <ele>280</ele>
        <time>2016-11-15T11:16:27Z</time>
      </trkpt>
      <trkpt lat="45.89673" lon="4.97767">
        <ele>280</ele>
        <time>2016-11-15T11:16:28Z</time>
      </trkpt>
      <trkpt lat="45.89669" lon="4.97761">
        <ele>280</ele>
        <time>2016-11-15T11:16:29Z</time>
      </trkpt>
      <trkpt lat="45.89666" lon="4.97755">
        <ele>280</ele>
        <time>2016-11-15T11:16:30Z</time>
      </trkpt>
      <trkpt lat="45.89664" lon="4.97748">
        <ele>280</ele>
        <time>2016-11-15T11:16:31Z</time>
      </trkpt>
      <trkpt lat="45.89663" lon="4.9774">
        <ele>280</ele>
        <time>2016-11-15T11:16:32Z</time>
      </trkpt>
      <trkpt lat="45.89663" lon="4.97732">
        <ele>280</ele>
        <time>2016-11-15T11:16:33Z</time>
      </trkpt>
      <trkpt lat="45.89664" lon="4.97725">
        <ele>280</ele>
        <time>2016-11-15T11:16:34Z</time>
      </trkpt>
      <trkpt lat="45.89665" lon="4.97717">
        <ele>280</ele>
        <time>2016-11-15T11:16:35Z</time>
      </trkpt>
      <trkpt lat="45.89667" lon="4.97709">
        <ele>280</ele>
        <time>2016-11-15T11:16:36Z</time>
      </trkpt>
      <trkpt lat="45.89668" lon="4.97701">
        <ele>280</ele>
        <time>2016-11-15T11:16:37Z</time>
      </trkpt>
      <trkpt lat="45.89669" lon="4.97693">
        <ele>280</ele>
        <time>2016-11-15T11:16:38Z</time>
      </trkpt>
      <trkpt lat="45.8967" lon="4.97685">
        <ele>280</ele>
        <time>2016-11-15T11:16:39Z</time>
      </trkpt>
      <trkpt lat="45.89671" lon="4.97677">
        <ele>280</ele>
        <time>2016-11-15T11:16:40Z</time>
      </trkpt>
      <trkpt lat="45.89673" lon="4.97669">
        <ele>280</ele>
        <time>2016-11-15T11:16:41Z</time>
      </trkpt>
      <trkpt lat="45.89675" lon="4.97661">
        <ele>280</ele>
        <time>2016-11-15T11:16:42Z</time>
      </trkpt>
      <trkpt lat="45.89676" lon="4.97653">
        <ele>281</ele>
        <time>2016-11-15T11:16:43Z</time>
      </trkpt>
      <trkpt lat="45.89678" lon="4.97645">
        <ele>281</ele>
        <time>2016-11-15T11:16:44Z</time>
      </trkpt>
      <trkpt lat="45.89679" lon="4.97637">
        <ele>281</ele>
        <time>2016-11-15T11:16:45Z</time>
      </trkpt>
      <trkpt lat="45.8968" lon="4.97629">
        <ele>281</ele>
        <time>2016-11-15T11:16:46Z</time>
      </trkpt>
      <trkpt lat="45.89682" lon="4.97621">
        <ele>281</ele>
        <time>2016-11-15T11:16:47Z</time>
      </trkpt>
      <trkpt lat="45.89683" lon="4.97613">
        <ele>282</ele>
        <time>2016-11-15T11:16:48Z</time>
      </trkpt>
      <trkpt lat="45.89685" lon="4.97606">
        <ele>282</ele>
        <time>2016-11-15T11:16:49Z</time>
      </trkpt>
      <trkpt lat="45.89687" lon="4.97597">
        <ele>282</ele>
        <time>2016-11-15T11:16:50Z</time>
      </trkpt>
      <trkpt lat="45.89689" lon="4.97589">
        <ele>282</ele>
        <time>2016-11-15T11:16:51Z</time>
      </trkpt>
      <trkpt lat="45.8969" lon="4.97582">
        <ele>284</ele>
        <time>2016-11-15T11:16:52Z</time>
      </trkpt>
      <trkpt lat="45.89691" lon="4.97575">
        <ele>284</ele>
        <time>2016-11-15T11:16:53Z</time>
      </trkpt>
      <trkpt lat="45.89692" lon="4.97568">
        <ele>284</ele>
        <time>2016-11-15T11:16:54Z</time>
      </trkpt>
      <trkpt lat="45.89693" lon="4.97561">
        <ele>284</ele>
        <time>2016-11-15T11:16:55Z</time>
      </trkpt>
      <trkpt lat="45.89695" lon="4.97554">
        <ele>284</ele>
        <time>2016-11-15T11:16:56Z</time>
      </trkpt>
      <trkpt lat="45.89696" lon="4.97548">
        <ele>284</ele>
        <time>2016-11-15T11:16:57Z</time>
      </trkpt>
      <trkpt lat="45.89697" lon="4.97541">
        <ele>284</ele>
        <time>2016-11-15T11:16:58Z</time>
      </trkpt>
      <trkpt lat="45.89699" lon="4.97529">
        <ele>285</ele>
        <time>2016-11-15T11:17:00Z</time>
      </trkpt>
      <trkpt lat="45.897" lon="4.97523">
        <ele>285</ele>
        <time>2016-11-15T11:17:01Z</time>
      </trkpt>
      <trkpt lat="45.89702" lon="4.97512">
        <ele>285</ele>
        <time>2016-11-15T11:17:03Z</time>
      </trkpt>
      <trkpt lat="45.89703" lon="4.97507">
        <ele>285</ele>
        <time>2016-11-15T11:17:04Z</time>
      </trkpt>
      <trkpt lat="45.89704" lon="4.97495">
        <ele>287</ele>
        <time>2016-11-15T11:17:06Z</time>
      </trkpt>
      <trkpt lat="45.89705" lon="4.9749">
        <ele>287</ele>
        <time>2016-11-15T11:17:07Z</time>
      </trkpt>
      <trkpt lat="45.89707" lon="4.97479">
        <ele>287</ele>
        <time>2016-11-15T11:17:09Z</time>
      </trkpt>
      <trkpt lat="45.89708" lon="4.97474">
        <ele>287</ele>
        <time>2016-11-15T11:17:10Z</time>
      </trkpt>
      <trkpt lat="45.8971" lon="4.97463">
        <ele>287</ele>
        <time>2016-11-15T11:17:12Z</time>
      </trkpt>
      <trkpt lat="45.89711" lon="4.97458">
        <ele>287</ele>
        <time>2016-11-15T11:17:13Z</time>
      </trkpt>
      <trkpt lat="45.89712" lon="4.97446">
        <ele>287</ele>
        <time>2016-11-15T11:17:15Z</time>
      </trkpt>
      <trkpt lat="45.89713" lon="4.97439">
        <ele>287</ele>
        <time>2016-11-15T11:17:16Z</time>
      </trkpt>
      <trkpt lat="45.89714" lon="4.97433">
        <ele>287</ele>
        <time>2016-11-15T11:17:17Z</time>
      </trkpt>
      <trkpt lat="45.89715" lon="4.97427">
        <ele>287</ele>
        <time>2016-11-15T11:17:18Z</time>
      </trkpt>
      <trkpt lat="45.89717" lon="4.97421">
        <ele>287</ele>
        <time>2016-11-15T11:17:19Z</time>
      </trkpt>
      <trkpt lat="45.89719" lon="4.97416">
        <ele>288</ele>
        <time>2016-11-15T11:17:20Z</time>
      </trkpt>
      <trkpt lat="45.89723" lon="4.97406">
        <ele>288</ele>
        <time>2016-11-15T11:17:22Z</time>
      </trkpt>
      <trkpt lat="45.89725" lon="4.97401">
        <ele>288</ele>
        <time>2016-11-15T11:17:23Z</time>
      </trkpt>
      <trkpt lat="45.89729" lon="4.97392">
        <ele>287</ele>
        <time>2016-11-15T11:17:25Z</time>
      </trkpt>
      <trkpt lat="45.89731" lon="4.97387">
        <ele>287</ele>
        <time>2016-11-15T11:17:26Z</time>
      </trkpt>
      <trkpt lat="45.89735" lon="4.97378">
        <ele>287</ele>
        <time>2016-11-15T11:17:28Z</time>
      </trkpt>
      <trkpt lat="45.89737" lon="4.97374">
        <ele>287</ele>
        <time>2016-11-15T11:17:29Z</time>
      </trkpt>
      <trkpt lat="45.8974" lon="4.97364">
        <ele>287</ele>
        <time>2016-11-15T11:17:31Z</time>
      </trkpt>
      <trkpt lat="45.89742" lon="4.9736">
        <ele>287</ele>
        <time>2016-11-15T11:17:32Z</time>
      </trkpt>
      <trkpt lat="45.89747" lon="4.97352">
        <ele>287</ele>
        <time>2016-11-15T11:17:34Z</time>
      </trkpt>
      <trkpt lat="45.8975" lon="4.97347">
        <ele>287</ele>
        <time>2016-11-15T11:17:35Z</time>
      </trkpt>
      <trkpt lat="45.89753" lon="4.97342">
        <ele>287</ele>
        <time>2016-11-15T11:17:36Z</time>
      </trkpt>
      <trkpt lat="45.89756" lon="4.97336">
        <ele>287</ele>
        <time>2016-11-15T11:17:37Z</time>
      </trkpt>
      <trkpt lat="45.89759" lon="4.9733">
        <ele>287</ele>
        <time>2016-11-15T11:17:38Z</time>
      </trkpt>
      <trkpt lat="45.89762" lon="4.97323">
        <ele>287</ele>
        <time>2016-11-15T11:17:39Z</time>
      </trkpt>
      <trkpt lat="45.89766" lon="4.97317">
        <ele>286</ele>
        <time>2016-11-15T11:17:40Z</time>
      </trkpt>
      <trkpt lat="45.89769" lon="4.97311">
        <ele>286</ele>
        <time>2016-11-15T11:17:41Z</time>
      </trkpt>
      <trkpt lat="45.89772" lon="4.97305">
        <ele>286</ele>
        <time>2016-11-15T11:17:42Z</time>
      </trkpt>
      <trkpt lat="45.89775" lon="4.97299">
        <ele>286</ele>
        <time>2016-11-15T11:17:43Z</time>
      </trkpt>
      <trkpt lat="45.89779" lon="4.97292">
        <ele>286</ele>
        <time>2016-11-15T11:17:44Z</time>
      </trkpt>
      <trkpt lat="45.89782" lon="4.97286">
        <ele>286</ele>
        <time>2016-11-15T11:17:45Z</time>
      </trkpt>
      <trkpt lat="45.89785" lon="4.97279">
        <ele>286</ele>
        <time>2016-11-15T11:17:46Z</time>
      </trkpt>
      <trkpt lat="45.89788" lon="4.97273">
        <ele>286</ele>
        <time>2016-11-15T11:17:47Z</time>
      </trkpt>
      <trkpt lat="45.89791" lon="4.97267">
        <ele>286</ele>
        <time>2016-11-15T11:17:48Z</time>
      </trkpt>
      <trkpt lat="45.89793" lon="4.97259">
        <ele>286</ele>
        <time>2016-11-15T11:17:49Z</time>
      </trkpt>
      <trkpt lat="45.89796" lon="4.97252">
        <ele>286</ele>
        <time>2016-11-15T11:17:50Z</time>
      </trkpt>
      <trkpt lat="45.89798" lon="4.97244">
        <ele>286</ele>
        <time>2016-11-15T11:17:51Z</time>
      </trkpt>
      <trkpt lat="45.898" lon="4.97236">
        <ele>286</ele>
        <time>2016-11-15T11:17:52Z</time>
      </trkpt>
      <trkpt lat="45.89798" lon="4.97227">
        <ele>286</ele>
        <time>2016-11-15T11:17:53Z</time>
      </trkpt>
      <trkpt lat="45.89795" lon="4.9722">
        <ele>286</ele>
        <time>2016-11-15T11:17:54Z</time>
      </trkpt>
      <trkpt lat="45.89792" lon="4.97212">
        <ele>286</ele>
        <time>2016-11-15T11:17:55Z</time>
      </trkpt>
      <trkpt lat="45.89788" lon="4.97205">
        <ele>286</ele>
        <time>2016-11-15T11:17:56Z</time>
      </trkpt>
      <trkpt lat="45.89784" lon="4.97198">
        <ele>286</ele>
        <time>2016-11-15T11:17:57Z</time>
      </trkpt>
      <trkpt lat="45.89781" lon="4.97191">
        <ele>286</ele>
        <time>2016-11-15T11:17:58Z</time>
      </trkpt>
      <trkpt lat="45.89777" lon="4.97184">
        <ele>286</ele>
        <time>2016-11-15T11:17:59Z</time>
      </trkpt>
      <trkpt lat="45.89774" lon="4.97176">
        <ele>286</ele>
        <time>2016-11-15T11:18:00Z</time>
      </trkpt>
      <trkpt lat="45.89771" lon="4.97169">
        <ele>286</ele>
        <time>2016-11-15T11:18:01Z</time>
      </trkpt>
      <trkpt lat="45.89767" lon="4.97162">
        <ele>286</ele>
        <time>2016-11-15T11:18:02Z</time>
      </trkpt>
      <trkpt lat="45.89764" lon="4.97155">
        <ele>286</ele>
        <time>2016-11-15T11:18:03Z</time>
      </trkpt>
      <trkpt lat="45.8976" lon="4.97149">
        <ele>286</ele>
        <time>2016-11-15T11:18:04Z</time>
      </trkpt>
      <trkpt lat="45.89757" lon="4.97142">
        <ele>286</ele>
        <time>2016-11-15T11:18:05Z</time>
      </trkpt>
      <trkpt lat="45.89753" lon="4.97136">
        <ele>286</ele>
        <time>2016-11-15T11:18:06Z</time>
      </trkpt>
      <trkpt lat="45.8975" lon="4.97129">
        <ele>286</ele>
        <time>2016-11-15T11:18:07Z</time>
      </trkpt>
      <trkpt lat="45.89747" lon="4.97123">
        <ele>288</ele>
        <time>2016-11-15T11:18:08Z</time>
      </trkpt>
      <trkpt lat="45.89743" lon="4.97117">
        <ele>288</ele>
        <time>2016-11-15T11:18:09Z</time>
      </trkpt>
      <trkpt lat="45.89739" lon="4.9711">
        <ele>288</ele>
        <time>2016-11-15T11:18:10Z</time>
      </trkpt>
      <trkpt lat="45.89736" lon="4.97104">
        <ele>288</ele>
        <time>2016-11-15T11:18:11Z</time>
      </trkpt>
      <trkpt lat="45.89732" lon="4.97097">
        <ele>288</ele>
        <time>2016-11-15T11:18:12Z</time>
      </trkpt>
      <trkpt lat="45.89729" lon="4.97091">
        <ele>288</ele>
        <time>2016-11-15T11:18:13Z</time>
      </trkpt>
      <trkpt lat="45.89726" lon="4.97084">
        <ele>288</ele>
        <time>2016-11-15T11:18:14Z</time>
      </trkpt>
      <trkpt lat="45.89722" lon="4.97078">
        <ele>289</ele>
        <time>2016-11-15T11:18:15Z</time>
      </trkpt>
      <trkpt lat="45.89718" lon="4.97071">
        <ele>289</ele>
        <time>2016-11-15T11:18:16Z</time>
      </trkpt>
      <trkpt lat="45.89715" lon="4.97065">
        <ele>289</ele>
        <time>2016-11-15T11:18:17Z</time>
      </trkpt>
      <trkpt lat="45.89712" lon="4.97058">
        <ele>290</ele>
        <time>2016-11-15T11:18:18Z</time>
      </trkpt>
      <trkpt lat="45.89708" lon="4.97051">
        <ele>290</ele>
        <time>2016-11-15T11:18:19Z</time>
      </trkpt>
      <trkpt lat="45.89705" lon="4.97044">
        <ele>290</ele>
        <time>2016-11-15T11:18:20Z</time>
      </trkpt>
      <trkpt lat="45.89701" lon="4.97037">
        <ele>290</ele>
        <time>2016-11-15T11:18:21Z</time>
      </trkpt>
      <trkpt lat="45.89697" lon="4.97031">
        <ele>290</ele>
        <time>2016-11-15T11:18:22Z</time>
      </trkpt>
      <trkpt lat="45.89693" lon="4.97025">
        <ele>291</ele>
        <time>2016-11-15T11:18:23Z</time>
      </trkpt>
      <trkpt lat="45.8969" lon="4.97018">
        <ele>291</ele>
        <time>2016-11-15T11:18:24Z</time>
      </trkpt>
      <trkpt lat="45.89686" lon="4.97012">
        <ele>292</ele>
        <time>2016-11-15T11:18:25Z</time>
      </trkpt>
      <trkpt lat="45.89682" lon="4.97007">
        <ele>292</ele>
        <time>2016-11-15T11:18:26Z</time>
      </trkpt>
      <trkpt lat="45.89679" lon="4.97001">
        <ele>293</ele>
        <time>2016-11-15T11:18:27Z</time>
      </trkpt>
      <trkpt lat="45.89676" lon="4.96996">
        <ele>293</ele>
        <time>2016-11-15T11:18:28Z</time>
      </trkpt>
      <trkpt lat="45.89672" lon="4.96991">
        <ele>293</ele>
        <time>2016-11-15T11:18:29Z</time>
      </trkpt>
      <trkpt lat="45.89669" lon="4.96986">
        <ele>293</ele>
        <time>2016-11-15T11:18:30Z</time>
      </trkpt>
      <trkpt lat="45.89666" lon="4.96981">
        <ele>295</ele>
        <time>2016-11-15T11:18:31Z</time>
      </trkpt>
      <trkpt lat="45.89663" lon="4.96976">
        <ele>295</ele>
        <time>2016-11-15T11:18:32Z</time>
      </trkpt>
      <trkpt lat="45.8966" lon="4.96971">
        <ele>295</ele>
        <time>2016-11-15T11:18:33Z</time>
      </trkpt>
      <trkpt lat="45.89654" lon="4.96961">
        <ele>295</ele>
        <time>2016-11-15T11:18:35Z</time>
      </trkpt>
      <trkpt lat="45.89652" lon="4.96957">
        <ele>295</ele>
        <time>2016-11-15T11:18:36Z</time>
      </trkpt>
      <trkpt lat="45.89648" lon="4.9695">
        <ele>295</ele>
        <time>2016-11-15T11:18:38Z</time>
      </trkpt>
      <trkpt lat="45.89645" lon="4.96946">
        <ele>295</ele>
        <time>2016-11-15T11:18:39Z</time>
      </trkpt>
      <trkpt lat="45.89643" lon="4.96939">
        <ele>295</ele>
        <time>2016-11-15T11:18:41Z</time>
      </trkpt>
      <trkpt lat="45.89641" lon="4.96935">
        <ele>295</ele>
        <time>2016-11-15T11:18:42Z</time>
      </trkpt>
      <trkpt lat="45.89635" lon="4.96927">
        <ele>295</ele>
        <time>2016-11-15T11:18:45Z</time>
      </trkpt>
      <trkpt lat="45.89633" lon="4.96925">
        <ele>295</ele>
        <time>2016-11-15T11:18:46Z</time>
      </trkpt>
      <trkpt lat="45.89627" lon="4.96919">
        <ele>295</ele>
        <time>2016-11-15T11:18:48Z</time>
      </trkpt>
      <trkpt lat="45.89623" lon="4.96915">
        <ele>294</ele>
        <time>2016-11-15T11:18:49Z</time>
      </trkpt>
      <trkpt lat="45.89619" lon="4.9691">
        <ele>294</ele>
        <time>2016-11-15T11:18:50Z</time>
      </trkpt>
      <trkpt lat="45.89616" lon="4.96904">
        <ele>294</ele>
        <time>2016-11-15T11:18:51Z</time>
      </trkpt>
      <trkpt lat="45.89611" lon="4.96894">
        <ele>294</ele>
        <time>2016-11-15T11:18:53Z</time>
      </trkpt>
      <trkpt lat="45.8961" lon="4.9689">
        <ele>294</ele>
        <time>2016-11-15T11:18:54Z</time>
      </trkpt>
      <trkpt lat="45.89608" lon="4.9688">
        <ele>294</ele>
        <time>2016-11-15T11:18:56Z</time>
      </trkpt>
      <trkpt lat="45.89607" lon="4.96875">
        <ele>294</ele>
        <time>2016-11-15T11:18:57Z</time>
      </trkpt>
      <trkpt lat="45.89606" lon="4.96868">
        <ele>294</ele>
        <time>2016-11-15T11:18:58Z</time>
      </trkpt>
      <trkpt lat="45.89606" lon="4.96861">
        <ele>294</ele>
        <time>2016-11-15T11:18:59Z</time>
      </trkpt>
      <trkpt lat="45.89605" lon="4.96855">
        <ele>294</ele>
        <time>2016-11-15T11:19:00Z</time>
      </trkpt>
      <trkpt lat="45.89606" lon="4.96848">
        <ele>294</ele>
        <time>2016-11-15T11:19:01Z</time>
      </trkpt>
      <trkpt lat="45.89606" lon="4.96842">
        <ele>294</ele>
        <time>2016-11-15T11:19:02Z</time>
      </trkpt>
      <trkpt lat="45.89607" lon="4.96836">
        <ele>294</ele>
        <time>2016-11-15T11:19:03Z</time>
      </trkpt>
      <trkpt lat="45.89609" lon="4.96829">
        <ele>293</ele>
        <time>2016-11-15T11:19:04Z</time>
      </trkpt>
      <trkpt lat="45.8961" lon="4.96823">
        <ele>293</ele>
        <time>2016-11-15T11:19:05Z</time>
      </trkpt>
      <trkpt lat="45.89611" lon="4.96817">
        <ele>293</ele>
        <time>2016-11-15T11:19:06Z</time>
      </trkpt>
      <trkpt lat="45.89612" lon="4.9681">
        <ele>293</ele>
        <time>2016-11-15T11:19:07Z</time>
      </trkpt>
      <trkpt lat="45.89613" lon="4.96803">
        <ele>293</ele>
        <time>2016-11-15T11:19:08Z</time>
      </trkpt>
      <trkpt lat="45.89614" lon="4.96796">
        <ele>293</ele>
        <time>2016-11-15T11:19:09Z</time>
      </trkpt>
      <trkpt lat="45.89615" lon="4.96789">
        <ele>293</ele>
        <time>2016-11-15T11:19:10Z</time>
      </trkpt>
      <trkpt lat="45.89616" lon="4.96782">
        <ele>292</ele>
        <time>2016-11-15T11:19:11Z</time>
      </trkpt>
      <trkpt lat="45.89617" lon="4.96776">
        <ele>292</ele>
        <time>2016-11-15T11:19:12Z</time>
      </trkpt>
      <trkpt lat="45.89619" lon="4.9677">
        <ele>292</ele>
        <time>2016-11-15T11:19:13Z</time>
      </trkpt>
      <trkpt lat="45.89621" lon="4.96763">
        <ele>292</ele>
        <time>2016-11-15T11:19:14Z</time>
      </trkpt>
      <trkpt lat="45.89622" lon="4.96756">
        <ele>292</ele>
        <time>2016-11-15T11:19:15Z</time>
      </trkpt>
      <trkpt lat="45.89624" lon="4.96749">
        <ele>292</ele>
        <time>2016-11-15T11:19:16Z</time>
      </trkpt>
      <trkpt lat="45.89625" lon="4.96742">
        <ele>292</ele>
        <time>2016-11-15T11:19:17Z</time>
      </trkpt>
      <trkpt lat="45.89627" lon="4.96735">
        <ele>292</ele>
        <time>2016-11-15T11:19:18Z</time>
      </trkpt>
      <trkpt lat="45.89628" lon="4.96728">
        <ele>292</ele>
        <time>2016-11-15T11:19:19Z</time>
      </trkpt>
      <trkpt lat="45.89629" lon="4.96721">
        <ele>292</ele>
        <time>2016-11-15T11:19:20Z</time>
      </trkpt>
      <trkpt lat="45.89629" lon="4.96713">
        <ele>292</ele>
        <time>2016-11-15T11:19:21Z</time>
      </trkpt>
      <trkpt lat="45.89631" lon="4.96705">
        <ele>292</ele>
        <time>2016-11-15T11:19:22Z</time>
      </trkpt>
      <trkpt lat="45.89633" lon="4.96698">
        <ele>292</ele>
        <time>2016-11-15T11:19:23Z</time>
      </trkpt>
      <trkpt lat="45.89635" lon="4.9669">
        <ele>292</ele>
        <time>2016-11-15T11:19:24Z</time>
      </trkpt>
      <trkpt lat="45.89635" lon="4.96682">
        <ele>292</ele>
        <time>2016-11-15T11:19:25Z</time>
      </trkpt>
      <trkpt lat="45.89635" lon="4.96674">
        <ele>292</ele>
        <time>2016-11-15T11:19:26Z</time>
      </trkpt>
      <trkpt lat="45.89634" lon="4.96666">
        <ele>291</ele>
        <time>2016-11-15T11:19:27Z</time>
      </trkpt>
      <trkpt lat="45.89634" lon="4.96658">
        <ele>291</ele>
        <time>2016-11-15T11:19:28Z</time>
      </trkpt>
      <trkpt lat="45.89632" lon="4.9665">
        <ele>290</ele>
        <time>2016-11-15T11:19:29Z</time>
      </trkpt>
      <trkpt lat="45.89631" lon="4.96641">
        <ele>290</ele>
        <time>2016-11-15T11:19:30Z</time>
      </trkpt>
      <trkpt lat="45.8963" lon="4.96633">
        <ele>290</ele>
        <time>2016-11-15T11:19:31Z</time>
      </trkpt>
      <trkpt lat="45.89629" lon="4.96625">
        <ele>290</ele>
        <time>2016-11-15T11:19:32Z</time>
      </trkpt>
      <trkpt lat="45.89627" lon="4.96617">
        <ele>290</ele>
        <time>2016-11-15T11:19:33Z</time>
      </trkpt>
      <trkpt lat="45.89625" lon="4.96609">
        <ele>290</ele>
        <time>2016-11-15T11:19:34Z</time>
      </trkpt>
      <trkpt lat="45.89624" lon="4.966">
        <ele>290</ele>
        <time>2016-11-15T11:19:35Z</time>
      </trkpt>
      <trkpt lat="45.89622" lon="4.96592">
        <ele>290</ele>
        <time>2016-11-15T11:19:36Z</time>
      </trkpt>
      <trkpt lat="45.8962" lon="4.96582">
        <ele>287</ele>
        <time>2016-11-15T11:19:37Z</time>
      </trkpt>
      <trkpt lat="45.89618" lon="4.96573">
        <ele>287</ele>
        <time>2016-11-15T11:19:38Z</time>
      </trkpt>
      <trkpt lat="45.89616" lon="4.96565">
        <ele>287</ele>
        <time>2016-11-15T11:19:39Z</time>
      </trkpt>
      <trkpt lat="45.89613" lon="4.96556">
        <ele>287</ele>
        <time>2016-11-15T11:19:40Z</time>
      </trkpt>
      <trkpt lat="45.8961" lon="4.96547">
        <ele>287</ele>
        <time>2016-11-15T11:19:41Z</time>
      </trkpt>
      <trkpt lat="45.89608" lon="4.96538">
        <ele>287</ele>
        <time>2016-11-15T11:19:42Z</time>
      </trkpt>
      <trkpt lat="45.89605" lon="4.96528">
        <ele>286</ele>
        <time>2016-11-15T11:19:43Z</time>
      </trkpt>
      <trkpt lat="45.89602" lon="4.96518">
        <ele>286</ele>
        <time>2016-11-15T11:19:44Z</time>
      </trkpt>
      <trkpt lat="45.89599" lon="4.96508">
        <ele>286</ele>
        <time>2016-11-15T11:19:45Z</time>
      </trkpt>
      <trkpt lat="45.89596" lon="4.96498">
        <ele>285</ele>
        <time>2016-11-15T11:19:46Z</time>
      </trkpt>
      <trkpt lat="45.89593" lon="4.96488">
        <ele>285</ele>
        <time>2016-11-15T11:19:47Z</time>
      </trkpt>
      <trkpt lat="45.8959" lon="4.96477">
        <ele>284</ele>
        <time>2016-11-15T11:19:48Z</time>
      </trkpt>
      <trkpt lat="45.89587" lon="4.96467">
        <ele>284</ele>
        <time>2016-11-15T11:19:49Z</time>
      </trkpt>
      <trkpt lat="45.89585" lon="4.96457">
        <ele>284</ele>
        <time>2016-11-15T11:19:50Z</time>
      </trkpt>
      <trkpt lat="45.89582" lon="4.96447">
        <ele>284</ele>
        <time>2016-11-15T11:19:51Z</time>
      </trkpt>
      <trkpt lat="45.89579" lon="4.96437">
        <ele>284</ele>
        <time>2016-11-15T11:19:52Z</time>
      </trkpt>
      <trkpt lat="45.89576" lon="4.96428">
        <ele>284</ele>
        <time>2016-11-15T11:19:53Z</time>
      </trkpt>
      <trkpt lat="45.89573" lon="4.96418">
        <ele>284</ele>
        <time>2016-11-15T11:19:54Z</time>
      </trkpt>
      <trkpt lat="45.89569" lon="4.96409">
        <ele>284</ele>
        <time>2016-11-15T11:19:55Z</time>
      </trkpt>
      <trkpt lat="45.89567" lon="4.96399">
        <ele>283</ele>
        <time>2016-11-15T11:19:56Z</time>
      </trkpt>
      <trkpt lat="45.89564" lon="4.9639">
        <ele>283</ele>
        <time>2016-11-15T11:19:57Z</time>
      </trkpt>
      <trkpt lat="45.89562" lon="4.96381">
        <ele>283</ele>
        <time>2016-11-15T11:19:58Z</time>
      </trkpt>
      <trkpt lat="45.89559" lon="4.96372">
        <ele>283</ele>
        <time>2016-11-15T11:19:59Z</time>
      </trkpt>
      <trkpt lat="45.89556" lon="4.96363">
        <ele>283</ele>
        <time>2016-11-15T11:20:00Z</time>
      </trkpt>
      <trkpt lat="45.89553" lon="4.96354">
        <ele>283</ele>
        <time>2016-11-15T11:20:01Z</time>
      </trkpt>
      <trkpt lat="45.89549" lon="4.96345">
        <ele>283</ele>
        <time>2016-11-15T11:20:02Z</time>
      </trkpt>
      <trkpt lat="45.89546" lon="4.96337">
        <ele>283</ele>
        <time>2016-11-15T11:20:03Z</time>
      </trkpt>
      <trkpt lat="45.89542" lon="4.96329">
        <ele>282</ele>
        <time>2016-11-15T11:20:04Z</time>
      </trkpt>
      <trkpt lat="45.89539" lon="4.96321">
        <ele>282</ele>
        <time>2016-11-15T11:20:05Z</time>
      </trkpt>
      <trkpt lat="45.89536" lon="4.96312">
        <ele>282</ele>
        <time>2016-11-15T11:20:06Z</time>
      </trkpt>
      <trkpt lat="45.89532" lon="4.96304">
        <ele>282</ele>
        <time>2016-11-15T11:20:07Z</time>
      </trkpt>
      <trkpt lat="45.89529" lon="4.96295">
        <ele>282</ele>
        <time>2016-11-15T11:20:08Z</time>
      </trkpt>
      <trkpt lat="45.89526" lon="4.96287">
        <ele>282</ele>
        <time>2016-11-15T11:20:09Z</time>
      </trkpt>
      <trkpt lat="45.89522" lon="4.96278">
        <ele>282</ele>
        <time>2016-11-15T11:20:10Z</time>
      </trkpt>
      <trkpt lat="45.89519" lon="4.9627">
        <ele>282</ele>
        <time>2016-11-15T11:20:11Z</time>
      </trkpt>
      <trkpt lat="45.89516" lon="4.96262">
        <ele>282</ele>
        <time>2016-11-15T11:20:12Z</time>
      </trkpt>
      <trkpt lat="45.89513" lon="4.96254">
        <ele>281</ele>
        <time>2016-11-15T11:20:13Z</time>
      </trkpt>
      <trkpt lat="45.8951" lon="4.96246">
        <ele>281</ele>
        <time>2016-11-15T11:20:14Z</time>
      </trkpt>
      <trkpt lat="45.89507" lon="4.96237">
        <ele>281</ele>
        <time>2016-11-15T11:20:15Z</time>
      </trkpt>
      <trkpt lat="45.89504" lon="4.96229">
        <ele>281</ele>
        <time>2016-11-15T11:20:16Z</time>
      </trkpt>
      <trkpt lat="45.89501" lon="4.9622">
        <ele>281</ele>
        <time>2016-11-15T11:20:17Z</time>
      </trkpt>
      <trkpt lat="45.89499" lon="4.96211">
        <ele>280</ele>
        <time>2016-11-15T11:20:18Z</time>
      </trkpt>
      <trkpt lat="45.89496" lon="4.96201">
        <ele>280</ele>
        <time>2016-11-15T11:20:19Z</time>
      </trkpt>
      <trkpt lat="45.89494" lon="4.96191">
        <ele>280</ele>
        <time>2016-11-15T11:20:20Z</time>
      </trkpt>
      <trkpt lat="45.89491" lon="4.96181">
        <ele>280</ele>
        <time>2016-11-15T11:20:21Z</time>
      </trkpt>
      <trkpt lat="45.89489" lon="4.96171">
        <ele>280</ele>
        <time>2016-11-15T11:20:22Z</time>
      </trkpt>
      <trkpt lat="45.89488" lon="4.9616">
        <ele>280</ele>
        <time>2016-11-15T11:20:23Z</time>
      </trkpt>
      <trkpt lat="45.89486" lon="4.9615">
        <ele>280</ele>
        <time>2016-11-15T11:20:24Z</time>
      </trkpt>
      <trkpt lat="45.89484" lon="4.96139">
        <ele>279</ele>
        <time>2016-11-15T11:20:25Z</time>
      </trkpt>
      <trkpt lat="45.89483" lon="4.96128">
        <ele>279</ele>
        <time>2016-11-15T11:20:26Z</time>
      </trkpt>
      <trkpt lat="45.89482" lon="4.96117">
        <ele>279</ele>
        <time>2016-11-15T11:20:27Z</time>
      </trkpt>
      <trkpt lat="45.89481" lon="4.96106">
        <ele>279</ele>
        <time>2016-11-15T11:20:28Z</time>
      </trkpt>
      <trkpt lat="45.89481" lon="4.96095">
        <ele>279</ele>
        <time>2016-11-15T11:20:29Z</time>
      </trkpt>
      <trkpt lat="45.89481" lon="4.96084">
        <ele>279</ele>
        <time>2016-11-15T11:20:30Z</time>
      </trkpt>
      <trkpt lat="45.89481" lon="4.96073">
        <ele>278</ele>
        <time>2016-11-15T11:20:31Z</time>
      </trkpt>
      <trkpt lat="45.89481" lon="4.96062">
        <ele>278</ele>
        <time>2016-11-15T11:20:32Z</time>
      </trkpt>
      <trkpt lat="45.89481" lon="4.96052">
        <ele>278</ele>
        <time>2016-11-15T11:20:33Z</time>
      </trkpt>
      <trkpt lat="45.89482" lon="4.96041">
        <ele>278</ele>
        <time>2016-11-15T11:20:34Z</time>
      </trkpt>
      <trkpt lat="45.89482" lon="4.9603">
        <ele>278</ele>
        <time>2016-11-15T11:20:35Z</time>
      </trkpt>
      <trkpt lat="45.89482" lon="4.9602">
        <ele>278</ele>
        <time>2016-11-15T11:20:36Z</time>
      </trkpt>
      <trkpt lat="45.89482" lon="4.96009">
        <ele>278</ele>
        <time>2016-11-15T11:20:37Z</time>
      </trkpt>
      <trkpt lat="45.89481" lon="4.95998">
        <ele>277</ele>
        <time>2016-11-15T11:20:38Z</time>
      </trkpt>
      <trkpt lat="45.89481" lon="4.95987">
        <ele>277</ele>
        <time>2016-11-15T11:20:39Z</time>
      </trkpt>
      <trkpt lat="45.8948" lon="4.95976">
        <ele>278</ele>
        <time>2016-11-15T11:20:40Z</time>
      </trkpt>
      <trkpt lat="45.89479" lon="4.95966">
        <ele>278</ele>
        <time>2016-11-15T11:20:41Z</time>
      </trkpt>
      <trkpt lat="45.89479" lon="4.95956">
        <ele>278</ele>
        <time>2016-11-15T11:20:42Z</time>
      </trkpt>
      <trkpt lat="45.89478" lon="4.95946">
        <ele>278</ele>
        <time>2016-11-15T11:20:43Z</time>
      </trkpt>
      <trkpt lat="45.89477" lon="4.95937">
        <ele>278</ele>
        <time>2016-11-15T11:20:44Z</time>
      </trkpt>
      <trkpt lat="45.89476" lon="4.95927">
        <ele>278</ele>
        <time>2016-11-15T11:20:45Z</time>
      </trkpt>
      <trkpt lat="45.89475" lon="4.95918">
        <ele>278</ele>
        <time>2016-11-15T11:20:46Z</time>
      </trkpt>
      <trkpt lat="45.89473" lon="4.95909">
        <ele>278</ele>
        <time>2016-11-15T11:20:47Z</time>
      </trkpt>
      <trkpt lat="45.89472" lon="4.959">
        <ele>278</ele>
        <time>2016-11-15T11:20:48Z</time>
      </trkpt>
      <trkpt lat="45.89471" lon="4.9589">
        <ele>278</ele>
        <time>2016-11-15T11:20:49Z</time>
      </trkpt>
      <trkpt lat="45.89469" lon="4.95881">
        <ele>278</ele>
        <time>2016-11-15T11:20:50Z</time>
      </trkpt>
      <trkpt lat="45.89468" lon="4.95872">
        <ele>278</ele>
        <time>2016-11-15T11:20:51Z</time>
      </trkpt>
      <trkpt lat="45.89466" lon="4.95862">
        <ele>278</ele>
        <time>2016-11-15T11:20:52Z</time>
      </trkpt>
      <trkpt lat="45.89464" lon="4.95853">
        <ele>278</ele>
        <time>2016-11-15T11:20:53Z</time>
      </trkpt>
      <trkpt lat="45.89462" lon="4.95843">
        <ele>278</ele>
        <time>2016-11-15T11:20:54Z</time>
      </trkpt>
      <trkpt lat="45.8946" lon="4.95833">
        <ele>278</ele>
        <time>2016-11-15T11:20:55Z</time>
      </trkpt>
      <trkpt lat="45.89458" lon="4.95823">
        <ele>278</ele>
        <time>2016-11-15T11:20:56Z</time>
      </trkpt>
      <trkpt lat="45.89456" lon="4.95814">
        <ele>278</ele>
        <time>2016-11-15T11:20:57Z</time>
      </trkpt>
      <trkpt lat="45.89454" lon="4.95804">
        <ele>278</ele>
        <time>2016-11-15T11:20:58Z</time>
      </trkpt>
      <trkpt lat="45.89452" lon="4.95794">
        <ele>278</ele>
        <time>2016-11-15T11:20:59Z</time>
      </trkpt>
      <trkpt lat="45.89449" lon="4.95784">
        <ele>278</ele>
        <time>2016-11-15T11:21:00Z</time>
      </trkpt>
      <trkpt lat="45.89447" lon="4.95774">
        <ele>278</ele>
        <time>2016-11-15T11:21:01Z</time>
      </trkpt>
      <trkpt lat="45.89445" lon="4.95764">
        <ele>279</ele>
        <time>2016-11-15T11:21:02Z</time>
      </trkpt>
      <trkpt lat="45.89442" lon="4.95754">
        <ele>279</ele>
        <time>2016-11-15T11:21:03Z</time>
      </trkpt>
      <trkpt lat="45.8944" lon="4.95744">
        <ele>279</ele>
        <time>2016-11-15T11:21:04Z</time>
      </trkpt>
      <trkpt lat="45.89438" lon="4.95735">
        <ele>278</ele>
        <time>2016-11-15T11:21:05Z</time>
      </trkpt>
      <trkpt lat="45.89436" lon="4.95726">
        <ele>278</ele>
        <time>2016-11-15T11:21:06Z</time>
      </trkpt>
      <trkpt lat="45.89434" lon="4.95717">
        <ele>278</ele>
        <time>2016-11-15T11:21:07Z</time>
      </trkpt>
      <trkpt lat="45.89432" lon="4.95708">
        <ele>278</ele>
        <time>2016-11-15T11:21:08Z</time>
      </trkpt>
      <trkpt lat="45.8943" lon="4.957">
        <ele>278</ele>
        <time>2016-11-15T11:21:09Z</time>
      </trkpt>
      <trkpt lat="45.89429" lon="4.95692">
        <ele>278</ele>
        <time>2016-11-15T11:21:10Z</time>
      </trkpt>
      <trkpt lat="45.89427" lon="4.95683">
        <ele>278</ele>
        <time>2016-11-15T11:21:11Z</time>
      </trkpt>
      <trkpt lat="45.89426" lon="4.95675">
        <ele>279</ele>
        <time>2016-11-15T11:21:12Z</time>
      </trkpt>
      <trkpt lat="45.89424" lon="4.95666">
        <ele>279</ele>
        <time>2016-11-15T11:21:13Z</time>
      </trkpt>
      <trkpt lat="45.89422" lon="4.95658">
        <ele>278</ele>
        <time>2016-11-15T11:21:14Z</time>
      </trkpt>
      <trkpt lat="45.89421" lon="4.95649">
        <ele>278</ele>
        <time>2016-11-15T11:21:15Z</time>
      </trkpt>
      <trkpt lat="45.89418" lon="4.9564">
        <ele>278</ele>
        <time>2016-11-15T11:21:16Z</time>
      </trkpt>
      <trkpt lat="45.89416" lon="4.95631">
        <ele>278</ele>
        <time>2016-11-15T11:21:17Z</time>
      </trkpt>
      <trkpt lat="45.89414" lon="4.95622">
        <ele>278</ele>
        <time>2016-11-15T11:21:18Z</time>
      </trkpt>
      <trkpt lat="45.89413" lon="4.95613">
        <ele>278</ele>
        <time>2016-11-15T11:21:19Z</time>
      </trkpt>
      <trkpt lat="45.89411" lon="4.95603">
        <ele>278</ele>
        <time>2016-11-15T11:21:20Z</time>
      </trkpt>
      <trkpt lat="45.89409" lon="4.95593">
        <ele>278</ele>
        <time>2016-11-15T11:21:21Z</time>
      </trkpt>
      <trkpt lat="45.89406" lon="4.95584">
        <ele>278</ele>
        <time>2016-11-15T11:21:22Z</time>
      </trkpt>
      <trkpt lat="45.89404" lon="4.95574">
        <ele>277</ele>
        <time>2016-11-15T11:21:23Z</time>
      </trkpt>
      <trkpt lat="45.89401" lon="4.95564">
        <ele>277</ele>
        <time>2016-11-15T11:21:24Z</time>
      </trkpt>
      <trkpt lat="45.89399" lon="4.95555">
        <ele>277</ele>
        <time>2016-11-15T11:21:25Z</time>
      </trkpt>
      <trkpt lat="45.89397" lon="4.95545">
        <ele>277</ele>
        <time>2016-11-15T11:21:26Z</time>
      </trkpt>
      <trkpt lat="45.89394" lon="4.95535">
        <ele>277</ele>
        <time>2016-11-15T11:21:27Z</time>
      </trkpt>
      <trkpt lat="45.89392" lon="4.95526">
        <ele>277</ele>
        <time>2016-11-15T11:21:28Z</time>
      </trkpt>
      <trkpt lat="45.8939" lon="4.95516">
        <ele>277</ele>
        <time>2016-11-15T11:21:29Z</time>
      </trkpt>
      <trkpt lat="45.89388" lon="4.95507">
        <ele>277</ele>
        <time>2016-11-15T11:21:30Z</time>
      </trkpt>
      <trkpt lat="45.89386" lon="4.95498">
        <ele>276</ele>
        <time>2016-11-15T11:21:31Z</time>
      </trkpt>
      <trkpt lat="45.89385" lon="4.95488">
        <ele>276</ele>
        <time>2016-11-15T11:21:32Z</time>
      </trkpt>
      <trkpt lat="45.89383" lon="4.95479">
        <ele>276</ele>
        <time>2016-11-15T11:21:33Z</time>
      </trkpt>
      <trkpt lat="45.89381" lon="4.9547">
        <ele>276</ele>
        <time>2016-11-15T11:21:34Z</time>
      </trkpt>
      <trkpt lat="45.89379" lon="4.9546">
        <ele>276</ele>
        <time>2016-11-15T11:21:35Z</time>
      </trkpt>
      <trkpt lat="45.89377" lon="4.9545">
        <ele>275</ele>
        <time>2016-11-15T11:21:36Z</time>
      </trkpt>
      <trkpt lat="45.89375" lon="4.9544">
        <ele>275</ele>
        <time>2016-11-15T11:21:37Z</time>
      </trkpt>
      <trkpt lat="45.89372" lon="4.9543">
        <ele>275</ele>
        <time>2016-11-15T11:21:38Z</time>
      </trkpt>
      <trkpt lat="45.8937" lon="4.9542">
        <ele>275</ele>
        <time>2016-11-15T11:21:39Z</time>
      </trkpt>
      <trkpt lat="45.89368" lon="4.9541">
        <ele>275</ele>
        <time>2016-11-15T11:21:40Z</time>
      </trkpt>
      <trkpt lat="45.89365" lon="4.95401">
        <ele>275</ele>
        <time>2016-11-15T11:21:41Z</time>
      </trkpt>
      <trkpt lat="45.89363" lon="4.95391">
        <ele>274</ele>
        <time>2016-11-15T11:21:42Z</time>
      </trkpt>
      <trkpt lat="45.89361" lon="4.95381">
        <ele>274</ele>
        <time>2016-11-15T11:21:43Z</time>
      </trkpt>
      <trkpt lat="45.89359" lon="4.95372">
        <ele>274</ele>
        <time>2016-11-15T11:21:44Z</time>
      </trkpt>
      <trkpt lat="45.89357" lon="4.95363">
        <ele>274</ele>
        <time>2016-11-15T11:21:45Z</time>
      </trkpt>
      <trkpt lat="45.89355" lon="4.95354">
        <ele>274</ele>
        <time>2016-11-15T11:21:46Z</time>
      </trkpt>
      <trkpt lat="45.89354" lon="4.95344">
        <ele>274</ele>
        <time>2016-11-15T11:21:47Z</time>
      </trkpt>
      <trkpt lat="45.89352" lon="4.95335">
        <ele>274</ele>
        <time>2016-11-15T11:21:48Z</time>
      </trkpt>
      <trkpt lat="45.8935" lon="4.95326">
        <ele>274</ele>
        <time>2016-11-15T11:21:49Z</time>
      </trkpt>
      <trkpt lat="45.89348" lon="4.95317">
        <ele>274</ele>
        <time>2016-11-15T11:21:50Z</time>
      </trkpt>
      <trkpt lat="45.89346" lon="4.95307">
        <ele>274</ele>
        <time>2016-11-15T11:21:51Z</time>
      </trkpt>
      <trkpt lat="45.89344" lon="4.95298">
        <ele>274</ele>
        <time>2016-11-15T11:21:52Z</time>
      </trkpt>
      <trkpt lat="45.89341" lon="4.95289">
        <ele>274</ele>
        <time>2016-11-15T11:21:53Z</time>
      </trkpt>
      <trkpt lat="45.89339" lon="4.9528">
        <ele>274</ele>
        <time>2016-11-15T11:21:54Z</time>
      </trkpt>
      <trkpt lat="45.89337" lon="4.9527">
        <ele>274</ele>
        <time>2016-11-15T11:21:55Z</time>
      </trkpt>
      <trkpt lat="45.89335" lon="4.95261">
        <ele>274</ele>
        <time>2016-11-15T11:21:56Z</time>
      </trkpt>
      <trkpt lat="45.89333" lon="4.95253">
        <ele>274</ele>
        <time>2016-11-15T11:21:57Z</time>
      </trkpt>
      <trkpt lat="45.89331" lon="4.95244">
        <ele>274</ele>
        <time>2016-11-15T11:21:58Z</time>
      </trkpt>
      <trkpt lat="45.89329" lon="4.95236">
        <ele>274</ele>
        <time>2016-11-15T11:21:59Z</time>
      </trkpt>
      <trkpt lat="45.89327" lon="4.95228">
        <ele>275</ele>
        <time>2016-11-15T11:22:00Z</time>
      </trkpt>
      <trkpt lat="45.89325" lon="4.95219">
        <ele>275</ele>
        <time>2016-11-15T11:22:01Z</time>
      </trkpt>
      <trkpt lat="45.89323" lon="4.95211">
        <ele>275</ele>
        <time>2016-11-15T11:22:02Z</time>
      </trkpt>
      <trkpt lat="45.89322" lon="4.95203">
        <ele>275</ele>
        <time>2016-11-15T11:22:03Z</time>
      </trkpt>
      <trkpt lat="45.8932" lon="4.95194">
        <ele>275</ele>
        <time>2016-11-15T11:22:04Z</time>
      </trkpt>
      <trkpt lat="45.89319" lon="4.95186">
        <ele>275</ele>
        <time>2016-11-15T11:22:05Z</time>
      </trkpt>
      <trkpt lat="45.89317" lon="4.95178">
        <ele>275</ele>
        <time>2016-11-15T11:22:06Z</time>
      </trkpt>
      <trkpt lat="45.89316" lon="4.95169">
        <ele>275</ele>
        <time>2016-11-15T11:22:07Z</time>
      </trkpt>
      <trkpt lat="45.89314" lon="4.95159">
        <ele>275</ele>
        <time>2016-11-15T11:22:08Z</time>
      </trkpt>
      <trkpt lat="45.89313" lon="4.95149">
        <ele>275</ele>
        <time>2016-11-15T11:22:09Z</time>
      </trkpt>
      <trkpt lat="45.89314" lon="4.95139">
        <ele>275</ele>
        <time>2016-11-15T11:22:10Z</time>
      </trkpt>
      <trkpt lat="45.89315" lon="4.9513">
        <ele>275</ele>
        <time>2016-11-15T11:22:11Z</time>
      </trkpt>
      <trkpt lat="45.89316" lon="4.9512">
        <ele>274</ele>
        <time>2016-11-15T11:22:12Z</time>
      </trkpt>
      <trkpt lat="45.89317" lon="4.95111">
        <ele>274</ele>
        <time>2016-11-15T11:22:13Z</time>
      </trkpt>
      <trkpt lat="45.89319" lon="4.95103">
        <ele>274</ele>
        <time>2016-11-15T11:22:14Z</time>
      </trkpt>
      <trkpt lat="45.89321" lon="4.95095">
        <ele>274</ele>
        <time>2016-11-15T11:22:15Z</time>
      </trkpt>
      <trkpt lat="45.89323" lon="4.95087">
        <ele>274</ele>
        <time>2016-11-15T11:22:16Z</time>
      </trkpt>
      <trkpt lat="45.89326" lon="4.95079">
        <ele>274</ele>
        <time>2016-11-15T11:22:17Z</time>
      </trkpt>
      <trkpt lat="45.89328" lon="4.95071">
        <ele>273</ele>
        <time>2016-11-15T11:22:18Z</time>
      </trkpt>
      <trkpt lat="45.8933" lon="4.95063">
        <ele>273</ele>
        <time>2016-11-15T11:22:19Z</time>
      </trkpt>
      <trkpt lat="45.89332" lon="4.95056">
        <ele>273</ele>
        <time>2016-11-15T11:22:20Z</time>
      </trkpt>
      <trkpt lat="45.89334" lon="4.95048">
        <ele>274</ele>
        <time>2016-11-15T11:22:21Z</time>
      </trkpt>
      <trkpt lat="45.89336" lon="4.9504">
        <ele>274</ele>
        <time>2016-11-15T11:22:22Z</time>
      </trkpt>
      <trkpt lat="45.89338" lon="4.95032">
        <ele>274</ele>
        <time>2016-11-15T11:22:23Z</time>
      </trkpt>
      <trkpt lat="45.89341" lon="4.95025">
        <ele>274</ele>
        <time>2016-11-15T11:22:24Z</time>
      </trkpt>
      <trkpt lat="45.89343" lon="4.95017">
        <ele>274</ele>
        <time>2016-11-15T11:22:25Z</time>
      </trkpt>
      <trkpt lat="45.89346" lon="4.9501">
        <ele>273</ele>
        <time>2016-11-15T11:22:26Z</time>
      </trkpt>
      <trkpt lat="45.89348" lon="4.95002">
        <ele>273</ele>
        <time>2016-11-15T11:22:27Z</time>
      </trkpt>
      <trkpt lat="45.8935" lon="4.94995">
        <ele>273</ele>
        <time>2016-11-15T11:22:28Z</time>
      </trkpt>
      <trkpt lat="45.89352" lon="4.94988">
        <ele>273</ele>
        <time>2016-11-15T11:22:29Z</time>
      </trkpt>
      <trkpt lat="45.89354" lon="4.9498">
        <ele>273</ele>
        <time>2016-11-15T11:22:30Z</time>
      </trkpt>
      <trkpt lat="45.89356" lon="4.94972">
        <ele>274</ele>
        <time>2016-11-15T11:22:31Z</time>
      </trkpt>
      <trkpt lat="45.89359" lon="4.94965">
        <ele>274</ele>
        <time>2016-11-15T11:22:32Z</time>
      </trkpt>
      <trkpt lat="45.89361" lon="4.94957">
        <ele>274</ele>
        <time>2016-11-15T11:22:33Z</time>
      </trkpt>
      <trkpt lat="45.89363" lon="4.94949">
        <ele>274</ele>
        <time>2016-11-15T11:22:34Z</time>
      </trkpt>
      <trkpt lat="45.89365" lon="4.94941">
        <ele>274</ele>
        <time>2016-11-15T11:22:35Z</time>
      </trkpt>
      <trkpt lat="45.89367" lon="4.94933">
        <ele>274</ele>
        <time>2016-11-15T11:22:36Z</time>
      </trkpt>
      <trkpt lat="45.89369" lon="4.94926">
        <ele>274</ele>
        <time>2016-11-15T11:22:37Z</time>
      </trkpt>
      <trkpt lat="45.89372" lon="4.94919">
        <ele>274</ele>
        <time>2016-11-15T11:22:38Z</time>
      </trkpt>
      <trkpt lat="45.89374" lon="4.94912">
        <ele>273</ele>
        <time>2016-11-15T11:22:39Z</time>
      </trkpt>
      <trkpt lat="45.89375" lon="4.94906">
        <ele>273</ele>
        <time>2016-11-15T11:22:40Z</time>
      </trkpt>
      <trkpt lat="45.89377" lon="4.94899">
        <ele>273</ele>
        <time>2016-11-15T11:22:41Z</time>
      </trkpt>
      <trkpt lat="45.89379" lon="4.94893">
        <ele>273</ele>
        <time>2016-11-15T11:22:42Z</time>
      </trkpt>
      <trkpt lat="45.8938" lon="4.94886">
        <ele>273</ele>
        <time>2016-11-15T11:22:43Z</time>
      </trkpt>
      <trkpt lat="45.89382" lon="4.9488">
        <ele>273</ele>
        <time>2016-11-15T11:22:44Z</time>
      </trkpt>
      <trkpt lat="45.89384" lon="4.94873">
        <ele>273</ele>
        <time>2016-11-15T11:22:45Z</time>
      </trkpt>
      <trkpt lat="45.89386" lon="4.94867">
        <ele>273</ele>
        <time>2016-11-15T11:22:46Z</time>
      </trkpt>
      <trkpt lat="45.89388" lon="4.9486">
        <ele>273</ele>
        <time>2016-11-15T11:22:47Z</time>
      </trkpt>
      <trkpt lat="45.8939" lon="4.94853">
        <ele>273</ele>
        <time>2016-11-15T11:22:48Z</time>
      </trkpt>
      <trkpt lat="45.89392" lon="4.94846">
        <ele>273</ele>
        <time>2016-11-15T11:22:49Z</time>
      </trkpt>
      <trkpt lat="45.89394" lon="4.94839">
        <ele>273</ele>
        <time>2016-11-15T11:22:50Z</time>
      </trkpt>
      <trkpt lat="45.89396" lon="4.94832">
        <ele>273</ele>
        <time>2016-11-15T11:22:51Z</time>
      </trkpt>
      <trkpt lat="45.89398" lon="4.94825">
        <ele>273</ele>
        <time>2016-11-15T11:22:52Z</time>
      </trkpt>
      <trkpt lat="45.894" lon="4.94817">
        <ele>273</ele>
        <time>2016-11-15T11:22:53Z</time>
      </trkpt>
      <trkpt lat="45.89402" lon="4.9481">
        <ele>273</ele>
        <time>2016-11-15T11:22:54Z</time>
      </trkpt>
      <trkpt lat="45.89405" lon="4.94802">
        <ele>273</ele>
        <time>2016-11-15T11:22:55Z</time>
      </trkpt>
      <trkpt lat="45.89406" lon="4.94795">
        <ele>273</ele>
        <time>2016-11-15T11:22:56Z</time>
      </trkpt>
      <trkpt lat="45.89408" lon="4.94788">
        <ele>272</ele>
        <time>2016-11-15T11:22:57Z</time>
      </trkpt>
      <trkpt lat="45.89409" lon="4.94781">
        <ele>272</ele>
        <time>2016-11-15T11:22:58Z</time>
      </trkpt>
      <trkpt lat="45.89411" lon="4.94775">
        <ele>272</ele>
        <time>2016-11-15T11:22:59Z</time>
      </trkpt>
      <trkpt lat="45.89413" lon="4.94769">
        <ele>273</ele>
        <time>2016-11-15T11:23:00Z</time>
      </trkpt>
      <trkpt lat="45.89415" lon="4.94763">
        <ele>273</ele>
        <time>2016-11-15T11:23:01Z</time>
      </trkpt>
      <trkpt lat="45.89417" lon="4.94757">
        <ele>274</ele>
        <time>2016-11-15T11:23:02Z</time>
      </trkpt>
      <trkpt lat="45.89419" lon="4.9475">
        <ele>273</ele>
        <time>2016-11-15T11:23:03Z</time>
      </trkpt>
      <trkpt lat="45.89421" lon="4.94744">
        <ele>273</ele>
        <time>2016-11-15T11:23:04Z</time>
      </trkpt>
      <trkpt lat="45.89423" lon="4.94737">
        <ele>274</ele>
        <time>2016-11-15T11:23:05Z</time>
      </trkpt>
      <trkpt lat="45.89425" lon="4.94731">
        <ele>274</ele>
        <time>2016-11-15T11:23:06Z</time>
      </trkpt>
      <trkpt lat="45.89427" lon="4.94724">
        <ele>274</ele>
        <time>2016-11-15T11:23:07Z</time>
      </trkpt>
      <trkpt lat="45.89429" lon="4.94718">
        <ele>274</ele>
        <time>2016-11-15T11:23:08Z</time>
      </trkpt>
      <trkpt lat="45.89431" lon="4.94711">
        <ele>274</ele>
        <time>2016-11-15T11:23:09Z</time>
      </trkpt>
      <trkpt lat="45.89433" lon="4.94703">
        <ele>274</ele>
        <time>2016-11-15T11:23:10Z</time>
      </trkpt>
      <trkpt lat="45.89435" lon="4.94697">
        <ele>274</ele>
        <time>2016-11-15T11:23:11Z</time>
      </trkpt>
      <trkpt lat="45.89437" lon="4.9469">
        <ele>274</ele>
        <time>2016-11-15T11:23:12Z</time>
      </trkpt>
      <trkpt lat="45.89439" lon="4.94683">
        <ele>274</ele>
        <time>2016-11-15T11:23:13Z</time>
      </trkpt>
      <trkpt lat="45.89441" lon="4.94676">
        <ele>274</ele>
        <time>2016-11-15T11:23:14Z</time>
      </trkpt>
      <trkpt lat="45.89443" lon="4.94669">
        <ele>274</ele>
        <time>2016-11-15T11:23:15Z</time>
      </trkpt>
      <trkpt lat="45.89445" lon="4.94662">
        <ele>273</ele>
        <time>2016-11-15T11:23:16Z</time>
      </trkpt>
      <trkpt lat="45.89447" lon="4.94655">
        <ele>273</ele>
        <time>2016-11-15T11:23:17Z</time>
      </trkpt>
      <trkpt lat="45.89449" lon="4.94647">
        <ele>274</ele>
        <time>2016-11-15T11:23:18Z</time>
      </trkpt>
      <trkpt lat="45.89451" lon="4.9464">
        <ele>274</ele>
        <time>2016-11-15T11:23:19Z</time>
      </trkpt>
      <trkpt lat="45.89453" lon="4.94632">
        <ele>274</ele>
        <time>2016-11-15T11:23:20Z</time>
      </trkpt>
      <trkpt lat="45.89455" lon="4.94624">
        <ele>274</ele>
        <time>2016-11-15T11:23:21Z</time>
      </trkpt>
      <trkpt lat="45.89457" lon="4.94616">
        <ele>274</ele>
        <time>2016-11-15T11:23:22Z</time>
      </trkpt>
      <trkpt lat="45.89459" lon="4.94608">
        <ele>274</ele>
        <time>2016-11-15T11:23:23Z</time>
      </trkpt>
      <trkpt lat="45.8946" lon="4.94601">
        <ele>274</ele>
        <time>2016-11-15T11:23:24Z</time>
      </trkpt>
      <trkpt lat="45.89462" lon="4.94594">
        <ele>274</ele>
        <time>2016-11-15T11:23:25Z</time>
      </trkpt>
      <trkpt lat="45.89463" lon="4.94587">
        <ele>274</ele>
        <time>2016-11-15T11:23:26Z</time>
      </trkpt>
      <trkpt lat="45.89463" lon="4.9458">
        <ele>274</ele>
        <time>2016-11-15T11:23:27Z</time>
      </trkpt>
      <trkpt lat="45.89464" lon="4.94573">
        <ele>274</ele>
        <time>2016-11-15T11:23:28Z</time>
      </trkpt>
      <trkpt lat="45.89464" lon="4.94565">
        <ele>274</ele>
        <time>2016-11-15T11:23:29Z</time>
      </trkpt>
      <trkpt lat="45.89465" lon="4.94557">
        <ele>274</ele>
        <time>2016-11-15T11:23:30Z</time>
      </trkpt>
      <trkpt lat="45.89466" lon="4.9455">
        <ele>274</ele>
        <time>2016-11-15T11:23:31Z</time>
      </trkpt>
      <trkpt lat="45.89467" lon="4.94542">
        <ele>274</ele>
        <time>2016-11-15T11:23:32Z</time>
      </trkpt>
      <trkpt lat="45.89468" lon="4.94535">
        <ele>274</ele>
        <time>2016-11-15T11:23:33Z</time>
      </trkpt>
      <trkpt lat="45.89469" lon="4.94527">
        <ele>274</ele>
        <time>2016-11-15T11:23:34Z</time>
      </trkpt>
      <trkpt lat="45.89469" lon="4.94519">
        <ele>274</ele>
        <time>2016-11-15T11:23:35Z</time>
      </trkpt>
      <trkpt lat="45.8947" lon="4.94512">
        <ele>274</ele>
        <time>2016-11-15T11:23:36Z</time>
      </trkpt>
      <trkpt lat="45.89471" lon="4.94504">
        <ele>274</ele>
        <time>2016-11-15T11:23:37Z</time>
      </trkpt>
      <trkpt lat="45.89472" lon="4.94495">
        <ele>274</ele>
        <time>2016-11-15T11:23:38Z</time>
      </trkpt>
      <trkpt lat="45.89473" lon="4.94487">
        <ele>274</ele>
        <time>2016-11-15T11:23:39Z</time>
      </trkpt>
      <trkpt lat="45.89473" lon="4.94479">
        <ele>274</ele>
        <time>2016-11-15T11:23:40Z</time>
      </trkpt>
      <trkpt lat="45.89474" lon="4.94471">
        <ele>274</ele>
        <time>2016-11-15T11:23:41Z</time>
      </trkpt>
      <trkpt lat="45.89476" lon="4.94463">
        <ele>274</ele>
        <time>2016-11-15T11:23:42Z</time>
      </trkpt>
      <trkpt lat="45.89476" lon="4.94454">
        <ele>274</ele>
        <time>2016-11-15T11:23:43Z</time>
      </trkpt>
      <trkpt lat="45.89477" lon="4.94445">
        <ele>274</ele>
        <time>2016-11-15T11:23:44Z</time>
      </trkpt>
      <trkpt lat="45.89478" lon="4.94436">
        <ele>274</ele>
        <time>2016-11-15T11:23:45Z</time>
      </trkpt>
      <trkpt lat="45.89479" lon="4.94427">
        <ele>274</ele>
        <time>2016-11-15T11:23:46Z</time>
      </trkpt>
      <trkpt lat="45.8948" lon="4.94418">
        <ele>274</ele>
        <time>2016-11-15T11:23:47Z</time>
      </trkpt>
      <trkpt lat="45.8948" lon="4.94409">
        <ele>274</ele>
        <time>2016-11-15T11:23:48Z</time>
      </trkpt>
      <trkpt lat="45.89481" lon="4.944">
        <ele>274</ele>
        <time>2016-11-15T11:23:49Z</time>
      </trkpt>
      <trkpt lat="45.89482" lon="4.9439">
        <ele>274</ele>
        <time>2016-11-15T11:23:50Z</time>
      </trkpt>
      <trkpt lat="45.89483" lon="4.94381">
        <ele>274</ele>
        <time>2016-11-15T11:23:51Z</time>
      </trkpt>
      <trkpt lat="45.89484" lon="4.94372">
        <ele>274</ele>
        <time>2016-11-15T11:23:52Z</time>
      </trkpt>
      <trkpt lat="45.89485" lon="4.94363">
        <ele>274</ele>
        <time>2016-11-15T11:23:53Z</time>
      </trkpt>
      <trkpt lat="45.89486" lon="4.94355">
        <ele>274</ele>
        <time>2016-11-15T11:23:54Z</time>
      </trkpt>
      <trkpt lat="45.89487" lon="4.94346">
        <ele>274</ele>
        <time>2016-11-15T11:23:55Z</time>
      </trkpt>
      <trkpt lat="45.89488" lon="4.94338">
        <ele>274</ele>
        <time>2016-11-15T11:23:56Z</time>
      </trkpt>
      <trkpt lat="45.89488" lon="4.9433">
        <ele>275</ele>
        <time>2016-11-15T11:23:57Z</time>
      </trkpt>
      <trkpt lat="45.89488" lon="4.94322">
        <ele>275</ele>
        <time>2016-11-15T11:23:58Z</time>
      </trkpt>
      <trkpt lat="45.89489" lon="4.94314">
        <ele>274</ele>
        <time>2016-11-15T11:23:59Z</time>
      </trkpt>
      <trkpt lat="45.89489" lon="4.94306">
        <ele>274</ele>
        <time>2016-11-15T11:24:00Z</time>
      </trkpt>
      <trkpt lat="45.8949" lon="4.94298">
        <ele>274</ele>
        <time>2016-11-15T11:24:01Z</time>
      </trkpt>
      <trkpt lat="45.89491" lon="4.9429">
        <ele>275</ele>
        <time>2016-11-15T11:24:02Z</time>
      </trkpt>
      <trkpt lat="45.89492" lon="4.94282">
        <ele>275</ele>
        <time>2016-11-15T11:24:03Z</time>
      </trkpt>
      <trkpt lat="45.89492" lon="4.94275">
        <ele>275</ele>
        <time>2016-11-15T11:24:04Z</time>
      </trkpt>
      <trkpt lat="45.89493" lon="4.94267">
        <ele>275</ele>
        <time>2016-11-15T11:24:05Z</time>
      </trkpt>
      <trkpt lat="45.89494" lon="4.9426">
        <ele>275</ele>
        <time>2016-11-15T11:24:06Z</time>
      </trkpt>
      <trkpt lat="45.89495" lon="4.94253">
        <ele>276</ele>
        <time>2016-11-15T11:24:07Z</time>
      </trkpt>
      <trkpt lat="45.89496" lon="4.94245">
        <ele>276</ele>
        <time>2016-11-15T11:24:08Z</time>
      </trkpt>
      <trkpt lat="45.89496" lon="4.94238">
        <ele>275</ele>
        <time>2016-11-15T11:24:09Z</time>
      </trkpt>
      <trkpt lat="45.89497" lon="4.9423">
        <ele>275</ele>
        <time>2016-11-15T11:24:10Z</time>
      </trkpt>
      <trkpt lat="45.89497" lon="4.94223">
        <ele>275</ele>
        <time>2016-11-15T11:24:11Z</time>
      </trkpt>
      <trkpt lat="45.89498" lon="4.94216">
        <ele>275</ele>
        <time>2016-11-15T11:24:12Z</time>
      </trkpt>
      <trkpt lat="45.89498" lon="4.94208">
        <ele>275</ele>
        <time>2016-11-15T11:24:13Z</time>
      </trkpt>
      <trkpt lat="45.89498" lon="4.94201">
        <ele>275</ele>
        <time>2016-11-15T11:24:14Z</time>
      </trkpt>
      <trkpt lat="45.89499" lon="4.94193">
        <ele>275</ele>
        <time>2016-11-15T11:24:15Z</time>
      </trkpt>
      <trkpt lat="45.895" lon="4.94186">
        <ele>275</ele>
        <time>2016-11-15T11:24:16Z</time>
      </trkpt>
      <trkpt lat="45.89501" lon="4.94178">
        <ele>275</ele>
        <time>2016-11-15T11:24:17Z</time>
      </trkpt>
      <trkpt lat="45.89501" lon="4.94171">
        <ele>275</ele>
        <time>2016-11-15T11:24:18Z</time>
      </trkpt>
      <trkpt lat="45.89502" lon="4.94163">
        <ele>275</ele>
        <time>2016-11-15T11:24:19Z</time>
      </trkpt>
      <trkpt lat="45.89502" lon="4.94156">
        <ele>275</ele>
        <time>2016-11-15T11:24:20Z</time>
      </trkpt>
      <trkpt lat="45.89503" lon="4.94148">
        <ele>275</ele>
        <time>2016-11-15T11:24:21Z</time>
      </trkpt>
      <trkpt lat="45.89504" lon="4.94141">
        <ele>275</ele>
        <time>2016-11-15T11:24:22Z</time>
      </trkpt>
      <trkpt lat="45.89504" lon="4.94133">
        <ele>275</ele>
        <time>2016-11-15T11:24:23Z</time>
      </trkpt>
      <trkpt lat="45.89505" lon="4.94125">
        <ele>275</ele>
        <time>2016-11-15T11:24:24Z</time>
      </trkpt>
      <trkpt lat="45.89505" lon="4.94117">
        <ele>275</ele>
        <time>2016-11-15T11:24:25Z</time>
      </trkpt>
      <trkpt lat="45.89505" lon="4.94109">
        <ele>275</ele>
        <time>2016-11-15T11:24:26Z</time>
      </trkpt>
      <trkpt lat="45.89506" lon="4.94101">
        <ele>275</ele>
        <time>2016-11-15T11:24:27Z</time>
      </trkpt>
      <trkpt lat="45.89507" lon="4.94093">
        <ele>275</ele>
        <time>2016-11-15T11:24:28Z</time>
      </trkpt>
      <trkpt lat="45.89507" lon="4.94086">
        <ele>275</ele>
        <time>2016-11-15T11:24:29Z</time>
      </trkpt>
      <trkpt lat="45.89508" lon="4.94078">
        <ele>275</ele>
        <time>2016-11-15T11:24:30Z</time>
      </trkpt>
      <trkpt lat="45.89509" lon="4.94069">
        <ele>275</ele>
        <time>2016-11-15T11:24:31Z</time>
      </trkpt>
      <trkpt lat="45.89509" lon="4.94061">
        <ele>275</ele>
        <time>2016-11-15T11:24:32Z</time>
      </trkpt>
      <trkpt lat="45.8951" lon="4.94053">
        <ele>275</ele>
        <time>2016-11-15T11:24:33Z</time>
      </trkpt>
      <trkpt lat="45.8951" lon="4.94045">
        <ele>275</ele>
        <time>2016-11-15T11:24:34Z</time>
      </trkpt>
      <trkpt lat="45.89511" lon="4.94037">
        <ele>275</ele>
        <time>2016-11-15T11:24:35Z</time>
      </trkpt>
      <trkpt lat="45.89511" lon="4.94029">
        <ele>275</ele>
        <time>2016-11-15T11:24:36Z</time>
      </trkpt>
      <trkpt lat="45.89512" lon="4.94021">
        <ele>275</ele>
        <time>2016-11-15T11:24:37Z</time>
      </trkpt>
      <trkpt lat="45.89512" lon="4.94014">
        <ele>275</ele>
        <time>2016-11-15T11:24:38Z</time>
      </trkpt>
      <trkpt lat="45.89513" lon="4.94007">
        <ele>274</ele>
        <time>2016-11-15T11:24:39Z</time>
      </trkpt>
      <trkpt lat="45.89513" lon="4.94">
        <ele>274</ele>
        <time>2016-11-15T11:24:40Z</time>
      </trkpt>
      <trkpt lat="45.89513" lon="4.93992">
        <ele>274</ele>
        <time>2016-11-15T11:24:41Z</time>
      </trkpt>
      <trkpt lat="45.89514" lon="4.93986">
        <ele>274</ele>
        <time>2016-11-15T11:24:42Z</time>
      </trkpt>
      <trkpt lat="45.89514" lon="4.93978">
        <ele>274</ele>
        <time>2016-11-15T11:24:43Z</time>
      </trkpt>
      <trkpt lat="45.89514" lon="4.93971">
        <ele>274</ele>
        <time>2016-11-15T11:24:44Z</time>
      </trkpt>
      <trkpt lat="45.89515" lon="4.93963">
        <ele>274</ele>
        <time>2016-11-15T11:24:45Z</time>
      </trkpt>
      <trkpt lat="45.89515" lon="4.93955">
        <ele>274</ele>
        <time>2016-11-15T11:24:46Z</time>
      </trkpt>
      <trkpt lat="45.89515" lon="4.93947">
        <ele>274</ele>
        <time>2016-11-15T11:24:47Z</time>
      </trkpt>
      <trkpt lat="45.89516" lon="4.93939">
        <ele>274</ele>
        <time>2016-11-15T11:24:48Z</time>
      </trkpt>
      <trkpt lat="45.89516" lon="4.93932">
        <ele>274</ele>
        <time>2016-11-15T11:24:49Z</time>
      </trkpt>
      <trkpt lat="45.89517" lon="4.93924">
        <ele>274</ele>
        <time>2016-11-15T11:24:50Z</time>
      </trkpt>
      <trkpt lat="45.89518" lon="4.93916">
        <ele>273</ele>
        <time>2016-11-15T11:24:51Z</time>
      </trkpt>
      <trkpt lat="45.89518" lon="4.93908">
        <ele>273</ele>
        <time>2016-11-15T11:24:52Z</time>
      </trkpt>
      <trkpt lat="45.89518" lon="4.939">
        <ele>273</ele>
        <time>2016-11-15T11:24:53Z</time>
      </trkpt>
      <trkpt lat="45.89519" lon="4.93892">
        <ele>273</ele>
        <time>2016-11-15T11:24:54Z</time>
      </trkpt>
      <trkpt lat="45.89519" lon="4.93884">
        <ele>274</ele>
        <time>2016-11-15T11:24:55Z</time>
      </trkpt>
      <trkpt lat="45.8952" lon="4.93876">
        <ele>274</ele>
        <time>2016-11-15T11:24:56Z</time>
      </trkpt>
      <trkpt lat="45.89521" lon="4.93868">
        <ele>274</ele>
        <time>2016-11-15T11:24:57Z</time>
      </trkpt>
      <trkpt lat="45.89522" lon="4.93859">
        <ele>274</ele>
        <time>2016-11-15T11:24:58Z</time>
      </trkpt>
      <trkpt lat="45.89523" lon="4.93851">
        <ele>274</ele>
        <time>2016-11-15T11:24:59Z</time>
      </trkpt>
      <trkpt lat="45.89524" lon="4.93843">
        <ele>274</ele>
        <time>2016-11-15T11:25:00Z</time>
      </trkpt>
      <trkpt lat="45.89525" lon="4.93835">
        <ele>274</ele>
        <time>2016-11-15T11:25:01Z</time>
      </trkpt>
      <trkpt lat="45.89526" lon="4.93827">
        <ele>274</ele>
        <time>2016-11-15T11:25:02Z</time>
      </trkpt>
      <trkpt lat="45.89528" lon="4.93819">
        <ele>274</ele>
        <time>2016-11-15T11:25:03Z</time>
      </trkpt>
      <trkpt lat="45.89529" lon="4.93811">
        <ele>274</ele>
        <time>2016-11-15T11:25:04Z</time>
      </trkpt>
      <trkpt lat="45.8953" lon="4.93802">
        <ele>274</ele>
        <time>2016-11-15T11:25:05Z</time>
      </trkpt>
      <trkpt lat="45.89531" lon="4.93794">
        <ele>274</ele>
        <time>2016-11-15T11:25:06Z</time>
      </trkpt>
      <trkpt lat="45.89532" lon="4.93786">
        <ele>274</ele>
        <time>2016-11-15T11:25:07Z</time>
      </trkpt>
      <trkpt lat="45.89532" lon="4.93777">
        <ele>274</ele>
        <time>2016-11-15T11:25:08Z</time>
      </trkpt>
      <trkpt lat="45.89533" lon="4.9377">
        <ele>274</ele>
        <time>2016-11-15T11:25:09Z</time>
      </trkpt>
      <trkpt lat="45.89533" lon="4.93762">
        <ele>275</ele>
        <time>2016-11-15T11:25:10Z</time>
      </trkpt>
      <trkpt lat="45.89533" lon="4.93755">
        <ele>275</ele>
        <time>2016-11-15T11:25:11Z</time>
      </trkpt>
      <trkpt lat="45.89533" lon="4.93748">
        <ele>275</ele>
        <time>2016-11-15T11:25:12Z</time>
      </trkpt>
      <trkpt lat="45.89533" lon="4.93741">
        <ele>275</ele>
        <time>2016-11-15T11:25:13Z</time>
      </trkpt>
      <trkpt lat="45.89533" lon="4.93734">
        <ele>275</ele>
        <time>2016-11-15T11:25:14Z</time>
      </trkpt>
      <trkpt lat="45.89533" lon="4.93728">
        <ele>275</ele>
        <time>2016-11-15T11:25:15Z</time>
      </trkpt>
      <trkpt lat="45.89534" lon="4.93721">
        <ele>275</ele>
        <time>2016-11-15T11:25:16Z</time>
      </trkpt>
      <trkpt lat="45.89534" lon="4.93714">
        <ele>275</ele>
        <time>2016-11-15T11:25:17Z</time>
      </trkpt>
      <trkpt lat="45.89535" lon="4.93707">
        <ele>275</ele>
        <time>2016-11-15T11:25:18Z</time>
      </trkpt>
      <trkpt lat="45.89535" lon="4.937">
        <ele>275</ele>
        <time>2016-11-15T11:25:19Z</time>
      </trkpt>
      <trkpt lat="45.89535" lon="4.93692">
        <ele>275</ele>
        <time>2016-11-15T11:25:20Z</time>
      </trkpt>
      <trkpt lat="45.89536" lon="4.93685">
        <ele>275</ele>
        <time>2016-11-15T11:25:21Z</time>
      </trkpt>
      <trkpt lat="45.89536" lon="4.93678">
        <ele>275</ele>
        <time>2016-11-15T11:25:22Z</time>
      </trkpt>
      <trkpt lat="45.89537" lon="4.93671">
        <ele>275</ele>
        <time>2016-11-15T11:25:23Z</time>
      </trkpt>
      <trkpt lat="45.89537" lon="4.93664">
        <ele>276</ele>
        <time>2016-11-15T11:25:24Z</time>
      </trkpt>
      <trkpt lat="45.89538" lon="4.93657">
        <ele>276</ele>
        <time>2016-11-15T11:25:25Z</time>
      </trkpt>
      <trkpt lat="45.89538" lon="4.9365">
        <ele>277</ele>
        <time>2016-11-15T11:25:26Z</time>
      </trkpt>
      <trkpt lat="45.89539" lon="4.93643">
        <ele>277</ele>
        <time>2016-11-15T11:25:27Z</time>
      </trkpt>
      <trkpt lat="45.89539" lon="4.93631">
        <ele>277</ele>
        <time>2016-11-15T11:25:29Z</time>
      </trkpt>
      <trkpt lat="45.89539" lon="4.93625">
        <ele>277</ele>
        <time>2016-11-15T11:25:30Z</time>
      </trkpt>
      <trkpt lat="45.8954" lon="4.93618">
        <ele>277</ele>
        <time>2016-11-15T11:25:31Z</time>
      </trkpt>
      <trkpt lat="45.8954" lon="4.93611">
        <ele>277</ele>
        <time>2016-11-15T11:25:32Z</time>
      </trkpt>
      <trkpt lat="45.8954" lon="4.93604">
        <ele>277</ele>
        <time>2016-11-15T11:25:33Z</time>
      </trkpt>
      <trkpt lat="45.8954" lon="4.93598">
        <ele>277</ele>
        <time>2016-11-15T11:25:34Z</time>
      </trkpt>
      <trkpt lat="45.8954" lon="4.93591">
        <ele>278</ele>
        <time>2016-11-15T11:25:35Z</time>
      </trkpt>
      <trkpt lat="45.89541" lon="4.93584">
        <ele>278</ele>
        <time>2016-11-15T11:25:36Z</time>
      </trkpt>
      <trkpt lat="45.89541" lon="4.93572">
        <ele>279</ele>
        <time>2016-11-15T11:25:38Z</time>
      </trkpt>
      <trkpt lat="45.89542" lon="4.93566">
        <ele>279</ele>
        <time>2016-11-15T11:25:39Z</time>
      </trkpt>
      <trkpt lat="45.89543" lon="4.93554">
        <ele>279</ele>
        <time>2016-11-15T11:25:41Z</time>
      </trkpt>
      <trkpt lat="45.89543" lon="4.93548">
        <ele>279</ele>
        <time>2016-11-15T11:25:42Z</time>
      </trkpt>
      <trkpt lat="45.89544" lon="4.93541">
        <ele>279</ele>
        <time>2016-11-15T11:25:43Z</time>
      </trkpt>
      <trkpt lat="45.89544" lon="4.93534">
        <ele>279</ele>
        <time>2016-11-15T11:25:44Z</time>
      </trkpt>
      <trkpt lat="45.89545" lon="4.93527">
        <ele>279</ele>
        <time>2016-11-15T11:25:45Z</time>
      </trkpt>
      <trkpt lat="45.89546" lon="4.9352">
        <ele>279</ele>
        <time>2016-11-15T11:25:46Z</time>
      </trkpt>
      <trkpt lat="45.89547" lon="4.93513">
        <ele>279</ele>
        <time>2016-11-15T11:25:47Z</time>
      </trkpt>
      <trkpt lat="45.89548" lon="4.93507">
        <ele>279</ele>
        <time>2016-11-15T11:25:48Z</time>
      </trkpt>
      <trkpt lat="45.89549" lon="4.93495">
        <ele>280</ele>
        <time>2016-11-15T11:25:50Z</time>
      </trkpt>
      <trkpt lat="45.8955" lon="4.93488">
        <ele>280</ele>
        <time>2016-11-15T11:25:51Z</time>
      </trkpt>
      <trkpt lat="45.89551" lon="4.93476">
        <ele>280</ele>
        <time>2016-11-15T11:25:53Z</time>
      </trkpt>
      <trkpt lat="45.89551" lon="4.93469">
        <ele>280</ele>
        <time>2016-11-15T11:25:54Z</time>
      </trkpt>
      <trkpt lat="45.8955" lon="4.93462">
        <ele>280</ele>
        <time>2016-11-15T11:25:55Z</time>
      </trkpt>
      <trkpt lat="45.8955" lon="4.93455">
        <ele>280</ele>
        <time>2016-11-15T11:25:56Z</time>
      </trkpt>
      <trkpt lat="45.89549" lon="4.93448">
        <ele>280</ele>
        <time>2016-11-15T11:25:57Z</time>
      </trkpt>
      <trkpt lat="45.89549" lon="4.93442">
        <ele>280</ele>
        <time>2016-11-15T11:25:58Z</time>
      </trkpt>
      <trkpt lat="45.89547" lon="4.93429">
        <ele>280</ele>
        <time>2016-11-15T11:26:00Z</time>
      </trkpt>
      <trkpt lat="45.89546" lon="4.93423">
        <ele>280</ele>
        <time>2016-11-15T11:26:01Z</time>
      </trkpt>
      <trkpt lat="45.89543" lon="4.93414">
        <ele>282</ele>
        <time>2016-11-15T11:26:03Z</time>
      </trkpt>
      <trkpt lat="45.89541" lon="4.93409">
        <ele>282</ele>
        <time>2016-11-15T11:26:04Z</time>
      </trkpt>
      <trkpt lat="45.89539" lon="4.93399">
        <ele>282</ele>
        <time>2016-11-15T11:26:06Z</time>
      </trkpt>
      <trkpt lat="45.89537" lon="4.93395">
        <ele>282</ele>
        <time>2016-11-15T11:26:07Z</time>
      </trkpt>
      <trkpt lat="45.89534" lon="4.93385">
        <ele>282</ele>
        <time>2016-11-15T11:26:09Z</time>
      </trkpt>
      <trkpt lat="45.89533" lon="4.93379">
        <ele>282</ele>
        <time>2016-11-15T11:26:10Z</time>
      </trkpt>
      <trkpt lat="45.8953" lon="4.9337">
        <ele>282</ele>
        <time>2016-11-15T11:26:12Z</time>
      </trkpt>
      <trkpt lat="45.89529" lon="4.93366">
        <ele>282</ele>
        <time>2016-11-15T11:26:13Z</time>
      </trkpt>
      <trkpt lat="45.89527" lon="4.93357">
        <ele>282</ele>
        <time>2016-11-15T11:26:15Z</time>
      </trkpt>
      <trkpt lat="45.89526" lon="4.93353">
        <ele>282</ele>
        <time>2016-11-15T11:26:16Z</time>
      </trkpt>
      <trkpt lat="45.89525" lon="4.93344">
        <ele>283</ele>
        <time>2016-11-15T11:26:18Z</time>
      </trkpt>
      <trkpt lat="45.89524" lon="4.9334">
        <ele>283</ele>
        <time>2016-11-15T11:26:19Z</time>
      </trkpt>
      <trkpt lat="45.89523" lon="4.93331">
        <ele>285</ele>
        <time>2016-11-15T11:26:21Z</time>
      </trkpt>
      <trkpt lat="45.89522" lon="4.93326">
        <ele>285</ele>
        <time>2016-11-15T11:26:22Z</time>
      </trkpt>
      <trkpt lat="45.89522" lon="4.93317">
        <ele>285</ele>
        <time>2016-11-15T11:26:24Z</time>
      </trkpt>
      <trkpt lat="45.89522" lon="4.93312">
        <ele>285</ele>
        <time>2016-11-15T11:26:25Z</time>
      </trkpt>
      <trkpt lat="45.89523" lon="4.933">
        <ele>286</ele>
        <time>2016-11-15T11:26:28Z</time>
      </trkpt>
      <trkpt lat="45.89524" lon="4.93295">
        <ele>286</ele>
        <time>2016-11-15T11:26:29Z</time>
      </trkpt>
      <trkpt lat="45.89525" lon="4.93285">
        <ele>286</ele>
        <time>2016-11-15T11:26:31Z</time>
      </trkpt>
      <trkpt lat="45.89525" lon="4.9328">
        <ele>286</ele>
        <time>2016-11-15T11:26:32Z</time>
      </trkpt>
      <trkpt lat="45.89525" lon="4.9327">
        <ele>287</ele>
        <time>2016-11-15T11:26:34Z</time>
      </trkpt>
      <trkpt lat="45.89525" lon="4.93265">
        <ele>287</ele>
        <time>2016-11-15T11:26:35Z</time>
      </trkpt>
      <trkpt lat="45.89525" lon="4.93253">
        <ele>287</ele>
        <time>2016-11-15T11:26:37Z</time>
      </trkpt>
      <trkpt lat="45.89525" lon="4.93247">
        <ele>288</ele>
        <time>2016-11-15T11:26:38Z</time>
      </trkpt>
      <trkpt lat="45.89526" lon="4.93237">
        <ele>287</ele>
        <time>2016-11-15T11:26:39Z</time>
      </trkpt>
      <trkpt lat="45.89525" lon="4.9323">
        <ele>287</ele>
        <time>2016-11-15T11:26:40Z</time>
      </trkpt>
      <trkpt lat="45.89525" lon="4.93223">
        <ele>287</ele>
        <time>2016-11-15T11:26:41Z</time>
      </trkpt>
      <trkpt lat="45.89524" lon="4.93215">
        <ele>287</ele>
        <time>2016-11-15T11:26:42Z</time>
      </trkpt>
      <trkpt lat="45.89521" lon="4.93207">
        <ele>287</ele>
        <time>2016-11-15T11:26:43Z</time>
      </trkpt>
      <trkpt lat="45.89519" lon="4.932">
        <ele>287</ele>
        <time>2016-11-15T11:26:44Z</time>
      </trkpt>
      <trkpt lat="45.89517" lon="4.93192">
        <ele>287</ele>
        <time>2016-11-15T11:26:45Z</time>
      </trkpt>
      <trkpt lat="45.89515" lon="4.93186">
        <ele>286</ele>
        <time>2016-11-15T11:26:46Z</time>
      </trkpt>
      <trkpt lat="45.89513" lon="4.93179">
        <ele>286</ele>
        <time>2016-11-15T11:26:47Z</time>
      </trkpt>
      <trkpt lat="45.89511" lon="4.93173">
        <ele>286</ele>
        <time>2016-11-15T11:26:48Z</time>
      </trkpt>
      <trkpt lat="45.89509" lon="4.93167">
        <ele>285</ele>
        <time>2016-11-15T11:26:49Z</time>
      </trkpt>
      <trkpt lat="45.89507" lon="4.9316">
        <ele>285</ele>
        <time>2016-11-15T11:26:50Z</time>
      </trkpt>
      <trkpt lat="45.89504" lon="4.93148">
        <ele>285</ele>
        <time>2016-11-15T11:26:52Z</time>
      </trkpt>
      <trkpt lat="45.89502" lon="4.93143">
        <ele>285</ele>
        <time>2016-11-15T11:26:53Z</time>
      </trkpt>
      <trkpt lat="45.895" lon="4.93131">
        <ele>284</ele>
        <time>2016-11-15T11:26:56Z</time>
      </trkpt>
      <trkpt lat="45.895" lon="4.93128">
        <ele>283</ele>
        <time>2016-11-15T11:26:57Z</time>
      </trkpt>
      <trkpt lat="45.89498" lon="4.93115">
        <ele>283</ele>
        <time>2016-11-15T11:27:02Z</time>
      </trkpt>
      <trkpt lat="45.89497" lon="4.93112">
        <ele>283</ele>
        <time>2016-11-15T11:27:03Z</time>
      </trkpt>
      <trkpt lat="45.89488" lon="4.93109">
        <ele>283</ele>
        <time>2016-11-15T11:27:06Z</time>
      </trkpt>
      <trkpt lat="45.89485" lon="4.93108">
        <ele>283</ele>
        <time>2016-11-15T11:27:07Z</time>
      </trkpt>
      <trkpt lat="45.89478" lon="4.93106">
        <ele>283</ele>
        <time>2016-11-15T11:27:09Z</time>
      </trkpt>
      <trkpt lat="45.89475" lon="4.93104">
        <ele>283</ele>
        <time>2016-11-15T11:27:10Z</time>
      </trkpt>
      <trkpt lat="45.89472" lon="4.93099">
        <ele>283</ele>
        <time>2016-11-15T11:27:11Z</time>
      </trkpt>
      <trkpt lat="45.8947" lon="4.93093">
        <ele>283</ele>
        <time>2016-11-15T11:27:12Z</time>
      </trkpt>
      <trkpt lat="45.89468" lon="4.93086">
        <ele>283</ele>
        <time>2016-11-15T11:27:13Z</time>
      </trkpt>
      <trkpt lat="45.89467" lon="4.9308">
        <ele>283</ele>
        <time>2016-11-15T11:27:14Z</time>
      </trkpt>
      <trkpt lat="45.89463" lon="4.9307">
        <ele>283</ele>
        <time>2016-11-15T11:27:16Z</time>
      </trkpt>
      <trkpt lat="45.89461" lon="4.93065">
        <ele>283</ele>
        <time>2016-11-15T11:27:17Z</time>
      </trkpt>
      <trkpt lat="45.89457" lon="4.93055">
        <ele>283</ele>
        <time>2016-11-15T11:27:19Z</time>
      </trkpt>
      <trkpt lat="45.89455" lon="4.9305">
        <ele>283</ele>
        <time>2016-11-15T11:27:20Z</time>
      </trkpt>
      <trkpt lat="45.89451" lon="4.9304">
        <ele>284</ele>
        <time>2016-11-15T11:27:22Z</time>
      </trkpt>
      <trkpt lat="45.89449" lon="4.93035">
        <ele>284</ele>
        <time>2016-11-15T11:27:23Z</time>
      </trkpt>
      <trkpt lat="45.89445" lon="4.93024">
        <ele>284</ele>
        <time>2016-11-15T11:27:25Z</time>
      </trkpt>
      <trkpt lat="45.89443" lon="4.93018">
        <ele>284</ele>
        <time>2016-11-15T11:27:26Z</time>
      </trkpt>
      <trkpt lat="45.89439" lon="4.93009">
        <ele>284</ele>
        <time>2016-11-15T11:27:28Z</time>
      </trkpt>
      <trkpt lat="45.89437" lon="4.93005">
        <ele>284</ele>
        <time>2016-11-15T11:27:29Z</time>
      </trkpt>
      <trkpt lat="45.89433" lon="4.92997">
        <ele>286</ele>
        <time>2016-11-15T11:27:31Z</time>
      </trkpt>
      <trkpt lat="45.8943" lon="4.92992">
        <ele>286</ele>
        <time>2016-11-15T11:27:32Z</time>
      </trkpt>
      <trkpt lat="45.89428" lon="4.92982">
        <ele>286</ele>
        <time>2016-11-15T11:27:34Z</time>
      </trkpt>
      <trkpt lat="45.89426" lon="4.92976">
        <ele>286</ele>
        <time>2016-11-15T11:27:35Z</time>
      </trkpt>
      <trkpt lat="45.89422" lon="4.92966">
        <ele>286</ele>
        <time>2016-11-15T11:27:37Z</time>
      </trkpt>
      <trkpt lat="45.8942" lon="4.92962">
        <ele>286</ele>
        <time>2016-11-15T11:27:38Z</time>
      </trkpt>
      <trkpt lat="45.89416" lon="4.92952">
        <ele>286</ele>
        <time>2016-11-15T11:27:40Z</time>
      </trkpt>
      <trkpt lat="45.89414" lon="4.92946">
        <ele>286</ele>
        <time>2016-11-15T11:27:41Z</time>
      </trkpt>
      <trkpt lat="45.89411" lon="4.9294">
        <ele>287</ele>
        <time>2016-11-15T11:27:42Z</time>
      </trkpt>
      <trkpt lat="45.89409" lon="4.92935">
        <ele>287</ele>
        <time>2016-11-15T11:27:43Z</time>
      </trkpt>
      <trkpt lat="45.89406" lon="4.92924">
        <ele>287</ele>
        <time>2016-11-15T11:27:45Z</time>
      </trkpt>
      <trkpt lat="45.89405" lon="4.92918">
        <ele>287</ele>
        <time>2016-11-15T11:27:46Z</time>
      </trkpt>
      <trkpt lat="45.894" lon="4.92909">
        <ele>288</ele>
        <time>2016-11-15T11:27:48Z</time>
      </trkpt>
      <trkpt lat="45.89398" lon="4.92904">
        <ele>288</ele>
        <time>2016-11-15T11:27:49Z</time>
      </trkpt>
      <trkpt lat="45.89395" lon="4.92893">
        <ele>288</ele>
        <time>2016-11-15T11:27:51Z</time>
      </trkpt>
      <trkpt lat="45.89393" lon="4.92888">
        <ele>288</ele>
        <time>2016-11-15T11:27:52Z</time>
      </trkpt>
      <trkpt lat="45.89389" lon="4.92879">
        <ele>288</ele>
        <time>2016-11-15T11:27:54Z</time>
      </trkpt>
      <trkpt lat="45.89387" lon="4.92875">
        <ele>288</ele>
        <time>2016-11-15T11:27:55Z</time>
      </trkpt>
      <trkpt lat="45.89384" lon="4.92866">
        <ele>288</ele>
        <time>2016-11-15T11:27:57Z</time>
      </trkpt>
      <trkpt lat="45.89382" lon="4.92862">
        <ele>288</ele>
        <time>2016-11-15T11:27:58Z</time>
      </trkpt>
      <trkpt lat="45.89379" lon="4.92854">
        <ele>288</ele>
        <time>2016-11-15T11:28:00Z</time>
      </trkpt>
      <trkpt lat="45.89378" lon="4.9285">
        <ele>288</ele>
        <time>2016-11-15T11:28:01Z</time>
      </trkpt>
      <trkpt lat="45.89376" lon="4.92841">
        <ele>289</ele>
        <time>2016-11-15T11:28:03Z</time>
      </trkpt>
      <trkpt lat="45.89375" lon="4.92837">
        <ele>289</ele>
        <time>2016-11-15T11:28:04Z</time>
      </trkpt>
      <trkpt lat="45.89373" lon="4.92829">
        <ele>290</ele>
        <time>2016-11-15T11:28:06Z</time>
      </trkpt>
      <trkpt lat="45.89372" lon="4.92824">
        <ele>290</ele>
        <time>2016-11-15T11:28:07Z</time>
      </trkpt>
      <trkpt lat="45.89371" lon="4.92815">
        <ele>290</ele>
        <time>2016-11-15T11:28:09Z</time>
      </trkpt>
      <trkpt lat="45.89371" lon="4.92811">
        <ele>290</ele>
        <time>2016-11-15T11:28:10Z</time>
      </trkpt>
      <trkpt lat="45.89369" lon="4.92803">
        <ele>290</ele>
        <time>2016-11-15T11:28:12Z</time>
      </trkpt>
      <trkpt lat="45.89369" lon="4.92798">
        <ele>290</ele>
        <time>2016-11-15T11:28:13Z</time>
      </trkpt>
      <trkpt lat="45.89366" lon="4.92789">
        <ele>290</ele>
        <time>2016-11-15T11:28:15Z</time>
      </trkpt>
      <trkpt lat="45.89365" lon="4.92784">
        <ele>290</ele>
        <time>2016-11-15T11:28:16Z</time>
      </trkpt>
      <trkpt lat="45.89364" lon="4.92774">
        <ele>290</ele>
        <time>2016-11-15T11:28:18Z</time>
      </trkpt>
      <trkpt lat="45.89363" lon="4.92769">
        <ele>290</ele>
        <time>2016-11-15T11:28:19Z</time>
      </trkpt>
      <trkpt lat="45.8936" lon="4.92759">
        <ele>290</ele>
        <time>2016-11-15T11:28:21Z</time>
      </trkpt>
      <trkpt lat="45.89359" lon="4.92754">
        <ele>290</ele>
        <time>2016-11-15T11:28:22Z</time>
      </trkpt>
      <trkpt lat="45.89358" lon="4.92744">
        <ele>290</ele>
        <time>2016-11-15T11:28:24Z</time>
      </trkpt>
      <trkpt lat="45.89358" lon="4.92739">
        <ele>290</ele>
        <time>2016-11-15T11:28:25Z</time>
      </trkpt>
      <trkpt lat="45.89356" lon="4.92728">
        <ele>290</ele>
        <time>2016-11-15T11:28:27Z</time>
      </trkpt>
      <trkpt lat="45.89355" lon="4.92723">
        <ele>290</ele>
        <time>2016-11-15T11:28:28Z</time>
      </trkpt>
      <trkpt lat="45.89353" lon="4.92712">
        <ele>291</ele>
        <time>2016-11-15T11:28:30Z</time>
      </trkpt>
      <trkpt lat="45.89352" lon="4.92707">
        <ele>291</ele>
        <time>2016-11-15T11:28:31Z</time>
      </trkpt>
      <trkpt lat="45.8935" lon="4.92697">
        <ele>291</ele>
        <time>2016-11-15T11:28:33Z</time>
      </trkpt>
      <trkpt lat="45.89349" lon="4.92692">
        <ele>291</ele>
        <time>2016-11-15T11:28:34Z</time>
      </trkpt>
      <trkpt lat="45.89346" lon="4.92682">
        <ele>291</ele>
        <time>2016-11-15T11:28:36Z</time>
      </trkpt>
      <trkpt lat="45.89345" lon="4.92677">
        <ele>291</ele>
        <time>2016-11-15T11:28:37Z</time>
      </trkpt>
      <trkpt lat="45.89342" lon="4.92666">
        <ele>291</ele>
        <time>2016-11-15T11:28:39Z</time>
      </trkpt>
      <trkpt lat="45.89341" lon="4.9266">
        <ele>291</ele>
        <time>2016-11-15T11:28:40Z</time>
      </trkpt>
      <trkpt lat="45.89338" lon="4.92648">
        <ele>291</ele>
        <time>2016-11-15T11:28:42Z</time>
      </trkpt>
      <trkpt lat="45.89337" lon="4.92643">
        <ele>291</ele>
        <time>2016-11-15T11:28:43Z</time>
      </trkpt>
      <trkpt lat="45.89334" lon="4.92631">
        <ele>291</ele>
        <time>2016-11-15T11:28:45Z</time>
      </trkpt>
      <trkpt lat="45.89332" lon="4.92626">
        <ele>292</ele>
        <time>2016-11-15T11:28:46Z</time>
      </trkpt>
      <trkpt lat="45.8933" lon="4.92616">
        <ele>292</ele>
        <time>2016-11-15T11:28:48Z</time>
      </trkpt>
      <trkpt lat="45.89328" lon="4.9261">
        <ele>292</ele>
        <time>2016-11-15T11:28:49Z</time>
      </trkpt>
      <trkpt lat="45.89325" lon="4.92599">
        <ele>292</ele>
        <time>2016-11-15T11:28:51Z</time>
      </trkpt>
      <trkpt lat="45.89324" lon="4.92594">
        <ele>292</ele>
        <time>2016-11-15T11:28:52Z</time>
      </trkpt>
      <trkpt lat="45.8932" lon="4.92583">
        <ele>293</ele>
        <time>2016-11-15T11:28:54Z</time>
      </trkpt>
      <trkpt lat="45.89319" lon="4.92578">
        <ele>293</ele>
        <time>2016-11-15T11:28:55Z</time>
      </trkpt>
      <trkpt lat="45.89315" lon="4.92567">
        <ele>293</ele>
        <time>2016-11-15T11:28:57Z</time>
      </trkpt>
      <trkpt lat="45.89314" lon="4.92562">
        <ele>293</ele>
        <time>2016-11-15T11:28:58Z</time>
      </trkpt>
      <trkpt lat="45.8931" lon="4.92552">
        <ele>293</ele>
        <time>2016-11-15T11:29:00Z</time>
      </trkpt>
      <trkpt lat="45.89308" lon="4.92547">
        <ele>293</ele>
        <time>2016-11-15T11:29:01Z</time>
      </trkpt>
      <trkpt lat="45.89304" lon="4.92536">
        <ele>293</ele>
        <time>2016-11-15T11:29:03Z</time>
      </trkpt>
      <trkpt lat="45.89302" lon="4.9253">
        <ele>293</ele>
        <time>2016-11-15T11:29:04Z</time>
      </trkpt>
      <trkpt lat="45.893" lon="4.92523">
        <ele>293</ele>
        <time>2016-11-15T11:29:05Z</time>
      </trkpt>
      <trkpt lat="45.89297" lon="4.92517">
        <ele>293</ele>
        <time>2016-11-15T11:29:06Z</time>
      </trkpt>
      <trkpt lat="45.89295" lon="4.9251">
        <ele>293</ele>
        <time>2016-11-15T11:29:07Z</time>
      </trkpt>
      <trkpt lat="45.89293" lon="4.92504">
        <ele>294</ele>
        <time>2016-11-15T11:29:08Z</time>
      </trkpt>
      <trkpt lat="45.89291" lon="4.92498">
        <ele>294</ele>
        <time>2016-11-15T11:29:09Z</time>
      </trkpt>
      <trkpt lat="45.89288" lon="4.92492">
        <ele>294</ele>
        <time>2016-11-15T11:29:10Z</time>
      </trkpt>
      <trkpt lat="45.89285" lon="4.92481">
        <ele>294</ele>
        <time>2016-11-15T11:29:12Z</time>
      </trkpt>
      <trkpt lat="45.89283" lon="4.92476">
        <ele>294</ele>
        <time>2016-11-15T11:29:13Z</time>
      </trkpt>
      <trkpt lat="45.8928" lon="4.92465">
        <ele>294</ele>
        <time>2016-11-15T11:29:15Z</time>
      </trkpt>
      <trkpt lat="45.89279" lon="4.9246">
        <ele>294</ele>
        <time>2016-11-15T11:29:16Z</time>
      </trkpt>
      <trkpt lat="45.89277" lon="4.92449">
        <ele>294</ele>
        <time>2016-11-15T11:29:18Z</time>
      </trkpt>
      <trkpt lat="45.89275" lon="4.92444">
        <ele>294</ele>
        <time>2016-11-15T11:29:19Z</time>
      </trkpt>
      <trkpt lat="45.89273" lon="4.92438">
        <ele>294</ele>
        <time>2016-11-15T11:29:20Z</time>
      </trkpt>
      <trkpt lat="45.89271" lon="4.92433">
        <ele>294</ele>
        <time>2016-11-15T11:29:21Z</time>
      </trkpt>
      <trkpt lat="45.89269" lon="4.92427">
        <ele>294</ele>
        <time>2016-11-15T11:29:22Z</time>
      </trkpt>
      <trkpt lat="45.89266" lon="4.92421">
        <ele>294</ele>
        <time>2016-11-15T11:29:23Z</time>
      </trkpt>
      <trkpt lat="45.89264" lon="4.92414">
        <ele>293</ele>
        <time>2016-11-15T11:29:24Z</time>
      </trkpt>
      <trkpt lat="45.89262" lon="4.92408">
        <ele>293</ele>
        <time>2016-11-15T11:29:25Z</time>
      </trkpt>
      <trkpt lat="45.89259" lon="4.92403">
        <ele>293</ele>
        <time>2016-11-15T11:29:26Z</time>
      </trkpt>
      <trkpt lat="45.89257" lon="4.92397">
        <ele>293</ele>
        <time>2016-11-15T11:29:27Z</time>
      </trkpt>
      <trkpt lat="45.89255" lon="4.92391">
        <ele>293</ele>
        <time>2016-11-15T11:29:28Z</time>
      </trkpt>
      <trkpt lat="45.89253" lon="4.92385">
        <ele>293</ele>
        <time>2016-11-15T11:29:29Z</time>
      </trkpt>
      <trkpt lat="45.89252" lon="4.92379">
        <ele>293</ele>
        <time>2016-11-15T11:29:30Z</time>
      </trkpt>
      <trkpt lat="45.8925" lon="4.92372">
        <ele>293</ele>
        <time>2016-11-15T11:29:31Z</time>
      </trkpt>
      <trkpt lat="45.89248" lon="4.92365">
        <ele>293</ele>
        <time>2016-11-15T11:29:32Z</time>
      </trkpt>
      <trkpt lat="45.89246" lon="4.92359">
        <ele>293</ele>
        <time>2016-11-15T11:29:33Z</time>
      </trkpt>
      <trkpt lat="45.89245" lon="4.92352">
        <ele>292</ele>
        <time>2016-11-15T11:29:34Z</time>
      </trkpt>
      <trkpt lat="45.89243" lon="4.92343">
        <ele>292</ele>
        <time>2016-11-15T11:29:35Z</time>
      </trkpt>
      <trkpt lat="45.89241" lon="4.92335">
        <ele>292</ele>
        <time>2016-11-15T11:29:36Z</time>
      </trkpt>
      <trkpt lat="45.89239" lon="4.92326">
        <ele>291</ele>
        <time>2016-11-15T11:29:37Z</time>
      </trkpt>
      <trkpt lat="45.89237" lon="4.92317">
        <ele>291</ele>
        <time>2016-11-15T11:29:38Z</time>
      </trkpt>
      <trkpt lat="45.89235" lon="4.92308">
        <ele>291</ele>
        <time>2016-11-15T11:29:39Z</time>
      </trkpt>
      <trkpt lat="45.89232" lon="4.923">
        <ele>291</ele>
        <time>2016-11-15T11:29:40Z</time>
      </trkpt>
      <trkpt lat="45.89229" lon="4.92291">
        <ele>290</ele>
        <time>2016-11-15T11:29:41Z</time>
      </trkpt>
      <trkpt lat="45.89226" lon="4.92283">
        <ele>290</ele>
        <time>2016-11-15T11:29:42Z</time>
      </trkpt>
      <trkpt lat="45.89222" lon="4.92275">
        <ele>290</ele>
        <time>2016-11-15T11:29:43Z</time>
      </trkpt>
      <trkpt lat="45.89219" lon="4.92266">
        <ele>290</ele>
        <time>2016-11-15T11:29:44Z</time>
      </trkpt>
      <trkpt lat="45.89215" lon="4.92258">
        <ele>290</ele>
        <time>2016-11-15T11:29:45Z</time>
      </trkpt>
      <trkpt lat="45.89212" lon="4.9225">
        <ele>290</ele>
        <time>2016-11-15T11:29:46Z</time>
      </trkpt>
      <trkpt lat="45.89208" lon="4.92242">
        <ele>289</ele>
        <time>2016-11-15T11:29:47Z</time>
      </trkpt>
      <trkpt lat="45.89203" lon="4.92234">
        <ele>289</ele>
        <time>2016-11-15T11:29:48Z</time>
      </trkpt>
      <trkpt lat="45.89199" lon="4.92227">
        <ele>289</ele>
        <time>2016-11-15T11:29:49Z</time>
      </trkpt>
      <trkpt lat="45.89195" lon="4.92219">
        <ele>289</ele>
        <time>2016-11-15T11:29:50Z</time>
      </trkpt>
      <trkpt lat="45.8919" lon="4.92211">
        <ele>289</ele>
        <time>2016-11-15T11:29:51Z</time>
      </trkpt>
      <trkpt lat="45.89187" lon="4.92204">
        <ele>289</ele>
        <time>2016-11-15T11:29:52Z</time>
      </trkpt>
      <trkpt lat="45.89183" lon="4.92197">
        <ele>289</ele>
        <time>2016-11-15T11:29:53Z</time>
      </trkpt>
      <trkpt lat="45.89178" lon="4.9219">
        <ele>289</ele>
        <time>2016-11-15T11:29:54Z</time>
      </trkpt>
      <trkpt lat="45.89174" lon="4.92183">
        <ele>289</ele>
        <time>2016-11-15T11:29:55Z</time>
      </trkpt>
      <trkpt lat="45.89169" lon="4.92177">
        <ele>289</ele>
        <time>2016-11-15T11:29:56Z</time>
      </trkpt>
      <trkpt lat="45.89164" lon="4.92171">
        <ele>289</ele>
        <time>2016-11-15T11:29:57Z</time>
      </trkpt>
      <trkpt lat="45.89159" lon="4.92165">
        <ele>289</ele>
        <time>2016-11-15T11:29:58Z</time>
      </trkpt>
      <trkpt lat="45.89154" lon="4.9216">
        <ele>288</ele>
        <time>2016-11-15T11:29:59Z</time>
      </trkpt>
      <trkpt lat="45.89149" lon="4.92155">
        <ele>288</ele>
        <time>2016-11-15T11:30:00Z</time>
      </trkpt>
      <trkpt lat="45.89143" lon="4.9215">
        <ele>288</ele>
        <time>2016-11-15T11:30:01Z</time>
      </trkpt>
      <trkpt lat="45.89138" lon="4.92146">
        <ele>288</ele>
        <time>2016-11-15T11:30:02Z</time>
      </trkpt>
      <trkpt lat="45.89132" lon="4.92142">
        <ele>288</ele>
        <time>2016-11-15T11:30:03Z</time>
      </trkpt>
      <trkpt lat="45.89126" lon="4.92137">
        <ele>288</ele>
        <time>2016-11-15T11:30:04Z</time>
      </trkpt>
      <trkpt lat="45.89121" lon="4.92132">
        <ele>288</ele>
        <time>2016-11-15T11:30:05Z</time>
      </trkpt>
      <trkpt lat="45.89115" lon="4.92127">
        <ele>288</ele>
        <time>2016-11-15T11:30:06Z</time>
      </trkpt>
      <trkpt lat="45.89109" lon="4.92123">
        <ele>287</ele>
        <time>2016-11-15T11:30:07Z</time>
      </trkpt>
      <trkpt lat="45.89103" lon="4.92117">
        <ele>287</ele>
        <time>2016-11-15T11:30:08Z</time>
      </trkpt>
      <trkpt lat="45.89097" lon="4.92112">
        <ele>287</ele>
        <time>2016-11-15T11:30:09Z</time>
      </trkpt>
      <trkpt lat="45.89091" lon="4.92107">
        <ele>287</ele>
        <time>2016-11-15T11:30:10Z</time>
      </trkpt>
      <trkpt lat="45.89084" lon="4.92102">
        <ele>287</ele>
        <time>2016-11-15T11:30:11Z</time>
      </trkpt>
      <trkpt lat="45.89078" lon="4.92096">
        <ele>287</ele>
        <time>2016-11-15T11:30:12Z</time>
      </trkpt>
      <trkpt lat="45.89071" lon="4.92091">
        <ele>287</ele>
        <time>2016-11-15T11:30:13Z</time>
      </trkpt>
      <trkpt lat="45.89065" lon="4.92085">
        <ele>287</ele>
        <time>2016-11-15T11:30:14Z</time>
      </trkpt>
      <trkpt lat="45.89058" lon="4.9208">
        <ele>287</ele>
        <time>2016-11-15T11:30:15Z</time>
      </trkpt>
      <trkpt lat="45.89052" lon="4.92075">
        <ele>287</ele>
        <time>2016-11-15T11:30:16Z</time>
      </trkpt>
      <trkpt lat="45.89047" lon="4.9207">
        <ele>287</ele>
        <time>2016-11-15T11:30:17Z</time>
      </trkpt>
      <trkpt lat="45.89041" lon="4.92065">
        <ele>287</ele>
        <time>2016-11-15T11:30:18Z</time>
      </trkpt>
      <trkpt lat="45.89036" lon="4.9206">
        <ele>287</ele>
        <time>2016-11-15T11:30:19Z</time>
      </trkpt>
      <trkpt lat="45.8903" lon="4.92055">
        <ele>287</ele>
        <time>2016-11-15T11:30:20Z</time>
      </trkpt>
      <trkpt lat="45.89025" lon="4.9205">
        <ele>287</ele>
        <time>2016-11-15T11:30:21Z</time>
      </trkpt>
      <trkpt lat="45.8902" lon="4.92045">
        <ele>287</ele>
        <time>2016-11-15T11:30:22Z</time>
      </trkpt>
      <trkpt lat="45.89015" lon="4.92039">
        <ele>287</ele>
        <time>2016-11-15T11:30:23Z</time>
      </trkpt>
      <trkpt lat="45.8901" lon="4.92034">
        <ele>287</ele>
        <time>2016-11-15T11:30:24Z</time>
      </trkpt>
      <trkpt lat="45.89006" lon="4.92028">
        <ele>287</ele>
        <time>2016-11-15T11:30:25Z</time>
      </trkpt>
      <trkpt lat="45.89001" lon="4.92022">
        <ele>287</ele>
        <time>2016-11-15T11:30:26Z</time>
      </trkpt>
      <trkpt lat="45.88997" lon="4.92016">
        <ele>287</ele>
        <time>2016-11-15T11:30:27Z</time>
      </trkpt>
      <trkpt lat="45.88992" lon="4.9201">
        <ele>287</ele>
        <time>2016-11-15T11:30:28Z</time>
      </trkpt>
      <trkpt lat="45.88988" lon="4.92004">
        <ele>287</ele>
        <time>2016-11-15T11:30:29Z</time>
      </trkpt>
      <trkpt lat="45.88983" lon="4.91998">
        <ele>287</ele>
        <time>2016-11-15T11:30:30Z</time>
      </trkpt>
      <trkpt lat="45.88979" lon="4.91992">
        <ele>287</ele>
        <time>2016-11-15T11:30:31Z</time>
      </trkpt>
      <trkpt lat="45.88974" lon="4.91985">
        <ele>287</ele>
        <time>2016-11-15T11:30:32Z</time>
      </trkpt>
      <trkpt lat="45.8897" lon="4.91979">
        <ele>287</ele>
        <time>2016-11-15T11:30:33Z</time>
      </trkpt>
      <trkpt lat="45.88966" lon="4.91972">
        <ele>287</ele>
        <time>2016-11-15T11:30:34Z</time>
      </trkpt>
      <trkpt lat="45.88961" lon="4.91965">
        <ele>287</ele>
        <time>2016-11-15T11:30:35Z</time>
      </trkpt>
      <trkpt lat="45.88957" lon="4.91958">
        <ele>287</ele>
        <time>2016-11-15T11:30:36Z</time>
      </trkpt>
      <trkpt lat="45.88952" lon="4.91952">
        <ele>287</ele>
        <time>2016-11-15T11:30:37Z</time>
      </trkpt>
      <trkpt lat="45.88947" lon="4.91946">
        <ele>287</ele>
        <time>2016-11-15T11:30:38Z</time>
      </trkpt>
      <trkpt lat="45.88942" lon="4.9194">
        <ele>287</ele>
        <time>2016-11-15T11:30:39Z</time>
      </trkpt>
      <trkpt lat="45.88938" lon="4.91933">
        <ele>287</ele>
        <time>2016-11-15T11:30:40Z</time>
      </trkpt>
      <trkpt lat="45.88934" lon="4.91926">
        <ele>288</ele>
        <time>2016-11-15T11:30:41Z</time>
      </trkpt>
      <trkpt lat="45.8893" lon="4.91919">
        <ele>288</ele>
        <time>2016-11-15T11:30:42Z</time>
      </trkpt>
      <trkpt lat="45.88926" lon="4.91912">
        <ele>288</ele>
        <time>2016-11-15T11:30:43Z</time>
      </trkpt>
      <trkpt lat="45.88922" lon="4.91904">
        <ele>288</ele>
        <time>2016-11-15T11:30:44Z</time>
      </trkpt>
      <trkpt lat="45.88918" lon="4.91897">
        <ele>288</ele>
        <time>2016-11-15T11:30:45Z</time>
      </trkpt>
      <trkpt lat="45.88914" lon="4.91889">
        <ele>288</ele>
        <time>2016-11-15T11:30:46Z</time>
      </trkpt>
      <trkpt lat="45.8891" lon="4.91881">
        <ele>288</ele>
        <time>2016-11-15T11:30:47Z</time>
      </trkpt>
      <trkpt lat="45.88907" lon="4.91872">
        <ele>288</ele>
        <time>2016-11-15T11:30:48Z</time>
      </trkpt>
      <trkpt lat="45.88904" lon="4.91864">
        <ele>288</ele>
        <time>2016-11-15T11:30:49Z</time>
      </trkpt>
      <trkpt lat="45.88901" lon="4.91854">
        <ele>288</ele>
        <time>2016-11-15T11:30:50Z</time>
      </trkpt>
      <trkpt lat="45.88899" lon="4.91845">
        <ele>288</ele>
        <time>2016-11-15T11:30:51Z</time>
      </trkpt>
      <trkpt lat="45.88897" lon="4.91835">
        <ele>288</ele>
        <time>2016-11-15T11:30:52Z</time>
      </trkpt>
      <trkpt lat="45.88895" lon="4.91826">
        <ele>288</ele>
        <time>2016-11-15T11:30:53Z</time>
      </trkpt>
      <trkpt lat="45.88893" lon="4.91817">
        <ele>288</ele>
        <time>2016-11-15T11:30:54Z</time>
      </trkpt>
      <trkpt lat="45.88891" lon="4.91808">
        <ele>288</ele>
        <time>2016-11-15T11:30:55Z</time>
      </trkpt>
      <trkpt lat="45.8889" lon="4.91799">
        <ele>288</ele>
        <time>2016-11-15T11:30:56Z</time>
      </trkpt>
      <trkpt lat="45.88888" lon="4.91791">
        <ele>288</ele>
        <time>2016-11-15T11:30:57Z</time>
      </trkpt>
      <trkpt lat="45.88886" lon="4.91783">
        <ele>288</ele>
        <time>2016-11-15T11:30:58Z</time>
      </trkpt>
      <trkpt lat="45.88885" lon="4.91775">
        <ele>288</ele>
        <time>2016-11-15T11:30:59Z</time>
      </trkpt>
      <trkpt lat="45.88884" lon="4.91767">
        <ele>288</ele>
        <time>2016-11-15T11:31:00Z</time>
      </trkpt>
      <trkpt lat="45.88882" lon="4.91758">
        <ele>288</ele>
        <time>2016-11-15T11:31:01Z</time>
      </trkpt>
      <trkpt lat="45.8888" lon="4.91749">
        <ele>288</ele>
        <time>2016-11-15T11:31:02Z</time>
      </trkpt>
      <trkpt lat="45.88879" lon="4.91741">
        <ele>288</ele>
        <time>2016-11-15T11:31:03Z</time>
      </trkpt>
      <trkpt lat="45.88877" lon="4.91732">
        <ele>288</ele>
        <time>2016-11-15T11:31:04Z</time>
      </trkpt>
      <trkpt lat="45.88875" lon="4.91724">
        <ele>288</ele>
        <time>2016-11-15T11:31:05Z</time>
      </trkpt>
      <trkpt lat="45.88874" lon="4.91716">
        <ele>288</ele>
        <time>2016-11-15T11:31:06Z</time>
      </trkpt>
      <trkpt lat="45.88873" lon="4.91709">
        <ele>288</ele>
        <time>2016-11-15T11:31:07Z</time>
      </trkpt>
      <trkpt lat="45.88871" lon="4.91701">
        <ele>289</ele>
        <time>2016-11-15T11:31:08Z</time>
      </trkpt>
      <trkpt lat="45.88869" lon="4.91694">
        <ele>289</ele>
        <time>2016-11-15T11:31:09Z</time>
      </trkpt>
      <trkpt lat="45.88868" lon="4.91687">
        <ele>289</ele>
        <time>2016-11-15T11:31:10Z</time>
      </trkpt>
      <trkpt lat="45.88866" lon="4.9168">
        <ele>289</ele>
        <time>2016-11-15T11:31:11Z</time>
      </trkpt>
      <trkpt lat="45.88865" lon="4.91673">
        <ele>289</ele>
        <time>2016-11-15T11:31:12Z</time>
      </trkpt>
      <trkpt lat="45.88863" lon="4.91666">
        <ele>289</ele>
        <time>2016-11-15T11:31:13Z</time>
      </trkpt>
      <trkpt lat="45.88861" lon="4.91659">
        <ele>289</ele>
        <time>2016-11-15T11:31:14Z</time>
      </trkpt>
      <trkpt lat="45.88858" lon="4.91652">
        <ele>289</ele>
        <time>2016-11-15T11:31:15Z</time>
      </trkpt>
      <trkpt lat="45.88856" lon="4.91645">
        <ele>289</ele>
        <time>2016-11-15T11:31:16Z</time>
      </trkpt>
      <trkpt lat="45.88854" lon="4.91638">
        <ele>289</ele>
        <time>2016-11-15T11:31:17Z</time>
      </trkpt>
      <trkpt lat="45.88852" lon="4.91631">
        <ele>289</ele>
        <time>2016-11-15T11:31:18Z</time>
      </trkpt>
      <trkpt lat="45.8885" lon="4.91624">
        <ele>289</ele>
        <time>2016-11-15T11:31:19Z</time>
      </trkpt>
      <trkpt lat="45.88848" lon="4.91617">
        <ele>289</ele>
        <time>2016-11-15T11:31:20Z</time>
      </trkpt>
      <trkpt lat="45.88847" lon="4.9161">
        <ele>289</ele>
        <time>2016-11-15T11:31:21Z</time>
      </trkpt>
      <trkpt lat="45.88845" lon="4.91602">
        <ele>289</ele>
        <time>2016-11-15T11:31:22Z</time>
      </trkpt>
      <trkpt lat="45.88843" lon="4.91595">
        <ele>289</ele>
        <time>2016-11-15T11:31:23Z</time>
      </trkpt>
      <trkpt lat="45.88841" lon="4.91588">
        <ele>289</ele>
        <time>2016-11-15T11:31:24Z</time>
      </trkpt>
      <trkpt lat="45.88839" lon="4.91581">
        <ele>289</ele>
        <time>2016-11-15T11:31:25Z</time>
      </trkpt>
      <trkpt lat="45.88837" lon="4.91574">
        <ele>289</ele>
        <time>2016-11-15T11:31:26Z</time>
      </trkpt>
      <trkpt lat="45.88835" lon="4.91567">
        <ele>289</ele>
        <time>2016-11-15T11:31:27Z</time>
      </trkpt>
      <trkpt lat="45.88833" lon="4.9156">
        <ele>288</ele>
        <time>2016-11-15T11:31:28Z</time>
      </trkpt>
      <trkpt lat="45.88831" lon="4.91553">
        <ele>288</ele>
        <time>2016-11-15T11:31:29Z</time>
      </trkpt>
      <trkpt lat="45.8883" lon="4.91546">
        <ele>288</ele>
        <time>2016-11-15T11:31:30Z</time>
      </trkpt>
      <trkpt lat="45.88828" lon="4.91538">
        <ele>288</ele>
        <time>2016-11-15T11:31:31Z</time>
      </trkpt>
      <trkpt lat="45.88826" lon="4.91531">
        <ele>288</ele>
        <time>2016-11-15T11:31:32Z</time>
      </trkpt>
      <trkpt lat="45.88825" lon="4.91523">
        <ele>288</ele>
        <time>2016-11-15T11:31:33Z</time>
      </trkpt>
      <trkpt lat="45.88823" lon="4.91514">
        <ele>288</ele>
        <time>2016-11-15T11:31:34Z</time>
      </trkpt>
      <trkpt lat="45.88821" lon="4.91506">
        <ele>288</ele>
        <time>2016-11-15T11:31:35Z</time>
      </trkpt>
      <trkpt lat="45.8882" lon="4.91497">
        <ele>288</ele>
        <time>2016-11-15T11:31:36Z</time>
      </trkpt>
      <trkpt lat="45.88818" lon="4.91489">
        <ele>288</ele>
        <time>2016-11-15T11:31:37Z</time>
      </trkpt>
      <trkpt lat="45.88816" lon="4.91481">
        <ele>288</ele>
        <time>2016-11-15T11:31:38Z</time>
      </trkpt>
      <trkpt lat="45.88814" lon="4.91473">
        <ele>288</ele>
        <time>2016-11-15T11:31:39Z</time>
      </trkpt>
      <trkpt lat="45.88813" lon="4.91465">
        <ele>288</ele>
        <time>2016-11-15T11:31:40Z</time>
      </trkpt>
      <trkpt lat="45.88812" lon="4.91457">
        <ele>288</ele>
        <time>2016-11-15T11:31:41Z</time>
      </trkpt>
      <trkpt lat="45.88811" lon="4.91448">
        <ele>288</ele>
        <time>2016-11-15T11:31:42Z</time>
      </trkpt>
      <trkpt lat="45.88809" lon="4.9144">
        <ele>288</ele>
        <time>2016-11-15T11:31:43Z</time>
      </trkpt>
      <trkpt lat="45.88808" lon="4.91432">
        <ele>288</ele>
        <time>2016-11-15T11:31:44Z</time>
      </trkpt>
      <trkpt lat="45.88806" lon="4.91423">
        <ele>288</ele>
        <time>2016-11-15T11:31:45Z</time>
      </trkpt>
      <trkpt lat="45.88805" lon="4.91415">
        <ele>289</ele>
        <time>2016-11-15T11:31:46Z</time>
      </trkpt>
      <trkpt lat="45.88803" lon="4.91407">
        <ele>289</ele>
        <time>2016-11-15T11:31:47Z</time>
      </trkpt>
      <trkpt lat="45.88802" lon="4.91398">
        <ele>288</ele>
        <time>2016-11-15T11:31:48Z</time>
      </trkpt>
      <trkpt lat="45.888" lon="4.9139">
        <ele>288</ele>
        <time>2016-11-15T11:31:49Z</time>
      </trkpt>
      <trkpt lat="45.88798" lon="4.91382">
        <ele>288</ele>
        <time>2016-11-15T11:31:50Z</time>
      </trkpt>
      <trkpt lat="45.88797" lon="4.91373">
        <ele>288</ele>
        <time>2016-11-15T11:31:51Z</time>
      </trkpt>
      <trkpt lat="45.88795" lon="4.91365">
        <ele>288</ele>
        <time>2016-11-15T11:31:52Z</time>
      </trkpt>
      <trkpt lat="45.88794" lon="4.91356">
        <ele>288</ele>
        <time>2016-11-15T11:31:53Z</time>
      </trkpt>
      <trkpt lat="45.88794" lon="4.91347">
        <ele>288</ele>
        <time>2016-11-15T11:31:54Z</time>
      </trkpt>
      <trkpt lat="45.88793" lon="4.91338">
        <ele>288</ele>
        <time>2016-11-15T11:31:55Z</time>
      </trkpt>
      <trkpt lat="45.88792" lon="4.91329">
        <ele>289</ele>
        <time>2016-11-15T11:31:56Z</time>
      </trkpt>
      <trkpt lat="45.88792" lon="4.91321">
        <ele>289</ele>
        <time>2016-11-15T11:31:57Z</time>
      </trkpt>
      <trkpt lat="45.88792" lon="4.91313">
        <ele>288</ele>
        <time>2016-11-15T11:31:58Z</time>
      </trkpt>
      <trkpt lat="45.88791" lon="4.91305">
        <ele>288</ele>
        <time>2016-11-15T11:31:59Z</time>
      </trkpt>
      <trkpt lat="45.88791" lon="4.91297">
        <ele>288</ele>
        <time>2016-11-15T11:32:00Z</time>
      </trkpt>
      <trkpt lat="45.88791" lon="4.9129">
        <ele>288</ele>
        <time>2016-11-15T11:32:01Z</time>
      </trkpt>
      <trkpt lat="45.88791" lon="4.91282">
        <ele>288</ele>
        <time>2016-11-15T11:32:02Z</time>
      </trkpt>
      <trkpt lat="45.88791" lon="4.91275">
        <ele>288</ele>
        <time>2016-11-15T11:32:03Z</time>
      </trkpt>
      <trkpt lat="45.88791" lon="4.91268">
        <ele>288</ele>
        <time>2016-11-15T11:32:04Z</time>
      </trkpt>
      <trkpt lat="45.8879" lon="4.91261">
        <ele>288</ele>
        <time>2016-11-15T11:32:05Z</time>
      </trkpt>
      <trkpt lat="45.8879" lon="4.91253">
        <ele>288</ele>
        <time>2016-11-15T11:32:06Z</time>
      </trkpt>
      <trkpt lat="45.8879" lon="4.91246">
        <ele>288</ele>
        <time>2016-11-15T11:32:07Z</time>
      </trkpt>
      <trkpt lat="45.8879" lon="4.91238">
        <ele>288</ele>
        <time>2016-11-15T11:32:08Z</time>
      </trkpt>
      <trkpt lat="45.88791" lon="4.91229">
        <ele>288</ele>
        <time>2016-11-15T11:32:09Z</time>
      </trkpt>
      <trkpt lat="45.8879" lon="4.91221">
        <ele>288</ele>
        <time>2016-11-15T11:32:10Z</time>
      </trkpt>
      <trkpt lat="45.8879" lon="4.91213">
        <ele>288</ele>
        <time>2016-11-15T11:32:11Z</time>
      </trkpt>
      <trkpt lat="45.8879" lon="4.91205">
        <ele>288</ele>
        <time>2016-11-15T11:32:12Z</time>
      </trkpt>
      <trkpt lat="45.8879" lon="4.91197">
        <ele>288</ele>
        <time>2016-11-15T11:32:13Z</time>
      </trkpt>
      <trkpt lat="45.8879" lon="4.91189">
        <ele>288</ele>
        <time>2016-11-15T11:32:14Z</time>
      </trkpt>
      <trkpt lat="45.8879" lon="4.91182">
        <ele>288</ele>
        <time>2016-11-15T11:32:15Z</time>
      </trkpt>
      <trkpt lat="45.8879" lon="4.91174">
        <ele>288</ele>
        <time>2016-11-15T11:32:16Z</time>
      </trkpt>
      <trkpt lat="45.8879" lon="4.91166">
        <ele>288</ele>
        <time>2016-11-15T11:32:17Z</time>
      </trkpt>
      <trkpt lat="45.8879" lon="4.91158">
        <ele>288</ele>
        <time>2016-11-15T11:32:18Z</time>
      </trkpt>
      <trkpt lat="45.8879" lon="4.91149">
        <ele>288</ele>
        <time>2016-11-15T11:32:19Z</time>
      </trkpt>
      <trkpt lat="45.88792" lon="4.9114">
        <ele>288</ele>
        <time>2016-11-15T11:32:20Z</time>
      </trkpt>
      <trkpt lat="45.88793" lon="4.91132">
        <ele>288</ele>
        <time>2016-11-15T11:32:21Z</time>
      </trkpt>
      <trkpt lat="45.88796" lon="4.91123">
        <ele>288</ele>
        <time>2016-11-15T11:32:22Z</time>
      </trkpt>
      <trkpt lat="45.888" lon="4.91114">
        <ele>288</ele>
        <time>2016-11-15T11:32:23Z</time>
      </trkpt>
      <trkpt lat="45.88802" lon="4.91106">
        <ele>288</ele>
        <time>2016-11-15T11:32:24Z</time>
      </trkpt>
      <trkpt lat="45.88804" lon="4.91098">
        <ele>288</ele>
        <time>2016-11-15T11:32:25Z</time>
      </trkpt>
      <trkpt lat="45.88805" lon="4.9109">
        <ele>288</ele>
        <time>2016-11-15T11:32:26Z</time>
      </trkpt>
      <trkpt lat="45.88803" lon="4.91082">
        <ele>288</ele>
        <time>2016-11-15T11:32:27Z</time>
      </trkpt>
      <trkpt lat="45.888" lon="4.91076">
        <ele>288</ele>
        <time>2016-11-15T11:32:28Z</time>
      </trkpt>
      <trkpt lat="45.88797" lon="4.9107">
        <ele>288</ele>
        <time>2016-11-15T11:32:29Z</time>
      </trkpt>
      <trkpt lat="45.88794" lon="4.91065">
        <ele>288</ele>
        <time>2016-11-15T11:32:30Z</time>
      </trkpt>
      <trkpt lat="45.88791" lon="4.9106">
        <ele>288</ele>
        <time>2016-11-15T11:32:31Z</time>
      </trkpt>
      <trkpt lat="45.88785" lon="4.91051">
        <ele>288</ele>
        <time>2016-11-15T11:32:33Z</time>
      </trkpt>
      <trkpt lat="45.88783" lon="4.91046">
        <ele>288</ele>
        <time>2016-11-15T11:32:34Z</time>
      </trkpt>
      <trkpt lat="45.88779" lon="4.91036">
        <ele>288</ele>
        <time>2016-11-15T11:32:36Z</time>
      </trkpt>
      <trkpt lat="45.88778" lon="4.91031">
        <ele>288</ele>
        <time>2016-11-15T11:32:37Z</time>
      </trkpt>
      <trkpt lat="45.88774" lon="4.91021">
        <ele>288</ele>
        <time>2016-11-15T11:32:39Z</time>
      </trkpt>
      <trkpt lat="45.88773" lon="4.91015">
        <ele>288</ele>
        <time>2016-11-15T11:32:40Z</time>
      </trkpt>
      <trkpt lat="45.8877" lon="4.91003">
        <ele>287</ele>
        <time>2016-11-15T11:32:42Z</time>
      </trkpt>
      <trkpt lat="45.88768" lon="4.90997">
        <ele>287</ele>
        <time>2016-11-15T11:32:43Z</time>
      </trkpt>
      <trkpt lat="45.88767" lon="4.90991">
        <ele>287</ele>
        <time>2016-11-15T11:32:44Z</time>
      </trkpt>
      <trkpt lat="45.88766" lon="4.90984">
        <ele>287</ele>
        <time>2016-11-15T11:32:45Z</time>
      </trkpt>
      <trkpt lat="45.88765" lon="4.90978">
        <ele>288</ele>
        <time>2016-11-15T11:32:46Z</time>
      </trkpt>
      <trkpt lat="45.88764" lon="4.90971">
        <ele>288</ele>
        <time>2016-11-15T11:32:47Z</time>
      </trkpt>
      <trkpt lat="45.88762" lon="4.90959">
        <ele>288</ele>
        <time>2016-11-15T11:32:49Z</time>
      </trkpt>
      <trkpt lat="45.88761" lon="4.90953">
        <ele>288</ele>
        <time>2016-11-15T11:32:50Z</time>
      </trkpt>
      <trkpt lat="45.88759" lon="4.90942">
        <ele>288</ele>
        <time>2016-11-15T11:32:52Z</time>
      </trkpt>
      <trkpt lat="45.88758" lon="4.90937">
        <ele>288</ele>
        <time>2016-11-15T11:32:53Z</time>
      </trkpt>
      <trkpt lat="45.88754" lon="4.90927">
        <ele>288</ele>
        <time>2016-11-15T11:32:55Z</time>
      </trkpt>
      <trkpt lat="45.88753" lon="4.90921">
        <ele>288</ele>
        <time>2016-11-15T11:32:56Z</time>
      </trkpt>
      <trkpt lat="45.88751" lon="4.90909">
        <ele>288</ele>
        <time>2016-11-15T11:32:58Z</time>
      </trkpt>
      <trkpt lat="45.8875" lon="4.90903">
        <ele>288</ele>
        <time>2016-11-15T11:32:59Z</time>
      </trkpt>
      <trkpt lat="45.88748" lon="4.90896">
        <ele>288</ele>
        <time>2016-11-15T11:33:00Z</time>
      </trkpt>
      <trkpt lat="45.88747" lon="4.9089">
        <ele>288</ele>
        <time>2016-11-15T11:33:01Z</time>
      </trkpt>
      <trkpt lat="45.88746" lon="4.90884">
        <ele>288</ele>
        <time>2016-11-15T11:33:02Z</time>
      </trkpt>
      <trkpt lat="45.88745" lon="4.90877">
        <ele>288</ele>
        <time>2016-11-15T11:33:03Z</time>
      </trkpt>
      <trkpt lat="45.88743" lon="4.90865">
        <ele>288</ele>
        <time>2016-11-15T11:33:05Z</time>
      </trkpt>
      <trkpt lat="45.88742" lon="4.90859">
        <ele>288</ele>
        <time>2016-11-15T11:33:06Z</time>
      </trkpt>
      <trkpt lat="45.8874" lon="4.90853">
        <ele>288</ele>
        <time>2016-11-15T11:33:07Z</time>
      </trkpt>
      <trkpt lat="45.88738" lon="4.90847">
        <ele>288</ele>
        <time>2016-11-15T11:33:08Z</time>
      </trkpt>
      <trkpt lat="45.88737" lon="4.90841">
        <ele>288</ele>
        <time>2016-11-15T11:33:09Z</time>
      </trkpt>
      <trkpt lat="45.88735" lon="4.90835">
        <ele>288</ele>
        <time>2016-11-15T11:33:10Z</time>
      </trkpt>
      <trkpt lat="45.88734" lon="4.90828">
        <ele>289</ele>
        <time>2016-11-15T11:33:11Z</time>
      </trkpt>
      <trkpt lat="45.88732" lon="4.90822">
        <ele>289</ele>
        <time>2016-11-15T11:33:12Z</time>
      </trkpt>
      <trkpt lat="45.88731" lon="4.90815">
        <ele>289</ele>
        <time>2016-11-15T11:33:13Z</time>
      </trkpt>
      <trkpt lat="45.8873" lon="4.90808">
        <ele>289</ele>
        <time>2016-11-15T11:33:14Z</time>
      </trkpt>
      <trkpt lat="45.88729" lon="4.90801">
        <ele>289</ele>
        <time>2016-11-15T11:33:15Z</time>
      </trkpt>
      <trkpt lat="45.88727" lon="4.90794">
        <ele>289</ele>
        <time>2016-11-15T11:33:16Z</time>
      </trkpt>
      <trkpt lat="45.88726" lon="4.90786">
        <ele>289</ele>
        <time>2016-11-15T11:33:17Z</time>
      </trkpt>
      <trkpt lat="45.88724" lon="4.90779">
        <ele>289</ele>
        <time>2016-11-15T11:33:18Z</time>
      </trkpt>
      <trkpt lat="45.88723" lon="4.90771">
        <ele>289</ele>
        <time>2016-11-15T11:33:19Z</time>
      </trkpt>
      <trkpt lat="45.88721" lon="4.90764">
        <ele>289</ele>
        <time>2016-11-15T11:33:20Z</time>
      </trkpt>
      <trkpt lat="45.88719" lon="4.90757">
        <ele>289</ele>
        <time>2016-11-15T11:33:21Z</time>
      </trkpt>
      <trkpt lat="45.88717" lon="4.90749">
        <ele>290</ele>
        <time>2016-11-15T11:33:22Z</time>
      </trkpt>
      <trkpt lat="45.88716" lon="4.90742">
        <ele>290</ele>
        <time>2016-11-15T11:33:23Z</time>
      </trkpt>
      <trkpt lat="45.88714" lon="4.90735">
        <ele>290</ele>
        <time>2016-11-15T11:33:24Z</time>
      </trkpt>
      <trkpt lat="45.88713" lon="4.90729">
        <ele>290</ele>
        <time>2016-11-15T11:33:25Z</time>
      </trkpt>
      <trkpt lat="45.88712" lon="4.90722">
        <ele>290</ele>
        <time>2016-11-15T11:33:26Z</time>
      </trkpt>
      <trkpt lat="45.88711" lon="4.90715">
        <ele>290</ele>
        <time>2016-11-15T11:33:27Z</time>
      </trkpt>
      <trkpt lat="45.8871" lon="4.90708">
        <ele>290</ele>
        <time>2016-11-15T11:33:28Z</time>
      </trkpt>
      <trkpt lat="45.88709" lon="4.90702">
        <ele>290</ele>
        <time>2016-11-15T11:33:29Z</time>
      </trkpt>
      <trkpt lat="45.88707" lon="4.90696">
        <ele>290</ele>
        <time>2016-11-15T11:33:30Z</time>
      </trkpt>
      <trkpt lat="45.88705" lon="4.90684">
        <ele>290</ele>
        <time>2016-11-15T11:33:32Z</time>
      </trkpt>
      <trkpt lat="45.88704" lon="4.90677">
        <ele>290</ele>
        <time>2016-11-15T11:33:33Z</time>
      </trkpt>
      <trkpt lat="45.88703" lon="4.90671">
        <ele>290</ele>
        <time>2016-11-15T11:33:34Z</time>
      </trkpt>
      <trkpt lat="45.88702" lon="4.90664">
        <ele>291</ele>
        <time>2016-11-15T11:33:35Z</time>
      </trkpt>
      <trkpt lat="45.88701" lon="4.90657">
        <ele>291</ele>
        <time>2016-11-15T11:33:36Z</time>
      </trkpt>
      <trkpt lat="45.887" lon="4.90651">
        <ele>291</ele>
        <time>2016-11-15T11:33:37Z</time>
      </trkpt>
      <trkpt lat="45.88699" lon="4.90644">
        <ele>291</ele>
        <time>2016-11-15T11:33:38Z</time>
      </trkpt>
      <trkpt lat="45.88698" lon="4.90637">
        <ele>291</ele>
        <time>2016-11-15T11:33:39Z</time>
      </trkpt>
      <trkpt lat="45.88697" lon="4.9063">
        <ele>291</ele>
        <time>2016-11-15T11:33:40Z</time>
      </trkpt>
      <trkpt lat="45.88696" lon="4.90623">
        <ele>291</ele>
        <time>2016-11-15T11:33:41Z</time>
      </trkpt>
      <trkpt lat="45.88695" lon="4.90617">
        <ele>292</ele>
        <time>2016-11-15T11:33:42Z</time>
      </trkpt>
      <trkpt lat="45.88693" lon="4.9061">
        <ele>292</ele>
        <time>2016-11-15T11:33:43Z</time>
      </trkpt>
      <trkpt lat="45.88691" lon="4.90604">
        <ele>292</ele>
        <time>2016-11-15T11:33:44Z</time>
      </trkpt>
      <trkpt lat="45.8869" lon="4.90598">
        <ele>292</ele>
        <time>2016-11-15T11:33:45Z</time>
      </trkpt>
      <trkpt lat="45.88688" lon="4.90586">
        <ele>292</ele>
        <time>2016-11-15T11:33:47Z</time>
      </trkpt>
      <trkpt lat="45.88687" lon="4.90579">
        <ele>293</ele>
        <time>2016-11-15T11:33:48Z</time>
      </trkpt>
      <trkpt lat="45.88685" lon="4.90572">
        <ele>293</ele>
        <time>2016-11-15T11:33:49Z</time>
      </trkpt>
      <trkpt lat="45.88683" lon="4.90565">
        <ele>293</ele>
        <time>2016-11-15T11:33:50Z</time>
      </trkpt>
      <trkpt lat="45.88682" lon="4.90558">
        <ele>293</ele>
        <time>2016-11-15T11:33:51Z</time>
      </trkpt>
      <trkpt lat="45.88681" lon="4.9055">
        <ele>293</ele>
        <time>2016-11-15T11:33:52Z</time>
      </trkpt>
      <trkpt lat="45.88679" lon="4.90543">
        <ele>293</ele>
        <time>2016-11-15T11:33:53Z</time>
      </trkpt>
      <trkpt lat="45.88678" lon="4.90536">
        <ele>293</ele>
        <time>2016-11-15T11:33:54Z</time>
      </trkpt>
      <trkpt lat="45.88676" lon="4.90528">
        <ele>293</ele>
        <time>2016-11-15T11:33:55Z</time>
      </trkpt>
      <trkpt lat="45.88675" lon="4.9052">
        <ele>293</ele>
        <time>2016-11-15T11:33:56Z</time>
      </trkpt>
      <trkpt lat="45.88674" lon="4.90513">
        <ele>293</ele>
        <time>2016-11-15T11:33:57Z</time>
      </trkpt>
      <trkpt lat="45.88673" lon="4.90507">
        <ele>293</ele>
        <time>2016-11-15T11:33:58Z</time>
      </trkpt>
      <trkpt lat="45.88672" lon="4.90501">
        <ele>293</ele>
        <time>2016-11-15T11:33:59Z</time>
      </trkpt>
      <trkpt lat="45.88671" lon="4.90494">
        <ele>293</ele>
        <time>2016-11-15T11:34:00Z</time>
      </trkpt>
      <trkpt lat="45.8867" lon="4.90488">
        <ele>293</ele>
        <time>2016-11-15T11:34:01Z</time>
      </trkpt>
      <trkpt lat="45.88669" lon="4.90481">
        <ele>293</ele>
        <time>2016-11-15T11:34:02Z</time>
      </trkpt>
      <trkpt lat="45.88667" lon="4.90469">
        <ele>293</ele>
        <time>2016-11-15T11:34:04Z</time>
      </trkpt>
      <trkpt lat="45.88666" lon="4.90463">
        <ele>293</ele>
        <time>2016-11-15T11:34:05Z</time>
      </trkpt>
      <trkpt lat="45.88664" lon="4.9045">
        <ele>293</ele>
        <time>2016-11-15T11:34:07Z</time>
      </trkpt>
      <trkpt lat="45.88664" lon="4.90444">
        <ele>293</ele>
        <time>2016-11-15T11:34:08Z</time>
      </trkpt>
      <trkpt lat="45.88664" lon="4.90432">
        <ele>293</ele>
        <time>2016-11-15T11:34:10Z</time>
      </trkpt>
      <trkpt lat="45.88664" lon="4.90425">
        <ele>293</ele>
        <time>2016-11-15T11:34:11Z</time>
      </trkpt>
      <trkpt lat="45.88663" lon="4.90419">
        <ele>293</ele>
        <time>2016-11-15T11:34:12Z</time>
      </trkpt>
      <trkpt lat="45.88662" lon="4.90412">
        <ele>293</ele>
        <time>2016-11-15T11:34:13Z</time>
      </trkpt>
      <trkpt lat="45.88662" lon="4.90405">
        <ele>293</ele>
        <time>2016-11-15T11:34:14Z</time>
      </trkpt>
      <trkpt lat="45.88662" lon="4.90398">
        <ele>293</ele>
        <time>2016-11-15T11:34:15Z</time>
      </trkpt>
      <trkpt lat="45.88662" lon="4.9039">
        <ele>293</ele>
        <time>2016-11-15T11:34:16Z</time>
      </trkpt>
      <trkpt lat="45.88662" lon="4.90382">
        <ele>293</ele>
        <time>2016-11-15T11:34:17Z</time>
      </trkpt>
      <trkpt lat="45.88662" lon="4.90375">
        <ele>293</ele>
        <time>2016-11-15T11:34:18Z</time>
      </trkpt>
      <trkpt lat="45.88662" lon="4.90367">
        <ele>293</ele>
        <time>2016-11-15T11:34:19Z</time>
      </trkpt>
      <trkpt lat="45.88662" lon="4.9036">
        <ele>293</ele>
        <time>2016-11-15T11:34:20Z</time>
      </trkpt>
      <trkpt lat="45.88662" lon="4.90353">
        <ele>293</ele>
        <time>2016-11-15T11:34:21Z</time>
      </trkpt>
      <trkpt lat="45.88662" lon="4.90347">
        <ele>293</ele>
        <time>2016-11-15T11:34:22Z</time>
      </trkpt>
      <trkpt lat="45.88662" lon="4.9034">
        <ele>293</ele>
        <time>2016-11-15T11:34:23Z</time>
      </trkpt>
      <trkpt lat="45.88661" lon="4.90334">
        <ele>293</ele>
        <time>2016-11-15T11:34:24Z</time>
      </trkpt>
      <trkpt lat="45.88661" lon="4.90327">
        <ele>293</ele>
        <time>2016-11-15T11:34:25Z</time>
      </trkpt>
      <trkpt lat="45.88661" lon="4.9032">
        <ele>293</ele>
        <time>2016-11-15T11:34:26Z</time>
      </trkpt>
      <trkpt lat="45.88661" lon="4.90313">
        <ele>293</ele>
        <time>2016-11-15T11:34:27Z</time>
      </trkpt>
      <trkpt lat="45.88661" lon="4.90306">
        <ele>293</ele>
        <time>2016-11-15T11:34:28Z</time>
      </trkpt>
      <trkpt lat="45.88661" lon="4.90299">
        <ele>293</ele>
        <time>2016-11-15T11:34:29Z</time>
      </trkpt>
      <trkpt lat="45.88661" lon="4.90291">
        <ele>293</ele>
        <time>2016-11-15T11:34:30Z</time>
      </trkpt>
      <trkpt lat="45.88661" lon="4.90284">
        <ele>293</ele>
        <time>2016-11-15T11:34:31Z</time>
      </trkpt>
      <trkpt lat="45.88661" lon="4.90277">
        <ele>293</ele>
        <time>2016-11-15T11:34:32Z</time>
      </trkpt>
      <trkpt lat="45.88661" lon="4.9027">
        <ele>293</ele>
        <time>2016-11-15T11:34:33Z</time>
      </trkpt>
      <trkpt lat="45.8866" lon="4.90263">
        <ele>293</ele>
        <time>2016-11-15T11:34:34Z</time>
      </trkpt>
      <trkpt lat="45.8866" lon="4.90256">
        <ele>293</ele>
        <time>2016-11-15T11:34:35Z</time>
      </trkpt>
      <trkpt lat="45.8866" lon="4.90243">
        <ele>293</ele>
        <time>2016-11-15T11:34:37Z</time>
      </trkpt>
      <trkpt lat="45.8866" lon="4.90237">
        <ele>293</ele>
        <time>2016-11-15T11:34:38Z</time>
      </trkpt>
      <trkpt lat="45.88661" lon="4.90224">
        <ele>294</ele>
        <time>2016-11-15T11:34:40Z</time>
      </trkpt>
      <trkpt lat="45.88661" lon="4.90217">
        <ele>294</ele>
        <time>2016-11-15T11:34:41Z</time>
      </trkpt>
      <trkpt lat="45.88661" lon="4.90205">
        <ele>294</ele>
        <time>2016-11-15T11:34:43Z</time>
      </trkpt>
      <trkpt lat="45.88661" lon="4.90198">
        <ele>294</ele>
        <time>2016-11-15T11:34:44Z</time>
      </trkpt>
      <trkpt lat="45.88662" lon="4.90191">
        <ele>294</ele>
        <time>2016-11-15T11:34:45Z</time>
      </trkpt>
      <trkpt lat="45.88662" lon="4.90185">
        <ele>294</ele>
        <time>2016-11-15T11:34:46Z</time>
      </trkpt>
      <trkpt lat="45.88662" lon="4.90178">
        <ele>294</ele>
        <time>2016-11-15T11:34:47Z</time>
      </trkpt>
      <trkpt lat="45.88662" lon="4.90171">
        <ele>294</ele>
        <time>2016-11-15T11:34:48Z</time>
      </trkpt>
      <trkpt lat="45.88662" lon="4.90164">
        <ele>294</ele>
        <time>2016-11-15T11:34:49Z</time>
      </trkpt>
      <trkpt lat="45.88661" lon="4.90158">
        <ele>294</ele>
        <time>2016-11-15T11:34:50Z</time>
      </trkpt>
      <trkpt lat="45.88661" lon="4.90151">
        <ele>294</ele>
        <time>2016-11-15T11:34:51Z</time>
      </trkpt>
      <trkpt lat="45.8866" lon="4.90144">
        <ele>294</ele>
        <time>2016-11-15T11:34:52Z</time>
      </trkpt>
      <trkpt lat="45.88659" lon="4.90137">
        <ele>294</ele>
        <time>2016-11-15T11:34:53Z</time>
      </trkpt>
      <trkpt lat="45.88658" lon="4.9013">
        <ele>294</ele>
        <time>2016-11-15T11:34:54Z</time>
      </trkpt>
      <trkpt lat="45.88658" lon="4.90123">
        <ele>295</ele>
        <time>2016-11-15T11:34:55Z</time>
      </trkpt>
      <trkpt lat="45.88657" lon="4.90116">
        <ele>294</ele>
        <time>2016-11-15T11:34:56Z</time>
      </trkpt>
      <trkpt lat="45.88656" lon="4.90109">
        <ele>294</ele>
        <time>2016-11-15T11:34:57Z</time>
      </trkpt>
      <trkpt lat="45.88654" lon="4.90102">
        <ele>294</ele>
        <time>2016-11-15T11:34:58Z</time>
      </trkpt>
      <trkpt lat="45.88653" lon="4.90096">
        <ele>294</ele>
        <time>2016-11-15T11:34:59Z</time>
      </trkpt>
      <trkpt lat="45.88651" lon="4.90089">
        <ele>294</ele>
        <time>2016-11-15T11:35:00Z</time>
      </trkpt>
      <trkpt lat="45.88648" lon="4.90077">
        <ele>295</ele>
        <time>2016-11-15T11:35:02Z</time>
      </trkpt>
      <trkpt lat="45.88647" lon="4.90071">
        <ele>295</ele>
        <time>2016-11-15T11:35:03Z</time>
      </trkpt>
      <trkpt lat="45.88646" lon="4.90059">
        <ele>295</ele>
        <time>2016-11-15T11:35:05Z</time>
      </trkpt>
      <trkpt lat="45.88645" lon="4.90052">
        <ele>295</ele>
        <time>2016-11-15T11:35:06Z</time>
      </trkpt>
      <trkpt lat="45.88644" lon="4.90046">
        <ele>295</ele>
        <time>2016-11-15T11:35:07Z</time>
      </trkpt>
      <trkpt lat="45.88642" lon="4.90039">
        <ele>295</ele>
        <time>2016-11-15T11:35:08Z</time>
      </trkpt>
      <trkpt lat="45.88641" lon="4.90032">
        <ele>295</ele>
        <time>2016-11-15T11:35:09Z</time>
      </trkpt>
      <trkpt lat="45.88639" lon="4.90025">
        <ele>295</ele>
        <time>2016-11-15T11:35:10Z</time>
      </trkpt>
      <trkpt lat="45.88638" lon="4.90018">
        <ele>295</ele>
        <time>2016-11-15T11:35:11Z</time>
      </trkpt>
      <trkpt lat="45.88637" lon="4.9001">
        <ele>295</ele>
        <time>2016-11-15T11:35:12Z</time>
      </trkpt>
      <trkpt lat="45.88636" lon="4.90003">
        <ele>295</ele>
        <time>2016-11-15T11:35:13Z</time>
      </trkpt>
      <trkpt lat="45.88635" lon="4.89996">
        <ele>295</ele>
        <time>2016-11-15T11:35:14Z</time>
      </trkpt>
      <trkpt lat="45.88634" lon="4.8999">
        <ele>295</ele>
        <time>2016-11-15T11:35:15Z</time>
      </trkpt>
      <trkpt lat="45.88632" lon="4.89983">
        <ele>295</ele>
        <time>2016-11-15T11:35:16Z</time>
      </trkpt>
      <trkpt lat="45.8863" lon="4.89971">
        <ele>295</ele>
        <time>2016-11-15T11:35:18Z</time>
      </trkpt>
      <trkpt lat="45.88629" lon="4.89965">
        <ele>295</ele>
        <time>2016-11-15T11:35:19Z</time>
      </trkpt>
      <trkpt lat="45.88627" lon="4.89953">
        <ele>295</ele>
        <time>2016-11-15T11:35:21Z</time>
      </trkpt>
      <trkpt lat="45.88626" lon="4.89946">
        <ele>295</ele>
        <time>2016-11-15T11:35:22Z</time>
      </trkpt>
      <trkpt lat="45.88623" lon="4.89934">
        <ele>295</ele>
        <time>2016-11-15T11:35:24Z</time>
      </trkpt>
      <trkpt lat="45.88621" lon="4.89928">
        <ele>295</ele>
        <time>2016-11-15T11:35:25Z</time>
      </trkpt>
      <trkpt lat="45.8862" lon="4.89922">
        <ele>295</ele>
        <time>2016-11-15T11:35:26Z</time>
      </trkpt>
      <trkpt lat="45.88618" lon="4.89915">
        <ele>296</ele>
        <time>2016-11-15T11:35:27Z</time>
      </trkpt>
      <trkpt lat="45.88614" lon="4.89911">
        <ele>296</ele>
        <time>2016-11-15T11:35:28Z</time>
      </trkpt>
      <trkpt lat="45.88609" lon="4.89908">
        <ele>296</ele>
        <time>2016-11-15T11:35:29Z</time>
      </trkpt>
      <trkpt lat="45.88604" lon="4.89907">
        <ele>296</ele>
        <time>2016-11-15T11:35:30Z</time>
      </trkpt>
      <trkpt lat="45.88599" lon="4.89908">
        <ele>296</ele>
        <time>2016-11-15T11:35:31Z</time>
      </trkpt>
      <trkpt lat="45.88595" lon="4.89909">
        <ele>296</ele>
        <time>2016-11-15T11:35:32Z</time>
      </trkpt>
      <trkpt lat="45.8859" lon="4.89909">
        <ele>296</ele>
        <time>2016-11-15T11:35:33Z</time>
      </trkpt>
      <trkpt lat="45.88581" lon="4.8991">
        <ele>298</ele>
        <time>2016-11-15T11:35:35Z</time>
      </trkpt>
      <trkpt lat="45.88577" lon="4.89911">
        <ele>298</ele>
        <time>2016-11-15T11:35:36Z</time>
      </trkpt>
      <trkpt lat="45.88569" lon="4.89913">
        <ele>298</ele>
        <time>2016-11-15T11:35:38Z</time>
      </trkpt>
      <trkpt lat="45.88565" lon="4.89914">
        <ele>298</ele>
        <time>2016-11-15T11:35:39Z</time>
      </trkpt>
      <trkpt lat="45.88557" lon="4.89915">
        <ele>299</ele>
        <time>2016-11-15T11:35:41Z</time>
      </trkpt>
      <trkpt lat="45.88554" lon="4.89916">
        <ele>299</ele>
        <time>2016-11-15T11:35:42Z</time>
      </trkpt>
      <trkpt lat="45.88547" lon="4.89918">
        <ele>299</ele>
        <time>2016-11-15T11:35:44Z</time>
      </trkpt>
      <trkpt lat="45.88543" lon="4.89918">
        <ele>299</ele>
        <time>2016-11-15T11:35:45Z</time>
      </trkpt>
      <trkpt lat="45.88537" lon="4.8992">
        <ele>300</ele>
        <time>2016-11-15T11:35:47Z</time>
      </trkpt>
      <trkpt lat="45.88534" lon="4.89921">
        <ele>300</ele>
        <time>2016-11-15T11:35:48Z</time>
      </trkpt>
      <trkpt lat="45.88527" lon="4.89924">
        <ele>300</ele>
        <time>2016-11-15T11:35:50Z</time>
      </trkpt>
      <trkpt lat="45.88524" lon="4.89924">
        <ele>300</ele>
        <time>2016-11-15T11:35:51Z</time>
      </trkpt>
      <trkpt lat="45.88518" lon="4.89926">
        <ele>301</ele>
        <time>2016-11-15T11:35:53Z</time>
      </trkpt>
      <trkpt lat="45.88515" lon="4.89927">
        <ele>301</ele>
        <time>2016-11-15T11:35:54Z</time>
      </trkpt>
      <trkpt lat="45.88508" lon="4.8993">
        <ele>301</ele>
        <time>2016-11-15T11:35:56Z</time>
      </trkpt>
      <trkpt lat="45.88505" lon="4.89931">
        <ele>301</ele>
        <time>2016-11-15T11:35:57Z</time>
      </trkpt>
      <trkpt lat="45.88498" lon="4.89932">
        <ele>303</ele>
        <time>2016-11-15T11:35:59Z</time>
      </trkpt>
      <trkpt lat="45.88495" lon="4.89932">
        <ele>303</ele>
        <time>2016-11-15T11:36:00Z</time>
      </trkpt>
      <trkpt lat="45.88489" lon="4.89934">
        <ele>303</ele>
        <time>2016-11-15T11:36:02Z</time>
      </trkpt>
      <trkpt lat="45.88486" lon="4.89935">
        <ele>303</ele>
        <time>2016-11-15T11:36:03Z</time>
      </trkpt>
      <trkpt lat="45.88477" lon="4.89938">
        <ele>303</ele>
        <time>2016-11-15T11:36:06Z</time>
      </trkpt>
      <trkpt lat="45.88474" lon="4.89938">
        <ele>303</ele>
        <time>2016-11-15T11:36:07Z</time>
      </trkpt>
      <trkpt lat="45.88468" lon="4.89941">
        <ele>303</ele>
        <time>2016-11-15T11:36:09Z</time>
      </trkpt>
      <trkpt lat="45.88465" lon="4.89942">
        <ele>303</ele>
        <time>2016-11-15T11:36:10Z</time>
      </trkpt>
      <trkpt lat="45.88459" lon="4.89946">
        <ele>303</ele>
        <time>2016-11-15T11:36:12Z</time>
      </trkpt>
      <trkpt lat="45.88456" lon="4.89948">
        <ele>303</ele>
        <time>2016-11-15T11:36:13Z</time>
      </trkpt>
      <trkpt lat="45.8845" lon="4.89952">
        <ele>303</ele>
        <time>2016-11-15T11:36:15Z</time>
      </trkpt>
      <trkpt lat="45.88447" lon="4.89953">
        <ele>303</ele>
        <time>2016-11-15T11:36:16Z</time>
      </trkpt>
      <trkpt lat="45.88441" lon="4.89954">
        <ele>303</ele>
        <time>2016-11-15T11:36:18Z</time>
      </trkpt>
      <trkpt lat="45.88438" lon="4.89955">
        <ele>303</ele>
        <time>2016-11-15T11:36:19Z</time>
      </trkpt>
      <trkpt lat="45.88431" lon="4.89958">
        <ele>303</ele>
        <time>2016-11-15T11:36:21Z</time>
      </trkpt>
      <trkpt lat="45.88428" lon="4.8996">
        <ele>303</ele>
        <time>2016-11-15T11:36:22Z</time>
      </trkpt>
      <trkpt lat="45.88422" lon="4.89964">
        <ele>303</ele>
        <time>2016-11-15T11:36:24Z</time>
      </trkpt>
      <trkpt lat="45.88419" lon="4.89964">
        <ele>303</ele>
        <time>2016-11-15T11:36:25Z</time>
      </trkpt>
      <trkpt lat="45.88412" lon="4.89966">
        <ele>304</ele>
        <time>2016-11-15T11:36:27Z</time>
      </trkpt>
      <trkpt lat="45.88409" lon="4.89967">
        <ele>304</ele>
        <time>2016-11-15T11:36:28Z</time>
      </trkpt>
      <trkpt lat="45.88403" lon="4.8997">
        <ele>304</ele>
        <time>2016-11-15T11:36:30Z</time>
      </trkpt>
      <trkpt lat="45.884" lon="4.89972">
        <ele>304</ele>
        <time>2016-11-15T11:36:31Z</time>
      </trkpt>
      <trkpt lat="45.88393" lon="4.89974">
        <ele>304</ele>
        <time>2016-11-15T11:36:33Z</time>
      </trkpt>
      <trkpt lat="45.8839" lon="4.89975">
        <ele>304</ele>
        <time>2016-11-15T11:36:34Z</time>
      </trkpt>
      <trkpt lat="45.88384" lon="4.89978">
        <ele>304</ele>
        <time>2016-11-15T11:36:36Z</time>
      </trkpt>
      <trkpt lat="45.88381" lon="4.89979">
        <ele>304</ele>
        <time>2016-11-15T11:36:37Z</time>
      </trkpt>
      <trkpt lat="45.88375" lon="4.89983">
        <ele>304</ele>
        <time>2016-11-15T11:36:39Z</time>
      </trkpt>
      <trkpt lat="45.88372" lon="4.89985">
        <ele>304</ele>
        <time>2016-11-15T11:36:40Z</time>
      </trkpt>
      <trkpt lat="45.88366" lon="4.89988">
        <ele>304</ele>
        <time>2016-11-15T11:36:42Z</time>
      </trkpt>
      <trkpt lat="45.88363" lon="4.89988">
        <ele>304</ele>
        <time>2016-11-15T11:36:43Z</time>
      </trkpt>
      <trkpt lat="45.88357" lon="4.89991">
        <ele>304</ele>
        <time>2016-11-15T11:36:45Z</time>
      </trkpt>
      <trkpt lat="45.88354" lon="4.89992">
        <ele>304</ele>
        <time>2016-11-15T11:36:46Z</time>
      </trkpt>
      <trkpt lat="45.88348" lon="4.89996">
        <ele>305</ele>
        <time>2016-11-15T11:36:48Z</time>
      </trkpt>
      <trkpt lat="45.88345" lon="4.89998">
        <ele>305</ele>
        <time>2016-11-15T11:36:49Z</time>
      </trkpt>
      <trkpt lat="45.88339" lon="4.90001">
        <ele>305</ele>
        <time>2016-11-15T11:36:51Z</time>
      </trkpt>
      <trkpt lat="45.88335" lon="4.90002">
        <ele>305</ele>
        <time>2016-11-15T11:36:52Z</time>
      </trkpt>
      <trkpt lat="45.88328" lon="4.90006">
        <ele>305</ele>
        <time>2016-11-15T11:36:54Z</time>
      </trkpt>
      <trkpt lat="45.88324" lon="4.90008">
        <ele>305</ele>
        <time>2016-11-15T11:36:55Z</time>
      </trkpt>
      <trkpt lat="45.88316" lon="4.90011">
        <ele>305</ele>
        <time>2016-11-15T11:36:57Z</time>
      </trkpt>
      <trkpt lat="45.88312" lon="4.90013">
        <ele>305</ele>
        <time>2016-11-15T11:36:58Z</time>
      </trkpt>
      <trkpt lat="45.88307" lon="4.90014">
        <ele>305</ele>
        <time>2016-11-15T11:36:59Z</time>
      </trkpt>
      <trkpt lat="45.88302" lon="4.90017">
        <ele>305</ele>
        <time>2016-11-15T11:37:00Z</time>
      </trkpt>
      <trkpt lat="45.88297" lon="4.90019">
        <ele>305</ele>
        <time>2016-11-15T11:37:01Z</time>
      </trkpt>
      <trkpt lat="45.88292" lon="4.90023">
        <ele>305</ele>
        <time>2016-11-15T11:37:02Z</time>
      </trkpt>
      <trkpt lat="45.88287" lon="4.90027">
        <ele>305</ele>
        <time>2016-11-15T11:37:03Z</time>
      </trkpt>
      <trkpt lat="45.88282" lon="4.90031">
        <ele>305</ele>
        <time>2016-11-15T11:37:04Z</time>
      </trkpt>
      <trkpt lat="45.88277" lon="4.90036">
        <ele>305</ele>
        <time>2016-11-15T11:37:05Z</time>
      </trkpt>
      <trkpt lat="45.88272" lon="4.90041">
        <ele>305</ele>
        <time>2016-11-15T11:37:06Z</time>
      </trkpt>
      <trkpt lat="45.88266" lon="4.90045">
        <ele>305</ele>
        <time>2016-11-15T11:37:07Z</time>
      </trkpt>
      <trkpt lat="45.8826" lon="4.90047">
        <ele>305</ele>
        <time>2016-11-15T11:37:08Z</time>
      </trkpt>
      <trkpt lat="45.88254" lon="4.90049">
        <ele>305</ele>
        <time>2016-11-15T11:37:09Z</time>
      </trkpt>
      <trkpt lat="45.88248" lon="4.90048">
        <ele>304</ele>
        <time>2016-11-15T11:37:10Z</time>
      </trkpt>
      <trkpt lat="45.88241" lon="4.90045">
        <ele>304</ele>
        <time>2016-11-15T11:37:11Z</time>
      </trkpt>
      <trkpt lat="45.88234" lon="4.9004">
        <ele>303</ele>
        <time>2016-11-15T11:37:12Z</time>
      </trkpt>
      <trkpt lat="45.88229" lon="4.90033">
        <ele>303</ele>
        <time>2016-11-15T11:37:13Z</time>
      </trkpt>
      <trkpt lat="45.88224" lon="4.90026">
        <ele>303</ele>
        <time>2016-11-15T11:37:14Z</time>
      </trkpt>
      <trkpt lat="45.8822" lon="4.9002">
        <ele>303</ele>
        <time>2016-11-15T11:37:15Z</time>
      </trkpt>
      <trkpt lat="45.88215" lon="4.90014">
        <ele>303</ele>
        <time>2016-11-15T11:37:16Z</time>
      </trkpt>
      <trkpt lat="45.8821" lon="4.90008">
        <ele>303</ele>
        <time>2016-11-15T11:37:17Z</time>
      </trkpt>
      <trkpt lat="45.88205" lon="4.90002">
        <ele>303</ele>
        <time>2016-11-15T11:37:18Z</time>
      </trkpt>
      <trkpt lat="45.882" lon="4.89995">
        <ele>302</ele>
        <time>2016-11-15T11:37:19Z</time>
      </trkpt>
      <trkpt lat="45.88197" lon="4.89987">
        <ele>301</ele>
        <time>2016-11-15T11:37:20Z</time>
      </trkpt>
      <trkpt lat="45.88194" lon="4.89978">
        <ele>301</ele>
        <time>2016-11-15T11:37:21Z</time>
      </trkpt>
      <trkpt lat="45.88193" lon="4.89968">
        <ele>301</ele>
        <time>2016-11-15T11:37:22Z</time>
      </trkpt>
      <trkpt lat="45.88193" lon="4.89959">
        <ele>301</ele>
        <time>2016-11-15T11:37:23Z</time>
      </trkpt>
      <trkpt lat="45.88192" lon="4.89949">
        <ele>301</ele>
        <time>2016-11-15T11:37:24Z</time>
      </trkpt>
      <trkpt lat="45.88192" lon="4.89939">
        <ele>301</ele>
        <time>2016-11-15T11:37:25Z</time>
      </trkpt>
      <trkpt lat="45.88192" lon="4.8993">
        <ele>301</ele>
        <time>2016-11-15T11:37:26Z</time>
      </trkpt>
      <trkpt lat="45.88192" lon="4.89921">
        <ele>301</ele>
        <time>2016-11-15T11:37:27Z</time>
      </trkpt>
      <trkpt lat="45.88192" lon="4.89912">
        <ele>301</ele>
        <time>2016-11-15T11:37:28Z</time>
      </trkpt>
      <trkpt lat="45.88193" lon="4.89903">
        <ele>301</ele>
        <time>2016-11-15T11:37:29Z</time>
      </trkpt>
      <trkpt lat="45.88193" lon="4.89894">
        <ele>301</ele>
        <time>2016-11-15T11:37:30Z</time>
      </trkpt>
      <trkpt lat="45.88193" lon="4.89885">
        <ele>301</ele>
        <time>2016-11-15T11:37:31Z</time>
      </trkpt>
      <trkpt lat="45.88194" lon="4.89876">
        <ele>301</ele>
        <time>2016-11-15T11:37:32Z</time>
      </trkpt>
      <trkpt lat="45.88195" lon="4.89867">
        <ele>301</ele>
        <time>2016-11-15T11:37:33Z</time>
      </trkpt>
      <trkpt lat="45.88195" lon="4.89859">
        <ele>301</ele>
        <time>2016-11-15T11:37:34Z</time>
      </trkpt>
      <trkpt lat="45.88195" lon="4.89851">
        <ele>301</ele>
        <time>2016-11-15T11:37:35Z</time>
      </trkpt>
      <trkpt lat="45.88195" lon="4.89842">
        <ele>301</ele>
        <time>2016-11-15T11:37:36Z</time>
      </trkpt>
      <trkpt lat="45.88194" lon="4.89834">
        <ele>301</ele>
        <time>2016-11-15T11:37:37Z</time>
      </trkpt>
      <trkpt lat="45.88194" lon="4.89826">
        <ele>300</ele>
        <time>2016-11-15T11:37:38Z</time>
      </trkpt>
      <trkpt lat="45.88195" lon="4.89818">
        <ele>300</ele>
        <time>2016-11-15T11:37:39Z</time>
      </trkpt>
      <trkpt lat="45.88195" lon="4.8981">
        <ele>300</ele>
        <time>2016-11-15T11:37:40Z</time>
      </trkpt>
      <trkpt lat="45.88195" lon="4.89802">
        <ele>300</ele>
        <time>2016-11-15T11:37:41Z</time>
      </trkpt>
      <trkpt lat="45.88195" lon="4.89794">
        <ele>300</ele>
        <time>2016-11-15T11:37:42Z</time>
      </trkpt>
      <trkpt lat="45.88195" lon="4.89786">
        <ele>300</ele>
        <time>2016-11-15T11:37:43Z</time>
      </trkpt>
      <trkpt lat="45.88195" lon="4.89778">
        <ele>300</ele>
        <time>2016-11-15T11:37:44Z</time>
      </trkpt>
      <trkpt lat="45.88195" lon="4.89771">
        <ele>300</ele>
        <time>2016-11-15T11:37:45Z</time>
      </trkpt>
      <trkpt lat="45.88195" lon="4.89763">
        <ele>300</ele>
        <time>2016-11-15T11:37:46Z</time>
      </trkpt>
      <trkpt lat="45.88196" lon="4.89755">
        <ele>300</ele>
        <time>2016-11-15T11:37:47Z</time>
      </trkpt>
      <trkpt lat="45.88196" lon="4.89748">
        <ele>299</ele>
        <time>2016-11-15T11:37:48Z</time>
      </trkpt>
      <trkpt lat="45.88196" lon="4.8974">
        <ele>299</ele>
        <time>2016-11-15T11:37:49Z</time>
      </trkpt>
      <trkpt lat="45.88195" lon="4.89732">
        <ele>299</ele>
        <time>2016-11-15T11:37:50Z</time>
      </trkpt>
      <trkpt lat="45.88196" lon="4.89725">
        <ele>299</ele>
        <time>2016-11-15T11:37:51Z</time>
      </trkpt>
      <trkpt lat="45.88196" lon="4.89717">
        <ele>299</ele>
        <time>2016-11-15T11:37:52Z</time>
      </trkpt>
      <trkpt lat="45.88196" lon="4.8971">
        <ele>299</ele>
        <time>2016-11-15T11:37:53Z</time>
      </trkpt>
      <trkpt lat="45.88197" lon="4.89703">
        <ele>299</ele>
        <time>2016-11-15T11:37:54Z</time>
      </trkpt>
      <trkpt lat="45.88197" lon="4.89696">
        <ele>299</ele>
        <time>2016-11-15T11:37:55Z</time>
      </trkpt>
      <trkpt lat="45.88197" lon="4.89689">
        <ele>299</ele>
        <time>2016-11-15T11:37:56Z</time>
      </trkpt>
      <trkpt lat="45.88197" lon="4.89682">
        <ele>299</ele>
        <time>2016-11-15T11:37:57Z</time>
      </trkpt>
      <trkpt lat="45.88197" lon="4.89675">
        <ele>299</ele>
        <time>2016-11-15T11:37:58Z</time>
      </trkpt>
      <trkpt lat="45.88197" lon="4.89668">
        <ele>299</ele>
        <time>2016-11-15T11:37:59Z</time>
      </trkpt>
      <trkpt lat="45.88196" lon="4.89661">
        <ele>299</ele>
        <time>2016-11-15T11:38:00Z</time>
      </trkpt>
      <trkpt lat="45.88196" lon="4.89653">
        <ele>299</ele>
        <time>2016-11-15T11:38:01Z</time>
      </trkpt>
      <trkpt lat="45.88196" lon="4.89646">
        <ele>299</ele>
        <time>2016-11-15T11:38:02Z</time>
      </trkpt>
      <trkpt lat="45.88196" lon="4.89638">
        <ele>299</ele>
        <time>2016-11-15T11:38:03Z</time>
      </trkpt>
      <trkpt lat="45.88197" lon="4.89631">
        <ele>299</ele>
        <time>2016-11-15T11:38:04Z</time>
      </trkpt>
      <trkpt lat="45.88197" lon="4.89623">
        <ele>299</ele>
        <time>2016-11-15T11:38:05Z</time>
      </trkpt>
      <trkpt lat="45.88197" lon="4.89614">
        <ele>299</ele>
        <time>2016-11-15T11:38:06Z</time>
      </trkpt>
      <trkpt lat="45.88197" lon="4.89605">
        <ele>299</ele>
        <time>2016-11-15T11:38:07Z</time>
      </trkpt>
      <trkpt lat="45.88197" lon="4.89597">
        <ele>299</ele>
        <time>2016-11-15T11:38:08Z</time>
      </trkpt>
      <trkpt lat="45.88197" lon="4.89587">
        <ele>299</ele>
        <time>2016-11-15T11:38:09Z</time>
      </trkpt>
      <trkpt lat="45.88197" lon="4.89578">
        <ele>298</ele>
        <time>2016-11-15T11:38:10Z</time>
      </trkpt>
      <trkpt lat="45.88197" lon="4.89568">
        <ele>298</ele>
        <time>2016-11-15T11:38:11Z</time>
      </trkpt>
      <trkpt lat="45.88197" lon="4.89557">
        <ele>298</ele>
        <time>2016-11-15T11:38:12Z</time>
      </trkpt>
      <trkpt lat="45.88197" lon="4.89547">
        <ele>298</ele>
        <time>2016-11-15T11:38:13Z</time>
      </trkpt>
      <trkpt lat="45.88198" lon="4.89536">
        <ele>298</ele>
        <time>2016-11-15T11:38:14Z</time>
      </trkpt>
      <trkpt lat="45.88198" lon="4.89525">
        <ele>298</ele>
        <time>2016-11-15T11:38:15Z</time>
      </trkpt>
      <trkpt lat="45.88198" lon="4.89514">
        <ele>298</ele>
        <time>2016-11-15T11:38:16Z</time>
      </trkpt>
      <trkpt lat="45.88198" lon="4.89502">
        <ele>298</ele>
        <time>2016-11-15T11:38:17Z</time>
      </trkpt>
      <trkpt lat="45.88198" lon="4.89491">
        <ele>297</ele>
        <time>2016-11-15T11:38:18Z</time>
      </trkpt>
      <trkpt lat="45.88198" lon="4.8948">
        <ele>297</ele>
        <time>2016-11-15T11:38:19Z</time>
      </trkpt>
      <trkpt lat="45.88199" lon="4.89468">
        <ele>297</ele>
        <time>2016-11-15T11:38:20Z</time>
      </trkpt>
      <trkpt lat="45.88199" lon="4.89457">
        <ele>297</ele>
        <time>2016-11-15T11:38:21Z</time>
      </trkpt>
      <trkpt lat="45.88199" lon="4.89445">
        <ele>297</ele>
        <time>2016-11-15T11:38:22Z</time>
      </trkpt>
      <trkpt lat="45.882" lon="4.89434">
        <ele>297</ele>
        <time>2016-11-15T11:38:23Z</time>
      </trkpt>
      <trkpt lat="45.882" lon="4.89423">
        <ele>297</ele>
        <time>2016-11-15T11:38:24Z</time>
      </trkpt>
      <trkpt lat="45.88201" lon="4.89412">
        <ele>297</ele>
        <time>2016-11-15T11:38:25Z</time>
      </trkpt>
      <trkpt lat="45.88201" lon="4.89401">
        <ele>297</ele>
        <time>2016-11-15T11:38:26Z</time>
      </trkpt>
      <trkpt lat="45.88202" lon="4.89391">
        <ele>297</ele>
        <time>2016-11-15T11:38:27Z</time>
      </trkpt>
      <trkpt lat="45.88202" lon="4.89381">
        <ele>297</ele>
        <time>2016-11-15T11:38:28Z</time>
      </trkpt>
      <trkpt lat="45.88203" lon="4.89371">
        <ele>297</ele>
        <time>2016-11-15T11:38:29Z</time>
      </trkpt>
      <trkpt lat="45.88203" lon="4.89362">
        <ele>297</ele>
        <time>2016-11-15T11:38:30Z</time>
      </trkpt>
      <trkpt lat="45.88204" lon="4.89353">
        <ele>297</ele>
        <time>2016-11-15T11:38:31Z</time>
      </trkpt>
      <trkpt lat="45.88204" lon="4.89343">
        <ele>297</ele>
        <time>2016-11-15T11:38:32Z</time>
      </trkpt>
      <trkpt lat="45.88205" lon="4.89334">
        <ele>297</ele>
        <time>2016-11-15T11:38:33Z</time>
      </trkpt>
      <trkpt lat="45.88206" lon="4.89325">
        <ele>296</ele>
        <time>2016-11-15T11:38:34Z</time>
      </trkpt>
      <trkpt lat="45.88207" lon="4.89315">
        <ele>296</ele>
        <time>2016-11-15T11:38:35Z</time>
      </trkpt>
      <trkpt lat="45.88207" lon="4.89306">
        <ele>296</ele>
        <time>2016-11-15T11:38:36Z</time>
      </trkpt>
      <trkpt lat="45.88208" lon="4.89297">
        <ele>296</ele>
        <time>2016-11-15T11:38:37Z</time>
      </trkpt>
      <trkpt lat="45.88209" lon="4.89288">
        <ele>297</ele>
        <time>2016-11-15T11:38:38Z</time>
      </trkpt>
      <trkpt lat="45.8821" lon="4.89279">
        <ele>297</ele>
        <time>2016-11-15T11:38:39Z</time>
      </trkpt>
      <trkpt lat="45.88211" lon="4.89269">
        <ele>297</ele>
        <time>2016-11-15T11:38:40Z</time>
      </trkpt>
      <trkpt lat="45.88211" lon="4.8926">
        <ele>297</ele>
        <time>2016-11-15T11:38:41Z</time>
      </trkpt>
      <trkpt lat="45.88212" lon="4.8925">
        <ele>297</ele>
        <time>2016-11-15T11:38:42Z</time>
      </trkpt>
      <trkpt lat="45.88212" lon="4.8924">
        <ele>296</ele>
        <time>2016-11-15T11:38:43Z</time>
      </trkpt>
      <trkpt lat="45.88213" lon="4.89231">
        <ele>296</ele>
        <time>2016-11-15T11:38:44Z</time>
      </trkpt>
      <trkpt lat="45.88214" lon="4.89221">
        <ele>296</ele>
        <time>2016-11-15T11:38:45Z</time>
      </trkpt>
      <trkpt lat="45.88215" lon="4.89211">
        <ele>296</ele>
        <time>2016-11-15T11:38:46Z</time>
      </trkpt>
      <trkpt lat="45.88215" lon="4.89201">
        <ele>296</ele>
        <time>2016-11-15T11:38:47Z</time>
      </trkpt>
      <trkpt lat="45.88216" lon="4.8919">
        <ele>296</ele>
        <time>2016-11-15T11:38:48Z</time>
      </trkpt>
      <trkpt lat="45.88216" lon="4.8918">
        <ele>296</ele>
        <time>2016-11-15T11:38:49Z</time>
      </trkpt>
      <trkpt lat="45.88217" lon="4.89169">
        <ele>296</ele>
        <time>2016-11-15T11:38:50Z</time>
      </trkpt>
      <trkpt lat="45.88217" lon="4.89159">
        <ele>295</ele>
        <time>2016-11-15T11:38:51Z</time>
      </trkpt>
      <trkpt lat="45.88218" lon="4.89149">
        <ele>295</ele>
        <time>2016-11-15T11:38:52Z</time>
      </trkpt>
      <trkpt lat="45.88218" lon="4.89138">
        <ele>294</ele>
        <time>2016-11-15T11:38:53Z</time>
      </trkpt>
      <trkpt lat="45.88219" lon="4.89128">
        <ele>294</ele>
        <time>2016-11-15T11:38:54Z</time>
      </trkpt>
      <trkpt lat="45.8822" lon="4.89118">
        <ele>294</ele>
        <time>2016-11-15T11:38:55Z</time>
      </trkpt>
      <trkpt lat="45.88221" lon="4.89109">
        <ele>294</ele>
        <time>2016-11-15T11:38:56Z</time>
      </trkpt>
      <trkpt lat="45.88222" lon="4.89099">
        <ele>294</ele>
        <time>2016-11-15T11:38:57Z</time>
      </trkpt>
      <trkpt lat="45.88223" lon="4.8909">
        <ele>294</ele>
        <time>2016-11-15T11:38:58Z</time>
      </trkpt>
      <trkpt lat="45.88223" lon="4.8908">
        <ele>293</ele>
        <time>2016-11-15T11:38:59Z</time>
      </trkpt>
      <trkpt lat="45.88224" lon="4.89071">
        <ele>293</ele>
        <time>2016-11-15T11:39:00Z</time>
      </trkpt>
      <trkpt lat="45.88225" lon="4.89062">
        <ele>293</ele>
        <time>2016-11-15T11:39:01Z</time>
      </trkpt>
      <trkpt lat="45.88226" lon="4.89054">
        <ele>293</ele>
        <time>2016-11-15T11:39:02Z</time>
      </trkpt>
      <trkpt lat="45.88227" lon="4.89045">
        <ele>293</ele>
        <time>2016-11-15T11:39:03Z</time>
      </trkpt>
      <trkpt lat="45.88227" lon="4.89037">
        <ele>293</ele>
        <time>2016-11-15T11:39:04Z</time>
      </trkpt>
      <trkpt lat="45.88228" lon="4.89028">
        <ele>293</ele>
        <time>2016-11-15T11:39:05Z</time>
      </trkpt>
      <trkpt lat="45.88229" lon="4.8902">
        <ele>293</ele>
        <time>2016-11-15T11:39:06Z</time>
      </trkpt>
      <trkpt lat="45.8823" lon="4.89011">
        <ele>293</ele>
        <time>2016-11-15T11:39:07Z</time>
      </trkpt>
      <trkpt lat="45.88231" lon="4.89003">
        <ele>293</ele>
        <time>2016-11-15T11:39:08Z</time>
      </trkpt>
      <trkpt lat="45.88232" lon="4.88994">
        <ele>293</ele>
        <time>2016-11-15T11:39:09Z</time>
      </trkpt>
      <trkpt lat="45.88232" lon="4.88985">
        <ele>293</ele>
        <time>2016-11-15T11:39:10Z</time>
      </trkpt>
      <trkpt lat="45.88233" lon="4.88976">
        <ele>293</ele>
        <time>2016-11-15T11:39:11Z</time>
      </trkpt>
      <trkpt lat="45.88234" lon="4.88968">
        <ele>293</ele>
        <time>2016-11-15T11:39:12Z</time>
      </trkpt>
      <trkpt lat="45.88234" lon="4.88959">
        <ele>293</ele>
        <time>2016-11-15T11:39:13Z</time>
      </trkpt>
      <trkpt lat="45.88235" lon="4.8895">
        <ele>293</ele>
        <time>2016-11-15T11:39:14Z</time>
      </trkpt>
      <trkpt lat="45.88236" lon="4.88941">
        <ele>293</ele>
        <time>2016-11-15T11:39:15Z</time>
      </trkpt>
      <trkpt lat="45.88237" lon="4.88932">
        <ele>292</ele>
        <time>2016-11-15T11:39:16Z</time>
      </trkpt>
      <trkpt lat="45.88238" lon="4.88923">
        <ele>292</ele>
        <time>2016-11-15T11:39:17Z</time>
      </trkpt>
      <trkpt lat="45.88238" lon="4.88915">
        <ele>293</ele>
        <time>2016-11-15T11:39:18Z</time>
      </trkpt>
      <trkpt lat="45.88239" lon="4.88907">
        <ele>293</ele>
        <time>2016-11-15T11:39:19Z</time>
      </trkpt>
      <trkpt lat="45.8824" lon="4.88899">
        <ele>293</ele>
        <time>2016-11-15T11:39:20Z</time>
      </trkpt>
      <trkpt lat="45.8824" lon="4.88891">
        <ele>293</ele>
        <time>2016-11-15T11:39:21Z</time>
      </trkpt>
      <trkpt lat="45.88241" lon="4.88884">
        <ele>293</ele>
        <time>2016-11-15T11:39:22Z</time>
      </trkpt>
      <trkpt lat="45.88241" lon="4.88876">
        <ele>293</ele>
        <time>2016-11-15T11:39:23Z</time>
      </trkpt>
      <trkpt lat="45.88241" lon="4.88869">
        <ele>293</ele>
        <time>2016-11-15T11:39:24Z</time>
      </trkpt>
      <trkpt lat="45.88242" lon="4.88861">
        <ele>294</ele>
        <time>2016-11-15T11:39:25Z</time>
      </trkpt>
      <trkpt lat="45.88242" lon="4.88853">
        <ele>294</ele>
        <time>2016-11-15T11:39:26Z</time>
      </trkpt>
      <trkpt lat="45.88243" lon="4.88846">
        <ele>294</ele>
        <time>2016-11-15T11:39:27Z</time>
      </trkpt>
      <trkpt lat="45.88243" lon="4.88838">
        <ele>294</ele>
        <time>2016-11-15T11:39:28Z</time>
      </trkpt>
      <trkpt lat="45.88244" lon="4.8883">
        <ele>294</ele>
        <time>2016-11-15T11:39:29Z</time>
      </trkpt>
      <trkpt lat="45.88245" lon="4.88823">
        <ele>294</ele>
        <time>2016-11-15T11:39:30Z</time>
      </trkpt>
      <trkpt lat="45.88245" lon="4.88815">
        <ele>294</ele>
        <time>2016-11-15T11:39:31Z</time>
      </trkpt>
      <trkpt lat="45.88246" lon="4.88808">
        <ele>294</ele>
        <time>2016-11-15T11:39:32Z</time>
      </trkpt>
      <trkpt lat="45.88246" lon="4.888">
        <ele>294</ele>
        <time>2016-11-15T11:39:33Z</time>
      </trkpt>
      <trkpt lat="45.88247" lon="4.88792">
        <ele>294</ele>
        <time>2016-11-15T11:39:34Z</time>
      </trkpt>
      <trkpt lat="45.88247" lon="4.88784">
        <ele>294</ele>
        <time>2016-11-15T11:39:35Z</time>
      </trkpt>
      <trkpt lat="45.88248" lon="4.88776">
        <ele>294</ele>
        <time>2016-11-15T11:39:36Z</time>
      </trkpt>
      <trkpt lat="45.88248" lon="4.88768">
        <ele>294</ele>
        <time>2016-11-15T11:39:37Z</time>
      </trkpt>
      <trkpt lat="45.88248" lon="4.8876">
        <ele>294</ele>
        <time>2016-11-15T11:39:38Z</time>
      </trkpt>
      <trkpt lat="45.88249" lon="4.88752">
        <ele>294</ele>
        <time>2016-11-15T11:39:39Z</time>
      </trkpt>
      <trkpt lat="45.8825" lon="4.88744">
        <ele>294</ele>
        <time>2016-11-15T11:39:40Z</time>
      </trkpt>
      <trkpt lat="45.8825" lon="4.88736">
        <ele>294</ele>
        <time>2016-11-15T11:39:41Z</time>
      </trkpt>
      <trkpt lat="45.88251" lon="4.88728">
        <ele>294</ele>
        <time>2016-11-15T11:39:42Z</time>
      </trkpt>
      <trkpt lat="45.88252" lon="4.8872">
        <ele>294</ele>
        <time>2016-11-15T11:39:43Z</time>
      </trkpt>
      <trkpt lat="45.88252" lon="4.88713">
        <ele>294</ele>
        <time>2016-11-15T11:39:44Z</time>
      </trkpt>
      <trkpt lat="45.88253" lon="4.88705">
        <ele>294</ele>
        <time>2016-11-15T11:39:45Z</time>
      </trkpt>
      <trkpt lat="45.88253" lon="4.88697">
        <ele>294</ele>
        <time>2016-11-15T11:39:46Z</time>
      </trkpt>
      <trkpt lat="45.88254" lon="4.88689">
        <ele>294</ele>
        <time>2016-11-15T11:39:47Z</time>
      </trkpt>
      <trkpt lat="45.88254" lon="4.88681">
        <ele>294</ele>
        <time>2016-11-15T11:39:48Z</time>
      </trkpt>
      <trkpt lat="45.88255" lon="4.88673">
        <ele>295</ele>
        <time>2016-11-15T11:39:49Z</time>
      </trkpt>
      <trkpt lat="45.88255" lon="4.88665">
        <ele>295</ele>
        <time>2016-11-15T11:39:50Z</time>
      </trkpt>
      <trkpt lat="45.88256" lon="4.88656">
        <ele>295</ele>
        <time>2016-11-15T11:39:51Z</time>
      </trkpt>
      <trkpt lat="45.88256" lon="4.88648">
        <ele>294</ele>
        <time>2016-11-15T11:39:52Z</time>
      </trkpt>
      <trkpt lat="45.88257" lon="4.8864">
        <ele>294</ele>
        <time>2016-11-15T11:39:53Z</time>
      </trkpt>
      <trkpt lat="45.88258" lon="4.88631">
        <ele>294</ele>
        <time>2016-11-15T11:39:54Z</time>
      </trkpt>
      <trkpt lat="45.88258" lon="4.88624">
        <ele>294</ele>
        <time>2016-11-15T11:39:55Z</time>
      </trkpt>
      <trkpt lat="45.88259" lon="4.88616">
        <ele>294</ele>
        <time>2016-11-15T11:39:56Z</time>
      </trkpt>
      <trkpt lat="45.88259" lon="4.88608">
        <ele>294</ele>
        <time>2016-11-15T11:39:57Z</time>
      </trkpt>
      <trkpt lat="45.8826" lon="4.88601">
        <ele>294</ele>
        <time>2016-11-15T11:39:58Z</time>
      </trkpt>
      <trkpt lat="45.8826" lon="4.88593">
        <ele>295</ele>
        <time>2016-11-15T11:39:59Z</time>
      </trkpt>
      <trkpt lat="45.88261" lon="4.88586">
        <ele>295</ele>
        <time>2016-11-15T11:40:00Z</time>
      </trkpt>
      <trkpt lat="45.88261" lon="4.88578">
        <ele>295</ele>
        <time>2016-11-15T11:40:01Z</time>
      </trkpt>
      <trkpt lat="45.88262" lon="4.88571">
        <ele>295</ele>
        <time>2016-11-15T11:40:02Z</time>
      </trkpt>
      <trkpt lat="45.88262" lon="4.88564">
        <ele>295</ele>
        <time>2016-11-15T11:40:03Z</time>
      </trkpt>
      <trkpt lat="45.88263" lon="4.88557">
        <ele>295</ele>
        <time>2016-11-15T11:40:04Z</time>
      </trkpt>
      <trkpt lat="45.88263" lon="4.8855">
        <ele>294</ele>
        <time>2016-11-15T11:40:05Z</time>
      </trkpt>
      <trkpt lat="45.88263" lon="4.88543">
        <ele>294</ele>
        <time>2016-11-15T11:40:06Z</time>
      </trkpt>
      <trkpt lat="45.88263" lon="4.88536">
        <ele>294</ele>
        <time>2016-11-15T11:40:07Z</time>
      </trkpt>
      <trkpt lat="45.88264" lon="4.88529">
        <ele>295</ele>
        <time>2016-11-15T11:40:08Z</time>
      </trkpt>
      <trkpt lat="45.88265" lon="4.88522">
        <ele>295</ele>
        <time>2016-11-15T11:40:09Z</time>
      </trkpt>
      <trkpt lat="45.88265" lon="4.88516">
        <ele>295</ele>
        <time>2016-11-15T11:40:10Z</time>
      </trkpt>
      <trkpt lat="45.88267" lon="4.88503">
        <ele>295</ele>
        <time>2016-11-15T11:40:12Z</time>
      </trkpt>
      <trkpt lat="45.88267" lon="4.88497">
        <ele>295</ele>
        <time>2016-11-15T11:40:13Z</time>
      </trkpt>
      <trkpt lat="45.88268" lon="4.88484">
        <ele>295</ele>
        <time>2016-11-15T11:40:15Z</time>
      </trkpt>
      <trkpt lat="45.88268" lon="4.88478">
        <ele>295</ele>
        <time>2016-11-15T11:40:16Z</time>
      </trkpt>
      <trkpt lat="45.88269" lon="4.88466">
        <ele>295</ele>
        <time>2016-11-15T11:40:18Z</time>
      </trkpt>
      <trkpt lat="45.8827" lon="4.8846">
        <ele>295</ele>
        <time>2016-11-15T11:40:19Z</time>
      </trkpt>
      <trkpt lat="45.8827" lon="4.88447">
        <ele>295</ele>
        <time>2016-11-15T11:40:21Z</time>
      </trkpt>
      <trkpt lat="45.88271" lon="4.88441">
        <ele>295</ele>
        <time>2016-11-15T11:40:22Z</time>
      </trkpt>
      <trkpt lat="45.88271" lon="4.88429">
        <ele>295</ele>
        <time>2016-11-15T11:40:24Z</time>
      </trkpt>
      <trkpt lat="45.88271" lon="4.88423">
        <ele>295</ele>
        <time>2016-11-15T11:40:25Z</time>
      </trkpt>
      <trkpt lat="45.88271" lon="4.88411">
        <ele>295</ele>
        <time>2016-11-15T11:40:27Z</time>
      </trkpt>
      <trkpt lat="45.88272" lon="4.88405">
        <ele>296</ele>
        <time>2016-11-15T11:40:28Z</time>
      </trkpt>
      <trkpt lat="45.88272" lon="4.88394">
        <ele>296</ele>
        <time>2016-11-15T11:40:30Z</time>
      </trkpt>
      <trkpt lat="45.88273" lon="4.88388">
        <ele>296</ele>
        <time>2016-11-15T11:40:31Z</time>
      </trkpt>
      <trkpt lat="45.88276" lon="4.88382">
        <ele>296</ele>
        <time>2016-11-15T11:40:32Z</time>
      </trkpt>
      <trkpt lat="45.88278" lon="4.88377">
        <ele>296</ele>
        <time>2016-11-15T11:40:33Z</time>
      </trkpt>
      <trkpt lat="45.88282" lon="4.88372">
        <ele>296</ele>
        <time>2016-11-15T11:40:34Z</time>
      </trkpt>
      <trkpt lat="45.88285" lon="4.88367">
        <ele>296</ele>
        <time>2016-11-15T11:40:35Z</time>
      </trkpt>
      <trkpt lat="45.88287" lon="4.88361">
        <ele>296</ele>
        <time>2016-11-15T11:40:36Z</time>
      </trkpt>
      <trkpt lat="45.88289" lon="4.88355">
        <ele>296</ele>
        <time>2016-11-15T11:40:37Z</time>
      </trkpt>
      <trkpt lat="45.8829" lon="4.88348">
        <ele>296</ele>
        <time>2016-11-15T11:40:38Z</time>
      </trkpt>
      <trkpt lat="45.88289" lon="4.88341">
        <ele>296</ele>
        <time>2016-11-15T11:40:39Z</time>
      </trkpt>
      <trkpt lat="45.88288" lon="4.88334">
        <ele>296</ele>
        <time>2016-11-15T11:40:40Z</time>
      </trkpt>
      <trkpt lat="45.88286" lon="4.88327">
        <ele>296</ele>
        <time>2016-11-15T11:40:41Z</time>
      </trkpt>
      <trkpt lat="45.88284" lon="4.88321">
        <ele>296</ele>
        <time>2016-11-15T11:40:42Z</time>
      </trkpt>
      <trkpt lat="45.88281" lon="4.88315">
        <ele>296</ele>
        <time>2016-11-15T11:40:43Z</time>
      </trkpt>
      <trkpt lat="45.88278" lon="4.88309">
        <ele>296</ele>
        <time>2016-11-15T11:40:44Z</time>
      </trkpt>
      <trkpt lat="45.88277" lon="4.88302">
        <ele>296</ele>
        <time>2016-11-15T11:40:45Z</time>
      </trkpt>
      <trkpt lat="45.88276" lon="4.88294">
        <ele>296</ele>
        <time>2016-11-15T11:40:46Z</time>
      </trkpt>
      <trkpt lat="45.88276" lon="4.88287">
        <ele>296</ele>
        <time>2016-11-15T11:40:47Z</time>
      </trkpt>
      <trkpt lat="45.88276" lon="4.8828">
        <ele>296</ele>
        <time>2016-11-15T11:40:48Z</time>
      </trkpt>
      <trkpt lat="45.88277" lon="4.88273">
        <ele>296</ele>
        <time>2016-11-15T11:40:49Z</time>
      </trkpt>
      <trkpt lat="45.88277" lon="4.88266">
        <ele>296</ele>
        <time>2016-11-15T11:40:50Z</time>
      </trkpt>
      <trkpt lat="45.88277" lon="4.8826">
        <ele>296</ele>
        <time>2016-11-15T11:40:51Z</time>
      </trkpt>
      <trkpt lat="45.88278" lon="4.88253">
        <ele>296</ele>
        <time>2016-11-15T11:40:52Z</time>
      </trkpt>
      <trkpt lat="45.88278" lon="4.88246">
        <ele>296</ele>
        <time>2016-11-15T11:40:53Z</time>
      </trkpt>
      <trkpt lat="45.88279" lon="4.88239">
        <ele>296</ele>
        <time>2016-11-15T11:40:54Z</time>
      </trkpt>
      <trkpt lat="45.88279" lon="4.88232">
        <ele>296</ele>
        <time>2016-11-15T11:40:55Z</time>
      </trkpt>
      <trkpt lat="45.88279" lon="4.88224">
        <ele>296</ele>
        <time>2016-11-15T11:40:56Z</time>
      </trkpt>
      <trkpt lat="45.88279" lon="4.88217">
        <ele>296</ele>
        <time>2016-11-15T11:40:57Z</time>
      </trkpt>
      <trkpt lat="45.88279" lon="4.8821">
        <ele>296</ele>
        <time>2016-11-15T11:40:58Z</time>
      </trkpt>
      <trkpt lat="45.88279" lon="4.88203">
        <ele>296</ele>
        <time>2016-11-15T11:40:59Z</time>
      </trkpt>
      <trkpt lat="45.88278" lon="4.88196">
        <ele>296</ele>
        <time>2016-11-15T11:41:00Z</time>
      </trkpt>
      <trkpt lat="45.88279" lon="4.8819">
        <ele>296</ele>
        <time>2016-11-15T11:41:01Z</time>
      </trkpt>
      <trkpt lat="45.88278" lon="4.88183">
        <ele>296</ele>
        <time>2016-11-15T11:41:02Z</time>
      </trkpt>
      <trkpt lat="45.88278" lon="4.88176">
        <ele>296</ele>
        <time>2016-11-15T11:41:03Z</time>
      </trkpt>
      <trkpt lat="45.88278" lon="4.88169">
        <ele>296</ele>
        <time>2016-11-15T11:41:04Z</time>
      </trkpt>
      <trkpt lat="45.88278" lon="4.88163">
        <ele>296</ele>
        <time>2016-11-15T11:41:05Z</time>
      </trkpt>
      <trkpt lat="45.88277" lon="4.88156">
        <ele>296</ele>
        <time>2016-11-15T11:41:06Z</time>
      </trkpt>
      <trkpt lat="45.88277" lon="4.8815">
        <ele>296</ele>
        <time>2016-11-15T11:41:07Z</time>
      </trkpt>
      <trkpt lat="45.88277" lon="4.88143">
        <ele>295</ele>
        <time>2016-11-15T11:41:08Z</time>
      </trkpt>
      <trkpt lat="45.88276" lon="4.88136">
        <ele>295</ele>
        <time>2016-11-15T11:41:09Z</time>
      </trkpt>
      <trkpt lat="45.88275" lon="4.8813">
        <ele>295</ele>
        <time>2016-11-15T11:41:10Z</time>
      </trkpt>
      <trkpt lat="45.88275" lon="4.88123">
        <ele>295</ele>
        <time>2016-11-15T11:41:11Z</time>
      </trkpt>
      <trkpt lat="45.88275" lon="4.88116">
        <ele>295</ele>
        <time>2016-11-15T11:41:12Z</time>
      </trkpt>
      <trkpt lat="45.88275" lon="4.88109">
        <ele>295</ele>
        <time>2016-11-15T11:41:13Z</time>
      </trkpt>
      <trkpt lat="45.88274" lon="4.88102">
        <ele>294</ele>
        <time>2016-11-15T11:41:14Z</time>
      </trkpt>
      <trkpt lat="45.88274" lon="4.88095">
        <ele>294</ele>
        <time>2016-11-15T11:41:15Z</time>
      </trkpt>
      <trkpt lat="45.88274" lon="4.88088">
        <ele>294</ele>
        <time>2016-11-15T11:41:16Z</time>
      </trkpt>
      <trkpt lat="45.88273" lon="4.8808">
        <ele>293</ele>
        <time>2016-11-15T11:41:17Z</time>
      </trkpt>
      <trkpt lat="45.88273" lon="4.88073">
        <ele>293</ele>
        <time>2016-11-15T11:41:18Z</time>
      </trkpt>
      <trkpt lat="45.88273" lon="4.88066">
        <ele>293</ele>
        <time>2016-11-15T11:41:19Z</time>
      </trkpt>
      <trkpt lat="45.88273" lon="4.8806">
        <ele>293</ele>
        <time>2016-11-15T11:41:20Z</time>
      </trkpt>
      <trkpt lat="45.88273" lon="4.88053">
        <ele>293</ele>
        <time>2016-11-15T11:41:21Z</time>
      </trkpt>
      <trkpt lat="45.88272" lon="4.88046">
        <ele>293</ele>
        <time>2016-11-15T11:41:22Z</time>
      </trkpt>
      <trkpt lat="45.88272" lon="4.88039">
        <ele>293</ele>
        <time>2016-11-15T11:41:23Z</time>
      </trkpt>
      <trkpt lat="45.88272" lon="4.88032">
        <ele>293</ele>
        <time>2016-11-15T11:41:24Z</time>
      </trkpt>
      <trkpt lat="45.88272" lon="4.88025">
        <ele>293</ele>
        <time>2016-11-15T11:41:25Z</time>
      </trkpt>
      <trkpt lat="45.88271" lon="4.88019">
        <ele>293</ele>
        <time>2016-11-15T11:41:26Z</time>
      </trkpt>
      <trkpt lat="45.88271" lon="4.88011">
        <ele>293</ele>
        <time>2016-11-15T11:41:27Z</time>
      </trkpt>
      <trkpt lat="45.88271" lon="4.88004">
        <ele>293</ele>
        <time>2016-11-15T11:41:28Z</time>
      </trkpt>
      <trkpt lat="45.88271" lon="4.87997">
        <ele>293</ele>
        <time>2016-11-15T11:41:29Z</time>
      </trkpt>
      <trkpt lat="45.8827" lon="4.87989">
        <ele>293</ele>
        <time>2016-11-15T11:41:30Z</time>
      </trkpt>
      <trkpt lat="45.8827" lon="4.87981">
        <ele>293</ele>
        <time>2016-11-15T11:41:31Z</time>
      </trkpt>
      <trkpt lat="45.8827" lon="4.87973">
        <ele>293</ele>
        <time>2016-11-15T11:41:32Z</time>
      </trkpt>
      <trkpt lat="45.8827" lon="4.87965">
        <ele>293</ele>
        <time>2016-11-15T11:41:33Z</time>
      </trkpt>
      <trkpt lat="45.88269" lon="4.87957">
        <ele>293</ele>
        <time>2016-11-15T11:41:34Z</time>
      </trkpt>
      <trkpt lat="45.88269" lon="4.87949">
        <ele>294</ele>
        <time>2016-11-15T11:41:35Z</time>
      </trkpt>
      <trkpt lat="45.88268" lon="4.8794">
        <ele>294</ele>
        <time>2016-11-15T11:41:36Z</time>
      </trkpt>
      <trkpt lat="45.88267" lon="4.87931">
        <ele>294</ele>
        <time>2016-11-15T11:41:37Z</time>
      </trkpt>
      <trkpt lat="45.88267" lon="4.87923">
        <ele>294</ele>
        <time>2016-11-15T11:41:38Z</time>
      </trkpt>
      <trkpt lat="45.88266" lon="4.87914">
        <ele>295</ele>
        <time>2016-11-15T11:41:39Z</time>
      </trkpt>
      <trkpt lat="45.88265" lon="4.87904">
        <ele>295</ele>
        <time>2016-11-15T11:41:40Z</time>
      </trkpt>
      <trkpt lat="45.88265" lon="4.87895">
        <ele>295</ele>
        <time>2016-11-15T11:41:41Z</time>
      </trkpt>
      <trkpt lat="45.88264" lon="4.87885">
        <ele>294</ele>
        <time>2016-11-15T11:41:42Z</time>
      </trkpt>
      <trkpt lat="45.88263" lon="4.87875">
        <ele>294</ele>
        <time>2016-11-15T11:41:43Z</time>
      </trkpt>
      <trkpt lat="45.88262" lon="4.87864">
        <ele>294</ele>
        <time>2016-11-15T11:41:44Z</time>
      </trkpt>
      <trkpt lat="45.88261" lon="4.87854">
        <ele>294</ele>
        <time>2016-11-15T11:41:45Z</time>
      </trkpt>
      <trkpt lat="45.88259" lon="4.87844">
        <ele>294</ele>
        <time>2016-11-15T11:41:46Z</time>
      </trkpt>
      <trkpt lat="45.88258" lon="4.87834">
        <ele>295</ele>
        <time>2016-11-15T11:41:47Z</time>
      </trkpt>
      <trkpt lat="45.88256" lon="4.87823">
        <ele>295</ele>
        <time>2016-11-15T11:41:48Z</time>
      </trkpt>
      <trkpt lat="45.88255" lon="4.87813">
        <ele>295</ele>
        <time>2016-11-15T11:41:49Z</time>
      </trkpt>
      <trkpt lat="45.88254" lon="4.87802">
        <ele>295</ele>
        <time>2016-11-15T11:41:50Z</time>
      </trkpt>
      <trkpt lat="45.88253" lon="4.87792">
        <ele>295</ele>
        <time>2016-11-15T11:41:51Z</time>
      </trkpt>
      <trkpt lat="45.88251" lon="4.87782">
        <ele>295</ele>
        <time>2016-11-15T11:41:52Z</time>
      </trkpt>
      <trkpt lat="45.8825" lon="4.87772">
        <ele>295</ele>
        <time>2016-11-15T11:41:53Z</time>
      </trkpt>
      <trkpt lat="45.88249" lon="4.87762">
        <ele>295</ele>
        <time>2016-11-15T11:41:54Z</time>
      </trkpt>
      <trkpt lat="45.88248" lon="4.87752">
        <ele>296</ele>
        <time>2016-11-15T11:41:55Z</time>
      </trkpt>
      <trkpt lat="45.88247" lon="4.87743">
        <ele>296</ele>
        <time>2016-11-15T11:41:56Z</time>
      </trkpt>
      <trkpt lat="45.88245" lon="4.87734">
        <ele>295</ele>
        <time>2016-11-15T11:41:57Z</time>
      </trkpt>
      <trkpt lat="45.88244" lon="4.87725">
        <ele>295</ele>
        <time>2016-11-15T11:41:58Z</time>
      </trkpt>
      <trkpt lat="45.88243" lon="4.87716">
        <ele>295</ele>
        <time>2016-11-15T11:41:59Z</time>
      </trkpt>
      <trkpt lat="45.88242" lon="4.87708">
        <ele>295</ele>
        <time>2016-11-15T11:42:00Z</time>
      </trkpt>
      <trkpt lat="45.88241" lon="4.877">
        <ele>295</ele>
        <time>2016-11-15T11:42:01Z</time>
      </trkpt>
      <trkpt lat="45.8824" lon="4.87692">
        <ele>295</ele>
        <time>2016-11-15T11:42:02Z</time>
      </trkpt>
      <trkpt lat="45.88239" lon="4.87684">
        <ele>295</ele>
        <time>2016-11-15T11:42:03Z</time>
      </trkpt>
      <trkpt lat="45.88238" lon="4.87676">
        <ele>295</ele>
        <time>2016-11-15T11:42:04Z</time>
      </trkpt>
      <trkpt lat="45.88237" lon="4.87668">
        <ele>295</ele>
        <time>2016-11-15T11:42:05Z</time>
      </trkpt>
      <trkpt lat="45.88236" lon="4.8766">
        <ele>295</ele>
        <time>2016-11-15T11:42:06Z</time>
      </trkpt>
      <trkpt lat="45.88235" lon="4.87653">
        <ele>295</ele>
        <time>2016-11-15T11:42:07Z</time>
      </trkpt>
      <trkpt lat="45.88235" lon="4.87645">
        <ele>295</ele>
        <time>2016-11-15T11:42:08Z</time>
      </trkpt>
      <trkpt lat="45.88234" lon="4.87637">
        <ele>295</ele>
        <time>2016-11-15T11:42:09Z</time>
      </trkpt>
      <trkpt lat="45.88233" lon="4.8763">
        <ele>295</ele>
        <time>2016-11-15T11:42:10Z</time>
      </trkpt>
      <trkpt lat="45.88232" lon="4.87623">
        <ele>295</ele>
        <time>2016-11-15T11:42:11Z</time>
      </trkpt>
      <trkpt lat="45.88231" lon="4.87615">
        <ele>295</ele>
        <time>2016-11-15T11:42:12Z</time>
      </trkpt>
      <trkpt lat="45.8823" lon="4.87608">
        <ele>295</ele>
        <time>2016-11-15T11:42:13Z</time>
      </trkpt>
      <trkpt lat="45.88229" lon="4.876">
        <ele>295</ele>
        <time>2016-11-15T11:42:14Z</time>
      </trkpt>
      <trkpt lat="45.88228" lon="4.87591">
        <ele>295</ele>
        <time>2016-11-15T11:42:15Z</time>
      </trkpt>
      <trkpt lat="45.88227" lon="4.87583">
        <ele>296</ele>
        <time>2016-11-15T11:42:16Z</time>
      </trkpt>
      <trkpt lat="45.88227" lon="4.87574">
        <ele>296</ele>
        <time>2016-11-15T11:42:17Z</time>
      </trkpt>
      <trkpt lat="45.88227" lon="4.87566">
        <ele>296</ele>
        <time>2016-11-15T11:42:18Z</time>
      </trkpt>
      <trkpt lat="45.88226" lon="4.87557">
        <ele>296</ele>
        <time>2016-11-15T11:42:19Z</time>
      </trkpt>
      <trkpt lat="45.88225" lon="4.87549">
        <ele>296</ele>
        <time>2016-11-15T11:42:20Z</time>
      </trkpt>
      <trkpt lat="45.88225" lon="4.87541">
        <ele>296</ele>
        <time>2016-11-15T11:42:21Z</time>
      </trkpt>
      <trkpt lat="45.88225" lon="4.87533">
        <ele>296</ele>
        <time>2016-11-15T11:42:22Z</time>
      </trkpt>
      <trkpt lat="45.88224" lon="4.87526">
        <ele>296</ele>
        <time>2016-11-15T11:42:23Z</time>
      </trkpt>
      <trkpt lat="45.88224" lon="4.87518">
        <ele>296</ele>
        <time>2016-11-15T11:42:24Z</time>
      </trkpt>
      <trkpt lat="45.88223" lon="4.87511">
        <ele>297</ele>
        <time>2016-11-15T11:42:25Z</time>
      </trkpt>
      <trkpt lat="45.88223" lon="4.87504">
        <ele>297</ele>
        <time>2016-11-15T11:42:26Z</time>
      </trkpt>
      <trkpt lat="45.88223" lon="4.87497">
        <ele>297</ele>
        <time>2016-11-15T11:42:27Z</time>
      </trkpt>
      <trkpt lat="45.88222" lon="4.87491">
        <ele>297</ele>
        <time>2016-11-15T11:42:28Z</time>
      </trkpt>
      <trkpt lat="45.88222" lon="4.87484">
        <ele>297</ele>
        <time>2016-11-15T11:42:29Z</time>
      </trkpt>
      <trkpt lat="45.88222" lon="4.87477">
        <ele>297</ele>
        <time>2016-11-15T11:42:30Z</time>
      </trkpt>
      <trkpt lat="45.88222" lon="4.8747">
        <ele>297</ele>
        <time>2016-11-15T11:42:31Z</time>
      </trkpt>
      <trkpt lat="45.88221" lon="4.87463">
        <ele>297</ele>
        <time>2016-11-15T11:42:32Z</time>
      </trkpt>
      <trkpt lat="45.8822" lon="4.87456">
        <ele>297</ele>
        <time>2016-11-15T11:42:33Z</time>
      </trkpt>
      <trkpt lat="45.8822" lon="4.87448">
        <ele>297</ele>
        <time>2016-11-15T11:42:34Z</time>
      </trkpt>
      <trkpt lat="45.88219" lon="4.87441">
        <ele>297</ele>
        <time>2016-11-15T11:42:35Z</time>
      </trkpt>
      <trkpt lat="45.88219" lon="4.87434">
        <ele>297</ele>
        <time>2016-11-15T11:42:36Z</time>
      </trkpt>
      <trkpt lat="45.88219" lon="4.87426">
        <ele>297</ele>
        <time>2016-11-15T11:42:37Z</time>
      </trkpt>
      <trkpt lat="45.88219" lon="4.87418">
        <ele>297</ele>
        <time>2016-11-15T11:42:38Z</time>
      </trkpt>
      <trkpt lat="45.88218" lon="4.8741">
        <ele>297</ele>
        <time>2016-11-15T11:42:39Z</time>
      </trkpt>
      <trkpt lat="45.88218" lon="4.87402">
        <ele>297</ele>
        <time>2016-11-15T11:42:40Z</time>
      </trkpt>
      <trkpt lat="45.88218" lon="4.87395">
        <ele>297</ele>
        <time>2016-11-15T11:42:41Z</time>
      </trkpt>
      <trkpt lat="45.88219" lon="4.87388">
        <ele>297</ele>
        <time>2016-11-15T11:42:42Z</time>
      </trkpt>
      <trkpt lat="45.88218" lon="4.8738">
        <ele>297</ele>
        <time>2016-11-15T11:42:43Z</time>
      </trkpt>
      <trkpt lat="45.88217" lon="4.87373">
        <ele>297</ele>
        <time>2016-11-15T11:42:44Z</time>
      </trkpt>
      <trkpt lat="45.88218" lon="4.87367">
        <ele>297</ele>
        <time>2016-11-15T11:42:45Z</time>
      </trkpt>
      <trkpt lat="45.8822" lon="4.87354">
        <ele>297</ele>
        <time>2016-11-15T11:42:47Z</time>
      </trkpt>
      <trkpt lat="45.8822" lon="4.87348">
        <ele>297</ele>
        <time>2016-11-15T11:42:48Z</time>
      </trkpt>
      <trkpt lat="45.88218" lon="4.87341">
        <ele>297</ele>
        <time>2016-11-15T11:42:49Z</time>
      </trkpt>
      <trkpt lat="45.88216" lon="4.87335">
        <ele>297</ele>
        <time>2016-11-15T11:42:50Z</time>
      </trkpt>
      <trkpt lat="45.88214" lon="4.87328">
        <ele>297</ele>
        <time>2016-11-15T11:42:51Z</time>
      </trkpt>
      <trkpt lat="45.88212" lon="4.87321">
        <ele>297</ele>
        <time>2016-11-15T11:42:52Z</time>
      </trkpt>
      <trkpt lat="45.88211" lon="4.87313">
        <ele>297</ele>
        <time>2016-11-15T11:42:53Z</time>
      </trkpt>
      <trkpt lat="45.88211" lon="4.87306">
        <ele>297</ele>
        <time>2016-11-15T11:42:54Z</time>
      </trkpt>
      <trkpt lat="45.8821" lon="4.87299">
        <ele>297</ele>
        <time>2016-11-15T11:42:55Z</time>
      </trkpt>
      <trkpt lat="45.8821" lon="4.87292">
        <ele>297</ele>
        <time>2016-11-15T11:42:56Z</time>
      </trkpt>
      <trkpt lat="45.8821" lon="4.87284">
        <ele>297</ele>
        <time>2016-11-15T11:42:57Z</time>
      </trkpt>
      <trkpt lat="45.88209" lon="4.87277">
        <ele>297</ele>
        <time>2016-11-15T11:42:58Z</time>
      </trkpt>
      <trkpt lat="45.88209" lon="4.87271">
        <ele>297</ele>
        <time>2016-11-15T11:42:59Z</time>
      </trkpt>
      <trkpt lat="45.88209" lon="4.87264">
        <ele>297</ele>
        <time>2016-11-15T11:43:00Z</time>
      </trkpt>
      <trkpt lat="45.88208" lon="4.87257">
        <ele>297</ele>
        <time>2016-11-15T11:43:01Z</time>
      </trkpt>
      <trkpt lat="45.88208" lon="4.87251">
        <ele>297</ele>
        <time>2016-11-15T11:43:02Z</time>
      </trkpt>
      <trkpt lat="45.88208" lon="4.87243">
        <ele>298</ele>
        <time>2016-11-15T11:43:03Z</time>
      </trkpt>
      <trkpt lat="45.88209" lon="4.87237">
        <ele>298</ele>
        <time>2016-11-15T11:43:04Z</time>
      </trkpt>
      <trkpt lat="45.88209" lon="4.8723">
        <ele>298</ele>
        <time>2016-11-15T11:43:05Z</time>
      </trkpt>
      <trkpt lat="45.8821" lon="4.87223">
        <ele>298</ele>
        <time>2016-11-15T11:43:06Z</time>
      </trkpt>
      <trkpt lat="45.88209" lon="4.87216">
        <ele>298</ele>
        <time>2016-11-15T11:43:07Z</time>
      </trkpt>
      <trkpt lat="45.88209" lon="4.87208">
        <ele>298</ele>
        <time>2016-11-15T11:43:08Z</time>
      </trkpt>
      <trkpt lat="45.88209" lon="4.872">
        <ele>298</ele>
        <time>2016-11-15T11:43:09Z</time>
      </trkpt>
      <trkpt lat="45.88209" lon="4.87192">
        <ele>298</ele>
        <time>2016-11-15T11:43:10Z</time>
      </trkpt>
      <trkpt lat="45.88209" lon="4.87184">
        <ele>298</ele>
        <time>2016-11-15T11:43:11Z</time>
      </trkpt>
      <trkpt lat="45.88209" lon="4.87176">
        <ele>298</ele>
        <time>2016-11-15T11:43:12Z</time>
      </trkpt>
      <trkpt lat="45.88208" lon="4.87168">
        <ele>298</ele>
        <time>2016-11-15T11:43:13Z</time>
      </trkpt>
      <trkpt lat="45.88209" lon="4.8716">
        <ele>298</ele>
        <time>2016-11-15T11:43:14Z</time>
      </trkpt>
      <trkpt lat="45.88208" lon="4.87153">
        <ele>298</ele>
        <time>2016-11-15T11:43:15Z</time>
      </trkpt>
      <trkpt lat="45.88208" lon="4.87146">
        <ele>298</ele>
        <time>2016-11-15T11:43:16Z</time>
      </trkpt>
      <trkpt lat="45.88207" lon="4.87138">
        <ele>298</ele>
        <time>2016-11-15T11:43:17Z</time>
      </trkpt>
      <trkpt lat="45.88207" lon="4.87131">
        <ele>298</ele>
        <time>2016-11-15T11:43:18Z</time>
      </trkpt>
      <trkpt lat="45.88207" lon="4.87124">
        <ele>299</ele>
        <time>2016-11-15T11:43:19Z</time>
      </trkpt>
      <trkpt lat="45.88207" lon="4.87116">
        <ele>299</ele>
        <time>2016-11-15T11:43:20Z</time>
      </trkpt>
      <trkpt lat="45.88206" lon="4.87109">
        <ele>299</ele>
        <time>2016-11-15T11:43:21Z</time>
      </trkpt>
      <trkpt lat="45.88205" lon="4.87102">
        <ele>299</ele>
        <time>2016-11-15T11:43:22Z</time>
      </trkpt>
      <trkpt lat="45.88204" lon="4.87094">
        <ele>299</ele>
        <time>2016-11-15T11:43:23Z</time>
      </trkpt>
      <trkpt lat="45.88204" lon="4.87087">
        <ele>299</ele>
        <time>2016-11-15T11:43:24Z</time>
      </trkpt>
      <trkpt lat="45.88203" lon="4.8708">
        <ele>299</ele>
        <time>2016-11-15T11:43:25Z</time>
      </trkpt>
      <trkpt lat="45.88202" lon="4.87073">
        <ele>299</ele>
        <time>2016-11-15T11:43:26Z</time>
      </trkpt>
      <trkpt lat="45.88201" lon="4.87065">
        <ele>299</ele>
        <time>2016-11-15T11:43:27Z</time>
      </trkpt>
      <trkpt lat="45.88199" lon="4.87058">
        <ele>299</ele>
        <time>2016-11-15T11:43:28Z</time>
      </trkpt>
      <trkpt lat="45.88198" lon="4.87051">
        <ele>299</ele>
        <time>2016-11-15T11:43:29Z</time>
      </trkpt>
      <trkpt lat="45.88196" lon="4.87043">
        <ele>299</ele>
        <time>2016-11-15T11:43:30Z</time>
      </trkpt>
      <trkpt lat="45.88195" lon="4.87035">
        <ele>299</ele>
        <time>2016-11-15T11:43:31Z</time>
      </trkpt>
      <trkpt lat="45.88194" lon="4.87027">
        <ele>299</ele>
        <time>2016-11-15T11:43:32Z</time>
      </trkpt>
      <trkpt lat="45.88193" lon="4.8702">
        <ele>299</ele>
        <time>2016-11-15T11:43:33Z</time>
      </trkpt>
      <trkpt lat="45.88192" lon="4.87012">
        <ele>299</ele>
        <time>2016-11-15T11:43:34Z</time>
      </trkpt>
      <trkpt lat="45.88192" lon="4.87005">
        <ele>299</ele>
        <time>2016-11-15T11:43:35Z</time>
      </trkpt>
      <trkpt lat="45.88192" lon="4.86999">
        <ele>299</ele>
        <time>2016-11-15T11:43:36Z</time>
      </trkpt>
      <trkpt lat="45.88193" lon="4.86992">
        <ele>299</ele>
        <time>2016-11-15T11:43:37Z</time>
      </trkpt>
      <trkpt lat="45.88194" lon="4.86985">
        <ele>299</ele>
        <time>2016-11-15T11:43:38Z</time>
      </trkpt>
      <trkpt lat="45.88195" lon="4.86979">
        <ele>299</ele>
        <time>2016-11-15T11:43:39Z</time>
      </trkpt>
      <trkpt lat="45.88196" lon="4.86972">
        <ele>299</ele>
        <time>2016-11-15T11:43:40Z</time>
      </trkpt>
      <trkpt lat="45.88196" lon="4.86965">
        <ele>299</ele>
        <time>2016-11-15T11:43:41Z</time>
      </trkpt>
      <trkpt lat="45.88196" lon="4.86959">
        <ele>299</ele>
        <time>2016-11-15T11:43:42Z</time>
      </trkpt>
      <trkpt lat="45.88196" lon="4.86952">
        <ele>299</ele>
        <time>2016-11-15T11:43:43Z</time>
      </trkpt>
      <trkpt lat="45.88195" lon="4.86945">
        <ele>300</ele>
        <time>2016-11-15T11:43:44Z</time>
      </trkpt>
      <trkpt lat="45.88195" lon="4.86938">
        <ele>300</ele>
        <time>2016-11-15T11:43:45Z</time>
      </trkpt>
      <trkpt lat="45.88195" lon="4.86931">
        <ele>300</ele>
        <time>2016-11-15T11:43:46Z</time>
      </trkpt>
      <trkpt lat="45.88194" lon="4.86923">
        <ele>300</ele>
        <time>2016-11-15T11:43:47Z</time>
      </trkpt>
      <trkpt lat="45.88194" lon="4.86916">
        <ele>300</ele>
        <time>2016-11-15T11:43:48Z</time>
      </trkpt>
      <trkpt lat="45.88194" lon="4.86909">
        <ele>300</ele>
        <time>2016-11-15T11:43:49Z</time>
      </trkpt>
      <trkpt lat="45.88193" lon="4.86902">
        <ele>300</ele>
        <time>2016-11-15T11:43:50Z</time>
      </trkpt>
      <trkpt lat="45.88193" lon="4.86894">
        <ele>299</ele>
        <time>2016-11-15T11:43:51Z</time>
      </trkpt>
      <trkpt lat="45.88192" lon="4.86887">
        <ele>299</ele>
        <time>2016-11-15T11:43:52Z</time>
      </trkpt>
      <trkpt lat="45.88192" lon="4.8688">
        <ele>299</ele>
        <time>2016-11-15T11:43:53Z</time>
      </trkpt>
      <trkpt lat="45.88192" lon="4.86872">
        <ele>299</ele>
        <time>2016-11-15T11:43:54Z</time>
      </trkpt>
      <trkpt lat="45.88192" lon="4.86865">
        <ele>299</ele>
        <time>2016-11-15T11:43:55Z</time>
      </trkpt>
      <trkpt lat="45.88191" lon="4.86858">
        <ele>299</ele>
        <time>2016-11-15T11:43:56Z</time>
      </trkpt>
      <trkpt lat="45.88191" lon="4.8685">
        <ele>299</ele>
        <time>2016-11-15T11:43:57Z</time>
      </trkpt>
      <trkpt lat="45.8819" lon="4.86843">
        <ele>299</ele>
        <time>2016-11-15T11:43:58Z</time>
      </trkpt>
      <trkpt lat="45.8819" lon="4.86836">
        <ele>299</ele>
        <time>2016-11-15T11:43:59Z</time>
      </trkpt>
      <trkpt lat="45.88189" lon="4.86829">
        <ele>299</ele>
        <time>2016-11-15T11:44:00Z</time>
      </trkpt>
      <trkpt lat="45.88188" lon="4.86822">
        <ele>299</ele>
        <time>2016-11-15T11:44:01Z</time>
      </trkpt>
      <trkpt lat="45.88188" lon="4.86815">
        <ele>299</ele>
        <time>2016-11-15T11:44:02Z</time>
      </trkpt>
      <trkpt lat="45.88186" lon="4.86807">
        <ele>299</ele>
        <time>2016-11-15T11:44:03Z</time>
      </trkpt>
      <trkpt lat="45.88184" lon="4.868">
        <ele>299</ele>
        <time>2016-11-15T11:44:04Z</time>
      </trkpt>
      <trkpt lat="45.88183" lon="4.86792">
        <ele>299</ele>
        <time>2016-11-15T11:44:05Z</time>
      </trkpt>
      <trkpt lat="45.88181" lon="4.86785">
        <ele>299</ele>
        <time>2016-11-15T11:44:06Z</time>
      </trkpt>
      <trkpt lat="45.88179" lon="4.86777">
        <ele>299</ele>
        <time>2016-11-15T11:44:07Z</time>
      </trkpt>
      <trkpt lat="45.88178" lon="4.86769">
        <ele>299</ele>
        <time>2016-11-15T11:44:08Z</time>
      </trkpt>
      <trkpt lat="45.88176" lon="4.86762">
        <ele>299</ele>
        <time>2016-11-15T11:44:09Z</time>
      </trkpt>
      <trkpt lat="45.88175" lon="4.86754">
        <ele>300</ele>
        <time>2016-11-15T11:44:10Z</time>
      </trkpt>
      <trkpt lat="45.88174" lon="4.86745">
        <ele>300</ele>
        <time>2016-11-15T11:44:11Z</time>
      </trkpt>
      <trkpt lat="45.88173" lon="4.86737">
        <ele>299</ele>
        <time>2016-11-15T11:44:12Z</time>
      </trkpt>
      <trkpt lat="45.88172" lon="4.86729">
        <ele>299</ele>
        <time>2016-11-15T11:44:13Z</time>
      </trkpt>
      <trkpt lat="45.88171" lon="4.8672">
        <ele>299</ele>
        <time>2016-11-15T11:44:14Z</time>
      </trkpt>
      <trkpt lat="45.88169" lon="4.86711">
        <ele>299</ele>
        <time>2016-11-15T11:44:15Z</time>
      </trkpt>
      <trkpt lat="45.88168" lon="4.86702">
        <ele>299</ele>
        <time>2016-11-15T11:44:16Z</time>
      </trkpt>
      <trkpt lat="45.88166" lon="4.86694">
        <ele>300</ele>
        <time>2016-11-15T11:44:17Z</time>
      </trkpt>
      <trkpt lat="45.88165" lon="4.86685">
        <ele>300</ele>
        <time>2016-11-15T11:44:18Z</time>
      </trkpt>
      <trkpt lat="45.88163" lon="4.86678">
        <ele>299</ele>
        <time>2016-11-15T11:44:19Z</time>
      </trkpt>
      <trkpt lat="45.88161" lon="4.8667">
        <ele>299</ele>
        <time>2016-11-15T11:44:20Z</time>
      </trkpt>
      <trkpt lat="45.8816" lon="4.86662">
        <ele>299</ele>
        <time>2016-11-15T11:44:21Z</time>
      </trkpt>
      <trkpt lat="45.88158" lon="4.86654">
        <ele>299</ele>
        <time>2016-11-15T11:44:22Z</time>
      </trkpt>
      <trkpt lat="45.88156" lon="4.86646">
        <ele>300</ele>
        <time>2016-11-15T11:44:23Z</time>
      </trkpt>
      <trkpt lat="45.88154" lon="4.86638">
        <ele>300</ele>
        <time>2016-11-15T11:44:24Z</time>
      </trkpt>
      <trkpt lat="45.88152" lon="4.8663">
        <ele>300</ele>
        <time>2016-11-15T11:44:25Z</time>
      </trkpt>
      <trkpt lat="45.8815" lon="4.86622">
        <ele>300</ele>
        <time>2016-11-15T11:44:26Z</time>
      </trkpt>
      <trkpt lat="45.88148" lon="4.86614">
        <ele>300</ele>
        <time>2016-11-15T11:44:27Z</time>
      </trkpt>
      <trkpt lat="45.88146" lon="4.86607">
        <ele>300</ele>
        <time>2016-11-15T11:44:28Z</time>
      </trkpt>
      <trkpt lat="45.88144" lon="4.86599">
        <ele>300</ele>
        <time>2016-11-15T11:44:29Z</time>
      </trkpt>
      <trkpt lat="45.88142" lon="4.86592">
        <ele>300</ele>
        <time>2016-11-15T11:44:30Z</time>
      </trkpt>
      <trkpt lat="45.8814" lon="4.86584">
        <ele>300</ele>
        <time>2016-11-15T11:44:31Z</time>
      </trkpt>
      <trkpt lat="45.88139" lon="4.86577">
        <ele>301</ele>
        <time>2016-11-15T11:44:32Z</time>
      </trkpt>
      <trkpt lat="45.88138" lon="4.86569">
        <ele>301</ele>
        <time>2016-11-15T11:44:33Z</time>
      </trkpt>
      <trkpt lat="45.88137" lon="4.86561">
        <ele>301</ele>
        <time>2016-11-15T11:44:34Z</time>
      </trkpt>
      <trkpt lat="45.88136" lon="4.86553">
        <ele>301</ele>
        <time>2016-11-15T11:44:35Z</time>
      </trkpt>
      <trkpt lat="45.88135" lon="4.86545">
        <ele>301</ele>
        <time>2016-11-15T11:44:36Z</time>
      </trkpt>
      <trkpt lat="45.88134" lon="4.86539">
        <ele>301</ele>
        <time>2016-11-15T11:44:37Z</time>
      </trkpt>
      <trkpt lat="45.88134" lon="4.86532">
        <ele>301</ele>
        <time>2016-11-15T11:44:38Z</time>
      </trkpt>
      <trkpt lat="45.88133" lon="4.86524">
        <ele>301</ele>
        <time>2016-11-15T11:44:39Z</time>
      </trkpt>
      <trkpt lat="45.88132" lon="4.86517">
        <ele>301</ele>
        <time>2016-11-15T11:44:40Z</time>
      </trkpt>
      <trkpt lat="45.88131" lon="4.86509">
        <ele>301</ele>
        <time>2016-11-15T11:44:41Z</time>
      </trkpt>
      <trkpt lat="45.8813" lon="4.86501">
        <ele>301</ele>
        <time>2016-11-15T11:44:42Z</time>
      </trkpt>
      <trkpt lat="45.88129" lon="4.86493">
        <ele>302</ele>
        <time>2016-11-15T11:44:43Z</time>
      </trkpt>
      <trkpt lat="45.88128" lon="4.86485">
        <ele>302</ele>
        <time>2016-11-15T11:44:44Z</time>
      </trkpt>
      <trkpt lat="45.88127" lon="4.86477">
        <ele>302</ele>
        <time>2016-11-15T11:44:45Z</time>
      </trkpt>
      <trkpt lat="45.88126" lon="4.8647">
        <ele>302</ele>
        <time>2016-11-15T11:44:46Z</time>
      </trkpt>
      <trkpt lat="45.88125" lon="4.86463">
        <ele>302</ele>
        <time>2016-11-15T11:44:47Z</time>
      </trkpt>
      <trkpt lat="45.88124" lon="4.86457">
        <ele>302</ele>
        <time>2016-11-15T11:44:48Z</time>
      </trkpt>
      <trkpt lat="45.88123" lon="4.8645">
        <ele>302</ele>
        <time>2016-11-15T11:44:49Z</time>
      </trkpt>
      <trkpt lat="45.88121" lon="4.86444">
        <ele>302</ele>
        <time>2016-11-15T11:44:50Z</time>
      </trkpt>
      <trkpt lat="45.8812" lon="4.86437">
        <ele>302</ele>
        <time>2016-11-15T11:44:51Z</time>
      </trkpt>
      <trkpt lat="45.88118" lon="4.8643">
        <ele>302</ele>
        <time>2016-11-15T11:44:52Z</time>
      </trkpt>
      <trkpt lat="45.88117" lon="4.86424">
        <ele>302</ele>
        <time>2016-11-15T11:44:53Z</time>
      </trkpt>
      <trkpt lat="45.88116" lon="4.86417">
        <ele>302</ele>
        <time>2016-11-15T11:44:54Z</time>
      </trkpt>
      <trkpt lat="45.88116" lon="4.86411">
        <ele>304</ele>
        <time>2016-11-15T11:44:55Z</time>
      </trkpt>
      <trkpt lat="45.88115" lon="4.86404">
        <ele>304</ele>
        <time>2016-11-15T11:44:56Z</time>
      </trkpt>
      <trkpt lat="45.88113" lon="4.86398">
        <ele>304</ele>
        <time>2016-11-15T11:44:57Z</time>
      </trkpt>
      <trkpt lat="45.88112" lon="4.86391">
        <ele>304</ele>
        <time>2016-11-15T11:44:58Z</time>
      </trkpt>
      <trkpt lat="45.88111" lon="4.86384">
        <ele>304</ele>
        <time>2016-11-15T11:44:59Z</time>
      </trkpt>
      <trkpt lat="45.8811" lon="4.86377">
        <ele>304</ele>
        <time>2016-11-15T11:45:00Z</time>
      </trkpt>
      <trkpt lat="45.8811" lon="4.86367">
        <ele>304</ele>
        <time>2016-11-15T11:45:01Z</time>
      </trkpt>
      <trkpt lat="45.88109" lon="4.8636">
        <ele>305</ele>
        <time>2016-11-15T11:45:02Z</time>
      </trkpt>
      <trkpt lat="45.88108" lon="4.86353">
        <ele>305</ele>
        <time>2016-11-15T11:45:03Z</time>
      </trkpt>
      <trkpt lat="45.88106" lon="4.86346">
        <ele>305</ele>
        <time>2016-11-15T11:45:04Z</time>
      </trkpt>
      <trkpt lat="45.88104" lon="4.86335">
        <ele>305</ele>
        <time>2016-11-15T11:45:06Z</time>
      </trkpt>
      <trkpt lat="45.88103" lon="4.8633">
        <ele>306</ele>
        <time>2016-11-15T11:45:07Z</time>
      </trkpt>
      <trkpt lat="45.88102" lon="4.86319">
        <ele>306</ele>
        <time>2016-11-15T11:45:09Z</time>
      </trkpt>
      <trkpt lat="45.881" lon="4.86314">
        <ele>306</ele>
        <time>2016-11-15T11:45:10Z</time>
      </trkpt>
      <trkpt lat="45.88098" lon="4.86303">
        <ele>306</ele>
        <time>2016-11-15T11:45:12Z</time>
      </trkpt>
      <trkpt lat="45.88097" lon="4.86298">
        <ele>306</ele>
        <time>2016-11-15T11:45:13Z</time>
      </trkpt>
      <trkpt lat="45.88095" lon="4.86286">
        <ele>306</ele>
        <time>2016-11-15T11:45:16Z</time>
      </trkpt>
      <trkpt lat="45.88095" lon="4.86285">
        <ele>306</ele>
        <time>2016-11-15T11:45:17Z</time>
      </trkpt>
      <trkpt lat="45.88094" lon="4.86278">
        <ele>306</ele>
        <time>2016-11-15T11:45:18Z</time>
      </trkpt>
      <trkpt lat="45.88092" lon="4.86272">
        <ele>306</ele>
        <time>2016-11-15T11:45:19Z</time>
      </trkpt>
      <trkpt lat="45.88088" lon="4.86261">
        <ele>306</ele>
        <time>2016-11-15T11:45:21Z</time>
      </trkpt>
      <trkpt lat="45.88086" lon="4.86255">
        <ele>306</ele>
        <time>2016-11-15T11:45:22Z</time>
      </trkpt>
      <trkpt lat="45.88083" lon="4.86248">
        <ele>306</ele>
        <time>2016-11-15T11:45:23Z</time>
      </trkpt>
      <trkpt lat="45.88081" lon="4.86241">
        <ele>306</ele>
        <time>2016-11-15T11:45:24Z</time>
      </trkpt>
      <trkpt lat="45.88079" lon="4.86235">
        <ele>306</ele>
        <time>2016-11-15T11:45:25Z</time>
      </trkpt>
      <trkpt lat="45.88077" lon="4.86229">
        <ele>306</ele>
        <time>2016-11-15T11:45:26Z</time>
      </trkpt>
      <trkpt lat="45.88074" lon="4.86223">
        <ele>306</ele>
        <time>2016-11-15T11:45:27Z</time>
      </trkpt>
      <trkpt lat="45.88072" lon="4.86217">
        <ele>306</ele>
        <time>2016-11-15T11:45:28Z</time>
      </trkpt>
      <trkpt lat="45.8807" lon="4.8621">
        <ele>306</ele>
        <time>2016-11-15T11:45:29Z</time>
      </trkpt>
      <trkpt lat="45.88068" lon="4.86204">
        <ele>306</ele>
        <time>2016-11-15T11:45:30Z</time>
      </trkpt>
      <trkpt lat="45.88066" lon="4.86198">
        <ele>306</ele>
        <time>2016-11-15T11:45:31Z</time>
      </trkpt>
      <trkpt lat="45.88063" lon="4.86191">
        <ele>306</ele>
        <time>2016-11-15T11:45:32Z</time>
      </trkpt>
      <trkpt lat="45.8806" lon="4.86185">
        <ele>306</ele>
        <time>2016-11-15T11:45:33Z</time>
      </trkpt>
      <trkpt lat="45.88058" lon="4.86178">
        <ele>306</ele>
        <time>2016-11-15T11:45:34Z</time>
      </trkpt>
      <trkpt lat="45.88055" lon="4.8617">
        <ele>306</ele>
        <time>2016-11-15T11:45:35Z</time>
      </trkpt>
      <trkpt lat="45.88053" lon="4.86163">
        <ele>304</ele>
        <time>2016-11-15T11:45:36Z</time>
      </trkpt>
      <trkpt lat="45.88051" lon="4.86156">
        <ele>304</ele>
        <time>2016-11-15T11:45:37Z</time>
      </trkpt>
      <trkpt lat="45.8805" lon="4.86148">
        <ele>304</ele>
        <time>2016-11-15T11:45:38Z</time>
      </trkpt>
      <trkpt lat="45.88048" lon="4.86141">
        <ele>304</ele>
        <time>2016-11-15T11:45:39Z</time>
      </trkpt>
      <trkpt lat="45.88045" lon="4.86134">
        <ele>304</ele>
        <time>2016-11-15T11:45:40Z</time>
      </trkpt>
      <trkpt lat="45.88044" lon="4.86126">
        <ele>304</ele>
        <time>2016-11-15T11:45:41Z</time>
      </trkpt>
      <trkpt lat="45.88042" lon="4.86119">
        <ele>304</ele>
        <time>2016-11-15T11:45:42Z</time>
      </trkpt>
      <trkpt lat="45.8804" lon="4.86111">
        <ele>304</ele>
        <time>2016-11-15T11:45:43Z</time>
      </trkpt>
      <trkpt lat="45.88039" lon="4.86103">
        <ele>304</ele>
        <time>2016-11-15T11:45:44Z</time>
      </trkpt>
      <trkpt lat="45.88037" lon="4.86095">
        <ele>303</ele>
        <time>2016-11-15T11:45:45Z</time>
      </trkpt>
      <trkpt lat="45.88036" lon="4.86087">
        <ele>303</ele>
        <time>2016-11-15T11:45:46Z</time>
      </trkpt>
      <trkpt lat="45.88034" lon="4.86078">
        <ele>301</ele>
        <time>2016-11-15T11:45:47Z</time>
      </trkpt>
      <trkpt lat="45.88031" lon="4.8607">
        <ele>301</ele>
        <time>2016-11-15T11:45:48Z</time>
      </trkpt>
      <trkpt lat="45.8803" lon="4.86061">
        <ele>301</ele>
        <time>2016-11-15T11:45:49Z</time>
      </trkpt>
      <trkpt lat="45.88028" lon="4.86052">
        <ele>301</ele>
        <time>2016-11-15T11:45:50Z</time>
      </trkpt>
      <trkpt lat="45.88027" lon="4.86041">
        <ele>301</ele>
        <time>2016-11-15T11:45:51Z</time>
      </trkpt>
      <trkpt lat="45.88025" lon="4.86031">
        <ele>300</ele>
        <time>2016-11-15T11:45:52Z</time>
      </trkpt>
      <trkpt lat="45.88023" lon="4.86022">
        <ele>300</ele>
        <time>2016-11-15T11:45:53Z</time>
      </trkpt>
      <trkpt lat="45.88021" lon="4.86013">
        <ele>300</ele>
        <time>2016-11-15T11:45:54Z</time>
      </trkpt>
      <trkpt lat="45.88018" lon="4.86006">
        <ele>300</ele>
        <time>2016-11-15T11:45:55Z</time>
      </trkpt>
      <trkpt lat="45.88014" lon="4.86001">
        <ele>300</ele>
        <time>2016-11-15T11:45:56Z</time>
      </trkpt>
      <trkpt lat="45.88009" lon="4.85999">
        <ele>299</ele>
        <time>2016-11-15T11:45:57Z</time>
      </trkpt>
      <trkpt lat="45.88003" lon="4.86">
        <ele>300</ele>
        <time>2016-11-15T11:45:58Z</time>
      </trkpt>
      <trkpt lat="45.87997" lon="4.86001">
        <ele>300</ele>
        <time>2016-11-15T11:45:59Z</time>
      </trkpt>
      <trkpt lat="45.87991" lon="4.86002">
        <ele>300</ele>
        <time>2016-11-15T11:46:00Z</time>
      </trkpt>
      <trkpt lat="45.87984" lon="4.86003">
        <ele>300</ele>
        <time>2016-11-15T11:46:01Z</time>
      </trkpt>
      <trkpt lat="45.87978" lon="4.86005">
        <ele>299</ele>
        <time>2016-11-15T11:46:02Z</time>
      </trkpt>
      <trkpt lat="45.87971" lon="4.86007">
        <ele>299</ele>
        <time>2016-11-15T11:46:03Z</time>
      </trkpt>
      <trkpt lat="45.87964" lon="4.86008">
        <ele>299</ele>
        <time>2016-11-15T11:46:04Z</time>
      </trkpt>
      <trkpt lat="45.87958" lon="4.86015">
        <ele>299</ele>
        <time>2016-11-15T11:46:05Z</time>
      </trkpt>
      <trkpt lat="45.87951" lon="4.86018">
        <ele>299</ele>
        <time>2016-11-15T11:46:06Z</time>
      </trkpt>
      <trkpt lat="45.87947" lon="4.8601">
        <ele>298</ele>
        <time>2016-11-15T11:46:07Z</time>
      </trkpt>
      <trkpt lat="45.87945" lon="4.85998">
        <ele>295</ele>
        <time>2016-11-15T11:46:08Z</time>
      </trkpt>
      <trkpt lat="45.87941" lon="4.8599">
        <ele>295</ele>
        <time>2016-11-15T11:46:09Z</time>
      </trkpt>
      <trkpt lat="45.87935" lon="4.85983">
        <ele>294</ele>
        <time>2016-11-15T11:46:10Z</time>
      </trkpt>
      <trkpt lat="45.87929" lon="4.85979">
        <ele>294</ele>
        <time>2016-11-15T11:46:11Z</time>
      </trkpt>
      <trkpt lat="45.87922" lon="4.85978">
        <ele>294</ele>
        <time>2016-11-15T11:46:12Z</time>
      </trkpt>
      <trkpt lat="45.87916" lon="4.85979">
        <ele>291</ele>
        <time>2016-11-15T11:46:13Z</time>
      </trkpt>
      <trkpt lat="45.87908" lon="4.85982">
        <ele>291</ele>
        <time>2016-11-15T11:46:14Z</time>
      </trkpt>
      <trkpt lat="45.87899" lon="4.85987">
        <ele>291</ele>
        <time>2016-11-15T11:46:15Z</time>
      </trkpt>
      <trkpt lat="45.8789" lon="4.8599">
        <ele>291</ele>
        <time>2016-11-15T11:46:16Z</time>
      </trkpt>
      <trkpt lat="45.87881" lon="4.85991">
        <ele>290</ele>
        <time>2016-11-15T11:46:17Z</time>
      </trkpt>
      <trkpt lat="45.87872" lon="4.8599">
        <ele>289</ele>
        <time>2016-11-15T11:46:18Z</time>
      </trkpt>
      <trkpt lat="45.87862" lon="4.85986">
        <ele>289</ele>
        <time>2016-11-15T11:46:19Z</time>
      </trkpt>
      <trkpt lat="45.87854" lon="4.85979">
        <ele>289</ele>
        <time>2016-11-15T11:46:20Z</time>
      </trkpt>
      <trkpt lat="45.87847" lon="4.8597">
        <ele>288</ele>
        <time>2016-11-15T11:46:21Z</time>
      </trkpt>
      <trkpt lat="45.87841" lon="4.85958">
        <ele>288</ele>
        <time>2016-11-15T11:46:22Z</time>
      </trkpt>
      <trkpt lat="45.87838" lon="4.85945">
        <ele>287</ele>
        <time>2016-11-15T11:46:23Z</time>
      </trkpt>
      <trkpt lat="45.87837" lon="4.85931">
        <ele>287</ele>
        <time>2016-11-15T11:46:24Z</time>
      </trkpt>
      <trkpt lat="45.87838" lon="4.85917">
        <ele>286</ele>
        <time>2016-11-15T11:46:25Z</time>
      </trkpt>
      <trkpt lat="45.87842" lon="4.85905">
        <ele>285</ele>
        <time>2016-11-15T11:46:26Z</time>
      </trkpt>
      <trkpt lat="45.87847" lon="4.85894">
        <ele>285</ele>
        <time>2016-11-15T11:46:27Z</time>
      </trkpt>
      <trkpt lat="45.87854" lon="4.85885">
        <ele>285</ele>
        <time>2016-11-15T11:46:28Z</time>
      </trkpt>
      <trkpt lat="45.87861" lon="4.85877">
        <ele>285</ele>
        <time>2016-11-15T11:46:29Z</time>
      </trkpt>
      <trkpt lat="45.87869" lon="4.8587">
        <ele>284</ele>
        <time>2016-11-15T11:46:30Z</time>
      </trkpt>
      <trkpt lat="45.87877" lon="4.85862">
        <ele>284</ele>
        <time>2016-11-15T11:46:31Z</time>
      </trkpt>
      <trkpt lat="45.87884" lon="4.85854">
        <ele>284</ele>
        <time>2016-11-15T11:46:32Z</time>
      </trkpt>
      <trkpt lat="45.87892" lon="4.85846">
        <ele>284</ele>
        <time>2016-11-15T11:46:33Z</time>
      </trkpt>
      <trkpt lat="45.879" lon="4.85838">
        <ele>283</ele>
        <time>2016-11-15T11:46:34Z</time>
      </trkpt>
      <trkpt lat="45.87908" lon="4.85829">
        <ele>281</ele>
        <time>2016-11-15T11:46:35Z</time>
      </trkpt>
      <trkpt lat="45.87916" lon="4.8582">
        <ele>281</ele>
        <time>2016-11-15T11:46:36Z</time>
      </trkpt>
      <trkpt lat="45.87925" lon="4.85812">
        <ele>281</ele>
        <time>2016-11-15T11:46:37Z</time>
      </trkpt>
      <trkpt lat="45.87933" lon="4.85803">
        <ele>281</ele>
        <time>2016-11-15T11:46:38Z</time>
      </trkpt>
      <trkpt lat="45.87941" lon="4.85794">
        <ele>280</ele>
        <time>2016-11-15T11:46:39Z</time>
      </trkpt>
      <trkpt lat="45.8795" lon="4.85785">
        <ele>280</ele>
        <time>2016-11-15T11:46:40Z</time>
      </trkpt>
      <trkpt lat="45.87958" lon="4.85776">
        <ele>280</ele>
        <time>2016-11-15T11:46:41Z</time>
      </trkpt>
      <trkpt lat="45.87965" lon="4.85767">
        <ele>280</ele>
        <time>2016-11-15T11:46:42Z</time>
      </trkpt>
      <trkpt lat="45.87973" lon="4.85759">
        <ele>279</ele>
        <time>2016-11-15T11:46:43Z</time>
      </trkpt>
      <trkpt lat="45.8798" lon="4.8575">
        <ele>276</ele>
        <time>2016-11-15T11:46:44Z</time>
      </trkpt>
      <trkpt lat="45.87985" lon="4.8574">
        <ele>276</ele>
        <time>2016-11-15T11:46:45Z</time>
      </trkpt>
      <trkpt lat="45.87989" lon="4.85729">
        <ele>275</ele>
        <time>2016-11-15T11:46:46Z</time>
      </trkpt>
      <trkpt lat="45.8799" lon="4.85717">
        <ele>275</ele>
        <time>2016-11-15T11:46:47Z</time>
      </trkpt>
      <trkpt lat="45.87989" lon="4.85706">
        <ele>274</ele>
        <time>2016-11-15T11:46:48Z</time>
      </trkpt>
      <trkpt lat="45.87985" lon="4.85695">
        <ele>274</ele>
        <time>2016-11-15T11:46:49Z</time>
      </trkpt>
      <trkpt lat="45.8798" lon="4.85682">
        <ele>273</ele>
        <time>2016-11-15T11:46:50Z</time>
      </trkpt>
      <trkpt lat="45.87975" lon="4.85669">
        <ele>273</ele>
        <time>2016-11-15T11:46:51Z</time>
      </trkpt>
      <trkpt lat="45.87971" lon="4.85656">
        <ele>268</ele>
        <time>2016-11-15T11:46:52Z</time>
      </trkpt>
      <trkpt lat="45.87968" lon="4.85643">
        <ele>267</ele>
        <time>2016-11-15T11:46:53Z</time>
      </trkpt>
      <trkpt lat="45.87967" lon="4.85629">
        <ele>266</ele>
        <time>2016-11-15T11:46:54Z</time>
      </trkpt>
      <trkpt lat="45.87967" lon="4.85615">
        <ele>265</ele>
        <time>2016-11-15T11:46:55Z</time>
      </trkpt>
      <trkpt lat="45.87968" lon="4.856">
        <ele>265</ele>
        <time>2016-11-15T11:46:56Z</time>
      </trkpt>
      <trkpt lat="45.87972" lon="4.85585">
        <ele>265</ele>
        <time>2016-11-15T11:46:57Z</time>
      </trkpt>
      <trkpt lat="45.87978" lon="4.85576">
        <ele>260</ele>
        <time>2016-11-15T11:46:58Z</time>
      </trkpt>
      <trkpt lat="45.87986" lon="4.85565">
        <ele>260</ele>
        <time>2016-11-15T11:46:59Z</time>
      </trkpt>
      <trkpt lat="45.87994" lon="4.85556">
        <ele>259</ele>
        <time>2016-11-15T11:47:00Z</time>
      </trkpt>
      <trkpt lat="45.88003" lon="4.85547">
        <ele>263</ele>
        <time>2016-11-15T11:47:01Z</time>
      </trkpt>
      <trkpt lat="45.88012" lon="4.85539">
        <ele>262</ele>
        <time>2016-11-15T11:47:02Z</time>
      </trkpt>
      <trkpt lat="45.88022" lon="4.8553">
        <ele>262</ele>
        <time>2016-11-15T11:47:03Z</time>
      </trkpt>
      <trkpt lat="45.8803" lon="4.85522">
        <ele>262</ele>
        <time>2016-11-15T11:47:04Z</time>
      </trkpt>
      <trkpt lat="45.8804" lon="4.85514">
        <ele>262</ele>
        <time>2016-11-15T11:47:05Z</time>
      </trkpt>
      <trkpt lat="45.88049" lon="4.85506">
        <ele>262</ele>
        <time>2016-11-15T11:47:06Z</time>
      </trkpt>
      <trkpt lat="45.88058" lon="4.85497">
        <ele>255</ele>
        <time>2016-11-15T11:47:07Z</time>
      </trkpt>
      <trkpt lat="45.88067" lon="4.85488">
        <ele>255</ele>
        <time>2016-11-15T11:47:08Z</time>
      </trkpt>
      <trkpt lat="45.88076" lon="4.85478">
        <ele>254</ele>
        <time>2016-11-15T11:47:09Z</time>
      </trkpt>
      <trkpt lat="45.88086" lon="4.85469">
        <ele>256</ele>
        <time>2016-11-15T11:47:10Z</time>
      </trkpt>
      <trkpt lat="45.88095" lon="4.8546">
        <ele>255</ele>
        <time>2016-11-15T11:47:11Z</time>
      </trkpt>
      <trkpt lat="45.88105" lon="4.85453">
        <ele>254</ele>
        <time>2016-11-15T11:47:12Z</time>
      </trkpt>
      <trkpt lat="45.88115" lon="4.85447">
        <ele>254</ele>
        <time>2016-11-15T11:47:13Z</time>
      </trkpt>
      <trkpt lat="45.88126" lon="4.85441">
        <ele>254</ele>
        <time>2016-11-15T11:47:14Z</time>
      </trkpt>
      <trkpt lat="45.88137" lon="4.85436">
        <ele>254</ele>
        <time>2016-11-15T11:47:15Z</time>
      </trkpt>
      <trkpt lat="45.88147" lon="4.85432">
        <ele>253</ele>
        <time>2016-11-15T11:47:16Z</time>
      </trkpt>
      <trkpt lat="45.88156" lon="4.85427">
        <ele>252</ele>
        <time>2016-11-15T11:47:17Z</time>
      </trkpt>
      <trkpt lat="45.88164" lon="4.85421">
        <ele>251</ele>
        <time>2016-11-15T11:47:18Z</time>
      </trkpt>
      <trkpt lat="45.88171" lon="4.85415">
        <ele>249</ele>
        <time>2016-11-15T11:47:19Z</time>
      </trkpt>
      <trkpt lat="45.88175" lon="4.85407">
        <ele>248</ele>
        <time>2016-11-15T11:47:20Z</time>
      </trkpt>
      <trkpt lat="45.88178" lon="4.85398">
        <ele>247</ele>
        <time>2016-11-15T11:47:21Z</time>
      </trkpt>
      <trkpt lat="45.88176" lon="4.85389">
        <ele>246</ele>
        <time>2016-11-15T11:47:22Z</time>
      </trkpt>
      <trkpt lat="45.88171" lon="4.85381">
        <ele>245</ele>
        <time>2016-11-15T11:47:23Z</time>
      </trkpt>
      <trkpt lat="45.88164" lon="4.85377">
        <ele>240</ele>
        <time>2016-11-15T11:47:24Z</time>
      </trkpt>
      <trkpt lat="45.88156" lon="4.85373">
        <ele>240</ele>
        <time>2016-11-15T11:47:25Z</time>
      </trkpt>
      <trkpt lat="45.88148" lon="4.85377">
        <ele>240</ele>
        <time>2016-11-15T11:47:26Z</time>
      </trkpt>
      <trkpt lat="45.8814" lon="4.85381">
        <ele>240</ele>
        <time>2016-11-15T11:47:27Z</time>
      </trkpt>
      <trkpt lat="45.88133" lon="4.85386">
        <ele>240</ele>
        <time>2016-11-15T11:47:28Z</time>
      </trkpt>
      <trkpt lat="45.88125" lon="4.8539">
        <ele>240</ele>
        <time>2016-11-15T11:47:29Z</time>
      </trkpt>
      <trkpt lat="45.88117" lon="4.85393">
        <ele>240</ele>
        <time>2016-11-15T11:47:30Z</time>
      </trkpt>
      <trkpt lat="45.88108" lon="4.85395">
        <ele>240</ele>
        <time>2016-11-15T11:47:31Z</time>
      </trkpt>
      <trkpt lat="45.88099" lon="4.85397">
        <ele>241</ele>
        <time>2016-11-15T11:47:32Z</time>
      </trkpt>
      <trkpt lat="45.8809" lon="4.85399">
        <ele>241</ele>
        <time>2016-11-15T11:47:33Z</time>
      </trkpt>
      <trkpt lat="45.88082" lon="4.85401">
        <ele>240</ele>
        <time>2016-11-15T11:47:34Z</time>
      </trkpt>
      <trkpt lat="45.88073" lon="4.85402">
        <ele>240</ele>
        <time>2016-11-15T11:47:35Z</time>
      </trkpt>
      <trkpt lat="45.88064" lon="4.85403">
        <ele>239</ele>
        <time>2016-11-15T11:47:36Z</time>
      </trkpt>
      <trkpt lat="45.88055" lon="4.85404">
        <ele>238</ele>
        <time>2016-11-15T11:47:37Z</time>
      </trkpt>
      <trkpt lat="45.88046" lon="4.85404">
        <ele>238</ele>
        <time>2016-11-15T11:47:38Z</time>
      </trkpt>
      <trkpt lat="45.88037" lon="4.85404">
        <ele>238</ele>
        <time>2016-11-15T11:47:39Z</time>
      </trkpt>
      <trkpt lat="45.88028" lon="4.85403">
        <ele>238</ele>
        <time>2016-11-15T11:47:40Z</time>
      </trkpt>
      <trkpt lat="45.88019" lon="4.854">
        <ele>238</ele>
        <time>2016-11-15T11:47:41Z</time>
      </trkpt>
      <trkpt lat="45.88011" lon="4.85394">
        <ele>238</ele>
        <time>2016-11-15T11:47:42Z</time>
      </trkpt>
      <trkpt lat="45.88003" lon="4.85387">
        <ele>237</ele>
        <time>2016-11-15T11:47:43Z</time>
      </trkpt>
      <trkpt lat="45.87997" lon="4.85379">
        <ele>237</ele>
        <time>2016-11-15T11:47:44Z</time>
      </trkpt>
      <trkpt lat="45.8799" lon="4.85369">
        <ele>236</ele>
        <time>2016-11-15T11:47:45Z</time>
      </trkpt>
      <trkpt lat="45.87984" lon="4.85359">
        <ele>235</ele>
        <time>2016-11-15T11:47:46Z</time>
      </trkpt>
      <trkpt lat="45.87977" lon="4.85349">
        <ele>235</ele>
        <time>2016-11-15T11:47:47Z</time>
      </trkpt>
      <trkpt lat="45.8797" lon="4.85339">
        <ele>234</ele>
        <time>2016-11-15T11:47:48Z</time>
      </trkpt>
      <trkpt lat="45.87963" lon="4.85329">
        <ele>229</ele>
        <time>2016-11-15T11:47:49Z</time>
      </trkpt>
      <trkpt lat="45.87956" lon="4.8532">
        <ele>229</ele>
        <time>2016-11-15T11:47:50Z</time>
      </trkpt>
      <trkpt lat="45.87949" lon="4.8531">
        <ele>229</ele>
        <time>2016-11-15T11:47:51Z</time>
      </trkpt>
      <trkpt lat="45.87941" lon="4.853">
        <ele>228</ele>
        <time>2016-11-15T11:47:52Z</time>
      </trkpt>
      <trkpt lat="45.87934" lon="4.8529">
        <ele>228</ele>
        <time>2016-11-15T11:47:53Z</time>
      </trkpt>
      <trkpt lat="45.87927" lon="4.85279">
        <ele>228</ele>
        <time>2016-11-15T11:47:54Z</time>
      </trkpt>
      <trkpt lat="45.8792" lon="4.85269">
        <ele>227</ele>
        <time>2016-11-15T11:47:55Z</time>
      </trkpt>
      <trkpt lat="45.87912" lon="4.85258">
        <ele>228</ele>
        <time>2016-11-15T11:47:56Z</time>
      </trkpt>
      <trkpt lat="45.87905" lon="4.85247">
        <ele>225</ele>
        <time>2016-11-15T11:47:57Z</time>
      </trkpt>
      <trkpt lat="45.87897" lon="4.85236">
        <ele>225</ele>
        <time>2016-11-15T11:47:58Z</time>
      </trkpt>
      <trkpt lat="45.87889" lon="4.85224">
        <ele>224</ele>
        <time>2016-11-15T11:47:59Z</time>
      </trkpt>
      <trkpt lat="45.87882" lon="4.85213">
        <ele>224</ele>
        <time>2016-11-15T11:48:00Z</time>
      </trkpt>
      <trkpt lat="45.87874" lon="4.85202">
        <ele>223</ele>
        <time>2016-11-15T11:48:01Z</time>
      </trkpt>
      <trkpt lat="45.87866" lon="4.85191">
        <ele>223</ele>
        <time>2016-11-15T11:48:02Z</time>
      </trkpt>
      <trkpt lat="45.87858" lon="4.8518">
        <ele>222</ele>
        <time>2016-11-15T11:48:03Z</time>
      </trkpt>
      <trkpt lat="45.8785" lon="4.85169">
        <ele>222</ele>
        <time>2016-11-15T11:48:04Z</time>
      </trkpt>
      <trkpt lat="45.87842" lon="4.85158">
        <ele>219</ele>
        <time>2016-11-15T11:48:05Z</time>
      </trkpt>
      <trkpt lat="45.87834" lon="4.85147">
        <ele>218</ele>
        <time>2016-11-15T11:48:06Z</time>
      </trkpt>
      <trkpt lat="45.87826" lon="4.85136">
        <ele>219</ele>
        <time>2016-11-15T11:48:07Z</time>
      </trkpt>
      <trkpt lat="45.87819" lon="4.85125">
        <ele>219</ele>
        <time>2016-11-15T11:48:08Z</time>
      </trkpt>
      <trkpt lat="45.87811" lon="4.85114">
        <ele>218</ele>
        <time>2016-11-15T11:48:09Z</time>
      </trkpt>
      <trkpt lat="45.87803" lon="4.85103">
        <ele>218</ele>
        <time>2016-11-15T11:48:10Z</time>
      </trkpt>
      <trkpt lat="45.87795" lon="4.85091">
        <ele>218</ele>
        <time>2016-11-15T11:48:11Z</time>
      </trkpt>
      <trkpt lat="45.87787" lon="4.8508">
        <ele>214</ele>
        <time>2016-11-15T11:48:12Z</time>
      </trkpt>
      <trkpt lat="45.87779" lon="4.85069">
        <ele>214</ele>
        <time>2016-11-15T11:48:13Z</time>
      </trkpt>
      <trkpt lat="45.87772" lon="4.85059">
        <ele>214</ele>
        <time>2016-11-15T11:48:14Z</time>
      </trkpt>
      <trkpt lat="45.87765" lon="4.85049">
        <ele>213</ele>
        <time>2016-11-15T11:48:15Z</time>
      </trkpt>
      <trkpt lat="45.87758" lon="4.8504">
        <ele>213</ele>
        <time>2016-11-15T11:48:16Z</time>
      </trkpt>
      <trkpt lat="45.87751" lon="4.8503">
        <ele>212</ele>
        <time>2016-11-15T11:48:17Z</time>
      </trkpt>
      <trkpt lat="45.87744" lon="4.8502">
        <ele>214</ele>
        <time>2016-11-15T11:48:18Z</time>
      </trkpt>
      <trkpt lat="45.87736" lon="4.85011">
        <ele>213</ele>
        <time>2016-11-15T11:48:19Z</time>
      </trkpt>
      <trkpt lat="45.8773" lon="4.85001">
        <ele>214</ele>
        <time>2016-11-15T11:48:20Z</time>
      </trkpt>
      <trkpt lat="45.87723" lon="4.8499">
        <ele>210</ele>
        <time>2016-11-15T11:48:21Z</time>
      </trkpt>
      <trkpt lat="45.87715" lon="4.8498">
        <ele>210</ele>
        <time>2016-11-15T11:48:22Z</time>
      </trkpt>
      <trkpt lat="45.87708" lon="4.84969">
        <ele>210</ele>
        <time>2016-11-15T11:48:23Z</time>
      </trkpt>
      <trkpt lat="45.87701" lon="4.84959">
        <ele>210</ele>
        <time>2016-11-15T11:48:24Z</time>
      </trkpt>
      <trkpt lat="45.87694" lon="4.84949">
        <ele>210</ele>
        <time>2016-11-15T11:48:25Z</time>
      </trkpt>
      <trkpt lat="45.87687" lon="4.84939">
        <ele>209</ele>
        <time>2016-11-15T11:48:26Z</time>
      </trkpt>
      <trkpt lat="45.8768" lon="4.84929">
        <ele>209</ele>
        <time>2016-11-15T11:48:27Z</time>
      </trkpt>
      <trkpt lat="45.87673" lon="4.84918">
        <ele>208</ele>
        <time>2016-11-15T11:48:28Z</time>
      </trkpt>
      <trkpt lat="45.87666" lon="4.84909">
        <ele>207</ele>
        <time>2016-11-15T11:48:29Z</time>
      </trkpt>
      <trkpt lat="45.87658" lon="4.84901">
        <ele>206</ele>
        <time>2016-11-15T11:48:30Z</time>
      </trkpt>
      <trkpt lat="45.87651" lon="4.84892">
        <ele>206</ele>
        <time>2016-11-15T11:48:31Z</time>
      </trkpt>
      <trkpt lat="45.87646" lon="4.84885">
        <ele>205</ele>
        <time>2016-11-15T11:48:32Z</time>
      </trkpt>
      <trkpt lat="45.87641" lon="4.84877">
        <ele>205</ele>
        <time>2016-11-15T11:48:33Z</time>
      </trkpt>
      <trkpt lat="45.8764" lon="4.84867">
        <ele>205</ele>
        <time>2016-11-15T11:48:34Z</time>
      </trkpt>
      <trkpt lat="45.8764" lon="4.84857">
        <ele>204</ele>
        <time>2016-11-15T11:48:35Z</time>
      </trkpt>
      <trkpt lat="45.8764" lon="4.84847">
        <ele>204</ele>
        <time>2016-11-15T11:48:36Z</time>
      </trkpt>
      <trkpt lat="45.87639" lon="4.84838">
        <ele>204</ele>
        <time>2016-11-15T11:48:37Z</time>
      </trkpt>
      <trkpt lat="45.87637" lon="4.84829">
        <ele>200</ele>
        <time>2016-11-15T11:48:38Z</time>
      </trkpt>
      <trkpt lat="45.87634" lon="4.84819">
        <ele>200</ele>
        <time>2016-11-15T11:48:39Z</time>
      </trkpt>
      <trkpt lat="45.87633" lon="4.84808">
        <ele>200</ele>
        <time>2016-11-15T11:48:40Z</time>
      </trkpt>
      <trkpt lat="45.87634" lon="4.84796">
        <ele>199</ele>
        <time>2016-11-15T11:48:41Z</time>
      </trkpt>
      <trkpt lat="45.87635" lon="4.84784">
        <ele>199</ele>
        <time>2016-11-15T11:48:42Z</time>
      </trkpt>
      <trkpt lat="45.87636" lon="4.84772">
        <ele>199</ele>
        <time>2016-11-15T11:48:43Z</time>
      </trkpt>
      <trkpt lat="45.87638" lon="4.8476">
        <ele>198</ele>
        <time>2016-11-15T11:48:44Z</time>
      </trkpt>
      <trkpt lat="45.8764" lon="4.84747">
        <ele>195</ele>
        <time>2016-11-15T11:48:45Z</time>
      </trkpt>
      <trkpt lat="45.87642" lon="4.84734">
        <ele>195</ele>
        <time>2016-11-15T11:48:46Z</time>
      </trkpt>
      <trkpt lat="45.87643" lon="4.84719">
        <ele>195</ele>
        <time>2016-11-15T11:48:47Z</time>
      </trkpt>
      <trkpt lat="45.87644" lon="4.84705">
        <ele>194</ele>
        <time>2016-11-15T11:48:48Z</time>
      </trkpt>
      <trkpt lat="45.87646" lon="4.84691">
        <ele>194</ele>
        <time>2016-11-15T11:48:49Z</time>
      </trkpt>
      <trkpt lat="45.87648" lon="4.84677">
        <ele>193</ele>
        <time>2016-11-15T11:48:50Z</time>
      </trkpt>
      <trkpt lat="45.87649" lon="4.84663">
        <ele>191</ele>
        <time>2016-11-15T11:48:51Z</time>
      </trkpt>
      <trkpt lat="45.8765" lon="4.84648">
        <ele>191</ele>
        <time>2016-11-15T11:48:52Z</time>
      </trkpt>
      <trkpt lat="45.87652" lon="4.84634">
        <ele>191</ele>
        <time>2016-11-15T11:48:53Z</time>
      </trkpt>
      <trkpt lat="45.87653" lon="4.8462">
        <ele>191</ele>
        <time>2016-11-15T11:48:54Z</time>
      </trkpt>
      <trkpt lat="45.87654" lon="4.84606">
        <ele>190</ele>
        <time>2016-11-15T11:48:55Z</time>
      </trkpt>
      <trkpt lat="45.87656" lon="4.84593">
        <ele>190</ele>
        <time>2016-11-15T11:48:56Z</time>
      </trkpt>
      <trkpt lat="45.87657" lon="4.84579">
        <ele>189</ele>
        <time>2016-11-15T11:48:57Z</time>
      </trkpt>
      <trkpt lat="45.87658" lon="4.84566">
        <ele>189</ele>
        <time>2016-11-15T11:48:58Z</time>
      </trkpt>
      <trkpt lat="45.8766" lon="4.84554">
        <ele>189</ele>
        <time>2016-11-15T11:48:59Z</time>
      </trkpt>
      <trkpt lat="45.87662" lon="4.84542">
        <ele>189</ele>
        <time>2016-11-15T11:49:00Z</time>
      </trkpt>
      <trkpt lat="45.87664" lon="4.84531">
        <ele>189</ele>
        <time>2016-11-15T11:49:01Z</time>
      </trkpt>
      <trkpt lat="45.87664" lon="4.84519">
        <ele>189</ele>
        <time>2016-11-15T11:49:02Z</time>
      </trkpt>
      <trkpt lat="45.87663" lon="4.84508">
        <ele>188</ele>
        <time>2016-11-15T11:49:03Z</time>
      </trkpt>
      <trkpt lat="45.87662" lon="4.84497">
        <ele>188</ele>
        <time>2016-11-15T11:49:04Z</time>
      </trkpt>
      <trkpt lat="45.87659" lon="4.84486">
        <ele>188</ele>
        <time>2016-11-15T11:49:05Z</time>
      </trkpt>
      <trkpt lat="45.87657" lon="4.84475">
        <ele>187</ele>
        <time>2016-11-15T11:49:06Z</time>
      </trkpt>
      <trkpt lat="45.87656" lon="4.84464">
        <ele>187</ele>
        <time>2016-11-15T11:49:07Z</time>
      </trkpt>
      <trkpt lat="45.87655" lon="4.84454">
        <ele>187</ele>
        <time>2016-11-15T11:49:08Z</time>
      </trkpt>
      <trkpt lat="45.87656" lon="4.84443">
        <ele>187</ele>
        <time>2016-11-15T11:49:09Z</time>
      </trkpt>
      <trkpt lat="45.87656" lon="4.84434">
        <ele>187</ele>
        <time>2016-11-15T11:49:10Z</time>
      </trkpt>
      <trkpt lat="45.87656" lon="4.84423">
        <ele>186</ele>
        <time>2016-11-15T11:49:11Z</time>
      </trkpt>
      <trkpt lat="45.87655" lon="4.84412">
        <ele>185</ele>
        <time>2016-11-15T11:49:12Z</time>
      </trkpt>
      <trkpt lat="45.87654" lon="4.84401">
        <ele>185</ele>
        <time>2016-11-15T11:49:13Z</time>
      </trkpt>
      <trkpt lat="45.87652" lon="4.84389">
        <ele>185</ele>
        <time>2016-11-15T11:49:14Z</time>
      </trkpt>
      <trkpt lat="45.87652" lon="4.84377">
        <ele>184</ele>
        <time>2016-11-15T11:49:15Z</time>
      </trkpt>
      <trkpt lat="45.8765" lon="4.84365">
        <ele>184</ele>
        <time>2016-11-15T11:49:16Z</time>
      </trkpt>
      <trkpt lat="45.8765" lon="4.84354">
        <ele>184</ele>
        <time>2016-11-15T11:49:17Z</time>
      </trkpt>
      <trkpt lat="45.87649" lon="4.84345">
        <ele>183</ele>
        <time>2016-11-15T11:49:18Z</time>
      </trkpt>
      <trkpt lat="45.87649" lon="4.84337">
        <ele>183</ele>
        <time>2016-11-15T11:49:19Z</time>
      </trkpt>
      <trkpt lat="45.87649" lon="4.8433">
        <ele>182</ele>
        <time>2016-11-15T11:49:20Z</time>
      </trkpt>
      <trkpt lat="45.8765" lon="4.84324">
        <ele>182</ele>
        <time>2016-11-15T11:49:21Z</time>
      </trkpt>
      <trkpt lat="45.87652" lon="4.84317">
        <ele>182</ele>
        <time>2016-11-15T11:49:22Z</time>
      </trkpt>
      <trkpt lat="45.87651" lon="4.84311">
        <ele>182</ele>
        <time>2016-11-15T11:49:23Z</time>
      </trkpt>
      <trkpt lat="45.87649" lon="4.84304">
        <ele>181</ele>
        <time>2016-11-15T11:49:24Z</time>
      </trkpt>
      <trkpt lat="45.87645" lon="4.84299">
        <ele>181</ele>
        <time>2016-11-15T11:49:25Z</time>
      </trkpt>
      <trkpt lat="45.8764" lon="4.84295">
        <ele>181</ele>
        <time>2016-11-15T11:49:26Z</time>
      </trkpt>
      <trkpt lat="45.87635" lon="4.84291">
        <ele>181</ele>
        <time>2016-11-15T11:49:27Z</time>
      </trkpt>
      <trkpt lat="45.8763" lon="4.84285">
        <ele>181</ele>
        <time>2016-11-15T11:49:28Z</time>
      </trkpt>
      <trkpt lat="45.87625" lon="4.8428">
        <ele>181</ele>
        <time>2016-11-15T11:49:29Z</time>
      </trkpt>
      <trkpt lat="45.8762" lon="4.84274">
        <ele>180</ele>
        <time>2016-11-15T11:49:30Z</time>
      </trkpt>
      <trkpt lat="45.87615" lon="4.84268">
        <ele>180</ele>
        <time>2016-11-15T11:49:31Z</time>
      </trkpt>
      <trkpt lat="45.8761" lon="4.84263">
        <ele>180</ele>
        <time>2016-11-15T11:49:32Z</time>
      </trkpt>
      <trkpt lat="45.87605" lon="4.84257">
        <ele>180</ele>
        <time>2016-11-15T11:49:33Z</time>
      </trkpt>
      <trkpt lat="45.87599" lon="4.84251">
        <ele>179</ele>
        <time>2016-11-15T11:49:34Z</time>
      </trkpt>
      <trkpt lat="45.87594" lon="4.84245">
        <ele>178</ele>
        <time>2016-11-15T11:49:35Z</time>
      </trkpt>
      <trkpt lat="45.87589" lon="4.84239">
        <ele>178</ele>
        <time>2016-11-15T11:49:36Z</time>
      </trkpt>
      <trkpt lat="45.87583" lon="4.84235">
        <ele>179</ele>
        <time>2016-11-15T11:49:37Z</time>
      </trkpt>
      <trkpt lat="45.87577" lon="4.84229">
        <ele>179</ele>
        <time>2016-11-15T11:49:38Z</time>
      </trkpt>
      <trkpt lat="45.87573" lon="4.84224">
        <ele>179</ele>
        <time>2016-11-15T11:49:39Z</time>
      </trkpt>
      <trkpt lat="45.87568" lon="4.84218">
        <ele>179</ele>
        <time>2016-11-15T11:49:40Z</time>
      </trkpt>
      <trkpt lat="45.87563" lon="4.84212">
        <ele>179</ele>
        <time>2016-11-15T11:49:41Z</time>
      </trkpt>
      <trkpt lat="45.87557" lon="4.84206">
        <ele>179</ele>
        <time>2016-11-15T11:49:42Z</time>
      </trkpt>
      <trkpt lat="45.87552" lon="4.842">
        <ele>179</ele>
        <time>2016-11-15T11:49:43Z</time>
      </trkpt>
      <trkpt lat="45.87547" lon="4.84194">
        <ele>179</ele>
        <time>2016-11-15T11:49:44Z</time>
      </trkpt>
      <trkpt lat="45.87543" lon="4.84189">
        <ele>179</ele>
        <time>2016-11-15T11:49:45Z</time>
      </trkpt>
      <trkpt lat="45.87538" lon="4.84184">
        <ele>179</ele>
        <time>2016-11-15T11:49:46Z</time>
      </trkpt>
      <trkpt lat="45.87532" lon="4.84176">
        <ele>179</ele>
        <time>2016-11-15T11:49:48Z</time>
      </trkpt>
      <trkpt lat="45.87528" lon="4.84172">
        <ele>179</ele>
        <time>2016-11-15T11:49:49Z</time>
      </trkpt>
      <trkpt lat="45.87521" lon="4.84166">
        <ele>178</ele>
        <time>2016-11-15T11:49:51Z</time>
      </trkpt>
      <trkpt lat="45.87519" lon="4.84161">
        <ele>178</ele>
        <time>2016-11-15T11:49:52Z</time>
      </trkpt>
      <trkpt lat="45.87517" lon="4.84155">
        <ele>178</ele>
        <time>2016-11-15T11:49:53Z</time>
      </trkpt>
      <trkpt lat="45.87515" lon="4.84148">
        <ele>178</ele>
        <time>2016-11-15T11:49:54Z</time>
      </trkpt>
      <trkpt lat="45.87514" lon="4.84138">
        <ele>178</ele>
        <time>2016-11-15T11:49:55Z</time>
      </trkpt>
      <trkpt lat="45.87514" lon="4.84129">
        <ele>178</ele>
        <time>2016-11-15T11:49:56Z</time>
      </trkpt>
      <trkpt lat="45.87513" lon="4.84121">
        <ele>178</ele>
        <time>2016-11-15T11:49:57Z</time>
      </trkpt>
      <trkpt lat="45.87513" lon="4.84112">
        <ele>177</ele>
        <time>2016-11-15T11:49:58Z</time>
      </trkpt>
      <trkpt lat="45.87512" lon="4.84105">
        <ele>177</ele>
        <time>2016-11-15T11:49:59Z</time>
      </trkpt>
      <trkpt lat="45.87512" lon="4.84098">
        <ele>177</ele>
        <time>2016-11-15T11:50:00Z</time>
      </trkpt>
      <trkpt lat="45.87511" lon="4.8409">
        <ele>177</ele>
        <time>2016-11-15T11:50:01Z</time>
      </trkpt>
      <trkpt lat="45.87511" lon="4.8408">
        <ele>176</ele>
        <time>2016-11-15T11:50:02Z</time>
      </trkpt>
      <trkpt lat="45.87511" lon="4.84071">
        <ele>176</ele>
        <time>2016-11-15T11:50:03Z</time>
      </trkpt>
      <trkpt lat="45.87512" lon="4.84062">
        <ele>176</ele>
        <time>2016-11-15T11:50:04Z</time>
      </trkpt>
      <trkpt lat="45.87512" lon="4.84054">
        <ele>176</ele>
        <time>2016-11-15T11:50:05Z</time>
      </trkpt>
      <trkpt lat="45.87511" lon="4.84046">
        <ele>176</ele>
        <time>2016-11-15T11:50:06Z</time>
      </trkpt>
      <trkpt lat="45.87511" lon="4.84038">
        <ele>176</ele>
        <time>2016-11-15T11:50:07Z</time>
      </trkpt>
      <trkpt lat="45.8751" lon="4.8403">
        <ele>176</ele>
        <time>2016-11-15T11:50:08Z</time>
      </trkpt>
      <trkpt lat="45.87508" lon="4.84023">
        <ele>175</ele>
        <time>2016-11-15T11:50:09Z</time>
      </trkpt>
      <trkpt lat="45.87507" lon="4.84015">
        <ele>175</ele>
        <time>2016-11-15T11:50:10Z</time>
      </trkpt>
      <trkpt lat="45.87506" lon="4.84007">
        <ele>175</ele>
        <time>2016-11-15T11:50:11Z</time>
      </trkpt>
      <trkpt lat="45.87506" lon="4.83999">
        <ele>174</ele>
        <time>2016-11-15T11:50:12Z</time>
      </trkpt>
      <trkpt lat="45.87505" lon="4.83991">
        <ele>174</ele>
        <time>2016-11-15T11:50:13Z</time>
      </trkpt>
      <trkpt lat="45.87506" lon="4.83982">
        <ele>174</ele>
        <time>2016-11-15T11:50:14Z</time>
      </trkpt>
      <trkpt lat="45.87507" lon="4.83972">
        <ele>174</ele>
        <time>2016-11-15T11:50:15Z</time>
      </trkpt>
      <trkpt lat="45.87509" lon="4.83963">
        <ele>174</ele>
        <time>2016-11-15T11:50:16Z</time>
      </trkpt>
      <trkpt lat="45.8751" lon="4.83954">
        <ele>174</ele>
        <time>2016-11-15T11:50:17Z</time>
      </trkpt>
      <trkpt lat="45.87512" lon="4.83944">
        <ele>174</ele>
        <time>2016-11-15T11:50:18Z</time>
      </trkpt>
      <trkpt lat="45.87513" lon="4.83935">
        <ele>174</ele>
        <time>2016-11-15T11:50:19Z</time>
      </trkpt>
      <trkpt lat="45.87515" lon="4.83926">
        <ele>174</ele>
        <time>2016-11-15T11:50:20Z</time>
      </trkpt>
      <trkpt lat="45.87516" lon="4.83916">
        <ele>173</ele>
        <time>2016-11-15T11:50:21Z</time>
      </trkpt>
      <trkpt lat="45.87518" lon="4.83907">
        <ele>173</ele>
        <time>2016-11-15T11:50:22Z</time>
      </trkpt>
      <trkpt lat="45.8752" lon="4.83899">
        <ele>173</ele>
        <time>2016-11-15T11:50:23Z</time>
      </trkpt>
      <trkpt lat="45.87525" lon="4.83893">
        <ele>173</ele>
        <time>2016-11-15T11:50:24Z</time>
      </trkpt>
      <trkpt lat="45.87529" lon="4.83887">
        <ele>173</ele>
        <time>2016-11-15T11:50:25Z</time>
      </trkpt>
      <trkpt lat="45.87534" lon="4.83882">
        <ele>173</ele>
        <time>2016-11-15T11:50:26Z</time>
      </trkpt>
      <trkpt lat="45.87539" lon="4.83877">
        <ele>173</ele>
        <time>2016-11-15T11:50:27Z</time>
      </trkpt>
      <trkpt lat="45.87544" lon="4.83873">
        <ele>173</ele>
        <time>2016-11-15T11:50:28Z</time>
      </trkpt>
      <trkpt lat="45.87549" lon="4.83869">
        <ele>173</ele>
        <time>2016-11-15T11:50:29Z</time>
      </trkpt>
      <trkpt lat="45.87555" lon="4.83866">
        <ele>173</ele>
        <time>2016-11-15T11:50:30Z</time>
      </trkpt>
      <trkpt lat="45.8756" lon="4.83863">
        <ele>173</ele>
        <time>2016-11-15T11:50:31Z</time>
      </trkpt>
      <trkpt lat="45.87566" lon="4.83861">
        <ele>173</ele>
        <time>2016-11-15T11:50:32Z</time>
      </trkpt>
      <trkpt lat="45.87572" lon="4.83859">
        <ele>173</ele>
        <time>2016-11-15T11:50:33Z</time>
      </trkpt>
      <trkpt lat="45.87578" lon="4.83857">
        <ele>173</ele>
        <time>2016-11-15T11:50:34Z</time>
      </trkpt>
      <trkpt lat="45.87584" lon="4.83854">
        <ele>173</ele>
        <time>2016-11-15T11:50:35Z</time>
      </trkpt>
      <trkpt lat="45.8759" lon="4.83853">
        <ele>173</ele>
        <time>2016-11-15T11:50:36Z</time>
      </trkpt>
      <trkpt lat="45.87595" lon="4.83851">
        <ele>173</ele>
        <time>2016-11-15T11:50:37Z</time>
      </trkpt>
      <trkpt lat="45.87601" lon="4.8385">
        <ele>173</ele>
        <time>2016-11-15T11:50:38Z</time>
      </trkpt>
      <trkpt lat="45.87607" lon="4.83849">
        <ele>173</ele>
        <time>2016-11-15T11:50:39Z</time>
      </trkpt>
      <trkpt lat="45.87612" lon="4.83848">
        <ele>173</ele>
        <time>2016-11-15T11:50:40Z</time>
      </trkpt>
      <trkpt lat="45.87618" lon="4.83848">
        <ele>173</ele>
        <time>2016-11-15T11:50:41Z</time>
      </trkpt>
      <trkpt lat="45.87623" lon="4.83847">
        <ele>173</ele>
        <time>2016-11-15T11:50:42Z</time>
      </trkpt>
      <trkpt lat="45.87628" lon="4.83847">
        <ele>173</ele>
        <time>2016-11-15T11:50:43Z</time>
      </trkpt>
      <trkpt lat="45.87633" lon="4.83847">
        <ele>173</ele>
        <time>2016-11-15T11:50:44Z</time>
      </trkpt>
      <trkpt lat="45.87639" lon="4.83847">
        <ele>173</ele>
        <time>2016-11-15T11:50:45Z</time>
      </trkpt>
      <trkpt lat="45.87644" lon="4.83848">
        <ele>173</ele>
        <time>2016-11-15T11:50:46Z</time>
      </trkpt>
      <trkpt lat="45.8765" lon="4.83849">
        <ele>173</ele>
        <time>2016-11-15T11:50:47Z</time>
      </trkpt>
      <trkpt lat="45.87655" lon="4.83849">
        <ele>173</ele>
        <time>2016-11-15T11:50:48Z</time>
      </trkpt>
      <trkpt lat="45.8766" lon="4.83848">
        <ele>172</ele>
        <time>2016-11-15T11:50:49Z</time>
      </trkpt>
      <trkpt lat="45.87664" lon="4.83848">
        <ele>172</ele>
        <time>2016-11-15T11:50:50Z</time>
      </trkpt>
      <trkpt lat="45.87673" lon="4.83849">
        <ele>172</ele>
        <time>2016-11-15T11:50:52Z</time>
      </trkpt>
      <trkpt lat="45.87677" lon="4.8385">
        <ele>172</ele>
        <time>2016-11-15T11:50:53Z</time>
      </trkpt>
      <trkpt lat="45.87684" lon="4.83851">
        <ele>172</ele>
        <time>2016-11-15T11:50:55Z</time>
      </trkpt>
      <trkpt lat="45.87688" lon="4.83851">
        <ele>172</ele>
        <time>2016-11-15T11:50:56Z</time>
      </trkpt>
      <trkpt lat="45.87695" lon="4.83853">
        <ele>172</ele>
        <time>2016-11-15T11:50:58Z</time>
      </trkpt>
      <trkpt lat="45.87698" lon="4.83856">
        <ele>172</ele>
        <time>2016-11-15T11:50:59Z</time>
      </trkpt>
      <trkpt lat="45.87707" lon="4.83857">
        <ele>172</ele>
        <time>2016-11-15T11:51:01Z</time>
      </trkpt>
      <trkpt lat="45.87711" lon="4.83856">
        <ele>172</ele>
        <time>2016-11-15T11:51:02Z</time>
      </trkpt>
      <trkpt lat="45.87714" lon="4.83845">
        <ele>172</ele>
        <time>2016-11-15T11:51:04Z</time>
      </trkpt>
      <trkpt lat="45.87713" lon="4.83839">
        <ele>172</ele>
        <time>2016-11-15T11:51:05Z</time>
      </trkpt>
      <trkpt lat="45.8771" lon="4.83833">
        <ele>169</ele>
        <time>2016-11-15T11:51:06Z</time>
      </trkpt>
      <trkpt lat="45.87707" lon="4.83828">
        <ele>169</ele>
        <time>2016-11-15T11:51:07Z</time>
      </trkpt>
      <trkpt lat="45.87702" lon="4.83818">
        <ele>169</ele>
        <time>2016-11-15T11:51:09Z</time>
      </trkpt>
      <trkpt lat="45.877" lon="4.83811">
        <ele>169</ele>
        <time>2016-11-15T11:51:10Z</time>
      </trkpt>
      <trkpt lat="45.87699" lon="4.83805">
        <ele>169</ele>
        <time>2016-11-15T11:51:11Z</time>
      </trkpt>
      <trkpt lat="45.87699" lon="4.83798">
        <ele>169</ele>
        <time>2016-11-15T11:51:12Z</time>
      </trkpt>
      <trkpt lat="45.87698" lon="4.83786">
        <ele>168</ele>
        <time>2016-11-15T11:51:14Z</time>
      </trkpt>
      <trkpt lat="45.87698" lon="4.8378">
        <ele>168</ele>
        <time>2016-11-15T11:51:15Z</time>
      </trkpt>
      <trkpt lat="45.87697" lon="4.83767">
        <ele>167</ele>
        <time>2016-11-15T11:51:17Z</time>
      </trkpt>
      <trkpt lat="45.87697" lon="4.83761">
        <ele>167</ele>
        <time>2016-11-15T11:51:18Z</time>
      </trkpt>
      <trkpt lat="45.87696" lon="4.83749">
        <ele>165</ele>
        <time>2016-11-15T11:51:20Z</time>
      </trkpt>
      <trkpt lat="45.87695" lon="4.83744">
        <ele>165</ele>
        <time>2016-11-15T11:51:21Z</time>
      </trkpt>
      <trkpt lat="45.87693" lon="4.83731">
        <ele>165</ele>
        <time>2016-11-15T11:51:23Z</time>
      </trkpt>
      <trkpt lat="45.87693" lon="4.83725">
        <ele>165</ele>
        <time>2016-11-15T11:51:24Z</time>
      </trkpt>
      <trkpt lat="45.87691" lon="4.83713">
        <ele>165</ele>
        <time>2016-11-15T11:51:26Z</time>
      </trkpt>
      <trkpt lat="45.87691" lon="4.83707">
        <ele>165</ele>
        <time>2016-11-15T11:51:27Z</time>
      </trkpt>
      <trkpt lat="45.8769" lon="4.83695">
        <ele>165</ele>
        <time>2016-11-15T11:51:29Z</time>
      </trkpt>
      <trkpt lat="45.87689" lon="4.83688">
        <ele>165</ele>
        <time>2016-11-15T11:51:30Z</time>
      </trkpt>
      <trkpt lat="45.87689" lon="4.83682">
        <ele>165</ele>
        <time>2016-11-15T11:51:31Z</time>
      </trkpt>
      <trkpt lat="45.87688" lon="4.83674">
        <ele>165</ele>
        <time>2016-11-15T11:51:32Z</time>
      </trkpt>
      <trkpt lat="45.87688" lon="4.83667">
        <ele>165</ele>
        <time>2016-11-15T11:51:33Z</time>
      </trkpt>
      <trkpt lat="45.87687" lon="4.8366">
        <ele>165</ele>
        <time>2016-11-15T11:51:34Z</time>
      </trkpt>
      <trkpt lat="45.87686" lon="4.83652">
        <ele>165</ele>
        <time>2016-11-15T11:51:35Z</time>
      </trkpt>
      <trkpt lat="45.87685" lon="4.83645">
        <ele>165</ele>
        <time>2016-11-15T11:51:36Z</time>
      </trkpt>
      <trkpt lat="45.87685" lon="4.83638">
        <ele>165</ele>
        <time>2016-11-15T11:51:37Z</time>
      </trkpt>
      <trkpt lat="45.87684" lon="4.8363">
        <ele>165</ele>
        <time>2016-11-15T11:51:38Z</time>
      </trkpt>
      <trkpt lat="45.87684" lon="4.83622">
        <ele>165</ele>
        <time>2016-11-15T11:51:39Z</time>
      </trkpt>
      <trkpt lat="45.87685" lon="4.83614">
        <ele>165</ele>
        <time>2016-11-15T11:51:40Z</time>
      </trkpt>
      <trkpt lat="45.87684" lon="4.83606">
        <ele>165</ele>
        <time>2016-11-15T11:51:41Z</time>
      </trkpt>
      <trkpt lat="45.87684" lon="4.83598">
        <ele>165</ele>
        <time>2016-11-15T11:51:42Z</time>
      </trkpt>
      <trkpt lat="45.87683" lon="4.83589">
        <ele>165</ele>
        <time>2016-11-15T11:51:43Z</time>
      </trkpt>
      <trkpt lat="45.87682" lon="4.8358">
        <ele>166</ele>
        <time>2016-11-15T11:51:44Z</time>
      </trkpt>
      <trkpt lat="45.87682" lon="4.83573">
        <ele>167</ele>
        <time>2016-11-15T11:51:45Z</time>
      </trkpt>
      <trkpt lat="45.87683" lon="4.83567">
        <ele>167</ele>
        <time>2016-11-15T11:51:46Z</time>
      </trkpt>
      <trkpt lat="45.87685" lon="4.83561">
        <ele>167</ele>
        <time>2016-11-15T11:51:47Z</time>
      </trkpt>
      <trkpt lat="45.87688" lon="4.83555">
        <ele>168</ele>
        <time>2016-11-15T11:51:48Z</time>
      </trkpt>
      <trkpt lat="45.87692" lon="4.83551">
        <ele>168</ele>
        <time>2016-11-15T11:51:49Z</time>
      </trkpt>
      <trkpt lat="45.87696" lon="4.83546">
        <ele>168</ele>
        <time>2016-11-15T11:51:50Z</time>
      </trkpt>
      <trkpt lat="45.87701" lon="4.83541">
        <ele>168</ele>
        <time>2016-11-15T11:51:51Z</time>
      </trkpt>
      <trkpt lat="45.87706" lon="4.83536">
        <ele>169</ele>
        <time>2016-11-15T11:51:52Z</time>
      </trkpt>
      <trkpt lat="45.87711" lon="4.83531">
        <ele>169</ele>
        <time>2016-11-15T11:51:53Z</time>
      </trkpt>
      <trkpt lat="45.87715" lon="4.83525">
        <ele>169</ele>
        <time>2016-11-15T11:51:54Z</time>
      </trkpt>
      <trkpt lat="45.8772" lon="4.83519">
        <ele>170</ele>
        <time>2016-11-15T11:51:55Z</time>
      </trkpt>
      <trkpt lat="45.87725" lon="4.83513">
        <ele>170</ele>
        <time>2016-11-15T11:51:56Z</time>
      </trkpt>
      <trkpt lat="45.8773" lon="4.83507">
        <ele>170</ele>
        <time>2016-11-15T11:51:57Z</time>
      </trkpt>
      <trkpt lat="45.87735" lon="4.83501">
        <ele>171</ele>
        <time>2016-11-15T11:51:58Z</time>
      </trkpt>
      <trkpt lat="45.8774" lon="4.83495">
        <ele>173</ele>
        <time>2016-11-15T11:51:59Z</time>
      </trkpt>
      <trkpt lat="45.87744" lon="4.83489">
        <ele>173</ele>
        <time>2016-11-15T11:52:00Z</time>
      </trkpt>
      <trkpt lat="45.87749" lon="4.83483">
        <ele>172</ele>
        <time>2016-11-15T11:52:01Z</time>
      </trkpt>
      <trkpt lat="45.87753" lon="4.83478">
        <ele>171</ele>
        <time>2016-11-15T11:52:02Z</time>
      </trkpt>
      <trkpt lat="45.87756" lon="4.83472">
        <ele>170</ele>
        <time>2016-11-15T11:52:03Z</time>
      </trkpt>
      <trkpt lat="45.8776" lon="4.83467">
        <ele>170</ele>
        <time>2016-11-15T11:52:04Z</time>
      </trkpt>
      <trkpt lat="45.87764" lon="4.83461">
        <ele>170</ele>
        <time>2016-11-15T11:52:05Z</time>
      </trkpt>
      <trkpt lat="45.87768" lon="4.83455">
        <ele>170</ele>
        <time>2016-11-15T11:52:06Z</time>
      </trkpt>
      <trkpt lat="45.87772" lon="4.83448">
        <ele>170</ele>
        <time>2016-11-15T11:52:07Z</time>
      </trkpt>
      <trkpt lat="45.87776" lon="4.83442">
        <ele>169</ele>
        <time>2016-11-15T11:52:08Z</time>
      </trkpt>
      <trkpt lat="45.8778" lon="4.83436">
        <ele>169</ele>
        <time>2016-11-15T11:52:09Z</time>
      </trkpt>
      <trkpt lat="45.87783" lon="4.83427">
        <ele>169</ele>
        <time>2016-11-15T11:52:10Z</time>
      </trkpt>
      <trkpt lat="45.87786" lon="4.83419">
        <ele>169</ele>
        <time>2016-11-15T11:52:11Z</time>
      </trkpt>
      <trkpt lat="45.87789" lon="4.83412">
        <ele>168</ele>
        <time>2016-11-15T11:52:12Z</time>
      </trkpt>
      <trkpt lat="45.87793" lon="4.83405">
        <ele>168</ele>
        <time>2016-11-15T11:52:13Z</time>
      </trkpt>
      <trkpt lat="45.87796" lon="4.83398">
        <ele>168</ele>
        <time>2016-11-15T11:52:14Z</time>
      </trkpt>
      <trkpt lat="45.878" lon="4.83391">
        <ele>168</ele>
        <time>2016-11-15T11:52:15Z</time>
      </trkpt>
      <trkpt lat="45.87803" lon="4.83385">
        <ele>168</ele>
        <time>2016-11-15T11:52:16Z</time>
      </trkpt>
      <trkpt lat="45.87806" lon="4.83378">
        <ele>168</ele>
        <time>2016-11-15T11:52:17Z</time>
      </trkpt>
      <trkpt lat="45.87809" lon="4.83371">
        <ele>168</ele>
        <time>2016-11-15T11:52:18Z</time>
      </trkpt>
      <trkpt lat="45.87812" lon="4.83364">
        <ele>167</ele>
        <time>2016-11-15T11:52:19Z</time>
      </trkpt>
      <trkpt lat="45.87815" lon="4.83357">
        <ele>167</ele>
        <time>2016-11-15T11:52:20Z</time>
      </trkpt>
      <trkpt lat="45.87818" lon="4.8335">
        <ele>167</ele>
        <time>2016-11-15T11:52:21Z</time>
      </trkpt>
      <trkpt lat="45.87821" lon="4.83342">
        <ele>166</ele>
        <time>2016-11-15T11:52:22Z</time>
      </trkpt>
      <trkpt lat="45.87824" lon="4.83335">
        <ele>166</ele>
        <time>2016-11-15T11:52:23Z</time>
      </trkpt>
      <trkpt lat="45.87827" lon="4.83328">
        <ele>167</ele>
        <time>2016-11-15T11:52:24Z</time>
      </trkpt>
      <trkpt lat="45.8783" lon="4.83321">
        <ele>167</ele>
        <time>2016-11-15T11:52:25Z</time>
      </trkpt>
      <trkpt lat="45.87832" lon="4.83313">
        <ele>168</ele>
        <time>2016-11-15T11:52:26Z</time>
      </trkpt>
      <trkpt lat="45.87835" lon="4.83305">
        <ele>166</ele>
        <time>2016-11-15T11:52:27Z</time>
      </trkpt>
      <trkpt lat="45.87837" lon="4.83296">
        <ele>167</ele>
        <time>2016-11-15T11:52:28Z</time>
      </trkpt>
      <trkpt lat="45.87839" lon="4.83288">
        <ele>167</ele>
        <time>2016-11-15T11:52:29Z</time>
      </trkpt>
      <trkpt lat="45.87842" lon="4.8328">
        <ele>168</ele>
        <time>2016-11-15T11:52:30Z</time>
      </trkpt>
      <trkpt lat="45.87844" lon="4.83272">
        <ele>168</ele>
        <time>2016-11-15T11:52:31Z</time>
      </trkpt>
      <trkpt lat="45.87846" lon="4.83264">
        <ele>169</ele>
        <time>2016-11-15T11:52:32Z</time>
      </trkpt>
      <trkpt lat="45.87848" lon="4.83256">
        <ele>169</ele>
        <time>2016-11-15T11:52:33Z</time>
      </trkpt>
      <trkpt lat="45.8785" lon="4.83249">
        <ele>170</ele>
        <time>2016-11-15T11:52:34Z</time>
      </trkpt>
      <trkpt lat="45.87852" lon="4.83242">
        <ele>170</ele>
        <time>2016-11-15T11:52:35Z</time>
      </trkpt>
      <trkpt lat="45.87853" lon="4.83235">
        <ele>170</ele>
        <time>2016-11-15T11:52:36Z</time>
      </trkpt>
      <trkpt lat="45.87855" lon="4.83229">
        <ele>169</ele>
        <time>2016-11-15T11:52:37Z</time>
      </trkpt>
      <trkpt lat="45.87858" lon="4.83223">
        <ele>169</ele>
        <time>2016-11-15T11:52:38Z</time>
      </trkpt>
      <trkpt lat="45.8786" lon="4.83216">
        <ele>169</ele>
        <time>2016-11-15T11:52:39Z</time>
      </trkpt>
      <trkpt lat="45.87862" lon="4.83209">
        <ele>169</ele>
        <time>2016-11-15T11:52:40Z</time>
      </trkpt>
      <trkpt lat="45.87863" lon="4.83201">
        <ele>169</ele>
        <time>2016-11-15T11:52:41Z</time>
      </trkpt>
      <trkpt lat="45.87865" lon="4.83193">
        <ele>169</ele>
        <time>2016-11-15T11:52:42Z</time>
      </trkpt>
      <trkpt lat="45.87867" lon="4.83186">
        <ele>169</ele>
        <time>2016-11-15T11:52:43Z</time>
      </trkpt>
      <trkpt lat="45.87868" lon="4.83178">
        <ele>170</ele>
        <time>2016-11-15T11:52:44Z</time>
      </trkpt>
      <trkpt lat="45.87868" lon="4.8317">
        <ele>170</ele>
        <time>2016-11-15T11:52:45Z</time>
      </trkpt>
      <trkpt lat="45.87869" lon="4.83162">
        <ele>170</ele>
        <time>2016-11-15T11:52:46Z</time>
      </trkpt>
      <trkpt lat="45.8787" lon="4.83153">
        <ele>170</ele>
        <time>2016-11-15T11:52:47Z</time>
      </trkpt>
      <trkpt lat="45.87871" lon="4.83145">
        <ele>170</ele>
        <time>2016-11-15T11:52:48Z</time>
      </trkpt>
      <trkpt lat="45.87873" lon="4.83136">
        <ele>170</ele>
        <time>2016-11-15T11:52:49Z</time>
      </trkpt>
      <trkpt lat="45.87874" lon="4.83127">
        <ele>170</ele>
        <time>2016-11-15T11:52:50Z</time>
      </trkpt>
      <trkpt lat="45.87875" lon="4.83118">
        <ele>170</ele>
        <time>2016-11-15T11:52:51Z</time>
      </trkpt>
      <trkpt lat="45.87876" lon="4.83109">
        <ele>169</ele>
        <time>2016-11-15T11:52:52Z</time>
      </trkpt>
      <trkpt lat="45.87877" lon="4.83099">
        <ele>169</ele>
        <time>2016-11-15T11:52:53Z</time>
      </trkpt>
      <trkpt lat="45.87877" lon="4.83089">
        <ele>169</ele>
        <time>2016-11-15T11:52:54Z</time>
      </trkpt>
      <trkpt lat="45.87878" lon="4.8308">
        <ele>169</ele>
        <time>2016-11-15T11:52:55Z</time>
      </trkpt>
      <trkpt lat="45.87878" lon="4.83071">
        <ele>169</ele>
        <time>2016-11-15T11:52:56Z</time>
      </trkpt>
      <trkpt lat="45.87879" lon="4.83063">
        <ele>169</ele>
        <time>2016-11-15T11:52:57Z</time>
      </trkpt>
      <trkpt lat="45.8788" lon="4.83054">
        <ele>169</ele>
        <time>2016-11-15T11:52:58Z</time>
      </trkpt>
      <trkpt lat="45.87881" lon="4.83046">
        <ele>169</ele>
        <time>2016-11-15T11:52:59Z</time>
      </trkpt>
      <trkpt lat="45.87882" lon="4.83038">
        <ele>169</ele>
        <time>2016-11-15T11:53:00Z</time>
      </trkpt>
      <trkpt lat="45.87883" lon="4.8303">
        <ele>169</ele>
        <time>2016-11-15T11:53:01Z</time>
      </trkpt>
      <trkpt lat="45.87883" lon="4.83023">
        <ele>168</ele>
        <time>2016-11-15T11:53:02Z</time>
      </trkpt>
      <trkpt lat="45.87884" lon="4.83015">
        <ele>168</ele>
        <time>2016-11-15T11:53:03Z</time>
      </trkpt>
      <trkpt lat="45.87885" lon="4.83008">
        <ele>168</ele>
        <time>2016-11-15T11:53:04Z</time>
      </trkpt>
      <trkpt lat="45.87886" lon="4.83">
        <ele>168</ele>
        <time>2016-11-15T11:53:05Z</time>
      </trkpt>
      <trkpt lat="45.87886" lon="4.82993">
        <ele>168</ele>
        <time>2016-11-15T11:53:06Z</time>
      </trkpt>
      <trkpt lat="45.87887" lon="4.82985">
        <ele>168</ele>
        <time>2016-11-15T11:53:07Z</time>
      </trkpt>
      <trkpt lat="45.87888" lon="4.82978">
        <ele>168</ele>
        <time>2016-11-15T11:53:08Z</time>
      </trkpt>
      <trkpt lat="45.87889" lon="4.8297">
        <ele>168</ele>
        <time>2016-11-15T11:53:09Z</time>
      </trkpt>
      <trkpt lat="45.8789" lon="4.82962">
        <ele>168</ele>
        <time>2016-11-15T11:53:10Z</time>
      </trkpt>
      <trkpt lat="45.8789" lon="4.82955">
        <ele>168</ele>
        <time>2016-11-15T11:53:11Z</time>
      </trkpt>
      <trkpt lat="45.87891" lon="4.82947">
        <ele>168</ele>
        <time>2016-11-15T11:53:12Z</time>
      </trkpt>
      <trkpt lat="45.87892" lon="4.82939">
        <ele>168</ele>
        <time>2016-11-15T11:53:13Z</time>
      </trkpt>
      <trkpt lat="45.87892" lon="4.82932">
        <ele>168</ele>
        <time>2016-11-15T11:53:14Z</time>
      </trkpt>
      <trkpt lat="45.87892" lon="4.82923">
        <ele>168</ele>
        <time>2016-11-15T11:53:15Z</time>
      </trkpt>
      <trkpt lat="45.87892" lon="4.82915">
        <ele>168</ele>
        <time>2016-11-15T11:53:16Z</time>
      </trkpt>
      <trkpt lat="45.87892" lon="4.82907">
        <ele>168</ele>
        <time>2016-11-15T11:53:17Z</time>
      </trkpt>
      <trkpt lat="45.87892" lon="4.82899">
        <ele>168</ele>
        <time>2016-11-15T11:53:18Z</time>
      </trkpt>
      <trkpt lat="45.87891" lon="4.82891">
        <ele>168</ele>
        <time>2016-11-15T11:53:19Z</time>
      </trkpt>
      <trkpt lat="45.87891" lon="4.82883">
        <ele>168</ele>
        <time>2016-11-15T11:53:20Z</time>
      </trkpt>
      <trkpt lat="45.8789" lon="4.82875">
        <ele>168</ele>
        <time>2016-11-15T11:53:21Z</time>
      </trkpt>
      <trkpt lat="45.8789" lon="4.82867">
        <ele>168</ele>
        <time>2016-11-15T11:53:22Z</time>
      </trkpt>
      <trkpt lat="45.8789" lon="4.82859">
        <ele>168</ele>
        <time>2016-11-15T11:53:23Z</time>
      </trkpt>
      <trkpt lat="45.8789" lon="4.8285">
        <ele>168</ele>
        <time>2016-11-15T11:53:24Z</time>
      </trkpt>
      <trkpt lat="45.87889" lon="4.82842">
        <ele>168</ele>
        <time>2016-11-15T11:53:25Z</time>
      </trkpt>
      <trkpt lat="45.87889" lon="4.82834">
        <ele>168</ele>
        <time>2016-11-15T11:53:26Z</time>
      </trkpt>
      <trkpt lat="45.8789" lon="4.82825">
        <ele>168</ele>
        <time>2016-11-15T11:53:27Z</time>
      </trkpt>
      <trkpt lat="45.8789" lon="4.82817">
        <ele>168</ele>
        <time>2016-11-15T11:53:28Z</time>
      </trkpt>
      <trkpt lat="45.8789" lon="4.82809">
        <ele>169</ele>
        <time>2016-11-15T11:53:29Z</time>
      </trkpt>
      <trkpt lat="45.87891" lon="4.82801">
        <ele>169</ele>
        <time>2016-11-15T11:53:30Z</time>
      </trkpt>
      <trkpt lat="45.87889" lon="4.82792">
        <ele>169</ele>
        <time>2016-11-15T11:53:31Z</time>
      </trkpt>
      <trkpt lat="45.87887" lon="4.82784">
        <ele>169</ele>
        <time>2016-11-15T11:53:32Z</time>
      </trkpt>
      <trkpt lat="45.87887" lon="4.82775">
        <ele>169</ele>
        <time>2016-11-15T11:53:33Z</time>
      </trkpt>
      <trkpt lat="45.87886" lon="4.82767">
        <ele>169</ele>
        <time>2016-11-15T11:53:34Z</time>
      </trkpt>
      <trkpt lat="45.87886" lon="4.8276">
        <ele>169</ele>
        <time>2016-11-15T11:53:35Z</time>
      </trkpt>
      <trkpt lat="45.87884" lon="4.82751">
        <ele>169</ele>
        <time>2016-11-15T11:53:36Z</time>
      </trkpt>
      <trkpt lat="45.87882" lon="4.82743">
        <ele>169</ele>
        <time>2016-11-15T11:53:37Z</time>
      </trkpt>
      <trkpt lat="45.87883" lon="4.82735">
        <ele>169</ele>
        <time>2016-11-15T11:53:38Z</time>
      </trkpt>
      <trkpt lat="45.87883" lon="4.82728">
        <ele>169</ele>
        <time>2016-11-15T11:53:39Z</time>
      </trkpt>
      <trkpt lat="45.87884" lon="4.8272">
        <ele>169</ele>
        <time>2016-11-15T11:53:40Z</time>
      </trkpt>
      <trkpt lat="45.87882" lon="4.82712">
        <ele>169</ele>
        <time>2016-11-15T11:53:41Z</time>
      </trkpt>
      <trkpt lat="45.87882" lon="4.82703">
        <ele>169</ele>
        <time>2016-11-15T11:53:42Z</time>
      </trkpt>
      <trkpt lat="45.87883" lon="4.82696">
        <ele>169</ele>
        <time>2016-11-15T11:53:43Z</time>
      </trkpt>
      <trkpt lat="45.87883" lon="4.82688">
        <ele>168</ele>
        <time>2016-11-15T11:53:44Z</time>
      </trkpt>
      <trkpt lat="45.87884" lon="4.8268">
        <ele>168</ele>
        <time>2016-11-15T11:53:45Z</time>
      </trkpt>
      <trkpt lat="45.87885" lon="4.82672">
        <ele>168</ele>
        <time>2016-11-15T11:53:46Z</time>
      </trkpt>
      <trkpt lat="45.87887" lon="4.82664">
        <ele>167</ele>
        <time>2016-11-15T11:53:47Z</time>
      </trkpt>
      <trkpt lat="45.87887" lon="4.82655">
        <ele>167</ele>
        <time>2016-11-15T11:53:48Z</time>
      </trkpt>
      <trkpt lat="45.87888" lon="4.82646">
        <ele>167</ele>
        <time>2016-11-15T11:53:49Z</time>
      </trkpt>
      <trkpt lat="45.8789" lon="4.82638">
        <ele>167</ele>
        <time>2016-11-15T11:53:50Z</time>
      </trkpt>
      <trkpt lat="45.87892" lon="4.82631">
        <ele>167</ele>
        <time>2016-11-15T11:53:51Z</time>
      </trkpt>
      <trkpt lat="45.87893" lon="4.82623">
        <ele>167</ele>
        <time>2016-11-15T11:53:52Z</time>
      </trkpt>
      <trkpt lat="45.87895" lon="4.82615">
        <ele>167</ele>
        <time>2016-11-15T11:53:53Z</time>
      </trkpt>
      <trkpt lat="45.87897" lon="4.82607">
        <ele>167</ele>
        <time>2016-11-15T11:53:54Z</time>
      </trkpt>
      <trkpt lat="45.87899" lon="4.82599">
        <ele>167</ele>
        <time>2016-11-15T11:53:55Z</time>
      </trkpt>
      <trkpt lat="45.87901" lon="4.82591">
        <ele>167</ele>
        <time>2016-11-15T11:53:56Z</time>
      </trkpt>
      <trkpt lat="45.87903" lon="4.82584">
        <ele>166</ele>
        <time>2016-11-15T11:53:57Z</time>
      </trkpt>
      <trkpt lat="45.87905" lon="4.82576">
        <ele>167</ele>
        <time>2016-11-15T11:53:58Z</time>
      </trkpt>
      <trkpt lat="45.87907" lon="4.82568">
        <ele>167</ele>
        <time>2016-11-15T11:53:59Z</time>
      </trkpt>
      <trkpt lat="45.87909" lon="4.8256">
        <ele>167</ele>
        <time>2016-11-15T11:54:00Z</time>
      </trkpt>
      <trkpt lat="45.87911" lon="4.82552">
        <ele>168</ele>
        <time>2016-11-15T11:54:01Z</time>
      </trkpt>
      <trkpt lat="45.87913" lon="4.82544">
        <ele>168</ele>
        <time>2016-11-15T11:54:02Z</time>
      </trkpt>
      <trkpt lat="45.87915" lon="4.82536">
        <ele>168</ele>
        <time>2016-11-15T11:54:03Z</time>
      </trkpt>
      <trkpt lat="45.87917" lon="4.82528">
        <ele>168</ele>
        <time>2016-11-15T11:54:04Z</time>
      </trkpt>
      <trkpt lat="45.87918" lon="4.8252">
        <ele>167</ele>
        <time>2016-11-15T11:54:05Z</time>
      </trkpt>
      <trkpt lat="45.8792" lon="4.82512">
        <ele>167</ele>
        <time>2016-11-15T11:54:06Z</time>
      </trkpt>
      <trkpt lat="45.87922" lon="4.82504">
        <ele>167</ele>
        <time>2016-11-15T11:54:07Z</time>
      </trkpt>
      <trkpt lat="45.87923" lon="4.82495">
        <ele>168</ele>
        <time>2016-11-15T11:54:08Z</time>
      </trkpt>
      <trkpt lat="45.87925" lon="4.82488">
        <ele>167</ele>
        <time>2016-11-15T11:54:09Z</time>
      </trkpt>
      <trkpt lat="45.87927" lon="4.8248">
        <ele>167</ele>
        <time>2016-11-15T11:54:10Z</time>
      </trkpt>
      <trkpt lat="45.87928" lon="4.82472">
        <ele>167</ele>
        <time>2016-11-15T11:54:11Z</time>
      </trkpt>
      <trkpt lat="45.8793" lon="4.82464">
        <ele>167</ele>
        <time>2016-11-15T11:54:12Z</time>
      </trkpt>
      <trkpt lat="45.87932" lon="4.82456">
        <ele>167</ele>
        <time>2016-11-15T11:54:13Z</time>
      </trkpt>
      <trkpt lat="45.87933" lon="4.82448">
        <ele>167</ele>
        <time>2016-11-15T11:54:14Z</time>
      </trkpt>
      <trkpt lat="45.87935" lon="4.8244">
        <ele>167</ele>
        <time>2016-11-15T11:54:15Z</time>
      </trkpt>
      <trkpt lat="45.87937" lon="4.82432">
        <ele>167</ele>
        <time>2016-11-15T11:54:16Z</time>
      </trkpt>
      <trkpt lat="45.87938" lon="4.82423">
        <ele>167</ele>
        <time>2016-11-15T11:54:17Z</time>
      </trkpt>
      <trkpt lat="45.8794" lon="4.82416">
        <ele>167</ele>
        <time>2016-11-15T11:54:18Z</time>
      </trkpt>
      <trkpt lat="45.8794" lon="4.82406">
        <ele>167</ele>
        <time>2016-11-15T11:54:19Z</time>
      </trkpt>
      <trkpt lat="45.87941" lon="4.82397">
        <ele>167</ele>
        <time>2016-11-15T11:54:20Z</time>
      </trkpt>
      <trkpt lat="45.87942" lon="4.82388">
        <ele>167</ele>
        <time>2016-11-15T11:54:21Z</time>
      </trkpt>
      <trkpt lat="45.87943" lon="4.82379">
        <ele>167</ele>
        <time>2016-11-15T11:54:22Z</time>
      </trkpt>
      <trkpt lat="45.87944" lon="4.82371">
        <ele>167</ele>
        <time>2016-11-15T11:54:23Z</time>
      </trkpt>
      <trkpt lat="45.87945" lon="4.82362">
        <ele>167</ele>
        <time>2016-11-15T11:54:24Z</time>
      </trkpt>
      <trkpt lat="45.87946" lon="4.82354">
        <ele>167</ele>
        <time>2016-11-15T11:54:25Z</time>
      </trkpt>
      <trkpt lat="45.87947" lon="4.82346">
        <ele>167</ele>
        <time>2016-11-15T11:54:26Z</time>
      </trkpt>
      <trkpt lat="45.87948" lon="4.82338">
        <ele>167</ele>
        <time>2016-11-15T11:54:27Z</time>
      </trkpt>
      <trkpt lat="45.87949" lon="4.8233">
        <ele>168</ele>
        <time>2016-11-15T11:54:28Z</time>
      </trkpt>
      <trkpt lat="45.8795" lon="4.82322">
        <ele>168</ele>
        <time>2016-11-15T11:54:29Z</time>
      </trkpt>
      <trkpt lat="45.87951" lon="4.82314">
        <ele>168</ele>
        <time>2016-11-15T11:54:30Z</time>
      </trkpt>
      <trkpt lat="45.87951" lon="4.82306">
        <ele>168</ele>
        <time>2016-11-15T11:54:31Z</time>
      </trkpt>
      <trkpt lat="45.87952" lon="4.82298">
        <ele>168</ele>
        <time>2016-11-15T11:54:32Z</time>
      </trkpt>
      <trkpt lat="45.87953" lon="4.8229">
        <ele>168</ele>
        <time>2016-11-15T11:54:33Z</time>
      </trkpt>
      <trkpt lat="45.87954" lon="4.82283">
        <ele>168</ele>
        <time>2016-11-15T11:54:34Z</time>
      </trkpt>
      <trkpt lat="45.87954" lon="4.82275">
        <ele>168</ele>
        <time>2016-11-15T11:54:35Z</time>
      </trkpt>
      <trkpt lat="45.87955" lon="4.82267">
        <ele>168</ele>
        <time>2016-11-15T11:54:36Z</time>
      </trkpt>
      <trkpt lat="45.87956" lon="4.82259">
        <ele>168</ele>
        <time>2016-11-15T11:54:37Z</time>
      </trkpt>
      <trkpt lat="45.87957" lon="4.82251">
        <ele>168</ele>
        <time>2016-11-15T11:54:38Z</time>
      </trkpt>
      <trkpt lat="45.87958" lon="4.82243">
        <ele>169</ele>
        <time>2016-11-15T11:54:39Z</time>
      </trkpt>
      <trkpt lat="45.87959" lon="4.82235">
        <ele>169</ele>
        <time>2016-11-15T11:54:40Z</time>
      </trkpt>
      <trkpt lat="45.8796" lon="4.82227">
        <ele>169</ele>
        <time>2016-11-15T11:54:41Z</time>
      </trkpt>
      <trkpt lat="45.87961" lon="4.82219">
        <ele>170</ele>
        <time>2016-11-15T11:54:42Z</time>
      </trkpt>
      <trkpt lat="45.87961" lon="4.82211">
        <ele>170</ele>
        <time>2016-11-15T11:54:43Z</time>
      </trkpt>
      <trkpt lat="45.87962" lon="4.82204">
        <ele>170</ele>
        <time>2016-11-15T11:54:44Z</time>
      </trkpt>
      <trkpt lat="45.87963" lon="4.82195">
        <ele>170</ele>
        <time>2016-11-15T11:54:45Z</time>
      </trkpt>
      <trkpt lat="45.87965" lon="4.82187">
        <ele>170</ele>
        <time>2016-11-15T11:54:46Z</time>
      </trkpt>
      <trkpt lat="45.87966" lon="4.82178">
        <ele>170</ele>
        <time>2016-11-15T11:54:47Z</time>
      </trkpt>
      <trkpt lat="45.87967" lon="4.82171">
        <ele>170</ele>
        <time>2016-11-15T11:54:48Z</time>
      </trkpt>
      <trkpt lat="45.87969" lon="4.82162">
        <ele>171</ele>
        <time>2016-11-15T11:54:49Z</time>
      </trkpt>
      <trkpt lat="45.8797" lon="4.82155">
        <ele>171</ele>
        <time>2016-11-15T11:54:50Z</time>
      </trkpt>
      <trkpt lat="45.87972" lon="4.82147">
        <ele>171</ele>
        <time>2016-11-15T11:54:51Z</time>
      </trkpt>
      <trkpt lat="45.87973" lon="4.8214">
        <ele>171</ele>
        <time>2016-11-15T11:54:52Z</time>
      </trkpt>
      <trkpt lat="45.87975" lon="4.82132">
        <ele>171</ele>
        <time>2016-11-15T11:54:53Z</time>
      </trkpt>
      <trkpt lat="45.87978" lon="4.82124">
        <ele>171</ele>
        <time>2016-11-15T11:54:54Z</time>
      </trkpt>
      <trkpt lat="45.87982" lon="4.82117">
        <ele>171</ele>
        <time>2016-11-15T11:54:55Z</time>
      </trkpt>
      <trkpt lat="45.87986" lon="4.82112">
        <ele>171</ele>
        <time>2016-11-15T11:54:56Z</time>
      </trkpt>
      <trkpt lat="45.87991" lon="4.82108">
        <ele>171</ele>
        <time>2016-11-15T11:54:57Z</time>
      </trkpt>
      <trkpt lat="45.87997" lon="4.82105">
        <ele>171</ele>
        <time>2016-11-15T11:54:58Z</time>
      </trkpt>
      <trkpt lat="45.88002" lon="4.82101">
        <ele>169</ele>
        <time>2016-11-15T11:54:59Z</time>
      </trkpt>
      <trkpt lat="45.88006" lon="4.82096">
        <ele>169</ele>
        <time>2016-11-15T11:55:00Z</time>
      </trkpt>
      <trkpt lat="45.8801" lon="4.8209">
        <ele>169</ele>
        <time>2016-11-15T11:55:01Z</time>
      </trkpt>
      <trkpt lat="45.88013" lon="4.82084">
        <ele>169</ele>
        <time>2016-11-15T11:55:02Z</time>
      </trkpt>
      <trkpt lat="45.88017" lon="4.82078">
        <ele>169</ele>
        <time>2016-11-15T11:55:03Z</time>
      </trkpt>
      <trkpt lat="45.88021" lon="4.82073">
        <ele>169</ele>
        <time>2016-11-15T11:55:04Z</time>
      </trkpt>
      <trkpt lat="45.88024" lon="4.82067">
        <ele>169</ele>
        <time>2016-11-15T11:55:05Z</time>
      </trkpt>
      <trkpt lat="45.88028" lon="4.82061">
        <ele>169</ele>
        <time>2016-11-15T11:55:06Z</time>
      </trkpt>
      <trkpt lat="45.88032" lon="4.82055">
        <ele>169</ele>
        <time>2016-11-15T11:55:07Z</time>
      </trkpt>
      <trkpt lat="45.88035" lon="4.82048">
        <ele>168</ele>
        <time>2016-11-15T11:55:08Z</time>
      </trkpt>
      <trkpt lat="45.88038" lon="4.8204">
        <ele>168</ele>
        <time>2016-11-15T11:55:09Z</time>
      </trkpt>
      <trkpt lat="45.88042" lon="4.82032">
        <ele>168</ele>
        <time>2016-11-15T11:55:10Z</time>
      </trkpt>
      <trkpt lat="45.88045" lon="4.82024">
        <ele>168</ele>
        <time>2016-11-15T11:55:11Z</time>
      </trkpt>
      <trkpt lat="45.88047" lon="4.82016">
        <ele>168</ele>
        <time>2016-11-15T11:55:12Z</time>
      </trkpt>
      <trkpt lat="45.8805" lon="4.82008">
        <ele>168</ele>
        <time>2016-11-15T11:55:13Z</time>
      </trkpt>
      <trkpt lat="45.88053" lon="4.82001">
        <ele>168</ele>
        <time>2016-11-15T11:55:14Z</time>
      </trkpt>
      <trkpt lat="45.88055" lon="4.81994">
        <ele>168</ele>
        <time>2016-11-15T11:55:15Z</time>
      </trkpt>
      <trkpt lat="45.88058" lon="4.81988">
        <ele>168</ele>
        <time>2016-11-15T11:55:16Z</time>
      </trkpt>
      <trkpt lat="45.8806" lon="4.81982">
        <ele>168</ele>
        <time>2016-11-15T11:55:17Z</time>
      </trkpt>
      <trkpt lat="45.88062" lon="4.81975">
        <ele>168</ele>
        <time>2016-11-15T11:55:18Z</time>
      </trkpt>
      <trkpt lat="45.88064" lon="4.81969">
        <ele>168</ele>
        <time>2016-11-15T11:55:19Z</time>
      </trkpt>
      <trkpt lat="45.88066" lon="4.81963">
        <ele>168</ele>
        <time>2016-11-15T11:55:20Z</time>
      </trkpt>
      <trkpt lat="45.88068" lon="4.81956">
        <ele>168</ele>
        <time>2016-11-15T11:55:21Z</time>
      </trkpt>
      <trkpt lat="45.8807" lon="4.81949">
        <ele>168</ele>
        <time>2016-11-15T11:55:22Z</time>
      </trkpt>
      <trkpt lat="45.88072" lon="4.81942">
        <ele>167</ele>
        <time>2016-11-15T11:55:23Z</time>
      </trkpt>
      <trkpt lat="45.88074" lon="4.81935">
        <ele>167</ele>
        <time>2016-11-15T11:55:24Z</time>
      </trkpt>
      <trkpt lat="45.88077" lon="4.81929">
        <ele>167</ele>
        <time>2016-11-15T11:55:25Z</time>
      </trkpt>
      <trkpt lat="45.8808" lon="4.81922">
        <ele>166</ele>
        <time>2016-11-15T11:55:26Z</time>
      </trkpt>
      <trkpt lat="45.88083" lon="4.81914">
        <ele>165</ele>
        <time>2016-11-15T11:55:27Z</time>
      </trkpt>
      <trkpt lat="45.88086" lon="4.81907">
        <ele>165</ele>
        <time>2016-11-15T11:55:28Z</time>
      </trkpt>
      <trkpt lat="45.88089" lon="4.81899">
        <ele>165</ele>
        <time>2016-11-15T11:55:29Z</time>
      </trkpt>
      <trkpt lat="45.88091" lon="4.81891">
        <ele>165</ele>
        <time>2016-11-15T11:55:30Z</time>
      </trkpt>
      <trkpt lat="45.88094" lon="4.81884">
        <ele>166</ele>
        <time>2016-11-15T11:55:31Z</time>
      </trkpt>
      <trkpt lat="45.88096" lon="4.81877">
        <ele>166</ele>
        <time>2016-11-15T11:55:32Z</time>
      </trkpt>
      <trkpt lat="45.88098" lon="4.81871">
        <ele>166</ele>
        <time>2016-11-15T11:55:33Z</time>
      </trkpt>
      <trkpt lat="45.88101" lon="4.81864">
        <ele>166</ele>
        <time>2016-11-15T11:55:34Z</time>
      </trkpt>
      <trkpt lat="45.88105" lon="4.81853">
        <ele>166</ele>
        <time>2016-11-15T11:55:36Z</time>
      </trkpt>
      <trkpt lat="45.88108" lon="4.81847">
        <ele>166</ele>
        <time>2016-11-15T11:55:37Z</time>
      </trkpt>
      <trkpt lat="45.88111" lon="4.81841">
        <ele>166</ele>
        <time>2016-11-15T11:55:38Z</time>
      </trkpt>
      <trkpt lat="45.88113" lon="4.81834">
        <ele>166</ele>
        <time>2016-11-15T11:55:39Z</time>
      </trkpt>
      <trkpt lat="45.88116" lon="4.81827">
        <ele>167</ele>
        <time>2016-11-15T11:55:40Z</time>
      </trkpt>
      <trkpt lat="45.88118" lon="4.8182">
        <ele>167</ele>
        <time>2016-11-15T11:55:41Z</time>
      </trkpt>
      <trkpt lat="45.88121" lon="4.81813">
        <ele>167</ele>
        <time>2016-11-15T11:55:42Z</time>
      </trkpt>
      <trkpt lat="45.88123" lon="4.81805">
        <ele>167</ele>
        <time>2016-11-15T11:55:43Z</time>
      </trkpt>
      <trkpt lat="45.88127" lon="4.81797">
        <ele>167</ele>
        <time>2016-11-15T11:55:44Z</time>
      </trkpt>
      <trkpt lat="45.88129" lon="4.81789">
        <ele>167</ele>
        <time>2016-11-15T11:55:45Z</time>
      </trkpt>
      <trkpt lat="45.88132" lon="4.81782">
        <ele>167</ele>
        <time>2016-11-15T11:55:46Z</time>
      </trkpt>
      <trkpt lat="45.88134" lon="4.81775">
        <ele>167</ele>
        <time>2016-11-15T11:55:47Z</time>
      </trkpt>
      <trkpt lat="45.88136" lon="4.81767">
        <ele>167</ele>
        <time>2016-11-15T11:55:48Z</time>
      </trkpt>
      <trkpt lat="45.88139" lon="4.8176">
        <ele>167</ele>
        <time>2016-11-15T11:55:49Z</time>
      </trkpt>
      <trkpt lat="45.88142" lon="4.81753">
        <ele>167</ele>
        <time>2016-11-15T11:55:50Z</time>
      </trkpt>
      <trkpt lat="45.88144" lon="4.81746">
        <ele>169</ele>
        <time>2016-11-15T11:55:51Z</time>
      </trkpt>
      <trkpt lat="45.88147" lon="4.8174">
        <ele>169</ele>
        <time>2016-11-15T11:55:52Z</time>
      </trkpt>
      <trkpt lat="45.88149" lon="4.81734">
        <ele>169</ele>
        <time>2016-11-15T11:55:53Z</time>
      </trkpt>
      <trkpt lat="45.88152" lon="4.81728">
        <ele>169</ele>
        <time>2016-11-15T11:55:54Z</time>
      </trkpt>
      <trkpt lat="45.88155" lon="4.81721">
        <ele>169</ele>
        <time>2016-11-15T11:55:55Z</time>
      </trkpt>
      <trkpt lat="45.88158" lon="4.81715">
        <ele>170</ele>
        <time>2016-11-15T11:55:56Z</time>
      </trkpt>
      <trkpt lat="45.88161" lon="4.81708">
        <ele>170</ele>
        <time>2016-11-15T11:55:57Z</time>
      </trkpt>
      <trkpt lat="45.88163" lon="4.81701">
        <ele>171</ele>
        <time>2016-11-15T11:55:58Z</time>
      </trkpt>
      <trkpt lat="45.88166" lon="4.81694">
        <ele>171</ele>
        <time>2016-11-15T11:55:59Z</time>
      </trkpt>
      <trkpt lat="45.88169" lon="4.81687">
        <ele>170</ele>
        <time>2016-11-15T11:56:00Z</time>
      </trkpt>
      <trkpt lat="45.88172" lon="4.8168">
        <ele>170</ele>
        <time>2016-11-15T11:56:01Z</time>
      </trkpt>
      <trkpt lat="45.88175" lon="4.81673">
        <ele>171</ele>
        <time>2016-11-15T11:56:02Z</time>
      </trkpt>
      <trkpt lat="45.88178" lon="4.81666">
        <ele>172</ele>
        <time>2016-11-15T11:56:03Z</time>
      </trkpt>
      <trkpt lat="45.8818" lon="4.81659">
        <ele>172</ele>
        <time>2016-11-15T11:56:04Z</time>
      </trkpt>
      <trkpt lat="45.88182" lon="4.81654">
        <ele>171</ele>
        <time>2016-11-15T11:56:05Z</time>
      </trkpt>
      <trkpt lat="45.88184" lon="4.81648">
        <ele>171</ele>
        <time>2016-11-15T11:56:06Z</time>
      </trkpt>
      <trkpt lat="45.88187" lon="4.81641">
        <ele>171</ele>
        <time>2016-11-15T11:56:07Z</time>
      </trkpt>
      <trkpt lat="45.8819" lon="4.81635">
        <ele>171</ele>
        <time>2016-11-15T11:56:08Z</time>
      </trkpt>
      <trkpt lat="45.88192" lon="4.81629">
        <ele>171</ele>
        <time>2016-11-15T11:56:09Z</time>
      </trkpt>
      <trkpt lat="45.88195" lon="4.81623">
        <ele>171</ele>
        <time>2016-11-15T11:56:10Z</time>
      </trkpt>
      <trkpt lat="45.88197" lon="4.81616">
        <ele>171</ele>
        <time>2016-11-15T11:56:11Z</time>
      </trkpt>
      <trkpt lat="45.882" lon="4.8161">
        <ele>170</ele>
        <time>2016-11-15T11:56:12Z</time>
      </trkpt>
      <trkpt lat="45.88203" lon="4.81603">
        <ele>170</ele>
        <time>2016-11-15T11:56:13Z</time>
      </trkpt>
      <trkpt lat="45.88206" lon="4.81596">
        <ele>170</ele>
        <time>2016-11-15T11:56:14Z</time>
      </trkpt>
      <trkpt lat="45.88209" lon="4.8159">
        <ele>170</ele>
        <time>2016-11-15T11:56:15Z</time>
      </trkpt>
      <trkpt lat="45.88212" lon="4.81583">
        <ele>170</ele>
        <time>2016-11-15T11:56:16Z</time>
      </trkpt>
      <trkpt lat="45.88215" lon="4.81576">
        <ele>170</ele>
        <time>2016-11-15T11:56:17Z</time>
      </trkpt>
      <trkpt lat="45.88218" lon="4.8157">
        <ele>170</ele>
        <time>2016-11-15T11:56:18Z</time>
      </trkpt>
      <trkpt lat="45.88221" lon="4.81563">
        <ele>170</ele>
        <time>2016-11-15T11:56:19Z</time>
      </trkpt>
      <trkpt lat="45.88224" lon="4.81556">
        <ele>170</ele>
        <time>2016-11-15T11:56:20Z</time>
      </trkpt>
      <trkpt lat="45.88227" lon="4.8155">
        <ele>170</ele>
        <time>2016-11-15T11:56:21Z</time>
      </trkpt>
      <trkpt lat="45.8823" lon="4.81542">
        <ele>170</ele>
        <time>2016-11-15T11:56:22Z</time>
      </trkpt>
      <trkpt lat="45.88233" lon="4.81534">
        <ele>170</ele>
        <time>2016-11-15T11:56:23Z</time>
      </trkpt>
      <trkpt lat="45.88237" lon="4.81527">
        <ele>170</ele>
        <time>2016-11-15T11:56:24Z</time>
      </trkpt>
      <trkpt lat="45.8824" lon="4.81519">
        <ele>170</ele>
        <time>2016-11-15T11:56:25Z</time>
      </trkpt>
      <trkpt lat="45.88243" lon="4.81512">
        <ele>169</ele>
        <time>2016-11-15T11:56:26Z</time>
      </trkpt>
      <trkpt lat="45.88247" lon="4.81504">
        <ele>169</ele>
        <time>2016-11-15T11:56:27Z</time>
      </trkpt>
      <trkpt lat="45.8825" lon="4.81497">
        <ele>168</ele>
        <time>2016-11-15T11:56:28Z</time>
      </trkpt>
      <trkpt lat="45.88253" lon="4.8149">
        <ele>167</ele>
        <time>2016-11-15T11:56:29Z</time>
      </trkpt>
      <trkpt lat="45.88256" lon="4.81484">
        <ele>167</ele>
        <time>2016-11-15T11:56:30Z</time>
      </trkpt>
      <trkpt lat="45.88258" lon="4.81477">
        <ele>167</ele>
        <time>2016-11-15T11:56:31Z</time>
      </trkpt>
      <trkpt lat="45.88261" lon="4.81471">
        <ele>167</ele>
        <time>2016-11-15T11:56:32Z</time>
      </trkpt>
      <trkpt lat="45.88264" lon="4.81465">
        <ele>166</ele>
        <time>2016-11-15T11:56:33Z</time>
      </trkpt>
      <trkpt lat="45.88267" lon="4.81459">
        <ele>166</ele>
        <time>2016-11-15T11:56:34Z</time>
      </trkpt>
      <trkpt lat="45.88271" lon="4.81453">
        <ele>166</ele>
        <time>2016-11-15T11:56:35Z</time>
      </trkpt>
      <trkpt lat="45.88274" lon="4.81447">
        <ele>166</ele>
        <time>2016-11-15T11:56:36Z</time>
      </trkpt>
      <trkpt lat="45.88277" lon="4.8144">
        <ele>166</ele>
        <time>2016-11-15T11:56:37Z</time>
      </trkpt>
      <trkpt lat="45.8828" lon="4.81433">
        <ele>166</ele>
        <time>2016-11-15T11:56:38Z</time>
      </trkpt>
      <trkpt lat="45.88284" lon="4.81426">
        <ele>166</ele>
        <time>2016-11-15T11:56:39Z</time>
      </trkpt>
      <trkpt lat="45.88287" lon="4.81419">
        <ele>166</ele>
        <time>2016-11-15T11:56:40Z</time>
      </trkpt>
      <trkpt lat="45.8829" lon="4.81413">
        <ele>167</ele>
        <time>2016-11-15T11:56:41Z</time>
      </trkpt>
      <trkpt lat="45.88293" lon="4.81406">
        <ele>168</ele>
        <time>2016-11-15T11:56:42Z</time>
      </trkpt>
      <trkpt lat="45.88296" lon="4.81399">
        <ele>168</ele>
        <time>2016-11-15T11:56:43Z</time>
      </trkpt>
      <trkpt lat="45.88299" lon="4.81393">
        <ele>168</ele>
        <time>2016-11-15T11:56:44Z</time>
      </trkpt>
      <trkpt lat="45.88302" lon="4.81387">
        <ele>168</ele>
        <time>2016-11-15T11:56:45Z</time>
      </trkpt>
      <trkpt lat="45.88305" lon="4.8138">
        <ele>168</ele>
        <time>2016-11-15T11:56:46Z</time>
      </trkpt>
      <trkpt lat="45.88308" lon="4.81374">
        <ele>169</ele>
        <time>2016-11-15T11:56:47Z</time>
      </trkpt>
      <trkpt lat="45.8831" lon="4.81368">
        <ele>169</ele>
        <time>2016-11-15T11:56:48Z</time>
      </trkpt>
      <trkpt lat="45.88313" lon="4.81361">
        <ele>169</ele>
        <time>2016-11-15T11:56:49Z</time>
      </trkpt>
      <trkpt lat="45.88317" lon="4.81354">
        <ele>170</ele>
        <time>2016-11-15T11:56:50Z</time>
      </trkpt>
      <trkpt lat="45.8832" lon="4.81347">
        <ele>170</ele>
        <time>2016-11-15T11:56:51Z</time>
      </trkpt>
      <trkpt lat="45.88323" lon="4.8134">
        <ele>171</ele>
        <time>2016-11-15T11:56:52Z</time>
      </trkpt>
      <trkpt lat="45.88327" lon="4.81334">
        <ele>172</ele>
        <time>2016-11-15T11:56:53Z</time>
      </trkpt>
      <trkpt lat="45.8833" lon="4.81328">
        <ele>173</ele>
        <time>2016-11-15T11:56:54Z</time>
      </trkpt>
      <trkpt lat="45.88332" lon="4.81321">
        <ele>172</ele>
        <time>2016-11-15T11:56:55Z</time>
      </trkpt>
      <trkpt lat="45.88335" lon="4.81315">
        <ele>171</ele>
        <time>2016-11-15T11:56:56Z</time>
      </trkpt>
      <trkpt lat="45.88338" lon="4.81308">
        <ele>171</ele>
        <time>2016-11-15T11:56:57Z</time>
      </trkpt>
      <trkpt lat="45.88341" lon="4.81302">
        <ele>171</ele>
        <time>2016-11-15T11:56:58Z</time>
      </trkpt>
      <trkpt lat="45.88344" lon="4.81297">
        <ele>170</ele>
        <time>2016-11-15T11:56:59Z</time>
      </trkpt>
      <trkpt lat="45.88347" lon="4.81291">
        <ele>170</ele>
        <time>2016-11-15T11:57:00Z</time>
      </trkpt>
      <trkpt lat="45.88351" lon="4.81285">
        <ele>170</ele>
        <time>2016-11-15T11:57:01Z</time>
      </trkpt>
      <trkpt lat="45.88353" lon="4.81279">
        <ele>170</ele>
        <time>2016-11-15T11:57:02Z</time>
      </trkpt>
      <trkpt lat="45.88356" lon="4.81273">
        <ele>170</ele>
        <time>2016-11-15T11:57:03Z</time>
      </trkpt>
      <trkpt lat="45.8836" lon="4.81268">
        <ele>170</ele>
        <time>2016-11-15T11:57:04Z</time>
      </trkpt>
      <trkpt lat="45.88363" lon="4.81261">
        <ele>170</ele>
        <time>2016-11-15T11:57:05Z</time>
      </trkpt>
      <trkpt lat="45.88366" lon="4.81256">
        <ele>170</ele>
        <time>2016-11-15T11:57:06Z</time>
      </trkpt>
      <trkpt lat="45.88369" lon="4.81251">
        <ele>170</ele>
        <time>2016-11-15T11:57:07Z</time>
      </trkpt>
      <trkpt lat="45.88373" lon="4.81246">
        <ele>170</ele>
        <time>2016-11-15T11:57:08Z</time>
      </trkpt>
      <trkpt lat="45.88376" lon="4.8124">
        <ele>170</ele>
        <time>2016-11-15T11:57:09Z</time>
      </trkpt>
      <trkpt lat="45.8838" lon="4.81235">
        <ele>170</ele>
        <time>2016-11-15T11:57:10Z</time>
      </trkpt>
      <trkpt lat="45.88383" lon="4.81229">
        <ele>170</ele>
        <time>2016-11-15T11:57:11Z</time>
      </trkpt>
      <trkpt lat="45.88387" lon="4.81224">
        <ele>170</ele>
        <time>2016-11-15T11:57:12Z</time>
      </trkpt>
      <trkpt lat="45.8839" lon="4.81218">
        <ele>170</ele>
        <time>2016-11-15T11:57:13Z</time>
      </trkpt>
      <trkpt lat="45.88393" lon="4.81213">
        <ele>170</ele>
        <time>2016-11-15T11:57:14Z</time>
      </trkpt>
      <trkpt lat="45.88396" lon="4.81207">
        <ele>170</ele>
        <time>2016-11-15T11:57:15Z</time>
      </trkpt>
      <trkpt lat="45.884" lon="4.81201">
        <ele>170</ele>
        <time>2016-11-15T11:57:16Z</time>
      </trkpt>
      <trkpt lat="45.88403" lon="4.81195">
        <ele>170</ele>
        <time>2016-11-15T11:57:17Z</time>
      </trkpt>
      <trkpt lat="45.88407" lon="4.81189">
        <ele>170</ele>
        <time>2016-11-15T11:57:18Z</time>
      </trkpt>
      <trkpt lat="45.8841" lon="4.81183">
        <ele>170</ele>
        <time>2016-11-15T11:57:19Z</time>
      </trkpt>
      <trkpt lat="45.88414" lon="4.81177">
        <ele>170</ele>
        <time>2016-11-15T11:57:20Z</time>
      </trkpt>
      <trkpt lat="45.88418" lon="4.8117">
        <ele>170</ele>
        <time>2016-11-15T11:57:21Z</time>
      </trkpt>
      <trkpt lat="45.88422" lon="4.81164">
        <ele>170</ele>
        <time>2016-11-15T11:57:22Z</time>
      </trkpt>
      <trkpt lat="45.88425" lon="4.81158">
        <ele>169</ele>
        <time>2016-11-15T11:57:23Z</time>
      </trkpt>
      <trkpt lat="45.88429" lon="4.81152">
        <ele>169</ele>
        <time>2016-11-15T11:57:24Z</time>
      </trkpt>
      <trkpt lat="45.88433" lon="4.81146">
        <ele>168</ele>
        <time>2016-11-15T11:57:25Z</time>
      </trkpt>
      <trkpt lat="45.88436" lon="4.81139">
        <ele>168</ele>
        <time>2016-11-15T11:57:26Z</time>
      </trkpt>
      <trkpt lat="45.8844" lon="4.81133">
        <ele>168</ele>
        <time>2016-11-15T11:57:27Z</time>
      </trkpt>
      <trkpt lat="45.88444" lon="4.81127">
        <ele>168</ele>
        <time>2016-11-15T11:57:28Z</time>
      </trkpt>
      <trkpt lat="45.88448" lon="4.8112">
        <ele>168</ele>
        <time>2016-11-15T11:57:29Z</time>
      </trkpt>
      <trkpt lat="45.88451" lon="4.81115">
        <ele>168</ele>
        <time>2016-11-15T11:57:30Z</time>
      </trkpt>
      <trkpt lat="45.88455" lon="4.81109">
        <ele>168</ele>
        <time>2016-11-15T11:57:31Z</time>
      </trkpt>
      <trkpt lat="45.8846" lon="4.81103">
        <ele>168</ele>
        <time>2016-11-15T11:57:32Z</time>
      </trkpt>
      <trkpt lat="45.88464" lon="4.81098">
        <ele>168</ele>
        <time>2016-11-15T11:57:33Z</time>
      </trkpt>
      <trkpt lat="45.88468" lon="4.81092">
        <ele>168</ele>
        <time>2016-11-15T11:57:34Z</time>
      </trkpt>
      <trkpt lat="45.88472" lon="4.81086">
        <ele>168</ele>
        <time>2016-11-15T11:57:35Z</time>
      </trkpt>
      <trkpt lat="45.88476" lon="4.8108">
        <ele>168</ele>
        <time>2016-11-15T11:57:36Z</time>
      </trkpt>
      <trkpt lat="45.8848" lon="4.81074">
        <ele>168</ele>
        <time>2016-11-15T11:57:37Z</time>
      </trkpt>
      <trkpt lat="45.88485" lon="4.81068">
        <ele>168</ele>
        <time>2016-11-15T11:57:38Z</time>
      </trkpt>
      <trkpt lat="45.88489" lon="4.81062">
        <ele>168</ele>
        <time>2016-11-15T11:57:39Z</time>
      </trkpt>
      <trkpt lat="45.88493" lon="4.81056">
        <ele>168</ele>
        <time>2016-11-15T11:57:40Z</time>
      </trkpt>
      <trkpt lat="45.88498" lon="4.81051">
        <ele>168</ele>
        <time>2016-11-15T11:57:41Z</time>
      </trkpt>
      <trkpt lat="45.88502" lon="4.81045">
        <ele>169</ele>
        <time>2016-11-15T11:57:42Z</time>
      </trkpt>
      <trkpt lat="45.88506" lon="4.81039">
        <ele>169</ele>
        <time>2016-11-15T11:57:43Z</time>
      </trkpt>
      <trkpt lat="45.88511" lon="4.81034">
        <ele>169</ele>
        <time>2016-11-15T11:57:44Z</time>
      </trkpt>
      <trkpt lat="45.88515" lon="4.81028">
        <ele>169</ele>
        <time>2016-11-15T11:57:45Z</time>
      </trkpt>
      <trkpt lat="45.88519" lon="4.81022">
        <ele>169</ele>
        <time>2016-11-15T11:57:46Z</time>
      </trkpt>
      <trkpt lat="45.88523" lon="4.81017">
        <ele>169</ele>
        <time>2016-11-15T11:57:47Z</time>
      </trkpt>
      <trkpt lat="45.88527" lon="4.81012">
        <ele>169</ele>
        <time>2016-11-15T11:57:48Z</time>
      </trkpt>
      <trkpt lat="45.88531" lon="4.81006">
        <ele>169</ele>
        <time>2016-11-15T11:57:49Z</time>
      </trkpt>
      <trkpt lat="45.88536" lon="4.81">
        <ele>169</ele>
        <time>2016-11-15T11:57:50Z</time>
      </trkpt>
      <trkpt lat="45.8854" lon="4.80994">
        <ele>169</ele>
        <time>2016-11-15T11:57:51Z</time>
      </trkpt>
      <trkpt lat="45.88545" lon="4.80989">
        <ele>169</ele>
        <time>2016-11-15T11:57:52Z</time>
      </trkpt>
      <trkpt lat="45.8855" lon="4.80984">
        <ele>169</ele>
        <time>2016-11-15T11:57:53Z</time>
      </trkpt>
      <trkpt lat="45.88554" lon="4.80978">
        <ele>169</ele>
        <time>2016-11-15T11:57:54Z</time>
      </trkpt>
      <trkpt lat="45.88558" lon="4.80973">
        <ele>169</ele>
        <time>2016-11-15T11:57:55Z</time>
      </trkpt>
      <trkpt lat="45.88562" lon="4.80968">
        <ele>169</ele>
        <time>2016-11-15T11:57:56Z</time>
      </trkpt>
      <trkpt lat="45.88566" lon="4.80963">
        <ele>169</ele>
        <time>2016-11-15T11:57:57Z</time>
      </trkpt>
      <trkpt lat="45.88571" lon="4.80958">
        <ele>169</ele>
        <time>2016-11-15T11:57:58Z</time>
      </trkpt>
      <trkpt lat="45.88575" lon="4.80953">
        <ele>169</ele>
        <time>2016-11-15T11:57:59Z</time>
      </trkpt>
      <trkpt lat="45.88579" lon="4.80949">
        <ele>169</ele>
        <time>2016-11-15T11:58:00Z</time>
      </trkpt>
      <trkpt lat="45.88583" lon="4.80944">
        <ele>169</ele>
        <time>2016-11-15T11:58:01Z</time>
      </trkpt>
      <trkpt lat="45.88587" lon="4.8094">
        <ele>169</ele>
        <time>2016-11-15T11:58:02Z</time>
      </trkpt>
      <trkpt lat="45.88591" lon="4.80935">
        <ele>169</ele>
        <time>2016-11-15T11:58:03Z</time>
      </trkpt>
      <trkpt lat="45.88595" lon="4.8093">
        <ele>169</ele>
        <time>2016-11-15T11:58:04Z</time>
      </trkpt>
      <trkpt lat="45.88599" lon="4.80926">
        <ele>169</ele>
        <time>2016-11-15T11:58:05Z</time>
      </trkpt>
      <trkpt lat="45.88602" lon="4.80921">
        <ele>169</ele>
        <time>2016-11-15T11:58:06Z</time>
      </trkpt>
      <trkpt lat="45.88607" lon="4.80917">
        <ele>169</ele>
        <time>2016-11-15T11:58:07Z</time>
      </trkpt>
      <trkpt lat="45.88611" lon="4.80913">
        <ele>170</ele>
        <time>2016-11-15T11:58:08Z</time>
      </trkpt>
      <trkpt lat="45.88615" lon="4.80908">
        <ele>170</ele>
        <time>2016-11-15T11:58:09Z</time>
      </trkpt>
      <trkpt lat="45.88619" lon="4.80904">
        <ele>171</ele>
        <time>2016-11-15T11:58:10Z</time>
      </trkpt>
      <trkpt lat="45.88624" lon="4.80899">
        <ele>171</ele>
        <time>2016-11-15T11:58:11Z</time>
      </trkpt>
      <trkpt lat="45.88628" lon="4.80894">
        <ele>171</ele>
        <time>2016-11-15T11:58:12Z</time>
      </trkpt>
      <trkpt lat="45.88632" lon="4.80889">
        <ele>171</ele>
        <time>2016-11-15T11:58:13Z</time>
      </trkpt>
      <trkpt lat="45.88637" lon="4.80884">
        <ele>171</ele>
        <time>2016-11-15T11:58:14Z</time>
      </trkpt>
      <trkpt lat="45.88641" lon="4.80879">
        <ele>171</ele>
        <time>2016-11-15T11:58:15Z</time>
      </trkpt>
      <trkpt lat="45.88645" lon="4.80873">
        <ele>171</ele>
        <time>2016-11-15T11:58:16Z</time>
      </trkpt>
      <trkpt lat="45.8865" lon="4.80868">
        <ele>171</ele>
        <time>2016-11-15T11:58:17Z</time>
      </trkpt>
      <trkpt lat="45.88654" lon="4.80864">
        <ele>171</ele>
        <time>2016-11-15T11:58:18Z</time>
      </trkpt>
      <trkpt lat="45.88659" lon="4.80859">
        <ele>171</ele>
        <time>2016-11-15T11:58:19Z</time>
      </trkpt>
      <trkpt lat="45.88664" lon="4.80854">
        <ele>171</ele>
        <time>2016-11-15T11:58:20Z</time>
      </trkpt>
      <trkpt lat="45.88668" lon="4.8085">
        <ele>170</ele>
        <time>2016-11-15T11:58:21Z</time>
      </trkpt>
      <trkpt lat="45.88673" lon="4.80844">
        <ele>171</ele>
        <time>2016-11-15T11:58:22Z</time>
      </trkpt>
      <trkpt lat="45.88678" lon="4.80837">
        <ele>171</ele>
        <time>2016-11-15T11:58:23Z</time>
      </trkpt>
      <trkpt lat="45.88683" lon="4.80832">
        <ele>171</ele>
        <time>2016-11-15T11:58:24Z</time>
      </trkpt>
      <trkpt lat="45.88687" lon="4.80828">
        <ele>171</ele>
        <time>2016-11-15T11:58:25Z</time>
      </trkpt>
      <trkpt lat="45.88691" lon="4.80823">
        <ele>171</ele>
        <time>2016-11-15T11:58:26Z</time>
      </trkpt>
      <trkpt lat="45.88696" lon="4.80819">
        <ele>171</ele>
        <time>2016-11-15T11:58:27Z</time>
      </trkpt>
      <trkpt lat="45.88701" lon="4.80814">
        <ele>171</ele>
        <time>2016-11-15T11:58:28Z</time>
      </trkpt>
      <trkpt lat="45.88705" lon="4.80809">
        <ele>170</ele>
        <time>2016-11-15T11:58:29Z</time>
      </trkpt>
      <trkpt lat="45.88709" lon="4.80804">
        <ele>170</ele>
        <time>2016-11-15T11:58:30Z</time>
      </trkpt>
      <trkpt lat="45.88713" lon="4.80799">
        <ele>170</ele>
        <time>2016-11-15T11:58:31Z</time>
      </trkpt>
      <trkpt lat="45.88718" lon="4.80795">
        <ele>170</ele>
        <time>2016-11-15T11:58:32Z</time>
      </trkpt>
      <trkpt lat="45.88722" lon="4.8079">
        <ele>170</ele>
        <time>2016-11-15T11:58:33Z</time>
      </trkpt>
      <trkpt lat="45.88726" lon="4.80785">
        <ele>170</ele>
        <time>2016-11-15T11:58:34Z</time>
      </trkpt>
      <trkpt lat="45.88731" lon="4.80781">
        <ele>170</ele>
        <time>2016-11-15T11:58:35Z</time>
      </trkpt>
      <trkpt lat="45.88735" lon="4.80776">
        <ele>170</ele>
        <time>2016-11-15T11:58:36Z</time>
      </trkpt>
      <trkpt lat="45.8874" lon="4.80771">
        <ele>170</ele>
        <time>2016-11-15T11:58:37Z</time>
      </trkpt>
      <trkpt lat="45.88745" lon="4.80767">
        <ele>170</ele>
        <time>2016-11-15T11:58:38Z</time>
      </trkpt>
      <trkpt lat="45.8875" lon="4.80763">
        <ele>170</ele>
        <time>2016-11-15T11:58:39Z</time>
      </trkpt>
      <trkpt lat="45.88754" lon="4.80758">
        <ele>169</ele>
        <time>2016-11-15T11:58:40Z</time>
      </trkpt>
      <trkpt lat="45.88758" lon="4.80753">
        <ele>169</ele>
        <time>2016-11-15T11:58:41Z</time>
      </trkpt>
      <trkpt lat="45.88763" lon="4.80748">
        <ele>170</ele>
        <time>2016-11-15T11:58:42Z</time>
      </trkpt>
      <trkpt lat="45.88767" lon="4.80743">
        <ele>170</ele>
        <time>2016-11-15T11:58:43Z</time>
      </trkpt>
      <trkpt lat="45.88771" lon="4.80738">
        <ele>171</ele>
        <time>2016-11-15T11:58:44Z</time>
      </trkpt>
      <trkpt lat="45.88776" lon="4.80733">
        <ele>171</ele>
        <time>2016-11-15T11:58:45Z</time>
      </trkpt>
      <trkpt lat="45.8878" lon="4.80729">
        <ele>171</ele>
        <time>2016-11-15T11:58:46Z</time>
      </trkpt>
      <trkpt lat="45.88784" lon="4.80724">
        <ele>171</ele>
        <time>2016-11-15T11:58:47Z</time>
      </trkpt>
      <trkpt lat="45.88788" lon="4.80719">
        <ele>172</ele>
        <time>2016-11-15T11:58:48Z</time>
      </trkpt>
      <trkpt lat="45.88792" lon="4.80714">
        <ele>172</ele>
        <time>2016-11-15T11:58:49Z</time>
      </trkpt>
      <trkpt lat="45.88796" lon="4.8071">
        <ele>172</ele>
        <time>2016-11-15T11:58:50Z</time>
      </trkpt>
      <trkpt lat="45.88799" lon="4.80705">
        <ele>172</ele>
        <time>2016-11-15T11:58:51Z</time>
      </trkpt>
      <trkpt lat="45.88803" lon="4.80701">
        <ele>172</ele>
        <time>2016-11-15T11:58:52Z</time>
      </trkpt>
      <trkpt lat="45.88807" lon="4.80696">
        <ele>172</ele>
        <time>2016-11-15T11:58:53Z</time>
      </trkpt>
      <trkpt lat="45.88811" lon="4.80691">
        <ele>172</ele>
        <time>2016-11-15T11:58:54Z</time>
      </trkpt>
      <trkpt lat="45.88816" lon="4.80686">
        <ele>172</ele>
        <time>2016-11-15T11:58:55Z</time>
      </trkpt>
      <trkpt lat="45.8882" lon="4.80681">
        <ele>172</ele>
        <time>2016-11-15T11:58:56Z</time>
      </trkpt>
      <trkpt lat="45.88825" lon="4.80677">
        <ele>173</ele>
        <time>2016-11-15T11:58:57Z</time>
      </trkpt>
      <trkpt lat="45.8883" lon="4.80673">
        <ele>173</ele>
        <time>2016-11-15T11:58:58Z</time>
      </trkpt>
      <trkpt lat="45.88833" lon="4.8067">
        <ele>173</ele>
        <time>2016-11-15T11:58:59Z</time>
      </trkpt>
      <trkpt lat="45.88837" lon="4.80665">
        <ele>173</ele>
        <time>2016-11-15T11:59:00Z</time>
      </trkpt>
      <trkpt lat="45.88841" lon="4.8066">
        <ele>173</ele>
        <time>2016-11-15T11:59:01Z</time>
      </trkpt>
      <trkpt lat="45.88846" lon="4.80656">
        <ele>173</ele>
        <time>2016-11-15T11:59:02Z</time>
      </trkpt>
      <trkpt lat="45.8885" lon="4.80652">
        <ele>173</ele>
        <time>2016-11-15T11:59:03Z</time>
      </trkpt>
      <trkpt lat="45.88854" lon="4.80649">
        <ele>172</ele>
        <time>2016-11-15T11:59:04Z</time>
      </trkpt>
      <trkpt lat="45.88858" lon="4.80645">
        <ele>172</ele>
        <time>2016-11-15T11:59:05Z</time>
      </trkpt>
      <trkpt lat="45.88862" lon="4.80642">
        <ele>172</ele>
        <time>2016-11-15T11:59:06Z</time>
      </trkpt>
      <trkpt lat="45.88867" lon="4.80638">
        <ele>172</ele>
        <time>2016-11-15T11:59:07Z</time>
      </trkpt>
      <trkpt lat="45.88871" lon="4.80635">
        <ele>172</ele>
        <time>2016-11-15T11:59:08Z</time>
      </trkpt>
      <trkpt lat="45.88876" lon="4.80632">
        <ele>172</ele>
        <time>2016-11-15T11:59:09Z</time>
      </trkpt>
      <trkpt lat="45.8888" lon="4.80628">
        <ele>172</ele>
        <time>2016-11-15T11:59:10Z</time>
      </trkpt>
      <trkpt lat="45.88885" lon="4.80624">
        <ele>172</ele>
        <time>2016-11-15T11:59:11Z</time>
      </trkpt>
      <trkpt lat="45.8889" lon="4.80621">
        <ele>172</ele>
        <time>2016-11-15T11:59:12Z</time>
      </trkpt>
      <trkpt lat="45.88895" lon="4.80617">
        <ele>172</ele>
        <time>2016-11-15T11:59:13Z</time>
      </trkpt>
      <trkpt lat="45.889" lon="4.80613">
        <ele>172</ele>
        <time>2016-11-15T11:59:14Z</time>
      </trkpt>
      <trkpt lat="45.88905" lon="4.80611">
        <ele>172</ele>
        <time>2016-11-15T11:59:15Z</time>
      </trkpt>
      <trkpt lat="45.88911" lon="4.80608">
        <ele>172</ele>
        <time>2016-11-15T11:59:16Z</time>
      </trkpt>
      <trkpt lat="45.88916" lon="4.80604">
        <ele>172</ele>
        <time>2016-11-15T11:59:17Z</time>
      </trkpt>
      <trkpt lat="45.88921" lon="4.80601">
        <ele>170</ele>
        <time>2016-11-15T11:59:18Z</time>
      </trkpt>
      <trkpt lat="45.88926" lon="4.80597">
        <ele>170</ele>
        <time>2016-11-15T11:59:19Z</time>
      </trkpt>
      <trkpt lat="45.8893" lon="4.80593">
        <ele>170</ele>
        <time>2016-11-15T11:59:20Z</time>
      </trkpt>
      <trkpt lat="45.88935" lon="4.8059">
        <ele>170</ele>
        <time>2016-11-15T11:59:21Z</time>
      </trkpt>
      <trkpt lat="45.8894" lon="4.80587">
        <ele>170</ele>
        <time>2016-11-15T11:59:22Z</time>
      </trkpt>
      <trkpt lat="45.88945" lon="4.80585">
        <ele>170</ele>
        <time>2016-11-15T11:59:23Z</time>
      </trkpt>
      <trkpt lat="45.88949" lon="4.80582">
        <ele>172</ele>
        <time>2016-11-15T11:59:24Z</time>
      </trkpt>
      <trkpt lat="45.88954" lon="4.8058">
        <ele>172</ele>
        <time>2016-11-15T11:59:25Z</time>
      </trkpt>
      <trkpt lat="45.88959" lon="4.80578">
        <ele>172</ele>
        <time>2016-11-15T11:59:26Z</time>
      </trkpt>
      <trkpt lat="45.88963" lon="4.80576">
        <ele>172</ele>
        <time>2016-11-15T11:59:27Z</time>
      </trkpt>
      <trkpt lat="45.88968" lon="4.80575">
        <ele>172</ele>
        <time>2016-11-15T11:59:28Z</time>
      </trkpt>
      <trkpt lat="45.88974" lon="4.80573">
        <ele>172</ele>
        <time>2016-11-15T11:59:29Z</time>
      </trkpt>
      <trkpt lat="45.8898" lon="4.80572">
        <ele>172</ele>
        <time>2016-11-15T11:59:30Z</time>
      </trkpt>
      <trkpt lat="45.88986" lon="4.80571">
        <ele>172</ele>
        <time>2016-11-15T11:59:31Z</time>
      </trkpt>
      <trkpt lat="45.88992" lon="4.80569">
        <ele>172</ele>
        <time>2016-11-15T11:59:32Z</time>
      </trkpt>
      <trkpt lat="45.88997" lon="4.80567">
        <ele>172</ele>
        <time>2016-11-15T11:59:33Z</time>
      </trkpt>
      <trkpt lat="45.89003" lon="4.80565">
        <ele>172</ele>
        <time>2016-11-15T11:59:34Z</time>
      </trkpt>
      <trkpt lat="45.89008" lon="4.80564">
        <ele>172</ele>
        <time>2016-11-15T11:59:35Z</time>
      </trkpt>
      <trkpt lat="45.89013" lon="4.80562">
        <ele>172</ele>
        <time>2016-11-15T11:59:36Z</time>
      </trkpt>
      <trkpt lat="45.89017" lon="4.8056">
        <ele>172</ele>
        <time>2016-11-15T11:59:37Z</time>
      </trkpt>
      <trkpt lat="45.89022" lon="4.80558">
        <ele>172</ele>
        <time>2016-11-15T11:59:38Z</time>
      </trkpt>
      <trkpt lat="45.89027" lon="4.80557">
        <ele>172</ele>
        <time>2016-11-15T11:59:39Z</time>
      </trkpt>
      <trkpt lat="45.89032" lon="4.80555">
        <ele>172</ele>
        <time>2016-11-15T11:59:40Z</time>
      </trkpt>
      <trkpt lat="45.89037" lon="4.80553">
        <ele>173</ele>
        <time>2016-11-15T11:59:41Z</time>
      </trkpt>
      <trkpt lat="45.89042" lon="4.80552">
        <ele>173</ele>
        <time>2016-11-15T11:59:42Z</time>
      </trkpt>
      <trkpt lat="45.89048" lon="4.80549">
        <ele>173</ele>
        <time>2016-11-15T11:59:43Z</time>
      </trkpt>
      <trkpt lat="45.89054" lon="4.80547">
        <ele>173</ele>
        <time>2016-11-15T11:59:44Z</time>
      </trkpt>
      <trkpt lat="45.89059" lon="4.80545">
        <ele>173</ele>
        <time>2016-11-15T11:59:45Z</time>
      </trkpt>
      <trkpt lat="45.89065" lon="4.80542">
        <ele>173</ele>
        <time>2016-11-15T11:59:46Z</time>
      </trkpt>
      <trkpt lat="45.89071" lon="4.80541">
        <ele>173</ele>
        <time>2016-11-15T11:59:47Z</time>
      </trkpt>
      <trkpt lat="45.89076" lon="4.8054">
        <ele>173</ele>
        <time>2016-11-15T11:59:48Z</time>
      </trkpt>
      <trkpt lat="45.89081" lon="4.80538">
        <ele>173</ele>
        <time>2016-11-15T11:59:49Z</time>
      </trkpt>
      <trkpt lat="45.89086" lon="4.80537">
        <ele>173</ele>
        <time>2016-11-15T11:59:50Z</time>
      </trkpt>
      <trkpt lat="45.89091" lon="4.80536">
        <ele>173</ele>
        <time>2016-11-15T11:59:51Z</time>
      </trkpt>
      <trkpt lat="45.89096" lon="4.80538">
        <ele>173</ele>
        <time>2016-11-15T11:59:52Z</time>
      </trkpt>
      <trkpt lat="45.89102" lon="4.80537">
        <ele>173</ele>
        <time>2016-11-15T11:59:53Z</time>
      </trkpt>
      <trkpt lat="45.89107" lon="4.80535">
        <ele>173</ele>
        <time>2016-11-15T11:59:54Z</time>
      </trkpt>
      <trkpt lat="45.89113" lon="4.80533">
        <ele>173</ele>
        <time>2016-11-15T11:59:55Z</time>
      </trkpt>
      <trkpt lat="45.8912" lon="4.8053">
        <ele>173</ele>
        <time>2016-11-15T11:59:56Z</time>
      </trkpt>
      <trkpt lat="45.89126" lon="4.80528">
        <ele>173</ele>
        <time>2016-11-15T11:59:57Z</time>
      </trkpt>
      <trkpt lat="45.89132" lon="4.80525">
        <ele>173</ele>
        <time>2016-11-15T11:59:58Z</time>
      </trkpt>
      <trkpt lat="45.89138" lon="4.80521">
        <ele>173</ele>
        <time>2016-11-15T11:59:59Z</time>
      </trkpt>
      <trkpt lat="45.89144" lon="4.80518">
        <ele>173</ele>
        <time>2016-11-15T12:00:00Z</time>
      </trkpt>
      <trkpt lat="45.8915" lon="4.80513">
        <ele>173</ele>
        <time>2016-11-15T12:00:01Z</time>
      </trkpt>
      <trkpt lat="45.89155" lon="4.80508">
        <ele>173</ele>
        <time>2016-11-15T12:00:02Z</time>
      </trkpt>
      <trkpt lat="45.8916" lon="4.80504">
        <ele>173</ele>
        <time>2016-11-15T12:00:03Z</time>
      </trkpt>
      <trkpt lat="45.89165" lon="4.80501">
        <ele>173</ele>
        <time>2016-11-15T12:00:04Z</time>
      </trkpt>
      <trkpt lat="45.8917" lon="4.80496">
        <ele>173</ele>
        <time>2016-11-15T12:00:05Z</time>
      </trkpt>
      <trkpt lat="45.89176" lon="4.80492">
        <ele>173</ele>
        <time>2016-11-15T12:00:06Z</time>
      </trkpt>
      <trkpt lat="45.89181" lon="4.80489">
        <ele>173</ele>
        <time>2016-11-15T12:00:07Z</time>
      </trkpt>
      <trkpt lat="45.89185" lon="4.80485">
        <ele>173</ele>
        <time>2016-11-15T12:00:08Z</time>
      </trkpt>
      <trkpt lat="45.8919" lon="4.80481">
        <ele>173</ele>
        <time>2016-11-15T12:00:09Z</time>
      </trkpt>
      <trkpt lat="45.89194" lon="4.80476">
        <ele>173</ele>
        <time>2016-11-15T12:00:10Z</time>
      </trkpt>
      <trkpt lat="45.89199" lon="4.80472">
        <ele>173</ele>
        <time>2016-11-15T12:00:11Z</time>
      </trkpt>
      <trkpt lat="45.89204" lon="4.80468">
        <ele>173</ele>
        <time>2016-11-15T12:00:12Z</time>
      </trkpt>
      <trkpt lat="45.89208" lon="4.80464">
        <ele>173</ele>
        <time>2016-11-15T12:00:13Z</time>
      </trkpt>
      <trkpt lat="45.89213" lon="4.80459">
        <ele>173</ele>
        <time>2016-11-15T12:00:14Z</time>
      </trkpt>
      <trkpt lat="45.89218" lon="4.80455">
        <ele>173</ele>
        <time>2016-11-15T12:00:15Z</time>
      </trkpt>
      <trkpt lat="45.89223" lon="4.8045">
        <ele>173</ele>
        <time>2016-11-15T12:00:16Z</time>
      </trkpt>
      <trkpt lat="45.89229" lon="4.80444">
        <ele>173</ele>
        <time>2016-11-15T12:00:17Z</time>
      </trkpt>
      <trkpt lat="45.89234" lon="4.8044">
        <ele>173</ele>
        <time>2016-11-15T12:00:18Z</time>
      </trkpt>
      <trkpt lat="45.89239" lon="4.80435">
        <ele>173</ele>
        <time>2016-11-15T12:00:19Z</time>
      </trkpt>
      <trkpt lat="45.89245" lon="4.80428">
        <ele>173</ele>
        <time>2016-11-15T12:00:20Z</time>
      </trkpt>
      <trkpt lat="45.8925" lon="4.80423">
        <ele>173</ele>
        <time>2016-11-15T12:00:21Z</time>
      </trkpt>
      <trkpt lat="45.89256" lon="4.80418">
        <ele>172</ele>
        <time>2016-11-15T12:00:22Z</time>
      </trkpt>
      <trkpt lat="45.89261" lon="4.80414">
        <ele>173</ele>
        <time>2016-11-15T12:00:23Z</time>
      </trkpt>
      <trkpt lat="45.89266" lon="4.8041">
        <ele>174</ele>
        <time>2016-11-15T12:00:24Z</time>
      </trkpt>
      <trkpt lat="45.89271" lon="4.80406">
        <ele>174</ele>
        <time>2016-11-15T12:00:25Z</time>
      </trkpt>
      <trkpt lat="45.89276" lon="4.80401">
        <ele>174</ele>
        <time>2016-11-15T12:00:26Z</time>
      </trkpt>
      <trkpt lat="45.89281" lon="4.80396">
        <ele>174</ele>
        <time>2016-11-15T12:00:27Z</time>
      </trkpt>
      <trkpt lat="45.89286" lon="4.80391">
        <ele>174</ele>
        <time>2016-11-15T12:00:28Z</time>
      </trkpt>
      <trkpt lat="45.8929" lon="4.80386">
        <ele>174</ele>
        <time>2016-11-15T12:00:29Z</time>
      </trkpt>
      <trkpt lat="45.89295" lon="4.80382">
        <ele>174</ele>
        <time>2016-11-15T12:00:30Z</time>
      </trkpt>
      <trkpt lat="45.893" lon="4.80377">
        <ele>174</ele>
        <time>2016-11-15T12:00:31Z</time>
      </trkpt>
      <trkpt lat="45.89304" lon="4.80373">
        <ele>174</ele>
        <time>2016-11-15T12:00:32Z</time>
      </trkpt>
      <trkpt lat="45.89309" lon="4.80368">
        <ele>174</ele>
        <time>2016-11-15T12:00:33Z</time>
      </trkpt>
      <trkpt lat="45.89314" lon="4.80364">
        <ele>174</ele>
        <time>2016-11-15T12:00:34Z</time>
      </trkpt>
      <trkpt lat="45.89319" lon="4.8036">
        <ele>174</ele>
        <time>2016-11-15T12:00:35Z</time>
      </trkpt>
      <trkpt lat="45.89324" lon="4.80355">
        <ele>174</ele>
        <time>2016-11-15T12:00:36Z</time>
      </trkpt>
      <trkpt lat="45.89329" lon="4.8035">
        <ele>175</ele>
        <time>2016-11-15T12:00:37Z</time>
      </trkpt>
      <trkpt lat="45.89334" lon="4.80345">
        <ele>173</ele>
        <time>2016-11-15T12:00:38Z</time>
      </trkpt>
      <trkpt lat="45.89339" lon="4.80341">
        <ele>174</ele>
        <time>2016-11-15T12:00:39Z</time>
      </trkpt>
      <trkpt lat="45.89344" lon="4.80336">
        <ele>174</ele>
        <time>2016-11-15T12:00:40Z</time>
      </trkpt>
      <trkpt lat="45.89348" lon="4.80332">
        <ele>176</ele>
        <time>2016-11-15T12:00:41Z</time>
      </trkpt>
      <trkpt lat="45.89353" lon="4.80328">
        <ele>176</ele>
        <time>2016-11-15T12:00:42Z</time>
      </trkpt>
      <trkpt lat="45.89358" lon="4.80323">
        <ele>176</ele>
        <time>2016-11-15T12:00:43Z</time>
      </trkpt>
      <trkpt lat="45.89363" lon="4.80319">
        <ele>176</ele>
        <time>2016-11-15T12:00:44Z</time>
      </trkpt>
      <trkpt lat="45.89367" lon="4.80315">
        <ele>176</ele>
        <time>2016-11-15T12:00:45Z</time>
      </trkpt>
      <trkpt lat="45.89372" lon="4.8031">
        <ele>176</ele>
        <time>2016-11-15T12:00:46Z</time>
      </trkpt>
      <trkpt lat="45.89377" lon="4.80306">
        <ele>176</ele>
        <time>2016-11-15T12:00:47Z</time>
      </trkpt>
      <trkpt lat="45.89383" lon="4.80303">
        <ele>176</ele>
        <time>2016-11-15T12:00:48Z</time>
      </trkpt>
      <trkpt lat="45.89388" lon="4.80299">
        <ele>176</ele>
        <time>2016-11-15T12:00:49Z</time>
      </trkpt>
      <trkpt lat="45.89393" lon="4.80295">
        <ele>176</ele>
        <time>2016-11-15T12:00:50Z</time>
      </trkpt>
      <trkpt lat="45.89398" lon="4.80291">
        <ele>176</ele>
        <time>2016-11-15T12:00:51Z</time>
      </trkpt>
      <trkpt lat="45.89404" lon="4.80288">
        <ele>176</ele>
        <time>2016-11-15T12:00:52Z</time>
      </trkpt>
      <trkpt lat="45.89409" lon="4.80284">
        <ele>177</ele>
        <time>2016-11-15T12:00:53Z</time>
      </trkpt>
      <trkpt lat="45.89415" lon="4.80281">
        <ele>177</ele>
        <time>2016-11-15T12:00:54Z</time>
      </trkpt>
      <trkpt lat="45.89421" lon="4.80277">
        <ele>175</ele>
        <time>2016-11-15T12:00:55Z</time>
      </trkpt>
      <trkpt lat="45.89426" lon="4.80274">
        <ele>175</ele>
        <time>2016-11-15T12:00:56Z</time>
      </trkpt>
      <trkpt lat="45.89431" lon="4.80271">
        <ele>175</ele>
        <time>2016-11-15T12:00:57Z</time>
      </trkpt>
      <trkpt lat="45.89436" lon="4.80268">
        <ele>175</ele>
        <time>2016-11-15T12:00:58Z</time>
      </trkpt>
      <trkpt lat="45.89441" lon="4.80266">
        <ele>175</ele>
        <time>2016-11-15T12:00:59Z</time>
      </trkpt>
      <trkpt lat="45.89447" lon="4.80264">
        <ele>175</ele>
        <time>2016-11-15T12:01:00Z</time>
      </trkpt>
      <trkpt lat="45.89453" lon="4.80261">
        <ele>174</ele>
        <time>2016-11-15T12:01:01Z</time>
      </trkpt>
      <trkpt lat="45.89459" lon="4.80258">
        <ele>174</ele>
        <time>2016-11-15T12:01:02Z</time>
      </trkpt>
      <trkpt lat="45.89465" lon="4.80255">
        <ele>174</ele>
        <time>2016-11-15T12:01:03Z</time>
      </trkpt>
      <trkpt lat="45.89472" lon="4.80252">
        <ele>174</ele>
        <time>2016-11-15T12:01:04Z</time>
      </trkpt>
      <trkpt lat="45.89478" lon="4.80249">
        <ele>175</ele>
        <time>2016-11-15T12:01:05Z</time>
      </trkpt>
      <trkpt lat="45.89484" lon="4.80246">
        <ele>175</ele>
        <time>2016-11-15T12:01:06Z</time>
      </trkpt>
      <trkpt lat="45.89489" lon="4.80243">
        <ele>174</ele>
        <time>2016-11-15T12:01:07Z</time>
      </trkpt>
      <trkpt lat="45.89496" lon="4.8024">
        <ele>174</ele>
        <time>2016-11-15T12:01:08Z</time>
      </trkpt>
      <trkpt lat="45.89502" lon="4.80238">
        <ele>173</ele>
        <time>2016-11-15T12:01:09Z</time>
      </trkpt>
      <trkpt lat="45.89508" lon="4.80235">
        <ele>173</ele>
        <time>2016-11-15T12:01:10Z</time>
      </trkpt>
      <trkpt lat="45.89514" lon="4.80233">
        <ele>173</ele>
        <time>2016-11-15T12:01:11Z</time>
      </trkpt>
      <trkpt lat="45.8952" lon="4.80231">
        <ele>173</ele>
        <time>2016-11-15T12:01:12Z</time>
      </trkpt>
      <trkpt lat="45.89526" lon="4.80228">
        <ele>173</ele>
        <time>2016-11-15T12:01:13Z</time>
      </trkpt>
      <trkpt lat="45.89531" lon="4.80225">
        <ele>173</ele>
        <time>2016-11-15T12:01:14Z</time>
      </trkpt>
      <trkpt lat="45.89537" lon="4.80222">
        <ele>173</ele>
        <time>2016-11-15T12:01:15Z</time>
      </trkpt>
      <trkpt lat="45.89543" lon="4.8022">
        <ele>173</ele>
        <time>2016-11-15T12:01:16Z</time>
      </trkpt>
      <trkpt lat="45.8955" lon="4.80218">
        <ele>173</ele>
        <time>2016-11-15T12:01:17Z</time>
      </trkpt>
      <trkpt lat="45.89556" lon="4.80215">
        <ele>173</ele>
        <time>2016-11-15T12:01:18Z</time>
      </trkpt>
      <trkpt lat="45.89562" lon="4.80213">
        <ele>173</ele>
        <time>2016-11-15T12:01:19Z</time>
      </trkpt>
      <trkpt lat="45.89569" lon="4.8021">
        <ele>173</ele>
        <time>2016-11-15T12:01:20Z</time>
      </trkpt>
      <trkpt lat="45.89575" lon="4.80208">
        <ele>173</ele>
        <time>2016-11-15T12:01:21Z</time>
      </trkpt>
      <trkpt lat="45.89581" lon="4.80205">
        <ele>173</ele>
        <time>2016-11-15T12:01:22Z</time>
      </trkpt>
      <trkpt lat="45.89588" lon="4.80202">
        <ele>172</ele>
        <time>2016-11-15T12:01:23Z</time>
      </trkpt>
      <trkpt lat="45.89594" lon="4.80199">
        <ele>172</ele>
        <time>2016-11-15T12:01:24Z</time>
      </trkpt>
      <trkpt lat="45.89601" lon="4.80196">
        <ele>172</ele>
        <time>2016-11-15T12:01:25Z</time>
      </trkpt>
      <trkpt lat="45.89607" lon="4.80193">
        <ele>172</ele>
        <time>2016-11-15T12:01:26Z</time>
      </trkpt>
      <trkpt lat="45.89613" lon="4.8019">
        <ele>172</ele>
        <time>2016-11-15T12:01:27Z</time>
      </trkpt>
      <trkpt lat="45.89619" lon="4.80187">
        <ele>172</ele>
        <time>2016-11-15T12:01:28Z</time>
      </trkpt>
      <trkpt lat="45.89625" lon="4.80185">
        <ele>172</ele>
        <time>2016-11-15T12:01:29Z</time>
      </trkpt>
      <trkpt lat="45.89631" lon="4.80182">
        <ele>172</ele>
        <time>2016-11-15T12:01:30Z</time>
      </trkpt>
      <trkpt lat="45.89636" lon="4.80179">
        <ele>172</ele>
        <time>2016-11-15T12:01:31Z</time>
      </trkpt>
      <trkpt lat="45.89641" lon="4.80176">
        <ele>172</ele>
        <time>2016-11-15T12:01:32Z</time>
      </trkpt>
      <trkpt lat="45.89646" lon="4.80173">
        <ele>172</ele>
        <time>2016-11-15T12:01:33Z</time>
      </trkpt>
      <trkpt lat="45.89651" lon="4.80171">
        <ele>172</ele>
        <time>2016-11-15T12:01:34Z</time>
      </trkpt>
      <trkpt lat="45.89656" lon="4.80169">
        <ele>173</ele>
        <time>2016-11-15T12:01:35Z</time>
      </trkpt>
      <trkpt lat="45.89659" lon="4.80167">
        <ele>173</ele>
        <time>2016-11-15T12:01:36Z</time>
      </trkpt>
      <trkpt lat="45.89665" lon="4.80166">
        <ele>173</ele>
        <time>2016-11-15T12:01:37Z</time>
      </trkpt>
      <trkpt lat="45.8967" lon="4.80164">
        <ele>173</ele>
        <time>2016-11-15T12:01:38Z</time>
      </trkpt>
      <trkpt lat="45.89676" lon="4.80162">
        <ele>172</ele>
        <time>2016-11-15T12:01:39Z</time>
      </trkpt>
      <trkpt lat="45.89681" lon="4.8016">
        <ele>172</ele>
        <time>2016-11-15T12:01:40Z</time>
      </trkpt>
      <trkpt lat="45.89687" lon="4.80157">
        <ele>172</ele>
        <time>2016-11-15T12:01:41Z</time>
      </trkpt>
      <trkpt lat="45.89693" lon="4.80155">
        <ele>172</ele>
        <time>2016-11-15T12:01:42Z</time>
      </trkpt>
      <trkpt lat="45.89699" lon="4.80151">
        <ele>171</ele>
        <time>2016-11-15T12:01:43Z</time>
      </trkpt>
      <trkpt lat="45.89704" lon="4.80149">
        <ele>171</ele>
        <time>2016-11-15T12:01:44Z</time>
      </trkpt>
      <trkpt lat="45.8971" lon="4.80146">
        <ele>171</ele>
        <time>2016-11-15T12:01:45Z</time>
      </trkpt>
      <trkpt lat="45.89715" lon="4.80144">
        <ele>171</ele>
        <time>2016-11-15T12:01:46Z</time>
      </trkpt>
      <trkpt lat="45.89721" lon="4.80142">
        <ele>171</ele>
        <time>2016-11-15T12:01:47Z</time>
      </trkpt>
      <trkpt lat="45.89726" lon="4.8014">
        <ele>171</ele>
        <time>2016-11-15T12:01:48Z</time>
      </trkpt>
      <trkpt lat="45.89732" lon="4.80138">
        <ele>171</ele>
        <time>2016-11-15T12:01:49Z</time>
      </trkpt>
      <trkpt lat="45.89737" lon="4.80135">
        <ele>171</ele>
        <time>2016-11-15T12:01:50Z</time>
      </trkpt>
      <trkpt lat="45.89743" lon="4.80133">
        <ele>171</ele>
        <time>2016-11-15T12:01:51Z</time>
      </trkpt>
      <trkpt lat="45.89748" lon="4.8013">
        <ele>171</ele>
        <time>2016-11-15T12:01:52Z</time>
      </trkpt>
      <trkpt lat="45.89753" lon="4.80127">
        <ele>169</ele>
        <time>2016-11-15T12:01:53Z</time>
      </trkpt>
      <trkpt lat="45.89758" lon="4.80125">
        <ele>169</ele>
        <time>2016-11-15T12:01:54Z</time>
      </trkpt>
      <trkpt lat="45.89763" lon="4.80123">
        <ele>169</ele>
        <time>2016-11-15T12:01:55Z</time>
      </trkpt>
      <trkpt lat="45.89768" lon="4.80121">
        <ele>169</ele>
        <time>2016-11-15T12:01:56Z</time>
      </trkpt>
      <trkpt lat="45.89774" lon="4.80118">
        <ele>169</ele>
        <time>2016-11-15T12:01:57Z</time>
      </trkpt>
      <trkpt lat="45.8978" lon="4.80116">
        <ele>169</ele>
        <time>2016-11-15T12:01:58Z</time>
      </trkpt>
      <trkpt lat="45.89786" lon="4.80113">
        <ele>169</ele>
        <time>2016-11-15T12:01:59Z</time>
      </trkpt>
      <trkpt lat="45.89792" lon="4.8011">
        <ele>169</ele>
        <time>2016-11-15T12:02:00Z</time>
      </trkpt>
      <trkpt lat="45.89798" lon="4.80107">
        <ele>169</ele>
        <time>2016-11-15T12:02:01Z</time>
      </trkpt>
      <trkpt lat="45.89803" lon="4.80105">
        <ele>169</ele>
        <time>2016-11-15T12:02:02Z</time>
      </trkpt>
      <trkpt lat="45.89809" lon="4.80102">
        <ele>169</ele>
        <time>2016-11-15T12:02:03Z</time>
      </trkpt>
      <trkpt lat="45.89814" lon="4.801">
        <ele>169</ele>
        <time>2016-11-15T12:02:04Z</time>
      </trkpt>
      <trkpt lat="45.89819" lon="4.80098">
        <ele>169</ele>
        <time>2016-11-15T12:02:05Z</time>
      </trkpt>
      <trkpt lat="45.89824" lon="4.80097">
        <ele>170</ele>
        <time>2016-11-15T12:02:06Z</time>
      </trkpt>
      <trkpt lat="45.89829" lon="4.80096">
        <ele>170</ele>
        <time>2016-11-15T12:02:07Z</time>
      </trkpt>
      <trkpt lat="45.89834" lon="4.80094">
        <ele>170</ele>
        <time>2016-11-15T12:02:08Z</time>
      </trkpt>
      <trkpt lat="45.89839" lon="4.80092">
        <ele>170</ele>
        <time>2016-11-15T12:02:09Z</time>
      </trkpt>
      <trkpt lat="45.89844" lon="4.8009">
        <ele>170</ele>
        <time>2016-11-15T12:02:10Z</time>
      </trkpt>
      <trkpt lat="45.89849" lon="4.80088">
        <ele>170</ele>
        <time>2016-11-15T12:02:11Z</time>
      </trkpt>
      <trkpt lat="45.89854" lon="4.80086">
        <ele>170</ele>
        <time>2016-11-15T12:02:12Z</time>
      </trkpt>
      <trkpt lat="45.89859" lon="4.80084">
        <ele>170</ele>
        <time>2016-11-15T12:02:13Z</time>
      </trkpt>
      <trkpt lat="45.89864" lon="4.80082">
        <ele>170</ele>
        <time>2016-11-15T12:02:14Z</time>
      </trkpt>
      <trkpt lat="45.89869" lon="4.80079">
        <ele>170</ele>
        <time>2016-11-15T12:02:15Z</time>
      </trkpt>
      <trkpt lat="45.89874" lon="4.80077">
        <ele>170</ele>
        <time>2016-11-15T12:02:16Z</time>
      </trkpt>
      <trkpt lat="45.89879" lon="4.80075">
        <ele>170</ele>
        <time>2016-11-15T12:02:17Z</time>
      </trkpt>
      <trkpt lat="45.89884" lon="4.80074">
        <ele>170</ele>
        <time>2016-11-15T12:02:18Z</time>
      </trkpt>
      <trkpt lat="45.8989" lon="4.80072">
        <ele>170</ele>
        <time>2016-11-15T12:02:19Z</time>
      </trkpt>
      <trkpt lat="45.89895" lon="4.8007">
        <ele>170</ele>
        <time>2016-11-15T12:02:20Z</time>
      </trkpt>
      <trkpt lat="45.89901" lon="4.80069">
        <ele>170</ele>
        <time>2016-11-15T12:02:21Z</time>
      </trkpt>
      <trkpt lat="45.89906" lon="4.80066">
        <ele>170</ele>
        <time>2016-11-15T12:02:22Z</time>
      </trkpt>
      <trkpt lat="45.89911" lon="4.80064">
        <ele>170</ele>
        <time>2016-11-15T12:02:23Z</time>
      </trkpt>
      <trkpt lat="45.89917" lon="4.80061">
        <ele>170</ele>
        <time>2016-11-15T12:02:24Z</time>
      </trkpt>
      <trkpt lat="45.89922" lon="4.80059">
        <ele>170</ele>
        <time>2016-11-15T12:02:25Z</time>
      </trkpt>
      <trkpt lat="45.89927" lon="4.80057">
        <ele>170</ele>
        <time>2016-11-15T12:02:26Z</time>
      </trkpt>
      <trkpt lat="45.89932" lon="4.80055">
        <ele>170</ele>
        <time>2016-11-15T12:02:27Z</time>
      </trkpt>
      <trkpt lat="45.89938" lon="4.80053">
        <ele>170</ele>
        <time>2016-11-15T12:02:28Z</time>
      </trkpt>
      <trkpt lat="45.89943" lon="4.80051">
        <ele>170</ele>
        <time>2016-11-15T12:02:29Z</time>
      </trkpt>
      <trkpt lat="45.89948" lon="4.80049">
        <ele>170</ele>
        <time>2016-11-15T12:02:30Z</time>
      </trkpt>
      <trkpt lat="45.89953" lon="4.80047">
        <ele>170</ele>
        <time>2016-11-15T12:02:31Z</time>
      </trkpt>
      <trkpt lat="45.89958" lon="4.80045">
        <ele>170</ele>
        <time>2016-11-15T12:02:32Z</time>
      </trkpt>
      <trkpt lat="45.89963" lon="4.80043">
        <ele>170</ele>
        <time>2016-11-15T12:02:33Z</time>
      </trkpt>
      <trkpt lat="45.89968" lon="4.80041">
        <ele>170</ele>
        <time>2016-11-15T12:02:34Z</time>
      </trkpt>
      <trkpt lat="45.89973" lon="4.80039">
        <ele>170</ele>
        <time>2016-11-15T12:02:35Z</time>
      </trkpt>
      <trkpt lat="45.89979" lon="4.80036">
        <ele>170</ele>
        <time>2016-11-15T12:02:36Z</time>
      </trkpt>
      <trkpt lat="45.89985" lon="4.80033">
        <ele>170</ele>
        <time>2016-11-15T12:02:37Z</time>
      </trkpt>
      <trkpt lat="45.8999" lon="4.80032">
        <ele>170</ele>
        <time>2016-11-15T12:02:38Z</time>
      </trkpt>
      <trkpt lat="45.89995" lon="4.8003">
        <ele>170</ele>
        <time>2016-11-15T12:02:39Z</time>
      </trkpt>
      <trkpt lat="45.9" lon="4.80028">
        <ele>171</ele>
        <time>2016-11-15T12:02:40Z</time>
      </trkpt>
      <trkpt lat="45.90004" lon="4.80026">
        <ele>170</ele>
        <time>2016-11-15T12:02:41Z</time>
      </trkpt>
      <trkpt lat="45.90009" lon="4.80024">
        <ele>170</ele>
        <time>2016-11-15T12:02:42Z</time>
      </trkpt>
      <trkpt lat="45.90014" lon="4.80022">
        <ele>170</ele>
        <time>2016-11-15T12:02:43Z</time>
      </trkpt>
      <trkpt lat="45.90019" lon="4.8002">
        <ele>170</ele>
        <time>2016-11-15T12:02:44Z</time>
      </trkpt>
      <trkpt lat="45.90024" lon="4.80018">
        <ele>170</ele>
        <time>2016-11-15T12:02:45Z</time>
      </trkpt>
      <trkpt lat="45.90029" lon="4.80016">
        <ele>170</ele>
        <time>2016-11-15T12:02:46Z</time>
      </trkpt>
      <trkpt lat="45.90034" lon="4.80014">
        <ele>170</ele>
        <time>2016-11-15T12:02:47Z</time>
      </trkpt>
      <trkpt lat="45.90039" lon="4.80012">
        <ele>170</ele>
        <time>2016-11-15T12:02:48Z</time>
      </trkpt>
      <trkpt lat="45.90045" lon="4.8001">
        <ele>170</ele>
        <time>2016-11-15T12:02:49Z</time>
      </trkpt>
      <trkpt lat="45.9005" lon="4.80007">
        <ele>170</ele>
        <time>2016-11-15T12:02:50Z</time>
      </trkpt>
      <trkpt lat="45.90055" lon="4.80005">
        <ele>170</ele>
        <time>2016-11-15T12:02:51Z</time>
      </trkpt>
      <trkpt lat="45.90061" lon="4.80004">
        <ele>170</ele>
        <time>2016-11-15T12:02:52Z</time>
      </trkpt>
      <trkpt lat="45.90066" lon="4.80001">
        <ele>170</ele>
        <time>2016-11-15T12:02:53Z</time>
      </trkpt>
      <trkpt lat="45.90072" lon="4.79999">
        <ele>173</ele>
        <time>2016-11-15T12:02:54Z</time>
      </trkpt>
      <trkpt lat="45.90078" lon="4.79997">
        <ele>172</ele>
        <time>2016-11-15T12:02:55Z</time>
      </trkpt>
      <trkpt lat="45.90083" lon="4.79995">
        <ele>172</ele>
        <time>2016-11-15T12:02:56Z</time>
      </trkpt>
      <trkpt lat="45.90088" lon="4.79992">
        <ele>172</ele>
        <time>2016-11-15T12:02:57Z</time>
      </trkpt>
      <trkpt lat="45.90093" lon="4.7999">
        <ele>173</ele>
        <time>2016-11-15T12:02:58Z</time>
      </trkpt>
      <trkpt lat="45.90098" lon="4.79988">
        <ele>173</ele>
        <time>2016-11-15T12:02:59Z</time>
      </trkpt>
      <trkpt lat="45.90103" lon="4.79986">
        <ele>173</ele>
        <time>2016-11-15T12:03:00Z</time>
      </trkpt>
      <trkpt lat="45.90108" lon="4.79984">
        <ele>174</ele>
        <time>2016-11-15T12:03:01Z</time>
      </trkpt>
      <trkpt lat="45.90113" lon="4.79982">
        <ele>174</ele>
        <time>2016-11-15T12:03:02Z</time>
      </trkpt>
      <trkpt lat="45.90118" lon="4.79979">
        <ele>174</ele>
        <time>2016-11-15T12:03:03Z</time>
      </trkpt>
      <trkpt lat="45.90123" lon="4.79977">
        <ele>174</ele>
        <time>2016-11-15T12:03:04Z</time>
      </trkpt>
      <trkpt lat="45.90127" lon="4.79974">
        <ele>174</ele>
        <time>2016-11-15T12:03:05Z</time>
      </trkpt>
      <trkpt lat="45.90132" lon="4.79972">
        <ele>174</ele>
        <time>2016-11-15T12:03:06Z</time>
      </trkpt>
      <trkpt lat="45.90136" lon="4.7997">
        <ele>174</ele>
        <time>2016-11-15T12:03:07Z</time>
      </trkpt>
      <trkpt lat="45.90141" lon="4.79967">
        <ele>174</ele>
        <time>2016-11-15T12:03:08Z</time>
      </trkpt>
      <trkpt lat="45.90146" lon="4.79965">
        <ele>174</ele>
        <time>2016-11-15T12:03:09Z</time>
      </trkpt>
      <trkpt lat="45.90151" lon="4.79963">
        <ele>174</ele>
        <time>2016-11-15T12:03:10Z</time>
      </trkpt>
      <trkpt lat="45.90156" lon="4.79961">
        <ele>174</ele>
        <time>2016-11-15T12:03:11Z</time>
      </trkpt>
      <trkpt lat="45.90161" lon="4.79958">
        <ele>174</ele>
        <time>2016-11-15T12:03:12Z</time>
      </trkpt>
      <trkpt lat="45.90167" lon="4.79956">
        <ele>175</ele>
        <time>2016-11-15T12:03:13Z</time>
      </trkpt>
      <trkpt lat="45.90172" lon="4.79953">
        <ele>173</ele>
        <time>2016-11-15T12:03:14Z</time>
      </trkpt>
      <trkpt lat="45.90177" lon="4.79951">
        <ele>173</ele>
        <time>2016-11-15T12:03:15Z</time>
      </trkpt>
      <trkpt lat="45.90182" lon="4.79949">
        <ele>173</ele>
        <time>2016-11-15T12:03:16Z</time>
      </trkpt>
      <trkpt lat="45.90187" lon="4.79946">
        <ele>173</ele>
        <time>2016-11-15T12:03:17Z</time>
      </trkpt>
      <trkpt lat="45.90192" lon="4.79944">
        <ele>173</ele>
        <time>2016-11-15T12:03:18Z</time>
      </trkpt>
      <trkpt lat="45.90197" lon="4.79942">
        <ele>173</ele>
        <time>2016-11-15T12:03:19Z</time>
      </trkpt>
      <trkpt lat="45.90202" lon="4.79939">
        <ele>173</ele>
        <time>2016-11-15T12:03:20Z</time>
      </trkpt>
      <trkpt lat="45.90207" lon="4.79936">
        <ele>173</ele>
        <time>2016-11-15T12:03:21Z</time>
      </trkpt>
      <trkpt lat="45.90212" lon="4.79933">
        <ele>173</ele>
        <time>2016-11-15T12:03:22Z</time>
      </trkpt>
      <trkpt lat="45.90217" lon="4.7993">
        <ele>172</ele>
        <time>2016-11-15T12:03:23Z</time>
      </trkpt>
      <trkpt lat="45.90222" lon="4.79927">
        <ele>172</ele>
        <time>2016-11-15T12:03:24Z</time>
      </trkpt>
      <trkpt lat="45.90227" lon="4.79923">
        <ele>172</ele>
        <time>2016-11-15T12:03:25Z</time>
      </trkpt>
      <trkpt lat="45.90232" lon="4.7992">
        <ele>172</ele>
        <time>2016-11-15T12:03:26Z</time>
      </trkpt>
      <trkpt lat="45.90237" lon="4.79916">
        <ele>175</ele>
        <time>2016-11-15T12:03:27Z</time>
      </trkpt>
      <trkpt lat="45.90242" lon="4.79913">
        <ele>174</ele>
        <time>2016-11-15T12:03:28Z</time>
      </trkpt>
      <trkpt lat="45.90247" lon="4.79909">
        <ele>174</ele>
        <time>2016-11-15T12:03:29Z</time>
      </trkpt>
      <trkpt lat="45.90252" lon="4.79905">
        <ele>172</ele>
        <time>2016-11-15T12:03:30Z</time>
      </trkpt>
      <trkpt lat="45.90257" lon="4.79901">
        <ele>172</ele>
        <time>2016-11-15T12:03:31Z</time>
      </trkpt>
      <trkpt lat="45.90262" lon="4.79897">
        <ele>172</ele>
        <time>2016-11-15T12:03:32Z</time>
      </trkpt>
      <trkpt lat="45.90267" lon="4.79893">
        <ele>172</ele>
        <time>2016-11-15T12:03:33Z</time>
      </trkpt>
      <trkpt lat="45.90272" lon="4.79889">
        <ele>173</ele>
        <time>2016-11-15T12:03:34Z</time>
      </trkpt>
      <trkpt lat="45.90276" lon="4.79884">
        <ele>173</ele>
        <time>2016-11-15T12:03:35Z</time>
      </trkpt>
      <trkpt lat="45.9028" lon="4.7988">
        <ele>173</ele>
        <time>2016-11-15T12:03:36Z</time>
      </trkpt>
      <trkpt lat="45.90284" lon="4.79877">
        <ele>173</ele>
        <time>2016-11-15T12:03:37Z</time>
      </trkpt>
      <trkpt lat="45.90288" lon="4.79872">
        <ele>173</ele>
        <time>2016-11-15T12:03:38Z</time>
      </trkpt>
      <trkpt lat="45.90292" lon="4.79868">
        <ele>172</ele>
        <time>2016-11-15T12:03:39Z</time>
      </trkpt>
      <trkpt lat="45.90296" lon="4.79863">
        <ele>172</ele>
        <time>2016-11-15T12:03:40Z</time>
      </trkpt>
      <trkpt lat="45.90301" lon="4.79858">
        <ele>172</ele>
        <time>2016-11-15T12:03:41Z</time>
      </trkpt>
      <trkpt lat="45.90305" lon="4.79852">
        <ele>172</ele>
        <time>2016-11-15T12:03:42Z</time>
      </trkpt>
      <trkpt lat="45.9031" lon="4.79847">
        <ele>172</ele>
        <time>2016-11-15T12:03:43Z</time>
      </trkpt>
      <trkpt lat="45.90314" lon="4.79842">
        <ele>172</ele>
        <time>2016-11-15T12:03:44Z</time>
      </trkpt>
      <trkpt lat="45.90319" lon="4.79836">
        <ele>171</ele>
        <time>2016-11-15T12:03:45Z</time>
      </trkpt>
      <trkpt lat="45.90323" lon="4.7983">
        <ele>173</ele>
        <time>2016-11-15T12:03:46Z</time>
      </trkpt>
      <trkpt lat="45.90328" lon="4.79824">
        <ele>173</ele>
        <time>2016-11-15T12:03:47Z</time>
      </trkpt>
      <trkpt lat="45.90332" lon="4.79819">
        <ele>174</ele>
        <time>2016-11-15T12:03:48Z</time>
      </trkpt>
      <trkpt lat="45.90337" lon="4.79813">
        <ele>172</ele>
        <time>2016-11-15T12:03:49Z</time>
      </trkpt>
      <trkpt lat="45.90341" lon="4.79808">
        <ele>172</ele>
        <time>2016-11-15T12:03:50Z</time>
      </trkpt>
      <trkpt lat="45.90345" lon="4.79802">
        <ele>172</ele>
        <time>2016-11-15T12:03:51Z</time>
      </trkpt>
      <trkpt lat="45.90348" lon="4.79798">
        <ele>172</ele>
        <time>2016-11-15T12:03:52Z</time>
      </trkpt>
      <trkpt lat="45.90352" lon="4.79794">
        <ele>173</ele>
        <time>2016-11-15T12:03:53Z</time>
      </trkpt>
      <trkpt lat="45.90356" lon="4.79789">
        <ele>173</ele>
        <time>2016-11-15T12:03:54Z</time>
      </trkpt>
      <trkpt lat="45.9036" lon="4.79784">
        <ele>173</ele>
        <time>2016-11-15T12:03:55Z</time>
      </trkpt>
      <trkpt lat="45.90364" lon="4.79779">
        <ele>173</ele>
        <time>2016-11-15T12:03:56Z</time>
      </trkpt>
      <trkpt lat="45.90368" lon="4.79774">
        <ele>173</ele>
        <time>2016-11-15T12:03:57Z</time>
      </trkpt>
      <trkpt lat="45.90372" lon="4.79769">
        <ele>173</ele>
        <time>2016-11-15T12:03:58Z</time>
      </trkpt>
      <trkpt lat="45.90376" lon="4.79764">
        <ele>173</ele>
        <time>2016-11-15T12:03:59Z</time>
      </trkpt>
      <trkpt lat="45.9038" lon="4.79759">
        <ele>173</ele>
        <time>2016-11-15T12:04:00Z</time>
      </trkpt>
      <trkpt lat="45.90385" lon="4.79753">
        <ele>173</ele>
        <time>2016-11-15T12:04:01Z</time>
      </trkpt>
      <trkpt lat="45.90389" lon="4.79747">
        <ele>175</ele>
        <time>2016-11-15T12:04:02Z</time>
      </trkpt>
      <trkpt lat="45.90393" lon="4.79741">
        <ele>175</ele>
        <time>2016-11-15T12:04:03Z</time>
      </trkpt>
      <trkpt lat="45.90398" lon="4.79736">
        <ele>175</ele>
        <time>2016-11-15T12:04:04Z</time>
      </trkpt>
      <trkpt lat="45.90401" lon="4.7973">
        <ele>175</ele>
        <time>2016-11-15T12:04:05Z</time>
      </trkpt>
      <trkpt lat="45.90405" lon="4.79725">
        <ele>175</ele>
        <time>2016-11-15T12:04:06Z</time>
      </trkpt>
      <trkpt lat="45.90409" lon="4.79721">
        <ele>175</ele>
        <time>2016-11-15T12:04:07Z</time>
      </trkpt>
      <trkpt lat="45.90413" lon="4.79716">
        <ele>176</ele>
        <time>2016-11-15T12:04:08Z</time>
      </trkpt>
      <trkpt lat="45.90416" lon="4.79712">
        <ele>176</ele>
        <time>2016-11-15T12:04:09Z</time>
      </trkpt>
      <trkpt lat="45.9042" lon="4.79707">
        <ele>173</ele>
        <time>2016-11-15T12:04:10Z</time>
      </trkpt>
      <trkpt lat="45.90423" lon="4.79703">
        <ele>173</ele>
        <time>2016-11-15T12:04:11Z</time>
      </trkpt>
      <trkpt lat="45.90427" lon="4.79698">
        <ele>173</ele>
        <time>2016-11-15T12:04:12Z</time>
      </trkpt>
      <trkpt lat="45.90431" lon="4.79693">
        <ele>173</ele>
        <time>2016-11-15T12:04:13Z</time>
      </trkpt>
      <trkpt lat="45.90435" lon="4.79688">
        <ele>173</ele>
        <time>2016-11-15T12:04:14Z</time>
      </trkpt>
      <trkpt lat="45.90439" lon="4.79683">
        <ele>173</ele>
        <time>2016-11-15T12:04:15Z</time>
      </trkpt>
      <trkpt lat="45.90443" lon="4.79678">
        <ele>173</ele>
        <time>2016-11-15T12:04:16Z</time>
      </trkpt>
      <trkpt lat="45.90447" lon="4.79673">
        <ele>173</ele>
        <time>2016-11-15T12:04:17Z</time>
      </trkpt>
      <trkpt lat="45.90451" lon="4.79668">
        <ele>173</ele>
        <time>2016-11-15T12:04:18Z</time>
      </trkpt>
      <trkpt lat="45.90455" lon="4.79663">
        <ele>176</ele>
        <time>2016-11-15T12:04:19Z</time>
      </trkpt>
      <trkpt lat="45.9046" lon="4.79658">
        <ele>176</ele>
        <time>2016-11-15T12:04:20Z</time>
      </trkpt>
      <trkpt lat="45.90464" lon="4.79653">
        <ele>176</ele>
        <time>2016-11-15T12:04:21Z</time>
      </trkpt>
      <trkpt lat="45.90468" lon="4.79648">
        <ele>176</ele>
        <time>2016-11-15T12:04:22Z</time>
      </trkpt>
      <trkpt lat="45.90472" lon="4.79644">
        <ele>175</ele>
        <time>2016-11-15T12:04:23Z</time>
      </trkpt>
      <trkpt lat="45.90477" lon="4.79639">
        <ele>176</ele>
        <time>2016-11-15T12:04:24Z</time>
      </trkpt>
      <trkpt lat="45.90481" lon="4.79634">
        <ele>176</ele>
        <time>2016-11-15T12:04:25Z</time>
      </trkpt>
      <trkpt lat="45.90486" lon="4.7963">
        <ele>176</ele>
        <time>2016-11-15T12:04:26Z</time>
      </trkpt>
      <trkpt lat="45.90491" lon="4.79625">
        <ele>176</ele>
        <time>2016-11-15T12:04:27Z</time>
      </trkpt>
      <trkpt lat="45.90496" lon="4.7962">
        <ele>176</ele>
        <time>2016-11-15T12:04:28Z</time>
      </trkpt>
      <trkpt lat="45.905" lon="4.79616">
        <ele>174</ele>
        <time>2016-11-15T12:04:29Z</time>
      </trkpt>
      <trkpt lat="45.90505" lon="4.79611">
        <ele>174</ele>
        <time>2016-11-15T12:04:30Z</time>
      </trkpt>
      <trkpt lat="45.9051" lon="4.79607">
        <ele>174</ele>
        <time>2016-11-15T12:04:31Z</time>
      </trkpt>
      <trkpt lat="45.90515" lon="4.79603">
        <ele>174</ele>
        <time>2016-11-15T12:04:32Z</time>
      </trkpt>
      <trkpt lat="45.90519" lon="4.79599">
        <ele>174</ele>
        <time>2016-11-15T12:04:33Z</time>
      </trkpt>
      <trkpt lat="45.90524" lon="4.79595">
        <ele>174</ele>
        <time>2016-11-15T12:04:34Z</time>
      </trkpt>
      <trkpt lat="45.90528" lon="4.79591">
        <ele>174</ele>
        <time>2016-11-15T12:04:35Z</time>
      </trkpt>
      <trkpt lat="45.90533" lon="4.79587">
        <ele>174</ele>
        <time>2016-11-15T12:04:36Z</time>
      </trkpt>
      <trkpt lat="45.90537" lon="4.79584">
        <ele>173</ele>
        <time>2016-11-15T12:04:37Z</time>
      </trkpt>
      <trkpt lat="45.90541" lon="4.79581">
        <ele>176</ele>
        <time>2016-11-15T12:04:38Z</time>
      </trkpt>
      <trkpt lat="45.90546" lon="4.79577">
        <ele>176</ele>
        <time>2016-11-15T12:04:39Z</time>
      </trkpt>
      <trkpt lat="45.90551" lon="4.79572">
        <ele>176</ele>
        <time>2016-11-15T12:04:40Z</time>
      </trkpt>
      <trkpt lat="45.90556" lon="4.79569">
        <ele>176</ele>
        <time>2016-11-15T12:04:41Z</time>
      </trkpt>
      <trkpt lat="45.90561" lon="4.79565">
        <ele>175</ele>
        <time>2016-11-15T12:04:42Z</time>
      </trkpt>
      <trkpt lat="45.90565" lon="4.79562">
        <ele>175</ele>
        <time>2016-11-15T12:04:43Z</time>
      </trkpt>
      <trkpt lat="45.90571" lon="4.79558">
        <ele>175</ele>
        <time>2016-11-15T12:04:44Z</time>
      </trkpt>
      <trkpt lat="45.90576" lon="4.79554">
        <ele>176</ele>
        <time>2016-11-15T12:04:45Z</time>
      </trkpt>
      <trkpt lat="45.90581" lon="4.79551">
        <ele>176</ele>
        <time>2016-11-15T12:04:46Z</time>
      </trkpt>
      <trkpt lat="45.90585" lon="4.79547">
        <ele>174</ele>
        <time>2016-11-15T12:04:47Z</time>
      </trkpt>
      <trkpt lat="45.90591" lon="4.79544">
        <ele>174</ele>
        <time>2016-11-15T12:04:48Z</time>
      </trkpt>
      <trkpt lat="45.90596" lon="4.7954">
        <ele>174</ele>
        <time>2016-11-15T12:04:49Z</time>
      </trkpt>
      <trkpt lat="45.90601" lon="4.79536">
        <ele>174</ele>
        <time>2016-11-15T12:04:50Z</time>
      </trkpt>
      <trkpt lat="45.90607" lon="4.79533">
        <ele>174</ele>
        <time>2016-11-15T12:04:51Z</time>
      </trkpt>
      <trkpt lat="45.90612" lon="4.79529">
        <ele>174</ele>
        <time>2016-11-15T12:04:52Z</time>
      </trkpt>
      <trkpt lat="45.90617" lon="4.79526">
        <ele>174</ele>
        <time>2016-11-15T12:04:53Z</time>
      </trkpt>
      <trkpt lat="45.90623" lon="4.79523">
        <ele>174</ele>
        <time>2016-11-15T12:04:54Z</time>
      </trkpt>
      <trkpt lat="45.90628" lon="4.79519">
        <ele>174</ele>
        <time>2016-11-15T12:04:55Z</time>
      </trkpt>
      <trkpt lat="45.90634" lon="4.79515">
        <ele>174</ele>
        <time>2016-11-15T12:04:56Z</time>
      </trkpt>
      <trkpt lat="45.90639" lon="4.79512">
        <ele>174</ele>
        <time>2016-11-15T12:04:57Z</time>
      </trkpt>
      <trkpt lat="45.90644" lon="4.79509">
        <ele>173</ele>
        <time>2016-11-15T12:04:58Z</time>
      </trkpt>
      <trkpt lat="45.90649" lon="4.79506">
        <ele>173</ele>
        <time>2016-11-15T12:04:59Z</time>
      </trkpt>
      <trkpt lat="45.90654" lon="4.79503">
        <ele>173</ele>
        <time>2016-11-15T12:05:00Z</time>
      </trkpt>
      <trkpt lat="45.90659" lon="4.795">
        <ele>174</ele>
        <time>2016-11-15T12:05:01Z</time>
      </trkpt>
      <trkpt lat="45.90664" lon="4.79497">
        <ele>174</ele>
        <time>2016-11-15T12:05:02Z</time>
      </trkpt>
      <trkpt lat="45.90669" lon="4.79495">
        <ele>173</ele>
        <time>2016-11-15T12:05:03Z</time>
      </trkpt>
      <trkpt lat="45.90674" lon="4.79492">
        <ele>174</ele>
        <time>2016-11-15T12:05:04Z</time>
      </trkpt>
      <trkpt lat="45.90679" lon="4.79489">
        <ele>174</ele>
        <time>2016-11-15T12:05:05Z</time>
      </trkpt>
      <trkpt lat="45.90684" lon="4.79486">
        <ele>174</ele>
        <time>2016-11-15T12:05:06Z</time>
      </trkpt>
      <trkpt lat="45.90689" lon="4.79484">
        <ele>174</ele>
        <time>2016-11-15T12:05:07Z</time>
      </trkpt>
      <trkpt lat="45.90694" lon="4.79481">
        <ele>174</ele>
        <time>2016-11-15T12:05:08Z</time>
      </trkpt>
      <trkpt lat="45.90699" lon="4.79478">
        <ele>174</ele>
        <time>2016-11-15T12:05:09Z</time>
      </trkpt>
      <trkpt lat="45.90703" lon="4.79476">
        <ele>174</ele>
        <time>2016-11-15T12:05:10Z</time>
      </trkpt>
      <trkpt lat="45.90708" lon="4.79473">
        <ele>174</ele>
        <time>2016-11-15T12:05:11Z</time>
      </trkpt>
      <trkpt lat="45.90713" lon="4.79471">
        <ele>174</ele>
        <time>2016-11-15T12:05:12Z</time>
      </trkpt>
      <trkpt lat="45.90718" lon="4.79468">
        <ele>174</ele>
        <time>2016-11-15T12:05:13Z</time>
      </trkpt>
      <trkpt lat="45.90723" lon="4.79465">
        <ele>174</ele>
        <time>2016-11-15T12:05:14Z</time>
      </trkpt>
      <trkpt lat="45.90728" lon="4.79463">
        <ele>174</ele>
        <time>2016-11-15T12:05:15Z</time>
      </trkpt>
      <trkpt lat="45.90733" lon="4.7946">
        <ele>174</ele>
        <time>2016-11-15T12:05:16Z</time>
      </trkpt>
      <trkpt lat="45.90738" lon="4.79456">
        <ele>174</ele>
        <time>2016-11-15T12:05:17Z</time>
      </trkpt>
      <trkpt lat="45.90743" lon="4.79454">
        <ele>174</ele>
        <time>2016-11-15T12:05:18Z</time>
      </trkpt>
      <trkpt lat="45.90748" lon="4.79451">
        <ele>174</ele>
        <time>2016-11-15T12:05:19Z</time>
      </trkpt>
      <trkpt lat="45.90753" lon="4.79448">
        <ele>173</ele>
        <time>2016-11-15T12:05:20Z</time>
      </trkpt>
      <trkpt lat="45.90758" lon="4.79446">
        <ele>174</ele>
        <time>2016-11-15T12:05:21Z</time>
      </trkpt>
      <trkpt lat="45.90763" lon="4.79443">
        <ele>174</ele>
        <time>2016-11-15T12:05:22Z</time>
      </trkpt>
      <trkpt lat="45.90767" lon="4.79439">
        <ele>174</ele>
        <time>2016-11-15T12:05:23Z</time>
      </trkpt>
      <trkpt lat="45.90772" lon="4.79437">
        <ele>174</ele>
        <time>2016-11-15T12:05:24Z</time>
      </trkpt>
      <trkpt lat="45.90777" lon="4.79433">
        <ele>174</ele>
        <time>2016-11-15T12:05:25Z</time>
      </trkpt>
      <trkpt lat="45.90782" lon="4.7943">
        <ele>174</ele>
        <time>2016-11-15T12:05:26Z</time>
      </trkpt>
      <trkpt lat="45.90787" lon="4.79427">
        <ele>174</ele>
        <time>2016-11-15T12:05:27Z</time>
      </trkpt>
      <trkpt lat="45.90792" lon="4.79423">
        <ele>174</ele>
        <time>2016-11-15T12:05:28Z</time>
      </trkpt>
      <trkpt lat="45.90797" lon="4.7942">
        <ele>174</ele>
        <time>2016-11-15T12:05:29Z</time>
      </trkpt>
      <trkpt lat="45.90802" lon="4.79416">
        <ele>175</ele>
        <time>2016-11-15T12:05:30Z</time>
      </trkpt>
      <trkpt lat="45.90806" lon="4.79412">
        <ele>175</ele>
        <time>2016-11-15T12:05:31Z</time>
      </trkpt>
      <trkpt lat="45.90811" lon="4.79407">
        <ele>175</ele>
        <time>2016-11-15T12:05:32Z</time>
      </trkpt>
      <trkpt lat="45.90816" lon="4.79403">
        <ele>175</ele>
        <time>2016-11-15T12:05:33Z</time>
      </trkpt>
      <trkpt lat="45.9082" lon="4.79398">
        <ele>175</ele>
        <time>2016-11-15T12:05:34Z</time>
      </trkpt>
      <trkpt lat="45.90825" lon="4.79393">
        <ele>175</ele>
        <time>2016-11-15T12:05:35Z</time>
      </trkpt>
      <trkpt lat="45.90829" lon="4.79389">
        <ele>175</ele>
        <time>2016-11-15T12:05:36Z</time>
      </trkpt>
      <trkpt lat="45.90834" lon="4.79384">
        <ele>175</ele>
        <time>2016-11-15T12:05:37Z</time>
      </trkpt>
      <trkpt lat="45.90837" lon="4.79379">
        <ele>175</ele>
        <time>2016-11-15T12:05:38Z</time>
      </trkpt>
      <trkpt lat="45.90842" lon="4.79374">
        <ele>175</ele>
        <time>2016-11-15T12:05:39Z</time>
      </trkpt>
      <trkpt lat="45.90846" lon="4.79369">
        <ele>175</ele>
        <time>2016-11-15T12:05:40Z</time>
      </trkpt>
      <trkpt lat="45.90849" lon="4.79363">
        <ele>175</ele>
        <time>2016-11-15T12:05:41Z</time>
      </trkpt>
      <trkpt lat="45.90853" lon="4.79358">
        <ele>175</ele>
        <time>2016-11-15T12:05:42Z</time>
      </trkpt>
      <trkpt lat="45.90857" lon="4.79352">
        <ele>175</ele>
        <time>2016-11-15T12:05:43Z</time>
      </trkpt>
      <trkpt lat="45.90862" lon="4.79347">
        <ele>175</ele>
        <time>2016-11-15T12:05:44Z</time>
      </trkpt>
      <trkpt lat="45.90866" lon="4.79341">
        <ele>175</ele>
        <time>2016-11-15T12:05:45Z</time>
      </trkpt>
      <trkpt lat="45.90871" lon="4.79335">
        <ele>175</ele>
        <time>2016-11-15T12:05:46Z</time>
      </trkpt>
      <trkpt lat="45.90875" lon="4.79329">
        <ele>176</ele>
        <time>2016-11-15T12:05:47Z</time>
      </trkpt>
      <trkpt lat="45.90879" lon="4.79323">
        <ele>176</ele>
        <time>2016-11-15T12:05:48Z</time>
      </trkpt>
      <trkpt lat="45.90883" lon="4.79317">
        <ele>176</ele>
        <time>2016-11-15T12:05:49Z</time>
      </trkpt>
      <trkpt lat="45.90888" lon="4.7931">
        <ele>176</ele>
        <time>2016-11-15T12:05:50Z</time>
      </trkpt>
      <trkpt lat="45.90892" lon="4.79303">
        <ele>176</ele>
        <time>2016-11-15T12:05:51Z</time>
      </trkpt>
      <trkpt lat="45.90896" lon="4.79297">
        <ele>176</ele>
        <time>2016-11-15T12:05:52Z</time>
      </trkpt>
      <trkpt lat="45.909" lon="4.79291">
        <ele>176</ele>
        <time>2016-11-15T12:05:53Z</time>
      </trkpt>
      <trkpt lat="45.90904" lon="4.79285">
        <ele>176</ele>
        <time>2016-11-15T12:05:54Z</time>
      </trkpt>
      <trkpt lat="45.90908" lon="4.79278">
        <ele>176</ele>
        <time>2016-11-15T12:05:55Z</time>
      </trkpt>
      <trkpt lat="45.90912" lon="4.79271">
        <ele>176</ele>
        <time>2016-11-15T12:05:56Z</time>
      </trkpt>
      <trkpt lat="45.90915" lon="4.79265">
        <ele>176</ele>
        <time>2016-11-15T12:05:57Z</time>
      </trkpt>
      <trkpt lat="45.90919" lon="4.79258">
        <ele>176</ele>
        <time>2016-11-15T12:05:58Z</time>
      </trkpt>
      <trkpt lat="45.90923" lon="4.79251">
        <ele>176</ele>
        <time>2016-11-15T12:05:59Z</time>
      </trkpt>
      <trkpt lat="45.90926" lon="4.79244">
        <ele>176</ele>
        <time>2016-11-15T12:06:00Z</time>
      </trkpt>
      <trkpt lat="45.9093" lon="4.79237">
        <ele>176</ele>
        <time>2016-11-15T12:06:01Z</time>
      </trkpt>
      <trkpt lat="45.90933" lon="4.79229">
        <ele>176</ele>
        <time>2016-11-15T12:06:02Z</time>
      </trkpt>
      <trkpt lat="45.90937" lon="4.79223">
        <ele>176</ele>
        <time>2016-11-15T12:06:03Z</time>
      </trkpt>
      <trkpt lat="45.90941" lon="4.79216">
        <ele>176</ele>
        <time>2016-11-15T12:06:04Z</time>
      </trkpt>
      <trkpt lat="45.90945" lon="4.79209">
        <ele>176</ele>
        <time>2016-11-15T12:06:05Z</time>
      </trkpt>
      <trkpt lat="45.90949" lon="4.79201">
        <ele>176</ele>
        <time>2016-11-15T12:06:06Z</time>
      </trkpt>
      <trkpt lat="45.90952" lon="4.79194">
        <ele>177</ele>
        <time>2016-11-15T12:06:07Z</time>
      </trkpt>
      <trkpt lat="45.90956" lon="4.79188">
        <ele>177</ele>
        <time>2016-11-15T12:06:08Z</time>
      </trkpt>
      <trkpt lat="45.9096" lon="4.79181">
        <ele>177</ele>
        <time>2016-11-15T12:06:09Z</time>
      </trkpt>
      <trkpt lat="45.90965" lon="4.79176">
        <ele>177</ele>
        <time>2016-11-15T12:06:10Z</time>
      </trkpt>
      <trkpt lat="45.90969" lon="4.7917">
        <ele>177</ele>
        <time>2016-11-15T12:06:11Z</time>
      </trkpt>
      <trkpt lat="45.90972" lon="4.79165">
        <ele>177</ele>
        <time>2016-11-15T12:06:12Z</time>
      </trkpt>
      <trkpt lat="45.90974" lon="4.79159">
        <ele>177</ele>
        <time>2016-11-15T12:06:13Z</time>
      </trkpt>
      <trkpt lat="45.90978" lon="4.79153">
        <ele>177</ele>
        <time>2016-11-15T12:06:14Z</time>
      </trkpt>
      <trkpt lat="45.90982" lon="4.79146">
        <ele>177</ele>
        <time>2016-11-15T12:06:15Z</time>
      </trkpt>
      <trkpt lat="45.90986" lon="4.7914">
        <ele>177</ele>
        <time>2016-11-15T12:06:16Z</time>
      </trkpt>
      <trkpt lat="45.9099" lon="4.79134">
        <ele>177</ele>
        <time>2016-11-15T12:06:17Z</time>
      </trkpt>
      <trkpt lat="45.90992" lon="4.79124">
        <ele>177</ele>
        <time>2016-11-15T12:06:18Z</time>
      </trkpt>
      <trkpt lat="45.90994" lon="4.79115">
        <ele>177</ele>
        <time>2016-11-15T12:06:19Z</time>
      </trkpt>
      <trkpt lat="45.90997" lon="4.79107">
        <ele>177</ele>
        <time>2016-11-15T12:06:20Z</time>
      </trkpt>
      <trkpt lat="45.91001" lon="4.79101">
        <ele>177</ele>
        <time>2016-11-15T12:06:21Z</time>
      </trkpt>
      <trkpt lat="45.91004" lon="4.79094">
        <ele>177</ele>
        <time>2016-11-15T12:06:22Z</time>
      </trkpt>
      <trkpt lat="45.91006" lon="4.79087">
        <ele>177</ele>
        <time>2016-11-15T12:06:23Z</time>
      </trkpt>
      <trkpt lat="45.9101" lon="4.79081">
        <ele>177</ele>
        <time>2016-11-15T12:06:24Z</time>
      </trkpt>
      <trkpt lat="45.91013" lon="4.79074">
        <ele>177</ele>
        <time>2016-11-15T12:06:25Z</time>
      </trkpt>
      <trkpt lat="45.91016" lon="4.79068">
        <ele>176</ele>
        <time>2016-11-15T12:06:26Z</time>
      </trkpt>
      <trkpt lat="45.91018" lon="4.79063">
        <ele>176</ele>
        <time>2016-11-15T12:06:27Z</time>
      </trkpt>
      <trkpt lat="45.91021" lon="4.79057">
        <ele>176</ele>
        <time>2016-11-15T12:06:28Z</time>
      </trkpt>
      <trkpt lat="45.91024" lon="4.79051">
        <ele>176</ele>
        <time>2016-11-15T12:06:29Z</time>
      </trkpt>
      <trkpt lat="45.91028" lon="4.79045">
        <ele>176</ele>
        <time>2016-11-15T12:06:30Z</time>
      </trkpt>
      <trkpt lat="45.91031" lon="4.79039">
        <ele>176</ele>
        <time>2016-11-15T12:06:31Z</time>
      </trkpt>
      <trkpt lat="45.91035" lon="4.79032">
        <ele>176</ele>
        <time>2016-11-15T12:06:32Z</time>
      </trkpt>
      <trkpt lat="45.91039" lon="4.79025">
        <ele>176</ele>
        <time>2016-11-15T12:06:33Z</time>
      </trkpt>
      <trkpt lat="45.91043" lon="4.79017">
        <ele>176</ele>
        <time>2016-11-15T12:06:34Z</time>
      </trkpt>
      <trkpt lat="45.91048" lon="4.7901">
        <ele>176</ele>
        <time>2016-11-15T12:06:35Z</time>
      </trkpt>
      <trkpt lat="45.91052" lon="4.79003">
        <ele>177</ele>
        <time>2016-11-15T12:06:36Z</time>
      </trkpt>
      <trkpt lat="45.91056" lon="4.78996">
        <ele>177</ele>
        <time>2016-11-15T12:06:37Z</time>
      </trkpt>
      <trkpt lat="45.91061" lon="4.7899">
        <ele>177</ele>
        <time>2016-11-15T12:06:38Z</time>
      </trkpt>
      <trkpt lat="45.91063" lon="4.78982">
        <ele>177</ele>
        <time>2016-11-15T12:06:39Z</time>
      </trkpt>
      <trkpt lat="45.91066" lon="4.78975">
        <ele>177</ele>
        <time>2016-11-15T12:06:40Z</time>
      </trkpt>
      <trkpt lat="45.91069" lon="4.7897">
        <ele>177</ele>
        <time>2016-11-15T12:06:41Z</time>
      </trkpt>
      <trkpt lat="45.91072" lon="4.78964">
        <ele>177</ele>
        <time>2016-11-15T12:06:42Z</time>
      </trkpt>
      <trkpt lat="45.91076" lon="4.78958">
        <ele>177</ele>
        <time>2016-11-15T12:06:43Z</time>
      </trkpt>
      <trkpt lat="45.9108" lon="4.78952">
        <ele>177</ele>
        <time>2016-11-15T12:06:44Z</time>
      </trkpt>
      <trkpt lat="45.91085" lon="4.78946">
        <ele>177</ele>
        <time>2016-11-15T12:06:45Z</time>
      </trkpt>
      <trkpt lat="45.9109" lon="4.7894">
        <ele>177</ele>
        <time>2016-11-15T12:06:46Z</time>
      </trkpt>
      <trkpt lat="45.91094" lon="4.78933">
        <ele>177</ele>
        <time>2016-11-15T12:06:47Z</time>
      </trkpt>
      <trkpt lat="45.91098" lon="4.78926">
        <ele>177</ele>
        <time>2016-11-15T12:06:48Z</time>
      </trkpt>
      <trkpt lat="45.91102" lon="4.78919">
        <ele>177</ele>
        <time>2016-11-15T12:06:49Z</time>
      </trkpt>
      <trkpt lat="45.91106" lon="4.78911">
        <ele>177</ele>
        <time>2016-11-15T12:06:50Z</time>
      </trkpt>
      <trkpt lat="45.9111" lon="4.78904">
        <ele>176</ele>
        <time>2016-11-15T12:06:51Z</time>
      </trkpt>
      <trkpt lat="45.91114" lon="4.78897">
        <ele>176</ele>
        <time>2016-11-15T12:06:52Z</time>
      </trkpt>
      <trkpt lat="45.91118" lon="4.7889">
        <ele>176</ele>
        <time>2016-11-15T12:06:53Z</time>
      </trkpt>
      <trkpt lat="45.91122" lon="4.78883">
        <ele>176</ele>
        <time>2016-11-15T12:06:54Z</time>
      </trkpt>
      <trkpt lat="45.91126" lon="4.78876">
        <ele>176</ele>
        <time>2016-11-15T12:06:55Z</time>
      </trkpt>
      <trkpt lat="45.91129" lon="4.7887">
        <ele>176</ele>
        <time>2016-11-15T12:06:56Z</time>
      </trkpt>
      <trkpt lat="45.91133" lon="4.78863">
        <ele>176</ele>
        <time>2016-11-15T12:06:57Z</time>
      </trkpt>
      <trkpt lat="45.91136" lon="4.78857">
        <ele>176</ele>
        <time>2016-11-15T12:06:58Z</time>
      </trkpt>
      <trkpt lat="45.91139" lon="4.78852">
        <ele>176</ele>
        <time>2016-11-15T12:06:59Z</time>
      </trkpt>
      <trkpt lat="45.91142" lon="4.78846">
        <ele>176</ele>
        <time>2016-11-15T12:07:00Z</time>
      </trkpt>
      <trkpt lat="45.91146" lon="4.78841">
        <ele>176</ele>
        <time>2016-11-15T12:07:01Z</time>
      </trkpt>
      <trkpt lat="45.91149" lon="4.78835">
        <ele>176</ele>
        <time>2016-11-15T12:07:02Z</time>
      </trkpt>
      <trkpt lat="45.91152" lon="4.78829">
        <ele>176</ele>
        <time>2016-11-15T12:07:03Z</time>
      </trkpt>
      <trkpt lat="45.91155" lon="4.78824">
        <ele>176</ele>
        <time>2016-11-15T12:07:04Z</time>
      </trkpt>
      <trkpt lat="45.91158" lon="4.78818">
        <ele>176</ele>
        <time>2016-11-15T12:07:05Z</time>
      </trkpt>
      <trkpt lat="45.91162" lon="4.78813">
        <ele>176</ele>
        <time>2016-11-15T12:07:06Z</time>
      </trkpt>
      <trkpt lat="45.91165" lon="4.78807">
        <ele>176</ele>
        <time>2016-11-15T12:07:07Z</time>
      </trkpt>
      <trkpt lat="45.91168" lon="4.78801">
        <ele>176</ele>
        <time>2016-11-15T12:07:08Z</time>
      </trkpt>
      <trkpt lat="45.91172" lon="4.78796">
        <ele>176</ele>
        <time>2016-11-15T12:07:09Z</time>
      </trkpt>
      <trkpt lat="45.91175" lon="4.7879">
        <ele>177</ele>
        <time>2016-11-15T12:07:10Z</time>
      </trkpt>
      <trkpt lat="45.91178" lon="4.78784">
        <ele>177</ele>
        <time>2016-11-15T12:07:11Z</time>
      </trkpt>
      <trkpt lat="45.91181" lon="4.78777">
        <ele>177</ele>
        <time>2016-11-15T12:07:12Z</time>
      </trkpt>
      <trkpt lat="45.91185" lon="4.78771">
        <ele>177</ele>
        <time>2016-11-15T12:07:13Z</time>
      </trkpt>
      <trkpt lat="45.91188" lon="4.78764">
        <ele>177</ele>
        <time>2016-11-15T12:07:14Z</time>
      </trkpt>
      <trkpt lat="45.91191" lon="4.78757">
        <ele>177</ele>
        <time>2016-11-15T12:07:15Z</time>
      </trkpt>
      <trkpt lat="45.91195" lon="4.7875">
        <ele>177</ele>
        <time>2016-11-15T12:07:16Z</time>
      </trkpt>
      <trkpt lat="45.91198" lon="4.78744">
        <ele>177</ele>
        <time>2016-11-15T12:07:17Z</time>
      </trkpt>
      <trkpt lat="45.91202" lon="4.78737">
        <ele>177</ele>
        <time>2016-11-15T12:07:18Z</time>
      </trkpt>
      <trkpt lat="45.91206" lon="4.7873">
        <ele>177</ele>
        <time>2016-11-15T12:07:19Z</time>
      </trkpt>
      <trkpt lat="45.91209" lon="4.78724">
        <ele>177</ele>
        <time>2016-11-15T12:07:20Z</time>
      </trkpt>
      <trkpt lat="45.91212" lon="4.78718">
        <ele>177</ele>
        <time>2016-11-15T12:07:21Z</time>
      </trkpt>
      <trkpt lat="45.91215" lon="4.78712">
        <ele>177</ele>
        <time>2016-11-15T12:07:22Z</time>
      </trkpt>
      <trkpt lat="45.91218" lon="4.78706">
        <ele>177</ele>
        <time>2016-11-15T12:07:23Z</time>
      </trkpt>
      <trkpt lat="45.91221" lon="4.787">
        <ele>177</ele>
        <time>2016-11-15T12:07:24Z</time>
      </trkpt>
      <trkpt lat="45.91224" lon="4.78695">
        <ele>177</ele>
        <time>2016-11-15T12:07:25Z</time>
      </trkpt>
      <trkpt lat="45.91226" lon="4.78689">
        <ele>177</ele>
        <time>2016-11-15T12:07:26Z</time>
      </trkpt>
      <trkpt lat="45.91228" lon="4.78683">
        <ele>177</ele>
        <time>2016-11-15T12:07:27Z</time>
      </trkpt>
      <trkpt lat="45.91231" lon="4.78677">
        <ele>177</ele>
        <time>2016-11-15T12:07:28Z</time>
      </trkpt>
      <trkpt lat="45.91234" lon="4.78671">
        <ele>177</ele>
        <time>2016-11-15T12:07:29Z</time>
      </trkpt>
      <trkpt lat="45.91236" lon="4.78665">
        <ele>177</ele>
        <time>2016-11-15T12:07:30Z</time>
      </trkpt>
      <trkpt lat="45.91239" lon="4.78659">
        <ele>177</ele>
        <time>2016-11-15T12:07:31Z</time>
      </trkpt>
      <trkpt lat="45.91242" lon="4.78653">
        <ele>177</ele>
        <time>2016-11-15T12:07:32Z</time>
      </trkpt>
      <trkpt lat="45.91245" lon="4.78647">
        <ele>177</ele>
        <time>2016-11-15T12:07:33Z</time>
      </trkpt>
      <trkpt lat="45.91248" lon="4.78641">
        <ele>177</ele>
        <time>2016-11-15T12:07:34Z</time>
      </trkpt>
      <trkpt lat="45.91251" lon="4.78635">
        <ele>176</ele>
        <time>2016-11-15T12:07:35Z</time>
      </trkpt>
      <trkpt lat="45.91254" lon="4.78629">
        <ele>176</ele>
        <time>2016-11-15T12:07:36Z</time>
      </trkpt>
      <trkpt lat="45.91257" lon="4.78622">
        <ele>176</ele>
        <time>2016-11-15T12:07:37Z</time>
      </trkpt>
      <trkpt lat="45.9126" lon="4.78616">
        <ele>176</ele>
        <time>2016-11-15T12:07:38Z</time>
      </trkpt>
      <trkpt lat="45.91263" lon="4.7861">
        <ele>176</ele>
        <time>2016-11-15T12:07:39Z</time>
      </trkpt>
      <trkpt lat="45.91266" lon="4.78604">
        <ele>176</ele>
        <time>2016-11-15T12:07:40Z</time>
      </trkpt>
      <trkpt lat="45.91269" lon="4.78597">
        <ele>176</ele>
        <time>2016-11-15T12:07:41Z</time>
      </trkpt>
      <trkpt lat="45.91272" lon="4.7859">
        <ele>176</ele>
        <time>2016-11-15T12:07:42Z</time>
      </trkpt>
      <trkpt lat="45.91275" lon="4.78584">
        <ele>176</ele>
        <time>2016-11-15T12:07:43Z</time>
      </trkpt>
      <trkpt lat="45.91279" lon="4.78578">
        <ele>176</ele>
        <time>2016-11-15T12:07:44Z</time>
      </trkpt>
      <trkpt lat="45.91281" lon="4.78571">
        <ele>176</ele>
        <time>2016-11-15T12:07:45Z</time>
      </trkpt>
      <trkpt lat="45.91284" lon="4.78565">
        <ele>176</ele>
        <time>2016-11-15T12:07:46Z</time>
      </trkpt>
      <trkpt lat="45.91287" lon="4.78558">
        <ele>176</ele>
        <time>2016-11-15T12:07:47Z</time>
      </trkpt>
      <trkpt lat="45.91289" lon="4.78552">
        <ele>176</ele>
        <time>2016-11-15T12:07:48Z</time>
      </trkpt>
      <trkpt lat="45.91292" lon="4.78545">
        <ele>175</ele>
        <time>2016-11-15T12:07:49Z</time>
      </trkpt>
      <trkpt lat="45.91295" lon="4.78538">
        <ele>175</ele>
        <time>2016-11-15T12:07:50Z</time>
      </trkpt>
      <trkpt lat="45.91298" lon="4.78531">
        <ele>175</ele>
        <time>2016-11-15T12:07:51Z</time>
      </trkpt>
      <trkpt lat="45.91302" lon="4.78524">
        <ele>175</ele>
        <time>2016-11-15T12:07:52Z</time>
      </trkpt>
      <trkpt lat="45.91305" lon="4.78517">
        <ele>175</ele>
        <time>2016-11-15T12:07:53Z</time>
      </trkpt>
      <trkpt lat="45.91308" lon="4.78509">
        <ele>175</ele>
        <time>2016-11-15T12:07:54Z</time>
      </trkpt>
      <trkpt lat="45.91312" lon="4.78502">
        <ele>175</ele>
        <time>2016-11-15T12:07:55Z</time>
      </trkpt>
      <trkpt lat="45.91315" lon="4.78494">
        <ele>175</ele>
        <time>2016-11-15T12:07:56Z</time>
      </trkpt>
      <trkpt lat="45.91318" lon="4.78487">
        <ele>175</ele>
        <time>2016-11-15T12:07:57Z</time>
      </trkpt>
      <trkpt lat="45.91322" lon="4.7848">
        <ele>175</ele>
        <time>2016-11-15T12:07:58Z</time>
      </trkpt>
      <trkpt lat="45.91325" lon="4.78473">
        <ele>176</ele>
        <time>2016-11-15T12:07:59Z</time>
      </trkpt>
      <trkpt lat="45.91328" lon="4.78466">
        <ele>176</ele>
        <time>2016-11-15T12:08:00Z</time>
      </trkpt>
      <trkpt lat="45.91332" lon="4.78459">
        <ele>176</ele>
        <time>2016-11-15T12:08:01Z</time>
      </trkpt>
      <trkpt lat="45.91335" lon="4.78452">
        <ele>176</ele>
        <time>2016-11-15T12:08:02Z</time>
      </trkpt>
      <trkpt lat="45.91338" lon="4.78445">
        <ele>176</ele>
        <time>2016-11-15T12:08:03Z</time>
      </trkpt>
      <trkpt lat="45.91341" lon="4.78438">
        <ele>176</ele>
        <time>2016-11-15T12:08:04Z</time>
      </trkpt>
      <trkpt lat="45.91345" lon="4.78431">
        <ele>176</ele>
        <time>2016-11-15T12:08:05Z</time>
      </trkpt>
      <trkpt lat="45.91349" lon="4.78424">
        <ele>176</ele>
        <time>2016-11-15T12:08:06Z</time>
      </trkpt>
      <trkpt lat="45.91352" lon="4.78417">
        <ele>176</ele>
        <time>2016-11-15T12:08:07Z</time>
      </trkpt>
      <trkpt lat="45.91355" lon="4.78409">
        <ele>176</ele>
        <time>2016-11-15T12:08:08Z</time>
      </trkpt>
      <trkpt lat="45.91358" lon="4.78402">
        <ele>176</ele>
        <time>2016-11-15T12:08:09Z</time>
      </trkpt>
      <trkpt lat="45.91362" lon="4.78395">
        <ele>176</ele>
        <time>2016-11-15T12:08:10Z</time>
      </trkpt>
      <trkpt lat="45.91366" lon="4.78388">
        <ele>176</ele>
        <time>2016-11-15T12:08:11Z</time>
      </trkpt>
      <trkpt lat="45.91369" lon="4.7838">
        <ele>176</ele>
        <time>2016-11-15T12:08:12Z</time>
      </trkpt>
      <trkpt lat="45.91372" lon="4.78373">
        <ele>177</ele>
        <time>2016-11-15T12:08:13Z</time>
      </trkpt>
      <trkpt lat="45.91376" lon="4.78365">
        <ele>177</ele>
        <time>2016-11-15T12:08:14Z</time>
      </trkpt>
      <trkpt lat="45.91379" lon="4.78358">
        <ele>177</ele>
        <time>2016-11-15T12:08:15Z</time>
      </trkpt>
      <trkpt lat="45.91383" lon="4.78351">
        <ele>177</ele>
        <time>2016-11-15T12:08:16Z</time>
      </trkpt>
      <trkpt lat="45.91387" lon="4.78344">
        <ele>177</ele>
        <time>2016-11-15T12:08:17Z</time>
      </trkpt>
      <trkpt lat="45.9139" lon="4.78337">
        <ele>176</ele>
        <time>2016-11-15T12:08:18Z</time>
      </trkpt>
      <trkpt lat="45.91393" lon="4.78329">
        <ele>177</ele>
        <time>2016-11-15T12:08:19Z</time>
      </trkpt>
      <trkpt lat="45.91397" lon="4.78321">
        <ele>177</ele>
        <time>2016-11-15T12:08:20Z</time>
      </trkpt>
      <trkpt lat="45.914" lon="4.78314">
        <ele>177</ele>
        <time>2016-11-15T12:08:21Z</time>
      </trkpt>
      <trkpt lat="45.91403" lon="4.78307">
        <ele>177</ele>
        <time>2016-11-15T12:08:22Z</time>
      </trkpt>
      <trkpt lat="45.91407" lon="4.78299">
        <ele>177</ele>
        <time>2016-11-15T12:08:23Z</time>
      </trkpt>
      <trkpt lat="45.91409" lon="4.78291">
        <ele>177</ele>
        <time>2016-11-15T12:08:24Z</time>
      </trkpt>
      <trkpt lat="45.91413" lon="4.78285">
        <ele>177</ele>
        <time>2016-11-15T12:08:25Z</time>
      </trkpt>
      <trkpt lat="45.91416" lon="4.78277">
        <ele>177</ele>
        <time>2016-11-15T12:08:26Z</time>
      </trkpt>
      <trkpt lat="45.9142" lon="4.78269">
        <ele>176</ele>
        <time>2016-11-15T12:08:27Z</time>
      </trkpt>
      <trkpt lat="45.91423" lon="4.78262">
        <ele>176</ele>
        <time>2016-11-15T12:08:28Z</time>
      </trkpt>
      <trkpt lat="45.91427" lon="4.78255">
        <ele>177</ele>
        <time>2016-11-15T12:08:29Z</time>
      </trkpt>
      <trkpt lat="45.91431" lon="4.78247">
        <ele>177</ele>
        <time>2016-11-15T12:08:30Z</time>
      </trkpt>
      <trkpt lat="45.91434" lon="4.7824">
        <ele>177</ele>
        <time>2016-11-15T12:08:31Z</time>
      </trkpt>
      <trkpt lat="45.91438" lon="4.78232">
        <ele>177</ele>
        <time>2016-11-15T12:08:32Z</time>
      </trkpt>
      <trkpt lat="45.91441" lon="4.78225">
        <ele>177</ele>
        <time>2016-11-15T12:08:33Z</time>
      </trkpt>
      <trkpt lat="45.91445" lon="4.78218">
        <ele>177</ele>
        <time>2016-11-15T12:08:34Z</time>
      </trkpt>
      <trkpt lat="45.91448" lon="4.78211">
        <ele>177</ele>
        <time>2016-11-15T12:08:35Z</time>
      </trkpt>
      <trkpt lat="45.91452" lon="4.78203">
        <ele>177</ele>
        <time>2016-11-15T12:08:36Z</time>
      </trkpt>
      <trkpt lat="45.91455" lon="4.78195">
        <ele>177</ele>
        <time>2016-11-15T12:08:37Z</time>
      </trkpt>
      <trkpt lat="45.91459" lon="4.78187">
        <ele>177</ele>
        <time>2016-11-15T12:08:38Z</time>
      </trkpt>
      <trkpt lat="45.91463" lon="4.78179">
        <ele>177</ele>
        <time>2016-11-15T12:08:39Z</time>
      </trkpt>
      <trkpt lat="45.91467" lon="4.78171">
        <ele>177</ele>
        <time>2016-11-15T12:08:40Z</time>
      </trkpt>
      <trkpt lat="45.91471" lon="4.78163">
        <ele>177</ele>
        <time>2016-11-15T12:08:41Z</time>
      </trkpt>
      <trkpt lat="45.91475" lon="4.78154">
        <ele>177</ele>
        <time>2016-11-15T12:08:42Z</time>
      </trkpt>
      <trkpt lat="45.91479" lon="4.78146">
        <ele>177</ele>
        <time>2016-11-15T12:08:43Z</time>
      </trkpt>
      <trkpt lat="45.91484" lon="4.78138">
        <ele>177</ele>
        <time>2016-11-15T12:08:44Z</time>
      </trkpt>
      <trkpt lat="45.91488" lon="4.78129">
        <ele>177</ele>
        <time>2016-11-15T12:08:45Z</time>
      </trkpt>
      <trkpt lat="45.91492" lon="4.78121">
        <ele>177</ele>
        <time>2016-11-15T12:08:46Z</time>
      </trkpt>
      <trkpt lat="45.91496" lon="4.78111">
        <ele>177</ele>
        <time>2016-11-15T12:08:47Z</time>
      </trkpt>
      <trkpt lat="45.915" lon="4.78103">
        <ele>177</ele>
        <time>2016-11-15T12:08:48Z</time>
      </trkpt>
      <trkpt lat="45.91504" lon="4.78094">
        <ele>176</ele>
        <time>2016-11-15T12:08:49Z</time>
      </trkpt>
      <trkpt lat="45.91507" lon="4.78085">
        <ele>176</ele>
        <time>2016-11-15T12:08:50Z</time>
      </trkpt>
      <trkpt lat="45.9151" lon="4.78077">
        <ele>176</ele>
        <time>2016-11-15T12:08:51Z</time>
      </trkpt>
      <trkpt lat="45.91513" lon="4.78069">
        <ele>175</ele>
        <time>2016-11-15T12:08:52Z</time>
      </trkpt>
      <trkpt lat="45.91516" lon="4.78062">
        <ele>175</ele>
        <time>2016-11-15T12:08:53Z</time>
      </trkpt>
      <trkpt lat="45.91519" lon="4.78054">
        <ele>175</ele>
        <time>2016-11-15T12:08:54Z</time>
      </trkpt>
      <trkpt lat="45.91522" lon="4.78046">
        <ele>175</ele>
        <time>2016-11-15T12:08:55Z</time>
      </trkpt>
      <trkpt lat="45.91525" lon="4.78039">
        <ele>175</ele>
        <time>2016-11-15T12:08:56Z</time>
      </trkpt>
      <trkpt lat="45.91529" lon="4.78033">
        <ele>175</ele>
        <time>2016-11-15T12:08:57Z</time>
      </trkpt>
      <trkpt lat="45.91532" lon="4.78026">
        <ele>175</ele>
        <time>2016-11-15T12:08:58Z</time>
      </trkpt>
      <trkpt lat="45.91536" lon="4.78019">
        <ele>174</ele>
        <time>2016-11-15T12:08:59Z</time>
      </trkpt>
      <trkpt lat="45.91539" lon="4.78011">
        <ele>174</ele>
        <time>2016-11-15T12:09:00Z</time>
      </trkpt>
      <trkpt lat="45.91543" lon="4.78004">
        <ele>174</ele>
        <time>2016-11-15T12:09:01Z</time>
      </trkpt>
      <trkpt lat="45.91547" lon="4.77996">
        <ele>175</ele>
        <time>2016-11-15T12:09:02Z</time>
      </trkpt>
      <trkpt lat="45.91551" lon="4.77987">
        <ele>175</ele>
        <time>2016-11-15T12:09:03Z</time>
      </trkpt>
      <trkpt lat="45.91554" lon="4.77978">
        <ele>175</ele>
        <time>2016-11-15T12:09:04Z</time>
      </trkpt>
      <trkpt lat="45.91558" lon="4.77971">
        <ele>175</ele>
        <time>2016-11-15T12:09:05Z</time>
      </trkpt>
      <trkpt lat="45.91562" lon="4.77963">
        <ele>175</ele>
        <time>2016-11-15T12:09:06Z</time>
      </trkpt>
      <trkpt lat="45.91565" lon="4.77956">
        <ele>175</ele>
        <time>2016-11-15T12:09:07Z</time>
      </trkpt>
      <trkpt lat="45.91569" lon="4.77948">
        <ele>175</ele>
        <time>2016-11-15T12:09:08Z</time>
      </trkpt>
      <trkpt lat="45.91572" lon="4.77941">
        <ele>175</ele>
        <time>2016-11-15T12:09:09Z</time>
      </trkpt>
      <trkpt lat="45.91575" lon="4.77933">
        <ele>174</ele>
        <time>2016-11-15T12:09:10Z</time>
      </trkpt>
      <trkpt lat="45.91579" lon="4.77927">
        <ele>174</ele>
        <time>2016-11-15T12:09:11Z</time>
      </trkpt>
      <trkpt lat="45.91582" lon="4.77919">
        <ele>173</ele>
        <time>2016-11-15T12:09:12Z</time>
      </trkpt>
      <trkpt lat="45.91586" lon="4.77913">
        <ele>173</ele>
        <time>2016-11-15T12:09:13Z</time>
      </trkpt>
      <trkpt lat="45.91589" lon="4.77905">
        <ele>173</ele>
        <time>2016-11-15T12:09:14Z</time>
      </trkpt>
      <trkpt lat="45.91593" lon="4.77898">
        <ele>173</ele>
        <time>2016-11-15T12:09:15Z</time>
      </trkpt>
      <trkpt lat="45.91597" lon="4.77891">
        <ele>173</ele>
        <time>2016-11-15T12:09:16Z</time>
      </trkpt>
      <trkpt lat="45.916" lon="4.77882">
        <ele>173</ele>
        <time>2016-11-15T12:09:17Z</time>
      </trkpt>
      <trkpt lat="45.91604" lon="4.77874">
        <ele>173</ele>
        <time>2016-11-15T12:09:18Z</time>
      </trkpt>
      <trkpt lat="45.91608" lon="4.77866">
        <ele>173</ele>
        <time>2016-11-15T12:09:19Z</time>
      </trkpt>
      <trkpt lat="45.91611" lon="4.77858">
        <ele>173</ele>
        <time>2016-11-15T12:09:20Z</time>
      </trkpt>
      <trkpt lat="45.91615" lon="4.7785">
        <ele>173</ele>
        <time>2016-11-15T12:09:21Z</time>
      </trkpt>
      <trkpt lat="45.91619" lon="4.77841">
        <ele>173</ele>
        <time>2016-11-15T12:09:22Z</time>
      </trkpt>
      <trkpt lat="45.91622" lon="4.77833">
        <ele>172</ele>
        <time>2016-11-15T12:09:23Z</time>
      </trkpt>
      <trkpt lat="45.91625" lon="4.77824">
        <ele>172</ele>
        <time>2016-11-15T12:09:24Z</time>
      </trkpt>
      <trkpt lat="45.91628" lon="4.77815">
        <ele>172</ele>
        <time>2016-11-15T12:09:25Z</time>
      </trkpt>
      <trkpt lat="45.91632" lon="4.77807">
        <ele>172</ele>
        <time>2016-11-15T12:09:26Z</time>
      </trkpt>
      <trkpt lat="45.91634" lon="4.77799">
        <ele>171</ele>
        <time>2016-11-15T12:09:27Z</time>
      </trkpt>
      <trkpt lat="45.91637" lon="4.7779">
        <ele>171</ele>
        <time>2016-11-15T12:09:28Z</time>
      </trkpt>
      <trkpt lat="45.9164" lon="4.77782">
        <ele>171</ele>
        <time>2016-11-15T12:09:29Z</time>
      </trkpt>
      <trkpt lat="45.91643" lon="4.77773">
        <ele>171</ele>
        <time>2016-11-15T12:09:30Z</time>
      </trkpt>
      <trkpt lat="45.91645" lon="4.77765">
        <ele>170</ele>
        <time>2016-11-15T12:09:31Z</time>
      </trkpt>
      <trkpt lat="45.91647" lon="4.77757">
        <ele>170</ele>
        <time>2016-11-15T12:09:32Z</time>
      </trkpt>
      <trkpt lat="45.9165" lon="4.77749">
        <ele>169</ele>
        <time>2016-11-15T12:09:33Z</time>
      </trkpt>
      <trkpt lat="45.91652" lon="4.77741">
        <ele>169</ele>
        <time>2016-11-15T12:09:34Z</time>
      </trkpt>
      <trkpt lat="45.91654" lon="4.77734">
        <ele>170</ele>
        <time>2016-11-15T12:09:35Z</time>
      </trkpt>
      <trkpt lat="45.91655" lon="4.77726">
        <ele>170</ele>
        <time>2016-11-15T12:09:36Z</time>
      </trkpt>
      <trkpt lat="45.91657" lon="4.77718">
        <ele>170</ele>
        <time>2016-11-15T12:09:37Z</time>
      </trkpt>
      <trkpt lat="45.91658" lon="4.77709">
        <ele>170</ele>
        <time>2016-11-15T12:09:38Z</time>
      </trkpt>
      <trkpt lat="45.9166" lon="4.777">
        <ele>170</ele>
        <time>2016-11-15T12:09:39Z</time>
      </trkpt>
      <trkpt lat="45.91662" lon="4.77691">
        <ele>170</ele>
        <time>2016-11-15T12:09:40Z</time>
      </trkpt>
      <trkpt lat="45.91664" lon="4.77682">
        <ele>170</ele>
        <time>2016-11-15T12:09:41Z</time>
      </trkpt>
      <trkpt lat="45.91666" lon="4.77673">
        <ele>169</ele>
        <time>2016-11-15T12:09:42Z</time>
      </trkpt>
      <trkpt lat="45.91668" lon="4.77663">
        <ele>169</ele>
        <time>2016-11-15T12:09:43Z</time>
      </trkpt>
      <trkpt lat="45.91669" lon="4.77653">
        <ele>169</ele>
        <time>2016-11-15T12:09:44Z</time>
      </trkpt>
      <trkpt lat="45.91671" lon="4.77644">
        <ele>169</ele>
        <time>2016-11-15T12:09:45Z</time>
      </trkpt>
      <trkpt lat="45.91672" lon="4.77635">
        <ele>169</ele>
        <time>2016-11-15T12:09:46Z</time>
      </trkpt>
      <trkpt lat="45.91674" lon="4.77626">
        <ele>169</ele>
        <time>2016-11-15T12:09:47Z</time>
      </trkpt>
      <trkpt lat="45.91675" lon="4.77617">
        <ele>169</ele>
        <time>2016-11-15T12:09:48Z</time>
      </trkpt>
      <trkpt lat="45.91677" lon="4.77609">
        <ele>169</ele>
        <time>2016-11-15T12:09:49Z</time>
      </trkpt>
      <trkpt lat="45.91678" lon="4.77601">
        <ele>169</ele>
        <time>2016-11-15T12:09:50Z</time>
      </trkpt>
      <trkpt lat="45.9168" lon="4.77592">
        <ele>169</ele>
        <time>2016-11-15T12:09:51Z</time>
      </trkpt>
      <trkpt lat="45.91682" lon="4.77584">
        <ele>169</ele>
        <time>2016-11-15T12:09:52Z</time>
      </trkpt>
      <trkpt lat="45.91683" lon="4.77577">
        <ele>169</ele>
        <time>2016-11-15T12:09:53Z</time>
      </trkpt>
      <trkpt lat="45.91685" lon="4.77569">
        <ele>169</ele>
        <time>2016-11-15T12:09:54Z</time>
      </trkpt>
      <trkpt lat="45.91687" lon="4.77562">
        <ele>169</ele>
        <time>2016-11-15T12:09:55Z</time>
      </trkpt>
      <trkpt lat="45.91688" lon="4.77554">
        <ele>169</ele>
        <time>2016-11-15T12:09:56Z</time>
      </trkpt>
      <trkpt lat="45.9169" lon="4.77547">
        <ele>169</ele>
        <time>2016-11-15T12:09:57Z</time>
      </trkpt>
      <trkpt lat="45.91692" lon="4.77539">
        <ele>169</ele>
        <time>2016-11-15T12:09:58Z</time>
      </trkpt>
      <trkpt lat="45.91693" lon="4.77531">
        <ele>169</ele>
        <time>2016-11-15T12:09:59Z</time>
      </trkpt>
      <trkpt lat="45.91695" lon="4.77523">
        <ele>169</ele>
        <time>2016-11-15T12:10:00Z</time>
      </trkpt>
      <trkpt lat="45.91698" lon="4.77515">
        <ele>169</ele>
        <time>2016-11-15T12:10:01Z</time>
      </trkpt>
      <trkpt lat="45.91701" lon="4.77508">
        <ele>170</ele>
        <time>2016-11-15T12:10:02Z</time>
      </trkpt>
      <trkpt lat="45.91705" lon="4.77501">
        <ele>170</ele>
        <time>2016-11-15T12:10:03Z</time>
      </trkpt>
      <trkpt lat="45.91708" lon="4.77494">
        <ele>170</ele>
        <time>2016-11-15T12:10:04Z</time>
      </trkpt>
      <trkpt lat="45.91711" lon="4.77486">
        <ele>170</ele>
        <time>2016-11-15T12:10:05Z</time>
      </trkpt>
      <trkpt lat="45.91711" lon="4.77478">
        <ele>170</ele>
        <time>2016-11-15T12:10:06Z</time>
      </trkpt>
      <trkpt lat="45.91709" lon="4.7747">
        <ele>170</ele>
        <time>2016-11-15T12:10:07Z</time>
      </trkpt>
      <trkpt lat="45.91707" lon="4.77462">
        <ele>170</ele>
        <time>2016-11-15T12:10:08Z</time>
      </trkpt>
      <trkpt lat="45.91705" lon="4.77455">
        <ele>171</ele>
        <time>2016-11-15T12:10:09Z</time>
      </trkpt>
      <trkpt lat="45.91705" lon="4.77448">
        <ele>171</ele>
        <time>2016-11-15T12:10:10Z</time>
      </trkpt>
      <trkpt lat="45.91704" lon="4.7744">
        <ele>171</ele>
        <time>2016-11-15T12:10:11Z</time>
      </trkpt>
      <trkpt lat="45.91705" lon="4.77432">
        <ele>171</ele>
        <time>2016-11-15T12:10:12Z</time>
      </trkpt>
      <trkpt lat="45.91707" lon="4.77423">
        <ele>171</ele>
        <time>2016-11-15T12:10:13Z</time>
      </trkpt>
      <trkpt lat="45.91708" lon="4.77415">
        <ele>171</ele>
        <time>2016-11-15T12:10:14Z</time>
      </trkpt>
      <trkpt lat="45.91709" lon="4.77407">
        <ele>171</ele>
        <time>2016-11-15T12:10:15Z</time>
      </trkpt>
      <trkpt lat="45.91711" lon="4.77399">
        <ele>171</ele>
        <time>2016-11-15T12:10:16Z</time>
      </trkpt>
      <trkpt lat="45.91712" lon="4.7739">
        <ele>171</ele>
        <time>2016-11-15T12:10:17Z</time>
      </trkpt>
      <trkpt lat="45.91713" lon="4.77381">
        <ele>171</ele>
        <time>2016-11-15T12:10:18Z</time>
      </trkpt>
      <trkpt lat="45.91714" lon="4.77373">
        <ele>171</ele>
        <time>2016-11-15T12:10:19Z</time>
      </trkpt>
      <trkpt lat="45.91716" lon="4.77364">
        <ele>171</ele>
        <time>2016-11-15T12:10:20Z</time>
      </trkpt>
      <trkpt lat="45.91717" lon="4.77356">
        <ele>171</ele>
        <time>2016-11-15T12:10:21Z</time>
      </trkpt>
      <trkpt lat="45.91718" lon="4.77347">
        <ele>170</ele>
        <time>2016-11-15T12:10:22Z</time>
      </trkpt>
      <trkpt lat="45.91719" lon="4.77338">
        <ele>170</ele>
        <time>2016-11-15T12:10:23Z</time>
      </trkpt>
      <trkpt lat="45.91721" lon="4.77329">
        <ele>170</ele>
        <time>2016-11-15T12:10:24Z</time>
      </trkpt>
      <trkpt lat="45.91722" lon="4.77319">
        <ele>170</ele>
        <time>2016-11-15T12:10:25Z</time>
      </trkpt>
      <trkpt lat="45.91724" lon="4.7731">
        <ele>170</ele>
        <time>2016-11-15T12:10:26Z</time>
      </trkpt>
      <trkpt lat="45.91725" lon="4.773">
        <ele>170</ele>
        <time>2016-11-15T12:10:27Z</time>
      </trkpt>
      <trkpt lat="45.91727" lon="4.7729">
        <ele>170</ele>
        <time>2016-11-15T12:10:28Z</time>
      </trkpt>
      <trkpt lat="45.91729" lon="4.7728">
        <ele>170</ele>
        <time>2016-11-15T12:10:29Z</time>
      </trkpt>
      <trkpt lat="45.9173" lon="4.7727">
        <ele>170</ele>
        <time>2016-11-15T12:10:30Z</time>
      </trkpt>
      <trkpt lat="45.91731" lon="4.7726">
        <ele>170</ele>
        <time>2016-11-15T12:10:31Z</time>
      </trkpt>
      <trkpt lat="45.91732" lon="4.77249">
        <ele>169</ele>
        <time>2016-11-15T12:10:32Z</time>
      </trkpt>
      <trkpt lat="45.91734" lon="4.77239">
        <ele>169</ele>
        <time>2016-11-15T12:10:33Z</time>
      </trkpt>
      <trkpt lat="45.91735" lon="4.7723">
        <ele>170</ele>
        <time>2016-11-15T12:10:34Z</time>
      </trkpt>
      <trkpt lat="45.91737" lon="4.7722">
        <ele>170</ele>
        <time>2016-11-15T12:10:35Z</time>
      </trkpt>
      <trkpt lat="45.91738" lon="4.7721">
        <ele>170</ele>
        <time>2016-11-15T12:10:36Z</time>
      </trkpt>
      <trkpt lat="45.9174" lon="4.77201">
        <ele>170</ele>
        <time>2016-11-15T12:10:37Z</time>
      </trkpt>
      <trkpt lat="45.91741" lon="4.77192">
        <ele>170</ele>
        <time>2016-11-15T12:10:38Z</time>
      </trkpt>
      <trkpt lat="45.91742" lon="4.77184">
        <ele>170</ele>
        <time>2016-11-15T12:10:39Z</time>
      </trkpt>
      <trkpt lat="45.91744" lon="4.77175">
        <ele>170</ele>
        <time>2016-11-15T12:10:40Z</time>
      </trkpt>
      <trkpt lat="45.91745" lon="4.77165">
        <ele>170</ele>
        <time>2016-11-15T12:10:41Z</time>
      </trkpt>
      <trkpt lat="45.91745" lon="4.77155">
        <ele>170</ele>
        <time>2016-11-15T12:10:42Z</time>
      </trkpt>
      <trkpt lat="45.91747" lon="4.77148">
        <ele>170</ele>
        <time>2016-11-15T12:10:43Z</time>
      </trkpt>
      <trkpt lat="45.91748" lon="4.7714">
        <ele>170</ele>
        <time>2016-11-15T12:10:44Z</time>
      </trkpt>
      <trkpt lat="45.9175" lon="4.77131">
        <ele>170</ele>
        <time>2016-11-15T12:10:45Z</time>
      </trkpt>
      <trkpt lat="45.91751" lon="4.77122">
        <ele>169</ele>
        <time>2016-11-15T12:10:46Z</time>
      </trkpt>
      <trkpt lat="45.91752" lon="4.77114">
        <ele>169</ele>
        <time>2016-11-15T12:10:47Z</time>
      </trkpt>
      <trkpt lat="45.91754" lon="4.77105">
        <ele>169</ele>
        <time>2016-11-15T12:10:48Z</time>
      </trkpt>
      <trkpt lat="45.91756" lon="4.77098">
        <ele>169</ele>
        <time>2016-11-15T12:10:49Z</time>
      </trkpt>
      <trkpt lat="45.91757" lon="4.7709">
        <ele>169</ele>
        <time>2016-11-15T12:10:50Z</time>
      </trkpt>
      <trkpt lat="45.91758" lon="4.77082">
        <ele>169</ele>
        <time>2016-11-15T12:10:51Z</time>
      </trkpt>
      <trkpt lat="45.91759" lon="4.77075">
        <ele>169</ele>
        <time>2016-11-15T12:10:52Z</time>
      </trkpt>
      <trkpt lat="45.9176" lon="4.77067">
        <ele>169</ele>
        <time>2016-11-15T12:10:53Z</time>
      </trkpt>
      <trkpt lat="45.91761" lon="4.7706">
        <ele>169</ele>
        <time>2016-11-15T12:10:54Z</time>
      </trkpt>
      <trkpt lat="45.91762" lon="4.77052">
        <ele>169</ele>
        <time>2016-11-15T12:10:55Z</time>
      </trkpt>
      <trkpt lat="45.91763" lon="4.77045">
        <ele>168</ele>
        <time>2016-11-15T12:10:56Z</time>
      </trkpt>
      <trkpt lat="45.91764" lon="4.77037">
        <ele>168</ele>
        <time>2016-11-15T12:10:57Z</time>
      </trkpt>
      <trkpt lat="45.91765" lon="4.77029">
        <ele>168</ele>
        <time>2016-11-15T12:10:58Z</time>
      </trkpt>
      <trkpt lat="45.91766" lon="4.77022">
        <ele>168</ele>
        <time>2016-11-15T12:10:59Z</time>
      </trkpt>
      <trkpt lat="45.91767" lon="4.77014">
        <ele>169</ele>
        <time>2016-11-15T12:11:00Z</time>
      </trkpt>
      <trkpt lat="45.91769" lon="4.77007">
        <ele>169</ele>
        <time>2016-11-15T12:11:01Z</time>
      </trkpt>
      <trkpt lat="45.9177" lon="4.76999">
        <ele>169</ele>
        <time>2016-11-15T12:11:02Z</time>
      </trkpt>
      <trkpt lat="45.91771" lon="4.76991">
        <ele>169</ele>
        <time>2016-11-15T12:11:03Z</time>
      </trkpt>
      <trkpt lat="45.91772" lon="4.76983">
        <ele>169</ele>
        <time>2016-11-15T12:11:04Z</time>
      </trkpt>
      <trkpt lat="45.91773" lon="4.76976">
        <ele>169</ele>
        <time>2016-11-15T12:11:05Z</time>
      </trkpt>
      <trkpt lat="45.91774" lon="4.76968">
        <ele>169</ele>
        <time>2016-11-15T12:11:06Z</time>
      </trkpt>
      <trkpt lat="45.91774" lon="4.7696">
        <ele>169</ele>
        <time>2016-11-15T12:11:07Z</time>
      </trkpt>
      <trkpt lat="45.91775" lon="4.76953">
        <ele>169</ele>
        <time>2016-11-15T12:11:08Z</time>
      </trkpt>
      <trkpt lat="45.91776" lon="4.76945">
        <ele>169</ele>
        <time>2016-11-15T12:11:09Z</time>
      </trkpt>
      <trkpt lat="45.91777" lon="4.76938">
        <ele>169</ele>
        <time>2016-11-15T12:11:10Z</time>
      </trkpt>
      <trkpt lat="45.91777" lon="4.76931">
        <ele>169</ele>
        <time>2016-11-15T12:11:11Z</time>
      </trkpt>
      <trkpt lat="45.91778" lon="4.76924">
        <ele>169</ele>
        <time>2016-11-15T12:11:12Z</time>
      </trkpt>
      <trkpt lat="45.91779" lon="4.76916">
        <ele>170</ele>
        <time>2016-11-15T12:11:13Z</time>
      </trkpt>
      <trkpt lat="45.91779" lon="4.76909">
        <ele>170</ele>
        <time>2016-11-15T12:11:14Z</time>
      </trkpt>
      <trkpt lat="45.9178" lon="4.76901">
        <ele>170</ele>
        <time>2016-11-15T12:11:15Z</time>
      </trkpt>
      <trkpt lat="45.9178" lon="4.76893">
        <ele>170</ele>
        <time>2016-11-15T12:11:16Z</time>
      </trkpt>
      <trkpt lat="45.91781" lon="4.76885">
        <ele>170</ele>
        <time>2016-11-15T12:11:17Z</time>
      </trkpt>
      <trkpt lat="45.91781" lon="4.76878">
        <ele>170</ele>
        <time>2016-11-15T12:11:18Z</time>
      </trkpt>
      <trkpt lat="45.91781" lon="4.7687">
        <ele>170</ele>
        <time>2016-11-15T12:11:19Z</time>
      </trkpt>
      <trkpt lat="45.91781" lon="4.76863">
        <ele>170</ele>
        <time>2016-11-15T12:11:20Z</time>
      </trkpt>
      <trkpt lat="45.91782" lon="4.76856">
        <ele>170</ele>
        <time>2016-11-15T12:11:21Z</time>
      </trkpt>
      <trkpt lat="45.91782" lon="4.76848">
        <ele>170</ele>
        <time>2016-11-15T12:11:22Z</time>
      </trkpt>
      <trkpt lat="45.91782" lon="4.76841">
        <ele>170</ele>
        <time>2016-11-15T12:11:23Z</time>
      </trkpt>
      <trkpt lat="45.91782" lon="4.76834">
        <ele>170</ele>
        <time>2016-11-15T12:11:24Z</time>
      </trkpt>
      <trkpt lat="45.91783" lon="4.76826">
        <ele>171</ele>
        <time>2016-11-15T12:11:25Z</time>
      </trkpt>
      <trkpt lat="45.91783" lon="4.76819">
        <ele>171</ele>
        <time>2016-11-15T12:11:26Z</time>
      </trkpt>
      <trkpt lat="45.91783" lon="4.76812">
        <ele>171</ele>
        <time>2016-11-15T12:11:27Z</time>
      </trkpt>
      <trkpt lat="45.91783" lon="4.76804">
        <ele>171</ele>
        <time>2016-11-15T12:11:28Z</time>
      </trkpt>
      <trkpt lat="45.91783" lon="4.76796">
        <ele>171</ele>
        <time>2016-11-15T12:11:29Z</time>
      </trkpt>
      <trkpt lat="45.91783" lon="4.76788">
        <ele>171</ele>
        <time>2016-11-15T12:11:30Z</time>
      </trkpt>
      <trkpt lat="45.91783" lon="4.7678">
        <ele>171</ele>
        <time>2016-11-15T12:11:31Z</time>
      </trkpt>
      <trkpt lat="45.91784" lon="4.76773">
        <ele>171</ele>
        <time>2016-11-15T12:11:32Z</time>
      </trkpt>
      <trkpt lat="45.91784" lon="4.76766">
        <ele>171</ele>
        <time>2016-11-15T12:11:33Z</time>
      </trkpt>
      <trkpt lat="45.91784" lon="4.76758">
        <ele>171</ele>
        <time>2016-11-15T12:11:34Z</time>
      </trkpt>
      <trkpt lat="45.91785" lon="4.7675">
        <ele>172</ele>
        <time>2016-11-15T12:11:35Z</time>
      </trkpt>
      <trkpt lat="45.91785" lon="4.76742">
        <ele>172</ele>
        <time>2016-11-15T12:11:36Z</time>
      </trkpt>
      <trkpt lat="45.91785" lon="4.76734">
        <ele>172</ele>
        <time>2016-11-15T12:11:37Z</time>
      </trkpt>
      <trkpt lat="45.91785" lon="4.76725">
        <ele>172</ele>
        <time>2016-11-15T12:11:38Z</time>
      </trkpt>
      <trkpt lat="45.91786" lon="4.76717">
        <ele>172</ele>
        <time>2016-11-15T12:11:39Z</time>
      </trkpt>
      <trkpt lat="45.91786" lon="4.7671">
        <ele>172</ele>
        <time>2016-11-15T12:11:40Z</time>
      </trkpt>
      <trkpt lat="45.91787" lon="4.76702">
        <ele>172</ele>
        <time>2016-11-15T12:11:41Z</time>
      </trkpt>
      <trkpt lat="45.91787" lon="4.76695">
        <ele>172</ele>
        <time>2016-11-15T12:11:42Z</time>
      </trkpt>
      <trkpt lat="45.91788" lon="4.76688">
        <ele>172</ele>
        <time>2016-11-15T12:11:43Z</time>
      </trkpt>
      <trkpt lat="45.91789" lon="4.76681">
        <ele>172</ele>
        <time>2016-11-15T12:11:44Z</time>
      </trkpt>
      <trkpt lat="45.91789" lon="4.76673">
        <ele>172</ele>
        <time>2016-11-15T12:11:45Z</time>
      </trkpt>
      <trkpt lat="45.9179" lon="4.76666">
        <ele>173</ele>
        <time>2016-11-15T12:11:46Z</time>
      </trkpt>
      <trkpt lat="45.91791" lon="4.76659">
        <ele>173</ele>
        <time>2016-11-15T12:11:47Z</time>
      </trkpt>
      <trkpt lat="45.91791" lon="4.76652">
        <ele>173</ele>
        <time>2016-11-15T12:11:48Z</time>
      </trkpt>
      <trkpt lat="45.91792" lon="4.76645">
        <ele>173</ele>
        <time>2016-11-15T12:11:49Z</time>
      </trkpt>
      <trkpt lat="45.91793" lon="4.76637">
        <ele>173</ele>
        <time>2016-11-15T12:11:50Z</time>
      </trkpt>
      <trkpt lat="45.91793" lon="4.7663">
        <ele>173</ele>
        <time>2016-11-15T12:11:51Z</time>
      </trkpt>
      <trkpt lat="45.91794" lon="4.76622">
        <ele>173</ele>
        <time>2016-11-15T12:11:52Z</time>
      </trkpt>
      <trkpt lat="45.91795" lon="4.76613">
        <ele>173</ele>
        <time>2016-11-15T12:11:53Z</time>
      </trkpt>
      <trkpt lat="45.91796" lon="4.76606">
        <ele>173</ele>
        <time>2016-11-15T12:11:54Z</time>
      </trkpt>
      <trkpt lat="45.91796" lon="4.76598">
        <ele>173</ele>
        <time>2016-11-15T12:11:55Z</time>
      </trkpt>
      <trkpt lat="45.91797" lon="4.76591">
        <ele>173</ele>
        <time>2016-11-15T12:11:56Z</time>
      </trkpt>
      <trkpt lat="45.91798" lon="4.76584">
        <ele>173</ele>
        <time>2016-11-15T12:11:57Z</time>
      </trkpt>
      <trkpt lat="45.91798" lon="4.76578">
        <ele>173</ele>
        <time>2016-11-15T12:11:58Z</time>
      </trkpt>
      <trkpt lat="45.91799" lon="4.76571">
        <ele>173</ele>
        <time>2016-11-15T12:11:59Z</time>
      </trkpt>
      <trkpt lat="45.918" lon="4.76564">
        <ele>173</ele>
        <time>2016-11-15T12:12:00Z</time>
      </trkpt>
      <trkpt lat="45.91801" lon="4.76557">
        <ele>173</ele>
        <time>2016-11-15T12:12:01Z</time>
      </trkpt>
      <trkpt lat="45.91801" lon="4.76551">
        <ele>173</ele>
        <time>2016-11-15T12:12:02Z</time>
      </trkpt>
      <trkpt lat="45.91802" lon="4.76544">
        <ele>173</ele>
        <time>2016-11-15T12:12:03Z</time>
      </trkpt>
      <trkpt lat="45.91802" lon="4.76536">
        <ele>173</ele>
        <time>2016-11-15T12:12:04Z</time>
      </trkpt>
      <trkpt lat="45.91803" lon="4.76529">
        <ele>173</ele>
        <time>2016-11-15T12:12:05Z</time>
      </trkpt>
      <trkpt lat="45.91804" lon="4.76521">
        <ele>173</ele>
        <time>2016-11-15T12:12:06Z</time>
      </trkpt>
      <trkpt lat="45.91805" lon="4.76514">
        <ele>173</ele>
        <time>2016-11-15T12:12:07Z</time>
      </trkpt>
      <trkpt lat="45.91805" lon="4.76506">
        <ele>173</ele>
        <time>2016-11-15T12:12:08Z</time>
      </trkpt>
      <trkpt lat="45.91806" lon="4.76498">
        <ele>173</ele>
        <time>2016-11-15T12:12:09Z</time>
      </trkpt>
      <trkpt lat="45.91807" lon="4.76489">
        <ele>173</ele>
        <time>2016-11-15T12:12:10Z</time>
      </trkpt>
      <trkpt lat="45.91808" lon="4.7648">
        <ele>173</ele>
        <time>2016-11-15T12:12:11Z</time>
      </trkpt>
      <trkpt lat="45.91808" lon="4.76471">
        <ele>173</ele>
        <time>2016-11-15T12:12:12Z</time>
      </trkpt>
      <trkpt lat="45.91809" lon="4.76463">
        <ele>173</ele>
        <time>2016-11-15T12:12:13Z</time>
      </trkpt>
      <trkpt lat="45.9181" lon="4.76454">
        <ele>173</ele>
        <time>2016-11-15T12:12:14Z</time>
      </trkpt>
      <trkpt lat="45.9181" lon="4.76445">
        <ele>173</ele>
        <time>2016-11-15T12:12:15Z</time>
      </trkpt>
      <trkpt lat="45.91811" lon="4.76436">
        <ele>173</ele>
        <time>2016-11-15T12:12:16Z</time>
      </trkpt>
      <trkpt lat="45.91811" lon="4.76428">
        <ele>173</ele>
        <time>2016-11-15T12:12:17Z</time>
      </trkpt>
      <trkpt lat="45.91812" lon="4.76419">
        <ele>173</ele>
        <time>2016-11-15T12:12:18Z</time>
      </trkpt>
      <trkpt lat="45.91813" lon="4.76411">
        <ele>173</ele>
        <time>2016-11-15T12:12:19Z</time>
      </trkpt>
      <trkpt lat="45.91813" lon="4.76402">
        <ele>173</ele>
        <time>2016-11-15T12:12:20Z</time>
      </trkpt>
      <trkpt lat="45.91814" lon="4.76393">
        <ele>173</ele>
        <time>2016-11-15T12:12:21Z</time>
      </trkpt>
      <trkpt lat="45.91814" lon="4.76385">
        <ele>174</ele>
        <time>2016-11-15T12:12:22Z</time>
      </trkpt>
      <trkpt lat="45.91815" lon="4.76377">
        <ele>174</ele>
        <time>2016-11-15T12:12:23Z</time>
      </trkpt>
      <trkpt lat="45.91816" lon="4.76369">
        <ele>174</ele>
        <time>2016-11-15T12:12:24Z</time>
      </trkpt>
      <trkpt lat="45.91816" lon="4.76361">
        <ele>174</ele>
        <time>2016-11-15T12:12:25Z</time>
      </trkpt>
      <trkpt lat="45.91817" lon="4.76354">
        <ele>174</ele>
        <time>2016-11-15T12:12:26Z</time>
      </trkpt>
      <trkpt lat="45.91818" lon="4.76346">
        <ele>174</ele>
        <time>2016-11-15T12:12:27Z</time>
      </trkpt>
      <trkpt lat="45.91819" lon="4.76338">
        <ele>173</ele>
        <time>2016-11-15T12:12:28Z</time>
      </trkpt>
      <trkpt lat="45.9182" lon="4.7633">
        <ele>174</ele>
        <time>2016-11-15T12:12:29Z</time>
      </trkpt>
      <trkpt lat="45.91821" lon="4.76322">
        <ele>174</ele>
        <time>2016-11-15T12:12:30Z</time>
      </trkpt>
      <trkpt lat="45.91823" lon="4.76313">
        <ele>174</ele>
        <time>2016-11-15T12:12:31Z</time>
      </trkpt>
      <trkpt lat="45.91825" lon="4.76304">
        <ele>174</ele>
        <time>2016-11-15T12:12:32Z</time>
      </trkpt>
      <trkpt lat="45.91827" lon="4.76296">
        <ele>174</ele>
        <time>2016-11-15T12:12:33Z</time>
      </trkpt>
      <trkpt lat="45.91829" lon="4.76287">
        <ele>174</ele>
        <time>2016-11-15T12:12:34Z</time>
      </trkpt>
      <trkpt lat="45.91831" lon="4.76278">
        <ele>174</ele>
        <time>2016-11-15T12:12:35Z</time>
      </trkpt>
      <trkpt lat="45.91833" lon="4.76269">
        <ele>174</ele>
        <time>2016-11-15T12:12:36Z</time>
      </trkpt>
      <trkpt lat="45.91835" lon="4.76261">
        <ele>173</ele>
        <time>2016-11-15T12:12:37Z</time>
      </trkpt>
      <trkpt lat="45.91838" lon="4.76253">
        <ele>173</ele>
        <time>2016-11-15T12:12:38Z</time>
      </trkpt>
      <trkpt lat="45.9184" lon="4.76244">
        <ele>173</ele>
        <time>2016-11-15T12:12:39Z</time>
      </trkpt>
      <trkpt lat="45.91842" lon="4.76237">
        <ele>173</ele>
        <time>2016-11-15T12:12:40Z</time>
      </trkpt>
      <trkpt lat="45.91844" lon="4.76229">
        <ele>172</ele>
        <time>2016-11-15T12:12:41Z</time>
      </trkpt>
      <trkpt lat="45.91846" lon="4.76222">
        <ele>172</ele>
        <time>2016-11-15T12:12:42Z</time>
      </trkpt>
      <trkpt lat="45.91848" lon="4.76214">
        <ele>172</ele>
        <time>2016-11-15T12:12:43Z</time>
      </trkpt>
      <trkpt lat="45.91849" lon="4.76207">
        <ele>172</ele>
        <time>2016-11-15T12:12:44Z</time>
      </trkpt>
      <trkpt lat="45.91851" lon="4.76199">
        <ele>172</ele>
        <time>2016-11-15T12:12:45Z</time>
      </trkpt>
      <trkpt lat="45.91853" lon="4.76191">
        <ele>172</ele>
        <time>2016-11-15T12:12:46Z</time>
      </trkpt>
      <trkpt lat="45.91855" lon="4.76184">
        <ele>172</ele>
        <time>2016-11-15T12:12:47Z</time>
      </trkpt>
      <trkpt lat="45.91858" lon="4.76176">
        <ele>172</ele>
        <time>2016-11-15T12:12:48Z</time>
      </trkpt>
      <trkpt lat="45.91861" lon="4.76168">
        <ele>172</ele>
        <time>2016-11-15T12:12:49Z</time>
      </trkpt>
      <trkpt lat="45.91863" lon="4.7616">
        <ele>173</ele>
        <time>2016-11-15T12:12:50Z</time>
      </trkpt>
      <trkpt lat="45.91865" lon="4.76151">
        <ele>173</ele>
        <time>2016-11-15T12:12:51Z</time>
      </trkpt>
      <trkpt lat="45.91866" lon="4.76143">
        <ele>173</ele>
        <time>2016-11-15T12:12:52Z</time>
      </trkpt>
      <trkpt lat="45.91868" lon="4.76134">
        <ele>173</ele>
        <time>2016-11-15T12:12:53Z</time>
      </trkpt>
      <trkpt lat="45.9187" lon="4.76125">
        <ele>173</ele>
        <time>2016-11-15T12:12:54Z</time>
      </trkpt>
      <trkpt lat="45.91873" lon="4.76116">
        <ele>173</ele>
        <time>2016-11-15T12:12:55Z</time>
      </trkpt>
      <trkpt lat="45.91875" lon="4.76107">
        <ele>173</ele>
        <time>2016-11-15T12:12:56Z</time>
      </trkpt>
      <trkpt lat="45.91877" lon="4.76099">
        <ele>173</ele>
        <time>2016-11-15T12:12:57Z</time>
      </trkpt>
      <trkpt lat="45.91879" lon="4.7609">
        <ele>173</ele>
        <time>2016-11-15T12:12:58Z</time>
      </trkpt>
      <trkpt lat="45.91881" lon="4.76082">
        <ele>173</ele>
        <time>2016-11-15T12:12:59Z</time>
      </trkpt>
      <trkpt lat="45.91883" lon="4.76074">
        <ele>173</ele>
        <time>2016-11-15T12:13:00Z</time>
      </trkpt>
      <trkpt lat="45.91885" lon="4.76067">
        <ele>173</ele>
        <time>2016-11-15T12:13:01Z</time>
      </trkpt>
      <trkpt lat="45.91887" lon="4.76059">
        <ele>173</ele>
        <time>2016-11-15T12:13:02Z</time>
      </trkpt>
      <trkpt lat="45.9189" lon="4.76052">
        <ele>173</ele>
        <time>2016-11-15T12:13:03Z</time>
      </trkpt>
      <trkpt lat="45.91892" lon="4.76044">
        <ele>173</ele>
        <time>2016-11-15T12:13:04Z</time>
      </trkpt>
      <trkpt lat="45.91894" lon="4.76037">
        <ele>173</ele>
        <time>2016-11-15T12:13:05Z</time>
      </trkpt>
      <trkpt lat="45.91896" lon="4.76029">
        <ele>173</ele>
        <time>2016-11-15T12:13:06Z</time>
      </trkpt>
      <trkpt lat="45.91898" lon="4.76021">
        <ele>173</ele>
        <time>2016-11-15T12:13:07Z</time>
      </trkpt>
      <trkpt lat="45.919" lon="4.76012">
        <ele>173</ele>
        <time>2016-11-15T12:13:08Z</time>
      </trkpt>
      <trkpt lat="45.91903" lon="4.76004">
        <ele>173</ele>
        <time>2016-11-15T12:13:09Z</time>
      </trkpt>
      <trkpt lat="45.91905" lon="4.75995">
        <ele>173</ele>
        <time>2016-11-15T12:13:10Z</time>
      </trkpt>
      <trkpt lat="45.91907" lon="4.75986">
        <ele>173</ele>
        <time>2016-11-15T12:13:11Z</time>
      </trkpt>
      <trkpt lat="45.9191" lon="4.75977">
        <ele>173</ele>
        <time>2016-11-15T12:13:12Z</time>
      </trkpt>
      <trkpt lat="45.91912" lon="4.75969">
        <ele>173</ele>
        <time>2016-11-15T12:13:13Z</time>
      </trkpt>
      <trkpt lat="45.91914" lon="4.7596">
        <ele>173</ele>
        <time>2016-11-15T12:13:14Z</time>
      </trkpt>
      <trkpt lat="45.91916" lon="4.75951">
        <ele>173</ele>
        <time>2016-11-15T12:13:15Z</time>
      </trkpt>
      <trkpt lat="45.91918" lon="4.75943">
        <ele>172</ele>
        <time>2016-11-15T12:13:16Z</time>
      </trkpt>
      <trkpt lat="45.91921" lon="4.75934">
        <ele>172</ele>
        <time>2016-11-15T12:13:17Z</time>
      </trkpt>
      <trkpt lat="45.91923" lon="4.75927">
        <ele>172</ele>
        <time>2016-11-15T12:13:18Z</time>
      </trkpt>
      <trkpt lat="45.91925" lon="4.75919">
        <ele>172</ele>
        <time>2016-11-15T12:13:19Z</time>
      </trkpt>
      <trkpt lat="45.91927" lon="4.75911">
        <ele>172</ele>
        <time>2016-11-15T12:13:20Z</time>
      </trkpt>
      <trkpt lat="45.91929" lon="4.75904">
        <ele>172</ele>
        <time>2016-11-15T12:13:21Z</time>
      </trkpt>
      <trkpt lat="45.91932" lon="4.75897">
        <ele>172</ele>
        <time>2016-11-15T12:13:22Z</time>
      </trkpt>
      <trkpt lat="45.91934" lon="4.7589">
        <ele>172</ele>
        <time>2016-11-15T12:13:23Z</time>
      </trkpt>
      <trkpt lat="45.91937" lon="4.75883">
        <ele>172</ele>
        <time>2016-11-15T12:13:24Z</time>
      </trkpt>
      <trkpt lat="45.9194" lon="4.75877">
        <ele>172</ele>
        <time>2016-11-15T12:13:25Z</time>
      </trkpt>
      <trkpt lat="45.91944" lon="4.7587">
        <ele>172</ele>
        <time>2016-11-15T12:13:26Z</time>
      </trkpt>
      <trkpt lat="45.91947" lon="4.75863">
        <ele>172</ele>
        <time>2016-11-15T12:13:27Z</time>
      </trkpt>
      <trkpt lat="45.9195" lon="4.75857">
        <ele>172</ele>
        <time>2016-11-15T12:13:28Z</time>
      </trkpt>
      <trkpt lat="45.91954" lon="4.7585">
        <ele>172</ele>
        <time>2016-11-15T12:13:29Z</time>
      </trkpt>
      <trkpt lat="45.91957" lon="4.75844">
        <ele>172</ele>
        <time>2016-11-15T12:13:30Z</time>
      </trkpt>
      <trkpt lat="45.91961" lon="4.75838">
        <ele>172</ele>
        <time>2016-11-15T12:13:31Z</time>
      </trkpt>
      <trkpt lat="45.91965" lon="4.75831">
        <ele>173</ele>
        <time>2016-11-15T12:13:32Z</time>
      </trkpt>
      <trkpt lat="45.9197" lon="4.75824">
        <ele>173</ele>
        <time>2016-11-15T12:13:33Z</time>
      </trkpt>
      <trkpt lat="45.91975" lon="4.75816">
        <ele>173</ele>
        <time>2016-11-15T12:13:34Z</time>
      </trkpt>
      <trkpt lat="45.91979" lon="4.75809">
        <ele>173</ele>
        <time>2016-11-15T12:13:35Z</time>
      </trkpt>
      <trkpt lat="45.91983" lon="4.75802">
        <ele>173</ele>
        <time>2016-11-15T12:13:36Z</time>
      </trkpt>
      <trkpt lat="45.91987" lon="4.75794">
        <ele>173</ele>
        <time>2016-11-15T12:13:37Z</time>
      </trkpt>
      <trkpt lat="45.91991" lon="4.75787">
        <ele>173</ele>
        <time>2016-11-15T12:13:38Z</time>
      </trkpt>
      <trkpt lat="45.91995" lon="4.75781">
        <ele>174</ele>
        <time>2016-11-15T12:13:39Z</time>
      </trkpt>
      <trkpt lat="45.91998" lon="4.75774">
        <ele>174</ele>
        <time>2016-11-15T12:13:40Z</time>
      </trkpt>
      <trkpt lat="45.92002" lon="4.75767">
        <ele>173</ele>
        <time>2016-11-15T12:13:41Z</time>
      </trkpt>
      <trkpt lat="45.92005" lon="4.75761">
        <ele>174</ele>
        <time>2016-11-15T12:13:42Z</time>
      </trkpt>
      <trkpt lat="45.92009" lon="4.75755">
        <ele>174</ele>
        <time>2016-11-15T12:13:43Z</time>
      </trkpt>
      <trkpt lat="45.92012" lon="4.75749">
        <ele>174</ele>
        <time>2016-11-15T12:13:44Z</time>
      </trkpt>
      <trkpt lat="45.92016" lon="4.75743">
        <ele>174</ele>
        <time>2016-11-15T12:13:45Z</time>
      </trkpt>
      <trkpt lat="45.92019" lon="4.75736">
        <ele>175</ele>
        <time>2016-11-15T12:13:46Z</time>
      </trkpt>
      <trkpt lat="45.92022" lon="4.7573">
        <ele>175</ele>
        <time>2016-11-15T12:13:47Z</time>
      </trkpt>
      <trkpt lat="45.92026" lon="4.75724">
        <ele>175</ele>
        <time>2016-11-15T12:13:48Z</time>
      </trkpt>
      <trkpt lat="45.92029" lon="4.75717">
        <ele>175</ele>
        <time>2016-11-15T12:13:49Z</time>
      </trkpt>
      <trkpt lat="45.92033" lon="4.75711">
        <ele>175</ele>
        <time>2016-11-15T12:13:50Z</time>
      </trkpt>
      <trkpt lat="45.92036" lon="4.75704">
        <ele>175</ele>
        <time>2016-11-15T12:13:51Z</time>
      </trkpt>
      <trkpt lat="45.9204" lon="4.75697">
        <ele>175</ele>
        <time>2016-11-15T12:13:52Z</time>
      </trkpt>
      <trkpt lat="45.92044" lon="4.75689">
        <ele>175</ele>
        <time>2016-11-15T12:13:53Z</time>
      </trkpt>
      <trkpt lat="45.92048" lon="4.75682">
        <ele>175</ele>
        <time>2016-11-15T12:13:54Z</time>
      </trkpt>
      <trkpt lat="45.92052" lon="4.75676">
        <ele>175</ele>
        <time>2016-11-15T12:13:55Z</time>
      </trkpt>
      <trkpt lat="45.92056" lon="4.75669">
        <ele>175</ele>
        <time>2016-11-15T12:13:56Z</time>
      </trkpt>
      <trkpt lat="45.9206" lon="4.75663">
        <ele>175</ele>
        <time>2016-11-15T12:13:57Z</time>
      </trkpt>
      <trkpt lat="45.92063" lon="4.75657">
        <ele>175</ele>
        <time>2016-11-15T12:13:58Z</time>
      </trkpt>
      <trkpt lat="45.92067" lon="4.75651">
        <ele>175</ele>
        <time>2016-11-15T12:13:59Z</time>
      </trkpt>
      <trkpt lat="45.9207" lon="4.75645">
        <ele>175</ele>
        <time>2016-11-15T12:14:00Z</time>
      </trkpt>
      <trkpt lat="45.92073" lon="4.75639">
        <ele>175</ele>
        <time>2016-11-15T12:14:01Z</time>
      </trkpt>
      <trkpt lat="45.92076" lon="4.75633">
        <ele>175</ele>
        <time>2016-11-15T12:14:02Z</time>
      </trkpt>
      <trkpt lat="45.92079" lon="4.75627">
        <ele>175</ele>
        <time>2016-11-15T12:14:03Z</time>
      </trkpt>
      <trkpt lat="45.92082" lon="4.75621">
        <ele>175</ele>
        <time>2016-11-15T12:14:04Z</time>
      </trkpt>
      <trkpt lat="45.92086" lon="4.75616">
        <ele>174</ele>
        <time>2016-11-15T12:14:05Z</time>
      </trkpt>
      <trkpt lat="45.92089" lon="4.7561">
        <ele>174</ele>
        <time>2016-11-15T12:14:06Z</time>
      </trkpt>
      <trkpt lat="45.92092" lon="4.75604">
        <ele>174</ele>
        <time>2016-11-15T12:14:07Z</time>
      </trkpt>
      <trkpt lat="45.92095" lon="4.75599">
        <ele>174</ele>
        <time>2016-11-15T12:14:08Z</time>
      </trkpt>
      <trkpt lat="45.92098" lon="4.75593">
        <ele>174</ele>
        <time>2016-11-15T12:14:09Z</time>
      </trkpt>
      <trkpt lat="45.92101" lon="4.75587">
        <ele>174</ele>
        <time>2016-11-15T12:14:10Z</time>
      </trkpt>
      <trkpt lat="45.92104" lon="4.75581">
        <ele>174</ele>
        <time>2016-11-15T12:14:11Z</time>
      </trkpt>
      <trkpt lat="45.92108" lon="4.75575">
        <ele>174</ele>
        <time>2016-11-15T12:14:12Z</time>
      </trkpt>
      <trkpt lat="45.92111" lon="4.75569">
        <ele>174</ele>
        <time>2016-11-15T12:14:13Z</time>
      </trkpt>
      <trkpt lat="45.92115" lon="4.75563">
        <ele>174</ele>
        <time>2016-11-15T12:14:14Z</time>
      </trkpt>
      <trkpt lat="45.92119" lon="4.75557">
        <ele>174</ele>
        <time>2016-11-15T12:14:15Z</time>
      </trkpt>
      <trkpt lat="45.92122" lon="4.75551">
        <ele>174</ele>
        <time>2016-11-15T12:14:16Z</time>
      </trkpt>
      <trkpt lat="45.92125" lon="4.75545">
        <ele>174</ele>
        <time>2016-11-15T12:14:17Z</time>
      </trkpt>
      <trkpt lat="45.92128" lon="4.7554">
        <ele>174</ele>
        <time>2016-11-15T12:14:18Z</time>
      </trkpt>
      <trkpt lat="45.92131" lon="4.75533">
        <ele>174</ele>
        <time>2016-11-15T12:14:19Z</time>
      </trkpt>
      <trkpt lat="45.92134" lon="4.75528">
        <ele>174</ele>
        <time>2016-11-15T12:14:20Z</time>
      </trkpt>
      <trkpt lat="45.92137" lon="4.75523">
        <ele>174</ele>
        <time>2016-11-15T12:14:21Z</time>
      </trkpt>
      <trkpt lat="45.9214" lon="4.75517">
        <ele>174</ele>
        <time>2016-11-15T12:14:22Z</time>
      </trkpt>
      <trkpt lat="45.92143" lon="4.75511">
        <ele>174</ele>
        <time>2016-11-15T12:14:23Z</time>
      </trkpt>
      <trkpt lat="45.92146" lon="4.75504">
        <ele>175</ele>
        <time>2016-11-15T12:14:24Z</time>
      </trkpt>
      <trkpt lat="45.92148" lon="4.75498">
        <ele>175</ele>
        <time>2016-11-15T12:14:25Z</time>
      </trkpt>
      <trkpt lat="45.92151" lon="4.75492">
        <ele>175</ele>
        <time>2016-11-15T12:14:26Z</time>
      </trkpt>
      <trkpt lat="45.92154" lon="4.75485">
        <ele>176</ele>
        <time>2016-11-15T12:14:27Z</time>
      </trkpt>
      <trkpt lat="45.92157" lon="4.75478">
        <ele>176</ele>
        <time>2016-11-15T12:14:28Z</time>
      </trkpt>
      <trkpt lat="45.92159" lon="4.75471">
        <ele>176</ele>
        <time>2016-11-15T12:14:29Z</time>
      </trkpt>
      <trkpt lat="45.92162" lon="4.75464">
        <ele>176</ele>
        <time>2016-11-15T12:14:30Z</time>
      </trkpt>
      <trkpt lat="45.92165" lon="4.75457">
        <ele>176</ele>
        <time>2016-11-15T12:14:31Z</time>
      </trkpt>
      <trkpt lat="45.92167" lon="4.7545">
        <ele>176</ele>
        <time>2016-11-15T12:14:32Z</time>
      </trkpt>
      <trkpt lat="45.9217" lon="4.75443">
        <ele>177</ele>
        <time>2016-11-15T12:14:33Z</time>
      </trkpt>
      <trkpt lat="45.92173" lon="4.75436">
        <ele>177</ele>
        <time>2016-11-15T12:14:34Z</time>
      </trkpt>
      <trkpt lat="45.92175" lon="4.75429">
        <ele>177</ele>
        <time>2016-11-15T12:14:35Z</time>
      </trkpt>
      <trkpt lat="45.92178" lon="4.75421">
        <ele>177</ele>
        <time>2016-11-15T12:14:36Z</time>
      </trkpt>
      <trkpt lat="45.9218" lon="4.75414">
        <ele>177</ele>
        <time>2016-11-15T12:14:37Z</time>
      </trkpt>
      <trkpt lat="45.92183" lon="4.75407">
        <ele>177</ele>
        <time>2016-11-15T12:14:38Z</time>
      </trkpt>
      <trkpt lat="45.92186" lon="4.754">
        <ele>177</ele>
        <time>2016-11-15T12:14:39Z</time>
      </trkpt>
      <trkpt lat="45.92188" lon="4.75394">
        <ele>177</ele>
        <time>2016-11-15T12:14:40Z</time>
      </trkpt>
      <trkpt lat="45.92191" lon="4.75387">
        <ele>177</ele>
        <time>2016-11-15T12:14:41Z</time>
      </trkpt>
      <trkpt lat="45.92194" lon="4.7538">
        <ele>177</ele>
        <time>2016-11-15T12:14:42Z</time>
      </trkpt>
      <trkpt lat="45.92197" lon="4.75372">
        <ele>177</ele>
        <time>2016-11-15T12:14:43Z</time>
      </trkpt>
      <trkpt lat="45.92199" lon="4.75365">
        <ele>177</ele>
        <time>2016-11-15T12:14:44Z</time>
      </trkpt>
      <trkpt lat="45.92201" lon="4.75358">
        <ele>177</ele>
        <time>2016-11-15T12:14:45Z</time>
      </trkpt>
      <trkpt lat="45.92203" lon="4.75351">
        <ele>177</ele>
        <time>2016-11-15T12:14:46Z</time>
      </trkpt>
      <trkpt lat="45.92205" lon="4.75343">
        <ele>177</ele>
        <time>2016-11-15T12:14:47Z</time>
      </trkpt>
      <trkpt lat="45.92207" lon="4.75335">
        <ele>177</ele>
        <time>2016-11-15T12:14:48Z</time>
      </trkpt>
      <trkpt lat="45.92208" lon="4.75326">
        <ele>176</ele>
        <time>2016-11-15T12:14:49Z</time>
      </trkpt>
      <trkpt lat="45.92209" lon="4.75317">
        <ele>176</ele>
        <time>2016-11-15T12:14:50Z</time>
      </trkpt>
      <trkpt lat="45.9221" lon="4.75309">
        <ele>176</ele>
        <time>2016-11-15T12:14:51Z</time>
      </trkpt>
      <trkpt lat="45.92211" lon="4.75299">
        <ele>176</ele>
        <time>2016-11-15T12:14:52Z</time>
      </trkpt>
      <trkpt lat="45.92211" lon="4.7529">
        <ele>176</ele>
        <time>2016-11-15T12:14:53Z</time>
      </trkpt>
      <trkpt lat="45.92212" lon="4.75281">
        <ele>176</ele>
        <time>2016-11-15T12:14:54Z</time>
      </trkpt>
      <trkpt lat="45.92212" lon="4.75272">
        <ele>176</ele>
        <time>2016-11-15T12:14:55Z</time>
      </trkpt>
      <trkpt lat="45.92213" lon="4.75262">
        <ele>176</ele>
        <time>2016-11-15T12:14:56Z</time>
      </trkpt>
      <trkpt lat="45.92213" lon="4.75252">
        <ele>175</ele>
        <time>2016-11-15T12:14:57Z</time>
      </trkpt>
      <trkpt lat="45.92213" lon="4.75242">
        <ele>175</ele>
        <time>2016-11-15T12:14:58Z</time>
      </trkpt>
      <trkpt lat="45.92214" lon="4.75233">
        <ele>175</ele>
        <time>2016-11-15T12:14:59Z</time>
      </trkpt>
      <trkpt lat="45.92215" lon="4.75223">
        <ele>175</ele>
        <time>2016-11-15T12:15:00Z</time>
      </trkpt>
      <trkpt lat="45.92216" lon="4.75214">
        <ele>175</ele>
        <time>2016-11-15T12:15:01Z</time>
      </trkpt>
      <trkpt lat="45.92217" lon="4.75204">
        <ele>175</ele>
        <time>2016-11-15T12:15:02Z</time>
      </trkpt>
      <trkpt lat="45.92219" lon="4.75195">
        <ele>175</ele>
        <time>2016-11-15T12:15:03Z</time>
      </trkpt>
      <trkpt lat="45.92222" lon="4.75186">
        <ele>175</ele>
        <time>2016-11-15T12:15:04Z</time>
      </trkpt>
      <trkpt lat="45.92225" lon="4.75177">
        <ele>175</ele>
        <time>2016-11-15T12:15:05Z</time>
      </trkpt>
      <trkpt lat="45.92228" lon="4.75168">
        <ele>175</ele>
        <time>2016-11-15T12:15:06Z</time>
      </trkpt>
      <trkpt lat="45.92231" lon="4.7516">
        <ele>174</ele>
        <time>2016-11-15T12:15:07Z</time>
      </trkpt>
      <trkpt lat="45.92235" lon="4.75153">
        <ele>174</ele>
        <time>2016-11-15T12:15:08Z</time>
      </trkpt>
      <trkpt lat="45.92239" lon="4.75145">
        <ele>174</ele>
        <time>2016-11-15T12:15:09Z</time>
      </trkpt>
      <trkpt lat="45.92243" lon="4.75138">
        <ele>174</ele>
        <time>2016-11-15T12:15:10Z</time>
      </trkpt>
      <trkpt lat="45.92247" lon="4.75132">
        <ele>174</ele>
        <time>2016-11-15T12:15:11Z</time>
      </trkpt>
      <trkpt lat="45.92252" lon="4.75126">
        <ele>174</ele>
        <time>2016-11-15T12:15:12Z</time>
      </trkpt>
      <trkpt lat="45.92257" lon="4.7512">
        <ele>174</ele>
        <time>2016-11-15T12:15:13Z</time>
      </trkpt>
      <trkpt lat="45.92262" lon="4.75115">
        <ele>174</ele>
        <time>2016-11-15T12:15:14Z</time>
      </trkpt>
      <trkpt lat="45.92267" lon="4.75109">
        <ele>174</ele>
        <time>2016-11-15T12:15:15Z</time>
      </trkpt>
      <trkpt lat="45.92272" lon="4.75103">
        <ele>173</ele>
        <time>2016-11-15T12:15:16Z</time>
      </trkpt>
      <trkpt lat="45.92277" lon="4.75097">
        <ele>173</ele>
        <time>2016-11-15T12:15:17Z</time>
      </trkpt>
      <trkpt lat="45.92282" lon="4.75091">
        <ele>173</ele>
        <time>2016-11-15T12:15:18Z</time>
      </trkpt>
      <trkpt lat="45.92288" lon="4.75085">
        <ele>173</ele>
        <time>2016-11-15T12:15:19Z</time>
      </trkpt>
      <trkpt lat="45.92293" lon="4.75079">
        <ele>172</ele>
        <time>2016-11-15T12:15:20Z</time>
      </trkpt>
      <trkpt lat="45.92298" lon="4.75073">
        <ele>172</ele>
        <time>2016-11-15T12:15:21Z</time>
      </trkpt>
      <trkpt lat="45.92304" lon="4.75066">
        <ele>172</ele>
        <time>2016-11-15T12:15:22Z</time>
      </trkpt>
      <trkpt lat="45.92309" lon="4.7506">
        <ele>172</ele>
        <time>2016-11-15T12:15:23Z</time>
      </trkpt>
      <trkpt lat="45.92313" lon="4.75054">
        <ele>172</ele>
        <time>2016-11-15T12:15:24Z</time>
      </trkpt>
      <trkpt lat="45.92318" lon="4.75047">
        <ele>172</ele>
        <time>2016-11-15T12:15:25Z</time>
      </trkpt>
      <trkpt lat="45.92322" lon="4.7504">
        <ele>171</ele>
        <time>2016-11-15T12:15:26Z</time>
      </trkpt>
      <trkpt lat="45.92326" lon="4.75034">
        <ele>171</ele>
        <time>2016-11-15T12:15:27Z</time>
      </trkpt>
      <trkpt lat="45.9233" lon="4.75028">
        <ele>171</ele>
        <time>2016-11-15T12:15:28Z</time>
      </trkpt>
      <trkpt lat="45.92333" lon="4.75022">
        <ele>171</ele>
        <time>2016-11-15T12:15:29Z</time>
      </trkpt>
      <trkpt lat="45.92337" lon="4.75015">
        <ele>170</ele>
        <time>2016-11-15T12:15:30Z</time>
      </trkpt>
      <trkpt lat="45.9234" lon="4.75007">
        <ele>170</ele>
        <time>2016-11-15T12:15:31Z</time>
      </trkpt>
      <trkpt lat="45.92344" lon="4.74999">
        <ele>170</ele>
        <time>2016-11-15T12:15:32Z</time>
      </trkpt>
      <trkpt lat="45.92347" lon="4.74991">
        <ele>170</ele>
        <time>2016-11-15T12:15:33Z</time>
      </trkpt>
      <trkpt lat="45.9235" lon="4.74983">
        <ele>170</ele>
        <time>2016-11-15T12:15:34Z</time>
      </trkpt>
      <trkpt lat="45.92353" lon="4.74974">
        <ele>170</ele>
        <time>2016-11-15T12:15:35Z</time>
      </trkpt>
      <trkpt lat="45.92357" lon="4.74966">
        <ele>170</ele>
        <time>2016-11-15T12:15:36Z</time>
      </trkpt>
      <trkpt lat="45.9236" lon="4.74957">
        <ele>170</ele>
        <time>2016-11-15T12:15:37Z</time>
      </trkpt>
      <trkpt lat="45.92363" lon="4.74948">
        <ele>170</ele>
        <time>2016-11-15T12:15:38Z</time>
      </trkpt>
      <trkpt lat="45.92367" lon="4.74939">
        <ele>170</ele>
        <time>2016-11-15T12:15:39Z</time>
      </trkpt>
      <trkpt lat="45.9237" lon="4.74931">
        <ele>170</ele>
        <time>2016-11-15T12:15:40Z</time>
      </trkpt>
      <trkpt lat="45.92373" lon="4.74923">
        <ele>170</ele>
        <time>2016-11-15T12:15:41Z</time>
      </trkpt>
      <trkpt lat="45.92376" lon="4.74915">
        <ele>171</ele>
        <time>2016-11-15T12:15:42Z</time>
      </trkpt>
      <trkpt lat="45.92379" lon="4.74907">
        <ele>171</ele>
        <time>2016-11-15T12:15:43Z</time>
      </trkpt>
      <trkpt lat="45.92381" lon="4.749">
        <ele>171</ele>
        <time>2016-11-15T12:15:44Z</time>
      </trkpt>
      <trkpt lat="45.92384" lon="4.74893">
        <ele>171</ele>
        <time>2016-11-15T12:15:45Z</time>
      </trkpt>
      <trkpt lat="45.92386" lon="4.74885">
        <ele>171</ele>
        <time>2016-11-15T12:15:46Z</time>
      </trkpt>
      <trkpt lat="45.92389" lon="4.74878">
        <ele>171</ele>
        <time>2016-11-15T12:15:47Z</time>
      </trkpt>
      <trkpt lat="45.92391" lon="4.74871">
        <ele>171</ele>
        <time>2016-11-15T12:15:48Z</time>
      </trkpt>
      <trkpt lat="45.92394" lon="4.74862">
        <ele>171</ele>
        <time>2016-11-15T12:15:49Z</time>
      </trkpt>
      <trkpt lat="45.92396" lon="4.74854">
        <ele>171</ele>
        <time>2016-11-15T12:15:50Z</time>
      </trkpt>
      <trkpt lat="45.92399" lon="4.74846">
        <ele>171</ele>
        <time>2016-11-15T12:15:51Z</time>
      </trkpt>
      <trkpt lat="45.92401" lon="4.74838">
        <ele>171</ele>
        <time>2016-11-15T12:15:52Z</time>
      </trkpt>
      <trkpt lat="45.92403" lon="4.7483">
        <ele>171</ele>
        <time>2016-11-15T12:15:53Z</time>
      </trkpt>
      <trkpt lat="45.92405" lon="4.74822">
        <ele>171</ele>
        <time>2016-11-15T12:15:54Z</time>
      </trkpt>
      <trkpt lat="45.92407" lon="4.74815">
        <ele>171</ele>
        <time>2016-11-15T12:15:55Z</time>
      </trkpt>
      <trkpt lat="45.92409" lon="4.74807">
        <ele>171</ele>
        <time>2016-11-15T12:15:56Z</time>
      </trkpt>
      <trkpt lat="45.9241" lon="4.74799">
        <ele>171</ele>
        <time>2016-11-15T12:15:57Z</time>
      </trkpt>
      <trkpt lat="45.92412" lon="4.74792">
        <ele>171</ele>
        <time>2016-11-15T12:15:58Z</time>
      </trkpt>
      <trkpt lat="45.92414" lon="4.74785">
        <ele>171</ele>
        <time>2016-11-15T12:15:59Z</time>
      </trkpt>
      <trkpt lat="45.92415" lon="4.74778">
        <ele>171</ele>
        <time>2016-11-15T12:16:00Z</time>
      </trkpt>
      <trkpt lat="45.92417" lon="4.7477">
        <ele>171</ele>
        <time>2016-11-15T12:16:01Z</time>
      </trkpt>
      <trkpt lat="45.9242" lon="4.74764">
        <ele>171</ele>
        <time>2016-11-15T12:16:02Z</time>
      </trkpt>
      <trkpt lat="45.92422" lon="4.74756">
        <ele>172</ele>
        <time>2016-11-15T12:16:03Z</time>
      </trkpt>
      <trkpt lat="45.92424" lon="4.74749">
        <ele>172</ele>
        <time>2016-11-15T12:16:04Z</time>
      </trkpt>
      <trkpt lat="45.92427" lon="4.74741">
        <ele>171</ele>
        <time>2016-11-15T12:16:05Z</time>
      </trkpt>
      <trkpt lat="45.92429" lon="4.74733">
        <ele>171</ele>
        <time>2016-11-15T12:16:06Z</time>
      </trkpt>
      <trkpt lat="45.92431" lon="4.74726">
        <ele>171</ele>
        <time>2016-11-15T12:16:07Z</time>
      </trkpt>
      <trkpt lat="45.92434" lon="4.74719">
        <ele>171</ele>
        <time>2016-11-15T12:16:08Z</time>
      </trkpt>
      <trkpt lat="45.92436" lon="4.74712">
        <ele>171</ele>
        <time>2016-11-15T12:16:09Z</time>
      </trkpt>
      <trkpt lat="45.92439" lon="4.74704">
        <ele>171</ele>
        <time>2016-11-15T12:16:10Z</time>
      </trkpt>
      <trkpt lat="45.92442" lon="4.74697">
        <ele>171</ele>
        <time>2016-11-15T12:16:11Z</time>
      </trkpt>
      <trkpt lat="45.92445" lon="4.7469">
        <ele>171</ele>
        <time>2016-11-15T12:16:12Z</time>
      </trkpt>
      <trkpt lat="45.92448" lon="4.74683">
        <ele>171</ele>
        <time>2016-11-15T12:16:13Z</time>
      </trkpt>
      <trkpt lat="45.92451" lon="4.74676">
        <ele>171</ele>
        <time>2016-11-15T12:16:14Z</time>
      </trkpt>
      <trkpt lat="45.92455" lon="4.7467">
        <ele>171</ele>
        <time>2016-11-15T12:16:15Z</time>
      </trkpt>
      <trkpt lat="45.92459" lon="4.74663">
        <ele>171</ele>
        <time>2016-11-15T12:16:16Z</time>
      </trkpt>
      <trkpt lat="45.92464" lon="4.74655">
        <ele>171</ele>
        <time>2016-11-15T12:16:17Z</time>
      </trkpt>
      <trkpt lat="45.92468" lon="4.74647">
        <ele>171</ele>
        <time>2016-11-15T12:16:18Z</time>
      </trkpt>
      <trkpt lat="45.92473" lon="4.74639">
        <ele>171</ele>
        <time>2016-11-15T12:16:19Z</time>
      </trkpt>
      <trkpt lat="45.92477" lon="4.74632">
        <ele>171</ele>
        <time>2016-11-15T12:16:20Z</time>
      </trkpt>
      <trkpt lat="45.92482" lon="4.74626">
        <ele>171</ele>
        <time>2016-11-15T12:16:21Z</time>
      </trkpt>
      <trkpt lat="45.92487" lon="4.74619">
        <ele>171</ele>
        <time>2016-11-15T12:16:22Z</time>
      </trkpt>
      <trkpt lat="45.92491" lon="4.74613">
        <ele>171</ele>
        <time>2016-11-15T12:16:23Z</time>
      </trkpt>
      <trkpt lat="45.92496" lon="4.74607">
        <ele>171</ele>
        <time>2016-11-15T12:16:24Z</time>
      </trkpt>
      <trkpt lat="45.92501" lon="4.74602">
        <ele>171</ele>
        <time>2016-11-15T12:16:25Z</time>
      </trkpt>
      <trkpt lat="45.92505" lon="4.74597">
        <ele>171</ele>
        <time>2016-11-15T12:16:26Z</time>
      </trkpt>
      <trkpt lat="45.92509" lon="4.74592">
        <ele>171</ele>
        <time>2016-11-15T12:16:27Z</time>
      </trkpt>
      <trkpt lat="45.92514" lon="4.74587">
        <ele>171</ele>
        <time>2016-11-15T12:16:28Z</time>
      </trkpt>
      <trkpt lat="45.92518" lon="4.74581">
        <ele>171</ele>
        <time>2016-11-15T12:16:29Z</time>
      </trkpt>
      <trkpt lat="45.92523" lon="4.74576">
        <ele>171</ele>
        <time>2016-11-15T12:16:30Z</time>
      </trkpt>
      <trkpt lat="45.92528" lon="4.7457">
        <ele>171</ele>
        <time>2016-11-15T12:16:31Z</time>
      </trkpt>
      <trkpt lat="45.92532" lon="4.74563">
        <ele>171</ele>
        <time>2016-11-15T12:16:32Z</time>
      </trkpt>
      <trkpt lat="45.92537" lon="4.74557">
        <ele>171</ele>
        <time>2016-11-15T12:16:33Z</time>
      </trkpt>
      <trkpt lat="45.92541" lon="4.7455">
        <ele>171</ele>
        <time>2016-11-15T12:16:34Z</time>
      </trkpt>
      <trkpt lat="45.92545" lon="4.74543">
        <ele>170</ele>
        <time>2016-11-15T12:16:35Z</time>
      </trkpt>
      <trkpt lat="45.9255" lon="4.74536">
        <ele>170</ele>
        <time>2016-11-15T12:16:36Z</time>
      </trkpt>
      <trkpt lat="45.92554" lon="4.74529">
        <ele>170</ele>
        <time>2016-11-15T12:16:37Z</time>
      </trkpt>
      <trkpt lat="45.92558" lon="4.74522">
        <ele>170</ele>
        <time>2016-11-15T12:16:38Z</time>
      </trkpt>
      <trkpt lat="45.92562" lon="4.74515">
        <ele>170</ele>
        <time>2016-11-15T12:16:39Z</time>
      </trkpt>
      <trkpt lat="45.92566" lon="4.74508">
        <ele>170</ele>
        <time>2016-11-15T12:16:40Z</time>
      </trkpt>
      <trkpt lat="45.9257" lon="4.74501">
        <ele>170</ele>
        <time>2016-11-15T12:16:41Z</time>
      </trkpt>
      <trkpt lat="45.92573" lon="4.74495">
        <ele>170</ele>
        <time>2016-11-15T12:16:42Z</time>
      </trkpt>
      <trkpt lat="45.92577" lon="4.74488">
        <ele>170</ele>
        <time>2016-11-15T12:16:43Z</time>
      </trkpt>
      <trkpt lat="45.9258" lon="4.74482">
        <ele>170</ele>
        <time>2016-11-15T12:16:44Z</time>
      </trkpt>
      <trkpt lat="45.92583" lon="4.74476">
        <ele>170</ele>
        <time>2016-11-15T12:16:45Z</time>
      </trkpt>
      <trkpt lat="45.92587" lon="4.7447">
        <ele>170</ele>
        <time>2016-11-15T12:16:46Z</time>
      </trkpt>
      <trkpt lat="45.9259" lon="4.74464">
        <ele>170</ele>
        <time>2016-11-15T12:16:47Z</time>
      </trkpt>
      <trkpt lat="45.92593" lon="4.74457">
        <ele>170</ele>
        <time>2016-11-15T12:16:48Z</time>
      </trkpt>
      <trkpt lat="45.92597" lon="4.74451">
        <ele>170</ele>
        <time>2016-11-15T12:16:49Z</time>
      </trkpt>
      <trkpt lat="45.926" lon="4.74444">
        <ele>170</ele>
        <time>2016-11-15T12:16:50Z</time>
      </trkpt>
      <trkpt lat="45.92604" lon="4.74437">
        <ele>170</ele>
        <time>2016-11-15T12:16:51Z</time>
      </trkpt>
      <trkpt lat="45.92608" lon="4.74429">
        <ele>170</ele>
        <time>2016-11-15T12:16:52Z</time>
      </trkpt>
      <trkpt lat="45.92612" lon="4.74422">
        <ele>170</ele>
        <time>2016-11-15T12:16:53Z</time>
      </trkpt>
      <trkpt lat="45.92616" lon="4.74414">
        <ele>170</ele>
        <time>2016-11-15T12:16:54Z</time>
      </trkpt>
      <trkpt lat="45.92621" lon="4.74407">
        <ele>170</ele>
        <time>2016-11-15T12:16:55Z</time>
      </trkpt>
      <trkpt lat="45.92625" lon="4.74399">
        <ele>170</ele>
        <time>2016-11-15T12:16:56Z</time>
      </trkpt>
      <trkpt lat="45.92628" lon="4.74392">
        <ele>170</ele>
        <time>2016-11-15T12:16:57Z</time>
      </trkpt>
      <trkpt lat="45.92632" lon="4.74385">
        <ele>170</ele>
        <time>2016-11-15T12:16:58Z</time>
      </trkpt>
      <trkpt lat="45.92635" lon="4.74379">
        <ele>170</ele>
        <time>2016-11-15T12:16:59Z</time>
      </trkpt>
      <trkpt lat="45.92639" lon="4.74372">
        <ele>171</ele>
        <time>2016-11-15T12:17:00Z</time>
      </trkpt>
      <trkpt lat="45.92642" lon="4.74366">
        <ele>171</ele>
        <time>2016-11-15T12:17:01Z</time>
      </trkpt>
      <trkpt lat="45.92645" lon="4.7436">
        <ele>171</ele>
        <time>2016-11-15T12:17:02Z</time>
      </trkpt>
      <trkpt lat="45.92649" lon="4.74355">
        <ele>171</ele>
        <time>2016-11-15T12:17:03Z</time>
      </trkpt>
      <trkpt lat="45.92652" lon="4.74349">
        <ele>171</ele>
        <time>2016-11-15T12:17:04Z</time>
      </trkpt>
      <trkpt lat="45.92655" lon="4.74343">
        <ele>171</ele>
        <time>2016-11-15T12:17:05Z</time>
      </trkpt>
      <trkpt lat="45.92659" lon="4.74336">
        <ele>171</ele>
        <time>2016-11-15T12:17:06Z</time>
      </trkpt>
      <trkpt lat="45.92662" lon="4.7433">
        <ele>171</ele>
        <time>2016-11-15T12:17:07Z</time>
      </trkpt>
      <trkpt lat="45.92666" lon="4.74324">
        <ele>171</ele>
        <time>2016-11-15T12:17:08Z</time>
      </trkpt>
      <trkpt lat="45.92669" lon="4.74318">
        <ele>171</ele>
        <time>2016-11-15T12:17:09Z</time>
      </trkpt>
      <trkpt lat="45.92672" lon="4.74312">
        <ele>171</ele>
        <time>2016-11-15T12:17:10Z</time>
      </trkpt>
      <trkpt lat="45.92676" lon="4.74305">
        <ele>171</ele>
        <time>2016-11-15T12:17:11Z</time>
      </trkpt>
      <trkpt lat="45.92679" lon="4.74299">
        <ele>171</ele>
        <time>2016-11-15T12:17:12Z</time>
      </trkpt>
      <trkpt lat="45.92683" lon="4.74292">
        <ele>171</ele>
        <time>2016-11-15T12:17:13Z</time>
      </trkpt>
      <trkpt lat="45.92687" lon="4.74286">
        <ele>171</ele>
        <time>2016-11-15T12:17:14Z</time>
      </trkpt>
      <trkpt lat="45.9269" lon="4.74279">
        <ele>171</ele>
        <time>2016-11-15T12:17:15Z</time>
      </trkpt>
      <trkpt lat="45.92694" lon="4.74273">
        <ele>171</ele>
        <time>2016-11-15T12:17:16Z</time>
      </trkpt>
      <trkpt lat="45.92698" lon="4.74266">
        <ele>171</ele>
        <time>2016-11-15T12:17:17Z</time>
      </trkpt>
      <trkpt lat="45.92702" lon="4.7426">
        <ele>171</ele>
        <time>2016-11-15T12:17:18Z</time>
      </trkpt>
      <trkpt lat="45.92706" lon="4.74254">
        <ele>171</ele>
        <time>2016-11-15T12:17:19Z</time>
      </trkpt>
      <trkpt lat="45.9271" lon="4.74248">
        <ele>171</ele>
        <time>2016-11-15T12:17:20Z</time>
      </trkpt>
      <trkpt lat="45.92713" lon="4.74242">
        <ele>171</ele>
        <time>2016-11-15T12:17:21Z</time>
      </trkpt>
      <trkpt lat="45.92717" lon="4.74236">
        <ele>171</ele>
        <time>2016-11-15T12:17:22Z</time>
      </trkpt>
      <trkpt lat="45.92721" lon="4.74231">
        <ele>171</ele>
        <time>2016-11-15T12:17:23Z</time>
      </trkpt>
      <trkpt lat="45.92725" lon="4.74225">
        <ele>171</ele>
        <time>2016-11-15T12:17:24Z</time>
      </trkpt>
      <trkpt lat="45.92728" lon="4.7422">
        <ele>171</ele>
        <time>2016-11-15T12:17:25Z</time>
      </trkpt>
      <trkpt lat="45.92732" lon="4.74214">
        <ele>171</ele>
        <time>2016-11-15T12:17:26Z</time>
      </trkpt>
      <trkpt lat="45.92736" lon="4.74209">
        <ele>171</ele>
        <time>2016-11-15T12:17:27Z</time>
      </trkpt>
      <trkpt lat="45.92741" lon="4.74203">
        <ele>171</ele>
        <time>2016-11-15T12:17:28Z</time>
      </trkpt>
      <trkpt lat="45.92745" lon="4.74197">
        <ele>171</ele>
        <time>2016-11-15T12:17:29Z</time>
      </trkpt>
      <trkpt lat="45.9275" lon="4.74191">
        <ele>172</ele>
        <time>2016-11-15T12:17:30Z</time>
      </trkpt>
      <trkpt lat="45.92755" lon="4.74184">
        <ele>172</ele>
        <time>2016-11-15T12:17:31Z</time>
      </trkpt>
      <trkpt lat="45.9276" lon="4.74178">
        <ele>172</ele>
        <time>2016-11-15T12:17:32Z</time>
      </trkpt>
      <trkpt lat="45.92764" lon="4.74171">
        <ele>172</ele>
        <time>2016-11-15T12:17:33Z</time>
      </trkpt>
      <trkpt lat="45.9277" lon="4.74166">
        <ele>172</ele>
        <time>2016-11-15T12:17:34Z</time>
      </trkpt>
      <trkpt lat="45.92775" lon="4.7416">
        <ele>172</ele>
        <time>2016-11-15T12:17:35Z</time>
      </trkpt>
      <trkpt lat="45.92781" lon="4.74155">
        <ele>172</ele>
        <time>2016-11-15T12:17:36Z</time>
      </trkpt>
      <trkpt lat="45.92786" lon="4.7415">
        <ele>172</ele>
        <time>2016-11-15T12:17:37Z</time>
      </trkpt>
      <trkpt lat="45.92791" lon="4.74145">
        <ele>172</ele>
        <time>2016-11-15T12:17:38Z</time>
      </trkpt>
      <trkpt lat="45.92795" lon="4.7414">
        <ele>172</ele>
        <time>2016-11-15T12:17:39Z</time>
      </trkpt>
      <trkpt lat="45.928" lon="4.74135">
        <ele>172</ele>
        <time>2016-11-15T12:17:40Z</time>
      </trkpt>
      <trkpt lat="45.92804" lon="4.7413">
        <ele>172</ele>
        <time>2016-11-15T12:17:41Z</time>
      </trkpt>
      <trkpt lat="45.92808" lon="4.74125">
        <ele>172</ele>
        <time>2016-11-15T12:17:42Z</time>
      </trkpt>
      <trkpt lat="45.92813" lon="4.7412">
        <ele>172</ele>
        <time>2016-11-15T12:17:43Z</time>
      </trkpt>
      <trkpt lat="45.92817" lon="4.74116">
        <ele>172</ele>
        <time>2016-11-15T12:17:44Z</time>
      </trkpt>
      <trkpt lat="45.92821" lon="4.74111">
        <ele>172</ele>
        <time>2016-11-15T12:17:45Z</time>
      </trkpt>
      <trkpt lat="45.92825" lon="4.74107">
        <ele>171</ele>
        <time>2016-11-15T12:17:46Z</time>
      </trkpt>
      <trkpt lat="45.92829" lon="4.74102">
        <ele>171</ele>
        <time>2016-11-15T12:17:47Z</time>
      </trkpt>
      <trkpt lat="45.92833" lon="4.74097">
        <ele>171</ele>
        <time>2016-11-15T12:17:48Z</time>
      </trkpt>
      <trkpt lat="45.92838" lon="4.74093">
        <ele>171</ele>
        <time>2016-11-15T12:17:49Z</time>
      </trkpt>
      <trkpt lat="45.92842" lon="4.74087">
        <ele>171</ele>
        <time>2016-11-15T12:17:50Z</time>
      </trkpt>
      <trkpt lat="45.92847" lon="4.74082">
        <ele>172</ele>
        <time>2016-11-15T12:17:51Z</time>
      </trkpt>
      <trkpt lat="45.92851" lon="4.74076">
        <ele>172</ele>
        <time>2016-11-15T12:17:52Z</time>
      </trkpt>
      <trkpt lat="45.92855" lon="4.7407">
        <ele>172</ele>
        <time>2016-11-15T12:17:53Z</time>
      </trkpt>
      <trkpt lat="45.9286" lon="4.74064">
        <ele>172</ele>
        <time>2016-11-15T12:17:54Z</time>
      </trkpt>
      <trkpt lat="45.92864" lon="4.74059">
        <ele>172</ele>
        <time>2016-11-15T12:17:55Z</time>
      </trkpt>
      <trkpt lat="45.92869" lon="4.74054">
        <ele>172</ele>
        <time>2016-11-15T12:17:56Z</time>
      </trkpt>
      <trkpt lat="45.92873" lon="4.7405">
        <ele>172</ele>
        <time>2016-11-15T12:17:57Z</time>
      </trkpt>
      <trkpt lat="45.92878" lon="4.74047">
        <ele>172</ele>
        <time>2016-11-15T12:17:58Z</time>
      </trkpt>
      <trkpt lat="45.92883" lon="4.74046">
        <ele>172</ele>
        <time>2016-11-15T12:17:59Z</time>
      </trkpt>
      <trkpt lat="45.92887" lon="4.74046">
        <ele>172</ele>
        <time>2016-11-15T12:18:00Z</time>
      </trkpt>
      <trkpt lat="45.92892" lon="4.74046">
        <ele>172</ele>
        <time>2016-11-15T12:18:01Z</time>
      </trkpt>
      <trkpt lat="45.92897" lon="4.74046">
        <ele>172</ele>
        <time>2016-11-15T12:18:02Z</time>
      </trkpt>
      <trkpt lat="45.92902" lon="4.74045">
        <ele>172</ele>
        <time>2016-11-15T12:18:03Z</time>
      </trkpt>
      <trkpt lat="45.92907" lon="4.74041">
        <ele>172</ele>
        <time>2016-11-15T12:18:04Z</time>
      </trkpt>
      <trkpt lat="45.92911" lon="4.74035">
        <ele>172</ele>
        <time>2016-11-15T12:18:05Z</time>
      </trkpt>
      <trkpt lat="45.92913" lon="4.74029">
        <ele>172</ele>
        <time>2016-11-15T12:18:06Z</time>
      </trkpt>
      <trkpt lat="45.92914" lon="4.74021">
        <ele>172</ele>
        <time>2016-11-15T12:18:07Z</time>
      </trkpt>
      <trkpt lat="45.92914" lon="4.74013">
        <ele>172</ele>
        <time>2016-11-15T12:18:08Z</time>
      </trkpt>
      <trkpt lat="45.92913" lon="4.74005">
        <ele>172</ele>
        <time>2016-11-15T12:18:09Z</time>
      </trkpt>
      <trkpt lat="45.9291" lon="4.73997">
        <ele>172</ele>
        <time>2016-11-15T12:18:10Z</time>
      </trkpt>
      <trkpt lat="45.92907" lon="4.7399">
        <ele>172</ele>
        <time>2016-11-15T12:18:11Z</time>
      </trkpt>
      <trkpt lat="45.92902" lon="4.73985">
        <ele>172</ele>
        <time>2016-11-15T12:18:12Z</time>
      </trkpt>
      <trkpt lat="45.92897" lon="4.73981">
        <ele>172</ele>
        <time>2016-11-15T12:18:13Z</time>
      </trkpt>
      <trkpt lat="45.92892" lon="4.73976">
        <ele>172</ele>
        <time>2016-11-15T12:18:14Z</time>
      </trkpt>
      <trkpt lat="45.92888" lon="4.73971">
        <ele>172</ele>
        <time>2016-11-15T12:18:15Z</time>
      </trkpt>
      <trkpt lat="45.92885" lon="4.73964">
        <ele>172</ele>
        <time>2016-11-15T12:18:16Z</time>
      </trkpt>
      <trkpt lat="45.92884" lon="4.73956">
        <ele>172</ele>
        <time>2016-11-15T12:18:17Z</time>
      </trkpt>
      <trkpt lat="45.92883" lon="4.73947">
        <ele>172</ele>
        <time>2016-11-15T12:18:18Z</time>
      </trkpt>
      <trkpt lat="45.92883" lon="4.73937">
        <ele>172</ele>
        <time>2016-11-15T12:18:19Z</time>
      </trkpt>
      <trkpt lat="45.92882" lon="4.73928">
        <ele>172</ele>
        <time>2016-11-15T12:18:20Z</time>
      </trkpt>
      <trkpt lat="45.92881" lon="4.73917">
        <ele>172</ele>
        <time>2016-11-15T12:18:21Z</time>
      </trkpt>
      <trkpt lat="45.9288" lon="4.73907">
        <ele>173</ele>
        <time>2016-11-15T12:18:22Z</time>
      </trkpt>
      <trkpt lat="45.92879" lon="4.73897">
        <ele>173</ele>
        <time>2016-11-15T12:18:23Z</time>
      </trkpt>
      <trkpt lat="45.92877" lon="4.73887">
        <ele>173</ele>
        <time>2016-11-15T12:18:24Z</time>
      </trkpt>
      <trkpt lat="45.92875" lon="4.73878">
        <ele>173</ele>
        <time>2016-11-15T12:18:25Z</time>
      </trkpt>
      <trkpt lat="45.92873" lon="4.73868">
        <ele>173</ele>
        <time>2016-11-15T12:18:26Z</time>
      </trkpt>
      <trkpt lat="45.92871" lon="4.7386">
        <ele>173</ele>
        <time>2016-11-15T12:18:27Z</time>
      </trkpt>
      <trkpt lat="45.92868" lon="4.73851">
        <ele>173</ele>
        <time>2016-11-15T12:18:28Z</time>
      </trkpt>
      <trkpt lat="45.92866" lon="4.73842">
        <ele>173</ele>
        <time>2016-11-15T12:18:29Z</time>
      </trkpt>
      <trkpt lat="45.92864" lon="4.73834">
        <ele>173</ele>
        <time>2016-11-15T12:18:30Z</time>
      </trkpt>
      <trkpt lat="45.92862" lon="4.73826">
        <ele>173</ele>
        <time>2016-11-15T12:18:31Z</time>
      </trkpt>
      <trkpt lat="45.9286" lon="4.73818">
        <ele>173</ele>
        <time>2016-11-15T12:18:32Z</time>
      </trkpt>
      <trkpt lat="45.92857" lon="4.73811">
        <ele>173</ele>
        <time>2016-11-15T12:18:33Z</time>
      </trkpt>
      <trkpt lat="45.92854" lon="4.73805">
        <ele>173</ele>
        <time>2016-11-15T12:18:34Z</time>
      </trkpt>
      <trkpt lat="45.92851" lon="4.73799">
        <ele>173</ele>
        <time>2016-11-15T12:18:35Z</time>
      </trkpt>
      <trkpt lat="45.92847" lon="4.73793">
        <ele>173</ele>
        <time>2016-11-15T12:18:36Z</time>
      </trkpt>
      <trkpt lat="45.92842" lon="4.73788">
        <ele>173</ele>
        <time>2016-11-15T12:18:37Z</time>
      </trkpt>
      <trkpt lat="45.92837" lon="4.73784">
        <ele>173</ele>
        <time>2016-11-15T12:18:38Z</time>
      </trkpt>
      <trkpt lat="45.92832" lon="4.73779">
        <ele>173</ele>
        <time>2016-11-15T12:18:39Z</time>
      </trkpt>
      <trkpt lat="45.92827" lon="4.73775">
        <ele>173</ele>
        <time>2016-11-15T12:18:40Z</time>
      </trkpt>
      <trkpt lat="45.92822" lon="4.73772">
        <ele>173</ele>
        <time>2016-11-15T12:18:41Z</time>
      </trkpt>
      <trkpt lat="45.92817" lon="4.73769">
        <ele>173</ele>
        <time>2016-11-15T12:18:42Z</time>
      </trkpt>
      <trkpt lat="45.92812" lon="4.73766">
        <ele>173</ele>
        <time>2016-11-15T12:18:43Z</time>
      </trkpt>
      <trkpt lat="45.92807" lon="4.73763">
        <ele>173</ele>
        <time>2016-11-15T12:18:44Z</time>
      </trkpt>
      <trkpt lat="45.92802" lon="4.73761">
        <ele>173</ele>
        <time>2016-11-15T12:18:45Z</time>
      </trkpt>
      <trkpt lat="45.92793" lon="4.73757">
        <ele>173</ele>
        <time>2016-11-15T12:18:47Z</time>
      </trkpt>
      <trkpt lat="45.92789" lon="4.73755">
        <ele>173</ele>
        <time>2016-11-15T12:18:48Z</time>
      </trkpt>
      <trkpt lat="45.92782" lon="4.73749">
        <ele>172</ele>
        <time>2016-11-15T12:18:50Z</time>
      </trkpt>
      <trkpt lat="45.92779" lon="4.73745">
        <ele>172</ele>
        <time>2016-11-15T12:18:51Z</time>
      </trkpt>
      <trkpt lat="45.92773" lon="4.73737">
        <ele>172</ele>
        <time>2016-11-15T12:18:53Z</time>
      </trkpt>
      <trkpt lat="45.9277" lon="4.73733">
        <ele>172</ele>
        <time>2016-11-15T12:18:54Z</time>
      </trkpt>
      <trkpt lat="45.92762" lon="4.73728">
        <ele>172</ele>
        <time>2016-11-15T12:18:56Z</time>
      </trkpt>
      <trkpt lat="45.92757" lon="4.73727">
        <ele>172</ele>
        <time>2016-11-15T12:18:57Z</time>
      </trkpt>
      <trkpt lat="45.92752" lon="4.73725">
        <ele>172</ele>
        <time>2016-11-15T12:18:58Z</time>
      </trkpt>
      <trkpt lat="45.92747" lon="4.73723">
        <ele>173</ele>
        <time>2016-11-15T12:18:59Z</time>
      </trkpt>
      <trkpt lat="45.92741" lon="4.73722">
        <ele>173</ele>
        <time>2016-11-15T12:19:00Z</time>
      </trkpt>
      <trkpt lat="45.92736" lon="4.73721">
        <ele>173</ele>
        <time>2016-11-15T12:19:01Z</time>
      </trkpt>
      <trkpt lat="45.9273" lon="4.7372">
        <ele>173</ele>
        <time>2016-11-15T12:19:02Z</time>
      </trkpt>
      <trkpt lat="45.92724" lon="4.73718">
        <ele>173</ele>
        <time>2016-11-15T12:19:03Z</time>
      </trkpt>
      <trkpt lat="45.92718" lon="4.73716">
        <ele>173</ele>
        <time>2016-11-15T12:19:04Z</time>
      </trkpt>
      <trkpt lat="45.92715" lon="4.73714">
        <ele>173</ele>
        <time>2016-11-15T12:19:05Z</time>
      </trkpt>
      <trkpt lat="45.92711" lon="4.73711">
        <ele>173</ele>
        <time>2016-11-15T12:19:06Z</time>
      </trkpt>
      <trkpt lat="45.92705" lon="4.7371">
        <ele>173</ele>
        <time>2016-11-15T12:19:07Z</time>
      </trkpt>
      <trkpt lat="45.927" lon="4.73709">
        <ele>173</ele>
        <time>2016-11-15T12:19:08Z</time>
      </trkpt>
      <trkpt lat="45.92696" lon="4.73708">
        <ele>173</ele>
        <time>2016-11-15T12:19:09Z</time>
      </trkpt>
      <trkpt lat="45.9269" lon="4.73707">
        <ele>173</ele>
        <time>2016-11-15T12:19:10Z</time>
      </trkpt>
      <trkpt lat="45.92685" lon="4.73705">
        <ele>173</ele>
        <time>2016-11-15T12:19:11Z</time>
      </trkpt>
      <trkpt lat="45.9268" lon="4.73704">
        <ele>173</ele>
        <time>2016-11-15T12:19:12Z</time>
      </trkpt>
      <trkpt lat="45.92675" lon="4.73703">
        <ele>174</ele>
        <time>2016-11-15T12:19:13Z</time>
      </trkpt>
      <trkpt lat="45.92671" lon="4.73702">
        <ele>174</ele>
        <time>2016-11-15T12:19:14Z</time>
      </trkpt>
      <trkpt lat="45.92666" lon="4.737">
        <ele>173</ele>
        <time>2016-11-15T12:19:15Z</time>
      </trkpt>
      <trkpt lat="45.92662" lon="4.73697">
        <ele>173</ele>
        <time>2016-11-15T12:19:16Z</time>
      </trkpt>
      <trkpt lat="45.92658" lon="4.73694">
        <ele>173</ele>
        <time>2016-11-15T12:19:17Z</time>
      </trkpt>
      <trkpt lat="45.92654" lon="4.7369">
        <ele>173</ele>
        <time>2016-11-15T12:19:18Z</time>
      </trkpt>
      <trkpt lat="45.92649" lon="4.73686">
        <ele>173</ele>
        <time>2016-11-15T12:19:19Z</time>
      </trkpt>
      <trkpt lat="45.92645" lon="4.73681">
        <ele>173</ele>
        <time>2016-11-15T12:19:20Z</time>
      </trkpt>
      <trkpt lat="45.92642" lon="4.73676">
        <ele>173</ele>
        <time>2016-11-15T12:19:21Z</time>
      </trkpt>
      <trkpt lat="45.92639" lon="4.7367">
        <ele>173</ele>
        <time>2016-11-15T12:19:22Z</time>
      </trkpt>
      <trkpt lat="45.92635" lon="4.73665">
        <ele>173</ele>
        <time>2016-11-15T12:19:23Z</time>
      </trkpt>
      <trkpt lat="45.92631" lon="4.73659">
        <ele>173</ele>
        <time>2016-11-15T12:19:24Z</time>
      </trkpt>
      <trkpt lat="45.92628" lon="4.73653">
        <ele>173</ele>
        <time>2016-11-15T12:19:25Z</time>
      </trkpt>
      <trkpt lat="45.92625" lon="4.73647">
        <ele>173</ele>
        <time>2016-11-15T12:19:26Z</time>
      </trkpt>
      <trkpt lat="45.92623" lon="4.7364">
        <ele>173</ele>
        <time>2016-11-15T12:19:27Z</time>
      </trkpt>
      <trkpt lat="45.9262" lon="4.73635">
        <ele>173</ele>
        <time>2016-11-15T12:19:28Z</time>
      </trkpt>
      <trkpt lat="45.92616" lon="4.7363">
        <ele>173</ele>
        <time>2016-11-15T12:19:29Z</time>
      </trkpt>
      <trkpt lat="45.92612" lon="4.73627">
        <ele>173</ele>
        <time>2016-11-15T12:19:30Z</time>
      </trkpt>
      <trkpt lat="45.92606" lon="4.73624">
        <ele>173</ele>
        <time>2016-11-15T12:19:31Z</time>
      </trkpt>
      <trkpt lat="45.926" lon="4.73622">
        <ele>173</ele>
        <time>2016-11-15T12:19:32Z</time>
      </trkpt>
      <trkpt lat="45.92595" lon="4.73619">
        <ele>173</ele>
        <time>2016-11-15T12:19:33Z</time>
      </trkpt>
      <trkpt lat="45.9259" lon="4.73619">
        <ele>173</ele>
        <time>2016-11-15T12:19:34Z</time>
      </trkpt>
      <trkpt lat="45.92584" lon="4.73619">
        <ele>173</ele>
        <time>2016-11-15T12:19:35Z</time>
      </trkpt>
      <trkpt lat="45.92578" lon="4.73621">
        <ele>173</ele>
        <time>2016-11-15T12:19:36Z</time>
      </trkpt>
      <trkpt lat="45.92572" lon="4.73622">
        <ele>173</ele>
        <time>2016-11-15T12:19:37Z</time>
      </trkpt>
      <trkpt lat="45.92566" lon="4.73624">
        <ele>173</ele>
        <time>2016-11-15T12:19:38Z</time>
      </trkpt>
      <trkpt lat="45.9256" lon="4.73625">
        <ele>173</ele>
        <time>2016-11-15T12:19:39Z</time>
      </trkpt>
      <trkpt lat="45.92554" lon="4.73627">
        <ele>173</ele>
        <time>2016-11-15T12:19:40Z</time>
      </trkpt>
      <trkpt lat="45.92548" lon="4.73629">
        <ele>173</ele>
        <time>2016-11-15T12:19:41Z</time>
      </trkpt>
      <trkpt lat="45.92543" lon="4.7363">
        <ele>173</ele>
        <time>2016-11-15T12:19:42Z</time>
      </trkpt>
      <trkpt lat="45.92537" lon="4.73631">
        <ele>173</ele>
        <time>2016-11-15T12:19:43Z</time>
      </trkpt>
      <trkpt lat="45.92532" lon="4.73631">
        <ele>173</ele>
        <time>2016-11-15T12:19:44Z</time>
      </trkpt>
      <trkpt lat="45.92527" lon="4.73632">
        <ele>173</ele>
        <time>2016-11-15T12:19:45Z</time>
      </trkpt>
      <trkpt lat="45.92523" lon="4.73634">
        <ele>173</ele>
        <time>2016-11-15T12:19:46Z</time>
      </trkpt>
      <trkpt lat="45.92518" lon="4.73634">
        <ele>173</ele>
        <time>2016-11-15T12:19:47Z</time>
      </trkpt>
      <trkpt lat="45.92514" lon="4.73635">
        <ele>173</ele>
        <time>2016-11-15T12:19:48Z</time>
      </trkpt>
      <trkpt lat="45.92509" lon="4.73636">
        <ele>174</ele>
        <time>2016-11-15T12:19:49Z</time>
      </trkpt>
      <trkpt lat="45.92501" lon="4.73637">
        <ele>174</ele>
        <time>2016-11-15T12:19:51Z</time>
      </trkpt>
      <trkpt lat="45.92497" lon="4.73637">
        <ele>174</ele>
        <time>2016-11-15T12:19:52Z</time>
      </trkpt>
      <trkpt lat="45.92489" lon="4.73638">
        <ele>174</ele>
        <time>2016-11-15T12:19:54Z</time>
      </trkpt>
      <trkpt lat="45.92485" lon="4.73638">
        <ele>174</ele>
        <time>2016-11-15T12:19:55Z</time>
      </trkpt>
      <trkpt lat="45.92478" lon="4.73638">
        <ele>174</ele>
        <time>2016-11-15T12:19:57Z</time>
      </trkpt>
      <trkpt lat="45.92475" lon="4.73639">
        <ele>174</ele>
        <time>2016-11-15T12:19:58Z</time>
      </trkpt>
      <trkpt lat="45.92468" lon="4.73644">
        <ele>174</ele>
        <time>2016-11-15T12:20:00Z</time>
      </trkpt>
      <trkpt lat="45.92466" lon="4.73649">
        <ele>174</ele>
        <time>2016-11-15T12:20:01Z</time>
      </trkpt>
      <trkpt lat="45.92463" lon="4.73659">
        <ele>174</ele>
        <time>2016-11-15T12:20:03Z</time>
      </trkpt>
      <trkpt lat="45.92461" lon="4.73665">
        <ele>174</ele>
        <time>2016-11-15T12:20:04Z</time>
      </trkpt>
      <trkpt lat="45.92459" lon="4.73674">
        <ele>174</ele>
        <time>2016-11-15T12:20:06Z</time>
      </trkpt>
      <trkpt lat="45.92458" lon="4.73678">
        <ele>174</ele>
        <time>2016-11-15T12:20:07Z</time>
      </trkpt>
      <trkpt lat="45.92457" lon="4.7369">
        <ele>174</ele>
        <time>2016-11-15T12:20:10Z</time>
      </trkpt>
      <trkpt lat="45.92457" lon="4.73694">
        <ele>174</ele>
        <time>2016-11-15T12:20:11Z</time>
      </trkpt>
      <trkpt lat="45.92456" lon="4.73701">
        <ele>174</ele>
        <time>2016-11-15T12:20:13Z</time>
      </trkpt>
      <trkpt lat="45.92453" lon="4.73706">
        <ele>174</ele>
        <time>2016-11-15T12:20:14Z</time>
      </trkpt>
      <trkpt lat="45.92458" lon="4.73706">
        <ele>174</ele>
        <time>2016-11-15T12:20:21Z</time>
      </trkpt>
      <trkpt lat="45.92457" lon="4.73708">
        <ele>174</ele>
        <time>2016-11-15T12:20:22Z</time>
      </trkpt>
      <trkpt lat="45.92454" lon="4.7371">
        <ele>174</ele>
        <time>2016-11-15T12:20:26Z</time>
      </trkpt>
      <trkpt lat="45.92453" lon="4.7371">
        <ele>174</ele>
        <time>2016-11-15T12:20:27Z</time>
      </trkpt>
      <trkpt lat="45.92454" lon="4.7371">
        <ele>174</ele>
        <time>2016-11-15T12:20:48.376Z</time>
      </trkpt>
    </trkseg>
  </trk>
</gpx>